<?xml version='1.0' encoding='UTF-8'?><gpx version="1.1" creator="JPX - https://github.com/jenetics/jpx" xmlns="http://www.topografix.com/GPX/1/1"><trk><trkseg><trkpt lat="53.39715107996897" lon="14.675031185587526"><ele>1.9999999999999998</ele><time>2026-04-06T12:30:25.965Z</time></trkpt><trkpt lat="53.39717303285183" lon="14.674899390904137"><ele>2.0</ele><time>2026-04-06T12:30:27.965Z</time></trkpt><trkpt lat="53.39718502758167" lon="14.674771815806091"><ele>2.0</ele><time>2026-04-06T12:30:29.965Z</time></trkpt><trkpt lat="53.397167708043646" lon="14.674635210825329"><ele>2.0</ele><time>2026-04-06T12:30:31.963Z</time></trkpt><trkpt lat="53.3970755299478" lon="14.674548845947713"><ele>1.9999999999999998</ele><time>2026-04-06T12:30:33.962Z</time></trkpt><trkpt lat="53.39699061316025" lon="14.67456453219983"><ele>2.0</ele><time>2026-04-06T12:30:35.962Z</time></trkpt><trkpt lat="53.3969275675879" lon="14.674609209542897"><ele>2.0</ele><time>2026-04-06T12:30:38.962Z</time></trkpt><trkpt lat="53.39685685074874" lon="14.674674386453031"><ele>2.0</ele><time>2026-04-06T12:30:42.962Z</time></trkpt><trkpt lat="53.39683281164434" lon="14.674807710670768"><ele>2.0</ele><time>2026-04-06T12:30:47.963Z</time></trkpt><trkpt lat="53.39685242320531" lon="14.674948589597177"><ele>2.0</ele><time>2026-04-06T12:30:48.963Z</time></trkpt><trkpt lat="53.396924603699325" lon="14.675109584880179"><ele>2.0</ele><time>2026-04-06T12:30:49.963Z</time></trkpt><trkpt lat="53.396998232624796" lon="14.675301458670196"><ele>2.0</ele><time>2026-04-06T12:30:50.963Z</time></trkpt><trkpt lat="53.39708351001278" lon="14.675514795103785"><ele>2.0</ele><time>2026-04-06T12:30:51.963Z</time></trkpt><trkpt lat="53.39716511409395" lon="14.675735065312148"><ele>2.0</ele><time>2026-04-06T12:30:52.963Z</time></trkpt><trkpt lat="53.39723398830634" lon="14.675923238573914"><ele>2.0</ele><time>2026-04-06T12:30:53.963Z</time></trkpt><trkpt lat="53.39729734387845" lon="14.676121140240063"><ele>2.0</ele><time>2026-04-06T12:30:54.963Z</time></trkpt><trkpt lat="53.397356548048556" lon="14.676303000033153"><ele>2.0</ele><time>2026-04-06T12:30:55.963Z</time></trkpt><trkpt lat="53.39741261989839" lon="14.676473322665528"><ele>2.0</ele><time>2026-04-06T12:30:56.963Z</time></trkpt><trkpt lat="53.39746210170617" lon="14.676629108790713"><ele>2.0</ele><time>2026-04-06T12:30:57.963Z</time></trkpt><trkpt lat="53.39751429184991" lon="14.676762542392233"><ele>2.0</ele><time>2026-04-06T12:30:58.963Z</time></trkpt><trkpt lat="53.39756448971831" lon="14.676891538553699"><ele>2.0</ele><time>2026-04-06T12:30:59.963Z</time></trkpt><trkpt lat="53.397615416490844" lon="14.67702891651174"><ele>2.0</ele><time>2026-04-06T12:31:00.963Z</time></trkpt><trkpt lat="53.397661097531184" lon="14.67716298440769"><ele>2.0</ele><time>2026-04-06T12:31:01.963Z</time></trkpt><trkpt lat="53.39770805205233" lon="14.677291231904945"><ele>2.0</ele><time>2026-04-06T12:31:02.963Z</time></trkpt><trkpt lat="53.39775190666438" lon="14.677421258175832"><ele>2.0</ele><time>2026-04-06T12:31:03.963Z</time></trkpt><trkpt lat="53.39780934448008" lon="14.67756837822577"><ele>2.0</ele><time>2026-04-06T12:31:04.963Z</time></trkpt><trkpt lat="53.397856888104634" lon="14.677726436431072"><ele>2.0</ele><time>2026-04-06T12:31:05.963Z</time></trkpt><trkpt lat="53.3979123169781" lon="14.677884278246848"><ele>2.0</ele><time>2026-04-06T12:31:06.963Z</time></trkpt><trkpt lat="53.39797211090285" lon="14.678048136446051"><ele>2.0</ele><time>2026-04-06T12:31:07.963Z</time></trkpt><trkpt lat="53.398031223701274" lon="14.678218934432728"><ele>2.0</ele><time>2026-04-06T12:31:08.963Z</time></trkpt><trkpt lat="53.39809350168172" lon="14.678398017968394"><ele>2.0</ele><time>2026-04-06T12:31:09.963Z</time></trkpt><trkpt lat="53.39815827130655" lon="14.67857812423074"><ele>2.0</ele><time>2026-04-06T12:31:10.963Z</time></trkpt><trkpt lat="53.39823008438491" lon="14.678778447010723"><ele>2.0</ele><time>2026-04-06T12:31:11.963Z</time></trkpt><trkpt lat="53.39830881871967" lon="14.67899700292474"><ele>2.0</ele><time>2026-04-06T12:31:12.963Z</time></trkpt><trkpt lat="53.398381509058716" lon="14.679200127061428"><ele>2.0</ele><time>2026-04-06T12:31:13.963Z</time></trkpt><trkpt lat="53.39845164208559" lon="14.679405355903377"><ele>2.0</ele><time>2026-04-06T12:31:14.963Z</time></trkpt><trkpt lat="53.39852656874259" lon="14.679611938048216"><ele>2.0</ele><time>2026-04-06T12:31:15.963Z</time></trkpt><trkpt lat="53.39860704386297" lon="14.679832189004573"><ele>2.0</ele><time>2026-04-06T12:31:16.963Z</time></trkpt><trkpt lat="53.39868371123552" lon="14.680054789929065"><ele>2.333333333333333</ele><time>2026-04-06T12:31:17.963Z</time></trkpt><trkpt lat="53.39876929184644" lon="14.68028888682205"><ele>2.6666666666666665</ele><time>2026-04-06T12:31:18.963Z</time></trkpt><trkpt lat="53.39884985497605" lon="14.680513912463963"><ele>3.0</ele><time>2026-04-06T12:31:19.963Z</time></trkpt><trkpt lat="53.39892780384309" lon="14.680748751937225"><ele>3.0</ele><time>2026-04-06T12:31:20.963Z</time></trkpt><trkpt lat="53.399006798455105" lon="14.68097355872091"><ele>3.0</ele><time>2026-04-06T12:31:21.963Z</time></trkpt><trkpt lat="53.39908553273182" lon="14.681206864834577"><ele>3.0</ele><time>2026-04-06T12:31:22.963Z</time></trkpt><trkpt lat="53.39916759929614" lon="14.681423151513608"><ele>3.1666666666666665</ele><time>2026-04-06T12:31:23.963Z</time></trkpt><trkpt lat="53.39923332562422" lon="14.681620123493536"><ele>3.333333333333333</ele><time>2026-04-06T12:31:24.963Z</time></trkpt><trkpt lat="53.39928341290721" lon="14.681744121024451"><ele>3.5</ele><time>2026-04-06T12:31:25.963Z</time></trkpt><trkpt lat="53.39931090239341" lon="14.681841250982226"><ele>3.6666666666666665</ele><time>2026-04-06T12:31:27.963Z</time></trkpt><trkpt lat="53.39936954373127" lon="14.68193562239664"><ele>3.833333333333333</ele><time>2026-04-06T12:31:51.963Z</time></trkpt><trkpt lat="53.399404546188634" lon="14.682029480319217"><ele>4.0</ele><time>2026-04-06T12:31:52.963Z</time></trkpt><trkpt lat="53.399432101702644" lon="14.682152195970966"><ele>4.2</ele><time>2026-04-06T12:31:53.963Z</time></trkpt><trkpt lat="53.39947619231753" lon="14.682270752030128"><ele>4.4</ele><time>2026-04-06T12:31:54.963Z</time></trkpt><trkpt lat="53.399528347332016" lon="14.682404356180482"><ele>4.6</ele><time>2026-04-06T12:31:55.963Z</time></trkpt><trkpt lat="53.399585226276685" lon="14.682556641182396"><ele>4.8</ele><time>2026-04-06T12:31:56.963Z</time></trkpt><trkpt lat="53.399649272664675" lon="14.682730776104036"><ele>5.0</ele><time>2026-04-06T12:31:57.963Z</time></trkpt><trkpt lat="53.399710458289235" lon="14.68290211671974"><ele>5.0</ele><time>2026-04-06T12:31:58.963Z</time></trkpt><trkpt lat="53.399776569881716" lon="14.683081217028931"><ele>5.0</ele><time>2026-04-06T12:31:59.963Z</time></trkpt><trkpt lat="53.39984551134963" lon="14.683268247656635"><ele>5.0</ele><time>2026-04-06T12:32:00.963Z</time></trkpt><trkpt lat="53.39991064721668" lon="14.683462314016914"><ele>5.0</ele><time>2026-04-06T12:32:01.963Z</time></trkpt><trkpt lat="53.39998159457207" lon="14.683670472920111"><ele>5.333333333333334</ele><time>2026-04-06T12:32:02.963Z</time></trkpt><trkpt lat="53.40006109784858" lon="14.683886144039574"><ele>5.666666666666667</ele><time>2026-04-06T12:32:03.963Z</time></trkpt><trkpt lat="53.400126609804076" lon="14.68411896596391"><ele>6.0</ele><time>2026-04-06T12:32:04.963Z</time></trkpt><trkpt lat="53.40021520639547" lon="14.6843517466188"><ele>6.333333333333334</ele><time>2026-04-06T12:32:05.963Z</time></trkpt><trkpt lat="53.40030371980886" lon="14.684608350112141"><ele>6.666666666666667</ele><time>2026-04-06T12:32:06.963Z</time></trkpt><trkpt lat="53.400388633655886" lon="14.684863413436892"><ele>7.0</ele><time>2026-04-06T12:32:07.963Z</time></trkpt><trkpt lat="53.40047096084059" lon="14.685100282752307"><ele>6.25</ele><time>2026-04-06T12:32:08.963Z</time></trkpt><trkpt lat="53.40055520269075" lon="14.68528830083264"><ele>5.5</ele><time>2026-04-06T12:32:09.963Z</time></trkpt><trkpt lat="53.40062829577251" lon="14.68547680862667"><ele>4.75</ele><time>2026-04-06T12:32:10.963Z</time></trkpt><trkpt lat="53.400700241584474" lon="14.68562400381758"><ele>4.0</ele><time>2026-04-06T12:32:11.963Z</time></trkpt><trkpt lat="53.40074918524668" lon="14.685751853821222"><ele>4.0</ele><time>2026-04-06T12:32:12.963Z</time></trkpt><trkpt lat="53.40080211363076" lon="14.685848264030836"><ele>4.0</ele><time>2026-04-06T12:32:13.963Z</time></trkpt><trkpt lat="53.40087442504974" lon="14.685955015391537"><ele>4.0</ele><time>2026-04-06T12:32:15.963Z</time></trkpt><trkpt lat="53.40095272016797" lon="14.685852568985677"><ele>4.0</ele><time>2026-04-06T12:32:17.963Z</time></trkpt><trkpt lat="53.40103812842098" lon="14.685725404861358"><ele>4.0</ele><time>2026-04-06T12:32:19.963Z</time></trkpt><trkpt lat="53.40113347513086" lon="14.685618614637415"><ele>3.9999999999999996</ele><time>2026-04-06T12:32:20.963Z</time></trkpt><trkpt lat="53.40121708943069" lon="14.685556363088988"><ele>4.0</ele><time>2026-04-06T12:32:21.963Z</time></trkpt><trkpt lat="53.40128824168573" lon="14.685482495378341"><ele>4.0</ele><time>2026-04-06T12:32:22.963Z</time></trkpt><trkpt lat="53.40135654593631" lon="14.685407872436263"><ele>4.0</ele><time>2026-04-06T12:32:23.963Z</time></trkpt><trkpt lat="53.40143668763946" lon="14.685335503299084"><ele>3.9999999999999996</ele><time>2026-04-06T12:32:24.963Z</time></trkpt><trkpt lat="53.40150446022739" lon="14.685263363478168"><ele>4.0</ele><time>2026-04-06T12:32:25.963Z</time></trkpt><trkpt lat="53.40156201179313" lon="14.685193044540407"><ele>3.25</ele><time>2026-04-06T12:32:26.963Z</time></trkpt><trkpt lat="53.40165160282999" lon="14.68509052057215"><ele>2.5</ele><time>2026-04-06T12:32:28.963Z</time></trkpt><trkpt lat="53.401742139709235" lon="14.684985543629901"><ele>1.75</ele><time>2026-04-06T12:32:30.963Z</time></trkpt><trkpt lat="53.40181297233691" lon="14.684951288730884"><ele>1.0</ele><time>2026-04-06T12:32:32.963Z</time></trkpt><trkpt lat="53.401916608762185" lon="14.685159555991497"><ele>1.0</ele><time>2026-04-06T12:32:34.963Z</time></trkpt><trkpt lat="53.40198206269128" lon="14.685305771317108"><ele>1.0</ele><time>2026-04-06T12:32:35.963Z</time></trkpt><trkpt lat="53.40206153614748" lon="14.685463944040187"><ele>1.0</ele><time>2026-04-06T12:32:36.96Z</time></trkpt><trkpt lat="53.402129600203914" lon="14.685586586496838"><ele>1.0</ele><time>2026-04-06T12:32:37.96Z</time></trkpt><trkpt lat="53.40218632033233" lon="14.685683343840337"><ele>1.0</ele><time>2026-04-06T12:32:38.96Z</time></trkpt><trkpt lat="53.40224773904548" lon="14.68580190841445"><ele>0.9999999999999999</ele><time>2026-04-06T12:32:39.96Z</time></trkpt><trkpt lat="53.40231875232212" lon="14.685932796389682"><ele>1.0</ele><time>2026-04-06T12:32:40.96Z</time></trkpt><trkpt lat="53.40238361602534" lon="14.686056466868035"><ele>1.0</ele><time>2026-04-06T12:32:41.96Z</time></trkpt><trkpt lat="53.40243455303807" lon="14.686149627000397"><ele>1.0</ele><time>2026-04-06T12:32:42.96Z</time></trkpt><trkpt lat="53.4024835714502" lon="14.686245004656405"><ele>0.9999999999999999</ele><time>2026-04-06T12:32:43.96Z</time></trkpt><trkpt lat="53.402544099009205" lon="14.68635442274767"><ele>1.0</ele><time>2026-04-06T12:32:44.96Z</time></trkpt><trkpt lat="53.402603461403935" lon="14.686471103186333"><ele>1.0</ele><time>2026-04-06T12:32:45.96Z</time></trkpt><trkpt lat="53.40266366057569" lon="14.686584360313912"><ele>1.0</ele><time>2026-04-06T12:32:46.96Z</time></trkpt><trkpt lat="53.4027140417615" lon="14.686688553660932"><ele>1.0</ele><time>2026-04-06T12:32:47.96Z</time></trkpt><trkpt lat="53.40278071906078" lon="14.68684806042552"><ele>1.0</ele><time>2026-04-06T12:32:49.96Z</time></trkpt><trkpt lat="53.402843882455265" lon="14.686972425503065"><ele>1.0</ele><time>2026-04-06T12:32:51.96Z</time></trkpt><trkpt lat="53.402926460296285" lon="14.68715207330495"><ele>1.2000000000000002</ele><time>2026-04-06T12:32:53.96Z</time></trkpt><trkpt lat="53.40296694049286" lon="14.687240137763954"><ele>1.4000000000000001</ele><time>2026-04-06T12:32:54.96Z</time></trkpt><trkpt lat="53.403148346715746" lon="14.68719990364863"><ele>1.6</ele><time>2026-04-06T12:32:55.96Z</time></trkpt><trkpt lat="53.4032439866865" lon="14.687312465693248"><ele>1.8</ele><time>2026-04-06T12:32:56.96Z</time></trkpt><trkpt lat="53.403313361283836" lon="14.687381225695743"><ele>2.0</ele><time>2026-04-06T12:32:57.96Z</time></trkpt><trkpt lat="53.4033914269221" lon="14.68744848044764"><ele>2.1666666666666665</ele><time>2026-04-06T12:32:58.96Z</time></trkpt><trkpt lat="53.40345853048084" lon="14.687483074156916"><ele>2.333333333333333</ele><time>2026-04-06T12:32:59.96Z</time></trkpt><trkpt lat="53.40352053434342" lon="14.687513601236377"><ele>2.5</ele><time>2026-04-06T12:33:00.96Z</time></trkpt><trkpt lat="53.403640335466925" lon="14.687565459529887"><ele>2.6666666666666665</ele><time>2026-04-06T12:33:02.96Z</time></trkpt><trkpt lat="53.403695896644365" lon="14.687625064921054"><ele>2.8333333333333335</ele><time>2026-04-06T12:33:03.96Z</time></trkpt><trkpt lat="53.403751702281504" lon="14.68772598754117"><ele>3.0</ele><time>2026-04-06T12:33:04.96Z</time></trkpt><trkpt lat="53.40377175558262" lon="14.687856387490259"><ele>3.2</ele><time>2026-04-06T12:33:05.96Z</time></trkpt><trkpt lat="53.403836678753706" lon="14.688005543885707"><ele>3.4</ele><time>2026-04-06T12:33:06.96Z</time></trkpt><trkpt lat="53.40389375053116" lon="14.688164631449897"><ele>3.6000000000000005</ele><time>2026-04-06T12:33:07.96Z</time></trkpt><trkpt lat="53.40394546040191" lon="14.688325173717123"><ele>3.8000000000000003</ele><time>2026-04-06T12:33:08.96Z</time></trkpt><trkpt lat="53.403990599167564" lon="14.688462140066338"><ele>4.0</ele><time>2026-04-06T12:33:09.96Z</time></trkpt><trkpt lat="53.40403763559134" lon="14.688595054924884"><ele>3.9999999999999996</ele><time>2026-04-06T12:33:10.96Z</time></trkpt><trkpt lat="53.40408414018563" lon="14.688723050573104"><ele>4.0</ele><time>2026-04-06T12:33:11.96Z</time></trkpt><trkpt lat="53.404131316693174" lon="14.688846258494541"><ele>4.0</ele><time>2026-04-06T12:33:12.96Z</time></trkpt><trkpt lat="53.404168051237924" lon="14.688966559348431"><ele>4.0</ele><time>2026-04-06T12:33:13.96Z</time></trkpt><trkpt lat="53.40420999617325" lon="14.689090441719697"><ele>3.9999999999999996</ele><time>2026-04-06T12:33:14.96Z</time></trkpt><trkpt lat="53.404249846514766" lon="14.689202814027455"><ele>4.0</ele><time>2026-04-06T12:33:15.96Z</time></trkpt><trkpt lat="53.4042929423706" lon="14.689329412460614"><ele>4.0</ele><time>2026-04-06T12:33:16.96Z</time></trkpt><trkpt lat="53.4043229322533" lon="14.689423153568256"><ele>4.0</ele><time>2026-04-06T12:33:17.96Z</time></trkpt><trkpt lat="53.40437200347788" lon="14.68957951113367"><ele>4.0</ele><time>2026-04-06T12:33:19.96Z</time></trkpt><trkpt lat="53.40443130545075" lon="14.689739410356552"><ele>4.0</ele><time>2026-04-06T12:33:21.96Z</time></trkpt><trkpt lat="53.40446806514453" lon="14.689833646681382"><ele>4.0</ele><time>2026-04-06T12:33:22.96Z</time></trkpt><trkpt lat="53.40452424750627" lon="14.689975728490767"><ele>3.8000000000000003</ele><time>2026-04-06T12:33:23.96Z</time></trkpt><trkpt lat="53.40458484950707" lon="14.690117961521642"><ele>3.6000000000000005</ele><time>2026-04-06T12:33:24.96Z</time></trkpt><trkpt lat="53.404647994873436" lon="14.690259404953007"><ele>3.4</ele><time>2026-04-06T12:33:25.96Z</time></trkpt><trkpt lat="53.40470396453691" lon="14.690393648650453"><ele>3.2</ele><time>2026-04-06T12:33:26.96Z</time></trkpt><trkpt lat="53.40474677113022" lon="14.690505116111366"><ele>3.0</ele><time>2026-04-06T12:33:27.96Z</time></trkpt><trkpt lat="53.40479788248457" lon="14.690631508058285"><ele>3.0</ele><time>2026-04-06T12:33:28.96Z</time></trkpt><trkpt lat="53.404851100725416" lon="14.690735434902038"><ele>3.0</ele><time>2026-04-06T12:33:29.96Z</time></trkpt><trkpt lat="53.40490810085783" lon="14.690843541898042"><ele>3.0</ele><time>2026-04-06T12:33:30.96Z</time></trkpt><trkpt lat="53.40497249053891" lon="14.690970033661046"><ele>3.0</ele><time>2026-04-06T12:33:31.96Z</time></trkpt><trkpt lat="53.40503376539528" lon="14.691093070436343"><ele>3.0</ele><time>2026-04-06T12:33:32.96Z</time></trkpt><trkpt lat="53.40509174330352" lon="14.691218163681384"><ele>3.0</ele><time>2026-04-06T12:33:33.96Z</time></trkpt><trkpt lat="53.4051375555479" lon="14.691325193626415"><ele>3.0</ele><time>2026-04-06T12:33:34.96Z</time></trkpt><trkpt lat="53.40519310076591" lon="14.691428676196411"><ele>3.0</ele><time>2026-04-06T12:33:35.96Z</time></trkpt><trkpt lat="53.40523347968539" lon="14.691520439157152"><ele>3.0</ele><time>2026-04-06T12:33:36.96Z</time></trkpt><trkpt lat="53.40531798052634" lon="14.691689287150659"><ele>3.0</ele><time>2026-04-06T12:33:38.96Z</time></trkpt><trkpt lat="53.4053677634568" lon="14.691794900991713"><ele>3.0</ele><time>2026-04-06T12:33:39.96Z</time></trkpt><trkpt lat="53.405416617387054" lon="14.691915346065313"><ele>2.8333333333333335</ele><time>2026-04-06T12:33:40.96Z</time></trkpt><trkpt lat="53.405464791890545" lon="14.692029195881407"><ele>2.6666666666666665</ele><time>2026-04-06T12:33:41.96Z</time></trkpt><trkpt lat="53.40551293691663" lon="14.692149500946009"><ele>2.5</ele><time>2026-04-06T12:33:42.96Z</time></trkpt><trkpt lat="53.405562967932084" lon="14.692268071179711"><ele>2.333333333333333</ele><time>2026-04-06T12:33:43.96Z</time></trkpt><trkpt lat="53.40562051410127" lon="14.692387973101427"><ele>2.1666666666666665</ele><time>2026-04-06T12:33:44.96Z</time></trkpt><trkpt lat="53.40567377304868" lon="14.692516432189219"><ele>2.0</ele><time>2026-04-06T12:33:45.96Z</time></trkpt><trkpt lat="53.40572156273898" lon="14.69262240476615"><ele>2.0</ele><time>2026-04-06T12:33:46.96Z</time></trkpt><trkpt lat="53.40578698339212" lon="14.692728996915188"><ele>2.0</ele><time>2026-04-06T12:33:47.96Z</time></trkpt><trkpt lat="53.40583588340788" lon="14.692829718616515"><ele>2.0</ele><time>2026-04-06T12:33:48.96Z</time></trkpt><trkpt lat="53.40591326744112" lon="14.692993150231581"><ele>2.0</ele><time>2026-04-06T12:33:50.96Z</time></trkpt><trkpt lat="53.40595902085109" lon="14.693086737586487"><ele>2.0</ele><time>2026-04-06T12:33:51.96Z</time></trkpt><trkpt lat="53.40601235868762" lon="14.693206576848723"><ele>1.9999999999999998</ele><time>2026-04-06T12:33:52.96Z</time></trkpt><trkpt lat="53.40607346799281" lon="14.693351748324416"><ele>2.0</ele><time>2026-04-06T12:33:53.96Z</time></trkpt><trkpt lat="53.40612440924336" lon="14.693476339657273"><ele>2.0</ele><time>2026-04-06T12:33:54.96Z</time></trkpt><trkpt lat="53.40617241757472" lon="14.693578574472374"><ele>2.0</ele><time>2026-04-06T12:33:55.96Z</time></trkpt><trkpt lat="53.40622622251246" lon="14.693709325520512"><ele>1.9999999999999998</ele><time>2026-04-06T12:33:56.96Z</time></trkpt><trkpt lat="53.40626825532411" lon="14.693797466684012"><ele>2.0</ele><time>2026-04-06T12:33:57.96Z</time></trkpt><trkpt lat="53.40631707201751" lon="14.693903659265514"><ele>2.1666666666666665</ele><time>2026-04-06T12:33:58.96Z</time></trkpt><trkpt lat="53.40637297312393" lon="14.69401447143766"><ele>2.333333333333333</ele><time>2026-04-06T12:33:59.96Z</time></trkpt><trkpt lat="53.406433419986925" lon="14.69413596242206"><ele>2.5</ele><time>2026-04-06T12:34:00.96Z</time></trkpt><trkpt lat="53.406486664567346" lon="14.69424586705187"><ele>2.6666666666666665</ele><time>2026-04-06T12:34:01.96Z</time></trkpt><trkpt lat="53.406525845643145" lon="14.694338728054301"><ele>2.8333333333333335</ele><time>2026-04-06T12:34:02.96Z</time></trkpt><trkpt lat="53.40656459042708" lon="14.69442662515189"><ele>3.0</ele><time>2026-04-06T12:34:03.96Z</time></trkpt><trkpt lat="53.406626799121035" lon="14.694547425339186"><ele>3.0</ele><time>2026-04-06T12:34:04.96Z</time></trkpt><trkpt lat="53.406665670900004" lon="14.6946645176572"><ele>3.0</ele><time>2026-04-06T12:34:05.96Z</time></trkpt><trkpt lat="53.4067205605792" lon="14.694787493081884"><ele>3.0</ele><time>2026-04-06T12:34:06.96Z</time></trkpt><trkpt lat="53.40676789644185" lon="14.694897409527409"><ele>3.0</ele><time>2026-04-06T12:34:07.96Z</time></trkpt><trkpt lat="53.40681859954898" lon="14.695004346223083"><ele>3.0</ele><time>2026-04-06T12:34:08.96Z</time></trkpt><trkpt lat="53.40686925727915" lon="14.695112557994216"><ele>3.0</ele><time>2026-04-06T12:34:09.96Z</time></trkpt><trkpt lat="53.40693827366833" lon="14.69525353774693"><ele>2.8333333333333335</ele><time>2026-04-06T12:34:11.96Z</time></trkpt><trkpt lat="53.40698285990832" lon="14.695342948550584"><ele>2.6666666666666665</ele><time>2026-04-06T12:34:13.96Z</time></trkpt><trkpt lat="53.40701953385997" lon="14.695429452679548"><ele>2.5</ele><time>2026-04-06T12:34:14.96Z</time></trkpt><trkpt lat="53.40706403636747" lon="14.69553442223014"><ele>2.333333333333333</ele><time>2026-04-06T12:34:15.96Z</time></trkpt><trkpt lat="53.40713682739878" lon="14.69561639774172"><ele>2.1666666666666665</ele><time>2026-04-06T12:34:16.96Z</time></trkpt><trkpt lat="53.407191050034726" lon="14.695800049123783"><ele>2.0</ele><time>2026-04-06T12:34:17.96Z</time></trkpt><trkpt lat="53.40725109256401" lon="14.69600319677783"><ele>2.4000000000000004</ele><time>2026-04-06T12:34:18.96Z</time></trkpt><trkpt lat="53.407294306495885" lon="14.696143068698577"><ele>2.8000000000000003</ele><time>2026-04-06T12:34:19.96Z</time></trkpt><trkpt lat="53.407324206173584" lon="14.696289302569866"><ele>3.2</ele><time>2026-04-06T12:34:20.96Z</time></trkpt><trkpt lat="53.40734801419796" lon="14.696448182212052"><ele>3.6</ele><time>2026-04-06T12:34:21.96Z</time></trkpt><trkpt lat="53.407379856362645" lon="14.69659189054056"><ele>4.0</ele><time>2026-04-06T12:34:22.96Z</time></trkpt><trkpt lat="53.40740989897881" lon="14.696706741369814"><ele>4.2</ele><time>2026-04-06T12:34:23.96Z</time></trkpt><trkpt lat="53.40739752121318" lon="14.696919648189866"><ele>4.4</ele><time>2026-04-06T12:34:25.96Z</time></trkpt><trkpt lat="53.407370116052" lon="14.697029585323728"><ele>4.6</ele><time>2026-04-06T12:34:26.96Z</time></trkpt><trkpt lat="53.407302292947534" lon="14.697095590735756"><ele>4.8</ele><time>2026-04-06T12:34:27.96Z</time></trkpt><trkpt lat="53.40717725197634" lon="14.697162176276303"><ele>5.0</ele><time>2026-04-06T12:34:29.96Z</time></trkpt><trkpt lat="53.40711610229892" lon="14.697212761670894"><ele>5.666666666666667</ele><time>2026-04-06T12:34:31.96Z</time></trkpt><trkpt lat="53.407106835468554" lon="14.697344445947062"><ele>6.333333333333334</ele><time>2026-04-06T12:34:38.96Z</time></trkpt><trkpt lat="53.40713554099441" lon="14.697549117672564"><ele>7.0</ele><time>2026-04-06T12:34:40.96Z</time></trkpt><trkpt lat="53.407146195990876" lon="14.697681193969148"><ele>7.666666666666667</ele><time>2026-04-06T12:34:41.96Z</time></trkpt><trkpt lat="53.40713464944289" lon="14.69779096577596"><ele>8.333333333333334</ele><time>2026-04-06T12:34:42.958Z</time></trkpt><trkpt lat="53.40708703742475" lon="14.697902167712176"><ele>9.0</ele><time>2026-04-06T12:34:43.958Z</time></trkpt><trkpt lat="53.40707015917003" lon="14.698005037366233"><ele>9.0</ele><time>2026-04-06T12:34:44.958Z</time></trkpt><trkpt lat="53.40706751166635" lon="14.698112243397848"><ele>9.0</ele><time>2026-04-06T12:34:45.958Z</time></trkpt><trkpt lat="53.40702459816491" lon="14.698327620244305"><ele>9.0</ele><time>2026-04-06T12:34:47.958Z</time></trkpt><trkpt lat="53.407009323755034" lon="14.698456863198842"><ele>9.0</ele><time>2026-04-06T12:34:48.958Z</time></trkpt><trkpt lat="53.40699783293835" lon="14.698565512895962"><ele>9.0</ele><time>2026-04-06T12:34:49.958Z</time></trkpt><trkpt lat="53.40700789059014" lon="14.698676819360495"><ele>9.0</ele><time>2026-04-06T12:34:50.958Z</time></trkpt><trkpt lat="53.407026626283844" lon="14.698923920571623"><ele>8.8</ele><time>2026-04-06T12:34:52.958Z</time></trkpt><trkpt lat="53.40710556427021" lon="14.698993516986535"><ele>8.600000000000001</ele><time>2026-04-06T12:34:53.958Z</time></trkpt><trkpt lat="53.40716569347977" lon="14.699138103441081"><ele>8.4</ele><time>2026-04-06T12:34:54.958Z</time></trkpt><trkpt lat="53.40722456399098" lon="14.69926849971108"><ele>8.200000000000001</ele><time>2026-04-06T12:34:55.957Z</time></trkpt><trkpt lat="53.407304261670625" lon="14.699417136545161"><ele>8.0</ele><time>2026-04-06T12:34:56.957Z</time></trkpt><trkpt lat="53.4073800144717" lon="14.699574192579586"><ele>7.5</ele><time>2026-04-06T12:34:57.957Z</time></trkpt><trkpt lat="53.40744814274005" lon="14.69972708425173"><ele>7.0</ele><time>2026-04-06T12:34:58.957Z</time></trkpt><trkpt lat="53.40752925443819" lon="14.699891559873972"><ele>6.5</ele><time>2026-04-06T12:34:59.957Z</time></trkpt><trkpt lat="53.40760802557581" lon="14.700042389556668"><ele>6.0</ele><time>2026-04-06T12:35:00.957Z</time></trkpt><trkpt lat="53.4076858186593" lon="14.70018961077396"><ele>6.199999999999999</ele><time>2026-04-06T12:35:01.957Z</time></trkpt><trkpt lat="53.40777075761161" lon="14.700336759126964"><ele>6.3999999999999995</ele><time>2026-04-06T12:35:02.957Z</time></trkpt><trkpt lat="53.407839128326415" lon="14.7004880863658"><ele>6.6</ele><time>2026-04-06T12:35:03.957Z</time></trkpt><trkpt lat="53.40790322302928" lon="14.700609336375363"><ele>6.8</ele><time>2026-04-06T12:35:04.957Z</time></trkpt><trkpt lat="53.40796558072229" lon="14.700715928327567"><ele>7.0</ele><time>2026-04-06T12:35:05.957Z</time></trkpt><trkpt lat="53.408037386016346" lon="14.700851374801076"><ele>7.142857142857142</ele><time>2026-04-06T12:35:07.957Z</time></trkpt><trkpt lat="53.408071753331264" lon="14.700952538666517"><ele>7.285714285714286</ele><time>2026-04-06T12:35:08.957Z</time></trkpt><trkpt lat="53.40808071185802" lon="14.70107877918132"><ele>7.428571428571429</ele><time>2026-04-06T12:35:09.957Z</time></trkpt><trkpt lat="53.40810967611205" lon="14.701180057745981"><ele>7.571428571428571</ele><time>2026-04-06T12:35:10.957Z</time></trkpt><trkpt lat="53.40814256481535" lon="14.701284415009022"><ele>7.7142857142857135</ele><time>2026-04-06T12:35:11.957Z</time></trkpt><trkpt lat="53.408180595224785" lon="14.70139312045948"><ele>7.857142857142857</ele><time>2026-04-06T12:35:12.957Z</time></trkpt><trkpt lat="53.408222413376485" lon="14.701506653814233"><ele>8.0</ele><time>2026-04-06T12:35:13.957Z</time></trkpt><trkpt lat="53.40827479139323" lon="14.70157777732147"><ele>7.999999999999999</ele><time>2026-04-06T12:35:14.957Z</time></trkpt><trkpt lat="53.40835470497523" lon="14.701592386205983"><ele>8.0</ele><time>2026-04-06T12:35:16.957Z</time></trkpt><trkpt lat="53.40843606600539" lon="14.701541978733328"><ele>8.0</ele><time>2026-04-06T12:35:18.957Z</time></trkpt><trkpt lat="53.40849588611616" lon="14.70146517680149"><ele>8.0</ele><time>2026-04-06T12:35:20.957Z</time></trkpt><trkpt lat="53.408538968976394" lon="14.70137388337089"><ele>7.999999999999999</ele><time>2026-04-06T12:35:23.957Z</time></trkpt><trkpt lat="53.40858522425092" lon="14.701445644089167"><ele>8.0</ele><time>2026-04-06T12:35:25.957Z</time></trkpt><trkpt lat="53.40862342487464" lon="14.70157057586176"><ele>8.0</ele><time>2026-04-06T12:35:26.957Z</time></trkpt><trkpt lat="53.408641495747844" lon="14.70167332939892"><ele>7.999999999999999</ele><time>2026-04-06T12:35:27.957Z</time></trkpt><trkpt lat="53.408666855706876" lon="14.701771137615063"><ele>8.0</ele><time>2026-04-06T12:35:28.957Z</time></trkpt><trkpt lat="53.40870058395224" lon="14.701880342680381"><ele>8.0</ele><time>2026-04-06T12:35:29.957Z</time></trkpt><trkpt lat="53.408738800594634" lon="14.701981608819972"><ele>7.999999999999999</ele><time>2026-04-06T12:35:30.957Z</time></trkpt><trkpt lat="53.408774729764914" lon="14.702091093724423"><ele>8.0</ele><time>2026-04-06T12:35:31.957Z</time></trkpt><trkpt lat="53.408794585458814" lon="14.7021970837997"><ele>8.0</ele><time>2026-04-06T12:35:32.957Z</time></trkpt><trkpt lat="53.408869226386756" lon="14.702399471245398"><ele>8.200000000000001</ele><time>2026-04-06T12:35:34.957Z</time></trkpt><trkpt lat="53.408917683260455" lon="14.70255151605778"><ele>8.4</ele><time>2026-04-06T12:35:36.957Z</time></trkpt><trkpt lat="53.40896930393015" lon="14.702706901773006"><ele>8.600000000000001</ele><time>2026-04-06T12:35:38.957Z</time></trkpt><trkpt lat="53.408991845813546" lon="14.7028189440968"><ele>8.8</ele><time>2026-04-06T12:35:40.957Z</time></trkpt><trkpt lat="53.40904735641771" lon="14.702971345372772"><ele>9.0</ele><time>2026-04-06T12:35:42.957Z</time></trkpt><trkpt lat="53.40909372893369" lon="14.703133518679783"><ele>9.0</ele><time>2026-04-06T12:35:44.957Z</time></trkpt><trkpt lat="53.40914123251744" lon="14.70330172617928"><ele>9.0</ele><time>2026-04-06T12:35:46.957Z</time></trkpt><trkpt lat="53.409187587520975" lon="14.703446976240388"><ele>9.0</ele><time>2026-04-06T12:35:48.957Z</time></trkpt><trkpt lat="53.40921602774849" lon="14.70354503505187"><ele>9.0</ele><time>2026-04-06T12:35:50.957Z</time></trkpt><trkpt lat="53.40925055097996" lon="14.703645783137995"><ele>9.0</ele><time>2026-04-06T12:35:53.957Z</time></trkpt><trkpt lat="53.409353783574424" lon="14.703916378057993"><ele>9.0</ele><time>2026-04-06T12:35:58.957Z</time></trkpt><trkpt lat="53.40937990266307" lon="14.704032165818663"><ele>9.0</ele><time>2026-04-06T12:35:59.957Z</time></trkpt><trkpt lat="53.40941339556357" lon="14.704199602840552"><ele>9.0</ele><time>2026-04-06T12:36:00.957Z</time></trkpt><trkpt lat="53.409443485693494" lon="14.704333955484525"><ele>9.0</ele><time>2026-04-06T12:36:02.957Z</time></trkpt><trkpt lat="53.40946929621537" lon="14.704444797839416"><ele>9.0</ele><time>2026-04-06T12:36:04.957Z</time></trkpt><trkpt lat="53.40949704740236" lon="14.70461304412764"><ele>9.0</ele><time>2026-04-06T12:36:06.957Z</time></trkpt><trkpt lat="53.40953815098514" lon="14.70474670451583"><ele>8.2</ele><time>2026-04-06T12:36:08.957Z</time></trkpt><trkpt lat="53.40957803854389" lon="14.70484947800007"><ele>7.4</ele><time>2026-04-06T12:36:10.957Z</time></trkpt><trkpt lat="53.40964936255628" lon="14.7048912413705"><ele>6.6</ele><time>2026-04-06T12:36:12.957Z</time></trkpt><trkpt lat="53.40981841893592" lon="14.704894771230752"><ele>5.8</ele><time>2026-04-06T12:36:18.957Z</time></trkpt><trkpt lat="53.409876581136764" lon="14.704943801894911"><ele>5.0</ele><time>2026-04-06T12:36:20.957Z</time></trkpt><trkpt lat="53.40993697703774" lon="14.705045685662228"><ele>4.666666666666667</ele><time>2026-04-06T12:36:23.957Z</time></trkpt><trkpt lat="53.410003780103565" lon="14.705067756698412"><ele>4.333333333333334</ele><time>2026-04-06T12:36:26.957Z</time></trkpt><trkpt lat="53.41004782090915" lon="14.705166111287207"><ele>4.0</ele><time>2026-04-06T12:36:28.957Z</time></trkpt><trkpt lat="53.410117485417956" lon="14.70521635897881"><ele>3.666666666666667</ele><time>2026-04-06T12:36:31.958Z</time></trkpt><trkpt lat="53.410169289712904" lon="14.705307657801594"><ele>3.3333333333333335</ele><time>2026-04-06T12:36:33.958Z</time></trkpt><trkpt lat="53.41030744311655" lon="14.705335948612412"><ele>3.0</ele><time>2026-04-06T12:36:39.96Z</time></trkpt><trkpt lat="53.41037392198142" lon="14.70534195116594"><ele>2.25</ele><time>2026-04-06T12:36:41.96Z</time></trkpt><trkpt lat="53.410439471383135" lon="14.70536775841665"><ele>1.5</ele><time>2026-04-06T12:36:43.961Z</time></trkpt><trkpt lat="53.41069364017938" lon="14.705520919355004"><ele>0.75</ele><time>2026-04-06T12:36:49.96Z</time></trkpt><trkpt lat="53.41073293778751" lon="14.705647247241343"><ele>0.0</ele><time>2026-04-06T12:36:50.96Z</time></trkpt><trkpt lat="53.41077842689217" lon="14.70579705582658"><ele>0.0</ele><time>2026-04-06T12:36:51.961Z</time></trkpt><trkpt lat="53.41084058131564" lon="14.705985453829479"><ele>0.0</ele><time>2026-04-06T12:36:52.961Z</time></trkpt><trkpt lat="53.41090288553747" lon="14.706179426553174"><ele>0.0</ele><time>2026-04-06T12:36:53.961Z</time></trkpt><trkpt lat="53.410961009289416" lon="14.706370271348032"><ele>0.0</ele><time>2026-04-06T12:36:54.96Z</time></trkpt><trkpt lat="53.41103203517983" lon="14.706590892344309"><ele>0.0</ele><time>2026-04-06T12:36:55.96Z</time></trkpt><trkpt lat="53.41110742898145" lon="14.706813414095011"><ele>0.0</ele><time>2026-04-06T12:36:56.961Z</time></trkpt><trkpt lat="53.411177636533814" lon="14.70704804195988"><ele>0.0</ele><time>2026-04-06T12:36:57.961Z</time></trkpt><trkpt lat="53.41125476822923" lon="14.707299025752167"><ele>0.0</ele><time>2026-04-06T12:36:58.961Z</time></trkpt><trkpt lat="53.411331179498056" lon="14.707535349064731"><ele>0.0</ele><time>2026-04-06T12:36:59.961Z</time></trkpt><trkpt lat="53.41140543884037" lon="14.707787552160031"><ele>0.0</ele><time>2026-04-06T12:37:00.961Z</time></trkpt><trkpt lat="53.411487240766995" lon="14.70803472352833"><ele>0.0</ele><time>2026-04-06T12:37:01.961Z</time></trkpt><trkpt lat="53.41156210567776" lon="14.708274837845586"><ele>0.0</ele><time>2026-04-06T12:37:02.961Z</time></trkpt><trkpt lat="53.41163622436774" lon="14.708524131283509"><ele>0.0</ele><time>2026-04-06T12:37:03.961Z</time></trkpt><trkpt lat="53.41170138962629" lon="14.70875877646281"><ele>0.3333333333333333</ele><time>2026-04-06T12:37:04.961Z</time></trkpt><trkpt lat="53.411773918163135" lon="14.70899549394481"><ele>0.6666666666666666</ele><time>2026-04-06T12:37:05.961Z</time></trkpt><trkpt lat="53.41184839141549" lon="14.709213671366298"><ele>1.0</ele><time>2026-04-06T12:37:06.961Z</time></trkpt><trkpt lat="53.41192223293994" lon="14.709447840194246"><ele>1.0</ele><time>2026-04-06T12:37:07.962Z</time></trkpt><trkpt lat="53.41199696526903" lon="14.709687055600925"><ele>1.0</ele><time>2026-04-06T12:37:08.962Z</time></trkpt><trkpt lat="53.41207773254151" lon="14.709938524749877"><ele>1.0</ele><time>2026-04-06T12:37:09.962Z</time></trkpt><trkpt lat="53.41215104383453" lon="14.71018686168346"><ele>0.6666666666666666</ele><time>2026-04-06T12:37:10.962Z</time></trkpt><trkpt lat="53.41222628746103" lon="14.710442407840755"><ele>0.3333333333333333</ele><time>2026-04-06T12:37:11.962Z</time></trkpt><trkpt lat="53.412302083634145" lon="14.710706257954104"><ele>0.0</ele><time>2026-04-06T12:37:12.962Z</time></trkpt><trkpt lat="53.41236594414955" lon="14.710950314177563"><ele>0.0</ele><time>2026-04-06T12:37:13.962Z</time></trkpt><trkpt lat="53.41243011645919" lon="14.711207922996634"><ele>0.0</ele><time>2026-04-06T12:37:14.962Z</time></trkpt><trkpt lat="53.41248699076822" lon="14.71148804726359"><ele>0.0</ele><time>2026-04-06T12:37:15.962Z</time></trkpt><trkpt lat="53.41250959269128" lon="14.711780176849471"><ele>0.3333333333333333</ele><time>2026-04-06T12:37:16.962Z</time></trkpt><trkpt lat="53.41255728981722" lon="14.712062727676182"><ele>0.6666666666666666</ele><time>2026-04-06T12:37:17.962Z</time></trkpt><trkpt lat="53.41260291286519" lon="14.712346127751676"><ele>1.0</ele><time>2026-04-06T12:37:18.962Z</time></trkpt><trkpt lat="53.41264802260283" lon="14.712617654950108"><ele>1.0</ele><time>2026-04-06T12:37:19.962Z</time></trkpt><trkpt lat="53.41269445439211" lon="14.712890948665587"><ele>1.0</ele><time>2026-04-06T12:37:20.962Z</time></trkpt><trkpt lat="53.41273613385558" lon="14.713136606675766"><ele>1.0</ele><time>2026-04-06T12:37:21.962Z</time></trkpt><trkpt lat="53.412775149509834" lon="14.713374738726177"><ele>1.0</ele><time>2026-04-06T12:37:22.962Z</time></trkpt><trkpt lat="53.41281580653473" lon="14.713627336946477"><ele>1.0</ele><time>2026-04-06T12:37:23.962Z</time></trkpt><trkpt lat="53.41285828484752" lon="14.713892890559622"><ele>1.0</ele><time>2026-04-06T12:37:24.962Z</time></trkpt><trkpt lat="53.41290423784697" lon="14.7141679858132"><ele>1.0</ele><time>2026-04-06T12:37:25.962Z</time></trkpt><trkpt lat="53.412962401706366" lon="14.714429123447738"><ele>1.0</ele><time>2026-04-06T12:37:26.962Z</time></trkpt><trkpt lat="53.41299059078222" lon="14.714693674028894"><ele>1.0</ele><time>2026-04-06T12:37:27.962Z</time></trkpt><trkpt lat="53.41305492019753" lon="14.714987681855776"><ele>1.0</ele><time>2026-04-06T12:37:28.962Z</time></trkpt><trkpt lat="53.413087397482016" lon="14.715278359731679"><ele>1.0</ele><time>2026-04-06T12:37:29.962Z</time></trkpt><trkpt lat="53.41314835079595" lon="14.715562128625207"><ele>1.0</ele><time>2026-04-06T12:37:30.962Z</time></trkpt><trkpt lat="53.41319005999376" lon="14.715827052426866"><ele>1.3333333333333333</ele><time>2026-04-06T12:37:31.962Z</time></trkpt><trkpt lat="53.41322982365913" lon="14.716095431995727"><ele>1.6666666666666665</ele><time>2026-04-06T12:37:32.962Z</time></trkpt><trkpt lat="53.413278312081246" lon="14.716356790908634"><ele>2.0</ele><time>2026-04-06T12:37:33.962Z</time></trkpt><trkpt lat="53.413313182980374" lon="14.716649966613954"><ele>2.333333333333333</ele><time>2026-04-06T12:37:34.962Z</time></trkpt><trkpt lat="53.413359014246296" lon="14.716909039573796"><ele>2.6666666666666665</ele><time>2026-04-06T12:37:35.962Z</time></trkpt><trkpt lat="53.41341316969141" lon="14.717171230055545"><ele>3.0</ele><time>2026-04-06T12:37:36.962Z</time></trkpt><trkpt lat="53.41346781311157" lon="14.71741615476459"><ele>3.0</ele><time>2026-04-06T12:37:37.962Z</time></trkpt><trkpt lat="53.413522095661484" lon="14.717658117051723"><ele>3.0</ele><time>2026-04-06T12:37:38.962Z</time></trkpt><trkpt lat="53.413563735132776" lon="14.717908048293816"><ele>3.0</ele><time>2026-04-06T12:37:39.962Z</time></trkpt><trkpt lat="53.41362837957305" lon="14.718145467637674"><ele>3.0</ele><time>2026-04-06T12:37:40.962Z</time></trkpt><trkpt lat="53.4136964075093" lon="14.71837921817059"><ele>3.0</ele><time>2026-04-06T12:37:41.962Z</time></trkpt><trkpt lat="53.41376761068737" lon="14.718613322269597"><ele>3.0</ele><time>2026-04-06T12:37:42.962Z</time></trkpt><trkpt lat="53.41383443018493" lon="14.718830465176865"><ele>3.25</ele><time>2026-04-06T12:37:43.962Z</time></trkpt><trkpt lat="53.41389732355246" lon="14.719048675439245"><ele>3.5</ele><time>2026-04-06T12:37:44.962Z</time></trkpt><trkpt lat="53.41395985609865" lon="14.7192641248321"><ele>3.75</ele><time>2026-04-06T12:37:45.962Z</time></trkpt><trkpt lat="53.414010526191205" lon="14.719447194550213"><ele>4.0</ele><time>2026-04-06T12:37:46.962Z</time></trkpt><trkpt lat="53.414052156132755" lon="14.719633251663481"><ele>4.5</ele><time>2026-04-06T12:37:47.962Z</time></trkpt><trkpt lat="53.41407003799601" lon="14.719826628540542"><ele>5.0</ele><time>2026-04-06T12:37:48.962Z</time></trkpt><trkpt lat="53.414091872782556" lon="14.720025587913801"><ele>5.5</ele><time>2026-04-06T12:37:49.962Z</time></trkpt><trkpt lat="53.41411780839131" lon="14.720222584664779"><ele>6.0</ele><time>2026-04-06T12:37:50.962Z</time></trkpt><trkpt lat="53.4141525086307" lon="14.720419377326666"><ele>6.25</ele><time>2026-04-06T12:37:51.962Z</time></trkpt><trkpt lat="53.41421976407335" lon="14.72062258386347"><ele>6.5</ele><time>2026-04-06T12:37:52.962Z</time></trkpt><trkpt lat="53.41431753458505" lon="14.720810596227569"><ele>6.75</ele><time>2026-04-06T12:37:53.962Z</time></trkpt><trkpt lat="53.41442994176671" lon="14.720993938995552"><ele>7.0</ele><time>2026-04-06T12:37:54.962Z</time></trkpt><trkpt lat="53.41450821451224" lon="14.721203005885211"><ele>6.75</ele><time>2026-04-06T12:37:55.962Z</time></trkpt><trkpt lat="53.41458582092537" lon="14.721417446781516"><ele>6.5</ele><time>2026-04-06T12:37:56.962Z</time></trkpt><trkpt lat="53.41464345096841" lon="14.721642004266064"><ele>6.25</ele><time>2026-04-06T12:37:57.962Z</time></trkpt><trkpt lat="53.41471069787296" lon="14.721874441434693"><ele>6.0</ele><time>2026-04-06T12:37:58.962Z</time></trkpt><trkpt lat="53.41478742107658" lon="14.72207433585274"><ele>6.5</ele><time>2026-04-06T12:37:59.962Z</time></trkpt><trkpt lat="53.41483367867933" lon="14.72228936902882"><ele>7.0</ele><time>2026-04-06T12:38:00.962Z</time></trkpt><trkpt lat="53.414894625548726" lon="14.722500817723443"><ele>7.5</ele><time>2026-04-06T12:38:01.962Z</time></trkpt><trkpt lat="53.414954459692254" lon="14.722713949960163"><ele>8.0</ele><time>2026-04-06T12:38:02.962Z</time></trkpt><trkpt lat="53.415015576692056" lon="14.722925821176979"><ele>9.0</ele><time>2026-04-06T12:38:03.962Z</time></trkpt><trkpt lat="53.41509024103221" lon="14.72312375288832"><ele>10.0</ele><time>2026-04-06T12:38:04.962Z</time></trkpt><trkpt lat="53.415138140379305" lon="14.723351383541587"><ele>11.0</ele><time>2026-04-06T12:38:05.962Z</time></trkpt><trkpt lat="53.41520488348505" lon="14.723581739928166"><ele>12.0</ele><time>2026-04-06T12:38:06.962Z</time></trkpt><trkpt lat="53.41526610167684" lon="14.72379139280501"><ele>13.0</ele><time>2026-04-06T12:38:07.962Z</time></trkpt><trkpt lat="53.41533441958298" lon="14.724021906520724"><ele>14.0</ele><time>2026-04-06T12:38:08.962Z</time></trkpt><trkpt lat="53.41540651378321" lon="14.72426294154407"><ele>15.0</ele><time>2026-04-06T12:38:09.962Z</time></trkpt><trkpt lat="53.41548286583375" lon="14.724525015741163"><ele>15.333333333333332</ele><time>2026-04-06T12:38:10.962Z</time></trkpt><trkpt lat="53.41555740568666" lon="14.724783712890623"><ele>15.666666666666666</ele><time>2026-04-06T12:38:11.962Z</time></trkpt><trkpt lat="53.41563024122076" lon="14.72503922853593"><ele>16.0</ele><time>2026-04-06T12:38:12.962Z</time></trkpt><trkpt lat="53.41570527620659" lon="14.725301381684822"><ele>16.666666666666664</ele><time>2026-04-06T12:38:13.962Z</time></trkpt><trkpt lat="53.41578224932191" lon="14.72556648540875"><ele>17.333333333333332</ele><time>2026-04-06T12:38:14.962Z</time></trkpt><trkpt lat="53.41586040060112" lon="14.72583768019171"><ele>18.0</ele><time>2026-04-06T12:38:15.962Z</time></trkpt><trkpt lat="53.41594750393313" lon="14.726137943774237"><ele>18.0</ele><time>2026-04-06T12:38:16.962Z</time></trkpt><trkpt lat="53.416038167480934" lon="14.72645342260205"><ele>18.0</ele><time>2026-04-06T12:38:17.962Z</time></trkpt><trkpt lat="53.41612554800316" lon="14.726750800827261"><ele>18.0</ele><time>2026-04-06T12:38:18.962Z</time></trkpt><trkpt lat="53.416218810072166" lon="14.727044157122592"><ele>18.0</ele><time>2026-04-06T12:38:19.962Z</time></trkpt><trkpt lat="53.41630710737215" lon="14.72734906728565"><ele>18.0</ele><time>2026-04-06T12:38:20.962Z</time></trkpt><trkpt lat="53.416382608976384" lon="14.727620018354038"><ele>18.0</ele><time>2026-04-06T12:38:21.962Z</time></trkpt><trkpt lat="53.41646718746895" lon="14.72792083937903"><ele>17.333333333333332</ele><time>2026-04-06T12:38:22.962Z</time></trkpt><trkpt lat="53.41655794180256" lon="14.728232569591688"><ele>16.666666666666664</ele><time>2026-04-06T12:38:23.962Z</time></trkpt><trkpt lat="53.4166435340855" lon="14.728516320902894"><ele>16.0</ele><time>2026-04-06T12:38:24.962Z</time></trkpt><trkpt lat="53.41672750019897" lon="14.728809978407499"><ele>16.0</ele><time>2026-04-06T12:38:25.962Z</time></trkpt><trkpt lat="53.41681459166967" lon="14.729116964417269"><ele>16.0</ele><time>2026-04-06T12:38:26.962Z</time></trkpt><trkpt lat="53.41690350354386" lon="14.729429803794234"><ele>16.0</ele><time>2026-04-06T12:38:27.962Z</time></trkpt><trkpt lat="53.41698795685986" lon="14.729726766557604"><ele>16.0</ele><time>2026-04-06T12:38:28.962Z</time></trkpt><trkpt lat="53.417072974964974" lon="14.730016147752686"><ele>16.0</ele><time>2026-04-06T12:38:29.962Z</time></trkpt><trkpt lat="53.41715077876525" lon="14.730277226993408"><ele>16.0</ele><time>2026-04-06T12:38:30.962Z</time></trkpt><trkpt lat="53.41722969874705" lon="14.730544884009038"><ele>15.666666666666666</ele><time>2026-04-06T12:38:31.962Z</time></trkpt><trkpt lat="53.41730671109024" lon="14.73080569660762"><ele>15.333333333333332</ele><time>2026-04-06T12:38:32.962Z</time></trkpt><trkpt lat="53.41738130384611" lon="14.731058244799534"><ele>15.0</ele><time>2026-04-06T12:38:33.962Z</time></trkpt><trkpt lat="53.41746131629352" lon="14.731327439473601"><ele>15.0</ele><time>2026-04-06T12:38:34.962Z</time></trkpt><trkpt lat="53.41755907705791" lon="14.731574686500037"><ele>15.0</ele><time>2026-04-06T12:38:35.962Z</time></trkpt><trkpt lat="53.41762891572198" lon="14.731827363133778"><ele>15.0</ele><time>2026-04-06T12:38:36.962Z</time></trkpt><trkpt lat="53.417721791588946" lon="14.732054308449062"><ele>15.333333333333332</ele><time>2026-04-06T12:38:37.962Z</time></trkpt><trkpt lat="53.41782619409756" lon="14.732246703672056"><ele>15.666666666666666</ele><time>2026-04-06T12:38:38.962Z</time></trkpt><trkpt lat="53.41791332853487" lon="14.732484267872156"><ele>16.0</ele><time>2026-04-06T12:38:39.962Z</time></trkpt><trkpt lat="53.41801947595631" lon="14.732704671137379"><ele>15.0</ele><time>2026-04-06T12:38:40.962Z</time></trkpt><trkpt lat="53.418135176622386" lon="14.732936068642555"><ele>14.0</ele><time>2026-04-06T12:38:41.962Z</time></trkpt><trkpt lat="53.418254177132965" lon="14.733172240264224"><ele>13.0</ele><time>2026-04-06T12:38:42.962Z</time></trkpt><trkpt lat="53.418389042729345" lon="14.733396664571913"><ele>13.0</ele><time>2026-04-06T12:38:43.962Z</time></trkpt><trkpt lat="53.418502450602574" lon="14.733630282576536"><ele>13.0</ele><time>2026-04-06T12:38:44.962Z</time></trkpt><trkpt lat="53.418580180591654" lon="14.733818431583918"><ele>13.0</ele><time>2026-04-06T12:38:45.962Z</time></trkpt><trkpt lat="53.41865988580868" lon="14.733938559178762"><ele>13.0</ele><time>2026-04-06T12:38:46.962Z</time></trkpt><trkpt lat="53.418702229112355" lon="14.73407178246298"><ele>12.999999999999998</ele><time>2026-04-06T12:38:47.962Z</time></trkpt><trkpt lat="53.41875174504621" lon="14.734168008757415"><ele>13.0</ele><time>2026-04-06T12:38:48.962Z</time></trkpt><trkpt lat="53.41882050186403" lon="14.734297746127613"><ele>13.0</ele><time>2026-04-06T12:38:50.962Z</time></trkpt><trkpt lat="53.41886935367843" lon="14.734389576341371"><ele>13.0</ele><time>2026-04-06T12:38:53.962Z</time></trkpt><trkpt lat="53.41891243965588" lon="14.734490017999601"><ele>12.999999999999998</ele><time>2026-04-06T12:38:57.96Z</time></trkpt><trkpt lat="53.41895768800726" lon="14.734589294400013"><ele>13.0</ele><time>2026-04-06T12:39:01.961Z</time></trkpt><trkpt lat="53.41890209634393" lon="14.734458043354813"><ele>12.999999999999998</ele><time>2026-04-06T12:39:07.96Z</time></trkpt><trkpt lat="53.41886011759343" lon="14.734374555074801"><ele>13.0</ele><time>2026-04-06T12:39:08.96Z</time></trkpt><trkpt lat="53.41880760076628" lon="14.734256288356882"><ele>13.0</ele><time>2026-04-06T12:39:09.96Z</time></trkpt><trkpt lat="53.418756777795394" lon="14.734122037354478"><ele>13.0</ele><time>2026-04-06T12:39:10.96Z</time></trkpt><trkpt lat="53.41869815872712" lon="14.73401884456936"><ele>12.999999999999998</ele><time>2026-04-06T12:39:11.96Z</time></trkpt><trkpt lat="53.41863544663388" lon="14.733909485674598"><ele>13.0</ele><time>2026-04-06T12:39:12.96Z</time></trkpt><trkpt lat="53.41858071517758" lon="14.733795960451946"><ele>13.0</ele><time>2026-04-06T12:39:13.96Z</time></trkpt><trkpt lat="53.418537033658865" lon="14.733698405185626"><ele>13.0</ele><time>2026-04-06T12:39:14.96Z</time></trkpt><trkpt lat="53.41849933193215" lon="14.733571469318758"><ele>13.0</ele><time>2026-04-06T12:39:15.96Z</time></trkpt><trkpt lat="53.41843314502522" lon="14.73344010807381"><ele>13.0</ele><time>2026-04-06T12:39:17.96Z</time></trkpt><trkpt lat="53.41826116178008" lon="14.733563398261133"><ele>13.0</ele><time>2026-04-06T12:39:24.96Z</time></trkpt><trkpt lat="53.41818045811114" lon="14.733664400566642"><ele>13.0</ele><time>2026-04-06T12:39:26.96Z</time></trkpt><trkpt lat="53.41812263778749" lon="14.733712684361365"><ele>13.0</ele><time>2026-04-06T12:39:27.96Z</time></trkpt><trkpt lat="53.418062157416394" lon="14.733770938804478"><ele>13.0</ele><time>2026-04-06T12:39:28.96Z</time></trkpt><trkpt lat="53.41795779502101" lon="14.733871062905765"><ele>13.0</ele><time>2026-04-06T12:39:30.96Z</time></trkpt><trkpt lat="53.41786094459697" lon="14.733948679129414"><ele>13.0</ele><time>2026-04-06T12:39:32.96Z</time></trkpt><trkpt lat="53.41776798796791" lon="14.734048404878932"><ele>13.2</ele><time>2026-04-06T12:39:34.96Z</time></trkpt><trkpt lat="53.4176807240956" lon="14.734151102806498"><ele>13.4</ele><time>2026-04-06T12:39:36.96Z</time></trkpt><trkpt lat="53.41765155778312" lon="14.734293922336548"><ele>13.599999999999998</ele><time>2026-04-06T12:39:38.96Z</time></trkpt><trkpt lat="53.417651833372034" lon="14.73440512307707"><ele>13.799999999999999</ele><time>2026-04-06T12:39:39.96Z</time></trkpt><trkpt lat="53.41774595699476" lon="14.734652546341625"><ele>14.0</ele><time>2026-04-06T12:39:41.96Z</time></trkpt><trkpt lat="53.41780023577195" lon="14.734793279452168"><ele>13.0</ele><time>2026-04-06T12:39:42.96Z</time></trkpt><trkpt lat="53.41786198280127" lon="14.734967122466601"><ele>12.0</ele><time>2026-04-06T12:39:43.96Z</time></trkpt><trkpt lat="53.417942842954034" lon="14.735178430755631"><ele>11.0</ele><time>2026-04-06T12:39:44.96Z</time></trkpt><trkpt lat="53.418010963832856" lon="14.735348683291694"><ele>10.0</ele><time>2026-04-06T12:39:45.96Z</time></trkpt><trkpt lat="53.41806883756334" lon="14.735528079644423"><ele>9.8</ele><time>2026-04-06T12:39:46.96Z</time></trkpt><trkpt lat="53.41812883376219" lon="14.735698549526631"><ele>9.6</ele><time>2026-04-06T12:39:47.96Z</time></trkpt><trkpt lat="53.41818029651901" lon="14.735857101787598"><ele>9.4</ele><time>2026-04-06T12:39:48.96Z</time></trkpt><trkpt lat="53.41822859082387" lon="14.736008598026539"><ele>9.2</ele><time>2026-04-06T12:39:49.96Z</time></trkpt><trkpt lat="53.41827421434102" lon="14.73613465391579"><ele>9.0</ele><time>2026-04-06T12:39:50.96Z</time></trkpt><trkpt lat="53.41833882313224" lon="14.73625398773488"><ele>9.0</ele><time>2026-04-06T12:39:51.96Z</time></trkpt><trkpt lat="53.41840131543615" lon="14.736387747046365"><ele>9.0</ele><time>2026-04-06T12:39:52.96Z</time></trkpt><trkpt lat="53.41843784319791" lon="14.736499325583715"><ele>9.0</ele><time>2026-04-06T12:39:53.96Z</time></trkpt><trkpt lat="53.41846006514169" lon="14.736641155978049"><ele>9.0</ele><time>2026-04-06T12:39:54.96Z</time></trkpt><trkpt lat="53.418464891650125" lon="14.73687913254727"><ele>9.0</ele><time>2026-04-06T12:39:55.96Z</time></trkpt><trkpt lat="53.41845681653675" lon="14.737094492286491"><ele>9.5</ele><time>2026-04-06T12:39:56.96Z</time></trkpt><trkpt lat="53.418453771977795" lon="14.73738723716236"><ele>10.0</ele><time>2026-04-06T12:39:57.96Z</time></trkpt><trkpt lat="53.4184513945114" lon="14.737564530206482"><ele>10.5</ele><time>2026-04-06T12:39:58.96Z</time></trkpt><trkpt lat="53.41846042147637" lon="14.737743526738356"><ele>11.0</ele><time>2026-04-06T12:39:59.96Z</time></trkpt><trkpt lat="53.41847630219203" lon="14.737913455868897"><ele>11.5</ele><time>2026-04-06T12:40:00.96Z</time></trkpt><trkpt lat="53.41849831732135" lon="14.738106770670482"><ele>12.0</ele><time>2026-04-06T12:40:01.961Z</time></trkpt><trkpt lat="53.418538497786045" lon="14.73828914113123"><ele>12.5</ele><time>2026-04-06T12:40:02.961Z</time></trkpt><trkpt lat="53.418590197634366" lon="14.73847324031439"><ele>13.0</ele><time>2026-04-06T12:40:03.961Z</time></trkpt><trkpt lat="53.418629846181055" lon="14.738651851462876"><ele>13.4</ele><time>2026-04-06T12:40:04.961Z</time></trkpt><trkpt lat="53.41866308117216" lon="14.738816312248868"><ele>13.8</ele><time>2026-04-06T12:40:05.961Z</time></trkpt><trkpt lat="53.41870908531291" lon="14.738992369995433"><ele>14.2</ele><time>2026-04-06T12:40:06.961Z</time></trkpt><trkpt lat="53.418757719872005" lon="14.739163287906909"><ele>14.6</ele><time>2026-04-06T12:40:07.961Z</time></trkpt><trkpt lat="53.41879421547826" lon="14.7393026906462"><ele>15.0</ele><time>2026-04-06T12:40:08.961Z</time></trkpt><trkpt lat="53.41882678722773" lon="14.739416443474365"><ele>15.166666666666666</ele><time>2026-04-06T12:40:09.961Z</time></trkpt><trkpt lat="53.418868664167576" lon="14.739501418803444"><ele>15.333333333333332</ele><time>2026-04-06T12:40:10.961Z</time></trkpt><trkpt lat="53.41889495899763" lon="14.73962686028607"><ele>15.5</ele><time>2026-04-06T12:40:12.961Z</time></trkpt><trkpt lat="53.418847358670334" lon="14.739730460497872"><ele>15.666666666666666</ele><time>2026-04-06T12:40:14.961Z</time></trkpt><trkpt lat="53.418774319566836" lon="14.739764981854266"><ele>15.833333333333332</ele><time>2026-04-06T12:40:16.961Z</time></trkpt><trkpt lat="53.41871546918766" lon="14.739814308809763"><ele>16.0</ele><time>2026-04-06T12:40:18.961Z</time></trkpt><trkpt lat="53.41864255646592" lon="14.739907905971597"><ele>15.999999999999998</ele><time>2026-04-06T12:40:21.961Z</time></trkpt><trkpt lat="53.41857957559515" lon="14.739953878932427"><ele>16.0</ele><time>2026-04-06T12:40:23.961Z</time></trkpt><trkpt lat="53.41851820547154" lon="14.740015865656957"><ele>16.0</ele><time>2026-04-06T12:40:25.961Z</time></trkpt><trkpt lat="53.41845708865419" lon="14.740080591285652"><ele>16.0</ele><time>2026-04-06T12:40:27.961Z</time></trkpt><trkpt lat="53.418392387441706" lon="14.740145620473927"><ele>15.999999999999998</ele><time>2026-04-06T12:40:29.961Z</time></trkpt><trkpt lat="53.41831362923669" lon="14.74020808357183"><ele>16.0</ele><time>2026-04-06T12:40:31.961Z</time></trkpt><trkpt lat="53.41823612579715" lon="14.740298197585414"><ele>16.0</ele><time>2026-04-06T12:40:33.961Z</time></trkpt><trkpt lat="53.4181567503023" lon="14.740378290065966"><ele>16.0</ele><time>2026-04-06T12:40:35.961Z</time></trkpt><trkpt lat="53.418098957111425" lon="14.7404231328022"><ele>16.0</ele><time>2026-04-06T12:40:36.961Z</time></trkpt><trkpt lat="53.418020714333935" lon="14.74051287378397"><ele>16.0</ele><time>2026-04-06T12:40:38.961Z</time></trkpt><trkpt lat="53.417903158687956" lon="14.740634270638518"><ele>16.0</ele><time>2026-04-06T12:40:40.961Z</time></trkpt><trkpt lat="53.41779367368861" lon="14.740717567117743"><ele>15.999999999999998</ele><time>2026-04-06T12:40:42.961Z</time></trkpt><trkpt lat="53.41769668359544" lon="14.740802204997129"><ele>16.0</ele><time>2026-04-06T12:40:44.961Z</time></trkpt><trkpt lat="53.41764423734546" lon="14.740900665035408"><ele>16.0</ele><time>2026-04-06T12:40:46.961Z</time></trkpt><trkpt lat="53.41762524111996" lon="14.741008107730158"><ele>16.0</ele><time>2026-04-06T12:40:48.961Z</time></trkpt><trkpt lat="53.41764423951781" lon="14.741117942164665"><ele>15.999999999999998</ele><time>2026-04-06T12:40:50.961Z</time></trkpt><trkpt lat="53.417672484736215" lon="14.741270892698953"><ele>16.0</ele><time>2026-04-06T12:40:52.961Z</time></trkpt><trkpt lat="53.41770065377665" lon="14.741394146236532"><ele>16.0</ele><time>2026-04-06T12:40:54.961Z</time></trkpt><trkpt lat="53.417729962949814" lon="14.741560844726587"><ele>16.0</ele><time>2026-04-06T12:40:56.961Z</time></trkpt><trkpt lat="53.41776698787345" lon="14.741695537713928"><ele>16.0</ele><time>2026-04-06T12:40:58.961Z</time></trkpt><trkpt lat="53.417815281729204" lon="14.74189070129861"><ele>16.0</ele><time>2026-04-06T12:41:00.959Z</time></trkpt><trkpt lat="53.41784429715089" lon="14.74207380266626"><ele>16.0</ele><time>2026-04-06T12:41:02.959Z</time></trkpt><trkpt lat="53.417862642141216" lon="14.742232457494612"><ele>16.0</ele><time>2026-04-06T12:41:04.959Z</time></trkpt><trkpt lat="53.41791062273739" lon="14.742396511153947"><ele>16.0</ele><time>2026-04-06T12:41:06.959Z</time></trkpt><trkpt lat="53.41795955743461" lon="14.74257766679137"><ele>16.0</ele><time>2026-04-06T12:41:08.959Z</time></trkpt><trkpt lat="53.41803933810207" lon="14.742722387602477"><ele>16.0</ele><time>2026-04-06T12:41:10.959Z</time></trkpt><trkpt lat="53.418092869681054" lon="14.742847763611906"><ele>16.0</ele><time>2026-04-06T12:41:11.959Z</time></trkpt><trkpt lat="53.418132578939705" lon="14.74293590142404"><ele>16.400000000000002</ele><time>2026-04-06T12:41:12.959Z</time></trkpt><trkpt lat="53.41819451683945" lon="14.74306876949027"><ele>16.8</ele><time>2026-04-06T12:41:14.959Z</time></trkpt><trkpt lat="53.41825415060791" lon="14.743262640045064"><ele>17.200000000000003</ele><time>2026-04-06T12:41:16.959Z</time></trkpt><trkpt lat="53.41829658660228" lon="14.743373825883003"><ele>17.6</ele><time>2026-04-06T12:41:17.959Z</time></trkpt><trkpt lat="53.418362355318855" lon="14.743540894176283"><ele>18.0</ele><time>2026-04-06T12:41:19.959Z</time></trkpt><trkpt lat="53.41842768142938" lon="14.74373587502279"><ele>18.0</ele><time>2026-04-06T12:41:21.959Z</time></trkpt><trkpt lat="53.41845760308448" lon="14.743852962707592"><ele>18.0</ele><time>2026-04-06T12:41:22.959Z</time></trkpt><trkpt lat="53.41849845187413" lon="14.743966092510155"><ele>18.0</ele><time>2026-04-06T12:41:23.959Z</time></trkpt><trkpt lat="53.418558809653604" lon="14.74417193895529"><ele>18.0</ele><time>2026-04-06T12:41:25.959Z</time></trkpt><trkpt lat="53.41861281159791" lon="14.744265659229093"><ele>18.0</ele><time>2026-04-06T12:41:26.959Z</time></trkpt><trkpt lat="53.41870030969772" lon="14.74431318710746"><ele>18.0</ele><time>2026-04-06T12:41:28.959Z</time></trkpt><trkpt lat="53.418809698706674" lon="14.744427451967638"><ele>18.0</ele><time>2026-04-06T12:41:30.959Z</time></trkpt><trkpt lat="53.41887128292601" lon="14.744512474883127"><ele>18.0</ele><time>2026-04-06T12:41:31.959Z</time></trkpt><trkpt lat="53.418924766782666" lon="14.744568959828637"><ele>18.0</ele><time>2026-04-06T12:41:32.959Z</time></trkpt><trkpt lat="53.41904097287169" lon="14.744690378895532"><ele>18.0</ele><time>2026-04-06T12:41:34.959Z</time></trkpt><trkpt lat="53.41909529981025" lon="14.744761246937077"><ele>18.0</ele><time>2026-04-06T12:41:35.959Z</time></trkpt><trkpt lat="53.41916831803294" lon="14.744855804750232"><ele>18.0</ele><time>2026-04-06T12:41:36.959Z</time></trkpt><trkpt lat="53.41923773190324" lon="14.744943851316592"><ele>18.0</ele><time>2026-04-06T12:41:37.959Z</time></trkpt><trkpt lat="53.41931039340694" lon="14.745014791425936"><ele>18.0</ele><time>2026-04-06T12:41:38.959Z</time></trkpt><trkpt lat="53.41937148088926" lon="14.7450844422245"><ele>18.0</ele><time>2026-04-06T12:41:39.959Z</time></trkpt><trkpt lat="53.41944514342194" lon="14.745160791722162"><ele>18.0</ele><time>2026-04-06T12:41:40.959Z</time></trkpt><trkpt lat="53.419503595361874" lon="14.745235724679803"><ele>18.2</ele><time>2026-04-06T12:41:41.959Z</time></trkpt><trkpt lat="53.4195985486817" lon="14.745375269605661"><ele>18.4</ele><time>2026-04-06T12:41:43.959Z</time></trkpt><trkpt lat="53.41963958529025" lon="14.74545879224642"><ele>18.599999999999998</ele><time>2026-04-06T12:41:44.959Z</time></trkpt><trkpt lat="53.41974227484409" lon="14.745544061266376"><ele>18.8</ele><time>2026-04-06T12:41:46.959Z</time></trkpt><trkpt lat="53.419860131002004" lon="14.745641362444665"><ele>19.0</ele><time>2026-04-06T12:41:48.959Z</time></trkpt><trkpt lat="53.419923242018115" lon="14.745691866634603"><ele>19.166666666666664</ele><time>2026-04-06T12:41:49.959Z</time></trkpt><trkpt lat="53.41998346540019" lon="14.745742721766188"><ele>19.333333333333332</ele><time>2026-04-06T12:41:50.959Z</time></trkpt><trkpt lat="53.420045147849876" lon="14.745804750349528"><ele>19.5</ele><time>2026-04-06T12:41:51.959Z</time></trkpt><trkpt lat="53.420103374092825" lon="14.745862356925445"><ele>19.666666666666668</ele><time>2026-04-06T12:41:52.959Z</time></trkpt><trkpt lat="53.42017324988255" lon="14.745926020822372"><ele>19.833333333333336</ele><time>2026-04-06T12:41:53.959Z</time></trkpt><trkpt lat="53.420249804391304" lon="14.746000296808283"><ele>20.0</ele><time>2026-04-06T12:41:54.959Z</time></trkpt><trkpt lat="53.42032328800501" lon="14.746076065473869"><ele>20.2</ele><time>2026-04-06T12:41:55.959Z</time></trkpt><trkpt lat="53.420411421577896" lon="14.746186446501362"><ele>20.4</ele><time>2026-04-06T12:41:56.959Z</time></trkpt><trkpt lat="53.420498275397925" lon="14.746299996641683"><ele>20.6</ele><time>2026-04-06T12:41:57.959Z</time></trkpt><trkpt lat="53.42056998775858" lon="14.746397207287723"><ele>20.8</ele><time>2026-04-06T12:41:58.959Z</time></trkpt><trkpt lat="53.42066380184823" lon="14.746484264310215"><ele>21.0</ele><time>2026-04-06T12:41:59.959Z</time></trkpt><trkpt lat="53.42073253567315" lon="14.746575073246095"><ele>21.0</ele><time>2026-04-06T12:42:00.959Z</time></trkpt><trkpt lat="53.420812586360654" lon="14.746670806988655"><ele>21.0</ele><time>2026-04-06T12:42:01.959Z</time></trkpt><trkpt lat="53.420884767714526" lon="14.74679204196287"><ele>21.0</ele><time>2026-04-06T12:42:02.959Z</time></trkpt><trkpt lat="53.42098860599489" lon="14.746904657987267"><ele>21.0</ele><time>2026-04-06T12:42:03.959Z</time></trkpt><trkpt lat="53.421073339284405" lon="14.746989108070434"><ele>21.0</ele><time>2026-04-06T12:42:04.959Z</time></trkpt><trkpt lat="53.421163498786484" lon="14.7470636926234"><ele>21.0</ele><time>2026-04-06T12:42:05.959Z</time></trkpt><trkpt lat="53.42125469161496" lon="14.747162774488253"><ele>21.0</ele><time>2026-04-06T12:42:06.959Z</time></trkpt><trkpt lat="53.42132675464994" lon="14.747229254961416"><ele>21.0</ele><time>2026-04-06T12:42:07.959Z</time></trkpt><trkpt lat="53.42142135347111" lon="14.747267965561402"><ele>21.0</ele><time>2026-04-06T12:42:08.959Z</time></trkpt><trkpt lat="53.42148371728099" lon="14.747334961503919"><ele>21.0</ele><time>2026-04-06T12:42:09.959Z</time></trkpt><trkpt lat="53.421583813233326" lon="14.747396762946904"><ele>20.833333333333332</ele><time>2026-04-06T12:42:10.959Z</time></trkpt><trkpt lat="53.42167133960362" lon="14.747460279601512"><ele>20.666666666666668</ele><time>2026-04-06T12:42:11.959Z</time></trkpt><trkpt lat="53.421749430855485" lon="14.747500389296823"><ele>20.5</ele><time>2026-04-06T12:42:12.959Z</time></trkpt><trkpt lat="53.42180629941532" lon="14.747562749308349"><ele>20.333333333333336</ele><time>2026-04-06T12:42:13.959Z</time></trkpt><trkpt lat="53.42186611195047" lon="14.747642409634874"><ele>20.166666666666668</ele><time>2026-04-06T12:42:14.959Z</time></trkpt><trkpt lat="53.42195157178067" lon="14.747705053512233"><ele>20.0</ele><time>2026-04-06T12:42:15.959Z</time></trkpt><trkpt lat="53.42203767719468" lon="14.747768688171714"><ele>20.0</ele><time>2026-04-06T12:42:16.959Z</time></trkpt><trkpt lat="53.42211695938285" lon="14.747853091393157"><ele>20.0</ele><time>2026-04-06T12:42:17.959Z</time></trkpt><trkpt lat="53.42220618263394" lon="14.747896607672569"><ele>20.0</ele><time>2026-04-06T12:42:18.959Z</time></trkpt><trkpt lat="53.422278102363755" lon="14.747980445541614"><ele>20.0</ele><time>2026-04-06T12:42:19.959Z</time></trkpt><trkpt lat="53.4223685097671" lon="14.748080512458966"><ele>20.0</ele><time>2026-04-06T12:42:20.959Z</time></trkpt><trkpt lat="53.42248358343496" lon="14.748206499188267"><ele>19.833333333333336</ele><time>2026-04-06T12:42:21.959Z</time></trkpt><trkpt lat="53.422540203340006" lon="14.748333836267578"><ele>19.666666666666668</ele><time>2026-04-06T12:42:22.959Z</time></trkpt><trkpt lat="53.42257861053018" lon="14.74844151266717"><ele>19.5</ele><time>2026-04-06T12:42:23.959Z</time></trkpt><trkpt lat="53.42262037043797" lon="14.748555456690529"><ele>19.333333333333332</ele><time>2026-04-06T12:42:24.959Z</time></trkpt><trkpt lat="53.422678778878385" lon="14.748684419560039"><ele>19.166666666666664</ele><time>2026-04-06T12:42:25.959Z</time></trkpt><trkpt lat="53.42272345444414" lon="14.748799621197588"><ele>19.0</ele><time>2026-04-06T12:42:26.959Z</time></trkpt><trkpt lat="53.42277653207788" lon="14.748929680327405"><ele>18.8</ele><time>2026-04-06T12:42:27.959Z</time></trkpt><trkpt lat="53.422834023503924" lon="14.749080292031017"><ele>18.599999999999998</ele><time>2026-04-06T12:42:28.959Z</time></trkpt><trkpt lat="53.422872360649315" lon="14.74918283803287"><ele>18.4</ele><time>2026-04-06T12:42:29.959Z</time></trkpt><trkpt lat="53.422945271239755" lon="14.749316024908442"><ele>18.2</ele><time>2026-04-06T12:42:30.959Z</time></trkpt><trkpt lat="53.422996666139376" lon="14.749431763943088"><ele>18.0</ele><time>2026-04-06T12:42:31.959Z</time></trkpt><trkpt lat="53.42304995777836" lon="14.749554057828355"><ele>17.4</ele><time>2026-04-06T12:42:32.959Z</time></trkpt><trkpt lat="53.42308661903199" lon="14.749692878307801"><ele>16.8</ele><time>2026-04-06T12:42:33.959Z</time></trkpt><trkpt lat="53.42311771236882" lon="14.749828399209385"><ele>16.2</ele><time>2026-04-06T12:42:34.959Z</time></trkpt><trkpt lat="53.42314393215081" lon="14.749984671955767"><ele>15.6</ele><time>2026-04-06T12:42:35.959Z</time></trkpt><trkpt lat="53.42318291169949" lon="14.750121752675074"><ele>15.0</ele><time>2026-04-06T12:42:36.959Z</time></trkpt><trkpt lat="53.423242810959565" lon="14.750261426689988"><ele>15.0</ele><time>2026-04-06T12:42:37.959Z</time></trkpt><trkpt lat="53.423339747634024" lon="14.750399655187492"><ele>15.0</ele><time>2026-04-06T12:42:38.959Z</time></trkpt><trkpt lat="53.423435860766496" lon="14.750542045509686"><ele>15.0</ele><time>2026-04-06T12:42:39.959Z</time></trkpt><trkpt lat="53.42352042277346" lon="14.750694091159561"><ele>15.0</ele><time>2026-04-06T12:42:40.959Z</time></trkpt><trkpt lat="53.42360984609804" lon="14.750823548515912"><ele>15.0</ele><time>2026-04-06T12:42:41.959Z</time></trkpt><trkpt lat="53.42368323182852" lon="14.750931574304744"><ele>15.0</ele><time>2026-04-06T12:42:42.959Z</time></trkpt><trkpt lat="53.423732572137745" lon="14.751042494334447"><ele>15.0</ele><time>2026-04-06T12:42:43.959Z</time></trkpt><trkpt lat="53.423803933376526" lon="14.751155958774655"><ele>15.0</ele><time>2026-04-06T12:42:44.959Z</time></trkpt><trkpt lat="53.42390810127336" lon="14.751261811965952"><ele>15.0</ele><time>2026-04-06T12:42:45.959Z</time></trkpt><trkpt lat="53.42397765445083" lon="14.751384728926611"><ele>14.8</ele><time>2026-04-06T12:42:46.959Z</time></trkpt><trkpt lat="53.42403714829289" lon="14.751495391146149"><ele>14.6</ele><time>2026-04-06T12:42:47.959Z</time></trkpt><trkpt lat="53.42410175683907" lon="14.75159336715528"><ele>14.399999999999999</ele><time>2026-04-06T12:42:48.959Z</time></trkpt><trkpt lat="53.424195524766624" lon="14.751697687552666"><ele>14.2</ele><time>2026-04-06T12:42:49.959Z</time></trkpt><trkpt lat="53.42425792384764" lon="14.751831461835673"><ele>14.0</ele><time>2026-04-06T12:42:50.959Z</time></trkpt><trkpt lat="53.42432459445706" lon="14.751952614863754"><ele>14.799999999999999</ele><time>2026-04-06T12:42:51.959Z</time></trkpt><trkpt lat="53.42439971556364" lon="14.752067551097404"><ele>15.599999999999998</ele><time>2026-04-06T12:42:52.959Z</time></trkpt><trkpt lat="53.42448116644939" lon="14.752191114686392"><ele>16.4</ele><time>2026-04-06T12:42:53.959Z</time></trkpt><trkpt lat="53.42456657951313" lon="14.752274320020751"><ele>17.2</ele><time>2026-04-06T12:42:54.959Z</time></trkpt><trkpt lat="53.424687561511945" lon="14.752347475987422"><ele>18.0</ele><time>2026-04-06T12:42:55.959Z</time></trkpt><trkpt lat="53.424797294136845" lon="14.752423600159542"><ele>18.0</ele><time>2026-04-06T12:42:56.959Z</time></trkpt><trkpt lat="53.42487756886481" lon="14.752467487959445"><ele>18.0</ele><time>2026-04-06T12:42:57.959Z</time></trkpt><trkpt lat="53.424961228165685" lon="14.752496669613404"><ele>18.0</ele><time>2026-04-06T12:42:58.959Z</time></trkpt><trkpt lat="53.425021478925615" lon="14.752530856030376"><ele>18.0</ele><time>2026-04-06T12:42:59.959Z</time></trkpt><trkpt lat="53.42510078946612" lon="14.752653327348145"><ele>18.0</ele><time>2026-04-06T12:43:01.959Z</time></trkpt><trkpt lat="53.425126869515076" lon="14.752765345223276"><ele>18.0</ele><time>2026-04-06T12:43:02.959Z</time></trkpt><trkpt lat="53.42519696573888" lon="14.752857003591878"><ele>18.333333333333332</ele><time>2026-04-06T12:43:03.959Z</time></trkpt><trkpt lat="53.425249702798766" lon="14.752919323710108"><ele>18.666666666666668</ele><time>2026-04-06T12:43:04.959Z</time></trkpt><trkpt lat="53.425327125458345" lon="14.753002850392432"><ele>19.0</ele><time>2026-04-06T12:43:06.958Z</time></trkpt><trkpt lat="53.42544056352234" lon="14.752945744094516"><ele>19.333333333333336</ele><time>2026-04-06T12:43:09.958Z</time></trkpt><trkpt lat="53.42551324170691" lon="14.752877290432128"><ele>19.666666666666668</ele><time>2026-04-06T12:43:10.958Z</time></trkpt><trkpt lat="53.425578294361316" lon="14.75280477377508"><ele>20.0</ele><time>2026-04-06T12:43:11.958Z</time></trkpt><trkpt lat="53.42565855464451" lon="14.752736873463158"><ele>20.0</ele><time>2026-04-06T12:43:13.958Z</time></trkpt><trkpt lat="53.42572773534954" lon="14.752730569685841"><ele>20.0</ele><time>2026-04-06T12:43:15.958Z</time></trkpt><trkpt lat="53.42579867787504" lon="14.75282340409673"><ele>20.0</ele><time>2026-04-06T12:43:17.957Z</time></trkpt><trkpt lat="53.42584925366086" lon="14.752933145572648"><ele>20.0</ele><time>2026-04-06T12:43:18.957Z</time></trkpt><trkpt lat="53.42591494619645" lon="14.753077683619019"><ele>20.0</ele><time>2026-04-06T12:43:19.957Z</time></trkpt><trkpt lat="53.425996330531284" lon="14.75323800488217"><ele>20.0</ele><time>2026-04-06T12:43:20.957Z</time></trkpt><trkpt lat="53.42609290831046" lon="14.753392422328243"><ele>20.0</ele><time>2026-04-06T12:43:21.957Z</time></trkpt><trkpt lat="53.426198588308544" lon="14.753553276692319"><ele>20.0</ele><time>2026-04-06T12:43:22.957Z</time></trkpt><trkpt lat="53.42631726643251" lon="14.753743963938543"><ele>20.0</ele><time>2026-04-06T12:43:23.957Z</time></trkpt><trkpt lat="53.42642801670682" lon="14.75391217120387"><ele>20.0</ele><time>2026-04-06T12:43:24.957Z</time></trkpt><trkpt lat="53.42653609326076" lon="14.754101154527513"><ele>20.0</ele><time>2026-04-06T12:43:25.957Z</time></trkpt><trkpt lat="53.42666830482435" lon="14.754297251597475"><ele>20.0</ele><time>2026-04-06T12:43:26.957Z</time></trkpt><trkpt lat="53.42680054205902" lon="14.75449390343005"><ele>20.0</ele><time>2026-04-06T12:43:27.957Z</time></trkpt><trkpt lat="53.42694064262964" lon="14.754706880643294"><ele>20.0</ele><time>2026-04-06T12:43:28.957Z</time></trkpt><trkpt lat="53.42708134526033" lon="14.754924675456715"><ele>20.0</ele><time>2026-04-06T12:43:29.957Z</time></trkpt><trkpt lat="53.42722759608271" lon="14.755148834045285"><ele>19.333333333333336</ele><time>2026-04-06T12:43:30.957Z</time></trkpt><trkpt lat="53.427368715973564" lon="14.755371033722943"><ele>18.666666666666668</ele><time>2026-04-06T12:43:31.957Z</time></trkpt><trkpt lat="53.42750203088949" lon="14.755569949905885"><ele>18.0</ele><time>2026-04-06T12:43:32.957Z</time></trkpt><trkpt lat="53.427638643446635" lon="14.755809333516067"><ele>17.666666666666668</ele><time>2026-04-06T12:43:33.957Z</time></trkpt><trkpt lat="53.4277894608684" lon="14.756039513074212"><ele>17.333333333333336</ele><time>2026-04-06T12:43:34.957Z</time></trkpt><trkpt lat="53.42793160618017" lon="14.756253564364785"><ele>17.0</ele><time>2026-04-06T12:43:35.957Z</time></trkpt><trkpt lat="53.42807853066131" lon="14.756475583331632"><ele>17.0</ele><time>2026-04-06T12:43:36.957Z</time></trkpt><trkpt lat="53.42823189624216" lon="14.756709728585534"><ele>17.0</ele><time>2026-04-06T12:43:37.957Z</time></trkpt><trkpt lat="53.42839464728304" lon="14.756956485673655"><ele>17.0</ele><time>2026-04-06T12:43:38.957Z</time></trkpt><trkpt lat="53.428556650880225" lon="14.757203844545678"><ele>17.0</ele><time>2026-04-06T12:43:39.957Z</time></trkpt><trkpt lat="53.428721340445264" lon="14.757458698288293"><ele>17.0</ele><time>2026-04-06T12:43:40.957Z</time></trkpt><trkpt lat="53.42889103495061" lon="14.757691230366325"><ele>17.0</ele><time>2026-04-06T12:43:41.957Z</time></trkpt><trkpt lat="53.42904011799606" lon="14.757940900000118"><ele>17.0</ele><time>2026-04-06T12:43:42.957Z</time></trkpt><trkpt lat="53.429176398594954" lon="14.758193935286814"><ele>17.0</ele><time>2026-04-06T12:43:43.957Z</time></trkpt><trkpt lat="53.42930258490655" lon="14.758425947937642"><ele>17.0</ele><time>2026-04-06T12:43:44.957Z</time></trkpt><trkpt lat="53.42942495306739" lon="14.758662895383535"><ele>16.666666666666668</ele><time>2026-04-06T12:43:45.957Z</time></trkpt><trkpt lat="53.429538689730705" lon="14.758904356210511"><ele>16.333333333333332</ele><time>2026-04-06T12:43:46.957Z</time></trkpt><trkpt lat="53.4296502861824" lon="14.759156540992038"><ele>16.0</ele><time>2026-04-06T12:43:47.957Z</time></trkpt><trkpt lat="53.42975507960153" lon="14.759388693510383"><ele>16.0</ele><time>2026-04-06T12:43:48.957Z</time></trkpt><trkpt lat="53.42985386664057" lon="14.75961771926105"><ele>16.0</ele><time>2026-04-06T12:43:49.957Z</time></trkpt><trkpt lat="53.429946226101876" lon="14.759816138715156"><ele>16.0</ele><time>2026-04-06T12:43:50.957Z</time></trkpt><trkpt lat="53.43002386769506" lon="14.760008101631588"><ele>16.0</ele><time>2026-04-06T12:43:51.957Z</time></trkpt><trkpt lat="53.43009494047307" lon="14.76018689154192"><ele>16.0</ele><time>2026-04-06T12:43:52.957Z</time></trkpt><trkpt lat="53.43016629488473" lon="14.760356658662372"><ele>16.0</ele><time>2026-04-06T12:43:53.957Z</time></trkpt><trkpt lat="53.43023214196111" lon="14.760507654682254"><ele>16.0</ele><time>2026-04-06T12:43:54.957Z</time></trkpt><trkpt lat="53.43028891248965" lon="14.760641003989106"><ele>16.166666666666664</ele><time>2026-04-06T12:43:55.957Z</time></trkpt><trkpt lat="53.43034541294106" lon="14.760767669165702"><ele>16.333333333333332</ele><time>2026-04-06T12:43:56.957Z</time></trkpt><trkpt lat="53.430395188943365" lon="14.760876956452998"><ele>16.5</ele><time>2026-04-06T12:43:57.957Z</time></trkpt><trkpt lat="53.43045153231548" lon="14.76099745547972"><ele>16.666666666666668</ele><time>2026-04-06T12:43:58.957Z</time></trkpt><trkpt lat="53.43049936681213" lon="14.76110851223447"><ele>16.833333333333336</ele><time>2026-04-06T12:43:59.957Z</time></trkpt><trkpt lat="53.43053056952707" lon="14.76121517496949"><ele>17.0</ele><time>2026-04-06T12:44:00.957Z</time></trkpt><trkpt lat="53.43057359102366" lon="14.76131645711251"><ele>17.0</ele><time>2026-04-06T12:44:02.957Z</time></trkpt><trkpt lat="53.430760766008135" lon="14.761172629042063"><ele>17.0</ele><time>2026-04-06T12:44:04.957Z</time></trkpt><trkpt lat="53.43091540888077" lon="14.761093136164202"><ele>17.0</ele><time>2026-04-06T12:44:06.957Z</time></trkpt><trkpt lat="53.431001723779225" lon="14.761047338978111"><ele>17.0</ele><time>2026-04-06T12:44:07.957Z</time></trkpt><trkpt lat="53.4311049818834" lon="14.76099723032139"><ele>17.0</ele><time>2026-04-06T12:44:08.957Z</time></trkpt><trkpt lat="53.43118576897891" lon="14.760928831764714"><ele>17.0</ele><time>2026-04-06T12:44:09.957Z</time></trkpt><trkpt lat="53.43126944224602" lon="14.760874405303039"><ele>17.0</ele><time>2026-04-06T12:44:10.957Z</time></trkpt><trkpt lat="53.43133794663991" lon="14.760831140186253"><ele>17.0</ele><time>2026-04-06T12:44:11.957Z</time></trkpt><trkpt lat="53.43142182988337" lon="14.760758935264757"><ele>17.333333333333336</ele><time>2026-04-06T12:44:13.958Z</time></trkpt><trkpt lat="53.43151213931585" lon="14.760740870474285"><ele>17.666666666666668</ele><time>2026-04-06T12:44:15.958Z</time></trkpt><trkpt lat="53.43157906918659" lon="14.760746048451177"><ele>18.0</ele><time>2026-04-06T12:44:16.958Z</time></trkpt><trkpt lat="53.4316633148341" lon="14.76073887513885"><ele>18.333333333333332</ele><time>2026-04-06T12:44:19.958Z</time></trkpt><trkpt lat="53.43171606390728" lon="14.760822322850041"><ele>18.666666666666664</ele><time>2026-04-06T12:44:21.958Z</time></trkpt><trkpt lat="53.43176266418899" lon="14.760927032425752"><ele>19.0</ele><time>2026-04-06T12:44:46.958Z</time></trkpt><trkpt lat="53.43183104995474" lon="14.76108783023206"><ele>19.0</ele><time>2026-04-06T12:44:48.958Z</time></trkpt><trkpt lat="53.431875564997874" lon="14.761185986985987"><ele>19.0</ele><time>2026-04-06T12:44:49.958Z</time></trkpt><trkpt lat="53.43191650671257" lon="14.761276138267448"><ele>19.0</ele><time>2026-04-06T12:44:50.958Z</time></trkpt><trkpt lat="53.4319618694723" lon="14.76136459007116"><ele>19.0</ele><time>2026-04-06T12:44:51.958Z</time></trkpt><trkpt lat="53.43201201415607" lon="14.761483562511303"><ele>19.0</ele><time>2026-04-06T12:44:52.958Z</time></trkpt><trkpt lat="53.43207043209239" lon="14.761611027757757"><ele>19.0</ele><time>2026-04-06T12:44:53.958Z</time></trkpt><trkpt lat="53.4321206840074" lon="14.761716136444418"><ele>19.2</ele><time>2026-04-06T12:44:54.958Z</time></trkpt><trkpt lat="53.43219457768896" lon="14.761835150730642"><ele>19.4</ele><time>2026-04-06T12:44:57.958Z</time></trkpt><trkpt lat="53.43232272452811" lon="14.761909179508583"><ele>19.6</ele><time>2026-04-06T12:44:59.958Z</time></trkpt><trkpt lat="53.43241689977666" lon="14.761906593763438"><ele>19.8</ele><time>2026-04-06T12:45:00.958Z</time></trkpt><trkpt lat="53.43251575425635" lon="14.761883991437013"><ele>20.0</ele><time>2026-04-06T12:45:01.958Z</time></trkpt><trkpt lat="53.432612667823996" lon="14.761861719097269"><ele>20.0</ele><time>2026-04-06T12:45:02.958Z</time></trkpt><trkpt lat="53.43272273252944" lon="14.761809672073902"><ele>20.0</ele><time>2026-04-06T12:45:04.958Z</time></trkpt><trkpt lat="53.432804460681844" lon="14.76179003820786"><ele>20.0</ele><time>2026-04-06T12:45:06.958Z</time></trkpt><trkpt lat="53.432864152826404" lon="14.761829370129675"><ele>20.0</ele><time>2026-04-06T12:45:07.958Z</time></trkpt><trkpt lat="53.43292218541063" lon="14.761939251919841"><ele>20.0</ele><time>2026-04-06T12:45:09.958Z</time></trkpt><trkpt lat="53.43293631213634" lon="14.762049566600691"><ele>20.0</ele><time>2026-04-06T12:45:48.956Z</time></trkpt><trkpt lat="53.43297733473122" lon="14.762140426526564"><ele>19.8</ele><time>2026-04-06T12:45:50.956Z</time></trkpt><trkpt lat="53.433055555676596" lon="14.762312935172753"><ele>19.6</ele><time>2026-04-06T12:45:52.956Z</time></trkpt><trkpt lat="53.43311695073439" lon="14.762449464984837"><ele>19.4</ele><time>2026-04-06T12:45:54.956Z</time></trkpt><trkpt lat="53.43316774358387" lon="14.762544703167158"><ele>19.2</ele><time>2026-04-06T12:45:56.956Z</time></trkpt><trkpt lat="53.43322044411125" lon="14.76265681310307"><ele>19.0</ele><time>2026-04-06T12:45:58.956Z</time></trkpt><trkpt lat="53.433263331263326" lon="14.762773826792332"><ele>19.0</ele><time>2026-04-06T12:46:00.956Z</time></trkpt><trkpt lat="53.433299432698696" lon="14.762870186113457"><ele>19.0</ele><time>2026-04-06T12:46:01.956Z</time></trkpt><trkpt lat="53.433359500869564" lon="14.762996723273801"><ele>19.0</ele><time>2026-04-06T12:46:02.956Z</time></trkpt><trkpt lat="53.433421664657175" lon="14.76313432080074"><ele>19.0</ele><time>2026-04-06T12:46:03.956Z</time></trkpt><trkpt lat="53.433463191525775" lon="14.763223829716077"><ele>19.0</ele><time>2026-04-06T12:46:04.956Z</time></trkpt><trkpt lat="53.433512298883215" lon="14.763317550029255"><ele>19.0</ele><time>2026-04-06T12:46:06.956Z</time></trkpt><trkpt lat="53.43357374225451" lon="14.763486976644403"><ele>19.2</ele><time>2026-04-06T12:46:08.956Z</time></trkpt><trkpt lat="53.43362189248124" lon="14.763612270563405"><ele>19.4</ele><time>2026-04-06T12:46:09.956Z</time></trkpt><trkpt lat="53.43365626251846" lon="14.763709585020885"><ele>19.6</ele><time>2026-04-06T12:46:10.956Z</time></trkpt><trkpt lat="53.433679806108074" lon="14.763852284293817"><ele>19.8</ele><time>2026-04-06T12:46:12.956Z</time></trkpt><trkpt lat="53.43372764729753" lon="14.764023065861876"><ele>20.0</ele><time>2026-04-06T12:46:14.956Z</time></trkpt><trkpt lat="53.433749174482685" lon="14.764197750161301"><ele>20.0</ele><time>2026-04-06T12:46:16.956Z</time></trkpt><trkpt lat="53.43378158920795" lon="14.764323174496045"><ele>20.0</ele><time>2026-04-06T12:46:19.956Z</time></trkpt><trkpt lat="53.43382813955734" lon="14.764460470156342"><ele>20.0</ele><time>2026-04-06T12:46:22.956Z</time></trkpt><trkpt lat="53.4338958492792" lon="14.76462030513843"><ele>20.0</ele><time>2026-04-06T12:46:24.956Z</time></trkpt><trkpt lat="53.43394600154322" lon="14.764744643828884"><ele>20.0</ele><time>2026-04-06T12:46:25.956Z</time></trkpt><trkpt lat="53.433989804012185" lon="14.764848749060564"><ele>20.0</ele><time>2026-04-06T12:46:26.956Z</time></trkpt><trkpt lat="53.43405436823067" lon="14.765011089855717"><ele>20.0</ele><time>2026-04-06T12:46:27.956Z</time></trkpt><trkpt lat="53.43412761657851" lon="14.76517757170669"><ele>20.0</ele><time>2026-04-06T12:46:28.956Z</time></trkpt><trkpt lat="53.43418968778475" lon="14.765304284322621"><ele>20.0</ele><time>2026-04-06T12:46:29.956Z</time></trkpt><trkpt lat="53.434247400390284" lon="14.765420444585157"><ele>20.0</ele><time>2026-04-06T12:46:30.956Z</time></trkpt><trkpt lat="53.43429894908109" lon="14.765536930504679"><ele>20.0</ele><time>2026-04-06T12:46:31.956Z</time></trkpt><trkpt lat="53.43435475689903" lon="14.765670925222588"><ele>20.0</ele><time>2026-04-06T12:46:32.956Z</time></trkpt><trkpt lat="53.43440464549209" lon="14.765805861354378"><ele>20.0</ele><time>2026-04-06T12:46:33.956Z</time></trkpt><trkpt lat="53.43447194983272" lon="14.765973059752358"><ele>20.0</ele><time>2026-04-06T12:46:34.956Z</time></trkpt><trkpt lat="53.43452669599775" lon="14.766097424313742"><ele>20.0</ele><time>2026-04-06T12:46:35.956Z</time></trkpt><trkpt lat="53.434583510706325" lon="14.76620703082773"><ele>19.833333333333336</ele><time>2026-04-06T12:46:36.956Z</time></trkpt><trkpt lat="53.4346333142339" lon="14.76632463417017"><ele>19.666666666666668</ele><time>2026-04-06T12:46:37.956Z</time></trkpt><trkpt lat="53.43468856097921" lon="14.766473232104262"><ele>19.5</ele><time>2026-04-06T12:46:39.956Z</time></trkpt><trkpt lat="53.43472266112153" lon="14.766598941715722"><ele>19.333333333333332</ele><time>2026-04-06T12:46:41.956Z</time></trkpt><trkpt lat="53.4346789085686" lon="14.76672025177389"><ele>19.166666666666664</ele><time>2026-04-06T12:46:43.956Z</time></trkpt><trkpt lat="53.43463143497608" lon="14.766801907740962"><ele>19.0</ele><time>2026-04-06T12:46:45.956Z</time></trkpt><trkpt lat="53.43457891631887" lon="14.766895080620458"><ele>19.0</ele><time>2026-04-06T12:46:47.956Z</time></trkpt><trkpt lat="53.434527704582266" lon="14.766987954266886"><ele>19.0</ele><time>2026-04-06T12:46:48.956Z</time></trkpt><trkpt lat="53.43446487211288" lon="14.767102500506732"><ele>19.0</ele><time>2026-04-06T12:46:49.956Z</time></trkpt><trkpt lat="53.4343975526316" lon="14.767239500150117"><ele>19.0</ele><time>2026-04-06T12:46:50.956Z</time></trkpt><trkpt lat="53.43434219737171" lon="14.767334905358448"><ele>19.0</ele><time>2026-04-06T12:46:51.956Z</time></trkpt><trkpt lat="53.434298435219546" lon="14.767429397470162"><ele>19.0</ele><time>2026-04-06T12:46:52.956Z</time></trkpt><trkpt lat="53.4342485548713" lon="14.767529296970592"><ele>19.0</ele><time>2026-04-06T12:46:53.956Z</time></trkpt><trkpt lat="53.43419301843557" lon="14.767646087283579"><ele>19.0</ele><time>2026-04-06T12:46:54.956Z</time></trkpt><trkpt lat="53.434150512649076" lon="14.767733221908667"><ele>19.0</ele><time>2026-04-06T12:46:55.956Z</time></trkpt><trkpt lat="53.43410592972661" lon="14.767826483721329"><ele>19.0</ele><time>2026-04-06T12:46:56.956Z</time></trkpt><trkpt lat="53.43405338932769" lon="14.76789263662829"><ele>19.0</ele><time>2026-04-06T12:46:58.956Z</time></trkpt><trkpt lat="53.4339976447432" lon="14.767977114546632"><ele>19.0</ele><time>2026-04-06T12:47:11.956Z</time></trkpt><trkpt lat="53.43396098186559" lon="14.76806355597614"><ele>19.0</ele><time>2026-04-06T12:47:13.956Z</time></trkpt><trkpt lat="53.433909183182" lon="14.76816520286191"><ele>19.0</ele><time>2026-04-06T12:47:15.956Z</time></trkpt><trkpt lat="53.433840299585924" lon="14.768266689454888"><ele>19.0</ele><time>2026-04-06T12:47:17.956Z</time></trkpt><trkpt lat="53.433779261279625" lon="14.768363344167053"><ele>19.0</ele><time>2026-04-06T12:47:19.955Z</time></trkpt><trkpt lat="53.433739215277" lon="14.76845070041119"><ele>19.0</ele><time>2026-04-06T12:47:22.955Z</time></trkpt><trkpt lat="53.43373115272607" lon="14.768560677723245"><ele>19.0</ele><time>2026-04-06T12:47:24.954Z</time></trkpt><trkpt lat="53.433777307281005" lon="14.768738480129374"><ele>19.0</ele><time>2026-04-06T12:47:26.955Z</time></trkpt><trkpt lat="53.43382417806031" lon="14.768851611879505"><ele>18.833333333333332</ele><time>2026-04-06T12:47:27.954Z</time></trkpt><trkpt lat="53.433851993466526" lon="14.768977633186198"><ele>18.666666666666664</ele><time>2026-04-06T12:47:28.954Z</time></trkpt><trkpt lat="53.43388438541202" lon="14.769070780437994"><ele>18.5</ele><time>2026-04-06T12:47:29.954Z</time></trkpt><trkpt lat="53.433939250759394" lon="14.769224825764532"><ele>18.333333333333332</ele><time>2026-04-06T12:47:31.954Z</time></trkpt><trkpt lat="53.433983607363146" lon="14.769355571342237"><ele>18.166666666666668</ele><time>2026-04-06T12:47:33.954Z</time></trkpt><trkpt lat="53.43404191780595" lon="14.769502653918662"><ele>18.0</ele><time>2026-04-06T12:47:35.954Z</time></trkpt><trkpt lat="53.434073862492276" lon="14.769597819382382"><ele>18.0</ele><time>2026-04-06T12:47:36.954Z</time></trkpt><trkpt lat="53.43410566797503" lon="14.769696416626665"><ele>18.0</ele><time>2026-04-06T12:47:37.954Z</time></trkpt><trkpt lat="53.43414264543043" lon="14.7698044034346"><ele>18.0</ele><time>2026-04-06T12:47:38.954Z</time></trkpt><trkpt lat="53.43418987124762" lon="14.769938944060625"><ele>18.0</ele><time>2026-04-06T12:47:39.954Z</time></trkpt><trkpt lat="53.434238065918095" lon="14.770100048195198"><ele>18.0</ele><time>2026-04-06T12:47:40.954Z</time></trkpt><trkpt lat="53.43429583292722" lon="14.770259483585182"><ele>18.25</ele><time>2026-04-06T12:47:41.954Z</time></trkpt><trkpt lat="53.434352818247866" lon="14.770426805061707"><ele>18.5</ele><time>2026-04-06T12:47:42.954Z</time></trkpt><trkpt lat="53.43441360897679" lon="14.7706211093323"><ele>18.75</ele><time>2026-04-06T12:47:43.954Z</time></trkpt><trkpt lat="53.43448238922221" lon="14.770813888728664"><ele>19.0</ele><time>2026-04-06T12:47:44.954Z</time></trkpt><trkpt lat="53.43455184504919" lon="14.77100048215878"><ele>19.2</ele><time>2026-04-06T12:47:45.954Z</time></trkpt><trkpt lat="53.43461623724594" lon="14.771176168406004"><ele>19.4</ele><time>2026-04-06T12:47:46.954Z</time></trkpt><trkpt lat="53.43466513357643" lon="14.771333803975175"><ele>19.6</ele><time>2026-04-06T12:47:47.954Z</time></trkpt><trkpt lat="53.434710916358334" lon="14.771475711098686"><ele>19.8</ele><time>2026-04-06T12:47:48.954Z</time></trkpt><trkpt lat="53.434751557588086" lon="14.771609760501718"><ele>20.0</ele><time>2026-04-06T12:47:49.954Z</time></trkpt><trkpt lat="53.43479734897209" lon="14.771745828009246"><ele>19.4</ele><time>2026-04-06T12:47:50.954Z</time></trkpt><trkpt lat="53.434852101095494" lon="14.771885285233008"><ele>18.8</ele><time>2026-04-06T12:47:51.954Z</time></trkpt><trkpt lat="53.43490059909817" lon="14.772020074648847"><ele>18.2</ele><time>2026-04-06T12:47:52.954Z</time></trkpt><trkpt lat="53.43494997538293" lon="14.772155392490445"><ele>17.6</ele><time>2026-04-06T12:47:53.954Z</time></trkpt><trkpt lat="53.43500075755002" lon="14.77229170009888"><ele>17.0</ele><time>2026-04-06T12:47:54.954Z</time></trkpt><trkpt lat="53.435056254707966" lon="14.772428684422954"><ele>17.0</ele><time>2026-04-06T12:47:55.954Z</time></trkpt><trkpt lat="53.43512590825019" lon="14.772568062249679"><ele>17.0</ele><time>2026-04-06T12:47:56.954Z</time></trkpt><trkpt lat="53.435192493256054" lon="14.772714286760115"><ele>17.0</ele><time>2026-04-06T12:47:57.954Z</time></trkpt><trkpt lat="53.435258249399205" lon="14.77286193507577"><ele>17.0</ele><time>2026-04-06T12:47:58.954Z</time></trkpt><trkpt lat="53.43532018902485" lon="14.773026695814261"><ele>17.0</ele><time>2026-04-06T12:47:59.954Z</time></trkpt><trkpt lat="53.43539211677018" lon="14.773197266887642"><ele>16.8</ele><time>2026-04-06T12:48:00.954Z</time></trkpt><trkpt lat="53.4354697400961" lon="14.773376914181396"><ele>16.6</ele><time>2026-04-06T12:48:01.954Z</time></trkpt><trkpt lat="53.435547726212114" lon="14.773514932217752"><ele>16.400000000000002</ele><time>2026-04-06T12:48:02.954Z</time></trkpt><trkpt lat="53.435591589109286" lon="14.773660169135079"><ele>16.2</ele><time>2026-04-06T12:48:03.954Z</time></trkpt><trkpt lat="53.43563035030519" lon="14.773751551785123"><ele>16.0</ele><time>2026-04-06T12:48:04.954Z</time></trkpt><trkpt lat="53.43583715941561" lon="14.773571459346488"><ele>15.8</ele><time>2026-04-06T12:48:09.954Z</time></trkpt><trkpt lat="53.43591035262772" lon="14.773497041765095"><ele>15.600000000000001</ele><time>2026-04-06T12:48:10.954Z</time></trkpt><trkpt lat="53.43598721593794" lon="14.773430575752055"><ele>15.4</ele><time>2026-04-06T12:48:11.954Z</time></trkpt><trkpt lat="53.43607998598655" lon="14.773333797922971"><ele>15.2</ele><time>2026-04-06T12:48:12.954Z</time></trkpt><trkpt lat="53.43618773191343" lon="14.773222100105661"><ele>15.0</ele><time>2026-04-06T12:48:13.954Z</time></trkpt><trkpt lat="53.436286739442" lon="14.773105892574401"><ele>14.8</ele><time>2026-04-06T12:48:14.954Z</time></trkpt><trkpt lat="53.436360614510455" lon="14.77301418363858"><ele>14.6</ele><time>2026-04-06T12:48:15.954Z</time></trkpt><trkpt lat="53.43643456864451" lon="14.772926891815725"><ele>14.399999999999999</ele><time>2026-04-06T12:48:16.954Z</time></trkpt><trkpt lat="53.436497437242465" lon="14.772877427373304"><ele>14.2</ele><time>2026-04-06T12:48:17.954Z</time></trkpt><trkpt lat="53.43659484719943" lon="14.77274568366891"><ele>14.0</ele><time>2026-04-06T12:48:19.954Z</time></trkpt><trkpt lat="53.436667922611434" lon="14.772681161441877"><ele>14.0</ele><time>2026-04-06T12:48:21.954Z</time></trkpt><trkpt lat="53.43680278112996" lon="14.772660326510206"><ele>13.999999999999998</ele><time>2026-04-06T12:48:23.954Z</time></trkpt><trkpt lat="53.436892225635425" lon="14.772648785352253"><ele>13.999999999999998</ele><time>2026-04-06T12:48:24.954Z</time></trkpt><trkpt lat="53.43697035605147" lon="14.772652244243735"><ele>14.0</ele><time>2026-04-06T12:48:25.954Z</time></trkpt><trkpt lat="53.43703755199388" lon="14.772694959726792"><ele>14.0</ele><time>2026-04-06T12:48:26.954Z</time></trkpt><trkpt lat="53.437097033106156" lon="14.772789251384946"><ele>13.666666666666668</ele><time>2026-04-06T12:48:27.954Z</time></trkpt><trkpt lat="53.437139098099124" lon="14.77290223203602"><ele>13.333333333333334</ele><time>2026-04-06T12:48:28.954Z</time></trkpt><trkpt lat="53.43719519457278" lon="14.773017893253611"><ele>13.0</ele><time>2026-04-06T12:48:29.954Z</time></trkpt><trkpt lat="53.43724745788084" lon="14.773136503318824"><ele>12.666666666666668</ele><time>2026-04-06T12:48:30.954Z</time></trkpt><trkpt lat="53.43730693427977" lon="14.773236932663437"><ele>12.333333333333334</ele><time>2026-04-06T12:48:31.954Z</time></trkpt><trkpt lat="53.43736180078297" lon="14.773333114815527"><ele>12.0</ele><time>2026-04-06T12:48:32.954Z</time></trkpt><trkpt lat="53.437409092401474" lon="14.7734095763857"><ele>12.0</ele><time>2026-04-06T12:48:33.954Z</time></trkpt><trkpt lat="53.437435397088514" lon="14.77351100360874"><ele>12.0</ele><time>2026-04-06T12:48:34.954Z</time></trkpt><trkpt lat="53.437486792800435" lon="14.773659793169614"><ele>12.0</ele><time>2026-04-06T12:48:35.954Z</time></trkpt><trkpt lat="53.43752722094801" lon="14.773816713838004"><ele>12.0</ele><time>2026-04-06T12:48:36.954Z</time></trkpt><trkpt lat="53.437568196176585" lon="14.773983673026148"><ele>12.0</ele><time>2026-04-06T12:48:37.954Z</time></trkpt><trkpt lat="53.43760478846412" lon="14.774079439154907"><ele>12.0</ele><time>2026-04-06T12:48:38.954Z</time></trkpt><trkpt lat="53.43765511683414" lon="14.774217137933029"><ele>12.399999999999999</ele><time>2026-04-06T12:48:39.954Z</time></trkpt><trkpt lat="53.43769908992477" lon="14.774327292747124"><ele>12.799999999999999</ele><time>2026-04-06T12:48:40.954Z</time></trkpt><trkpt lat="53.43775717423066" lon="14.774525352841804"><ele>13.2</ele><time>2026-04-06T12:48:42.954Z</time></trkpt><trkpt lat="53.437787098568286" lon="14.774633027465832"><ele>13.6</ele><time>2026-04-06T12:48:43.954Z</time></trkpt><trkpt lat="53.437827825329606" lon="14.774808797710747"><ele>14.0</ele><time>2026-04-06T12:48:45.954Z</time></trkpt><trkpt lat="53.437923674877844" lon="14.774933750743124"><ele>14.000000000000002</ele><time>2026-04-06T12:48:47.954Z</time></trkpt><trkpt lat="53.43799775136503" lon="14.774951912069582"><ele>14.0</ele><time>2026-04-06T12:48:48.954Z</time></trkpt><trkpt lat="53.43807264391579" lon="14.774940387965156"><ele>14.0</ele><time>2026-04-06T12:48:49.954Z</time></trkpt><trkpt lat="53.43813643801449" lon="14.77491171507537"><ele>14.0</ele><time>2026-04-06T12:48:50.954Z</time></trkpt><trkpt lat="53.43822519172767" lon="14.774859989986545"><ele>14.000000000000002</ele><time>2026-04-06T12:48:51.954Z</time></trkpt><trkpt lat="53.438311546180174" lon="14.774804752013088"><ele>14.0</ele><time>2026-04-06T12:48:52.954Z</time></trkpt><trkpt lat="53.43838217146025" lon="14.774742269165092"><ele>14.000000000000002</ele><time>2026-04-06T12:48:53.954Z</time></trkpt><trkpt lat="53.43845831664478" lon="14.774676786231016"><ele>14.0</ele><time>2026-04-06T12:48:54.954Z</time></trkpt><trkpt lat="53.43854634140426" lon="14.774620598485603"><ele>14.0</ele><time>2026-04-06T12:48:55.954Z</time></trkpt><trkpt lat="53.438631080976634" lon="14.774569527555569"><ele>14.0</ele><time>2026-04-06T12:48:56.954Z</time></trkpt><trkpt lat="53.438699127051585" lon="14.774544724863288"><ele>14.000000000000002</ele><time>2026-04-06T12:48:57.954Z</time></trkpt><trkpt lat="53.43877532669903" lon="14.77450092995566"><ele>14.0</ele><time>2026-04-06T12:48:58.954Z</time></trkpt><trkpt lat="53.43890532197445" lon="14.774442178226126"><ele>13.799999999999999</ele><time>2026-04-06T12:49:00.954Z</time></trkpt><trkpt lat="53.43904632600786" lon="14.774369327324418"><ele>13.599999999999998</ele><time>2026-04-06T12:49:02.954Z</time></trkpt><trkpt lat="53.439122250011685" lon="14.774329811152336"><ele>13.4</ele><time>2026-04-06T12:49:03.954Z</time></trkpt><trkpt lat="53.43918569570288" lon="14.774325704048955"><ele>13.2</ele><time>2026-04-06T12:49:04.954Z</time></trkpt><trkpt lat="53.4392974596194" lon="14.774475492348476"><ele>13.0</ele><time>2026-04-06T12:49:06.954Z</time></trkpt><trkpt lat="53.43932989769132" lon="14.774695023391905"><ele>13.75</ele><time>2026-04-06T12:49:08.954Z</time></trkpt><trkpt lat="53.4393459317471" lon="14.774849194941233"><ele>14.5</ele><time>2026-04-06T12:49:09.954Z</time></trkpt><trkpt lat="53.43936058097913" lon="14.775091098685843"><ele>15.25</ele><time>2026-04-06T12:49:10.954Z</time></trkpt><trkpt lat="53.439392683758875" lon="14.775230935891475"><ele>16.0</ele><time>2026-04-06T12:49:11.954Z</time></trkpt><trkpt lat="53.439433751855766" lon="14.775425065159213"><ele>16.2</ele><time>2026-04-06T12:49:12.954Z</time></trkpt><trkpt lat="53.43945904010392" lon="14.775636452772664"><ele>16.400000000000002</ele><time>2026-04-06T12:49:13.954Z</time></trkpt><trkpt lat="53.43947305127816" lon="14.775838541226255"><ele>16.6</ele><time>2026-04-06T12:49:14.954Z</time></trkpt><trkpt lat="53.43948639044201" lon="14.776019933401196"><ele>16.8</ele><time>2026-04-06T12:49:15.954Z</time></trkpt><trkpt lat="53.43950653872859" lon="14.77615996773821"><ele>17.0</ele><time>2026-04-06T12:49:16.954Z</time></trkpt><trkpt lat="53.439510690508016" lon="14.77626916586783"><ele>17.0</ele><time>2026-04-06T12:49:17.954Z</time></trkpt><trkpt lat="53.43958120913564" lon="14.776394581043856"><ele>17.0</ele><time>2026-04-06T12:49:20.954Z</time></trkpt><trkpt lat="53.43965518528637" lon="14.776394688068242"><ele>17.0</ele><time>2026-04-06T12:49:21.954Z</time></trkpt><trkpt lat="53.43973640612623" lon="14.776350697776959"><ele>17.0</ele><time>2026-04-06T12:49:22.954Z</time></trkpt><trkpt lat="53.439862917064815" lon="14.776286891320247"><ele>17.0</ele><time>2026-04-06T12:49:23.954Z</time></trkpt><trkpt lat="53.43996019620965" lon="14.776255154343014"><ele>17.6</ele><time>2026-04-06T12:49:24.952Z</time></trkpt><trkpt lat="53.44003782216013" lon="14.77624305850044"><ele>18.2</ele><time>2026-04-06T12:49:25.952Z</time></trkpt><trkpt lat="53.44013909505333" lon="14.776220349584642"><ele>18.8</ele><time>2026-04-06T12:49:26.952Z</time></trkpt><trkpt lat="53.44025676133194" lon="14.776185216050767"><ele>19.4</ele><time>2026-04-06T12:49:27.952Z</time></trkpt><trkpt lat="53.44037173882929" lon="14.776182244297472"><ele>20.0</ele><time>2026-04-06T12:49:28.953Z</time></trkpt><trkpt lat="53.44047991915881" lon="14.776172640604294"><ele>20.6</ele><time>2026-04-06T12:49:29.953Z</time></trkpt><trkpt lat="53.44059786868321" lon="14.776162878929586"><ele>21.2</ele><time>2026-04-06T12:49:30.952Z</time></trkpt><trkpt lat="53.44070068345428" lon="14.776146004314985"><ele>21.799999999999997</ele><time>2026-04-06T12:49:31.952Z</time></trkpt><trkpt lat="53.440800511438695" lon="14.776103676046707"><ele>22.4</ele><time>2026-04-06T12:49:32.952Z</time></trkpt><trkpt lat="53.44089284767001" lon="14.776064968723876"><ele>23.0</ele><time>2026-04-06T12:49:33.951Z</time></trkpt><trkpt lat="53.440994727063575" lon="14.77601271293156"><ele>23.0</ele><time>2026-04-06T12:49:34.952Z</time></trkpt><trkpt lat="53.441104232811405" lon="14.775939477511185"><ele>23.0</ele><time>2026-04-06T12:49:35.952Z</time></trkpt><trkpt lat="53.4412409557549" lon="14.77588044933535"><ele>23.0</ele><time>2026-04-06T12:49:36.952Z</time></trkpt><trkpt lat="53.441362464764914" lon="14.775846765246541"><ele>23.0</ele><time>2026-04-06T12:49:37.951Z</time></trkpt><trkpt lat="53.44146027769202" lon="14.775810690245303"><ele>23.0</ele><time>2026-04-06T12:49:38.951Z</time></trkpt><trkpt lat="53.44156874480507" lon="14.775782176558023"><ele>23.0</ele><time>2026-04-06T12:49:39.951Z</time></trkpt><trkpt lat="53.4416602282116" lon="14.77574225894532"><ele>23.0</ele><time>2026-04-06T12:49:40.951Z</time></trkpt><trkpt lat="53.44173454637371" lon="14.775732884806496"><ele>23.0</ele><time>2026-04-06T12:49:41.951Z</time></trkpt><trkpt lat="53.44181214658697" lon="14.775720333297466"><ele>23.0</ele><time>2026-04-06T12:49:42.951Z</time></trkpt><trkpt lat="53.44191585155538" lon="14.775690304347483"><ele>23.0</ele><time>2026-04-06T12:49:44.952Z</time></trkpt><trkpt lat="53.441994158942364" lon="14.77570546827509"><ele>23.0</ele><time>2026-04-06T12:49:46.952Z</time></trkpt><trkpt lat="53.442060990053776" lon="14.775712148335842"><ele>23.0</ele><time>2026-04-06T12:49:48.952Z</time></trkpt><trkpt lat="53.4421319738124" lon="14.775688670123152"><ele>23.0</ele><time>2026-04-06T12:49:50.952Z</time></trkpt><trkpt lat="53.44227971347249" lon="14.775647621880111"><ele>23.0</ele><time>2026-04-06T12:49:52.952Z</time></trkpt><trkpt lat="53.44238611402941" lon="14.775625646287354"><ele>22.75</ele><time>2026-04-06T12:49:53.952Z</time></trkpt><trkpt lat="53.44248806478688" lon="14.775584743588142"><ele>22.5</ele><time>2026-04-06T12:49:54.952Z</time></trkpt><trkpt lat="53.44260248600404" lon="14.775537409239638"><ele>22.25</ele><time>2026-04-06T12:49:55.952Z</time></trkpt><trkpt lat="53.442713988939886" lon="14.77547488018303"><ele>22.0</ele><time>2026-04-06T12:49:56.952Z</time></trkpt><trkpt lat="53.44284157354048" lon="14.775406682446672"><ele>22.0</ele><time>2026-04-06T12:49:57.952Z</time></trkpt><trkpt lat="53.44294472126854" lon="14.775343691323636"><ele>22.0</ele><time>2026-04-06T12:49:58.952Z</time></trkpt><trkpt lat="53.44304582540412" lon="14.775293550989785"><ele>22.0</ele><time>2026-04-06T12:49:59.952Z</time></trkpt><trkpt lat="53.443153939903574" lon="14.775254161076942"><ele>22.0</ele><time>2026-04-06T12:50:00.952Z</time></trkpt><trkpt lat="53.443265649962356" lon="14.77522863470525"><ele>22.0</ele><time>2026-04-06T12:50:01.952Z</time></trkpt><trkpt lat="53.443413412413776" lon="14.775199676624528"><ele>21.75</ele><time>2026-04-06T12:50:02.952Z</time></trkpt><trkpt lat="53.443540258642656" lon="14.77517075989634"><ele>21.5</ele><time>2026-04-06T12:50:03.952Z</time></trkpt><trkpt lat="53.443645809165155" lon="14.77517118352157"><ele>21.25</ele><time>2026-04-06T12:50:04.952Z</time></trkpt><trkpt lat="53.44376070306939" lon="14.775189626091588"><ele>21.0</ele><time>2026-04-06T12:50:05.952Z</time></trkpt><trkpt lat="53.44387925244047" lon="14.775168389739992"><ele>21.0</ele><time>2026-04-06T12:50:06.952Z</time></trkpt><trkpt lat="53.443987651015966" lon="14.775146053848307"><ele>21.0</ele><time>2026-04-06T12:50:07.952Z</time></trkpt><trkpt lat="53.444091009149616" lon="14.775139726715963"><ele>21.0</ele><time>2026-04-06T12:50:08.952Z</time></trkpt><trkpt lat="53.444190005498236" lon="14.775125789124777"><ele>21.0</ele><time>2026-04-06T12:50:09.952Z</time></trkpt><trkpt lat="53.444292466370605" lon="14.775093302765631"><ele>21.0</ele><time>2026-04-06T12:50:10.952Z</time></trkpt><trkpt lat="53.44440541829429" lon="14.775058561192495"><ele>21.0</ele><time>2026-04-06T12:50:11.952Z</time></trkpt><trkpt lat="53.44452683986855" lon="14.77505578371578"><ele>21.0</ele><time>2026-04-06T12:50:12.952Z</time></trkpt><trkpt lat="53.44464567061401" lon="14.77505086183294"><ele>21.0</ele><time>2026-04-06T12:50:13.952Z</time></trkpt><trkpt lat="53.4447845967524" lon="14.77505040680135"><ele>21.0</ele><time>2026-04-06T12:50:14.952Z</time></trkpt><trkpt lat="53.44490580440817" lon="14.775072977714034"><ele>21.8</ele><time>2026-04-06T12:50:15.952Z</time></trkpt><trkpt lat="53.445004958716666" lon="14.775096124682182"><ele>22.6</ele><time>2026-04-06T12:50:16.952Z</time></trkpt><trkpt lat="53.44507431544266" lon="14.775120514053128"><ele>23.4</ele><time>2026-04-06T12:50:17.952Z</time></trkpt><trkpt lat="53.44515911453825" lon="14.775147634014248"><ele>24.2</ele><time>2026-04-06T12:50:18.952Z</time></trkpt><trkpt lat="53.44529994669489" lon="14.775174389608459"><ele>25.0</ele><time>2026-04-06T12:50:19.952Z</time></trkpt><trkpt lat="53.44542354608303" lon="14.775204864909918"><ele>25.0</ele><time>2026-04-06T12:50:20.952Z</time></trkpt><trkpt lat="53.445533943737836" lon="14.775222192347298"><ele>25.0</ele><time>2026-04-06T12:50:21.952Z</time></trkpt><trkpt lat="53.445633900763355" lon="14.775233251351898"><ele>25.0</ele><time>2026-04-06T12:50:22.952Z</time></trkpt><trkpt lat="53.445715637955225" lon="14.775236314365387"><ele>25.0</ele><time>2026-04-06T12:50:23.952Z</time></trkpt><trkpt lat="53.44583474863059" lon="14.775221029438972"><ele>25.0</ele><time>2026-04-06T12:50:25.952Z</time></trkpt><trkpt lat="53.44589840935386" lon="14.775229389797458"><ele>25.0</ele><time>2026-04-06T12:50:26.952Z</time></trkpt><trkpt lat="53.446023850642256" lon="14.775243382029212"><ele>25.0</ele><time>2026-04-06T12:50:28.952Z</time></trkpt><trkpt lat="53.44609851884162" lon="14.775258004239335"><ele>25.0</ele><time>2026-04-06T12:50:29.952Z</time></trkpt><trkpt lat="53.44618170170661" lon="14.775240487443376"><ele>25.0</ele><time>2026-04-06T12:50:30.952Z</time></trkpt><trkpt lat="53.446262584587984" lon="14.77518143239931"><ele>25.0</ele><time>2026-04-06T12:50:31.952Z</time></trkpt><trkpt lat="53.44633882807147" lon="14.775147744287379"><ele>24.857142857142858</ele><time>2026-04-06T12:50:32.952Z</time></trkpt><trkpt lat="53.446403987830294" lon="14.775133696933457"><ele>24.714285714285715</ele><time>2026-04-06T12:50:33.952Z</time></trkpt><trkpt lat="53.44647810962333" lon="14.775113184319217"><ele>24.57142857142857</ele><time>2026-04-06T12:50:34.952Z</time></trkpt><trkpt lat="53.44654073297283" lon="14.775094180727217"><ele>24.42857142857143</ele><time>2026-04-06T12:50:35.952Z</time></trkpt><trkpt lat="53.44662422726485" lon="14.775068785372268"><ele>24.285714285714285</ele><time>2026-04-06T12:50:36.952Z</time></trkpt><trkpt lat="53.446694964836986" lon="14.775036350587131"><ele>24.142857142857142</ele><time>2026-04-06T12:50:37.952Z</time></trkpt><trkpt lat="53.44677617756358" lon="14.775009088755885"><ele>24.0</ele><time>2026-04-06T12:50:38.952Z</time></trkpt><trkpt lat="53.44686658172607" lon="14.774979795703848"><ele>24.0</ele><time>2026-04-06T12:50:39.952Z</time></trkpt><trkpt lat="53.44695475014832" lon="14.774948918491635"><ele>24.0</ele><time>2026-04-06T12:50:40.952Z</time></trkpt><trkpt lat="53.447034663723976" lon="14.774932235675484"><ele>24.0</ele><time>2026-04-06T12:50:41.952Z</time></trkpt><trkpt lat="53.447101665518765" lon="14.774898549391692"><ele>24.0</ele><time>2026-04-06T12:50:42.952Z</time></trkpt><trkpt lat="53.447171054230026" lon="14.774868077667376"><ele>24.0</ele><time>2026-04-06T12:50:43.952Z</time></trkpt><trkpt lat="53.44730885645477" lon="14.774836298168548"><ele>23.799999999999997</ele><time>2026-04-06T12:50:45.952Z</time></trkpt><trkpt lat="53.447388079008604" lon="14.774804042166023"><ele>23.599999999999998</ele><time>2026-04-06T12:50:46.952Z</time></trkpt><trkpt lat="53.44748709162216" lon="14.774751937348762"><ele>23.4</ele><time>2026-04-06T12:50:47.952Z</time></trkpt><trkpt lat="53.44757690297781" lon="14.774715509511696"><ele>23.2</ele><time>2026-04-06T12:50:48.952Z</time></trkpt><trkpt lat="53.44766034622238" lon="14.774700812660798"><ele>23.0</ele><time>2026-04-06T12:50:49.952Z</time></trkpt><trkpt lat="53.447750344992265" lon="14.774665056856065"><ele>23.0</ele><time>2026-04-06T12:50:50.952Z</time></trkpt><trkpt lat="53.4478468169401" lon="14.77462663781983"><ele>23.0</ele><time>2026-04-06T12:50:51.952Z</time></trkpt><trkpt lat="53.44797355390245" lon="14.774581626526956"><ele>23.0</ele><time>2026-04-06T12:50:52.952Z</time></trkpt><trkpt lat="53.44808551765586" lon="14.774540803699471"><ele>23.0</ele><time>2026-04-06T12:50:53.952Z</time></trkpt><trkpt lat="53.44818714431056" lon="14.77450016039144"><ele>23.0</ele><time>2026-04-06T12:50:54.952Z</time></trkpt><trkpt lat="53.44828096634462" lon="14.774456948554661"><ele>22.799999999999997</ele><time>2026-04-06T12:50:55.952Z</time></trkpt><trkpt lat="53.4483665360842" lon="14.774436034074844"><ele>22.6</ele><time>2026-04-06T12:50:56.952Z</time></trkpt><trkpt lat="53.4484616246292" lon="14.774462295771494"><ele>22.4</ele><time>2026-04-06T12:50:58.952Z</time></trkpt><trkpt lat="53.44851107184069" lon="14.774550050995717"><ele>22.200000000000003</ele><time>2026-04-06T12:50:59.952Z</time></trkpt><trkpt lat="53.44859464409197" lon="14.77473527023741"><ele>22.0</ele><time>2026-04-06T12:51:01.952Z</time></trkpt><trkpt lat="53.44865227534795" lon="14.774837095102265"><ele>22.0</ele><time>2026-04-06T12:51:02.952Z</time></trkpt><trkpt lat="53.44871571112476" lon="14.774937735478659"><ele>22.0</ele><time>2026-04-06T12:51:03.952Z</time></trkpt><trkpt lat="53.448777957384415" lon="14.775038191986265"><ele>22.0</ele><time>2026-04-06T12:51:04.952Z</time></trkpt><trkpt lat="53.44884172876054" lon="14.775129708481677"><ele>22.0</ele><time>2026-04-06T12:51:05.952Z</time></trkpt><trkpt lat="53.44890992778108" lon="14.775228346250817"><ele>22.0</ele><time>2026-04-06T12:51:06.952Z</time></trkpt><trkpt lat="53.44897051320173" lon="14.775310668250647"><ele>22.0</ele><time>2026-04-06T12:51:07.952Z</time></trkpt><trkpt lat="53.44904752056788" lon="14.775400583457962"><ele>21.8</ele><time>2026-04-06T12:51:08.952Z</time></trkpt><trkpt lat="53.44911931908725" lon="14.775513158292929"><ele>21.6</ele><time>2026-04-06T12:51:09.952Z</time></trkpt><trkpt lat="53.44917920843853" lon="14.775599900074415"><ele>21.400000000000002</ele><time>2026-04-06T12:51:10.952Z</time></trkpt><trkpt lat="53.44924785415369" lon="14.775722340376193"><ele>21.200000000000003</ele><time>2026-04-06T12:51:11.952Z</time></trkpt><trkpt lat="53.449320168524466" lon="14.775826537107466"><ele>21.0</ele><time>2026-04-06T12:51:12.952Z</time></trkpt><trkpt lat="53.44937923880785" lon="14.77592418120023"><ele>21.0</ele><time>2026-04-06T12:51:13.952Z</time></trkpt><trkpt lat="53.449447877359546" lon="14.776014997740813"><ele>21.0</ele><time>2026-04-06T12:51:14.952Z</time></trkpt><trkpt lat="53.44950193364581" lon="14.776131921303705"><ele>21.0</ele><time>2026-04-06T12:51:15.952Z</time></trkpt><trkpt lat="53.449570566560425" lon="14.77625151771803"><ele>21.0</ele><time>2026-04-06T12:51:16.952Z</time></trkpt><trkpt lat="53.44964630528726" lon="14.776374731462086"><ele>21.0</ele><time>2026-04-06T12:51:17.952Z</time></trkpt><trkpt lat="53.449728359070335" lon="14.776506872441958"><ele>20.6</ele><time>2026-04-06T12:51:18.952Z</time></trkpt><trkpt lat="53.44981222147449" lon="14.776627349298739"><ele>20.200000000000003</ele><time>2026-04-06T12:51:19.952Z</time></trkpt><trkpt lat="53.44988582034677" lon="14.776751586175132"><ele>19.799999999999997</ele><time>2026-04-06T12:51:20.952Z</time></trkpt><trkpt lat="53.44997884952215" lon="14.776869619237084"><ele>19.4</ele><time>2026-04-06T12:51:21.952Z</time></trkpt><trkpt lat="53.450062025483454" lon="14.777007329355362"><ele>19.0</ele><time>2026-04-06T12:51:22.952Z</time></trkpt><trkpt lat="53.45014162780993" lon="14.777141371009607"><ele>18.8</ele><time>2026-04-06T12:51:23.952Z</time></trkpt><trkpt lat="53.450224268279435" lon="14.7772680561716"><ele>18.599999999999998</ele><time>2026-04-06T12:51:24.952Z</time></trkpt><trkpt lat="53.45029658216303" lon="14.777383975129993"><ele>18.4</ele><time>2026-04-06T12:51:25.952Z</time></trkpt><trkpt lat="53.45035535862775" lon="14.777470641300491"><ele>18.2</ele><time>2026-04-06T12:51:26.952Z</time></trkpt><trkpt lat="53.45041720259475" lon="14.777561480485412"><ele>18.0</ele><time>2026-04-06T12:51:27.952Z</time></trkpt><trkpt lat="53.45047918420138" lon="14.777639310885636"><ele>18.714285714285715</ele><time>2026-04-06T12:51:28.952Z</time></trkpt><trkpt lat="53.45054239393379" lon="14.77771859858229"><ele>19.42857142857143</ele><time>2026-04-06T12:51:30.95Z</time></trkpt><trkpt lat="53.450596191482276" lon="14.777797985536086"><ele>20.142857142857146</ele><time>2026-04-06T12:51:32.95Z</time></trkpt><trkpt lat="53.45063911499704" lon="14.777888870236135"><ele>20.857142857142858</ele><time>2026-04-06T12:51:33.95Z</time></trkpt><trkpt lat="53.45069422079679" lon="14.777972442747842"><ele>21.57142857142857</ele><time>2026-04-06T12:51:34.95Z</time></trkpt><trkpt lat="53.45075098902239" lon="14.778064098448558"><ele>22.28571428571429</ele><time>2026-04-06T12:51:35.95Z</time></trkpt><trkpt lat="53.45080726359851" lon="14.778148306616837"><ele>23.0</ele><time>2026-04-06T12:51:36.949Z</time></trkpt><trkpt lat="53.45089162530519" lon="14.778274068517781"><ele>23.0</ele><time>2026-04-06T12:51:37.95Z</time></trkpt><trkpt lat="53.45095041636567" lon="14.778380587527353"><ele>23.0</ele><time>2026-04-06T12:51:38.95Z</time></trkpt><trkpt lat="53.45103773828905" lon="14.77850845259208"><ele>23.0</ele><time>2026-04-06T12:51:39.95Z</time></trkpt><trkpt lat="53.45109988940788" lon="14.778609419009287"><ele>23.0</ele><time>2026-04-06T12:51:40.95Z</time></trkpt><trkpt lat="53.45122618341819" lon="14.778777755379894"><ele>22.25</ele><time>2026-04-06T12:51:42.949Z</time></trkpt><trkpt lat="53.451300806687826" lon="14.778911700033419"><ele>21.5</ele><time>2026-04-06T12:51:43.949Z</time></trkpt><trkpt lat="53.45140246947573" lon="14.779034053290115"><ele>20.75</ele><time>2026-04-06T12:51:44.949Z</time></trkpt><trkpt lat="53.45149194237753" lon="14.779160423989808"><ele>20.0</ele><time>2026-04-06T12:51:45.949Z</time></trkpt><trkpt lat="53.45158055202372" lon="14.77926042533281"><ele>21.25</ele><time>2026-04-06T12:51:46.949Z</time></trkpt><trkpt lat="53.451678917388016" lon="14.779478212660175"><ele>22.5</ele><time>2026-04-06T12:51:48.949Z</time></trkpt><trkpt lat="53.45176510820743" lon="14.779583416476013"><ele>23.75</ele><time>2026-04-06T12:51:49.949Z</time></trkpt><trkpt lat="53.451842615288086" lon="14.779713899021486"><ele>25.0</ele><time>2026-04-06T12:51:50.949Z</time></trkpt><trkpt lat="53.451909213398274" lon="14.779810488792918"><ele>25.0</ele><time>2026-04-06T12:51:51.949Z</time></trkpt><trkpt lat="53.451992285801644" lon="14.779857865720354"><ele>25.0</ele><time>2026-04-06T12:51:52.949Z</time></trkpt><trkpt lat="53.45206653506099" lon="14.77993727363668"><ele>25.0</ele><time>2026-04-06T12:51:53.949Z</time></trkpt><trkpt lat="53.45216694153769" lon="14.780031136158565"><ele>25.0</ele><time>2026-04-06T12:51:54.949Z</time></trkpt><trkpt lat="53.45226715017659" lon="14.780137289514373"><ele>25.0</ele><time>2026-04-06T12:51:55.949Z</time></trkpt><trkpt lat="53.45235871453664" lon="14.780257634115328"><ele>24.75</ele><time>2026-04-06T12:51:56.949Z</time></trkpt><trkpt lat="53.45246961071416" lon="14.78035544763373"><ele>24.5</ele><time>2026-04-06T12:51:57.949Z</time></trkpt><trkpt lat="53.4525621478591" lon="14.780449018238885"><ele>24.25</ele><time>2026-04-06T12:51:58.949Z</time></trkpt><trkpt lat="53.452667158012666" lon="14.780543516614298"><ele>24.0</ele><time>2026-04-06T12:51:59.949Z</time></trkpt><trkpt lat="53.45277078524041" lon="14.78064222960727"><ele>24.0</ele><time>2026-04-06T12:52:00.949Z</time></trkpt><trkpt lat="53.45289378059797" lon="14.780747777966686"><ele>24.0</ele><time>2026-04-06T12:52:01.949Z</time></trkpt><trkpt lat="53.453016266718556" lon="14.780854694075263"><ele>24.0</ele><time>2026-04-06T12:52:02.949Z</time></trkpt><trkpt lat="53.45310419435273" lon="14.780962884084964"><ele>24.0</ele><time>2026-04-06T12:52:03.949Z</time></trkpt><trkpt lat="53.45322065407894" lon="14.781052587170064"><ele>23.6</ele><time>2026-04-06T12:52:04.949Z</time></trkpt><trkpt lat="53.45331815300494" lon="14.781145137117889"><ele>23.2</ele><time>2026-04-06T12:52:05.949Z</time></trkpt><trkpt lat="53.45340499929414" lon="14.781235726913776"><ele>22.8</ele><time>2026-04-06T12:52:06.949Z</time></trkpt><trkpt lat="53.45350088267596" lon="14.78134238137167"><ele>22.400000000000002</ele><time>2026-04-06T12:52:07.949Z</time></trkpt><trkpt lat="53.453593765889565" lon="14.781446000131282"><ele>22.0</ele><time>2026-04-06T12:52:08.949Z</time></trkpt><trkpt lat="53.45366936765201" lon="14.781529341088218"><ele>22.0</ele><time>2026-04-06T12:52:09.949Z</time></trkpt><trkpt lat="53.45374486409927" lon="14.781601359093278"><ele>22.0</ele><time>2026-04-06T12:52:10.949Z</time></trkpt><trkpt lat="53.45380324261392" lon="14.781682527337031"><ele>22.0</ele><time>2026-04-06T12:52:11.949Z</time></trkpt><trkpt lat="53.4538688337474" lon="14.781695387499955"><ele>22.0</ele><time>2026-04-06T12:52:12.949Z</time></trkpt><trkpt lat="53.453930978733325" lon="14.781748103291347"><ele>22.0</ele><time>2026-04-06T12:52:13.949Z</time></trkpt><trkpt lat="53.454011037668685" lon="14.781820275752215"><ele>22.0</ele><time>2026-04-06T12:52:14.949Z</time></trkpt><trkpt lat="53.45408445984962" lon="14.781888247352212"><ele>22.200000000000003</ele><time>2026-04-06T12:52:15.949Z</time></trkpt><trkpt lat="53.45418343722568" lon="14.781950364981448"><ele>22.4</ele><time>2026-04-06T12:52:16.949Z</time></trkpt><trkpt lat="53.45428509185428" lon="14.78202577795227"><ele>22.6</ele><time>2026-04-06T12:52:17.949Z</time></trkpt><trkpt lat="53.454360037385094" lon="14.782086148960461"><ele>22.799999999999997</ele><time>2026-04-06T12:52:18.949Z</time></trkpt><trkpt lat="53.454431412410806" lon="14.782126910639375"><ele>23.0</ele><time>2026-04-06T12:52:19.949Z</time></trkpt><trkpt lat="53.45453938104155" lon="14.782176693259704"><ele>22.0</ele><time>2026-04-06T12:52:20.949Z</time></trkpt><trkpt lat="53.45465878495338" lon="14.782251231526832"><ele>21.0</ele><time>2026-04-06T12:52:21.949Z</time></trkpt><trkpt lat="53.4547786783558" lon="14.782313402196545"><ele>20.0</ele><time>2026-04-06T12:52:22.949Z</time></trkpt><trkpt lat="53.45489940518543" lon="14.782376540452"><ele>19.0</ele><time>2026-04-06T12:52:23.949Z</time></trkpt><trkpt lat="53.4549923350054" lon="14.782418958171938"><ele>19.0</ele><time>2026-04-06T12:52:24.949Z</time></trkpt><trkpt lat="53.455100586304816" lon="14.782495535445797"><ele>19.0</ele><time>2026-04-06T12:52:25.949Z</time></trkpt><trkpt lat="53.45522469794151" lon="14.782526758644016"><ele>19.0</ele><time>2026-04-06T12:52:26.949Z</time></trkpt><trkpt lat="53.455317711150556" lon="14.782596093021864"><ele>19.0</ele><time>2026-04-06T12:52:27.949Z</time></trkpt><trkpt lat="53.45542392850687" lon="14.782616665061939"><ele>18.599999999999998</ele><time>2026-04-06T12:52:28.949Z</time></trkpt><trkpt lat="53.45550850983931" lon="14.782663384325481"><ele>18.2</ele><time>2026-04-06T12:52:29.949Z</time></trkpt><trkpt lat="53.45559652730832" lon="14.782694341850569"><ele>17.799999999999997</ele><time>2026-04-06T12:52:30.949Z</time></trkpt><trkpt lat="53.455698360394756" lon="14.782671604868721"><ele>17.4</ele><time>2026-04-06T12:52:31.949Z</time></trkpt><trkpt lat="53.45579084818772" lon="14.78271617804537"><ele>17.0</ele><time>2026-04-06T12:52:32.949Z</time></trkpt><trkpt lat="53.45591021415264" lon="14.782727308496773"><ele>17.0</ele><time>2026-04-06T12:52:33.949Z</time></trkpt><trkpt lat="53.45603856844458" lon="14.782745039988079"><ele>17.0</ele><time>2026-04-06T12:52:34.949Z</time></trkpt><trkpt lat="53.45614799592957" lon="14.782795228007542"><ele>17.0</ele><time>2026-04-06T12:52:35.949Z</time></trkpt><trkpt lat="53.45624136505567" lon="14.782833040170061"><ele>17.0</ele><time>2026-04-06T12:52:36.949Z</time></trkpt><trkpt lat="53.45634281201406" lon="14.782860139071008"><ele>17.0</ele><time>2026-04-06T12:52:37.949Z</time></trkpt><trkpt lat="53.45644063636327" lon="14.782897349579095"><ele>16.0</ele><time>2026-04-06T12:52:38.949Z</time></trkpt><trkpt lat="53.456539165814455" lon="14.782923177433867"><ele>15.0</ele><time>2026-04-06T12:52:39.949Z</time></trkpt><trkpt lat="53.45660817260561" lon="14.782949680020339"><ele>14.0</ele><time>2026-04-06T12:52:40.949Z</time></trkpt><trkpt lat="53.456679326204664" lon="14.782946681296572"><ele>13.0</ele><time>2026-04-06T12:52:41.949Z</time></trkpt><trkpt lat="53.45677115946697" lon="14.78292745758641"><ele>12.0</ele><time>2026-04-06T12:52:42.949Z</time></trkpt><trkpt lat="53.456846634137094" lon="14.782950682510844"><ele>11.0</ele><time>2026-04-06T12:52:43.949Z</time></trkpt><trkpt lat="53.45693721666142" lon="14.783001064037116"><ele>11.0</ele><time>2026-04-06T12:52:44.95Z</time></trkpt><trkpt lat="53.4570478696535" lon="14.783036438170386"><ele>11.0</ele><time>2026-04-06T12:52:45.95Z</time></trkpt><trkpt lat="53.45715900785865" lon="14.783071868224775"><ele>11.0</ele><time>2026-04-06T12:52:46.95Z</time></trkpt><trkpt lat="53.457244527892996" lon="14.78311172524452"><ele>11.0</ele><time>2026-04-06T12:52:47.95Z</time></trkpt><trkpt lat="53.45733342682928" lon="14.78315704253173"><ele>11.0</ele><time>2026-04-06T12:52:48.95Z</time></trkpt><trkpt lat="53.457424026938405" lon="14.783180432587832"><ele>10.8</ele><time>2026-04-06T12:52:49.95Z</time></trkpt><trkpt lat="53.457509183244596" lon="14.783270721330945"><ele>10.600000000000001</ele><time>2026-04-06T12:52:50.95Z</time></trkpt><trkpt lat="53.45759155489367" lon="14.783301617885186"><ele>10.4</ele><time>2026-04-06T12:52:51.95Z</time></trkpt><trkpt lat="53.45769118095159" lon="14.783317268703907"><ele>10.2</ele><time>2026-04-06T12:52:52.95Z</time></trkpt><trkpt lat="53.457778540801336" lon="14.783356709931992"><ele>10.0</ele><time>2026-04-06T12:52:53.95Z</time></trkpt><trkpt lat="53.45788940349509" lon="14.783390640691204"><ele>10.0</ele><time>2026-04-06T12:52:54.95Z</time></trkpt><trkpt lat="53.45799045902674" lon="14.783427481296837"><ele>10.0</ele><time>2026-04-06T12:52:55.95Z</time></trkpt><trkpt lat="53.458086124111745" lon="14.783464149467315"><ele>10.0</ele><time>2026-04-06T12:52:56.95Z</time></trkpt><trkpt lat="53.45817459436736" lon="14.78349463850561"><ele>10.0</ele><time>2026-04-06T12:52:57.95Z</time></trkpt><trkpt lat="53.45827053718119" lon="14.783529574646543"><ele>10.0</ele><time>2026-04-06T12:52:58.95Z</time></trkpt><trkpt lat="53.45837945557466" lon="14.78356786034922"><ele>10.0</ele><time>2026-04-06T12:52:59.95Z</time></trkpt><trkpt lat="53.45848214812026" lon="14.783604384075804"><ele>10.0</ele><time>2026-04-06T12:53:00.95Z</time></trkpt><trkpt lat="53.458571187593634" lon="14.783637435423481"><ele>10.0</ele><time>2026-04-06T12:53:01.95Z</time></trkpt><trkpt lat="53.45867797973251" lon="14.783676197979908"><ele>10.0</ele><time>2026-04-06T12:53:02.95Z</time></trkpt><trkpt lat="53.458771189552856" lon="14.78371561331406"><ele>10.0</ele><time>2026-04-06T12:53:03.95Z</time></trkpt><trkpt lat="53.45886731173008" lon="14.783749175757585"><ele>10.0</ele><time>2026-04-06T12:53:04.95Z</time></trkpt><trkpt lat="53.45894826702082" lon="14.783790651223585"><ele>10.0</ele><time>2026-04-06T12:53:05.95Z</time></trkpt><trkpt lat="53.45903188552555" lon="14.783826584510715"><ele>10.0</ele><time>2026-04-06T12:53:06.95Z</time></trkpt><trkpt lat="53.459116447105565" lon="14.783823640070153"><ele>10.0</ele><time>2026-04-06T12:53:07.95Z</time></trkpt><trkpt lat="53.45921513515717" lon="14.783854717630405"><ele>10.0</ele><time>2026-04-06T12:53:08.95Z</time></trkpt><trkpt lat="53.459319461544425" lon="14.783871554792064"><ele>10.0</ele><time>2026-04-06T12:53:09.95Z</time></trkpt><trkpt lat="53.45939716589253" lon="14.78388648476559"><ele>10.0</ele><time>2026-04-06T12:53:10.95Z</time></trkpt><trkpt lat="53.45946439619862" lon="14.783899904442052"><ele>10.0</ele><time>2026-04-06T12:53:11.95Z</time></trkpt><trkpt lat="53.45953923920456" lon="14.783938769855249"><ele>10.0</ele><time>2026-04-06T12:53:12.95Z</time></trkpt><trkpt lat="53.45962449026141" lon="14.783962721732342"><ele>10.0</ele><time>2026-04-06T12:53:13.95Z</time></trkpt><trkpt lat="53.45974409282076" lon="14.784020341939236"><ele>10.0</ele><time>2026-04-06T12:53:15.95Z</time></trkpt><trkpt lat="53.459809804282884" lon="14.784086608144088"><ele>10.0</ele><time>2026-04-06T12:53:16.95Z</time></trkpt><trkpt lat="53.45995446879992" lon="14.784067316718923"><ele>10.0</ele><time>2026-04-06T12:53:18.95Z</time></trkpt><trkpt lat="53.46003309150722" lon="14.784088748130783"><ele>10.0</ele><time>2026-04-06T12:53:19.95Z</time></trkpt><trkpt lat="53.46013099811693" lon="14.784119246033594"><ele>10.0</ele><time>2026-04-06T12:53:20.95Z</time></trkpt><trkpt lat="53.46022701764965" lon="14.784143982617804"><ele>10.0</ele><time>2026-04-06T12:53:21.95Z</time></trkpt><trkpt lat="53.46032672079752" lon="14.784169668116451"><ele>10.0</ele><time>2026-04-06T12:53:22.95Z</time></trkpt><trkpt lat="53.46039634502868" lon="14.784178685622571"><ele>10.0</ele><time>2026-04-06T12:53:23.95Z</time></trkpt><trkpt lat="53.46047930729746" lon="14.78421094597156"><ele>10.0</ele><time>2026-04-06T12:53:24.95Z</time></trkpt><trkpt lat="53.46057243712461" lon="14.784236345046605"><ele>10.0</ele><time>2026-04-06T12:53:25.95Z</time></trkpt><trkpt lat="53.46065559501703" lon="14.784232816614185"><ele>10.0</ele><time>2026-04-06T12:53:26.95Z</time></trkpt><trkpt lat="53.460738098404164" lon="14.784270686405904"><ele>10.0</ele><time>2026-04-06T12:53:27.95Z</time></trkpt><trkpt lat="53.46082584320638" lon="14.784289907017197"><ele>10.0</ele><time>2026-04-06T12:53:28.95Z</time></trkpt><trkpt lat="53.46092824966737" lon="14.784309846222959"><ele>10.0</ele><time>2026-04-06T12:53:29.95Z</time></trkpt><trkpt lat="53.461019566690084" lon="14.78433824657772"><ele>10.0</ele><time>2026-04-06T12:53:30.95Z</time></trkpt><trkpt lat="53.461129622396456" lon="14.784368077941611"><ele>10.0</ele><time>2026-04-06T12:53:31.95Z</time></trkpt><trkpt lat="53.46120837312599" lon="14.784410147117246"><ele>10.0</ele><time>2026-04-06T12:53:32.95Z</time></trkpt><trkpt lat="53.46129248828507" lon="14.784438866658089"><ele>9.833333333333334</ele><time>2026-04-06T12:53:33.95Z</time></trkpt><trkpt lat="53.46136499251733" lon="14.78445262214314"><ele>9.666666666666668</ele><time>2026-04-06T12:53:34.95Z</time></trkpt><trkpt lat="53.46149575647716" lon="14.78448738309805"><ele>9.5</ele><time>2026-04-06T12:53:36.948Z</time></trkpt><trkpt lat="53.46156517043496" lon="14.784526515606798"><ele>9.333333333333334</ele><time>2026-04-06T12:53:37.948Z</time></trkpt><trkpt lat="53.461646860441334" lon="14.784568292186233"><ele>9.166666666666666</ele><time>2026-04-06T12:53:39.948Z</time></trkpt><trkpt lat="53.46172139942779" lon="14.784512169725982"><ele>9.0</ele><time>2026-04-06T12:53:44.947Z</time></trkpt><trkpt lat="53.46174374308576" lon="14.784240175715007"><ele>9.0</ele><time>2026-04-06T12:53:46.948Z</time></trkpt><trkpt lat="53.46174894794578" lon="14.784105319837078"><ele>9.0</ele><time>2026-04-06T12:53:47.948Z</time></trkpt><trkpt lat="53.46175196110748" lon="14.783952562014438"><ele>9.0</ele><time>2026-04-06T12:53:48.948Z</time></trkpt><trkpt lat="53.46175578825743" lon="14.78380020802961"><ele>9.0</ele><time>2026-04-06T12:53:49.947Z</time></trkpt><trkpt lat="53.46176016407356" lon="14.783632666521212"><ele>9.0</ele><time>2026-04-06T12:53:50.947Z</time></trkpt><trkpt lat="53.46176196957953" lon="14.783469396254896"><ele>9.2</ele><time>2026-04-06T12:53:51.947Z</time></trkpt><trkpt lat="53.46176742180823" lon="14.783298924771495"><ele>9.4</ele><time>2026-04-06T12:53:52.947Z</time></trkpt><trkpt lat="53.4617738170104" lon="14.783146840167008"><ele>9.6</ele><time>2026-04-06T12:53:53.947Z</time></trkpt><trkpt lat="53.461780420889866" lon="14.78300247588559"><ele>9.8</ele><time>2026-04-06T12:53:54.947Z</time></trkpt><trkpt lat="53.46178937109295" lon="14.782858604937726"><ele>10.0</ele><time>2026-04-06T12:53:55.947Z</time></trkpt><trkpt lat="53.46179486078649" lon="14.782710790127796"><ele>10.0</ele><time>2026-04-06T12:53:56.947Z</time></trkpt><trkpt lat="53.46181630434764" lon="14.782560997649053"><ele>10.0</ele><time>2026-04-06T12:53:57.947Z</time></trkpt><trkpt lat="53.46181761207169" lon="14.782417748113634"><ele>10.0</ele><time>2026-04-06T12:53:58.947Z</time></trkpt><trkpt lat="53.46182697697214" lon="14.782261249497076"><ele>10.0</ele><time>2026-04-06T12:53:59.947Z</time></trkpt><trkpt lat="53.461834154091676" lon="14.782108881918672"><ele>10.0</ele><time>2026-04-06T12:54:00.947Z</time></trkpt><trkpt lat="53.46184207629869" lon="14.781957238729877"><ele>10.2</ele><time>2026-04-06T12:54:01.947Z</time></trkpt><trkpt lat="53.46184442125682" lon="14.781810526397573"><ele>10.4</ele><time>2026-04-06T12:54:02.947Z</time></trkpt><trkpt lat="53.4618495097843" lon="14.781653023681274"><ele>10.600000000000001</ele><time>2026-04-06T12:54:03.947Z</time></trkpt><trkpt lat="53.46185774003367" lon="14.781494250783773"><ele>10.8</ele><time>2026-04-06T12:54:04.947Z</time></trkpt><trkpt lat="53.461864964346546" lon="14.781331074475103"><ele>11.0</ele><time>2026-04-06T12:54:05.947Z</time></trkpt><trkpt lat="53.46186757261234" lon="14.781164308349064"><ele>10.600000000000001</ele><time>2026-04-06T12:54:06.947Z</time></trkpt><trkpt lat="53.461865457257595" lon="14.781000115085423"><ele>10.200000000000001</ele><time>2026-04-06T12:54:07.947Z</time></trkpt><trkpt lat="53.461887623913384" lon="14.780849411104361"><ele>9.8</ele><time>2026-04-06T12:54:08.947Z</time></trkpt><trkpt lat="53.461893804370426" lon="14.780698119126647"><ele>9.4</ele><time>2026-04-06T12:54:09.947Z</time></trkpt><trkpt lat="53.4619001288167" lon="14.780543302479247"><ele>9.0</ele><time>2026-04-06T12:54:10.947Z</time></trkpt><trkpt lat="53.46189124290163" lon="14.780387487441955"><ele>9.0</ele><time>2026-04-06T12:54:11.947Z</time></trkpt><trkpt lat="53.46191251921757" lon="14.780238583522074"><ele>9.0</ele><time>2026-04-06T12:54:12.947Z</time></trkpt><trkpt lat="53.4619043374787" lon="14.780073907901922"><ele>9.0</ele><time>2026-04-06T12:54:13.947Z</time></trkpt><trkpt lat="53.461928947649405" lon="14.779900708473916"><ele>9.0</ele><time>2026-04-06T12:54:14.947Z</time></trkpt><trkpt lat="53.46193770273326" lon="14.77971928975187"><ele>9.0</ele><time>2026-04-06T12:54:15.947Z</time></trkpt><trkpt lat="53.46194698347184" lon="14.779526978173834"><ele>8.75</ele><time>2026-04-06T12:54:16.947Z</time></trkpt><trkpt lat="53.46195674726397" lon="14.779324652735342"><ele>8.5</ele><time>2026-04-06T12:54:17.947Z</time></trkpt><trkpt lat="53.46196722155848" lon="14.779121172588527"><ele>8.25</ele><time>2026-04-06T12:54:18.947Z</time></trkpt><trkpt lat="53.46197682248034" lon="14.778926879794115"><ele>8.0</ele><time>2026-04-06T12:54:19.947Z</time></trkpt><trkpt lat="53.4619848299368" lon="14.778748212159226"><ele>8.0</ele><time>2026-04-06T12:54:20.947Z</time></trkpt><trkpt lat="53.46199264622868" lon="14.77857285772763"><ele>8.0</ele><time>2026-04-06T12:54:21.947Z</time></trkpt><trkpt lat="53.462000149449665" lon="14.778404517230097"><ele>8.0</ele><time>2026-04-06T12:54:22.947Z</time></trkpt><trkpt lat="53.46200761995177" lon="14.778238944945112"><ele>8.0</ele><time>2026-04-06T12:54:23.947Z</time></trkpt><trkpt lat="53.462014928659144" lon="14.77807606487661"><ele>8.0</ele><time>2026-04-06T12:54:24.947Z</time></trkpt><trkpt lat="53.462022135691655" lon="14.7779154510416"><ele>8.0</ele><time>2026-04-06T12:54:25.947Z</time></trkpt><trkpt lat="53.46202978553614" lon="14.777744968741041"><ele>8.0</ele><time>2026-04-06T12:54:26.947Z</time></trkpt><trkpt lat="53.46203769070642" lon="14.777568796384816"><ele>8.0</ele><time>2026-04-06T12:54:27.947Z</time></trkpt><trkpt lat="53.46204710857525" lon="14.777379902309157"><ele>8.0</ele><time>2026-04-06T12:54:28.947Z</time></trkpt><trkpt lat="53.462056511988344" lon="14.777188414483328"><ele>8.0</ele><time>2026-04-06T12:54:29.947Z</time></trkpt><trkpt lat="53.46206601390245" lon="14.77700249725853"><ele>7.800000000000001</ele><time>2026-04-06T12:54:30.947Z</time></trkpt><trkpt lat="53.462075538545555" lon="14.77681613498979"><ele>7.6000000000000005</ele><time>2026-04-06T12:54:31.947Z</time></trkpt><trkpt lat="53.46208474291443" lon="14.776635635934515"><ele>7.3999999999999995</ele><time>2026-04-06T12:54:32.947Z</time></trkpt><trkpt lat="53.462077671476585" lon="14.776451812682593"><ele>7.199999999999999</ele><time>2026-04-06T12:54:33.947Z</time></trkpt><trkpt lat="53.4620958821968" lon="14.776273136292136"><ele>7.0</ele><time>2026-04-06T12:54:34.947Z</time></trkpt><trkpt lat="53.462106430959395" lon="14.776093381424989"><ele>7.0</ele><time>2026-04-06T12:54:35.947Z</time></trkpt><trkpt lat="53.462113770097424" lon="14.775915435723398"><ele>6.999999999999999</ele><time>2026-04-06T12:54:36.947Z</time></trkpt><trkpt lat="53.46212149672189" lon="14.775740107821415"><ele>6.999999999999999</ele><time>2026-04-06T12:54:37.947Z</time></trkpt><trkpt lat="53.46212795660428" lon="14.77556308784079"><ele>7.0</ele><time>2026-04-06T12:54:38.947Z</time></trkpt><trkpt lat="53.4621333755804" lon="14.775389146254065"><ele>7.0</ele><time>2026-04-06T12:54:39.947Z</time></trkpt><trkpt lat="53.46215771926241" lon="14.775218467844757"><ele>7.199999999999999</ele><time>2026-04-06T12:54:40.947Z</time></trkpt><trkpt lat="53.462150042567416" lon="14.775061338008436"><ele>7.3999999999999995</ele><time>2026-04-06T12:54:41.947Z</time></trkpt><trkpt lat="53.4621592200541" lon="14.774914070659257"><ele>7.6000000000000005</ele><time>2026-04-06T12:54:42.947Z</time></trkpt><trkpt lat="53.462164051633295" lon="14.774772028696738"><ele>7.800000000000001</ele><time>2026-04-06T12:54:43.947Z</time></trkpt><trkpt lat="53.4621661199986" lon="14.774613985389585"><ele>8.0</ele><time>2026-04-06T12:54:44.947Z</time></trkpt><trkpt lat="53.462177558206186" lon="14.774437750282523"><ele>8.0</ele><time>2026-04-06T12:54:45.947Z</time></trkpt><trkpt lat="53.46218536461635" lon="14.774258074985356"><ele>8.0</ele><time>2026-04-06T12:54:46.947Z</time></trkpt><trkpt lat="53.46219880760406" lon="14.774083524361451"><ele>8.0</ele><time>2026-04-06T12:54:47.947Z</time></trkpt><trkpt lat="53.46221437588852" lon="14.773934984343652"><ele>8.0</ele><time>2026-04-06T12:54:48.948Z</time></trkpt><trkpt lat="53.46222802179563" lon="14.773806092034087"><ele>8.0</ele><time>2026-04-06T12:54:49.948Z</time></trkpt><trkpt lat="53.46223247995971" lon="14.773684330468585"><ele>7.999999999999999</ele><time>2026-04-06T12:54:50.948Z</time></trkpt><trkpt lat="53.46224718456876" lon="14.773561207142507"><ele>8.0</ele><time>2026-04-06T12:54:51.948Z</time></trkpt><trkpt lat="53.462257629464595" lon="14.773423032971431"><ele>8.0</ele><time>2026-04-06T12:54:52.948Z</time></trkpt><trkpt lat="53.462265153031716" lon="14.773278114230287"><ele>8.0</ele><time>2026-04-06T12:54:53.948Z</time></trkpt><trkpt lat="53.462276471105454" lon="14.773130355758477"><ele>7.999999999999999</ele><time>2026-04-06T12:54:54.948Z</time></trkpt><trkpt lat="53.46228841834334" lon="14.773005329553943"><ele>8.0</ele><time>2026-04-06T12:54:55.948Z</time></trkpt><trkpt lat="53.46229457405161" lon="14.772891092139359"><ele>7.75</ele><time>2026-04-06T12:54:56.948Z</time></trkpt><trkpt lat="53.46230962890559" lon="14.77268776583885"><ele>7.5</ele><time>2026-04-06T12:54:58.948Z</time></trkpt><trkpt lat="53.46239213394028" lon="14.772538913120226"><ele>7.25</ele><time>2026-04-06T12:55:00.948Z</time></trkpt><trkpt lat="53.46249394495155" lon="14.772579537485862"><ele>7.0</ele><time>2026-04-06T12:55:01.948Z</time></trkpt><trkpt lat="53.46260665651289" lon="14.772568723488018"><ele>7.0</ele><time>2026-04-06T12:55:02.948Z</time></trkpt><trkpt lat="53.46272664993605" lon="14.772594613683232"><ele>7.0</ele><time>2026-04-06T12:55:03.948Z</time></trkpt><trkpt lat="53.46284525897928" lon="14.772611304290571"><ele>7.0</ele><time>2026-04-06T12:55:04.948Z</time></trkpt><trkpt lat="53.46296535162164" lon="14.772628461276645"><ele>7.0</ele><time>2026-04-06T12:55:05.948Z</time></trkpt><trkpt lat="53.46308467446883" lon="14.77264274029627"><ele>7.0</ele><time>2026-04-06T12:55:06.948Z</time></trkpt><trkpt lat="53.46321009077859" lon="14.77265567920511"><ele>7.0</ele><time>2026-04-06T12:55:07.948Z</time></trkpt><trkpt lat="53.463335670684764" lon="14.772671802340282"><ele>7.0</ele><time>2026-04-06T12:55:08.948Z</time></trkpt><trkpt lat="53.46346172159341" lon="14.772690813562768"><ele>7.0</ele><time>2026-04-06T12:55:09.948Z</time></trkpt><trkpt lat="53.46359188285548" lon="14.772707898423517"><ele>7.0</ele><time>2026-04-06T12:55:10.948Z</time></trkpt><trkpt lat="53.46372580948862" lon="14.772723506586248"><ele>7.0</ele><time>2026-04-06T12:55:11.948Z</time></trkpt><trkpt lat="53.4638616387528" lon="14.77274261186798"><ele>7.0</ele><time>2026-04-06T12:55:12.948Z</time></trkpt><trkpt lat="53.46399051684909" lon="14.772759883672142"><ele>7.0</ele><time>2026-04-06T12:55:13.948Z</time></trkpt><trkpt lat="53.46411703895181" lon="14.77277073330273"><ele>7.0</ele><time>2026-04-06T12:55:14.948Z</time></trkpt><trkpt lat="53.46424266864849" lon="14.772777472536804"><ele>7.0</ele><time>2026-04-06T12:55:15.948Z</time></trkpt><trkpt lat="53.464369938189016" lon="14.772781818474163"><ele>7.0</ele><time>2026-04-06T12:55:16.948Z</time></trkpt><trkpt lat="53.46449393263392" lon="14.77278528441457"><ele>7.0</ele><time>2026-04-06T12:55:17.948Z</time></trkpt><trkpt lat="53.4646244082238" lon="14.77279179450497"><ele>6.5</ele><time>2026-04-06T12:55:18.948Z</time></trkpt><trkpt lat="53.46475345905033" lon="14.772791691027955"><ele>6.0</ele><time>2026-04-06T12:55:19.948Z</time></trkpt><trkpt lat="53.46488526580066" lon="14.772794749739353"><ele>5.5</ele><time>2026-04-06T12:55:20.948Z</time></trkpt><trkpt lat="53.46501856531744" lon="14.772824266752183"><ele>5.0</ele><time>2026-04-06T12:55:21.948Z</time></trkpt><trkpt lat="53.46515743252355" lon="14.772843367364745"><ele>5.0</ele><time>2026-04-06T12:55:22.948Z</time></trkpt><trkpt lat="53.465295315177855" lon="14.77286148670004"><ele>5.0</ele><time>2026-04-06T12:55:23.948Z</time></trkpt><trkpt lat="53.4654387857222" lon="14.77285947506665"><ele>5.0</ele><time>2026-04-06T12:55:24.948Z</time></trkpt><trkpt lat="53.465585368167645" lon="14.772862883331928"><ele>5.0</ele><time>2026-04-06T12:55:25.948Z</time></trkpt><trkpt lat="53.465725225706414" lon="14.772880975731114"><ele>5.0</ele><time>2026-04-06T12:55:26.948Z</time></trkpt><trkpt lat="53.46587417634558" lon="14.772900104753068"><ele>5.0</ele><time>2026-04-06T12:55:27.948Z</time></trkpt><trkpt lat="53.46602054000922" lon="14.772924567830957"><ele>5.0</ele><time>2026-04-06T12:55:28.948Z</time></trkpt><trkpt lat="53.46616511912802" lon="14.772942495957198"><ele>5.0</ele><time>2026-04-06T12:55:29.948Z</time></trkpt><trkpt lat="53.466303795823485" lon="14.772957735685402"><ele>5.0</ele><time>2026-04-06T12:55:30.948Z</time></trkpt><trkpt lat="53.466445857081546" lon="14.77297328033251"><ele>5.0</ele><time>2026-04-06T12:55:31.948Z</time></trkpt><trkpt lat="53.466582988290895" lon="14.772994522790913"><ele>5.0</ele><time>2026-04-06T12:55:32.948Z</time></trkpt><trkpt lat="53.46671632334703" lon="14.773010137541402"><ele>5.0</ele><time>2026-04-06T12:55:33.948Z</time></trkpt><trkpt lat="53.466853283523996" lon="14.773024818981952"><ele>5.0</ele><time>2026-04-06T12:55:34.948Z</time></trkpt><trkpt lat="53.4669909093555" lon="14.77304324585326"><ele>5.0</ele><time>2026-04-06T12:55:35.948Z</time></trkpt><trkpt lat="53.46712838365452" lon="14.773058142532054"><ele>5.0</ele><time>2026-04-06T12:55:36.948Z</time></trkpt><trkpt lat="53.46726846135502" lon="14.773075539062045"><ele>5.0</ele><time>2026-04-06T12:55:37.948Z</time></trkpt><trkpt lat="53.46740690949405" lon="14.773091213185019"><ele>5.25</ele><time>2026-04-06T12:55:38.948Z</time></trkpt><trkpt lat="53.46754648710586" lon="14.773109173023887"><ele>5.5</ele><time>2026-04-06T12:55:39.948Z</time></trkpt><trkpt lat="53.46768624159799" lon="14.77312393648419"><ele>5.75</ele><time>2026-04-06T12:55:40.948Z</time></trkpt><trkpt lat="53.46782204808046" lon="14.77313908617968"><ele>6.0</ele><time>2026-04-06T12:55:41.948Z</time></trkpt><trkpt lat="53.46795318542527" lon="14.773154934806293"><ele>6.0</ele><time>2026-04-06T12:55:42.946Z</time></trkpt><trkpt lat="53.46808543618669" lon="14.773177046756548"><ele>6.0</ele><time>2026-04-06T12:55:43.946Z</time></trkpt><trkpt lat="53.46821489538081" lon="14.773200729460077"><ele>6.0</ele><time>2026-04-06T12:55:44.946Z</time></trkpt><trkpt lat="53.46833977680162" lon="14.77321457867354"><ele>6.0</ele><time>2026-04-06T12:55:45.945Z</time></trkpt><trkpt lat="53.46847943388934" lon="14.773229646036148"><ele>6.0</ele><time>2026-04-06T12:55:46.946Z</time></trkpt><trkpt lat="53.468615765559214" lon="14.773242921635884"><ele>6.0</ele><time>2026-04-06T12:55:47.946Z</time></trkpt><trkpt lat="53.46875753923483" lon="14.773254584352268"><ele>6.0</ele><time>2026-04-06T12:55:48.946Z</time></trkpt><trkpt lat="53.46889848992979" lon="14.773268399226216"><ele>6.0</ele><time>2026-04-06T12:55:49.945Z</time></trkpt><trkpt lat="53.46904016500626" lon="14.773291631238347"><ele>6.0</ele><time>2026-04-06T12:55:50.945Z</time></trkpt><trkpt lat="53.469189083598486" lon="14.773316146822037"><ele>6.0</ele><time>2026-04-06T12:55:51.946Z</time></trkpt><trkpt lat="53.469335419757265" lon="14.773336623514703"><ele>6.0</ele><time>2026-04-06T12:55:52.945Z</time></trkpt><trkpt lat="53.46948376780898" lon="14.77335850353278"><ele>6.0</ele><time>2026-04-06T12:55:53.945Z</time></trkpt><trkpt lat="53.46961757791647" lon="14.773375205781669"><ele>6.25</ele><time>2026-04-06T12:55:54.946Z</time></trkpt><trkpt lat="53.46976080801253" lon="14.773382802625866"><ele>6.5</ele><time>2026-04-06T12:55:55.945Z</time></trkpt><trkpt lat="53.469902296365916" lon="14.773400316440028"><ele>6.75</ele><time>2026-04-06T12:55:56.945Z</time></trkpt><trkpt lat="53.47002700536693" lon="14.773418654805557"><ele>7.0</ele><time>2026-04-06T12:55:57.945Z</time></trkpt><trkpt lat="53.47016550179354" lon="14.773433950100777"><ele>7.0</ele><time>2026-04-06T12:55:58.945Z</time></trkpt><trkpt lat="53.47031334211491" lon="14.773446270324957"><ele>7.0</ele><time>2026-04-06T12:55:59.945Z</time></trkpt><trkpt lat="53.47045706836847" lon="14.773466654589336"><ele>7.0</ele><time>2026-04-06T12:56:00.945Z</time></trkpt><trkpt lat="53.47059880608059" lon="14.773484397424902"><ele>7.0</ele><time>2026-04-06T12:56:01.945Z</time></trkpt><trkpt lat="53.470753301322205" lon="14.773497402020864"><ele>6.5</ele><time>2026-04-06T12:56:02.945Z</time></trkpt><trkpt lat="53.470897095235465" lon="14.77351549067938"><ele>6.0</ele><time>2026-04-06T12:56:03.945Z</time></trkpt><trkpt lat="53.471037658644704" lon="14.77353303097075"><ele>5.5</ele><time>2026-04-06T12:56:04.945Z</time></trkpt><trkpt lat="53.471166323924805" lon="14.773550892450201"><ele>5.0</ele><time>2026-04-06T12:56:05.945Z</time></trkpt><trkpt lat="53.47130637806194" lon="14.773566613850846"><ele>5.0</ele><time>2026-04-06T12:56:06.945Z</time></trkpt><trkpt lat="53.47144567997526" lon="14.773587682259784"><ele>5.0</ele><time>2026-04-06T12:56:07.945Z</time></trkpt><trkpt lat="53.47158895120416" lon="14.773607206347789"><ele>5.0</ele><time>2026-04-06T12:56:08.945Z</time></trkpt><trkpt lat="53.47173801918609" lon="14.773621585580955"><ele>5.0</ele><time>2026-04-06T12:56:09.945Z</time></trkpt><trkpt lat="53.471881433756494" lon="14.773638274017491"><ele>5.0</ele><time>2026-04-06T12:56:10.945Z</time></trkpt><trkpt lat="53.47203137064772" lon="14.77365677248427"><ele>5.0</ele><time>2026-04-06T12:56:11.945Z</time></trkpt><trkpt lat="53.47218844888789" lon="14.773677162879526"><ele>5.0</ele><time>2026-04-06T12:56:12.945Z</time></trkpt><trkpt lat="53.47233466945683" lon="14.77370100192908"><ele>5.5</ele><time>2026-04-06T12:56:13.945Z</time></trkpt><trkpt lat="53.47248166180828" lon="14.773724092733001"><ele>6.0</ele><time>2026-04-06T12:56:14.945Z</time></trkpt><trkpt lat="53.47262340647438" lon="14.773740660725064"><ele>6.5</ele><time>2026-04-06T12:56:15.945Z</time></trkpt><trkpt lat="53.472775188540524" lon="14.773762204772494"><ele>7.0</ele><time>2026-04-06T12:56:16.945Z</time></trkpt><trkpt lat="53.47291928695999" lon="14.773769595447684"><ele>6.333333333333334</ele><time>2026-04-06T12:56:17.945Z</time></trkpt><trkpt lat="53.47307032132169" lon="14.773783949508008"><ele>5.666666666666667</ele><time>2026-04-06T12:56:18.945Z</time></trkpt><trkpt lat="53.473219386529514" lon="14.773804513552426"><ele>5.0</ele><time>2026-04-06T12:56:19.945Z</time></trkpt><trkpt lat="53.47337199993599" lon="14.77382411663199"><ele>5.0</ele><time>2026-04-06T12:56:20.945Z</time></trkpt><trkpt lat="53.47351627988694" lon="14.773849338188656"><ele>5.0</ele><time>2026-04-06T12:56:21.945Z</time></trkpt><trkpt lat="53.473667003904175" lon="14.773865298551703"><ele>5.0</ele><time>2026-04-06T12:56:22.945Z</time></trkpt><trkpt lat="53.47380464763297" lon="14.773883401981399"><ele>5.0</ele><time>2026-04-06T12:56:23.945Z</time></trkpt><trkpt lat="53.473933947093215" lon="14.773904059963604"><ele>4.75</ele><time>2026-04-06T12:56:24.945Z</time></trkpt><trkpt lat="53.47407441512484" lon="14.773919856525705"><ele>4.5</ele><time>2026-04-06T12:56:25.945Z</time></trkpt><trkpt lat="53.47420959439837" lon="14.773943046982705"><ele>4.25</ele><time>2026-04-06T12:56:26.945Z</time></trkpt><trkpt lat="53.47435205188587" lon="14.773962909392313"><ele>4.0</ele><time>2026-04-06T12:56:27.945Z</time></trkpt><trkpt lat="53.47449306516933" lon="14.773986082562967"><ele>4.0</ele><time>2026-04-06T12:56:28.945Z</time></trkpt><trkpt lat="53.47463176002484" lon="14.77400996664261"><ele>4.0</ele><time>2026-04-06T12:56:29.945Z</time></trkpt><trkpt lat="53.47478400449285" lon="14.774024318025797"><ele>4.0</ele><time>2026-04-06T12:56:30.945Z</time></trkpt><trkpt lat="53.4749341646913" lon="14.774042677819935"><ele>4.0</ele><time>2026-04-06T12:56:31.945Z</time></trkpt><trkpt lat="53.475087801647796" lon="14.774060876997307"><ele>4.0</ele><time>2026-04-06T12:56:32.945Z</time></trkpt><trkpt lat="53.47524190174694" lon="14.774080815506142"><ele>4.0</ele><time>2026-04-06T12:56:33.945Z</time></trkpt><trkpt lat="53.47537345454322" lon="14.774105109641454"><ele>4.0</ele><time>2026-04-06T12:56:34.945Z</time></trkpt><trkpt lat="53.475499676848045" lon="14.774117953500642"><ele>4.0</ele><time>2026-04-06T12:56:35.945Z</time></trkpt><trkpt lat="53.47562459142991" lon="14.774128249474943"><ele>4.0</ele><time>2026-04-06T12:56:36.945Z</time></trkpt><trkpt lat="53.4757513282515" lon="14.774144698533702"><ele>4.0</ele><time>2026-04-06T12:56:37.945Z</time></trkpt><trkpt lat="53.47587657834753" lon="14.774163589544163"><ele>4.0</ele><time>2026-04-06T12:56:38.945Z</time></trkpt><trkpt lat="53.47600187426484" lon="14.774183538601559"><ele>4.0</ele><time>2026-04-06T12:56:39.945Z</time></trkpt><trkpt lat="53.47613019337242" lon="14.774199551895297"><ele>4.0</ele><time>2026-04-06T12:56:40.945Z</time></trkpt><trkpt lat="53.476267472178606" lon="14.774220954438034"><ele>4.0</ele><time>2026-04-06T12:56:41.945Z</time></trkpt><trkpt lat="53.47639664671625" lon="14.77423639103833"><ele>4.0</ele><time>2026-04-06T12:56:42.945Z</time></trkpt><trkpt lat="53.47653259677118" lon="14.774246873224735"><ele>4.0</ele><time>2026-04-06T12:56:43.945Z</time></trkpt><trkpt lat="53.476679035420474" lon="14.774257445828283"><ele>4.0</ele><time>2026-04-06T12:56:44.945Z</time></trkpt><trkpt lat="53.476824878992815" lon="14.7742767343213"><ele>4.0</ele><time>2026-04-06T12:56:45.945Z</time></trkpt><trkpt lat="53.476973379786735" lon="14.774299234368387"><ele>4.0</ele><time>2026-04-06T12:56:46.945Z</time></trkpt><trkpt lat="53.477113197706785" lon="14.774318737204485"><ele>4.0</ele><time>2026-04-06T12:56:47.945Z</time></trkpt><trkpt lat="53.47725338023497" lon="14.774338022436911"><ele>4.0</ele><time>2026-04-06T12:56:48.945Z</time></trkpt><trkpt lat="53.47740294337395" lon="14.774354542617084"><ele>4.0</ele><time>2026-04-06T12:56:49.945Z</time></trkpt><trkpt lat="53.477539423584076" lon="14.774376337697449"><ele>4.0</ele><time>2026-04-06T12:56:50.945Z</time></trkpt><trkpt lat="53.477678220963384" lon="14.774397638943187"><ele>4.0</ele><time>2026-04-06T12:56:51.945Z</time></trkpt><trkpt lat="53.47781918985298" lon="14.774410286804669"><ele>4.0</ele><time>2026-04-06T12:56:52.945Z</time></trkpt><trkpt lat="53.47796160768902" lon="14.774429422428936"><ele>4.0</ele><time>2026-04-06T12:56:53.945Z</time></trkpt><trkpt lat="53.478109097732826" lon="14.774452048009188"><ele>4.0</ele><time>2026-04-06T12:56:54.945Z</time></trkpt><trkpt lat="53.47825594155388" lon="14.7744706772962"><ele>4.0</ele><time>2026-04-06T12:56:55.945Z</time></trkpt><trkpt lat="53.478400171583736" lon="14.774497223322468"><ele>4.0</ele><time>2026-04-06T12:56:56.945Z</time></trkpt><trkpt lat="53.478545158075434" lon="14.774521531177497"><ele>4.0</ele><time>2026-04-06T12:56:57.945Z</time></trkpt><trkpt lat="53.4786814630651" lon="14.774534386125692"><ele>4.0</ele><time>2026-04-06T12:56:58.945Z</time></trkpt><trkpt lat="53.47881603865334" lon="14.774546299506135"><ele>4.0</ele><time>2026-04-06T12:56:59.945Z</time></trkpt><trkpt lat="53.47896110000341" lon="14.774558341716208"><ele>4.25</ele><time>2026-04-06T12:57:00.945Z</time></trkpt><trkpt lat="53.4791090006184" lon="14.774576691654572"><ele>4.5</ele><time>2026-04-06T12:57:01.945Z</time></trkpt><trkpt lat="53.47925717148904" lon="14.774593332518936"><ele>4.75</ele><time>2026-04-06T12:57:02.945Z</time></trkpt><trkpt lat="53.47939006675087" lon="14.774622214790778"><ele>5.0</ele><time>2026-04-06T12:57:03.945Z</time></trkpt><trkpt lat="53.479519167712645" lon="14.774635984652594"><ele>5.0</ele><time>2026-04-06T12:57:04.945Z</time></trkpt><trkpt lat="53.47964720955935" lon="14.774655414820366"><ele>5.0</ele><time>2026-04-06T12:57:05.945Z</time></trkpt><trkpt lat="53.47978135211858" lon="14.774674117521554"><ele>5.0</ele><time>2026-04-06T12:57:06.945Z</time></trkpt><trkpt lat="53.47991631875993" lon="14.774694449076877"><ele>5.0</ele><time>2026-04-06T12:57:07.945Z</time></trkpt><trkpt lat="53.48004625122622" lon="14.774709250782772"><ele>5.0</ele><time>2026-04-06T12:57:08.945Z</time></trkpt><trkpt lat="53.48017831727139" lon="14.774732844054157"><ele>5.0</ele><time>2026-04-06T12:57:09.945Z</time></trkpt><trkpt lat="53.48031591484262" lon="14.774746420857443"><ele>5.0</ele><time>2026-04-06T12:57:10.945Z</time></trkpt><trkpt lat="53.4804501056095" lon="14.774755868373214"><ele>5.0</ele><time>2026-04-06T12:57:11.945Z</time></trkpt><trkpt lat="53.480579475014096" lon="14.77477750135506"><ele>5.2</ele><time>2026-04-06T12:57:12.945Z</time></trkpt><trkpt lat="53.48070522016812" lon="14.774789773227901"><ele>5.4</ele><time>2026-04-06T12:57:13.945Z</time></trkpt><trkpt lat="53.48081540967298" lon="14.7748105676481"><ele>5.6</ele><time>2026-04-06T12:57:14.945Z</time></trkpt><trkpt lat="53.4809150889773" lon="14.774827881526184"><ele>5.8</ele><time>2026-04-06T12:57:15.945Z</time></trkpt><trkpt lat="53.481009817066415" lon="14.774851152004862"><ele>6.0</ele><time>2026-04-06T12:57:16.945Z</time></trkpt><trkpt lat="53.481088922835006" lon="14.774867463185112"><ele>6.0</ele><time>2026-04-06T12:57:17.945Z</time></trkpt><trkpt lat="53.48115357932274" lon="14.774869335958796"><ele>6.0</ele><time>2026-04-06T12:57:18.945Z</time></trkpt><trkpt lat="53.48123294292218" lon="14.774905367942678"><ele>6.0</ele><time>2026-04-06T12:57:20.945Z</time></trkpt><trkpt lat="53.48128460626585" lon="14.774781561099077"><ele>6.0</ele><time>2026-04-06T12:57:21.945Z</time></trkpt><trkpt lat="53.48136952267939" lon="14.774644010670576"><ele>6.0</ele><time>2026-04-06T12:57:23.945Z</time></trkpt><trkpt lat="53.48137205092665" lon="14.774474581794228"><ele>5.8</ele><time>2026-04-06T12:57:24.945Z</time></trkpt><trkpt lat="53.481389790589525" lon="14.774348093426273"><ele>5.6</ele><time>2026-04-06T12:57:25.945Z</time></trkpt><trkpt lat="53.481393003892435" lon="14.774190834405534"><ele>5.4</ele><time>2026-04-06T12:57:26.945Z</time></trkpt><trkpt lat="53.4814168708618" lon="14.773997836082664"><ele>5.2</ele><time>2026-04-06T12:57:27.945Z</time></trkpt><trkpt lat="53.48142497113591" lon="14.77379338045804"><ele>5.0</ele><time>2026-04-06T12:57:28.945Z</time></trkpt><trkpt lat="53.48141665581321" lon="14.773602118419513"><ele>4.75</ele><time>2026-04-06T12:57:29.945Z</time></trkpt><trkpt lat="53.481435845782016" lon="14.773395199900222"><ele>4.5</ele><time>2026-04-06T12:57:30.945Z</time></trkpt><trkpt lat="53.48144019187316" lon="14.773183344831143"><ele>4.25</ele><time>2026-04-06T12:57:31.945Z</time></trkpt><trkpt lat="53.48144258169246" lon="14.772975200113759"><ele>4.0</ele><time>2026-04-06T12:57:32.945Z</time></trkpt><trkpt lat="53.4814634019242" lon="14.772764600789532"><ele>3.75</ele><time>2026-04-06T12:57:33.945Z</time></trkpt><trkpt lat="53.48146895673064" lon="14.772545290166589"><ele>3.5</ele><time>2026-04-06T12:57:34.945Z</time></trkpt><trkpt lat="53.48147197834907" lon="14.772322856508667"><ele>3.25</ele><time>2026-04-06T12:57:35.945Z</time></trkpt><trkpt lat="53.48147702087557" lon="14.772112503616734"><ele>3.0</ele><time>2026-04-06T12:57:36.945Z</time></trkpt><trkpt lat="53.481484614674144" lon="14.771902352244386"><ele>2.5</ele><time>2026-04-06T12:57:37.945Z</time></trkpt><trkpt lat="53.48148621494949" lon="14.771692331160088"><ele>2.0</ele><time>2026-04-06T12:57:38.945Z</time></trkpt><trkpt lat="53.48149078513437" lon="14.771504056088881"><ele>1.5</ele><time>2026-04-06T12:57:39.945Z</time></trkpt><trkpt lat="53.48149367908141" lon="14.771309815813854"><ele>1.0</ele><time>2026-04-06T12:57:40.945Z</time></trkpt><trkpt lat="53.4815039010959" lon="14.771121859539578"><ele>1.0</ele><time>2026-04-06T12:57:41.945Z</time></trkpt><trkpt lat="53.481513127356976" lon="14.770926343462529"><ele>1.0</ele><time>2026-04-06T12:57:42.945Z</time></trkpt><trkpt lat="53.48151587340965" lon="14.770740351289447"><ele>1.0</ele><time>2026-04-06T12:57:43.945Z</time></trkpt><trkpt lat="53.48152007423644" lon="14.77057932971957"><ele>1.0</ele><time>2026-04-06T12:57:44.945Z</time></trkpt><trkpt lat="53.48152285895213" lon="14.77043202911656"><ele>1.0</ele><time>2026-04-06T12:57:45.945Z</time></trkpt><trkpt lat="53.48153144074097" lon="14.770306985825542"><ele>1.2000000000000002</ele><time>2026-04-06T12:57:46.945Z</time></trkpt><trkpt lat="53.48158677315579" lon="14.77018590245287"><ele>1.4000000000000001</ele><time>2026-04-06T12:57:47.945Z</time></trkpt><trkpt lat="53.481638247243986" lon="14.770081343277704"><ele>1.6</ele><time>2026-04-06T12:57:48.944Z</time></trkpt><trkpt lat="53.4816587387545" lon="14.769937138125684"><ele>1.8</ele><time>2026-04-06T12:57:49.944Z</time></trkpt><trkpt lat="53.48167666158838" lon="14.769774390134646"><ele>2.0</ele><time>2026-04-06T12:57:50.944Z</time></trkpt><trkpt lat="53.48168251094485" lon="14.769619450918"><ele>2.0</ele><time>2026-04-06T12:57:51.944Z</time></trkpt><trkpt lat="53.4816866655526" lon="14.769458757023882"><ele>2.0</ele><time>2026-04-06T12:57:52.944Z</time></trkpt><trkpt lat="53.48169121096243" lon="14.769276599664872"><ele>2.0</ele><time>2026-04-06T12:57:53.944Z</time></trkpt><trkpt lat="53.48167921100751" lon="14.769127054576543"><ele>2.0</ele><time>2026-04-06T12:57:54.944Z</time></trkpt><trkpt lat="53.48169523533924" lon="14.768979561772346"><ele>2.0</ele><time>2026-04-06T12:57:55.944Z</time></trkpt><trkpt lat="53.481696046206295" lon="14.768816907096785"><ele>2.0</ele><time>2026-04-06T12:57:56.944Z</time></trkpt><trkpt lat="53.481706383624214" lon="14.768626842263629"><ele>2.0</ele><time>2026-04-06T12:57:57.944Z</time></trkpt><trkpt lat="53.481719813950825" lon="14.768471478288465"><ele>2.0</ele><time>2026-04-06T12:57:58.944Z</time></trkpt><trkpt lat="53.48173363937533" lon="14.768285779494985"><ele>2.0</ele><time>2026-04-06T12:57:59.944Z</time></trkpt><trkpt lat="53.481746572726806" lon="14.768117440614654"><ele>2.0</ele><time>2026-04-06T12:58:00.943Z</time></trkpt><trkpt lat="53.48175568043063" lon="14.767919724811604"><ele>1.6666666666666665</ele><time>2026-04-06T12:58:01.944Z</time></trkpt><trkpt lat="53.48176566456014" lon="14.767792252186052"><ele>1.3333333333333333</ele><time>2026-04-06T12:58:02.944Z</time></trkpt><trkpt lat="53.48177607428407" lon="14.76765336492757"><ele>1.0</ele><time>2026-04-06T12:58:03.944Z</time></trkpt><trkpt lat="53.48179019065998" lon="14.767536798064418"><ele>0.6666666666666666</ele><time>2026-04-06T12:58:04.944Z</time></trkpt><trkpt lat="53.481805235724124" lon="14.767421910236255"><ele>0.3333333333333333</ele><time>2026-04-06T12:58:05.944Z</time></trkpt><trkpt lat="53.4818132363302" lon="14.767303842877263"><ele>0.0</ele><time>2026-04-06T12:58:06.944Z</time></trkpt><trkpt lat="53.481845616500436" lon="14.767077408550945"><ele>0.0</ele><time>2026-04-06T12:58:08.944Z</time></trkpt><trkpt lat="53.48185765696288" lon="14.766940106580636"><ele>0.0</ele><time>2026-04-06T12:58:09.944Z</time></trkpt><trkpt lat="53.481922783882766" lon="14.766833778126644"><ele>0.0</ele><time>2026-04-06T12:58:10.944Z</time></trkpt><trkpt lat="53.481971857711706" lon="14.766723131270412"><ele>0.0</ele><time>2026-04-06T12:58:11.944Z</time></trkpt><trkpt lat="53.48200777467995" lon="14.766594839326707"><ele>0.0</ele><time>2026-04-06T12:58:12.944Z</time></trkpt><trkpt lat="53.482056930546214" lon="14.766466568549149"><ele>0.0</ele><time>2026-04-06T12:58:13.944Z</time></trkpt><trkpt lat="53.482091215250534" lon="14.76629468080036"><ele>-0.2</ele><time>2026-04-06T12:58:14.944Z</time></trkpt><trkpt lat="53.48210503226916" lon="14.766125090849684"><ele>-0.4</ele><time>2026-04-06T12:58:15.944Z</time></trkpt><trkpt lat="53.48211052770165" lon="14.765949137242554"><ele>-0.6000000000000001</ele><time>2026-04-06T12:58:16.944Z</time></trkpt><trkpt lat="53.48210558688102" lon="14.765784991728951"><ele>-0.8</ele><time>2026-04-06T12:58:17.944Z</time></trkpt><trkpt lat="53.482117922435506" lon="14.765586234348227"><ele>-1.0</ele><time>2026-04-06T12:58:18.944Z</time></trkpt><trkpt lat="53.48211577076343" lon="14.765397934017008"><ele>-1.0</ele><time>2026-04-06T12:58:19.944Z</time></trkpt><trkpt lat="53.48212290530845" lon="14.765215487788337"><ele>-1.0</ele><time>2026-04-06T12:58:20.944Z</time></trkpt><trkpt lat="53.48214118607325" lon="14.765068346537154"><ele>-1.0</ele><time>2026-04-06T12:58:21.944Z</time></trkpt><trkpt lat="53.48215634223245" lon="14.764914426338157"><ele>-1.0</ele><time>2026-04-06T12:58:22.944Z</time></trkpt><trkpt lat="53.4821875092804" lon="14.764769975855005"><ele>-1.0</ele><time>2026-04-06T12:58:23.944Z</time></trkpt><trkpt lat="53.48224265641844" lon="14.76461522188373"><ele>-1.25</ele><time>2026-04-06T12:58:24.944Z</time></trkpt><trkpt lat="53.48229725802508" lon="14.764471363556666"><ele>-1.5</ele><time>2026-04-06T12:58:25.944Z</time></trkpt><trkpt lat="53.48234640664666" lon="14.764298638074017"><ele>-1.75</ele><time>2026-04-06T12:58:26.944Z</time></trkpt><trkpt lat="53.48242950648487" lon="14.764144503273865"><ele>-2.0</ele><time>2026-04-06T12:58:27.944Z</time></trkpt><trkpt lat="53.48249252399374" lon="14.76399219944392"><ele>-2.0</ele><time>2026-04-06T12:58:28.944Z</time></trkpt><trkpt lat="53.4825520667028" lon="14.763850360064204"><ele>-2.0</ele><time>2026-04-06T12:58:29.944Z</time></trkpt><trkpt lat="53.48259354182926" lon="14.763703810762655"><ele>-2.0</ele><time>2026-04-06T12:58:30.944Z</time></trkpt><trkpt lat="53.48265132206753" lon="14.763566320819546"><ele>-2.0</ele><time>2026-04-06T12:58:31.944Z</time></trkpt><trkpt lat="53.4826947173028" lon="14.763399272136054"><ele>-2.0</ele><time>2026-04-06T12:58:32.944Z</time></trkpt><trkpt lat="53.48273712830932" lon="14.76320361675376"><ele>-2.0</ele><time>2026-04-06T12:58:33.944Z</time></trkpt><trkpt lat="53.48277044538877" lon="14.763041578415887"><ele>-2.0</ele><time>2026-04-06T12:58:34.944Z</time></trkpt><trkpt lat="53.482804978539974" lon="14.76287388861235"><ele>-2.0</ele><time>2026-04-06T12:58:35.944Z</time></trkpt><trkpt lat="53.48284195309167" lon="14.762701215139046"><ele>-2.0</ele><time>2026-04-06T12:58:36.944Z</time></trkpt><trkpt lat="53.482880633704056" lon="14.76251648770097"><ele>-2.0</ele><time>2026-04-06T12:58:37.944Z</time></trkpt><trkpt lat="53.482919513853396" lon="14.762341005708008"><ele>-1.8</ele><time>2026-04-06T12:58:38.944Z</time></trkpt><trkpt lat="53.482959370118486" lon="14.762158734782137"><ele>-1.6</ele><time>2026-04-06T12:58:39.944Z</time></trkpt><trkpt lat="53.48299307333797" lon="14.762004146388295"><ele>-1.4000000000000001</ele><time>2026-04-06T12:58:40.944Z</time></trkpt><trkpt lat="53.483024121098296" lon="14.761841344913353"><ele>-1.2000000000000002</ele><time>2026-04-06T12:58:41.944Z</time></trkpt><trkpt lat="53.483054972407345" lon="14.76167139094141"><ele>-1.0</ele><time>2026-04-06T12:58:42.944Z</time></trkpt><trkpt lat="53.483083277369424" lon="14.761489550966669"><ele>-1.0</ele><time>2026-04-06T12:58:43.944Z</time></trkpt><trkpt lat="53.48310736168521" lon="14.761306773899571"><ele>-1.0</ele><time>2026-04-06T12:58:44.944Z</time></trkpt><trkpt lat="53.483150992269096" lon="14.761125228966728"><ele>-1.0</ele><time>2026-04-06T12:58:45.944Z</time></trkpt><trkpt lat="53.483181096878674" lon="14.760948440413681"><ele>-1.0</ele><time>2026-04-06T12:58:46.944Z</time></trkpt><trkpt lat="53.48321851634167" lon="14.760775121907027"><ele>-1.0</ele><time>2026-04-06T12:58:47.944Z</time></trkpt><trkpt lat="53.48324021595786" lon="14.760613977292113"><ele>-1.0</ele><time>2026-04-06T12:58:48.944Z</time></trkpt><trkpt lat="53.48329548830071" lon="14.760438639547019"><ele>-1.0</ele><time>2026-04-06T12:58:49.944Z</time></trkpt><trkpt lat="53.48332700244239" lon="14.760240792258585"><ele>-1.0</ele><time>2026-04-06T12:58:50.944Z</time></trkpt><trkpt lat="53.48337671643254" lon="14.760092438654567"><ele>-1.0</ele><time>2026-04-06T12:58:51.944Z</time></trkpt><trkpt lat="53.483410125048835" lon="14.759955204908993"><ele>-1.0</ele><time>2026-04-06T12:58:52.944Z</time></trkpt><trkpt lat="53.48344389071178" lon="14.759821457967632"><ele>-0.9999999999999999</ele><time>2026-04-06T12:58:53.944Z</time></trkpt><trkpt lat="53.48344299946777" lon="14.759712316094568"><ele>-1.0</ele><time>2026-04-06T12:58:54.944Z</time></trkpt><trkpt lat="53.483476773983384" lon="14.759614026569583"><ele>-1.0</ele><time>2026-04-06T12:58:55.944Z</time></trkpt><trkpt lat="53.483507525728285" lon="14.759490820242233"><ele>-1.0</ele><time>2026-04-06T12:58:56.944Z</time></trkpt><trkpt lat="53.48354089839274" lon="14.759375785056697"><ele>-0.9999999999999999</ele><time>2026-04-06T12:58:57.944Z</time></trkpt><trkpt lat="53.48357876026095" lon="14.759188160334016"><ele>-1.0</ele><time>2026-04-06T12:58:58.944Z</time></trkpt><trkpt lat="53.48361715923522" lon="14.759007131789387"><ele>-1.0</ele><time>2026-04-06T12:58:59.944Z</time></trkpt><trkpt lat="53.48366125613349" lon="14.75889273821064"><ele>-1.0</ele><time>2026-04-06T12:59:00.944Z</time></trkpt><trkpt lat="53.483696684276914" lon="14.758776363826673"><ele>-1.0</ele><time>2026-04-06T12:59:01.944Z</time></trkpt><trkpt lat="53.48372569813091" lon="14.758593025780412"><ele>-1.0</ele><time>2026-04-06T12:59:02.944Z</time></trkpt><trkpt lat="53.48375935948591" lon="14.758446087162893"><ele>-1.0</ele><time>2026-04-06T12:59:03.944Z</time></trkpt><trkpt lat="53.48379375696493" lon="14.758307426043714"><ele>-1.2000000000000002</ele><time>2026-04-06T12:59:04.944Z</time></trkpt><trkpt lat="53.483831503502316" lon="14.758180597296915"><ele>-1.4000000000000001</ele><time>2026-04-06T12:59:05.944Z</time></trkpt><trkpt lat="53.48387760123637" lon="14.75804175746461"><ele>-1.6</ele><time>2026-04-06T12:59:06.944Z</time></trkpt><trkpt lat="53.48387620529606" lon="14.757906748801249"><ele>-1.8</ele><time>2026-04-06T12:59:07.944Z</time></trkpt><trkpt lat="53.48389772711703" lon="14.757723809758309"><ele>-2.0</ele><time>2026-04-06T12:59:08.944Z</time></trkpt><trkpt lat="53.48396519706144" lon="14.757600194911156"><ele>-2.0</ele><time>2026-04-06T12:59:10.944Z</time></trkpt><trkpt lat="53.4840136490073" lon="14.757446958893706"><ele>-2.0</ele><time>2026-04-06T12:59:11.944Z</time></trkpt><trkpt lat="53.484053523332264" lon="14.757280782920182"><ele>-2.0</ele><time>2026-04-06T12:59:12.944Z</time></trkpt><trkpt lat="53.484079404578175" lon="14.757080102378433"><ele>-2.0</ele><time>2026-04-06T12:59:13.944Z</time></trkpt><trkpt lat="53.484116752588875" lon="14.756920348993724"><ele>-2.0</ele><time>2026-04-06T12:59:14.944Z</time></trkpt><trkpt lat="53.484145173955596" lon="14.756740626490641"><ele>-2.0</ele><time>2026-04-06T12:59:15.944Z</time></trkpt><trkpt lat="53.48418114026344" lon="14.756592267417197"><ele>-2.0</ele><time>2026-04-06T12:59:16.944Z</time></trkpt><trkpt lat="53.484221215812866" lon="14.756475693066978"><ele>-2.0</ele><time>2026-04-06T12:59:17.944Z</time></trkpt><trkpt lat="53.48425947059576" lon="14.756353629083724"><ele>-2.0</ele><time>2026-04-06T12:59:18.944Z</time></trkpt><trkpt lat="53.48429099001098" lon="14.756224283930639"><ele>-2.0</ele><time>2026-04-06T12:59:19.944Z</time></trkpt><trkpt lat="53.48432654893439" lon="14.756030744133342"><ele>-2.0</ele><time>2026-04-06T12:59:20.944Z</time></trkpt><trkpt lat="53.4843707606711" lon="14.755840221023321"><ele>-2.0</ele><time>2026-04-06T12:59:21.944Z</time></trkpt><trkpt lat="53.48439739559391" lon="14.755729000407005"><ele>-2.0</ele><time>2026-04-06T12:59:22.944Z</time></trkpt><trkpt lat="53.48444506338879" lon="14.755582270986995"><ele>-2.0</ele><time>2026-04-06T12:59:23.944Z</time></trkpt><trkpt lat="53.484483953676374" lon="14.755428013274498"><ele>-2.0</ele><time>2026-04-06T12:59:24.944Z</time></trkpt><trkpt lat="53.48451995820659" lon="14.755282468234304"><ele>-2.0</ele><time>2026-04-06T12:59:25.944Z</time></trkpt><trkpt lat="53.48456159532351" lon="14.755120362205831"><ele>-2.0</ele><time>2026-04-06T12:59:27.944Z</time></trkpt><trkpt lat="53.484602220079" lon="14.754990722307205"><ele>-2.0</ele><time>2026-04-06T12:59:28.944Z</time></trkpt><trkpt lat="53.484649945142756" lon="14.754858547290425"><ele>-2.0</ele><time>2026-04-06T12:59:29.944Z</time></trkpt><trkpt lat="53.48472635378621" lon="14.754679956577528"><ele>-2.0</ele><time>2026-04-06T12:59:31.944Z</time></trkpt><trkpt lat="53.48476684261235" lon="14.754592356416648"><ele>-2.0</ele><time>2026-04-06T12:59:32.944Z</time></trkpt><trkpt lat="53.48479886948427" lon="14.754484732451823"><ele>-2.0</ele><time>2026-04-06T12:59:33.944Z</time></trkpt><trkpt lat="53.48484544593209" lon="14.754320022522961"><ele>-2.0</ele><time>2026-04-06T12:59:34.944Z</time></trkpt><trkpt lat="53.48485655387079" lon="14.754108079482569"><ele>-2.0</ele><time>2026-04-06T12:59:36.944Z</time></trkpt><trkpt lat="53.48487394679617" lon="14.753985007329279"><ele>-2.0</ele><time>2026-04-06T12:59:37.944Z</time></trkpt><trkpt lat="53.48491487672196" lon="14.753881130856264"><ele>-2.2</ele><time>2026-04-06T12:59:38.944Z</time></trkpt><trkpt lat="53.48497895332757" lon="14.753782967762437"><ele>-2.4000000000000004</ele><time>2026-04-06T12:59:39.944Z</time></trkpt><trkpt lat="53.4849764299682" lon="14.753656012264049"><ele>-2.5999999999999996</ele><time>2026-04-06T12:59:40.944Z</time></trkpt><trkpt lat="53.48500505574166" lon="14.753503007075578"><ele>-2.8</ele><time>2026-04-06T12:59:41.944Z</time></trkpt><trkpt lat="53.48503332393231" lon="14.753358734430053"><ele>-3.0</ele><time>2026-04-06T12:59:42.944Z</time></trkpt><trkpt lat="53.48507890994273" lon="14.75317675748135"><ele>-3.0</ele><time>2026-04-06T12:59:43.944Z</time></trkpt><trkpt lat="53.48510829643389" lon="14.752988825266275"><ele>-3.0</ele><time>2026-04-06T12:59:44.944Z</time></trkpt><trkpt lat="53.48514195723463" lon="14.752764978074957"><ele>-3.0</ele><time>2026-04-06T12:59:45.944Z</time></trkpt><trkpt lat="53.48519682358451" lon="14.752626203783988"><ele>-3.0</ele><time>2026-04-06T12:59:47.944Z</time></trkpt><trkpt lat="53.485226334051326" lon="14.752517262820351"><ele>-3.0</ele><time>2026-04-06T12:59:48.944Z</time></trkpt><trkpt lat="53.48525500915707" lon="14.752392026123951"><ele>-3.0</ele><time>2026-04-06T12:59:49.944Z</time></trkpt><trkpt lat="53.485282956218185" lon="14.752267701737738"><ele>-3.0</ele><time>2026-04-06T12:59:50.944Z</time></trkpt><trkpt lat="53.48530644176947" lon="14.752114234878052"><ele>-3.0</ele><time>2026-04-06T12:59:51.944Z</time></trkpt><trkpt lat="53.48534481498789" lon="14.751961246497645"><ele>-3.0</ele><time>2026-04-06T12:59:52.944Z</time></trkpt><trkpt lat="53.48538889496402" lon="14.751814213324636"><ele>-3.0</ele><time>2026-04-06T12:59:53.944Z</time></trkpt><trkpt lat="53.48541312277259" lon="14.751712029772431"><ele>-3.0</ele><time>2026-04-06T12:59:54.942Z</time></trkpt><trkpt lat="53.485457291729645" lon="14.751550869891672"><ele>-3.0</ele><time>2026-04-06T12:59:55.942Z</time></trkpt><trkpt lat="53.48550372464133" lon="14.751461007690127"><ele>-3.0</ele><time>2026-04-06T12:59:56.942Z</time></trkpt><trkpt lat="53.48556437518081" lon="14.751365944316222"><ele>-3.0</ele><time>2026-04-06T12:59:57.942Z</time></trkpt><trkpt lat="53.48563950706898" lon="14.751270086808134"><ele>-3.0</ele><time>2026-04-06T12:59:58.943Z</time></trkpt><trkpt lat="53.48571355970129" lon="14.751189259527441"><ele>-3.0</ele><time>2026-04-06T12:59:59.943Z</time></trkpt><trkpt lat="53.48579347499536" lon="14.751090662257148"><ele>-3.0</ele><time>2026-04-06T13:00:00.942Z</time></trkpt><trkpt lat="53.48586741689106" lon="14.750992525919196"><ele>-3.0</ele><time>2026-04-06T13:00:01.942Z</time></trkpt><trkpt lat="53.48596683076401" lon="14.750794837162537"><ele>-3.0</ele><time>2026-04-06T13:00:03.942Z</time></trkpt><trkpt lat="53.48600942383551" lon="14.750662418627096"><ele>-3.0</ele><time>2026-04-06T13:00:04.942Z</time></trkpt><trkpt lat="53.48606371186734" lon="14.750483498347974"><ele>-3.0</ele><time>2026-04-06T13:00:05.942Z</time></trkpt><trkpt lat="53.486120190730105" lon="14.75036842081759"><ele>-3.0</ele><time>2026-04-06T13:00:06.942Z</time></trkpt><trkpt lat="53.486197784701886" lon="14.750216608531243"><ele>-3.0</ele><time>2026-04-06T13:00:08.942Z</time></trkpt><trkpt lat="53.4862426786973" lon="14.74997385720441"><ele>-3.0</ele><time>2026-04-06T13:00:10.942Z</time></trkpt><trkpt lat="53.486267615996944" lon="14.749845964291945"><ele>-3.0</ele><time>2026-04-06T13:00:11.942Z</time></trkpt><trkpt lat="53.48633019286713" lon="14.749685312241986"><ele>-3.0</ele><time>2026-04-06T13:00:13.942Z</time></trkpt><trkpt lat="53.48641515315963" lon="14.749505870834016"><ele>-3.0</ele><time>2026-04-06T13:00:15.942Z</time></trkpt><trkpt lat="53.48645946515964" lon="14.74939840945913"><ele>-3.0</ele><time>2026-04-06T13:00:16.942Z</time></trkpt><trkpt lat="53.48649938502732" lon="14.74930637852535"><ele>-3.0</ele><time>2026-04-06T13:00:17.942Z</time></trkpt><trkpt lat="53.48654774588339" lon="14.749231528083751"><ele>-3.0</ele><time>2026-04-06T13:00:18.942Z</time></trkpt><trkpt lat="53.486570456534174" lon="14.749128872798765"><ele>-3.0</ele><time>2026-04-06T13:00:19.942Z</time></trkpt><trkpt lat="53.486638054335074" lon="14.748953389571716"><ele>-3.0</ele><time>2026-04-06T13:00:21.942Z</time></trkpt><trkpt lat="53.486714154048435" lon="14.748833442824537"><ele>-3.0</ele><time>2026-04-06T13:00:23.942Z</time></trkpt><trkpt lat="53.48678147407449" lon="14.748695148950592"><ele>-3.0</ele><time>2026-04-06T13:00:25.942Z</time></trkpt><trkpt lat="53.48682440128783" lon="14.748533182823076"><ele>-3.0</ele><time>2026-04-06T13:00:27.942Z</time></trkpt><trkpt lat="53.486883915667974" lon="14.748378384338759"><ele>-3.0</ele><time>2026-04-06T13:00:29.942Z</time></trkpt><trkpt lat="53.48698889595118" lon="14.748210507260957"><ele>-3.0</ele><time>2026-04-06T13:00:31.942Z</time></trkpt><trkpt lat="53.48703538691222" lon="14.74806586976898"><ele>-3.0</ele><time>2026-04-06T13:00:33.94Z</time></trkpt><trkpt lat="53.48707361414015" lon="14.74794386547139"><ele>-3.0</ele><time>2026-04-06T13:00:34.94Z</time></trkpt><trkpt lat="53.487111432991355" lon="14.747819735843354"><ele>-3.0</ele><time>2026-04-06T13:00:35.939Z</time></trkpt><trkpt lat="53.48714213543052" lon="14.747719408873198"><ele>-3.0</ele><time>2026-04-06T13:00:36.938Z</time></trkpt><trkpt lat="53.48718779340307" lon="14.74760604728373"><ele>-3.0</ele><time>2026-04-06T13:00:37.938Z</time></trkpt><trkpt lat="53.48722949631205" lon="14.747505119645005"><ele>-3.0</ele><time>2026-04-06T13:00:38.937Z</time></trkpt><trkpt lat="53.487287452351595" lon="14.7473755929064"><ele>-3.0</ele><time>2026-04-06T13:00:39.937Z</time></trkpt><trkpt lat="53.48731120836807" lon="14.7472765545297"><ele>-3.0</ele><time>2026-04-06T13:00:40.936Z</time></trkpt><trkpt lat="53.48731236259857" lon="14.747061019769676"><ele>-3.0</ele><time>2026-04-06T13:00:42.935Z</time></trkpt><trkpt lat="53.48740039725162" lon="14.74678034596049"><ele>-2.8</ele><time>2026-04-06T13:00:43.935Z</time></trkpt><trkpt lat="53.48745522150165" lon="14.746552382112874"><ele>-2.5999999999999996</ele><time>2026-04-06T13:00:44.934Z</time></trkpt><trkpt lat="53.487512780216925" lon="14.74637685010554"><ele>-2.4000000000000004</ele><time>2026-04-06T13:00:46.934Z</time></trkpt><trkpt lat="53.48754851892029" lon="14.746289128155528"><ele>-2.2</ele><time>2026-04-06T13:00:47.933Z</time></trkpt><trkpt lat="53.48760097726217" lon="14.746202448444633"><ele>-2.0</ele><time>2026-04-06T13:00:48.933Z</time></trkpt><trkpt lat="53.48766777858331" lon="14.746153170121426"><ele>-2.0</ele><time>2026-04-06T13:00:49.933Z</time></trkpt><trkpt lat="53.487774184144534" lon="14.746100374231714"><ele>-2.0</ele><time>2026-04-06T13:00:50.933Z</time></trkpt><trkpt lat="53.487869550200294" lon="14.746052450633009"><ele>-2.0</ele><time>2026-04-06T13:00:51.932Z</time></trkpt><trkpt lat="53.487961227816974" lon="14.74599864507304"><ele>-2.0</ele><time>2026-04-06T13:00:52.932Z</time></trkpt><trkpt lat="53.488099952119015" lon="14.745934201544024"><ele>-2.2</ele><time>2026-04-06T13:00:54.932Z</time></trkpt><trkpt lat="53.4881861634278" lon="14.745910421314221"><ele>-2.4000000000000004</ele><time>2026-04-06T13:00:55.931Z</time></trkpt><trkpt lat="53.48828525393903" lon="14.745911284540464"><ele>-2.5999999999999996</ele><time>2026-04-06T13:00:56.931Z</time></trkpt><trkpt lat="53.488388864510036" lon="14.745918711287826"><ele>-2.8</ele><time>2026-04-06T13:00:57.931Z</time></trkpt><trkpt lat="53.488471909818095" lon="14.745954360332671"><ele>-3.0</ele><time>2026-04-06T13:00:58.931Z</time></trkpt><trkpt lat="53.48855980215328" lon="14.746014946393235"><ele>-3.0</ele><time>2026-04-06T13:00:59.931Z</time></trkpt><trkpt lat="53.488648620310244" lon="14.746079753102153"><ele>-3.0</ele><time>2026-04-06T13:01:00.931Z</time></trkpt><trkpt lat="53.48873742078999" lon="14.746231787691688"><ele>-3.0</ele><time>2026-04-06T13:01:02.93Z</time></trkpt><trkpt lat="53.488861789376784" lon="14.746305952086862"><ele>-3.0</ele><time>2026-04-06T13:01:03.93Z</time></trkpt><trkpt lat="53.48893654463398" lon="14.746336899917578"><ele>-3.0</ele><time>2026-04-06T13:01:04.93Z</time></trkpt><trkpt lat="53.48901282578384" lon="14.74635012244246"><ele>-3.0</ele><time>2026-04-06T13:01:05.93Z</time></trkpt><trkpt lat="53.48908620773651" lon="14.746343085827151"><ele>-3.0</ele><time>2026-04-06T13:01:06.93Z</time></trkpt><trkpt lat="53.489163102247346" lon="14.7462993586928"><ele>-3.0</ele><time>2026-04-06T13:01:07.93Z</time></trkpt><trkpt lat="53.48925580567903" lon="14.746236084537795"><ele>-3.0</ele><time>2026-04-06T13:01:08.93Z</time></trkpt><trkpt lat="53.48933813337504" lon="14.74616113319485"><ele>-3.0</ele><time>2026-04-06T13:01:09.93Z</time></trkpt><trkpt lat="53.48942070399855" lon="14.746091432853687"><ele>-3.0</ele><time>2026-04-06T13:01:10.93Z</time></trkpt><trkpt lat="53.489531283543684" lon="14.74602530167818"><ele>-3.0</ele><time>2026-04-06T13:01:11.93Z</time></trkpt><trkpt lat="53.48965060859012" lon="14.745944491541925"><ele>-3.0</ele><time>2026-04-06T13:01:12.93Z</time></trkpt><trkpt lat="53.489728238366524" lon="14.745891047092442"><ele>-3.0</ele><time>2026-04-06T13:01:13.93Z</time></trkpt><trkpt lat="53.48979747807881" lon="14.745809945649015"><ele>-3.0</ele><time>2026-04-06T13:01:14.929Z</time></trkpt><trkpt lat="53.48985901369974" lon="14.745703052531766"><ele>-3.0</ele><time>2026-04-06T13:01:15.929Z</time></trkpt><trkpt lat="53.48993982957972" lon="14.745575364160224"><ele>-3.0</ele><time>2026-04-06T13:01:16.929Z</time></trkpt><trkpt lat="53.490014156612325" lon="14.74546160954714"><ele>-3.0</ele><time>2026-04-06T13:01:17.929Z</time></trkpt><trkpt lat="53.49007239645956" lon="14.745373776181427"><ele>-3.0</ele><time>2026-04-06T13:01:18.929Z</time></trkpt><trkpt lat="53.49012880943473" lon="14.74526278775002"><ele>-3.0</ele><time>2026-04-06T13:01:19.929Z</time></trkpt><trkpt lat="53.490195748639934" lon="14.745129825535034"><ele>-3.0</ele><time>2026-04-06T13:01:20.929Z</time></trkpt><trkpt lat="53.490272396436346" lon="14.745004765848817"><ele>-3.0</ele><time>2026-04-06T13:01:21.929Z</time></trkpt><trkpt lat="53.49033642758482" lon="14.74490256602277"><ele>-3.0</ele><time>2026-04-06T13:01:22.929Z</time></trkpt><trkpt lat="53.49041053658089" lon="14.744769805737068"><ele>-3.0</ele><time>2026-04-06T13:01:23.929Z</time></trkpt><trkpt lat="53.49048256676023" lon="14.744680960800933"><ele>-3.0</ele><time>2026-04-06T13:01:24.929Z</time></trkpt><trkpt lat="53.49053520413096" lon="14.74458991830233"><ele>-3.0</ele><time>2026-04-06T13:01:25.929Z</time></trkpt><trkpt lat="53.4905804236205" lon="14.744476097972717"><ele>-3.0</ele><time>2026-04-06T13:01:26.929Z</time></trkpt><trkpt lat="53.49065425858976" lon="14.744366910250095"><ele>-3.0</ele><time>2026-04-06T13:01:27.929Z</time></trkpt><trkpt lat="53.490712703154074" lon="14.74424615979056"><ele>-3.0</ele><time>2026-04-06T13:01:28.929Z</time></trkpt><trkpt lat="53.49078349476885" lon="14.7441135883485"><ele>-3.0</ele><time>2026-04-06T13:01:29.929Z</time></trkpt><trkpt lat="53.49083999785158" lon="14.744008803393223"><ele>-3.0</ele><time>2026-04-06T13:01:30.929Z</time></trkpt><trkpt lat="53.490890457617226" lon="14.743927893665623"><ele>-3.0</ele><time>2026-04-06T13:01:31.929Z</time></trkpt><trkpt lat="53.49098295895774" lon="14.74384439451249"><ele>-3.0</ele><time>2026-04-06T13:01:32.929Z</time></trkpt><trkpt lat="53.491063461809766" lon="14.7437521721283"><ele>-3.0</ele><time>2026-04-06T13:01:33.929Z</time></trkpt><trkpt lat="53.49111332794297" lon="14.74366704375895"><ele>-3.0</ele><time>2026-04-06T13:01:34.929Z</time></trkpt><trkpt lat="53.49117788118178" lon="14.743515570161385"><ele>-3.0</ele><time>2026-04-06T13:01:36.929Z</time></trkpt><trkpt lat="53.49122143355947" lon="14.743402718993293"><ele>-3.0</ele><time>2026-04-06T13:01:37.929Z</time></trkpt><trkpt lat="53.49128538597102" lon="14.743262231051139"><ele>-2.8</ele><time>2026-04-06T13:01:38.929Z</time></trkpt><trkpt lat="53.491346878771985" lon="14.743124254404876"><ele>-2.5999999999999996</ele><time>2026-04-06T13:01:39.929Z</time></trkpt><trkpt lat="53.491380003228755" lon="14.742961714774241"><ele>-2.4000000000000004</ele><time>2026-04-06T13:01:41.929Z</time></trkpt><trkpt lat="53.49140240919378" lon="14.742848475136318"><ele>-2.2</ele><time>2026-04-06T13:01:42.929Z</time></trkpt><trkpt lat="53.49143003668683" lon="14.742744428981409"><ele>-2.0</ele><time>2026-04-06T13:01:43.929Z</time></trkpt><trkpt lat="53.49149274571626" lon="14.742463269401803"><ele>-1.6666666666666665</ele><time>2026-04-06T13:01:44.929Z</time></trkpt><trkpt lat="53.491642622103186" lon="14.742186653174876"><ele>-1.3333333333333333</ele><time>2026-04-06T13:01:45.929Z</time></trkpt><trkpt lat="53.491719261490836" lon="14.742074474009613"><ele>-1.0</ele><time>2026-04-06T13:01:46.929Z</time></trkpt><trkpt lat="53.491838117161734" lon="14.741994821152792"><ele>-1.0</ele><time>2026-04-06T13:01:47.929Z</time></trkpt><trkpt lat="53.49203334740607" lon="14.742277134114337"><ele>-1.0</ele><time>2026-04-06T13:01:48.929Z</time></trkpt><trkpt lat="53.492062714222044" lon="14.742119952134647"><ele>-1.0</ele><time>2026-04-06T13:01:49.929Z</time></trkpt><trkpt lat="53.4920972972152" lon="14.741995874514345"><ele>-1.0</ele><time>2026-04-06T13:01:50.929Z</time></trkpt><trkpt lat="53.492152021130416" lon="14.741887641140387"><ele>-1.1666666666666665</ele><time>2026-04-06T13:01:51.929Z</time></trkpt><trkpt lat="53.49222427776171" lon="14.741780039401263"><ele>-1.3333333333333333</ele><time>2026-04-06T13:01:52.929Z</time></trkpt><trkpt lat="53.49229886110747" lon="14.741700423840362"><ele>-1.5</ele><time>2026-04-06T13:01:53.929Z</time></trkpt><trkpt lat="53.49237071732957" lon="14.7416290965021"><ele>-1.6666666666666665</ele><time>2026-04-06T13:01:54.929Z</time></trkpt><trkpt lat="53.492440137623596" lon="14.741631321218186"><ele>-1.8333333333333333</ele><time>2026-04-06T13:01:55.929Z</time></trkpt><trkpt lat="53.49251489277292" lon="14.741557972865557"><ele>-2.0</ele><time>2026-04-06T13:01:56.929Z</time></trkpt><trkpt lat="53.49259394479209" lon="14.741504825141009"><ele>-2.0</ele><time>2026-04-06T13:01:57.929Z</time></trkpt><trkpt lat="53.492679344024694" lon="14.741432912333414"><ele>-2.0</ele><time>2026-04-06T13:01:58.929Z</time></trkpt><trkpt lat="53.4927644676861" lon="14.741383503190589"><ele>-2.0</ele><time>2026-04-06T13:01:59.929Z</time></trkpt><trkpt lat="53.49285192317688" lon="14.741336537342054"><ele>-2.0</ele><time>2026-04-06T13:02:00.926Z</time></trkpt><trkpt lat="53.492942721428626" lon="14.741283141843784"><ele>-2.0</ele><time>2026-04-06T13:02:01.926Z</time></trkpt><trkpt lat="53.49302433645712" lon="14.74123471670725"><ele>-1.9999999999999998</ele><time>2026-04-06T13:02:02.926Z</time></trkpt><trkpt lat="53.49309737130941" lon="14.741224542584314"><ele>-2.0</ele><time>2026-04-06T13:02:03.927Z</time></trkpt><trkpt lat="53.49317313756804" lon="14.74119816300627"><ele>-2.0</ele><time>2026-04-06T13:02:04.927Z</time></trkpt><trkpt lat="53.49325767704936" lon="14.741180112980674"><ele>-2.0</ele><time>2026-04-06T13:02:05.927Z</time></trkpt><trkpt lat="53.49334704603455" lon="14.741167923146953"><ele>-1.9999999999999998</ele><time>2026-04-06T13:02:06.926Z</time></trkpt><trkpt lat="53.49343858870016" lon="14.741159174288148"><ele>-2.0</ele><time>2026-04-06T13:02:07.926Z</time></trkpt><trkpt lat="53.49355852931728" lon="14.741152099601749"><ele>-1.9999999999999998</ele><time>2026-04-06T13:02:09.927Z</time></trkpt><trkpt lat="53.493630447880896" lon="14.74115057361529"><ele>-2.0</ele><time>2026-04-06T13:02:10.926Z</time></trkpt><trkpt lat="53.493742565361266" lon="14.741149456333892"><ele>-2.0</ele><time>2026-04-06T13:02:12.926Z</time></trkpt><trkpt lat="53.49381464363196" lon="14.74114621085082"><ele>-2.0</ele><time>2026-04-06T13:02:14.926Z</time></trkpt><trkpt lat="53.493898367379686" lon="14.741142441040083"><ele>-1.9999999999999998</ele><time>2026-04-06T13:03:14.926Z</time></trkpt><trkpt lat="53.494007446775555" lon="14.741137529536173"><ele>-2.0</ele><time>2026-04-06T13:03:16.926Z</time></trkpt><trkpt lat="53.494079268908635" lon="14.74113354438264"><ele>-2.2</ele><time>2026-04-06T13:03:17.926Z</time></trkpt><trkpt lat="53.49415653992086" lon="14.741128392968083"><ele>-2.4000000000000004</ele><time>2026-04-06T13:03:18.926Z</time></trkpt><trkpt lat="53.4942462607179" lon="14.741121310751852"><ele>-2.5999999999999996</ele><time>2026-04-06T13:03:19.926Z</time></trkpt><trkpt lat="53.494339236151795" lon="14.741110067289064"><ele>-2.8</ele><time>2026-04-06T13:03:20.926Z</time></trkpt><trkpt lat="53.494436178615175" lon="14.741094331942158"><ele>-3.0</ele><time>2026-04-06T13:03:21.926Z</time></trkpt><trkpt lat="53.49453205271054" lon="14.741065722365091"><ele>-3.0</ele><time>2026-04-06T13:03:22.926Z</time></trkpt><trkpt lat="53.49463117288365" lon="14.741053512132154"><ele>-3.0</ele><time>2026-04-06T13:03:23.926Z</time></trkpt><trkpt lat="53.494739130735105" lon="14.741043453554685"><ele>-3.0</ele><time>2026-04-06T13:03:24.926Z</time></trkpt><trkpt lat="53.494839570942105" lon="14.741026109669601"><ele>-3.0</ele><time>2026-04-06T13:03:25.926Z</time></trkpt><trkpt lat="53.49492727684129" lon="14.741013123115195"><ele>-3.0</ele><time>2026-04-06T13:03:26.926Z</time></trkpt><trkpt lat="53.495026686256374" lon="14.740999796189687"><ele>-2.8</ele><time>2026-04-06T13:03:27.926Z</time></trkpt><trkpt lat="53.49512986496456" lon="14.740988831923884"><ele>-2.5999999999999996</ele><time>2026-04-06T13:03:28.926Z</time></trkpt><trkpt lat="53.495232272357875" lon="14.740972005105087"><ele>-2.4000000000000004</ele><time>2026-04-06T13:03:29.926Z</time></trkpt><trkpt lat="53.495336422025254" lon="14.740952366603423"><ele>-2.2</ele><time>2026-04-06T13:03:30.926Z</time></trkpt><trkpt lat="53.49543315273759" lon="14.740936441387218"><ele>-2.0</ele><time>2026-04-06T13:03:31.926Z</time></trkpt><trkpt lat="53.49553505182296" lon="14.740921474141052"><ele>-2.0</ele><time>2026-04-06T13:03:32.926Z</time></trkpt><trkpt lat="53.49563902060101" lon="14.740906347400102"><ele>-2.0</ele><time>2026-04-06T13:03:33.926Z</time></trkpt><trkpt lat="53.495742469692445" lon="14.740914035105245"><ele>-2.0</ele><time>2026-04-06T13:03:34.926Z</time></trkpt><trkpt lat="53.495856502414114" lon="14.740893382733748"><ele>-2.0</ele><time>2026-04-06T13:03:35.926Z</time></trkpt><trkpt lat="53.4959669529595" lon="14.74087652437577"><ele>-2.0</ele><time>2026-04-06T13:03:36.926Z</time></trkpt><trkpt lat="53.4960792062872" lon="14.74086075550641"><ele>-2.0</ele><time>2026-04-06T13:03:37.926Z</time></trkpt><trkpt lat="53.49618909645449" lon="14.74084827193582"><ele>-2.0</ele><time>2026-04-06T13:03:38.926Z</time></trkpt><trkpt lat="53.496291941710275" lon="14.740849997435198"><ele>-2.0</ele><time>2026-04-06T13:03:39.926Z</time></trkpt><trkpt lat="53.49639473462479" lon="14.740870873723116"><ele>-2.0</ele><time>2026-04-06T13:03:40.926Z</time></trkpt><trkpt lat="53.49650512028234" lon="14.740914498695796"><ele>-2.0</ele><time>2026-04-06T13:03:41.926Z</time></trkpt><trkpt lat="53.496608765799465" lon="14.740979786508467"><ele>-2.0</ele><time>2026-04-06T13:03:42.926Z</time></trkpt><trkpt lat="53.496688488417405" lon="14.74108837442591"><ele>-2.0</ele><time>2026-04-06T13:03:43.926Z</time></trkpt><trkpt lat="53.49677439615532" lon="14.741199931622923"><ele>-2.0</ele><time>2026-04-06T13:03:44.926Z</time></trkpt><trkpt lat="53.49686334735334" lon="14.741294625497924"><ele>-2.0</ele><time>2026-04-06T13:03:45.926Z</time></trkpt><trkpt lat="53.49692997274346" lon="14.74138153957813"><ele>-2.0</ele><time>2026-04-06T13:03:46.926Z</time></trkpt><trkpt lat="53.49699526653911" lon="14.741430560943588"><ele>-2.0</ele><time>2026-04-06T13:03:47.926Z</time></trkpt><trkpt lat="53.497061049385316" lon="14.741431190350507"><ele>-2.0</ele><time>2026-04-06T13:03:48.926Z</time></trkpt><trkpt lat="53.49718387661635" lon="14.74129936574923"><ele>-2.0</ele><time>2026-04-06T13:03:50.926Z</time></trkpt><trkpt lat="53.49726538111169" lon="14.741188005150299"><ele>-2.0</ele><time>2026-04-06T13:03:51.926Z</time></trkpt><trkpt lat="53.49735511285938" lon="14.741074694766592"><ele>-2.0</ele><time>2026-04-06T13:03:52.926Z</time></trkpt><trkpt lat="53.49741928810578" lon="14.740973654421165"><ele>-1.9999999999999998</ele><time>2026-04-06T13:03:53.926Z</time></trkpt><trkpt lat="53.49745486468962" lon="14.740853751495637"><ele>-2.0</ele><time>2026-04-06T13:03:54.926Z</time></trkpt><trkpt lat="53.497486307254576" lon="14.740715546751874"><ele>-2.0</ele><time>2026-04-06T13:03:55.926Z</time></trkpt><trkpt lat="53.49752746948636" lon="14.740593246875633"><ele>-2.0</ele><time>2026-04-06T13:03:56.926Z</time></trkpt><trkpt lat="53.49755958130129" lon="14.740476473261957"><ele>-1.9999999999999998</ele><time>2026-04-06T13:03:57.926Z</time></trkpt><trkpt lat="53.49760871775879" lon="14.740306887770052"><ele>-2.0</ele><time>2026-04-06T13:03:59.926Z</time></trkpt><trkpt lat="53.49772378131683" lon="14.740275641638831"><ele>-2.0</ele><time>2026-04-06T13:04:01.926Z</time></trkpt><trkpt lat="53.497789960791536" lon="14.740320112342488"><ele>-2.0</ele><time>2026-04-06T13:04:02.926Z</time></trkpt><trkpt lat="53.49786561773272" lon="14.740396098470029"><ele>-2.0</ele><time>2026-04-06T13:04:03.926Z</time></trkpt><trkpt lat="53.49796574224239" lon="14.740467076794353"><ele>-2.0</ele><time>2026-04-06T13:04:04.926Z</time></trkpt><trkpt lat="53.498081179501575" lon="14.740517854845217"><ele>-2.0</ele><time>2026-04-06T13:04:05.926Z</time></trkpt><trkpt lat="53.498191231214854" lon="14.740579579344653"><ele>-2.0</ele><time>2026-04-06T13:04:06.924Z</time></trkpt><trkpt lat="53.49828178876039" lon="14.740625315101644"><ele>-2.0</ele><time>2026-04-06T13:04:07.924Z</time></trkpt><trkpt lat="53.498377595446605" lon="14.740686513307022"><ele>-2.0</ele><time>2026-04-06T13:04:08.924Z</time></trkpt><trkpt lat="53.498461402222944" lon="14.74077289690681"><ele>-2.0</ele><time>2026-04-06T13:04:09.925Z</time></trkpt><trkpt lat="53.49853633562554" lon="14.740829392671138"><ele>-2.0</ele><time>2026-04-06T13:04:10.925Z</time></trkpt><trkpt lat="53.498625434787705" lon="14.740873699952328"><ele>-2.0</ele><time>2026-04-06T13:04:11.925Z</time></trkpt><trkpt lat="53.49872867878353" lon="14.740932876813309"><ele>-2.0</ele><time>2026-04-06T13:04:12.925Z</time></trkpt><trkpt lat="53.498836995986856" lon="14.74100613310799"><ele>-2.0</ele><time>2026-04-06T13:04:13.924Z</time></trkpt><trkpt lat="53.49894017983548" lon="14.741082133390075"><ele>-2.0</ele><time>2026-04-06T13:04:14.924Z</time></trkpt><trkpt lat="53.499042060742404" lon="14.741153113946975"><ele>-2.0</ele><time>2026-04-06T13:04:15.925Z</time></trkpt><trkpt lat="53.49915786304619" lon="14.741213864616547"><ele>-2.0</ele><time>2026-04-06T13:04:16.925Z</time></trkpt><trkpt lat="53.499254857069964" lon="14.74126771190927"><ele>-2.0</ele><time>2026-04-06T13:04:17.925Z</time></trkpt><trkpt lat="53.49934832626243" lon="14.741317390334324"><ele>-2.0</ele><time>2026-04-06T13:04:18.924Z</time></trkpt><trkpt lat="53.499441453752866" lon="14.74136889058709"><ele>-2.0</ele><time>2026-04-06T13:04:19.924Z</time></trkpt><trkpt lat="53.49955224880514" lon="14.741418391005169"><ele>-2.0</ele><time>2026-04-06T13:04:20.924Z</time></trkpt><trkpt lat="53.49965867847475" lon="14.741451024715005"><ele>-2.2</ele><time>2026-04-06T13:04:21.924Z</time></trkpt><trkpt lat="53.499756749222584" lon="14.741450608626282"><ele>-2.4000000000000004</ele><time>2026-04-06T13:04:22.924Z</time></trkpt><trkpt lat="53.49987547800186" lon="14.741465857262597"><ele>-2.5999999999999996</ele><time>2026-04-06T13:04:23.924Z</time></trkpt><trkpt lat="53.499987365608014" lon="14.741468006895817"><ele>-2.8</ele><time>2026-04-06T13:04:24.924Z</time></trkpt><trkpt lat="53.500096858494345" lon="14.741439044964633"><ele>-3.0</ele><time>2026-04-06T13:04:25.924Z</time></trkpt><trkpt lat="53.50021814866174" lon="14.74145600929237"><ele>-3.0</ele><time>2026-04-06T13:04:26.924Z</time></trkpt><trkpt lat="53.500333866061766" lon="14.741450337138867"><ele>-3.0</ele><time>2026-04-06T13:04:27.924Z</time></trkpt><trkpt lat="53.500437702602696" lon="14.741448312739415"><ele>-3.0</ele><time>2026-04-06T13:04:28.924Z</time></trkpt><trkpt lat="53.50054092434372" lon="14.741441153621864"><ele>-3.0</ele><time>2026-04-06T13:04:29.924Z</time></trkpt><trkpt lat="53.50065100432044" lon="14.74143675154322"><ele>-3.0</ele><time>2026-04-06T13:04:30.924Z</time></trkpt><trkpt lat="53.50076002324544" lon="14.741433904318185"><ele>-2.75</ele><time>2026-04-06T13:04:31.924Z</time></trkpt><trkpt lat="53.50087208220629" lon="14.741432284074431"><ele>-2.5</ele><time>2026-04-06T13:04:32.924Z</time></trkpt><trkpt lat="53.50098713913722" lon="14.741437678562676"><ele>-2.25</ele><time>2026-04-06T13:04:33.924Z</time></trkpt><trkpt lat="53.50110214584259" lon="14.741427628895618"><ele>-2.0</ele><time>2026-04-06T13:04:34.924Z</time></trkpt><trkpt lat="53.50121897182152" lon="14.741423859406211"><ele>-2.0</ele><time>2026-04-06T13:04:35.924Z</time></trkpt><trkpt lat="53.50132999298536" lon="14.741413320349299"><ele>-2.0</ele><time>2026-04-06T13:04:36.924Z</time></trkpt><trkpt lat="53.50142582562221" lon="14.741397340756249"><ele>-2.0</ele><time>2026-04-06T13:04:37.924Z</time></trkpt><trkpt lat="53.50152421958349" lon="14.74139404926002"><ele>-2.0</ele><time>2026-04-06T13:04:38.924Z</time></trkpt><trkpt lat="53.501631515156475" lon="14.741380869186484"><ele>-2.0</ele><time>2026-04-06T13:04:39.924Z</time></trkpt><trkpt lat="53.50174553341137" lon="14.741364172089847"><ele>-2.0</ele><time>2026-04-06T13:04:40.924Z</time></trkpt><trkpt lat="53.501866414991724" lon="14.741329206067087"><ele>-2.0</ele><time>2026-04-06T13:04:41.924Z</time></trkpt><trkpt lat="53.50198372543197" lon="14.741303246006089"><ele>-2.0</ele><time>2026-04-06T13:04:42.924Z</time></trkpt><trkpt lat="53.502107166316804" lon="14.74125921884473"><ele>-2.0</ele><time>2026-04-06T13:04:43.924Z</time></trkpt><trkpt lat="53.50222252610651" lon="14.741212737864512"><ele>-2.0</ele><time>2026-04-06T13:04:44.924Z</time></trkpt><trkpt lat="53.50235359942187" lon="14.741166783279725"><ele>-2.0</ele><time>2026-04-06T13:04:45.924Z</time></trkpt><trkpt lat="53.502495335633824" lon="14.741123545254734"><ele>-2.0</ele><time>2026-04-06T13:04:46.924Z</time></trkpt><trkpt lat="53.50263668026883" lon="14.74108261645159"><ele>-2.0</ele><time>2026-04-06T13:04:47.924Z</time></trkpt><trkpt lat="53.502782768000316" lon="14.741043640142266"><ele>-1.75</ele><time>2026-04-06T13:04:48.924Z</time></trkpt><trkpt lat="53.50292422377991" lon="14.74100992715176"><ele>-1.5</ele><time>2026-04-06T13:04:49.924Z</time></trkpt><trkpt lat="53.503048720896" lon="14.741018036242071"><ele>-1.25</ele><time>2026-04-06T13:04:50.924Z</time></trkpt><trkpt lat="53.50318565503729" lon="14.741007356982799"><ele>-1.0</ele><time>2026-04-06T13:04:51.924Z</time></trkpt><trkpt lat="53.50332599446075" lon="14.741003785931689"><ele>-1.0</ele><time>2026-04-06T13:04:52.924Z</time></trkpt><trkpt lat="53.503452235901975" lon="14.741001888248094"><ele>-1.0</ele><time>2026-04-06T13:04:53.924Z</time></trkpt><trkpt lat="53.50358146347816" lon="14.741004109216094"><ele>-1.0</ele><time>2026-04-06T13:04:54.924Z</time></trkpt><trkpt lat="53.503715403416464" lon="14.741009272923883"><ele>-1.0</ele><time>2026-04-06T13:04:55.924Z</time></trkpt><trkpt lat="53.50385182131067" lon="14.74101210021222"><ele>-0.75</ele><time>2026-04-06T13:04:56.924Z</time></trkpt><trkpt lat="53.503986477673465" lon="14.741023432695835"><ele>-0.5</ele><time>2026-04-06T13:04:57.924Z</time></trkpt><trkpt lat="53.504120270895264" lon="14.741045451373646"><ele>-0.25</ele><time>2026-04-06T13:04:58.924Z</time></trkpt><trkpt lat="53.504255065478354" lon="14.741057268718189"><ele>0.0</ele><time>2026-04-06T13:04:59.924Z</time></trkpt><trkpt lat="53.504383090342635" lon="14.741074540236497"><ele>-0.5</ele><time>2026-04-06T13:05:00.924Z</time></trkpt><trkpt lat="53.50450802552894" lon="14.741090698115125"><ele>-1.0</ele><time>2026-04-06T13:05:01.924Z</time></trkpt><trkpt lat="53.50462842488611" lon="14.741111379927409"><ele>-1.5</ele><time>2026-04-06T13:05:02.924Z</time></trkpt><trkpt lat="53.50475625044383" lon="14.741118812728027"><ele>-2.0</ele><time>2026-04-06T13:05:03.924Z</time></trkpt><trkpt lat="53.50488852860776" lon="14.741137231375774"><ele>-2.0</ele><time>2026-04-06T13:05:04.924Z</time></trkpt><trkpt lat="53.505029517046694" lon="14.741151669373815"><ele>-2.0</ele><time>2026-04-06T13:05:05.924Z</time></trkpt><trkpt lat="53.5051777732469" lon="14.741169680689397"><ele>-2.0</ele><time>2026-04-06T13:05:06.924Z</time></trkpt><trkpt lat="53.50532384368966" lon="14.741193611341606"><ele>-2.0</ele><time>2026-04-06T13:05:07.924Z</time></trkpt><trkpt lat="53.505471422942676" lon="14.7412241498582"><ele>-2.0</ele><time>2026-04-06T13:05:08.924Z</time></trkpt><trkpt lat="53.50560773294244" lon="14.741239532066619"><ele>-2.0</ele><time>2026-04-06T13:05:09.924Z</time></trkpt><trkpt lat="53.50574692174943" lon="14.74125396027756"><ele>-2.0</ele><time>2026-04-06T13:05:10.924Z</time></trkpt><trkpt lat="53.50589382326657" lon="14.741269271153575"><ele>-2.0</ele><time>2026-04-06T13:05:11.924Z</time></trkpt><trkpt lat="53.506047928306316" lon="14.741280402159816"><ele>-2.0</ele><time>2026-04-06T13:05:12.924Z</time></trkpt><trkpt lat="53.50618219561609" lon="14.741297873097384"><ele>-2.0</ele><time>2026-04-06T13:05:13.924Z</time></trkpt><trkpt lat="53.5062999925769" lon="14.741296127353229"><ele>-2.0</ele><time>2026-04-06T13:05:14.924Z</time></trkpt><trkpt lat="53.50640692027401" lon="14.741304205195437"><ele>-2.0</ele><time>2026-04-06T13:05:15.924Z</time></trkpt><trkpt lat="53.50650606019351" lon="14.741317765379753"><ele>-2.0</ele><time>2026-04-06T13:05:16.924Z</time></trkpt><trkpt lat="53.5065937817457" lon="14.741329533202066"><ele>-2.0</ele><time>2026-04-06T13:05:17.924Z</time></trkpt><trkpt lat="53.5066768792418" lon="14.741335019285886"><ele>-2.0</ele><time>2026-04-06T13:05:18.924Z</time></trkpt><trkpt lat="53.50678589399543" lon="14.74131951708976"><ele>-2.0</ele><time>2026-04-06T13:05:19.924Z</time></trkpt><trkpt lat="53.506878864804435" lon="14.741298749873005"><ele>-2.0</ele><time>2026-04-06T13:05:20.924Z</time></trkpt><trkpt lat="53.50698039989993" lon="14.74121312935958"><ele>-1.75</ele><time>2026-04-06T13:05:21.924Z</time></trkpt><trkpt lat="53.5071003857397" lon="14.741156169229521"><ele>-1.5</ele><time>2026-04-06T13:05:22.924Z</time></trkpt><trkpt lat="53.50723164367814" lon="14.741096060594385"><ele>-1.25</ele><time>2026-04-06T13:05:23.924Z</time></trkpt><trkpt lat="53.50736101658741" lon="14.741034337794819"><ele>-1.0</ele><time>2026-04-06T13:05:24.924Z</time></trkpt><trkpt lat="53.50748502474691" lon="14.740973353910364"><ele>-0.75</ele><time>2026-04-06T13:05:25.924Z</time></trkpt><trkpt lat="53.507608768983744" lon="14.740909975007398"><ele>-0.5</ele><time>2026-04-06T13:05:26.924Z</time></trkpt><trkpt lat="53.50773425394392" lon="14.74084892245794"><ele>-0.25</ele><time>2026-04-06T13:05:27.924Z</time></trkpt><trkpt lat="53.50786436609946" lon="14.740779453822745"><ele>0.0</ele><time>2026-04-06T13:05:28.924Z</time></trkpt><trkpt lat="53.507994310684815" lon="14.740714429826703"><ele>0.0</ele><time>2026-04-06T13:05:29.924Z</time></trkpt><trkpt lat="53.50810262815955" lon="14.74065721277615"><ele>0.0</ele><time>2026-04-06T13:05:30.924Z</time></trkpt><trkpt lat="53.508217073096596" lon="14.74060245335918"><ele>0.0</ele><time>2026-04-06T13:05:31.924Z</time></trkpt><trkpt lat="53.50833450815647" lon="14.740545879574984"><ele>0.0</ele><time>2026-04-06T13:05:32.924Z</time></trkpt><trkpt lat="53.50843185066536" lon="14.740477940123021"><ele>0.0</ele><time>2026-04-06T13:05:33.924Z</time></trkpt><trkpt lat="53.50851711650106" lon="14.740445368024524"><ele>0.0</ele><time>2026-04-06T13:05:34.924Z</time></trkpt><trkpt lat="53.50859970448434" lon="14.740371888229351"><ele>0.0</ele><time>2026-04-06T13:05:35.924Z</time></trkpt><trkpt lat="53.50867685808551" lon="14.740345022618918"><ele>0.0</ele><time>2026-04-06T13:05:36.924Z</time></trkpt><trkpt lat="53.50876798935869" lon="14.740296637598924"><ele>0.0</ele><time>2026-04-06T13:05:37.924Z</time></trkpt><trkpt lat="53.508847181404434" lon="14.740250019117614"><ele>0.0</ele><time>2026-04-06T13:05:38.924Z</time></trkpt><trkpt lat="53.50892632888461" lon="14.740198828819667"><ele>0.5</ele><time>2026-04-06T13:05:39.924Z</time></trkpt><trkpt lat="53.509005955788886" lon="14.740140113930366"><ele>1.0</ele><time>2026-04-06T13:05:40.924Z</time></trkpt><trkpt lat="53.50908111804423" lon="14.74006065746256"><ele>1.5</ele><time>2026-04-06T13:05:41.924Z</time></trkpt><trkpt lat="53.50914773656436" lon="14.739982740783145"><ele>2.0</ele><time>2026-04-06T13:05:42.924Z</time></trkpt><trkpt lat="53.509212539472024" lon="14.73991708019212"><ele>2.5</ele><time>2026-04-06T13:05:43.924Z</time></trkpt><trkpt lat="53.50929255132234" lon="14.73987143264558"><ele>3.0</ele><time>2026-04-06T13:05:44.924Z</time></trkpt><trkpt lat="53.509378011126465" lon="14.739807480457442"><ele>3.0</ele><time>2026-04-06T13:05:45.924Z</time></trkpt><trkpt lat="53.509468273003954" lon="14.739721529778139"><ele>3.0</ele><time>2026-04-06T13:05:46.924Z</time></trkpt><trkpt lat="53.50956353680533" lon="14.739646996900062"><ele>3.0</ele><time>2026-04-06T13:05:47.924Z</time></trkpt><trkpt lat="53.5096566396708" lon="14.73959045340563"><ele>3.0</ele><time>2026-04-06T13:05:48.924Z</time></trkpt><trkpt lat="53.50975433663073" lon="14.73952525681761"><ele>3.0</ele><time>2026-04-06T13:05:49.924Z</time></trkpt><trkpt lat="53.50985544320202" lon="14.739455819421707"><ele>3.1666666666666665</ele><time>2026-04-06T13:05:50.924Z</time></trkpt><trkpt lat="53.50994121110438" lon="14.739406012209654"><ele>3.333333333333333</ele><time>2026-04-06T13:05:51.924Z</time></trkpt><trkpt lat="53.51001191741057" lon="14.739358529982768"><ele>3.5</ele><time>2026-04-06T13:05:52.924Z</time></trkpt><trkpt lat="53.51007363287926" lon="14.739305828424767"><ele>3.6666666666666665</ele><time>2026-04-06T13:05:53.924Z</time></trkpt><trkpt lat="53.51014082923882" lon="14.73923114566364"><ele>3.833333333333333</ele><time>2026-04-06T13:05:54.924Z</time></trkpt><trkpt lat="53.51022806667262" lon="14.739180180091372"><ele>4.0</ele><time>2026-04-06T13:05:56.924Z</time></trkpt><trkpt lat="53.51029831472099" lon="14.739168862049022"><ele>4.0</ele><time>2026-04-06T13:06:07.924Z</time></trkpt><trkpt lat="53.510345388135796" lon="14.73933052465215"><ele>4.0</ele><time>2026-04-06T13:06:08.924Z</time></trkpt><trkpt lat="53.51036057100798" lon="14.739475600375684"><ele>4.0</ele><time>2026-04-06T13:06:09.924Z</time></trkpt><trkpt lat="53.5103995419923" lon="14.739663239228273"><ele>4.0</ele><time>2026-04-06T13:06:10.924Z</time></trkpt><trkpt lat="53.510440532037386" lon="14.739872912817086"><ele>4.0</ele><time>2026-04-06T13:06:11.924Z</time></trkpt><trkpt lat="53.51047688052951" lon="14.740048960584057"><ele>3.8000000000000003</ele><time>2026-04-06T13:06:12.922Z</time></trkpt><trkpt lat="53.51051292969789" lon="14.740206417214912"><ele>3.6000000000000005</ele><time>2026-04-06T13:06:13.922Z</time></trkpt><trkpt lat="53.510541242119345" lon="14.740352731575284"><ele>3.4</ele><time>2026-04-06T13:06:14.922Z</time></trkpt><trkpt lat="53.51057453065881" lon="14.74049340242469"><ele>3.2</ele><time>2026-04-06T13:06:15.922Z</time></trkpt><trkpt lat="53.51061406302443" lon="14.740633741659803"><ele>3.0</ele><time>2026-04-06T13:06:16.922Z</time></trkpt><trkpt lat="53.51066602171581" lon="14.740771253647372"><ele>3.0</ele><time>2026-04-06T13:06:17.922Z</time></trkpt><trkpt lat="53.51073784198088" lon="14.74090817750515"><ele>3.0</ele><time>2026-04-06T13:06:18.922Z</time></trkpt><trkpt lat="53.51082384001555" lon="14.741027680698316"><ele>3.0</ele><time>2026-04-06T13:06:19.922Z</time></trkpt><trkpt lat="53.5109088438264" lon="14.741140381368536"><ele>3.0</ele><time>2026-04-06T13:06:20.922Z</time></trkpt><trkpt lat="53.510993341931744" lon="14.741262233700109"><ele>3.0</ele><time>2026-04-06T13:06:21.922Z</time></trkpt><trkpt lat="53.5110789429117" lon="14.741377699902445"><ele>3.2</ele><time>2026-04-06T13:06:22.921Z</time></trkpt><trkpt lat="53.51115635032308" lon="14.741487305225576"><ele>3.4</ele><time>2026-04-06T13:06:23.921Z</time></trkpt><trkpt lat="53.511245382586445" lon="14.741584283851093"><ele>3.6000000000000005</ele><time>2026-04-06T13:06:24.922Z</time></trkpt><trkpt lat="53.51133337887976" lon="14.741693223754979"><ele>3.8000000000000003</ele><time>2026-04-06T13:06:25.922Z</time></trkpt><trkpt lat="53.51142436706562" lon="14.741802766463218"><ele>4.0</ele><time>2026-04-06T13:06:26.922Z</time></trkpt><trkpt lat="53.51151981898197" lon="14.741923394530428"><ele>4.25</ele><time>2026-04-06T13:06:27.922Z</time></trkpt><trkpt lat="53.51162993207438" lon="14.74206129503621"><ele>4.5</ele><time>2026-04-06T13:06:28.922Z</time></trkpt><trkpt lat="53.51174923214822" lon="14.742211332452902"><ele>4.75</ele><time>2026-04-06T13:06:29.922Z</time></trkpt><trkpt lat="53.51186179307612" lon="14.742354656877465"><ele>5.0</ele><time>2026-04-06T13:06:30.922Z</time></trkpt><trkpt lat="53.511976969694416" lon="14.74251164505553"><ele>4.75</ele><time>2026-04-06T13:06:31.922Z</time></trkpt><trkpt lat="53.51208814266927" lon="14.742658684630369"><ele>4.5</ele><time>2026-04-06T13:06:32.922Z</time></trkpt><trkpt lat="53.51219554896301" lon="14.7427824478341"><ele>4.25</ele><time>2026-04-06T13:06:33.922Z</time></trkpt><trkpt lat="53.512287849095266" lon="14.74290237385744"><ele>4.0</ele><time>2026-04-06T13:06:34.922Z</time></trkpt><trkpt lat="53.512378833506105" lon="14.743004468180898"><ele>4.0</ele><time>2026-04-06T13:06:35.922Z</time></trkpt><trkpt lat="53.512466907590564" lon="14.743107394908517"><ele>4.0</ele><time>2026-04-06T13:06:36.922Z</time></trkpt><trkpt lat="53.51255545527403" lon="14.743221178128238"><ele>4.0</ele><time>2026-04-06T13:06:37.922Z</time></trkpt><trkpt lat="53.512661577240976" lon="14.743342378713848"><ele>4.0</ele><time>2026-04-06T13:06:38.922Z</time></trkpt><trkpt lat="53.512764488351934" lon="14.743467489781645"><ele>4.0</ele><time>2026-04-06T13:06:39.922Z</time></trkpt><trkpt lat="53.51286972500527" lon="14.743586220139642"><ele>4.0</ele><time>2026-04-06T13:06:40.922Z</time></trkpt><trkpt lat="53.512971149411705" lon="14.743704356153478"><ele>4.0</ele><time>2026-04-06T13:06:41.922Z</time></trkpt><trkpt lat="53.51307112922708" lon="14.743810492136507"><ele>4.0</ele><time>2026-04-06T13:06:42.922Z</time></trkpt><trkpt lat="53.51315424585046" lon="14.743903086982257"><ele>3.9999999999999996</ele><time>2026-04-06T13:06:43.922Z</time></trkpt><trkpt lat="53.513232517487204" lon="14.743984414295833"><ele>4.0</ele><time>2026-04-06T13:06:44.922Z</time></trkpt><trkpt lat="53.51329983005063" lon="14.744054650403056"><ele>4.0</ele><time>2026-04-06T13:06:45.922Z</time></trkpt><trkpt lat="53.513358320498845" lon="14.744111729622798"><ele>4.0</ele><time>2026-04-06T13:06:46.922Z</time></trkpt><trkpt lat="53.513440035334966" lon="14.744203133960195"><ele>3.9999999999999996</ele><time>2026-04-06T13:06:48.922Z</time></trkpt><trkpt lat="53.513510227929714" lon="14.744268953392114"><ele>4.0</ele><time>2026-04-06T13:06:51.922Z</time></trkpt><trkpt lat="53.51355797202779" lon="14.744191606608862"><ele>4.0</ele><time>2026-04-06T13:06:52.922Z</time></trkpt><trkpt lat="53.513639210616596" lon="14.744150868807989"><ele>4.0</ele><time>2026-04-06T13:06:55.922Z</time></trkpt><trkpt lat="53.5137238937353" lon="14.744123770493571"><ele>4.0</ele><time>2026-04-06T13:06:58.922Z</time></trkpt><trkpt lat="53.51381439584159" lon="14.744095751636495"><ele>4.0</ele><time>2026-04-06T13:07:00.922Z</time></trkpt><trkpt lat="53.51387929828003" lon="14.744105405065046"><ele>4.0</ele><time>2026-04-06T13:07:01.922Z</time></trkpt><trkpt lat="53.514017415048585" lon="14.744078301272856"><ele>4.333333333333333</ele><time>2026-04-06T13:07:03.922Z</time></trkpt><trkpt lat="53.51409453117856" lon="14.744067533847575"><ele>4.666666666666666</ele><time>2026-04-06T13:07:04.922Z</time></trkpt><trkpt lat="53.51417600570575" lon="14.744058095471198"><ele>5.0</ele><time>2026-04-06T13:07:05.922Z</time></trkpt><trkpt lat="53.51426407919423" lon="14.744051678798638"><ele>5.333333333333333</ele><time>2026-04-06T13:07:06.922Z</time></trkpt><trkpt lat="53.51435397074094" lon="14.74404575234173"><ele>5.666666666666667</ele><time>2026-04-06T13:07:07.922Z</time></trkpt><trkpt lat="53.514452143265345" lon="14.74404032622713"><ele>6.0</ele><time>2026-04-06T13:07:08.922Z</time></trkpt><trkpt lat="53.51454482534316" lon="14.744035885694807"><ele>6.0</ele><time>2026-04-06T13:07:09.922Z</time></trkpt><trkpt lat="53.51464359366147" lon="14.744032526565679"><ele>6.0</ele><time>2026-04-06T13:07:10.922Z</time></trkpt><trkpt lat="53.51475030921137" lon="14.744028873974711"><ele>6.0</ele><time>2026-04-06T13:07:11.922Z</time></trkpt><trkpt lat="53.514831642102365" lon="14.744026061472606"><ele>6.0</ele><time>2026-04-06T13:07:12.922Z</time></trkpt><trkpt lat="53.514903461541536" lon="14.744023577961245"><ele>6.0</ele><time>2026-04-06T13:07:13.922Z</time></trkpt><trkpt lat="53.514981322775355" lon="14.744020885509626"><ele>6.0</ele><time>2026-04-06T13:07:14.922Z</time></trkpt><trkpt lat="53.51505995639913" lon="14.743996245847098"><ele>6.0</ele><time>2026-04-06T13:07:15.922Z</time></trkpt><trkpt lat="53.51514815075639" lon="14.744015020158024"><ele>6.0</ele><time>2026-04-06T13:07:16.922Z</time></trkpt><trkpt lat="53.51524375694874" lon="14.744011170862946"><ele>6.0</ele><time>2026-04-06T13:07:17.922Z</time></trkpt><trkpt lat="53.51534023415554" lon="14.744006268783023"><ele>6.0</ele><time>2026-04-06T13:07:18.922Z</time></trkpt><trkpt lat="53.51542489701087" lon="14.743976607973604"><ele>6.0</ele><time>2026-04-06T13:07:19.922Z</time></trkpt><trkpt lat="53.5155024259001" lon="14.743995793143357"><ele>6.0</ele><time>2026-04-06T13:07:20.922Z</time></trkpt><trkpt lat="53.5155837559475" lon="14.743988474127274"><ele>5.6</ele><time>2026-04-06T13:07:21.922Z</time></trkpt><trkpt lat="53.51566212413348" lon="14.74395355378445"><ele>5.199999999999999</ele><time>2026-04-06T13:07:22.922Z</time></trkpt><trkpt lat="53.51575435842661" lon="14.743938600949887"><ele>4.800000000000001</ele><time>2026-04-06T13:07:23.922Z</time></trkpt><trkpt lat="53.51585491506978" lon="14.743950851151364"><ele>4.4</ele><time>2026-04-06T13:07:24.922Z</time></trkpt><trkpt lat="53.51594732262687" lon="14.74393729274038"><ele>4.0</ele><time>2026-04-06T13:07:25.922Z</time></trkpt><trkpt lat="53.516037083750234" lon="14.743925535260688"><ele>3.9999999999999996</ele><time>2026-04-06T13:07:26.922Z</time></trkpt><trkpt lat="53.51612339925772" lon="14.74391876174407"><ele>4.0</ele><time>2026-04-06T13:07:27.922Z</time></trkpt><trkpt lat="53.51620989610936" lon="14.743890027041434"><ele>4.0</ele><time>2026-04-06T13:07:28.922Z</time></trkpt><trkpt lat="53.51628137290146" lon="14.743920432292596"><ele>4.0</ele><time>2026-04-06T13:07:29.922Z</time></trkpt><trkpt lat="53.5163669300411" lon="14.7439325686771"><ele>3.9999999999999996</ele><time>2026-04-06T13:07:30.922Z</time></trkpt><trkpt lat="53.516446699732406" lon="14.74392687637971"><ele>4.0</ele><time>2026-04-06T13:07:31.922Z</time></trkpt><trkpt lat="53.516520334471316" lon="14.743963142919222"><ele>3.9999999999999996</ele><time>2026-04-06T13:07:32.922Z</time></trkpt><trkpt lat="53.51659854916953" lon="14.744013548246219"><ele>4.0</ele><time>2026-04-06T13:07:33.922Z</time></trkpt><trkpt lat="53.516669168828464" lon="14.744054214587926"><ele>4.0</ele><time>2026-04-06T13:07:34.922Z</time></trkpt><trkpt lat="53.516755112561235" lon="14.744064667874875"><ele>4.0</ele><time>2026-04-06T13:07:35.922Z</time></trkpt><trkpt lat="53.51684193885641" lon="14.744103394740542"><ele>3.9999999999999996</ele><time>2026-04-06T13:07:36.922Z</time></trkpt><trkpt lat="53.51694140762478" lon="14.744142788966101"><ele>4.0</ele><time>2026-04-06T13:07:37.922Z</time></trkpt><trkpt lat="53.51703205816128" lon="14.744209930311335"><ele>4.333333333333333</ele><time>2026-04-06T13:07:38.922Z</time></trkpt><trkpt lat="53.51711423912073" lon="14.744248116523774"><ele>4.666666666666666</ele><time>2026-04-06T13:07:39.922Z</time></trkpt><trkpt lat="53.51719240039094" lon="14.744284434962145"><ele>5.0</ele><time>2026-04-06T13:07:40.922Z</time></trkpt><trkpt lat="53.51726981702875" lon="14.744290686332327"><ele>5.333333333333333</ele><time>2026-04-06T13:07:41.922Z</time></trkpt><trkpt lat="53.51736308547301" lon="14.744360351623781"><ele>5.666666666666667</ele><time>2026-04-06T13:07:42.922Z</time></trkpt><trkpt lat="53.51745817982729" lon="14.744402441414248"><ele>6.0</ele><time>2026-04-06T13:07:43.922Z</time></trkpt><trkpt lat="53.517570888536554" lon="14.744452345542024"><ele>6.199999999999999</ele><time>2026-04-06T13:07:44.922Z</time></trkpt><trkpt lat="53.51767857650834" lon="14.74447217093943"><ele>6.3999999999999995</ele><time>2026-04-06T13:07:45.922Z</time></trkpt><trkpt lat="53.51777617330993" lon="14.74451365174135"><ele>6.6</ele><time>2026-04-06T13:07:46.922Z</time></trkpt><trkpt lat="53.51787187782569" lon="14.744562868726986"><ele>6.8</ele><time>2026-04-06T13:07:47.922Z</time></trkpt><trkpt lat="53.51796648508931" lon="14.744622567143496"><ele>7.0</ele><time>2026-04-06T13:07:48.922Z</time></trkpt><trkpt lat="53.51806865979899" lon="14.744664000374039"><ele>7.0</ele><time>2026-04-06T13:07:49.922Z</time></trkpt><trkpt lat="53.51816002315613" lon="14.744674405681764"><ele>6.999999999999999</ele><time>2026-04-06T13:07:50.922Z</time></trkpt><trkpt lat="53.5182479013692" lon="14.744709488444157"><ele>6.999999999999999</ele><time>2026-04-06T13:07:51.922Z</time></trkpt><trkpt lat="53.518343144014516" lon="14.744749185355133"><ele>7.0</ele><time>2026-04-06T13:07:52.922Z</time></trkpt><trkpt lat="53.518439321361605" lon="14.744773489671216"><ele>7.0</ele><time>2026-04-06T13:07:53.922Z</time></trkpt><trkpt lat="53.51854133753539" lon="14.744808706462262"><ele>7.0</ele><time>2026-04-06T13:07:54.922Z</time></trkpt><trkpt lat="53.51864059601765" lon="14.744852504612352"><ele>6.999999999999999</ele><time>2026-04-06T13:07:55.922Z</time></trkpt><trkpt lat="53.518736522003366" lon="14.744876741029431"><ele>6.999999999999999</ele><time>2026-04-06T13:07:56.922Z</time></trkpt><trkpt lat="53.518830122898066" lon="14.744939072326257"><ele>7.0</ele><time>2026-04-06T13:07:57.922Z</time></trkpt><trkpt lat="53.51892561220507" lon="14.744977756305323"><ele>7.0</ele><time>2026-04-06T13:07:58.922Z</time></trkpt><trkpt lat="53.51902707568229" lon="14.745019017974146"><ele>6.8</ele><time>2026-04-06T13:07:59.922Z</time></trkpt><trkpt lat="53.519130795052476" lon="14.745062313808155"><ele>6.6</ele><time>2026-04-06T13:08:00.922Z</time></trkpt><trkpt lat="53.51923285738974" lon="14.745104917951258"><ele>6.3999999999999995</ele><time>2026-04-06T13:08:01.922Z</time></trkpt><trkpt lat="53.51934227278023" lon="14.74515058935351"><ele>6.199999999999999</ele><time>2026-04-06T13:08:02.922Z</time></trkpt><trkpt lat="53.5194493951331" lon="14.745194927383318"><ele>6.0</ele><time>2026-04-06T13:08:03.922Z</time></trkpt><trkpt lat="53.51955224281478" lon="14.745229467760094"><ele>6.8</ele><time>2026-04-06T13:08:04.922Z</time></trkpt><trkpt lat="53.51965248250966" lon="14.745261993035683"><ele>7.6</ele><time>2026-04-06T13:08:05.922Z</time></trkpt><trkpt lat="53.51976489655705" lon="14.745308522842521"><ele>8.4</ele><time>2026-04-06T13:08:06.922Z</time></trkpt><trkpt lat="53.519869175003215" lon="14.745352453172838"><ele>9.2</ele><time>2026-04-06T13:08:07.922Z</time></trkpt><trkpt lat="53.51998108596335" lon="14.745421262430714"><ele>10.0</ele><time>2026-04-06T13:08:08.922Z</time></trkpt><trkpt lat="53.52008967145721" lon="14.745450800121331"><ele>10.0</ele><time>2026-04-06T13:08:09.922Z</time></trkpt><trkpt lat="53.520202274944495" lon="14.74549683397194"><ele>10.0</ele><time>2026-04-06T13:08:10.922Z</time></trkpt><trkpt lat="53.520311178151914" lon="14.74553923955547"><ele>10.0</ele><time>2026-04-06T13:08:11.922Z</time></trkpt><trkpt lat="53.52042062752292" lon="14.74560805455156"><ele>10.0</ele><time>2026-04-06T13:08:12.922Z</time></trkpt><trkpt lat="53.52053770663708" lon="14.745657912954607"><ele>9.0</ele><time>2026-04-06T13:08:13.922Z</time></trkpt><trkpt lat="53.52066151762566" lon="14.745710017032595"><ele>8.0</ele><time>2026-04-06T13:08:14.922Z</time></trkpt><trkpt lat="53.52078782297172" lon="14.745743170975807"><ele>7.0</ele><time>2026-04-06T13:08:15.922Z</time></trkpt><trkpt lat="53.5209167817625" lon="14.74580636374789"><ele>6.0</ele><time>2026-04-06T13:08:16.922Z</time></trkpt><trkpt lat="53.52104781280458" lon="14.745858715324493"><ele>6.0</ele><time>2026-04-06T13:08:17.922Z</time></trkpt><trkpt lat="53.52116753201699" lon="14.745906420816866"><ele>6.0</ele><time>2026-04-06T13:08:18.92Z</time></trkpt><trkpt lat="53.521290533774874" lon="14.74596859005084"><ele>6.0</ele><time>2026-04-06T13:08:19.92Z</time></trkpt><trkpt lat="53.52141134216308" lon="14.746013471773317"><ele>6.0</ele><time>2026-04-06T13:08:20.92Z</time></trkpt><trkpt lat="53.52151987734377" lon="14.746057982535891"><ele>7.0</ele><time>2026-04-06T13:08:21.92Z</time></trkpt><trkpt lat="53.52162362881709" lon="14.746128948878143"><ele>8.0</ele><time>2026-04-06T13:08:22.92Z</time></trkpt><trkpt lat="53.52173646720058" lon="14.746175115161085"><ele>9.0</ele><time>2026-04-06T13:08:23.92Z</time></trkpt><trkpt lat="53.52185418177043" lon="14.74622941285393"><ele>10.0</ele><time>2026-04-06T13:08:24.92Z</time></trkpt><trkpt lat="53.521986849542856" lon="14.746252424748969"><ele>9.6</ele><time>2026-04-06T13:08:25.92Z</time></trkpt><trkpt lat="53.52211225168542" lon="14.746298793319207"><ele>9.2</ele><time>2026-04-06T13:08:26.92Z</time></trkpt><trkpt lat="53.5222178683791" lon="14.746357030890726"><ele>8.8</ele><time>2026-04-06T13:08:27.92Z</time></trkpt><trkpt lat="53.522309334108506" lon="14.746398060483958"><ele>8.4</ele><time>2026-04-06T13:08:28.92Z</time></trkpt><trkpt lat="53.52239098084807" lon="14.746436891058101"><ele>8.0</ele><time>2026-04-06T13:08:29.92Z</time></trkpt><trkpt lat="53.5224941553502" lon="14.746476039827916"><ele>8.0</ele><time>2026-04-06T13:08:30.92Z</time></trkpt><trkpt lat="53.522599027699904" lon="14.74651529181377"><ele>8.0</ele><time>2026-04-06T13:08:31.92Z</time></trkpt><trkpt lat="53.52271682179139" lon="14.746574397736671"><ele>8.0</ele><time>2026-04-06T13:08:32.92Z</time></trkpt><trkpt lat="53.522822210025204" lon="14.746650260763323"><ele>8.0</ele><time>2026-04-06T13:08:33.92Z</time></trkpt><trkpt lat="53.522922375720846" lon="14.746718220535003"><ele>7.0</ele><time>2026-04-06T13:08:34.92Z</time></trkpt><trkpt lat="53.523037866309814" lon="14.746768656397046"><ele>6.0</ele><time>2026-04-06T13:08:35.92Z</time></trkpt><trkpt lat="53.523157150369016" lon="14.746814691400518"><ele>5.0</ele><time>2026-04-06T13:08:36.92Z</time></trkpt><trkpt lat="53.523272454131565" lon="14.74684248824595"><ele>4.0</ele><time>2026-04-06T13:08:37.92Z</time></trkpt><trkpt lat="53.52338446262658" lon="14.746865266274101"><ele>4.4</ele><time>2026-04-06T13:08:38.92Z</time></trkpt><trkpt lat="53.52347785443919" lon="14.746890320773247"><ele>4.800000000000001</ele><time>2026-04-06T13:08:39.92Z</time></trkpt><trkpt lat="53.52357463128461" lon="14.746921737813084"><ele>5.199999999999999</ele><time>2026-04-06T13:08:40.92Z</time></trkpt><trkpt lat="53.523673743570214" lon="14.746944438985617"><ele>5.6</ele><time>2026-04-06T13:08:41.92Z</time></trkpt><trkpt lat="53.523780859897315" lon="14.74697813824968"><ele>6.0</ele><time>2026-04-06T13:08:42.92Z</time></trkpt><trkpt lat="53.523873081708246" lon="14.747017628726367"><ele>6.0</ele><time>2026-04-06T13:08:43.92Z</time></trkpt><trkpt lat="53.523976254062994" lon="14.747050496668196"><ele>6.0</ele><time>2026-04-06T13:08:44.92Z</time></trkpt><trkpt lat="53.52406136863649" lon="14.747078790701774"><ele>6.0</ele><time>2026-04-06T13:08:45.92Z</time></trkpt><trkpt lat="53.52416333388074" lon="14.747108591321263"><ele>6.0</ele><time>2026-04-06T13:08:46.92Z</time></trkpt><trkpt lat="53.524270006392186" lon="14.747142652127142"><ele>6.0</ele><time>2026-04-06T13:08:47.92Z</time></trkpt><trkpt lat="53.52437352237512" lon="14.747178061497953"><ele>6.0</ele><time>2026-04-06T13:08:48.92Z</time></trkpt><trkpt lat="53.524475113236186" lon="14.747232364692584"><ele>6.0</ele><time>2026-04-06T13:08:49.92Z</time></trkpt><trkpt lat="53.52457973420857" lon="14.747247992739606"><ele>6.0</ele><time>2026-04-06T13:08:50.92Z</time></trkpt><trkpt lat="53.52467235381328" lon="14.747276712838483"><ele>6.0</ele><time>2026-04-06T13:08:51.92Z</time></trkpt><trkpt lat="53.52476081629103" lon="14.74730197191152"><ele>6.0</ele><time>2026-04-06T13:08:52.92Z</time></trkpt><trkpt lat="53.52483390284069" lon="14.747350221485116"><ele>6.5</ele><time>2026-04-06T13:08:53.92Z</time></trkpt><trkpt lat="53.5249119882501" lon="14.74737636881062"><ele>7.0</ele><time>2026-04-06T13:08:54.92Z</time></trkpt><trkpt lat="53.52499520331027" lon="14.747404233821445"><ele>7.5</ele><time>2026-04-06T13:08:55.92Z</time></trkpt><trkpt lat="53.525072601275546" lon="14.747402849457796"><ele>8.0</ele><time>2026-04-06T13:08:56.92Z</time></trkpt><trkpt lat="53.525137156971724" lon="14.747425803096492"><ele>8.5</ele><time>2026-04-06T13:08:57.92Z</time></trkpt><trkpt lat="53.52520337335908" lon="14.747470304704038"><ele>9.0</ele><time>2026-04-06T13:08:58.92Z</time></trkpt><trkpt lat="53.525277812428186" lon="14.747492939035242"><ele>9.0</ele><time>2026-04-06T13:08:59.92Z</time></trkpt><trkpt lat="53.52536668383481" lon="14.747520328434598"><ele>9.0</ele><time>2026-04-06T13:09:00.92Z</time></trkpt><trkpt lat="53.52543607966121" lon="14.747541710460698"><ele>9.0</ele><time>2026-04-06T13:09:01.92Z</time></trkpt><trkpt lat="53.525515168993856" lon="14.747537682604257"><ele>9.0</ele><time>2026-04-06T13:09:02.92Z</time></trkpt><trkpt lat="53.525587111414154" lon="14.74756367993618"><ele>9.0</ele><time>2026-04-06T13:09:03.92Z</time></trkpt><trkpt lat="53.52566617364346" lon="14.747612418054082"><ele>9.0</ele><time>2026-04-06T13:09:04.92Z</time></trkpt><trkpt lat="53.52575976198968" lon="14.747641176396495"><ele>9.166666666666666</ele><time>2026-04-06T13:09:05.92Z</time></trkpt><trkpt lat="53.52584731033365" lon="14.74764021478165"><ele>9.333333333333334</ele><time>2026-04-06T13:09:06.92Z</time></trkpt><trkpt lat="53.525922914702214" lon="14.747660891524456"><ele>9.5</ele><time>2026-04-06T13:09:07.92Z</time></trkpt><trkpt lat="53.52598576144405" lon="14.747680408350787"><ele>9.666666666666668</ele><time>2026-04-06T13:09:09.92Z</time></trkpt><trkpt lat="53.526095899970485" lon="14.747702477221718"><ele>9.833333333333334</ele><time>2026-04-06T13:09:12.92Z</time></trkpt><trkpt lat="53.52615861400196" lon="14.747727872782555"><ele>10.0</ele><time>2026-04-06T13:09:14.92Z</time></trkpt><trkpt lat="53.52622648245497" lon="14.74776820217053"><ele>8.2</ele><time>2026-04-06T13:09:17.92Z</time></trkpt><trkpt lat="53.5263519213608" lon="14.74778880791601"><ele>6.4</ele><time>2026-04-06T13:09:44.92Z</time></trkpt><trkpt lat="53.52640259268519" lon="14.74785239953536"><ele>4.6</ele><time>2026-04-06T13:09:45.92Z</time></trkpt><trkpt lat="53.52649928243938" lon="14.747891276627742"><ele>2.8</ele><time>2026-04-06T13:09:47.92Z</time></trkpt><trkpt lat="53.52660238751099" lon="14.747938126009918"><ele>1.0</ele><time>2026-04-06T13:09:49.92Z</time></trkpt><trkpt lat="53.52666746627682" lon="14.747968311285975"><ele>1.0</ele><time>2026-04-06T13:09:50.92Z</time></trkpt><trkpt lat="53.52673409887596" lon="14.748007336346248"><ele>0.9999999999999999</ele><time>2026-04-06T13:09:51.92Z</time></trkpt><trkpt lat="53.52680533848988" lon="14.74802838413581"><ele>1.0</ele><time>2026-04-06T13:09:52.92Z</time></trkpt><trkpt lat="53.52687557740696" lon="14.748100982786859"><ele>1.0</ele><time>2026-04-06T13:09:53.92Z</time></trkpt><trkpt lat="53.52693353345597" lon="14.74816390849624"><ele>0.9999999999999999</ele><time>2026-04-06T13:09:54.92Z</time></trkpt><trkpt lat="53.52699690718669" lon="14.748234648720894"><ele>1.0</ele><time>2026-04-06T13:09:55.92Z</time></trkpt><trkpt lat="53.52705392300857" lon="14.748303956142301"><ele>1.0</ele><time>2026-04-06T13:09:56.92Z</time></trkpt><trkpt lat="53.52711710226874" lon="14.748370897115445"><ele>0.9999999999999999</ele><time>2026-04-06T13:09:57.92Z</time></trkpt><trkpt lat="53.527169026405645" lon="14.748443442661216"><ele>1.0</ele><time>2026-04-06T13:09:58.92Z</time></trkpt><trkpt lat="53.527224993145786" lon="14.748515580868755"><ele>1.0</ele><time>2026-04-06T13:09:59.92Z</time></trkpt><trkpt lat="53.527277758543114" lon="14.748590267960827"><ele>1.0</ele><time>2026-04-06T13:10:00.92Z</time></trkpt><trkpt lat="53.52735677884658" lon="14.74870332740483"><ele>0.9999999999999999</ele><time>2026-04-06T13:10:02.92Z</time></trkpt><trkpt lat="53.52741183907665" lon="14.748779609193296"><ele>1.0</ele><time>2026-04-06T13:10:04.92Z</time></trkpt><trkpt lat="53.527512367641805" lon="14.748630054024776"><ele>1.0</ele><time>2026-04-06T13:10:11.92Z</time></trkpt><trkpt lat="53.52758893591671" lon="14.748563462403231"><ele>1.0</ele><time>2026-04-06T13:10:14.92Z</time></trkpt><trkpt lat="53.5276546058446" lon="14.748511081715534"><ele>1.0</ele><time>2026-04-06T13:10:24.918Z</time></trkpt><trkpt lat="53.527603745793314" lon="14.748411834935908"><ele>1.0</ele><time>2026-04-06T13:10:27.918Z</time></trkpt><trkpt lat="53.52756387298761" lon="14.74822643432039"><ele>1.0</ele><time>2026-04-06T13:10:29.918Z</time></trkpt><trkpt lat="53.52757183765142" lon="14.748013484534429"><ele>1.2000000000000002</ele><time>2026-04-06T13:10:31.917Z</time></trkpt><trkpt lat="53.52757402087219" lon="14.74781178091815"><ele>1.4000000000000001</ele><time>2026-04-06T13:10:33.918Z</time></trkpt><trkpt lat="53.52762196947276" lon="14.747663813847641"><ele>1.6</ele><time>2026-04-06T13:10:35.918Z</time></trkpt><trkpt lat="53.52765566778526" lon="14.747489960508434"><ele>1.8</ele><time>2026-04-06T13:10:37.917Z</time></trkpt><trkpt lat="53.52766397740812" lon="14.747325235934102"><ele>2.0</ele><time>2026-04-06T13:10:39.917Z</time></trkpt><trkpt lat="53.52767591192006" lon="14.74720676975569"><ele>1.6666666666666665</ele><time>2026-04-06T13:10:40.917Z</time></trkpt><trkpt lat="53.527688301668576" lon="14.747072043193207"><ele>1.3333333333333333</ele><time>2026-04-06T13:10:41.917Z</time></trkpt><trkpt lat="53.527700745193485" lon="14.746940134455015"><ele>1.0</ele><time>2026-04-06T13:10:42.917Z</time></trkpt><trkpt lat="53.527710906166334" lon="14.746810755511188"><ele>0.6666666666666666</ele><time>2026-04-06T13:10:43.917Z</time></trkpt><trkpt lat="53.52771826633519" lon="14.746680092136405"><ele>0.3333333333333333</ele><time>2026-04-06T13:10:44.917Z</time></trkpt><trkpt lat="53.52772481265078" lon="14.746571518321582"><ele>0.0</ele><time>2026-04-06T13:10:45.917Z</time></trkpt><trkpt lat="53.52773425704441" lon="14.746448571887091"><ele>-0.14285714285714285</ele><time>2026-04-06T13:10:46.917Z</time></trkpt><trkpt lat="53.52774147860708" lon="14.746329411011224"><ele>-0.2857142857142857</ele><time>2026-04-06T13:10:47.917Z</time></trkpt><trkpt lat="53.52775139415401" lon="14.746223672341669"><ele>-0.42857142857142855</ele><time>2026-04-06T13:10:48.917Z</time></trkpt><trkpt lat="53.52776736543929" lon="14.746099323440488"><ele>-0.5714285714285714</ele><time>2026-04-06T13:10:49.917Z</time></trkpt><trkpt lat="53.52777588859751" lon="14.745975102261426"><ele>-0.7142857142857142</ele><time>2026-04-06T13:10:50.917Z</time></trkpt><trkpt lat="53.52778252418523" lon="14.74584020558603"><ele>-0.8571428571428571</ele><time>2026-04-06T13:10:51.917Z</time></trkpt><trkpt lat="53.5277815210708" lon="14.745731625221742"><ele>-1.0</ele><time>2026-04-06T13:10:52.917Z</time></trkpt><trkpt lat="53.52778693147654" lon="14.745537521099576"><ele>-1.0</ele><time>2026-04-06T13:10:54.917Z</time></trkpt><trkpt lat="53.527828619490464" lon="14.745422500749905"><ele>-1.0</ele><time>2026-04-06T13:10:56.917Z</time></trkpt><trkpt lat="53.527927408025846" lon="14.74537048131387"><ele>-1.0</ele><time>2026-04-06T13:10:58.917Z</time></trkpt><trkpt lat="53.52803108783873" lon="14.745312398258031"><ele>-1.0</ele><time>2026-04-06T13:11:00.917Z</time></trkpt><trkpt lat="53.528148278404636" lon="14.74527418094765"><ele>-1.0</ele><time>2026-04-06T13:11:02.917Z</time></trkpt><trkpt lat="53.52824742484486" lon="14.745244063758376"><ele>-0.9999999999999999</ele><time>2026-04-06T13:11:04.917Z</time></trkpt><trkpt lat="53.5283101314126" lon="14.745224522603303"><ele>-1.0</ele><time>2026-04-06T13:11:06.917Z</time></trkpt><trkpt lat="53.528371610193446" lon="14.745307319197472"><ele>-1.0</ele><time>2026-04-06T13:11:09.917Z</time></trkpt><trkpt lat="53.52845617219915" lon="14.74532843431593"><ele>-1.0</ele><time>2026-04-06T13:11:11.917Z</time></trkpt><trkpt lat="53.52853216817616" lon="14.745347410526357"><ele>-0.9999999999999999</ele><time>2026-04-06T13:11:13.917Z</time></trkpt><trkpt lat="53.52863227807637" lon="14.745374467387958"><ele>-1.0</ele><time>2026-04-06T13:11:15.917Z</time></trkpt><trkpt lat="53.52870351777266" lon="14.745398036032693"><ele>-1.0</ele><time>2026-04-06T13:11:18.917Z</time></trkpt><trkpt lat="53.528786956377225" lon="14.744726910079972"><ele>-1.0</ele><time>2026-04-06T13:11:19.917Z</time></trkpt><trkpt lat="53.528860044502025" lon="14.744667131048965"><ele>-1.0</ele><time>2026-04-06T13:11:29.917Z</time></trkpt><trkpt lat="53.52895963112958" lon="14.744592046020882"><ele>-1.0</ele><time>2026-04-06T13:11:31.917Z</time></trkpt><trkpt lat="53.529014437582745" lon="14.744518945124796"><ele>-1.0</ele><time>2026-04-06T13:11:33.917Z</time></trkpt><trkpt lat="53.52906338572757" lon="14.744357305825828"><ele>-1.0</ele><time>2026-04-06T13:11:35.917Z</time></trkpt><trkpt lat="53.52908137100409" lon="14.744255782340653"><ele>-1.0</ele><time>2026-04-06T13:11:36.917Z</time></trkpt><trkpt lat="53.529127902337905" lon="14.744051544660158"><ele>-1.1666666666666665</ele><time>2026-04-06T13:11:38.917Z</time></trkpt><trkpt lat="53.52913743994442" lon="14.743926403042874"><ele>-1.3333333333333333</ele><time>2026-04-06T13:11:39.917Z</time></trkpt><trkpt lat="53.5291670525311" lon="14.743804997907198"><ele>-1.5</ele><time>2026-04-06T13:11:40.917Z</time></trkpt><trkpt lat="53.52919071161079" lon="14.743706489594187"><ele>-1.6666666666666665</ele><time>2026-04-06T13:11:41.917Z</time></trkpt><trkpt lat="53.52921924211026" lon="14.743577558557604"><ele>-1.8333333333333333</ele><time>2026-04-06T13:11:42.917Z</time></trkpt><trkpt lat="53.52924673800022" lon="14.743438821316218"><ele>-2.0</ele><time>2026-04-06T13:11:43.917Z</time></trkpt><trkpt lat="53.529287245841836" lon="14.743311278135373"><ele>-1.9999999999999998</ele><time>2026-04-06T13:11:44.917Z</time></trkpt><trkpt lat="53.52930503355996" lon="14.743184986674217"><ele>-2.0</ele><time>2026-04-06T13:11:45.917Z</time></trkpt><trkpt lat="53.529331632037504" lon="14.743042845337408"><ele>-2.0</ele><time>2026-04-06T13:11:46.917Z</time></trkpt><trkpt lat="53.52936770090273" lon="14.742867844470192"><ele>-2.0</ele><time>2026-04-06T13:11:47.917Z</time></trkpt><trkpt lat="53.529399503810474" lon="14.742730858656916"><ele>-1.9999999999999998</ele><time>2026-04-06T13:11:48.917Z</time></trkpt><trkpt lat="53.529439223910515" lon="14.74262718452831"><ele>-2.0</ele><time>2026-04-06T13:11:49.917Z</time></trkpt><trkpt lat="53.5294511923729" lon="14.742507046052722"><ele>-1.9999999999999998</ele><time>2026-04-06T13:11:50.917Z</time></trkpt><trkpt lat="53.52948549420293" lon="14.742403862239843"><ele>-2.0</ele><time>2026-04-06T13:11:51.917Z</time></trkpt><trkpt lat="53.52951657236461" lon="14.742275905779303"><ele>-2.0</ele><time>2026-04-06T13:11:52.917Z</time></trkpt><trkpt lat="53.52954349638473" lon="14.742144868152295"><ele>-2.0</ele><time>2026-04-06T13:11:53.917Z</time></trkpt><trkpt lat="53.529567937296186" lon="14.741992069161428"><ele>-1.9999999999999998</ele><time>2026-04-06T13:11:54.917Z</time></trkpt><trkpt lat="53.52959729699575" lon="14.74187838002846"><ele>-2.0</ele><time>2026-04-06T13:11:55.917Z</time></trkpt><trkpt lat="53.52963888733019" lon="14.741654457780474"><ele>-2.0</ele><time>2026-04-06T13:11:57.917Z</time></trkpt><trkpt lat="53.529670777467594" lon="14.741515888522338"><ele>-2.0</ele><time>2026-04-06T13:11:58.917Z</time></trkpt><trkpt lat="53.52970479922005" lon="14.741365718720598"><ele>-2.0</ele><time>2026-04-06T13:11:59.917Z</time></trkpt><trkpt lat="53.52973816114788" lon="14.741197665513617"><ele>-2.0</ele><time>2026-04-06T13:12:00.917Z</time></trkpt><trkpt lat="53.5297685291337" lon="14.741052599771434"><ele>-2.0</ele><time>2026-04-06T13:12:01.917Z</time></trkpt><trkpt lat="53.52981347304007" lon="14.740827414489166"><ele>-2.0</ele><time>2026-04-06T13:12:02.917Z</time></trkpt><trkpt lat="53.529852581993794" lon="14.740641108198707"><ele>-2.0</ele><time>2026-04-06T13:12:03.917Z</time></trkpt><trkpt lat="53.52988522510312" lon="14.740486043648094"><ele>-2.0</ele><time>2026-04-06T13:12:04.917Z</time></trkpt><trkpt lat="53.52992181157807" lon="14.740322781664243"><ele>-2.0</ele><time>2026-04-06T13:12:05.917Z</time></trkpt><trkpt lat="53.52995165231956" lon="14.740168140766677"><ele>-2.0</ele><time>2026-04-06T13:12:06.917Z</time></trkpt><trkpt lat="53.52998586791918" lon="14.740006361286163"><ele>-2.0</ele><time>2026-04-06T13:12:07.917Z</time></trkpt><trkpt lat="53.53002326631643" lon="14.739852058358307"><ele>-2.0</ele><time>2026-04-06T13:12:08.917Z</time></trkpt><trkpt lat="53.53004569130635" lon="14.739713870245014"><ele>-2.0</ele><time>2026-04-06T13:12:09.917Z</time></trkpt><trkpt lat="53.53008791077061" lon="14.739582172384376"><ele>-2.0</ele><time>2026-04-06T13:12:10.917Z</time></trkpt><trkpt lat="53.53014113383501" lon="14.739414091493037"><ele>-2.0</ele><time>2026-04-06T13:12:11.917Z</time></trkpt><trkpt lat="53.53016677333937" lon="14.739223507051975"><ele>-2.0</ele><time>2026-04-06T13:12:12.917Z</time></trkpt><trkpt lat="53.530218098972576" lon="14.73907012551025"><ele>-2.0</ele><time>2026-04-06T13:12:13.917Z</time></trkpt><trkpt lat="53.53025123365299" lon="14.738922067566884"><ele>-2.0</ele><time>2026-04-06T13:12:14.917Z</time></trkpt><trkpt lat="53.53029759902757" lon="14.738718138498779"><ele>-2.0</ele><time>2026-04-06T13:12:15.917Z</time></trkpt><trkpt lat="53.53032382901353" lon="14.738556422521043"><ele>-2.0</ele><time>2026-04-06T13:12:16.917Z</time></trkpt><trkpt lat="53.53036075466461" lon="14.738392740066447"><ele>-2.25</ele><time>2026-04-06T13:12:17.917Z</time></trkpt><trkpt lat="53.53039630048545" lon="14.738221832097553"><ele>-2.5</ele><time>2026-04-06T13:12:18.917Z</time></trkpt><trkpt lat="53.53045401336066" lon="14.738023225590174"><ele>-2.75</ele><time>2026-04-06T13:12:19.917Z</time></trkpt><trkpt lat="53.53048553987202" lon="14.737809494344823"><ele>-3.0</ele><time>2026-04-06T13:12:20.917Z</time></trkpt><trkpt lat="53.53053706605109" lon="14.737605529604114"><ele>-3.0</ele><time>2026-04-06T13:12:21.917Z</time></trkpt><trkpt lat="53.53057575107658" lon="14.737409290715238"><ele>-3.0</ele><time>2026-04-06T13:12:22.917Z</time></trkpt><trkpt lat="53.530609675440985" lon="14.73725233432034"><ele>-3.0</ele><time>2026-04-06T13:12:23.917Z</time></trkpt><trkpt lat="53.5306415811575" lon="14.737104804989546"><ele>-3.0</ele><time>2026-04-06T13:12:24.917Z</time></trkpt><trkpt lat="53.53069329360711" lon="14.736928231904905"><ele>-3.0</ele><time>2026-04-06T13:12:25.917Z</time></trkpt><trkpt lat="53.530735838924805" lon="14.736734134625227"><ele>-3.0</ele><time>2026-04-06T13:12:26.917Z</time></trkpt><trkpt lat="53.53076403771071" lon="14.736531035935498"><ele>-3.0</ele><time>2026-04-06T13:12:27.917Z</time></trkpt><trkpt lat="53.53080455584098" lon="14.736346964152768"><ele>-3.0</ele><time>2026-04-06T13:12:28.917Z</time></trkpt><trkpt lat="53.53085672094911" lon="14.73618714209535"><ele>-3.0</ele><time>2026-04-06T13:12:29.917Z</time></trkpt><trkpt lat="53.53089396608287" lon="14.736018123970412"><ele>-2.75</ele><time>2026-04-06T13:12:30.915Z</time></trkpt><trkpt lat="53.530924239703126" lon="14.73582968350035"><ele>-2.5</ele><time>2026-04-06T13:12:31.916Z</time></trkpt><trkpt lat="53.53096566702831" lon="14.735651279501507"><ele>-2.25</ele><time>2026-04-06T13:12:32.916Z</time></trkpt><trkpt lat="53.53100585286308" lon="14.735463006287624"><ele>-2.0</ele><time>2026-04-06T13:12:33.916Z</time></trkpt><trkpt lat="53.53104620679766" lon="14.73526341452941"><ele>-2.25</ele><time>2026-04-06T13:12:34.916Z</time></trkpt><trkpt lat="53.53108825295219" lon="14.735075430977542"><ele>-2.5</ele><time>2026-04-06T13:12:35.916Z</time></trkpt><trkpt lat="53.531130723495835" lon="14.734903301028716"><ele>-2.75</ele><time>2026-04-06T13:12:36.916Z</time></trkpt><trkpt lat="53.53116937884112" lon="14.734709132734922"><ele>-3.0</ele><time>2026-04-06T13:12:37.915Z</time></trkpt><trkpt lat="53.53122044858025" lon="14.734556940801223"><ele>-3.0</ele><time>2026-04-06T13:12:38.915Z</time></trkpt><trkpt lat="53.531251994245544" lon="14.734356656786966"><ele>-3.0</ele><time>2026-04-06T13:12:39.916Z</time></trkpt><trkpt lat="53.53129728337561" lon="14.734152802550812"><ele>-3.0</ele><time>2026-04-06T13:12:40.915Z</time></trkpt><trkpt lat="53.531340444526734" lon="14.733963364219319"><ele>-3.0</ele><time>2026-04-06T13:12:41.915Z</time></trkpt><trkpt lat="53.531386103372554" lon="14.73377406888543"><ele>-3.0</ele><time>2026-04-06T13:12:42.916Z</time></trkpt><trkpt lat="53.53143061488679" lon="14.733564602165368"><ele>-3.0</ele><time>2026-04-06T13:12:43.915Z</time></trkpt><trkpt lat="53.53147276022872" lon="14.73337715978803"><ele>-3.0</ele><time>2026-04-06T13:12:44.915Z</time></trkpt><trkpt lat="53.53152193197242" lon="14.73317196573466"><ele>-3.0</ele><time>2026-04-06T13:12:45.915Z</time></trkpt><trkpt lat="53.531567743283304" lon="14.73296717064731"><ele>-3.0</ele><time>2026-04-06T13:12:46.915Z</time></trkpt><trkpt lat="53.531623801798524" lon="14.732777443444915"><ele>-3.0</ele><time>2026-04-06T13:12:47.915Z</time></trkpt><trkpt lat="53.531651851667824" lon="14.732575185496435"><ele>-3.0</ele><time>2026-04-06T13:12:48.915Z</time></trkpt><trkpt lat="53.53171414870427" lon="14.732375621099395"><ele>-3.0</ele><time>2026-04-06T13:12:49.915Z</time></trkpt><trkpt lat="53.531761449991045" lon="14.732164597705543"><ele>-3.0</ele><time>2026-04-06T13:12:50.915Z</time></trkpt><trkpt lat="53.531814319405825" lon="14.731928733436243"><ele>-3.0</ele><time>2026-04-06T13:12:51.915Z</time></trkpt><trkpt lat="53.53184811295457" lon="14.731695387141572"><ele>-3.0</ele><time>2026-04-06T13:12:52.915Z</time></trkpt><trkpt lat="53.53189816498731" lon="14.731479520720576"><ele>-3.0</ele><time>2026-04-06T13:12:53.915Z</time></trkpt><trkpt lat="53.531946048716506" lon="14.731270220376253"><ele>-3.0</ele><time>2026-04-06T13:12:54.915Z</time></trkpt><trkpt lat="53.53199254611565" lon="14.731054471861915"><ele>-3.0</ele><time>2026-04-06T13:12:55.915Z</time></trkpt><trkpt lat="53.53203592485745" lon="14.73084868512698"><ele>-3.0</ele><time>2026-04-06T13:12:56.915Z</time></trkpt><trkpt lat="53.532088924826326" lon="14.730610186726754"><ele>-3.0</ele><time>2026-04-06T13:12:57.915Z</time></trkpt><trkpt lat="53.5321405802436" lon="14.73037522143606"><ele>-3.0</ele><time>2026-04-06T13:12:58.915Z</time></trkpt><trkpt lat="53.53218911093072" lon="14.730149134264568"><ele>-3.0</ele><time>2026-04-06T13:12:59.915Z</time></trkpt><trkpt lat="53.53223644666487" lon="14.729936678071441"><ele>-3.0</ele><time>2026-04-06T13:13:00.915Z</time></trkpt><trkpt lat="53.532277318669124" lon="14.729736449036816"><ele>-3.0</ele><time>2026-04-06T13:13:01.915Z</time></trkpt><trkpt lat="53.532335513767165" lon="14.7295657598705"><ele>-3.0</ele><time>2026-04-06T13:13:02.915Z</time></trkpt><trkpt lat="53.53235690613722" lon="14.729401302907423"><ele>-3.0</ele><time>2026-04-06T13:13:03.915Z</time></trkpt><trkpt lat="53.53240184070514" lon="14.729275415974751"><ele>-3.0</ele><time>2026-04-06T13:13:04.915Z</time></trkpt><trkpt lat="53.53241676279366" lon="14.729152667959312"><ele>-3.0</ele><time>2026-04-06T13:13:05.915Z</time></trkpt><trkpt lat="53.53246860703509" lon="14.728955827164002"><ele>-3.0</ele><time>2026-04-06T13:13:07.915Z</time></trkpt><trkpt lat="53.532495774687426" lon="14.728838943130059"><ele>-3.0</ele><time>2026-04-06T13:13:08.915Z</time></trkpt><trkpt lat="53.53252074950116" lon="14.728727556915365"><ele>-3.0</ele><time>2026-04-06T13:13:09.915Z</time></trkpt><trkpt lat="53.53255345268312" lon="14.728582206721386"><ele>-3.0</ele><time>2026-04-06T13:13:10.915Z</time></trkpt><trkpt lat="53.5325977532171" lon="14.72841497175717"><ele>-3.0</ele><time>2026-04-06T13:13:11.915Z</time></trkpt><trkpt lat="53.5326340989518" lon="14.728280991046146"><ele>-3.0</ele><time>2026-04-06T13:13:12.915Z</time></trkpt><trkpt lat="53.53266797866186" lon="14.728118961825452"><ele>-2.8</ele><time>2026-04-06T13:13:13.915Z</time></trkpt><trkpt lat="53.53271052768794" lon="14.728005646040573"><ele>-2.5999999999999996</ele><time>2026-04-06T13:13:14.915Z</time></trkpt><trkpt lat="53.53276893981587" lon="14.727917521143578"><ele>-2.4000000000000004</ele><time>2026-04-06T13:13:15.915Z</time></trkpt><trkpt lat="53.5328632310062" lon="14.727879472466862"><ele>-2.2</ele><time>2026-04-06T13:13:16.915Z</time></trkpt><trkpt lat="53.53298494465075" lon="14.72784801964326"><ele>-2.0</ele><time>2026-04-06T13:13:17.915Z</time></trkpt><trkpt lat="53.53308278105502" lon="14.727786448631958"><ele>-1.9999999999999998</ele><time>2026-04-06T13:13:18.915Z</time></trkpt><trkpt lat="53.53316525281714" lon="14.727711952106281"><ele>-2.0</ele><time>2026-04-06T13:13:19.915Z</time></trkpt><trkpt lat="53.53324953716751" lon="14.727709309847992"><ele>-2.0</ele><time>2026-04-06T13:13:20.915Z</time></trkpt><trkpt lat="53.53332366472562" lon="14.727701221663427"><ele>-2.0</ele><time>2026-04-06T13:13:21.915Z</time></trkpt><trkpt lat="53.53342026252446" lon="14.727686693576285"><ele>-1.9999999999999998</ele><time>2026-04-06T13:13:22.915Z</time></trkpt><trkpt lat="53.53350931539039" lon="14.72767330023405"><ele>-2.0</ele><time>2026-04-06T13:13:23.915Z</time></trkpt><trkpt lat="53.53360065345036" lon="14.727662702883777"><ele>-1.9999999999999998</ele><time>2026-04-06T13:13:24.915Z</time></trkpt><trkpt lat="53.533676027269486" lon="14.727644159689072"><ele>-2.0</ele><time>2026-04-06T13:13:25.915Z</time></trkpt><trkpt lat="53.5337533038094" lon="14.727649793747526"><ele>-2.0</ele><time>2026-04-06T13:13:26.915Z</time></trkpt><trkpt lat="53.533819675573916" lon="14.727789721812803"><ele>-2.0</ele><time>2026-04-06T13:13:27.915Z</time></trkpt><trkpt lat="53.53388907897215" lon="14.727862000036756"><ele>-1.9999999999999998</ele><time>2026-04-06T13:13:28.915Z</time></trkpt><trkpt lat="53.533952970781364" lon="14.727922130001287"><ele>-2.0</ele><time>2026-04-06T13:13:29.915Z</time></trkpt><trkpt lat="53.53404224968504" lon="14.727975314866958"><ele>-1.8</ele><time>2026-04-06T13:13:30.915Z</time></trkpt><trkpt lat="53.53412711804199" lon="14.72805137915212"><ele>-1.6</ele><time>2026-04-06T13:13:31.915Z</time></trkpt><trkpt lat="53.53418306711221" lon="14.72810373250979"><ele>-1.4000000000000001</ele><time>2026-04-06T13:13:32.915Z</time></trkpt><trkpt lat="53.53429303692738" lon="14.72825558559261"><ele>-1.2000000000000002</ele><time>2026-04-06T13:13:34.915Z</time></trkpt><trkpt lat="53.5343721359962" lon="14.728356662050926"><ele>-1.0</ele><time>2026-04-06T13:13:35.915Z</time></trkpt><trkpt lat="53.53445787775339" lon="14.728490014425436"><ele>-1.0</ele><time>2026-04-06T13:13:36.915Z</time></trkpt><trkpt lat="53.53455684977228" lon="14.728611287388073"><ele>-1.0</ele><time>2026-04-06T13:13:37.915Z</time></trkpt><trkpt lat="53.53462472042534" lon="14.728727260464616"><ele>-1.0</ele><time>2026-04-06T13:13:38.915Z</time></trkpt><trkpt lat="53.534685003993545" lon="14.728856977587132"><ele>-1.0</ele><time>2026-04-06T13:13:39.915Z</time></trkpt><trkpt lat="53.53476535753099" lon="14.728946618478624"><ele>-1.0</ele><time>2026-04-06T13:13:40.915Z</time></trkpt><trkpt lat="53.53482338805364" lon="14.729018612950897"><ele>-0.9999999999999999</ele><time>2026-04-06T13:13:41.915Z</time></trkpt><trkpt lat="53.5348960813201" lon="14.729072757361244"><ele>-1.0</ele><time>2026-04-06T13:13:42.915Z</time></trkpt><trkpt lat="53.53495511322421" lon="14.729134124778815"><ele>-1.0</ele><time>2026-04-06T13:13:43.915Z</time></trkpt><trkpt lat="53.535025375787086" lon="14.729046478647735"><ele>-1.0</ele><time>2026-04-06T13:13:44.915Z</time></trkpt><trkpt lat="53.53510853763347" lon="14.729028562778907"><ele>-0.9999999999999999</ele><time>2026-04-06T13:13:45.915Z</time></trkpt><trkpt lat="53.53521053627056" lon="14.729013736422901"><ele>-1.0</ele><time>2026-04-06T13:13:46.915Z</time></trkpt><trkpt lat="53.53529933540352" lon="14.728968698554928"><ele>-0.9999999999999999</ele><time>2026-04-06T13:13:47.915Z</time></trkpt><trkpt lat="53.53539312190038" lon="14.728934959344238"><ele>-1.0</ele><time>2026-04-06T13:13:48.915Z</time></trkpt><trkpt lat="53.53548890651149" lon="14.728899286516045"><ele>-1.0</ele><time>2026-04-06T13:13:49.915Z</time></trkpt><trkpt lat="53.53555711581205" lon="14.728870579625738"><ele>-1.0</ele><time>2026-04-06T13:13:50.915Z</time></trkpt><trkpt lat="53.53562597866714" lon="14.728842930551862"><ele>-0.9999999999999999</ele><time>2026-04-06T13:13:51.915Z</time></trkpt><trkpt lat="53.535705745431194" lon="14.728814089300672"><ele>-1.0</ele><time>2026-04-06T13:13:52.915Z</time></trkpt><trkpt lat="53.535780873015256" lon="14.728782459408826"><ele>-0.9999999999999999</ele><time>2026-04-06T13:13:53.915Z</time></trkpt><trkpt lat="53.53586281964438" lon="14.728750967934014"><ele>-1.0</ele><time>2026-04-06T13:13:54.915Z</time></trkpt><trkpt lat="53.53594283374566" lon="14.728719640104257"><ele>-1.0</ele><time>2026-04-06T13:13:55.915Z</time></trkpt><trkpt lat="53.53602306909795" lon="14.728687103889927"><ele>-1.0</ele><time>2026-04-06T13:13:56.915Z</time></trkpt><trkpt lat="53.536089821601706" lon="14.728664037109962"><ele>-0.9999999999999999</ele><time>2026-04-06T13:13:57.915Z</time></trkpt><trkpt lat="53.53615680339851" lon="14.728659314573752"><ele>-1.0</ele><time>2026-04-06T13:13:58.915Z</time></trkpt><trkpt lat="53.53621800343111" lon="14.728607812930658"><ele>-0.9999999999999999</ele><time>2026-04-06T13:13:59.915Z</time></trkpt><trkpt lat="53.53628524088618" lon="14.728586486621873"><ele>-1.0</ele><time>2026-04-06T13:14:00.915Z</time></trkpt><trkpt lat="53.53637958484273" lon="14.728548387358268"><ele>-1.0</ele><time>2026-04-06T13:14:01.915Z</time></trkpt><trkpt lat="53.53646679652678" lon="14.728528764468527"><ele>-1.0</ele><time>2026-04-06T13:14:02.915Z</time></trkpt><trkpt lat="53.5365553724008" lon="14.728489638658763"><ele>-0.9999999999999999</ele><time>2026-04-06T13:14:03.915Z</time></trkpt><trkpt lat="53.53663315682854" lon="14.728459902053068"><ele>-1.0</ele><time>2026-04-06T13:14:04.915Z</time></trkpt><trkpt lat="53.53671460334656" lon="14.728429444020557"><ele>-1.0</ele><time>2026-04-06T13:14:05.915Z</time></trkpt><trkpt lat="53.536806435294444" lon="14.728415613972606"><ele>-1.0</ele><time>2026-04-06T13:14:06.915Z</time></trkpt><trkpt lat="53.53688161301463" lon="14.728387510606414"><ele>-1.0</ele><time>2026-04-06T13:14:07.915Z</time></trkpt><trkpt lat="53.53697771072172" lon="14.728351586781594"><ele>-1.0</ele><time>2026-04-06T13:14:08.915Z</time></trkpt><trkpt lat="53.537083482293454" lon="14.728312046666245"><ele>-1.0</ele><time>2026-04-06T13:14:09.915Z</time></trkpt><trkpt lat="53.53719091711403" lon="14.728271884725887"><ele>-1.4</ele><time>2026-04-06T13:14:10.915Z</time></trkpt><trkpt lat="53.53729463959326" lon="14.728212874117801"><ele>-1.8</ele><time>2026-04-06T13:14:11.915Z</time></trkpt><trkpt lat="53.53739371071325" lon="14.728196104318666"><ele>-2.1999999999999997</ele><time>2026-04-06T13:14:12.915Z</time></trkpt><trkpt lat="53.53746075699303" lon="14.728142488538772"><ele>-2.6</ele><time>2026-04-06T13:14:13.916Z</time></trkpt><trkpt lat="53.5375507352633" lon="14.728113877329212"><ele>-3.0</ele><time>2026-04-06T13:14:14.916Z</time></trkpt><trkpt lat="53.537653893599675" lon="14.728071188188812"><ele>-3.0</ele><time>2026-04-06T13:14:15.916Z</time></trkpt><trkpt lat="53.53777397004974" lon="14.728026140248451"><ele>-3.0</ele><time>2026-04-06T13:14:16.916Z</time></trkpt><trkpt lat="53.537887863209555" lon="14.727984429350826"><ele>-3.0</ele><time>2026-04-06T13:14:17.916Z</time></trkpt><trkpt lat="53.537997717128285" lon="14.72794627150257"><ele>-3.0</ele><time>2026-04-06T13:14:18.916Z</time></trkpt><trkpt lat="53.53809327081579" lon="14.727930710930654"><ele>-3.0</ele><time>2026-04-06T13:14:19.916Z</time></trkpt><trkpt lat="53.53818992651025" lon="14.727866382059236"><ele>-3.0</ele><time>2026-04-06T13:14:20.916Z</time></trkpt><trkpt lat="53.53829173614499" lon="14.727826624013888"><ele>-3.0</ele><time>2026-04-06T13:14:21.916Z</time></trkpt><trkpt lat="53.53838018207132" lon="14.727802579640619"><ele>-3.0</ele><time>2026-04-06T13:14:22.916Z</time></trkpt><trkpt lat="53.53848151702233" lon="14.727759487543826"><ele>-3.0</ele><time>2026-04-06T13:14:23.916Z</time></trkpt><trkpt lat="53.538573743173515" lon="14.727722465126318"><ele>-3.0</ele><time>2026-04-06T13:14:24.916Z</time></trkpt><trkpt lat="53.538662453801386" lon="14.727686391868401"><ele>-2.8333333333333335</ele><time>2026-04-06T13:14:25.916Z</time></trkpt><trkpt lat="53.53873061252153" lon="14.727661080540315"><ele>-2.6666666666666665</ele><time>2026-04-06T13:14:26.916Z</time></trkpt><trkpt lat="53.53879688339142" lon="14.727630977632058"><ele>-2.5</ele><time>2026-04-06T13:14:27.916Z</time></trkpt><trkpt lat="53.53887123191404" lon="14.727611183376426"><ele>-2.333333333333333</ele><time>2026-04-06T13:14:28.916Z</time></trkpt><trkpt lat="53.53895814459855" lon="14.72757295054105"><ele>-2.1666666666666665</ele><time>2026-04-06T13:14:29.916Z</time></trkpt><trkpt lat="53.53903392063908" lon="14.727542090606974"><ele>-2.0</ele><time>2026-04-06T13:14:30.916Z</time></trkpt><trkpt lat="53.53911158992299" lon="14.727511339143305"><ele>-2.0</ele><time>2026-04-06T13:14:31.916Z</time></trkpt><trkpt lat="53.53918894053376" lon="14.727503496434224"><ele>-2.0</ele><time>2026-04-06T13:14:32.916Z</time></trkpt><trkpt lat="53.539255920048575" lon="14.727451111126223"><ele>-2.0</ele><time>2026-04-06T13:14:33.916Z</time></trkpt><trkpt lat="53.53934949364652" lon="14.727440800658204"><ele>-2.0</ele><time>2026-04-06T13:14:34.916Z</time></trkpt><trkpt lat="53.539465651369554" lon="14.727367256498308"><ele>-2.0</ele><time>2026-04-06T13:14:35.916Z</time></trkpt><trkpt lat="53.53957120196754" lon="14.727335619745169"><ele>-2.0</ele><time>2026-04-06T13:14:36.913Z</time></trkpt><trkpt lat="53.539680868343254" lon="14.727290539933444"><ele>-2.0</ele><time>2026-04-06T13:14:37.913Z</time></trkpt><trkpt lat="53.53978877864265" lon="14.72727031433189"><ele>-2.0</ele><time>2026-04-06T13:14:38.913Z</time></trkpt><trkpt lat="53.53986909222714" lon="14.727216586854246"><ele>-2.0</ele><time>2026-04-06T13:14:39.914Z</time></trkpt><trkpt lat="53.539951457795524" lon="14.727183201387483"><ele>-2.0</ele><time>2026-04-06T13:14:40.914Z</time></trkpt><trkpt lat="53.540079210302096" lon="14.72715703235091"><ele>-1.9999999999999998</ele><time>2026-04-06T13:14:42.914Z</time></trkpt><trkpt lat="53.54017944465617" lon="14.727094799704048"><ele>-2.0</ele><time>2026-04-06T13:14:44.913Z</time></trkpt><trkpt lat="53.540244515289665" lon="14.72709208094955"><ele>-2.0</ele><time>2026-04-06T13:14:45.914Z</time></trkpt><trkpt lat="53.54031168399045" lon="14.727066381591595"><ele>-2.0</ele><time>2026-04-06T13:14:46.913Z</time></trkpt><trkpt lat="53.540387937559075" lon="14.72701345734828"><ele>-1.9999999999999998</ele><time>2026-04-06T13:14:47.913Z</time></trkpt><trkpt lat="53.540481401549215" lon="14.72698080617335"><ele>-2.0</ele><time>2026-04-06T13:14:48.913Z</time></trkpt><trkpt lat="53.540558775558395" lon="14.726947822473418"><ele>-2.1666666666666665</ele><time>2026-04-06T13:14:49.913Z</time></trkpt><trkpt lat="53.54064977456415" lon="14.726918219738904"><ele>-2.333333333333333</ele><time>2026-04-06T13:14:50.913Z</time></trkpt><trkpt lat="53.54072511419704" lon="14.726894754747969"><ele>-2.5</ele><time>2026-04-06T13:14:51.913Z</time></trkpt><trkpt lat="53.54080778134416" lon="14.726864078836037"><ele>-2.6666666666666665</ele><time>2026-04-06T13:14:52.913Z</time></trkpt><trkpt lat="53.540881985971126" lon="14.726826238436825"><ele>-2.8333333333333335</ele><time>2026-04-06T13:14:53.913Z</time></trkpt><trkpt lat="53.54095396172176" lon="14.72679313291193"><ele>-3.0</ele><time>2026-04-06T13:14:54.913Z</time></trkpt><trkpt lat="53.541045437279955" lon="14.726791183813257"><ele>-3.0</ele><time>2026-04-06T13:14:55.913Z</time></trkpt><trkpt lat="53.54111983015443" lon="14.726794545904635"><ele>-3.0</ele><time>2026-04-06T13:14:56.913Z</time></trkpt><trkpt lat="53.54118410587794" lon="14.726783718183533"><ele>-3.0</ele><time>2026-04-06T13:14:57.913Z</time></trkpt><trkpt lat="53.541262955896165" lon="14.726757044961504"><ele>-3.0</ele><time>2026-04-06T13:14:58.913Z</time></trkpt><trkpt lat="53.541347313728984" lon="14.726687814358934"><ele>-3.0</ele><time>2026-04-06T13:14:59.913Z</time></trkpt><trkpt lat="53.54145011341937" lon="14.726638062331716"><ele>-3.0</ele><time>2026-04-06T13:15:00.913Z</time></trkpt><trkpt lat="53.54156490161345" lon="14.726591483689631"><ele>-2.8333333333333335</ele><time>2026-04-06T13:15:01.913Z</time></trkpt><trkpt lat="53.54162564615608" lon="14.726545808460369"><ele>-2.6666666666666665</ele><time>2026-04-06T13:15:02.913Z</time></trkpt><trkpt lat="53.54170016375687" lon="14.726516512268486"><ele>-2.5</ele><time>2026-04-06T13:15:03.913Z</time></trkpt><trkpt lat="53.54176299613911" lon="14.726495914005495"><ele>-2.333333333333333</ele><time>2026-04-06T13:15:04.913Z</time></trkpt><trkpt lat="53.541850481743694" lon="14.72645447055371"><ele>-2.1666666666666665</ele><time>2026-04-06T13:15:05.913Z</time></trkpt><trkpt lat="53.54192878208573" lon="14.726410481712248"><ele>-2.0</ele><time>2026-04-06T13:15:06.913Z</time></trkpt><trkpt lat="53.54200647961495" lon="14.726386649391594"><ele>-2.2</ele><time>2026-04-06T13:15:07.913Z</time></trkpt><trkpt lat="53.54211626102254" lon="14.726335161132637"><ele>-2.4000000000000004</ele><time>2026-04-06T13:15:08.913Z</time></trkpt><trkpt lat="53.542194382060266" lon="14.726295958245988"><ele>-2.5999999999999996</ele><time>2026-04-06T13:15:09.913Z</time></trkpt><trkpt lat="53.54227371292938" lon="14.726262413432949"><ele>-2.8</ele><time>2026-04-06T13:15:10.913Z</time></trkpt><trkpt lat="53.542379213763255" lon="14.726222608621558"><ele>-3.0</ele><time>2026-04-06T13:15:11.913Z</time></trkpt><trkpt lat="53.54246765630225" lon="14.726188139112745"><ele>-3.0</ele><time>2026-04-06T13:15:12.913Z</time></trkpt><trkpt lat="53.542541627611214" lon="14.726190275970948"><ele>-3.0</ele><time>2026-04-06T13:15:13.913Z</time></trkpt><trkpt lat="53.54262745475603" lon="14.726166318558453"><ele>-3.0</ele><time>2026-04-06T13:15:14.913Z</time></trkpt><trkpt lat="53.54274105375175" lon="14.72615838967418"><ele>-3.0</ele><time>2026-04-06T13:15:15.913Z</time></trkpt><trkpt lat="53.542819193131685" lon="14.726157838642875"><ele>-3.0</ele><time>2026-04-06T13:15:16.913Z</time></trkpt><trkpt lat="53.54289677743634" lon="14.726161393479233"><ele>-3.0</ele><time>2026-04-06T13:15:17.913Z</time></trkpt><trkpt lat="53.54296383303652" lon="14.726164465901656"><ele>-3.0</ele><time>2026-04-06T13:15:18.913Z</time></trkpt><trkpt lat="53.543063412656636" lon="14.726161880077587"><ele>-3.0</ele><time>2026-04-06T13:15:19.913Z</time></trkpt><trkpt lat="53.54316422249682" lon="14.726127843645024"><ele>-3.0</ele><time>2026-04-06T13:15:20.913Z</time></trkpt><trkpt lat="53.543248503645145" lon="14.72611084242537"><ele>-3.0</ele><time>2026-04-06T13:15:21.913Z</time></trkpt><trkpt lat="53.543325150872626" lon="14.726074280131881"><ele>-3.0</ele><time>2026-04-06T13:15:22.913Z</time></trkpt><trkpt lat="53.543417581743185" lon="14.72603391913133"><ele>-3.0</ele><time>2026-04-06T13:15:23.913Z</time></trkpt><trkpt lat="53.54352482142084" lon="14.726004926356007"><ele>-3.0</ele><time>2026-04-06T13:15:24.913Z</time></trkpt><trkpt lat="53.54360365740548" lon="14.725982982110326"><ele>-3.0</ele><time>2026-04-06T13:15:25.913Z</time></trkpt><trkpt lat="53.543690411542165" lon="14.72596760726535"><ele>-3.0</ele><time>2026-04-06T13:15:26.913Z</time></trkpt><trkpt lat="53.5437544795819" lon="14.725946426624711"><ele>-3.0</ele><time>2026-04-06T13:15:27.913Z</time></trkpt><trkpt lat="53.54381892227052" lon="14.725920893468357"><ele>-3.0</ele><time>2026-04-06T13:15:28.913Z</time></trkpt><trkpt lat="53.5439212684071" lon="14.725874879525318"><ele>-3.0</ele><time>2026-04-06T13:15:29.913Z</time></trkpt><trkpt lat="53.54404353910899" lon="14.72582669445935"><ele>-3.0</ele><time>2026-04-06T13:15:31.913Z</time></trkpt><trkpt lat="53.5441274577416" lon="14.725796310064542"><ele>-3.0</ele><time>2026-04-06T13:15:32.913Z</time></trkpt><trkpt lat="53.54422720549419" lon="14.725758721582988"><ele>-3.0</ele><time>2026-04-06T13:15:33.913Z</time></trkpt><trkpt lat="53.54432973227157" lon="14.725755757860998"><ele>-3.0</ele><time>2026-04-06T13:15:34.913Z</time></trkpt><trkpt lat="53.54443770730631" lon="14.72574032749167"><ele>-3.0</ele><time>2026-04-06T13:15:35.913Z</time></trkpt><trkpt lat="53.54453772983026" lon="14.725731334619542"><ele>-3.0</ele><time>2026-04-06T13:15:36.913Z</time></trkpt><trkpt lat="53.544635647992116" lon="14.725687331355587"><ele>-3.0</ele><time>2026-04-06T13:15:37.913Z</time></trkpt><trkpt lat="53.54474148861406" lon="14.725688316930135"><ele>-3.0</ele><time>2026-04-06T13:15:38.913Z</time></trkpt><trkpt lat="53.544819126503135" lon="14.725697724177081"><ele>-3.0</ele><time>2026-04-06T13:15:39.913Z</time></trkpt><trkpt lat="53.54489707302288" lon="14.725701773809703"><ele>-3.0</ele><time>2026-04-06T13:15:40.913Z</time></trkpt><trkpt lat="53.544973957000394" lon="14.725696725729573"><ele>-3.0</ele><time>2026-04-06T13:15:41.913Z</time></trkpt><trkpt lat="53.54507420367042" lon="14.72568382252256"><ele>-3.0</ele><time>2026-04-06T13:15:42.913Z</time></trkpt><trkpt lat="53.545154041789644" lon="14.725697088974833"><ele>-3.0</ele><time>2026-04-06T13:15:43.913Z</time></trkpt><trkpt lat="53.54528522589508" lon="14.725698105855745"><ele>-3.0</ele><time>2026-04-06T13:15:44.913Z</time></trkpt><trkpt lat="53.545395786496705" lon="14.725691042815896"><ele>-2.75</ele><time>2026-04-06T13:15:45.913Z</time></trkpt><trkpt lat="53.54550423589486" lon="14.725675114536564"><ele>-2.5</ele><time>2026-04-06T13:15:46.913Z</time></trkpt><trkpt lat="53.5456290380219" lon="14.725672040746437"><ele>-2.25</ele><time>2026-04-06T13:15:47.913Z</time></trkpt><trkpt lat="53.54574603497274" lon="14.72566248436199"><ele>-2.0</ele><time>2026-04-06T13:15:48.913Z</time></trkpt><trkpt lat="53.54584677025408" lon="14.725656137335102"><ele>-2.0</ele><time>2026-04-06T13:15:49.913Z</time></trkpt><trkpt lat="53.54596734647737" lon="14.725652624664157"><ele>-2.0</ele><time>2026-04-06T13:15:50.913Z</time></trkpt><trkpt lat="53.5460932209596" lon="14.725646556449266"><ele>-2.0</ele><time>2026-04-06T13:15:51.913Z</time></trkpt><trkpt lat="53.546185619947025" lon="14.725641699730156"><ele>-2.0</ele><time>2026-04-06T13:15:52.913Z</time></trkpt><trkpt lat="53.54625679898205" lon="14.725638176369722"><ele>-2.0</ele><time>2026-04-06T13:15:53.913Z</time></trkpt><trkpt lat="53.546323314697645" lon="14.725657805017784"><ele>-2.2</ele><time>2026-04-06T13:15:54.913Z</time></trkpt><trkpt lat="53.54640214137055" lon="14.725655199970218"><ele>-2.4000000000000004</ele><time>2026-04-06T13:15:55.913Z</time></trkpt><trkpt lat="53.54650204333115" lon="14.725653464877267"><ele>-2.5999999999999996</ele><time>2026-04-06T13:15:56.913Z</time></trkpt><trkpt lat="53.54659976528118" lon="14.72562603614426"><ele>-2.8</ele><time>2026-04-06T13:15:57.913Z</time></trkpt><trkpt lat="53.54669965507632" lon="14.725631959687073"><ele>-3.0</ele><time>2026-04-06T13:15:58.913Z</time></trkpt><trkpt lat="53.54678960888999" lon="14.725633058890553"><ele>-3.0</ele><time>2026-04-06T13:15:59.913Z</time></trkpt><trkpt lat="53.54688990811035" lon="14.72562058814736"><ele>-3.0</ele><time>2026-04-06T13:16:00.913Z</time></trkpt><trkpt lat="53.5469793074288" lon="14.725600756567104"><ele>-3.0</ele><time>2026-04-06T13:16:01.914Z</time></trkpt><trkpt lat="53.54705394143848" lon="14.725600539744962"><ele>-3.0</ele><time>2026-04-06T13:16:02.916Z</time></trkpt><trkpt lat="53.54714066563527" lon="14.725576617802876"><ele>-3.0</ele><time>2026-04-06T13:16:03.917Z</time></trkpt><trkpt lat="53.5472376696468" lon="14.725523621921754"><ele>-3.0</ele><time>2026-04-06T13:16:04.918Z</time></trkpt><trkpt lat="53.54736143452188" lon="14.725490745580219"><ele>-3.0</ele><time>2026-04-06T13:16:05.919Z</time></trkpt><trkpt lat="53.547466612373405" lon="14.725464525086181"><ele>-3.0</ele><time>2026-04-06T13:16:06.92Z</time></trkpt><trkpt lat="53.54756867909304" lon="14.725437461340055"><ele>-3.0</ele><time>2026-04-06T13:16:07.921Z</time></trkpt><trkpt lat="53.54765106444496" lon="14.725419393136665"><ele>-3.0</ele><time>2026-04-06T13:16:08.922Z</time></trkpt><trkpt lat="53.54774067395259" lon="14.725385147068195"><ele>-3.0</ele><time>2026-04-06T13:16:09.923Z</time></trkpt><trkpt lat="53.547842614739444" lon="14.72536344643777"><ele>-3.0</ele><time>2026-04-06T13:16:10.924Z</time></trkpt><trkpt lat="53.547943903716465" lon="14.725336865864692"><ele>-3.0</ele><time>2026-04-06T13:16:11.924Z</time></trkpt><trkpt lat="53.54804859320247" lon="14.725313841181176"><ele>-3.0</ele><time>2026-04-06T13:16:12.925Z</time></trkpt><trkpt lat="53.54815278137894" lon="14.72529309262707"><ele>-3.0</ele><time>2026-04-06T13:16:13.926Z</time></trkpt><trkpt lat="53.54825932805344" lon="14.72526475646072"><ele>-3.0</ele><time>2026-04-06T13:16:14.926Z</time></trkpt><trkpt lat="53.5483593269481" lon="14.725239439420635"><ele>-3.0</ele><time>2026-04-06T13:16:15.927Z</time></trkpt><trkpt lat="53.548462725977906" lon="14.725218897917504"><ele>-3.0</ele><time>2026-04-06T13:16:16.927Z</time></trkpt><trkpt lat="53.54854870794493" lon="14.725183725852448"><ele>-3.0</ele><time>2026-04-06T13:16:17.928Z</time></trkpt><trkpt lat="53.54864559595101" lon="14.725162361839628"><ele>-3.0</ele><time>2026-04-06T13:16:18.928Z</time></trkpt><trkpt lat="53.54875014334556" lon="14.725144570364545"><ele>-3.0</ele><time>2026-04-06T13:16:19.929Z</time></trkpt><trkpt lat="53.54885462978193" lon="14.725129218454791"><ele>-3.0</ele><time>2026-04-06T13:16:20.929Z</time></trkpt><trkpt lat="53.54897043862562" lon="14.725116875968467"><ele>-3.0</ele><time>2026-04-06T13:16:21.93Z</time></trkpt><trkpt lat="53.54909200184501" lon="14.725101188742212"><ele>-3.0</ele><time>2026-04-06T13:16:22.93Z</time></trkpt><trkpt lat="53.549205299935885" lon="14.72508733505821"><ele>-3.0</ele><time>2026-04-06T13:16:23.93Z</time></trkpt><trkpt lat="53.54931166500922" lon="14.725071641714877"><ele>-3.0</ele><time>2026-04-06T13:16:24.931Z</time></trkpt><trkpt lat="53.54942261378858" lon="14.725062790490849"><ele>-3.0</ele><time>2026-04-06T13:16:25.931Z</time></trkpt><trkpt lat="53.5495375242408" lon="14.725051571626617"><ele>-3.0</ele><time>2026-04-06T13:16:26.931Z</time></trkpt><trkpt lat="53.54965123223419" lon="14.725042890661177"><ele>-3.0</ele><time>2026-04-06T13:16:27.932Z</time></trkpt><trkpt lat="53.54976108686274" lon="14.725033703329972"><ele>-2.8</ele><time>2026-04-06T13:16:28.932Z</time></trkpt><trkpt lat="53.54985921664225" lon="14.725029538200229"><ele>-2.5999999999999996</ele><time>2026-04-06T13:16:29.932Z</time></trkpt><trkpt lat="53.54995850776479" lon="14.72502096168354"><ele>-2.4000000000000004</ele><time>2026-04-06T13:16:30.932Z</time></trkpt><trkpt lat="53.55006076843298" lon="14.725019454067235"><ele>-2.2</ele><time>2026-04-06T13:16:31.933Z</time></trkpt><trkpt lat="53.5501556457321" lon="14.725017923577964"><ele>-2.0</ele><time>2026-04-06T13:16:32.933Z</time></trkpt><trkpt lat="53.55023023795622" lon="14.725012490932734"><ele>-2.0</ele><time>2026-04-06T13:16:33.933Z</time></trkpt><trkpt lat="53.550308602424224" lon="14.724986858984867"><ele>-2.0</ele><time>2026-04-06T13:16:34.933Z</time></trkpt><trkpt lat="53.55038178930875" lon="14.72494507902795"><ele>-2.0</ele><time>2026-04-06T13:16:35.933Z</time></trkpt><trkpt lat="53.550490311283355" lon="14.724883078161666"><ele>-2.0</ele><time>2026-04-06T13:16:36.933Z</time></trkpt><trkpt lat="53.55062340738399" lon="14.724815672589632"><ele>-2.0</ele><time>2026-04-06T13:16:37.934Z</time></trkpt><trkpt lat="53.55076081485656" lon="14.724744117502023"><ele>-2.333333333333333</ele><time>2026-04-06T13:16:38.934Z</time></trkpt><trkpt lat="53.55092257745787" lon="14.72465806079164"><ele>-2.6666666666666665</ele><time>2026-04-06T13:16:39.934Z</time></trkpt><trkpt lat="53.55108931310425" lon="14.72456484217345"><ele>-3.0</ele><time>2026-04-06T13:16:40.934Z</time></trkpt><trkpt lat="53.55126090786605" lon="14.724502817070515"><ele>-3.0</ele><time>2026-04-06T13:16:41.934Z</time></trkpt><trkpt lat="53.55142957803952" lon="14.724417016913357"><ele>-3.0</ele><time>2026-04-06T13:16:42.933Z</time></trkpt><trkpt lat="53.551584897822686" lon="14.724337536823393"><ele>-3.0</ele><time>2026-04-06T13:16:43.933Z</time></trkpt><trkpt lat="53.55173224356053" lon="14.724232588145561"><ele>-3.0</ele><time>2026-04-06T13:16:44.933Z</time></trkpt><trkpt lat="53.55191598480005" lon="14.724140385506395"><ele>-3.0</ele><time>2026-04-06T13:16:45.933Z</time></trkpt><trkpt lat="53.552085481333485" lon="14.7240504732192"><ele>-3.0</ele><time>2026-04-06T13:16:46.933Z</time></trkpt><trkpt lat="53.55225070416903" lon="14.723967479737333"><ele>-3.0</ele><time>2026-04-06T13:16:47.933Z</time></trkpt><trkpt lat="53.55240244952222" lon="14.723886169071488"><ele>-3.0</ele><time>2026-04-06T13:16:48.933Z</time></trkpt><trkpt lat="53.55253419653457" lon="14.723820738433044"><ele>-3.0</ele><time>2026-04-06T13:16:49.933Z</time></trkpt><trkpt lat="53.55264502871736" lon="14.723763788827922"><ele>-3.0</ele><time>2026-04-06T13:16:50.933Z</time></trkpt><trkpt lat="53.55273213469605" lon="14.723751395533789"><ele>-3.0</ele><time>2026-04-06T13:16:51.934Z</time></trkpt><trkpt lat="53.55280572997726" lon="14.723651014905176"><ele>-3.0</ele><time>2026-04-06T13:16:53.933Z</time></trkpt><trkpt lat="53.55280221350658" lon="14.723544397313548"><ele>-3.0</ele><time>2026-04-06T13:16:56.933Z</time></trkpt><trkpt lat="53.5527417641699" lon="14.723365175698532"><ele>-3.0</ele><time>2026-04-06T13:19:00.933Z</time></trkpt><trkpt lat="53.552694224107945" lon="14.723273818359127"><ele>-3.0</ele><time>2026-04-06T13:19:01.933Z</time></trkpt><trkpt lat="53.55266213563299" lon="14.723167372072432"><ele>-3.0</ele><time>2026-04-06T13:19:02.933Z</time></trkpt><trkpt lat="53.552634770637624" lon="14.72306354008672"><ele>-2.8333333333333335</ele><time>2026-04-06T13:19:03.933Z</time></trkpt><trkpt lat="53.552602862291685" lon="14.722960035527377"><ele>-2.6666666666666665</ele><time>2026-04-06T13:19:04.933Z</time></trkpt><trkpt lat="53.55256710318326" lon="14.722839822594944"><ele>-2.5</ele><time>2026-04-06T13:19:05.933Z</time></trkpt><trkpt lat="53.55253112572438" lon="14.722712245990927"><ele>-2.333333333333333</ele><time>2026-04-06T13:19:06.933Z</time></trkpt><trkpt lat="53.55248671293761" lon="14.722576861457306"><ele>-2.1666666666666665</ele><time>2026-04-06T13:19:07.933Z</time></trkpt><trkpt lat="53.552445151806104" lon="14.722428945318898"><ele>-2.0</ele><time>2026-04-06T13:19:08.933Z</time></trkpt><trkpt lat="53.55239997042169" lon="14.722275214298628"><ele>-2.0</ele><time>2026-04-06T13:19:09.933Z</time></trkpt><trkpt lat="53.55235700006945" lon="14.722130584632371"><ele>-2.0</ele><time>2026-04-06T13:19:10.933Z</time></trkpt><trkpt lat="53.55231298870422" lon="14.721982612464021"><ele>-2.0</ele><time>2026-04-06T13:19:11.933Z</time></trkpt><trkpt lat="53.55226768369432" lon="14.72182546679386"><ele>-2.0</ele><time>2026-04-06T13:19:12.933Z</time></trkpt><trkpt lat="53.552237082145204" lon="14.721644531168161"><ele>-2.0</ele><time>2026-04-06T13:19:13.933Z</time></trkpt><trkpt lat="53.55219065254108" lon="14.721463022481979"><ele>-2.0</ele><time>2026-04-06T13:19:14.933Z</time></trkpt><trkpt lat="53.55214444987492" lon="14.721274045488947"><ele>-2.0</ele><time>2026-04-06T13:19:15.933Z</time></trkpt><trkpt lat="53.55210222349981" lon="14.721090258031683"><ele>-2.0</ele><time>2026-04-06T13:19:16.933Z</time></trkpt><trkpt lat="53.55206305949634" lon="14.720905612996145"><ele>-2.0</ele><time>2026-04-06T13:19:17.933Z</time></trkpt><trkpt lat="53.552026220984864" lon="14.720718051166815"><ele>-2.0</ele><time>2026-04-06T13:19:18.933Z</time></trkpt><trkpt lat="53.55197640493042" lon="14.720549600906047"><ele>-2.0</ele><time>2026-04-06T13:19:19.933Z</time></trkpt><trkpt lat="53.551942720218264" lon="14.720372187536208"><ele>-2.0</ele><time>2026-04-06T13:19:20.933Z</time></trkpt><trkpt lat="53.55190524212712" lon="14.72019006809501"><ele>-2.0</ele><time>2026-04-06T13:19:21.933Z</time></trkpt><trkpt lat="53.55186385601406" lon="14.720006774292452"><ele>-2.0</ele><time>2026-04-06T13:19:22.933Z</time></trkpt><trkpt lat="53.55182597856706" lon="14.719819578704186"><ele>-2.0</ele><time>2026-04-06T13:19:23.933Z</time></trkpt><trkpt lat="53.55178696065723" lon="14.719636216448514"><ele>-2.0</ele><time>2026-04-06T13:19:24.933Z</time></trkpt><trkpt lat="53.55174654596123" lon="14.719452947620807"><ele>-2.0</ele><time>2026-04-06T13:19:25.933Z</time></trkpt><trkpt lat="53.551706432099415" lon="14.719262746321888"><ele>-2.0</ele><time>2026-04-06T13:19:26.933Z</time></trkpt><trkpt lat="53.55166400858039" lon="14.719067109709615"><ele>-2.0</ele><time>2026-04-06T13:19:27.933Z</time></trkpt><trkpt lat="53.55162478811094" lon="14.718879552687238"><ele>-2.0</ele><time>2026-04-06T13:19:28.933Z</time></trkpt><trkpt lat="53.551594991152115" lon="14.718675166985397"><ele>-2.0</ele><time>2026-04-06T13:19:29.933Z</time></trkpt><trkpt lat="53.55155559821338" lon="14.718486392909059"><ele>-2.0</ele><time>2026-04-06T13:19:30.933Z</time></trkpt><trkpt lat="53.551504753825974" lon="14.718303834706862"><ele>-2.0</ele><time>2026-04-06T13:19:31.933Z</time></trkpt><trkpt lat="53.55146128808761" lon="14.718121486033647"><ele>-2.0</ele><time>2026-04-06T13:19:32.933Z</time></trkpt><trkpt lat="53.55142816580483" lon="14.717917494401709"><ele>-2.0</ele><time>2026-04-06T13:19:33.933Z</time></trkpt><trkpt lat="53.55139182932665" lon="14.717717578034355"><ele>-2.0</ele><time>2026-04-06T13:19:34.933Z</time></trkpt><trkpt lat="53.55136018912485" lon="14.717512583253951"><ele>-2.0</ele><time>2026-04-06T13:19:35.933Z</time></trkpt><trkpt lat="53.55133017438751" lon="14.717297879397137"><ele>-2.0</ele><time>2026-04-06T13:19:36.933Z</time></trkpt><trkpt lat="53.55130277690561" lon="14.717088881423184"><ele>-2.0</ele><time>2026-04-06T13:19:37.933Z</time></trkpt><trkpt lat="53.5512773953597" lon="14.716870541451232"><ele>-2.25</ele><time>2026-04-06T13:19:38.933Z</time></trkpt><trkpt lat="53.55123654775576" lon="14.716665667131714"><ele>-2.5</ele><time>2026-04-06T13:19:39.933Z</time></trkpt><trkpt lat="53.551214921777806" lon="14.716476995322099"><ele>-2.75</ele><time>2026-04-06T13:19:40.933Z</time></trkpt><trkpt lat="53.551219065305865" lon="14.716287689290942"><ele>-3.0</ele><time>2026-04-06T13:19:41.933Z</time></trkpt><trkpt lat="53.551222729021625" lon="14.716091267379838"><ele>-2.5</ele><time>2026-04-06T13:19:42.933Z</time></trkpt><trkpt lat="53.55123708462309" lon="14.715884676580028"><ele>-2.0</ele><time>2026-04-06T13:19:43.933Z</time></trkpt><trkpt lat="53.55126903850938" lon="14.715683395386616"><ele>-1.5</ele><time>2026-04-06T13:19:44.933Z</time></trkpt><trkpt lat="53.55131779491556" lon="14.715492486298785"><ele>-1.0</ele><time>2026-04-06T13:19:45.933Z</time></trkpt><trkpt lat="53.55136186195012" lon="14.715288631443572"><ele>-1.25</ele><time>2026-04-06T13:19:46.933Z</time></trkpt><trkpt lat="53.55141675317103" lon="14.715086410413356"><ele>-1.5</ele><time>2026-04-06T13:19:47.933Z</time></trkpt><trkpt lat="53.55147147470096" lon="14.714879909647578"><ele>-1.75</ele><time>2026-04-06T13:19:48.934Z</time></trkpt><trkpt lat="53.55152197974995" lon="14.714680544418654"><ele>-2.0</ele><time>2026-04-06T13:19:49.934Z</time></trkpt><trkpt lat="53.55157384571883" lon="14.714483053383303"><ele>-2.25</ele><time>2026-04-06T13:19:50.934Z</time></trkpt><trkpt lat="53.55162578633669" lon="14.71428884689246"><ele>-2.5</ele><time>2026-04-06T13:19:51.934Z</time></trkpt><trkpt lat="53.551675384650665" lon="14.714092505336707"><ele>-2.75</ele><time>2026-04-06T13:19:52.934Z</time></trkpt><trkpt lat="53.55173046345055" lon="14.713892199769395"><ele>-3.0</ele><time>2026-04-06T13:19:53.934Z</time></trkpt><trkpt lat="53.551806729366845" lon="14.71369455857976"><ele>-2.75</ele><time>2026-04-06T13:19:54.934Z</time></trkpt><trkpt lat="53.551877931884434" lon="14.713486060908103"><ele>-2.5</ele><time>2026-04-06T13:19:55.934Z</time></trkpt><trkpt lat="53.55194076338942" lon="14.713251247198707"><ele>-2.25</ele><time>2026-04-06T13:19:56.934Z</time></trkpt><trkpt lat="53.55200740725675" lon="14.713036981090081"><ele>-2.0</ele><time>2026-04-06T13:19:57.934Z</time></trkpt><trkpt lat="53.5520770772549" lon="14.712828499504282"><ele>-2.0</ele><time>2026-04-06T13:19:58.934Z</time></trkpt><trkpt lat="53.552144512533324" lon="14.712630902483049"><ele>-2.0</ele><time>2026-04-06T13:19:59.934Z</time></trkpt><trkpt lat="53.55221056254607" lon="14.712423792277903"><ele>-2.0</ele><time>2026-04-06T13:20:00.934Z</time></trkpt><trkpt lat="53.552279672534716" lon="14.712217890174092"><ele>-2.0</ele><time>2026-04-06T13:20:01.934Z</time></trkpt><trkpt lat="53.55235003563455" lon="14.712013576769937"><ele>-2.0</ele><time>2026-04-06T13:20:02.934Z</time></trkpt><trkpt lat="53.55241613431836" lon="14.711805374573435"><ele>-2.0</ele><time>2026-04-06T13:20:03.934Z</time></trkpt><trkpt lat="53.55248561463869" lon="14.711598860740416"><ele>-2.0</ele><time>2026-04-06T13:20:04.934Z</time></trkpt><trkpt lat="53.55255768811769" lon="14.711396247089644"><ele>-2.0</ele><time>2026-04-06T13:20:05.934Z</time></trkpt><trkpt lat="53.55264252562884" lon="14.711219754791724"><ele>-2.0</ele><time>2026-04-06T13:20:06.934Z</time></trkpt><trkpt lat="53.55271384480158" lon="14.711032264357703"><ele>-2.0</ele><time>2026-04-06T13:20:07.934Z</time></trkpt><trkpt lat="53.5527717726232" lon="14.71083244509863"><ele>-2.0</ele><time>2026-04-06T13:20:08.934Z</time></trkpt><trkpt lat="53.552851950177676" lon="14.710626476813985"><ele>-2.0</ele><time>2026-04-06T13:20:09.934Z</time></trkpt><trkpt lat="53.552930498224036" lon="14.710431905173746"><ele>-2.0</ele><time>2026-04-06T13:20:10.934Z</time></trkpt><trkpt lat="53.55300743428031" lon="14.710228682480253"><ele>-2.0</ele><time>2026-04-06T13:20:11.934Z</time></trkpt><trkpt lat="53.553080904083664" lon="14.71002225151796"><ele>-2.0</ele><time>2026-04-06T13:20:12.934Z</time></trkpt><trkpt lat="53.55315969896053" lon="14.709811036673507"><ele>-2.0</ele><time>2026-04-06T13:20:13.934Z</time></trkpt><trkpt lat="53.55323115000431" lon="14.709595406699314"><ele>-2.0</ele><time>2026-04-06T13:20:14.934Z</time></trkpt><trkpt lat="53.55328757209151" lon="14.709374740172226"><ele>-2.0</ele><time>2026-04-06T13:20:15.934Z</time></trkpt><trkpt lat="53.55332103480267" lon="14.709159446804772"><ele>-2.0</ele><time>2026-04-06T13:20:16.934Z</time></trkpt><trkpt lat="53.553337845097374" lon="14.708941386604105"><ele>-2.0</ele><time>2026-04-06T13:20:17.934Z</time></trkpt><trkpt lat="53.55334720234647" lon="14.708712133441184"><ele>-2.0</ele><time>2026-04-06T13:20:18.934Z</time></trkpt><trkpt lat="53.553366178546376" lon="14.708476397560108"><ele>-2.0</ele><time>2026-04-06T13:20:19.934Z</time></trkpt><trkpt lat="53.553372626693594" lon="14.708240761842763"><ele>-2.0</ele><time>2026-04-06T13:20:20.934Z</time></trkpt><trkpt lat="53.553357965629615" lon="14.708034110800163"><ele>-2.0</ele><time>2026-04-06T13:20:21.934Z</time></trkpt><trkpt lat="53.55333574270032" lon="14.70784394165323"><ele>-2.25</ele><time>2026-04-06T13:20:22.934Z</time></trkpt><trkpt lat="53.55330994144488" lon="14.707652196605874"><ele>-2.5</ele><time>2026-04-06T13:20:23.934Z</time></trkpt><trkpt lat="53.55327834021644" lon="14.707451299639418"><ele>-2.75</ele><time>2026-04-06T13:20:24.934Z</time></trkpt><trkpt lat="53.55324926035558" lon="14.707232548815858"><ele>-3.0</ele><time>2026-04-06T13:20:25.934Z</time></trkpt><trkpt lat="53.553220478548205" lon="14.707008346115598"><ele>-3.0</ele><time>2026-04-06T13:20:26.934Z</time></trkpt><trkpt lat="53.553190156264435" lon="14.70677571682533"><ele>-3.0</ele><time>2026-04-06T13:20:27.934Z</time></trkpt><trkpt lat="53.553157346207335" lon="14.70653938481456"><ele>-3.0</ele><time>2026-04-06T13:20:28.934Z</time></trkpt><trkpt lat="53.553127465130906" lon="14.706301013527401"><ele>-3.0</ele><time>2026-04-06T13:20:29.934Z</time></trkpt><trkpt lat="53.553097286732275" lon="14.706057472694427"><ele>-3.0</ele><time>2026-04-06T13:20:30.934Z</time></trkpt><trkpt lat="53.553082307030536" lon="14.705820623467773"><ele>-3.0</ele><time>2026-04-06T13:20:31.934Z</time></trkpt><trkpt lat="53.5530549293364" lon="14.705604925764925"><ele>-3.0</ele><time>2026-04-06T13:20:32.934Z</time></trkpt><trkpt lat="53.55302755384922" lon="14.705388322120095"><ele>-3.0</ele><time>2026-04-06T13:20:33.934Z</time></trkpt><trkpt lat="53.55298683169641" lon="14.705174469497377"><ele>-2.75</ele><time>2026-04-06T13:20:34.934Z</time></trkpt><trkpt lat="53.552958106773325" lon="14.704953017652034"><ele>-2.5</ele><time>2026-04-06T13:20:35.934Z</time></trkpt><trkpt lat="53.5529304685293" lon="14.704731348996528"><ele>-2.25</ele><time>2026-04-06T13:20:36.934Z</time></trkpt><trkpt lat="53.55290284242771" lon="14.704499360984368"><ele>-2.0</ele><time>2026-04-06T13:20:37.934Z</time></trkpt><trkpt lat="53.55287542256575" lon="14.704266170281608"><ele>-2.0</ele><time>2026-04-06T13:20:38.934Z</time></trkpt><trkpt lat="53.552846361180315" lon="14.704034297054665"><ele>-2.0</ele><time>2026-04-06T13:20:39.934Z</time></trkpt><trkpt lat="53.55282289920297" lon="14.703836861389725"><ele>-2.0</ele><time>2026-04-06T13:20:40.934Z</time></trkpt><trkpt lat="53.55280064519346" lon="14.70366445303601"><ele>-2.0</ele><time>2026-04-06T13:20:41.934Z</time></trkpt><trkpt lat="53.5527842454031" lon="14.703532374559543"><ele>-2.0</ele><time>2026-04-06T13:20:42.934Z</time></trkpt><trkpt lat="53.552792922249" lon="14.703381572318442"><ele>-1.9999999999999998</ele><time>2026-04-06T13:20:44.934Z</time></trkpt><trkpt lat="53.55281876488749" lon="14.703284696165543"><ele>-2.0</ele><time>2026-04-06T13:20:53.934Z</time></trkpt><trkpt lat="53.55290705773173" lon="14.703299539525737"><ele>-2.0</ele><time>2026-04-06T13:20:55.932Z</time></trkpt><trkpt lat="53.55303014532318" lon="14.70325265899103"><ele>-2.0</ele><time>2026-04-06T13:20:57.932Z</time></trkpt><trkpt lat="53.55310125863504" lon="14.703202886008098"><ele>-1.9999999999999998</ele><time>2026-04-06T13:20:58.932Z</time></trkpt><trkpt lat="53.55317237206115" lon="14.703152676937394"><ele>-2.0</ele><time>2026-04-06T13:20:59.932Z</time></trkpt><trkpt lat="53.55325171452833" lon="14.703108158843053"><ele>-2.0</ele><time>2026-04-06T13:21:00.932Z</time></trkpt><trkpt lat="53.553345137645465" lon="14.703053809582357"><ele>-2.0</ele><time>2026-04-06T13:21:01.932Z</time></trkpt><trkpt lat="53.553436853516565" lon="14.702993989432183"><ele>-2.0</ele><time>2026-04-06T13:21:02.932Z</time></trkpt><trkpt lat="53.55352865290027" lon="14.702931641146446"><ele>-2.0</ele><time>2026-04-06T13:21:03.932Z</time></trkpt><trkpt lat="53.55358722125316" lon="14.702889731345815"><ele>-2.0</ele><time>2026-04-06T13:21:04.932Z</time></trkpt><trkpt lat="53.55368949726553" lon="14.70282632559453"><ele>-2.1666666666666665</ele><time>2026-04-06T13:21:06.932Z</time></trkpt><trkpt lat="53.55376371762234" lon="14.702803849270845"><ele>-2.333333333333333</ele><time>2026-04-06T13:22:18.933Z</time></trkpt><trkpt lat="53.553847625615944" lon="14.70275251338563"><ele>-2.5</ele><time>2026-04-06T13:22:25.933Z</time></trkpt><trkpt lat="53.55391525024397" lon="14.702710400394485"><ele>-2.6666666666666665</ele><time>2026-04-06T13:22:26.933Z</time></trkpt><trkpt lat="53.55399052387972" lon="14.702664115779156"><ele>-2.8333333333333335</ele><time>2026-04-06T13:22:27.933Z</time></trkpt><trkpt lat="53.55405933347974" lon="14.702622486977255"><ele>-3.0</ele><time>2026-04-06T13:22:28.933Z</time></trkpt><trkpt lat="53.55411987053135" lon="14.70258555648423"><ele>-3.0</ele><time>2026-04-06T13:22:29.933Z</time></trkpt><trkpt lat="53.55424028971953" lon="14.702511733707436"><ele>-3.0</ele><time>2026-04-06T13:22:31.933Z</time></trkpt><trkpt lat="53.554301335087494" lon="14.702475705386068"><ele>-3.0</ele><time>2026-04-06T13:22:32.933Z</time></trkpt><trkpt lat="53.554363819582484" lon="14.70243926031291"><ele>-3.0</ele><time>2026-04-06T13:22:34.933Z</time></trkpt><trkpt lat="53.55441903310416" lon="14.702375540202814"><ele>-3.0</ele><time>2026-04-06T13:22:44.933Z</time></trkpt><trkpt lat="53.55436623044533" lon="14.701988827636468"><ele>-3.0</ele><time>2026-04-06T13:22:45.933Z</time></trkpt><trkpt lat="53.55437028957064" lon="14.70177355919819"><ele>-3.0</ele><time>2026-04-06T13:22:47.933Z</time></trkpt><trkpt lat="53.554372639213575" lon="14.701653033837303"><ele>-3.0</ele><time>2026-04-06T13:22:48.933Z</time></trkpt><trkpt lat="53.554375432930634" lon="14.701505043606621"><ele>-3.0</ele><time>2026-04-06T13:22:49.933Z</time></trkpt><trkpt lat="53.554378665606485" lon="14.701348622349084"><ele>-3.0</ele><time>2026-04-06T13:22:50.933Z</time></trkpt><trkpt lat="53.554379670586385" lon="14.701160619546908"><ele>-3.0</ele><time>2026-04-06T13:22:51.933Z</time></trkpt><trkpt lat="53.554382054664686" lon="14.700988120956469"><ele>-3.0</ele><time>2026-04-06T13:22:52.933Z</time></trkpt><trkpt lat="53.55438243668102" lon="14.70081126594088"><ele>-3.0</ele><time>2026-04-06T13:22:53.933Z</time></trkpt><trkpt lat="53.5543893033428" lon="14.700649245340783"><ele>-3.0</ele><time>2026-04-06T13:22:54.933Z</time></trkpt><trkpt lat="53.55439764355283" lon="14.700471053697393"><ele>-3.0</ele><time>2026-04-06T13:22:55.933Z</time></trkpt><trkpt lat="53.55439778840774" lon="14.700301957186888"><ele>-2.8</ele><time>2026-04-06T13:22:56.933Z</time></trkpt><trkpt lat="53.554393734538515" lon="14.70013566874769"><ele>-2.5999999999999996</ele><time>2026-04-06T13:22:57.933Z</time></trkpt><trkpt lat="53.554395275130794" lon="14.699972218515216"><ele>-2.4000000000000004</ele><time>2026-04-06T13:22:58.933Z</time></trkpt><trkpt lat="53.55439764555161" lon="14.699779342475741"><ele>-2.2</ele><time>2026-04-06T13:22:59.933Z</time></trkpt><trkpt lat="53.554400982220045" lon="14.699607829842453"><ele>-2.0</ele><time>2026-04-06T13:23:00.931Z</time></trkpt><trkpt lat="53.554407286988" lon="14.699409826192925"><ele>-1.8</ele><time>2026-04-06T13:23:01.931Z</time></trkpt><trkpt lat="53.554411851326165" lon="14.699233114899176"><ele>-1.6</ele><time>2026-04-06T13:23:02.931Z</time></trkpt><trkpt lat="53.554409378839715" lon="14.699048577185755"><ele>-1.4000000000000001</ele><time>2026-04-06T13:23:03.931Z</time></trkpt><trkpt lat="53.554408706051106" lon="14.698863482810898"><ele>-1.2000000000000002</ele><time>2026-04-06T13:23:04.931Z</time></trkpt><trkpt lat="53.55441521010324" lon="14.698705892525043"><ele>-1.0</ele><time>2026-04-06T13:23:05.931Z</time></trkpt><trkpt lat="53.55441712909083" lon="14.698522388205038"><ele>-1.0</ele><time>2026-04-06T13:23:06.931Z</time></trkpt><trkpt lat="53.5544190597838" lon="14.698321004341452"><ele>-1.0</ele><time>2026-04-06T13:23:07.931Z</time></trkpt><trkpt lat="53.55442180073626" lon="14.698138330097493"><ele>-1.0</ele><time>2026-04-06T13:23:08.931Z</time></trkpt><trkpt lat="53.55442305172844" lon="14.697922851486517"><ele>-1.0</ele><time>2026-04-06T13:23:09.931Z</time></trkpt><trkpt lat="53.554421172686276" lon="14.697717230302725"><ele>-1.0</ele><time>2026-04-06T13:23:10.93Z</time></trkpt><trkpt lat="53.55442599809589" lon="14.697533084982046"><ele>-1.0</ele><time>2026-04-06T13:23:11.93Z</time></trkpt><trkpt lat="53.55443087774414" lon="14.697312299218721"><ele>-1.0</ele><time>2026-04-06T13:23:12.931Z</time></trkpt><trkpt lat="53.554434247853436" lon="14.697120240551893"><ele>-1.0</ele><time>2026-04-06T13:23:13.931Z</time></trkpt><trkpt lat="53.55444035581349" lon="14.696921258026244"><ele>-1.0</ele><time>2026-04-06T13:23:14.931Z</time></trkpt><trkpt lat="53.55443830767389" lon="14.696701237524085"><ele>-1.0</ele><time>2026-04-06T13:23:15.931Z</time></trkpt><trkpt lat="53.55444736666577" lon="14.696482982885815"><ele>-1.0</ele><time>2026-04-06T13:23:16.931Z</time></trkpt><trkpt lat="53.554443140380364" lon="14.696256435629103"><ele>-1.0</ele><time>2026-04-06T13:23:17.931Z</time></trkpt><trkpt lat="53.554458922594044" lon="14.69607184593446"><ele>-1.0</ele><time>2026-04-06T13:23:18.931Z</time></trkpt><trkpt lat="53.55446074744341" lon="14.695855638487012"><ele>-1.0</ele><time>2026-04-06T13:23:19.931Z</time></trkpt><trkpt lat="53.55444220358437" lon="14.695615977004403"><ele>-1.0</ele><time>2026-04-06T13:23:20.931Z</time></trkpt><trkpt lat="53.554452730809764" lon="14.695401321164546"><ele>-1.0</ele><time>2026-04-06T13:23:21.931Z</time></trkpt><trkpt lat="53.554453930404634" lon="14.695184467059699"><ele>-1.0</ele><time>2026-04-06T13:23:22.931Z</time></trkpt><trkpt lat="53.55445593043575" lon="14.694961709157912"><ele>-1.0</ele><time>2026-04-06T13:23:23.931Z</time></trkpt><trkpt lat="53.554455564845476" lon="14.694748851888438"><ele>-1.0</ele><time>2026-04-06T13:23:24.931Z</time></trkpt><trkpt lat="53.554454422181216" lon="14.69454317019098"><ele>-1.0</ele><time>2026-04-06T13:23:25.931Z</time></trkpt><trkpt lat="53.55445384221568" lon="14.69432946508312"><ele>-1.0</ele><time>2026-04-06T13:23:26.931Z</time></trkpt><trkpt lat="53.554460769702814" lon="14.694104394002329"><ele>-1.0</ele><time>2026-04-06T13:23:27.931Z</time></trkpt><trkpt lat="53.55446783329761" lon="14.693875503818795"><ele>-1.0</ele><time>2026-04-06T13:23:28.931Z</time></trkpt><trkpt lat="53.554476313832495" lon="14.693658268392682"><ele>-1.0</ele><time>2026-04-06T13:23:29.931Z</time></trkpt><trkpt lat="53.554478461429355" lon="14.693451798568463"><ele>-1.0</ele><time>2026-04-06T13:23:30.931Z</time></trkpt><trkpt lat="53.55447541509026" lon="14.693236415978458"><ele>-1.0</ele><time>2026-04-06T13:23:31.931Z</time></trkpt><trkpt lat="53.55448019815281" lon="14.693021346652266"><ele>-1.0</ele><time>2026-04-06T13:23:32.931Z</time></trkpt><trkpt lat="53.55451004453319" lon="14.692820058971856"><ele>-1.0</ele><time>2026-04-06T13:23:33.931Z</time></trkpt><trkpt lat="53.55453082805561" lon="14.692634993010902"><ele>-1.0</ele><time>2026-04-06T13:23:34.931Z</time></trkpt><trkpt lat="53.55453235412845" lon="14.692442219667928"><ele>-1.0</ele><time>2026-04-06T13:23:35.931Z</time></trkpt><trkpt lat="53.554554047640124" lon="14.692222629494715"><ele>-1.0</ele><time>2026-04-06T13:23:36.931Z</time></trkpt><trkpt lat="53.554579741787855" lon="14.69198899401997"><ele>-1.0</ele><time>2026-04-06T13:23:37.931Z</time></trkpt><trkpt lat="53.554596692568694" lon="14.691787170478838"><ele>-1.2000000000000002</ele><time>2026-04-06T13:23:38.931Z</time></trkpt><trkpt lat="53.55461128648863" lon="14.691595656618748"><ele>-1.4000000000000001</ele><time>2026-04-06T13:23:39.931Z</time></trkpt><trkpt lat="53.55462331476063" lon="14.69140807313758"><ele>-1.6</ele><time>2026-04-06T13:23:40.931Z</time></trkpt><trkpt lat="53.554625865196364" lon="14.691234367950406"><ele>-1.8</ele><time>2026-04-06T13:23:41.931Z</time></trkpt><trkpt lat="53.55464025312651" lon="14.691059270258434"><ele>-2.0</ele><time>2026-04-06T13:23:42.931Z</time></trkpt><trkpt lat="53.55465965104922" lon="14.690880817573742"><ele>-2.25</ele><time>2026-04-06T13:23:43.931Z</time></trkpt><trkpt lat="53.554675858103955" lon="14.690679733365148"><ele>-2.5</ele><time>2026-04-06T13:23:44.931Z</time></trkpt><trkpt lat="53.5546816437095" lon="14.690471932076079"><ele>-2.75</ele><time>2026-04-06T13:23:45.931Z</time></trkpt><trkpt lat="53.55467226726108" lon="14.690268369535744"><ele>-3.0</ele><time>2026-04-06T13:23:46.931Z</time></trkpt><trkpt lat="53.55466018655597" lon="14.690063092792034"><ele>-3.0</ele><time>2026-04-06T13:23:47.931Z</time></trkpt><trkpt lat="53.5546405309734" lon="14.68983973315949"><ele>-3.0</ele><time>2026-04-06T13:23:48.931Z</time></trkpt><trkpt lat="53.55460305423334" lon="14.689606023388718"><ele>-3.0</ele><time>2026-04-06T13:23:49.931Z</time></trkpt><trkpt lat="53.55456453788488" lon="14.689361626968882"><ele>-3.0</ele><time>2026-04-06T13:23:50.931Z</time></trkpt><trkpt lat="53.5545231312347" lon="14.689105819298206"><ele>-3.0</ele><time>2026-04-06T13:23:51.931Z</time></trkpt><trkpt lat="53.554501806381275" lon="14.688874553833367"><ele>-3.0</ele><time>2026-04-06T13:23:52.931Z</time></trkpt><trkpt lat="53.5544790247265" lon="14.688636308148183"><ele>-3.0</ele><time>2026-04-06T13:23:53.931Z</time></trkpt><trkpt lat="53.55445026993289" lon="14.688427677378574"><ele>-3.0</ele><time>2026-04-06T13:23:54.931Z</time></trkpt><trkpt lat="53.554422479843396" lon="14.688233164744275"><ele>-3.0</ele><time>2026-04-06T13:23:55.931Z</time></trkpt><trkpt lat="53.55440326831861" lon="14.688064202391315"><ele>-3.0</ele><time>2026-04-06T13:23:56.931Z</time></trkpt><trkpt lat="53.55437293078748" lon="14.687882702739154"><ele>-3.0</ele><time>2026-04-06T13:23:57.931Z</time></trkpt><trkpt lat="53.55433054281568" lon="14.687712406997104"><ele>-3.0</ele><time>2026-04-06T13:23:58.931Z</time></trkpt><trkpt lat="53.55429302974394" lon="14.687575049651633"><ele>-3.0</ele><time>2026-04-06T13:23:59.931Z</time></trkpt><trkpt lat="53.554300483198" lon="14.687351062768125"><ele>-2.8</ele><time>2026-04-06T13:24:00.931Z</time></trkpt><trkpt lat="53.55426709673495" lon="14.687141553332992"><ele>-2.5999999999999996</ele><time>2026-04-06T13:24:01.931Z</time></trkpt><trkpt lat="53.554245047391674" lon="14.686958171018393"><ele>-2.4000000000000004</ele><time>2026-04-06T13:24:02.931Z</time></trkpt><trkpt lat="53.55421319607692" lon="14.686803573458189"><ele>-2.2</ele><time>2026-04-06T13:24:03.931Z</time></trkpt><trkpt lat="53.55421162114224" lon="14.686627240128923"><ele>-2.0</ele><time>2026-04-06T13:24:04.931Z</time></trkpt><trkpt lat="53.55418109009421" lon="14.686398152756325"><ele>-2.0</ele><time>2026-04-06T13:24:05.931Z</time></trkpt><trkpt lat="53.55415621025908" lon="14.68617285601165"><ele>-2.0</ele><time>2026-04-06T13:24:06.931Z</time></trkpt><trkpt lat="53.55411985760952" lon="14.685978837211778"><ele>-2.0</ele><time>2026-04-06T13:24:07.931Z</time></trkpt><trkpt lat="53.55409862958809" lon="14.68580819729113"><ele>-2.0</ele><time>2026-04-06T13:24:08.931Z</time></trkpt><trkpt lat="53.554071868770116" lon="14.685601760609305"><ele>-2.0</ele><time>2026-04-06T13:24:09.931Z</time></trkpt><trkpt lat="53.55404709228251" lon="14.685412873164662"><ele>-2.0</ele><time>2026-04-06T13:24:10.931Z</time></trkpt><trkpt lat="53.55401743189683" lon="14.685242209992044"><ele>-2.0</ele><time>2026-04-06T13:24:11.931Z</time></trkpt><trkpt lat="53.55399818154945" lon="14.685092531118283"><ele>-2.0</ele><time>2026-04-06T13:24:12.931Z</time></trkpt><trkpt lat="53.553959012479076" lon="14.684929755181487"><ele>-2.0</ele><time>2026-04-06T13:24:13.931Z</time></trkpt><trkpt lat="53.55390514352928" lon="14.68475773347367"><ele>-2.0</ele><time>2026-04-06T13:24:14.931Z</time></trkpt><trkpt lat="53.55383553640959" lon="14.684593851152137"><ele>-2.0</ele><time>2026-04-06T13:24:15.931Z</time></trkpt><trkpt lat="53.5537610851553" lon="14.684411634163865"><ele>-2.0</ele><time>2026-04-06T13:24:16.931Z</time></trkpt><trkpt lat="53.553688344866" lon="14.684244048847702"><ele>-2.0</ele><time>2026-04-06T13:24:17.931Z</time></trkpt><trkpt lat="53.55362203458723" lon="14.684078709452688"><ele>-2.0</ele><time>2026-04-06T13:24:18.931Z</time></trkpt><trkpt lat="53.55354659502011" lon="14.683901742691118"><ele>-2.0</ele><time>2026-04-06T13:24:19.931Z</time></trkpt><trkpt lat="53.5534812488908" lon="14.683723288876214"><ele>-2.0</ele><time>2026-04-06T13:24:20.931Z</time></trkpt><trkpt lat="53.553399251525704" lon="14.683532870405319"><ele>-2.0</ele><time>2026-04-06T13:24:21.931Z</time></trkpt><trkpt lat="53.553337590597174" lon="14.683362617722905"><ele>-2.0</ele><time>2026-04-06T13:24:22.931Z</time></trkpt><trkpt lat="53.55327552405133" lon="14.683194476492597"><ele>-2.0</ele><time>2026-04-06T13:24:23.931Z</time></trkpt><trkpt lat="53.5532116684036" lon="14.683017758356991"><ele>-2.0</ele><time>2026-04-06T13:24:24.931Z</time></trkpt><trkpt lat="53.55315904454515" lon="14.682851489406081"><ele>-2.0</ele><time>2026-04-06T13:24:25.931Z</time></trkpt><trkpt lat="53.55309007268392" lon="14.682682922937813"><ele>-2.0</ele><time>2026-04-06T13:24:26.931Z</time></trkpt><trkpt lat="53.55302485140482" lon="14.68251003616298"><ele>-2.0</ele><time>2026-04-06T13:24:27.931Z</time></trkpt><trkpt lat="53.552967131985376" lon="14.6823337032145"><ele>-2.0</ele><time>2026-04-06T13:24:28.931Z</time></trkpt><trkpt lat="53.552900147108666" lon="14.682154003884058"><ele>-2.0</ele><time>2026-04-06T13:24:29.931Z</time></trkpt><trkpt lat="53.55282632140976" lon="14.681963034505394"><ele>-2.0</ele><time>2026-04-06T13:24:30.931Z</time></trkpt><trkpt lat="53.552748185058654" lon="14.68176806038436"><ele>-2.0</ele><time>2026-04-06T13:24:31.931Z</time></trkpt><trkpt lat="53.55267509751717" lon="14.681565887073896"><ele>-2.0</ele><time>2026-04-06T13:24:32.931Z</time></trkpt><trkpt lat="53.55259844439736" lon="14.681366177626153"><ele>-2.0</ele><time>2026-04-06T13:24:33.931Z</time></trkpt><trkpt lat="53.55251637300572" lon="14.681175683880557"><ele>-2.0</ele><time>2026-04-06T13:24:34.931Z</time></trkpt><trkpt lat="53.55245484662904" lon="14.680995252997775"><ele>-2.0</ele><time>2026-04-06T13:24:35.931Z</time></trkpt><trkpt lat="53.5523872201713" lon="14.680823354545069"><ele>-2.0</ele><time>2026-04-06T13:24:36.931Z</time></trkpt><trkpt lat="53.55231963910552" lon="14.680679908832072"><ele>-2.0</ele><time>2026-04-06T13:24:37.931Z</time></trkpt><trkpt lat="53.55227055544605" lon="14.680524212627985"><ele>-2.0</ele><time>2026-04-06T13:24:38.931Z</time></trkpt><trkpt lat="53.552203699795875" lon="14.68035758286088"><ele>-2.0</ele><time>2026-04-06T13:24:39.931Z</time></trkpt><trkpt lat="53.552131519262836" lon="14.680173230177667"><ele>-2.0</ele><time>2026-04-06T13:24:40.931Z</time></trkpt><trkpt lat="53.55208664839354" lon="14.679981480929856"><ele>-2.0</ele><time>2026-04-06T13:24:41.931Z</time></trkpt><trkpt lat="53.55203183680859" lon="14.679767288958816"><ele>-2.0</ele><time>2026-04-06T13:24:42.931Z</time></trkpt><trkpt lat="53.55200121988085" lon="14.67955611206588"><ele>-2.0</ele><time>2026-04-06T13:24:43.931Z</time></trkpt><trkpt lat="53.55197718608428" lon="14.679349696059003"><ele>-2.0</ele><time>2026-04-06T13:24:44.931Z</time></trkpt><trkpt lat="53.55194258026522" lon="14.679150107483752"><ele>-2.0</ele><time>2026-04-06T13:24:45.931Z</time></trkpt><trkpt lat="53.551894032603265" lon="14.678985705494489"><ele>-2.0</ele><time>2026-04-06T13:24:46.931Z</time></trkpt><trkpt lat="53.55187303699004" lon="14.678774480817424"><ele>-2.0</ele><time>2026-04-06T13:24:47.931Z</time></trkpt><trkpt lat="53.551839063651194" lon="14.678581885109189"><ele>-2.0</ele><time>2026-04-06T13:24:48.931Z</time></trkpt><trkpt lat="53.551798414652275" lon="14.678410431712864"><ele>-2.0</ele><time>2026-04-06T13:24:49.931Z</time></trkpt><trkpt lat="53.5517590647274" lon="14.678216708355674"><ele>-2.25</ele><time>2026-04-06T13:24:50.931Z</time></trkpt><trkpt lat="53.551724681059085" lon="14.67803893115031"><ele>-2.5</ele><time>2026-04-06T13:24:51.931Z</time></trkpt><trkpt lat="53.551681677227144" lon="14.677825247101342"><ele>-2.75</ele><time>2026-04-06T13:24:52.931Z</time></trkpt><trkpt lat="53.551645358121185" lon="14.677603815721605"><ele>-3.0</ele><time>2026-04-06T13:24:53.931Z</time></trkpt><trkpt lat="53.55160001366158" lon="14.67735375630732"><ele>-3.0</ele><time>2026-04-06T13:24:54.931Z</time></trkpt><trkpt lat="53.55155232970786" lon="14.677094756917471"><ele>-3.0</ele><time>2026-04-06T13:24:55.931Z</time></trkpt><trkpt lat="53.551510694010666" lon="14.676905142767232"><ele>-3.0</ele><time>2026-04-06T13:24:56.931Z</time></trkpt><trkpt lat="53.55147005862119" lon="14.676706171879783"><ele>-3.0</ele><time>2026-04-06T13:24:57.931Z</time></trkpt><trkpt lat="53.551425524317594" lon="14.676517903886822"><ele>-2.75</ele><time>2026-04-06T13:24:58.931Z</time></trkpt><trkpt lat="53.55137247933717" lon="14.676304485075926"><ele>-2.5</ele><time>2026-04-06T13:24:59.931Z</time></trkpt><trkpt lat="53.5513342674648" lon="14.676099216318145"><ele>-2.25</ele><time>2026-04-06T13:25:00.931Z</time></trkpt><trkpt lat="53.55129110043815" lon="14.675894367083078"><ele>-2.0</ele><time>2026-04-06T13:25:01.931Z</time></trkpt><trkpt lat="53.55123495617169" lon="14.675699715546186"><ele>-2.0</ele><time>2026-04-06T13:25:02.931Z</time></trkpt><trkpt lat="53.55119570956984" lon="14.675460117166415"><ele>-2.0</ele><time>2026-04-06T13:25:03.931Z</time></trkpt><trkpt lat="53.55114416249651" lon="14.675244444740569"><ele>-2.0</ele><time>2026-04-06T13:25:04.931Z</time></trkpt><trkpt lat="53.55108798178601" lon="14.675026981151799"><ele>-2.0</ele><time>2026-04-06T13:25:05.931Z</time></trkpt><trkpt lat="53.551028183580186" lon="14.674785470422439"><ele>-2.0</ele><time>2026-04-06T13:25:06.93Z</time></trkpt><trkpt lat="53.550975617713185" lon="14.674582916024345"><ele>-2.0</ele><time>2026-04-06T13:25:07.929Z</time></trkpt><trkpt lat="53.55092417650468" lon="14.674362398324662"><ele>-2.0</ele><time>2026-04-06T13:25:08.929Z</time></trkpt><trkpt lat="53.550876240251625" lon="14.674127634986352"><ele>-2.0</ele><time>2026-04-06T13:25:09.929Z</time></trkpt><trkpt lat="53.550829561431854" lon="14.67391327465754"><ele>-2.0</ele><time>2026-04-06T13:25:10.93Z</time></trkpt><trkpt lat="53.55077806419022" lon="14.673692770934942"><ele>-2.0</ele><time>2026-04-06T13:25:11.93Z</time></trkpt><trkpt lat="53.55072412804747" lon="14.673470422923005"><ele>-2.0</ele><time>2026-04-06T13:25:12.93Z</time></trkpt><trkpt lat="53.550677692295444" lon="14.673260875087939"><ele>-2.0</ele><time>2026-04-06T13:25:13.93Z</time></trkpt><trkpt lat="53.55063269128829" lon="14.673061564915464"><ele>-1.9999999999999998</ele><time>2026-04-06T13:25:14.93Z</time></trkpt><trkpt lat="53.55058892301679" lon="14.6728801870939"><ele>-2.0</ele><time>2026-04-06T13:25:15.929Z</time></trkpt><trkpt lat="53.5505528831333" lon="14.672735121379942"><ele>-2.0</ele><time>2026-04-06T13:25:16.93Z</time></trkpt><trkpt lat="53.55051172736871" lon="14.672576274876794"><ele>-2.0</ele><time>2026-04-06T13:25:17.93Z</time></trkpt><trkpt lat="53.550478260775016" lon="14.672481431841476"><ele>-1.9999999999999998</ele><time>2026-04-06T13:25:18.929Z</time></trkpt><trkpt lat="53.550425762556166" lon="14.672412261705619"><ele>-2.0</ele><time>2026-04-06T13:25:19.93Z</time></trkpt><trkpt lat="53.55033969715257" lon="14.672349357682045"><ele>-2.0</ele><time>2026-04-06T13:25:20.93Z</time></trkpt><trkpt lat="53.550188275240096" lon="14.672281397817535"><ele>-2.0</ele><time>2026-04-06T13:25:21.93Z</time></trkpt><trkpt lat="53.550072314321156" lon="14.672222639440482"><ele>-2.0</ele><time>2026-04-06T13:25:22.93Z</time></trkpt><trkpt lat="53.54996168247851" lon="14.672206852904578"><ele>-2.0</ele><time>2026-04-06T13:25:23.93Z</time></trkpt><trkpt lat="53.5498611317736" lon="14.672201835001285"><ele>-2.0</ele><time>2026-04-06T13:25:24.93Z</time></trkpt><trkpt lat="53.54977315977635" lon="14.67217604046518"><ele>-2.0</ele><time>2026-04-06T13:25:25.93Z</time></trkpt><trkpt lat="53.54967733031085" lon="14.67214874581288"><ele>-2.0</ele><time>2026-04-06T13:25:26.93Z</time></trkpt><trkpt lat="53.54956595889612" lon="14.672119002159548"><ele>-2.0</ele><time>2026-04-06T13:25:27.93Z</time></trkpt><trkpt lat="53.54949240818962" lon="14.672084585896336"><ele>-2.0</ele><time>2026-04-06T13:25:28.93Z</time></trkpt><trkpt lat="53.549373471357356" lon="14.672050343166445"><ele>-2.0</ele><time>2026-04-06T13:25:29.93Z</time></trkpt><trkpt lat="53.549256486163536" lon="14.672018667977792"><ele>-2.0</ele><time>2026-04-06T13:25:30.93Z</time></trkpt><trkpt lat="53.54913355248207" lon="14.671982650856952"><ele>-2.0</ele><time>2026-04-06T13:25:31.93Z</time></trkpt><trkpt lat="53.54900031385443" lon="14.671951685436886"><ele>-2.0</ele><time>2026-04-06T13:25:32.93Z</time></trkpt><trkpt lat="53.54887549846499" lon="14.671918271291204"><ele>-2.0</ele><time>2026-04-06T13:25:33.93Z</time></trkpt><trkpt lat="53.548729354450465" lon="14.671882791832"><ele>-2.0</ele><time>2026-04-06T13:25:34.93Z</time></trkpt><trkpt lat="53.548576476160804" lon="14.671839838127399"><ele>-2.0</ele><time>2026-04-06T13:25:35.93Z</time></trkpt><trkpt lat="53.54842675614494" lon="14.671796118554514"><ele>-2.0</ele><time>2026-04-06T13:25:36.93Z</time></trkpt><trkpt lat="53.548270400972264" lon="14.67175669404086"><ele>-2.0</ele><time>2026-04-06T13:25:37.93Z</time></trkpt><trkpt lat="53.54811517143143" lon="14.671718062045294"><ele>-2.0</ele><time>2026-04-06T13:25:38.93Z</time></trkpt><trkpt lat="53.54798305215628" lon="14.67167845427162"><ele>-2.0</ele><time>2026-04-06T13:25:39.93Z</time></trkpt><trkpt lat="53.54784327620901" lon="14.671626964195678"><ele>-2.0</ele><time>2026-04-06T13:25:40.93Z</time></trkpt><trkpt lat="53.54769714022442" lon="14.671586721695379"><ele>-2.0</ele><time>2026-04-06T13:25:41.93Z</time></trkpt><trkpt lat="53.54755542974837" lon="14.671540490754179"><ele>-2.0</ele><time>2026-04-06T13:25:42.93Z</time></trkpt><trkpt lat="53.547413653259284" lon="14.671492895855339"><ele>-2.0</ele><time>2026-04-06T13:25:43.93Z</time></trkpt><trkpt lat="53.54727020138797" lon="14.671448160408923"><ele>-2.0</ele><time>2026-04-06T13:25:44.93Z</time></trkpt><trkpt lat="53.547142202544336" lon="14.671396601480486"><ele>-2.0</ele><time>2026-04-06T13:25:45.93Z</time></trkpt><trkpt lat="53.547025740927076" lon="14.671353057201452"><ele>-2.0</ele><time>2026-04-06T13:25:46.93Z</time></trkpt><trkpt lat="53.54690994274519" lon="14.6713013173089"><ele>-2.0</ele><time>2026-04-06T13:25:47.93Z</time></trkpt><trkpt lat="53.5468324674935" lon="14.671240461526137"><ele>-2.0</ele><time>2026-04-06T13:25:48.93Z</time></trkpt><trkpt lat="53.546734894171635" lon="14.671161988429182"><ele>-2.0</ele><time>2026-04-06T13:25:49.93Z</time></trkpt><trkpt lat="53.54664829925698" lon="14.67107872247577"><ele>-2.0</ele><time>2026-04-06T13:25:50.93Z</time></trkpt><trkpt lat="53.54654792753085" lon="14.670974231427254"><ele>-2.0</ele><time>2026-04-06T13:25:51.93Z</time></trkpt><trkpt lat="53.546444691009036" lon="14.67085296668304"><ele>-2.0</ele><time>2026-04-06T13:25:52.93Z</time></trkpt><trkpt lat="53.54634335049448" lon="14.670718675053227"><ele>-2.0</ele><time>2026-04-06T13:25:53.93Z</time></trkpt><trkpt lat="53.54624414038134" lon="14.670562983796508"><ele>-2.0</ele><time>2026-04-06T13:25:54.93Z</time></trkpt><trkpt lat="53.54615425326151" lon="14.670402895440303"><ele>-2.0</ele><time>2026-04-06T13:25:55.93Z</time></trkpt><trkpt lat="53.54605849924884" lon="14.67021636470527"><ele>-2.333333333333333</ele><time>2026-04-06T13:25:56.93Z</time></trkpt><trkpt lat="53.54597100889207" lon="14.670027372883462"><ele>-2.6666666666666665</ele><time>2026-04-06T13:25:57.93Z</time></trkpt><trkpt lat="53.54588776593999" lon="14.66982338964407"><ele>-3.0</ele><time>2026-04-06T13:25:58.93Z</time></trkpt><trkpt lat="53.545804698178635" lon="14.669587728486265"><ele>-3.0</ele><time>2026-04-06T13:25:59.93Z</time></trkpt><trkpt lat="53.54572137326948" lon="14.669343424273322"><ele>-3.0</ele><time>2026-04-06T13:26:00.93Z</time></trkpt><trkpt lat="53.545646308468086" lon="14.66913275067616"><ele>-3.0</ele><time>2026-04-06T13:26:01.93Z</time></trkpt><trkpt lat="53.54557455236972" lon="14.668901372404175"><ele>-3.0</ele><time>2026-04-06T13:26:02.93Z</time></trkpt><trkpt lat="53.54550421739889" lon="14.66869887722355"><ele>-3.0</ele><time>2026-04-06T13:26:03.93Z</time></trkpt><trkpt lat="53.54543287854217" lon="14.668487568616765"><ele>-3.0</ele><time>2026-04-06T13:26:04.93Z</time></trkpt><trkpt lat="53.54535716364523" lon="14.668265238477783"><ele>-3.0</ele><time>2026-04-06T13:26:05.93Z</time></trkpt><trkpt lat="53.545280337579996" lon="14.668071541156163"><ele>-3.0</ele><time>2026-04-06T13:26:06.93Z</time></trkpt><trkpt lat="53.54520640471739" lon="14.66786648262668"><ele>-3.0</ele><time>2026-04-06T13:26:07.93Z</time></trkpt><trkpt lat="53.54514055097003" lon="14.667672678048316"><ele>-3.0</ele><time>2026-04-06T13:26:08.93Z</time></trkpt><trkpt lat="53.54507595331246" lon="14.667461273633668"><ele>-3.0</ele><time>2026-04-06T13:26:09.93Z</time></trkpt><trkpt lat="53.54501093631507" lon="14.667273000359218"><ele>-3.0</ele><time>2026-04-06T13:26:10.93Z</time></trkpt><trkpt lat="53.54493211241646" lon="14.667075981221206"><ele>-3.0</ele><time>2026-04-06T13:26:11.93Z</time></trkpt><trkpt lat="53.544841487251105" lon="14.666924809813514"><ele>-3.0</ele><time>2026-04-06T13:26:12.93Z</time></trkpt><trkpt lat="53.54474199659936" lon="14.666784188154299"><ele>-3.0</ele><time>2026-04-06T13:26:13.93Z</time></trkpt><trkpt lat="53.54464171681284" lon="14.666630728202726"><ele>-3.0</ele><time>2026-04-06T13:26:14.93Z</time></trkpt><trkpt lat="53.54453740431796" lon="14.666449391302654"><ele>-3.0</ele><time>2026-04-06T13:26:15.93Z</time></trkpt><trkpt lat="53.54444973006829" lon="14.666293530039166"><ele>-3.0</ele><time>2026-04-06T13:26:16.93Z</time></trkpt><trkpt lat="53.54437606493569" lon="14.666137225135317"><ele>-3.0</ele><time>2026-04-06T13:26:17.93Z</time></trkpt><trkpt lat="53.54431222443081" lon="14.665976648549547"><ele>-2.75</ele><time>2026-04-06T13:26:18.93Z</time></trkpt><trkpt lat="53.544260031081535" lon="14.665780989902235"><ele>-2.5</ele><time>2026-04-06T13:26:19.93Z</time></trkpt><trkpt lat="53.54421307085599" lon="14.665579801731617"><ele>-2.25</ele><time>2026-04-06T13:26:20.93Z</time></trkpt><trkpt lat="53.54418250070841" lon="14.665405283368372"><ele>-2.0</ele><time>2026-04-06T13:26:21.93Z</time></trkpt><trkpt lat="53.54413905828644" lon="14.665196152682721"><ele>-2.0</ele><time>2026-04-06T13:26:22.93Z</time></trkpt><trkpt lat="53.54410904632634" lon="14.665008356231944"><ele>-2.0</ele><time>2026-04-06T13:26:23.93Z</time></trkpt><trkpt lat="53.544074853806016" lon="14.664813285274333"><ele>-2.0</ele><time>2026-04-06T13:26:24.93Z</time></trkpt><trkpt lat="53.54404514202537" lon="14.664621073325655"><ele>-2.0</ele><time>2026-04-06T13:26:25.93Z</time></trkpt><trkpt lat="53.54401536141289" lon="14.664414874576114"><ele>-2.5</ele><time>2026-04-06T13:26:26.93Z</time></trkpt><trkpt lat="53.543989390017316" lon="14.664217444477943"><ele>-3.0</ele><time>2026-04-06T13:26:27.93Z</time></trkpt><trkpt lat="53.54396118024562" lon="14.664011576270141"><ele>-3.5</ele><time>2026-04-06T13:26:28.93Z</time></trkpt><trkpt lat="53.5439178042454" lon="14.66383733894901"><ele>-4.0</ele><time>2026-04-06T13:26:29.93Z</time></trkpt><trkpt lat="53.54385331351447" lon="14.663677540880222"><ele>-4.0</ele><time>2026-04-06T13:26:30.93Z</time></trkpt><trkpt lat="53.543760208324336" lon="14.66353227976004"><ele>-4.0</ele><time>2026-04-06T13:26:31.93Z</time></trkpt><trkpt lat="53.54367683239989" lon="14.663386669144252"><ele>-4.0</ele><time>2026-04-06T13:26:32.93Z</time></trkpt><trkpt lat="53.54359191730748" lon="14.663236747717704"><ele>-4.0</ele><time>2026-04-06T13:26:33.93Z</time></trkpt><trkpt lat="53.54350015332893" lon="14.66306212431006"><ele>-3.75</ele><time>2026-04-06T13:26:34.93Z</time></trkpt><trkpt lat="53.54340707599355" lon="14.662881631597795"><ele>-3.5</ele><time>2026-04-06T13:26:35.93Z</time></trkpt><trkpt lat="53.54331409979437" lon="14.662710680211239"><ele>-3.25</ele><time>2026-04-06T13:26:36.931Z</time></trkpt><trkpt lat="53.54322480318937" lon="14.662546497500635"><ele>-3.0</ele><time>2026-04-06T13:26:37.931Z</time></trkpt><trkpt lat="53.54314656244958" lon="14.662382697357442"><ele>-3.0</ele><time>2026-04-06T13:26:38.931Z</time></trkpt><trkpt lat="53.543059608209155" lon="14.662227531772626"><ele>-3.0</ele><time>2026-04-06T13:26:39.931Z</time></trkpt><trkpt lat="53.542964864698014" lon="14.662071581109673"><ele>-3.0</ele><time>2026-04-06T13:26:40.931Z</time></trkpt><trkpt lat="53.542881342415036" lon="14.661916351547486"><ele>-3.0</ele><time>2026-04-06T13:26:41.931Z</time></trkpt><trkpt lat="53.54278999105074" lon="14.661753355592634"><ele>-2.75</ele><time>2026-04-06T13:26:42.931Z</time></trkpt><trkpt lat="53.54270032712689" lon="14.661577606714618"><ele>-2.5</ele><time>2026-04-06T13:26:43.931Z</time></trkpt><trkpt lat="53.54261987402115" lon="14.661404264770642"><ele>-2.25</ele><time>2026-04-06T13:26:44.931Z</time></trkpt><trkpt lat="53.54253785925001" lon="14.661235681382372"><ele>-2.0</ele><time>2026-04-06T13:26:45.931Z</time></trkpt><trkpt lat="53.54245159976778" lon="14.66106511435862"><ele>-1.75</ele><time>2026-04-06T13:26:46.931Z</time></trkpt><trkpt lat="53.54235874334744" lon="14.660900976716"><ele>-1.5</ele><time>2026-04-06T13:26:47.931Z</time></trkpt><trkpt lat="53.54226702092176" lon="14.660724059466094"><ele>-1.25</ele><time>2026-04-06T13:26:48.931Z</time></trkpt><trkpt lat="53.542186374034756" lon="14.660561178247908"><ele>-1.0</ele><time>2026-04-06T13:26:49.931Z</time></trkpt><trkpt lat="53.54210818574545" lon="14.660402816676227"><ele>-1.25</ele><time>2026-04-06T13:26:50.931Z</time></trkpt><trkpt lat="53.542033399097825" lon="14.660267318810368"><ele>-1.5</ele><time>2026-04-06T13:26:51.931Z</time></trkpt><trkpt lat="53.54197891424038" lon="14.66014342923581"><ele>-1.75</ele><time>2026-04-06T13:26:52.931Z</time></trkpt><trkpt lat="53.54191055507492" lon="14.659971536360409"><ele>-2.0</ele><time>2026-04-06T13:26:53.931Z</time></trkpt><trkpt lat="53.541831964481744" lon="14.65979438927805"><ele>-2.0</ele><time>2026-04-06T13:26:54.931Z</time></trkpt><trkpt lat="53.541728402768705" lon="14.659586048589015"><ele>-2.0</ele><time>2026-04-06T13:26:55.931Z</time></trkpt><trkpt lat="53.541633552966545" lon="14.659398613774256"><ele>-2.0</ele><time>2026-04-06T13:26:56.931Z</time></trkpt><trkpt lat="53.541537989659915" lon="14.659203906484983"><ele>-2.0</ele><time>2026-04-06T13:26:57.931Z</time></trkpt><trkpt lat="53.54145915602205" lon="14.659036474193933"><ele>-2.0</ele><time>2026-04-06T13:26:58.931Z</time></trkpt><trkpt lat="53.54137972450937" lon="14.658862382625845"><ele>-2.0</ele><time>2026-04-06T13:26:59.931Z</time></trkpt><trkpt lat="53.54130884251859" lon="14.658706046320525"><ele>-2.0</ele><time>2026-04-06T13:27:00.931Z</time></trkpt><trkpt lat="53.541231648116764" lon="14.658533737254038"><ele>-2.0</ele><time>2026-04-06T13:27:01.931Z</time></trkpt><trkpt lat="53.54115268358564" lon="14.658352380229017"><ele>-2.0</ele><time>2026-04-06T13:27:02.931Z</time></trkpt><trkpt lat="53.54107758925238" lon="14.658169023403588"><ele>-2.0</ele><time>2026-04-06T13:27:03.931Z</time></trkpt><trkpt lat="53.54101640469873" lon="14.658023741554045"><ele>-2.0</ele><time>2026-04-06T13:27:04.931Z</time></trkpt><trkpt lat="53.5409520719301" lon="14.657891676595804"><ele>-2.0</ele><time>2026-04-06T13:27:05.931Z</time></trkpt><trkpt lat="53.54088287338453" lon="14.657755835298293"><ele>-2.0</ele><time>2026-04-06T13:27:06.931Z</time></trkpt><trkpt lat="53.540808419986206" lon="14.657626179209323"><ele>-2.0</ele><time>2026-04-06T13:27:07.931Z</time></trkpt><trkpt lat="53.5407297456243" lon="14.657492601141563"><ele>-2.0</ele><time>2026-04-06T13:27:08.931Z</time></trkpt><trkpt lat="53.54064880873346" lon="14.657358178564689"><ele>-2.0</ele><time>2026-04-06T13:27:09.931Z</time></trkpt><trkpt lat="53.54057611104042" lon="14.657231171074804"><ele>-2.0</ele><time>2026-04-06T13:27:10.931Z</time></trkpt><trkpt lat="53.540506085923646" lon="14.657149127180888"><ele>-2.0</ele><time>2026-04-06T13:27:11.931Z</time></trkpt><trkpt lat="53.54044050140543" lon="14.656947826750633"><ele>-2.0</ele><time>2026-04-06T13:27:13.928Z</time></trkpt><trkpt lat="53.540378560308696" lon="14.656833964282471"><ele>-2.0</ele><time>2026-04-06T13:27:14.928Z</time></trkpt><trkpt lat="53.540327831908144" lon="14.656742750131462"><ele>-2.0</ele><time>2026-04-06T13:27:15.929Z</time></trkpt><trkpt lat="53.54027342239171" lon="14.656653416913215"><ele>-2.2</ele><time>2026-04-06T13:27:16.928Z</time></trkpt><trkpt lat="53.54018126385462" lon="14.6565064749672"><ele>-2.4000000000000004</ele><time>2026-04-06T13:27:18.929Z</time></trkpt><trkpt lat="53.54012902110702" lon="14.65641349653943"><ele>-2.5999999999999996</ele><time>2026-04-06T13:27:20.928Z</time></trkpt><trkpt lat="53.540060039216584" lon="14.656361032523606"><ele>-2.8</ele><time>2026-04-06T13:27:45.929Z</time></trkpt><trkpt lat="53.5399816775265" lon="14.65622877272338"><ele>-3.0</ele><time>2026-04-06T13:27:47.929Z</time></trkpt><trkpt lat="53.53993138154209" lon="14.656134773357923"><ele>-3.2</ele><time>2026-04-06T13:27:48.929Z</time></trkpt><trkpt lat="53.53988464735146" lon="14.656030430591976"><ele>-3.4</ele><time>2026-04-06T13:27:49.929Z</time></trkpt><trkpt lat="53.53985375728318" lon="14.655916300927164"><ele>-3.6000000000000005</ele><time>2026-04-06T13:27:50.929Z</time></trkpt><trkpt lat="53.53983393775237" lon="14.655757456883943"><ele>-3.8000000000000003</ele><time>2026-04-06T13:27:51.929Z</time></trkpt><trkpt lat="53.53981940348254" lon="14.655582904266568"><ele>-4.0</ele><time>2026-04-06T13:27:52.929Z</time></trkpt><trkpt lat="53.53980084631375" lon="14.655408075830142"><ele>-4.0</ele><time>2026-04-06T13:27:53.929Z</time></trkpt><trkpt lat="53.539791336613995" lon="14.655253547363603"><ele>-4.0</ele><time>2026-04-06T13:27:54.929Z</time></trkpt><trkpt lat="53.53978932791826" lon="14.65509768093066"><ele>-4.0</ele><time>2026-04-06T13:27:55.929Z</time></trkpt><trkpt lat="53.539782230605844" lon="14.654953287077966"><ele>-4.0</ele><time>2026-04-06T13:27:56.929Z</time></trkpt><trkpt lat="53.53976707107759" lon="14.654798479997952"><ele>-4.0</ele><time>2026-04-06T13:27:57.929Z</time></trkpt><trkpt lat="53.539753089339726" lon="14.654606141990248"><ele>-3.8000000000000003</ele><time>2026-04-06T13:27:58.929Z</time></trkpt><trkpt lat="53.53973874676181" lon="14.65442846105997"><ele>-3.6000000000000005</ele><time>2026-04-06T13:27:59.929Z</time></trkpt><trkpt lat="53.53973199842588" lon="14.654269093973406"><ele>-3.4</ele><time>2026-04-06T13:28:00.929Z</time></trkpt><trkpt lat="53.539731135250506" lon="14.654127849311086"><ele>-3.2</ele><time>2026-04-06T13:28:01.929Z</time></trkpt><trkpt lat="53.539723584267406" lon="14.6539756270927"><ele>-3.0</ele><time>2026-04-06T13:28:02.929Z</time></trkpt><trkpt lat="53.5397018916551" lon="14.653772920395719"><ele>-3.0</ele><time>2026-04-06T13:28:03.929Z</time></trkpt><trkpt lat="53.539672689915584" lon="14.653594123319387"><ele>-3.0</ele><time>2026-04-06T13:28:04.929Z</time></trkpt><trkpt lat="53.53963918684573" lon="14.653420108791554"><ele>-3.0</ele><time>2026-04-06T13:28:05.929Z</time></trkpt><trkpt lat="53.53959591307082" lon="14.653254429304619"><ele>-3.0</ele><time>2026-04-06T13:28:06.929Z</time></trkpt><trkpt lat="53.53955469303171" lon="14.653103690671008"><ele>-3.0</ele><time>2026-04-06T13:28:07.929Z</time></trkpt><trkpt lat="53.53949908600396" lon="14.652958021939968"><ele>-2.8333333333333335</ele><time>2026-04-06T13:28:08.929Z</time></trkpt><trkpt lat="53.5394503828665" lon="14.652831712338672"><ele>-2.6666666666666665</ele><time>2026-04-06T13:28:09.929Z</time></trkpt><trkpt lat="53.539412230722135" lon="14.65271320242446"><ele>-2.5</ele><time>2026-04-06T13:28:10.929Z</time></trkpt><trkpt lat="53.53937416786207" lon="14.652624532329662"><ele>-2.333333333333333</ele><time>2026-04-06T13:28:11.929Z</time></trkpt><trkpt lat="53.53931661185336" lon="14.652520746282827"><ele>-2.1666666666666665</ele><time>2026-04-06T13:28:13.929Z</time></trkpt><trkpt lat="53.53921371922081" lon="14.652414563676837"><ele>-2.0</ele><time>2026-04-06T13:30:07.928Z</time></trkpt><trkpt lat="53.53915544634489" lon="14.652355519015455"><ele>-2.0</ele><time>2026-04-06T13:30:08.928Z</time></trkpt><trkpt lat="53.539083481244106" lon="14.652300762133024"><ele>-2.0</ele><time>2026-04-06T13:30:09.928Z</time></trkpt><trkpt lat="53.53900352941266" lon="14.652251899645393"><ele>-2.0</ele><time>2026-04-06T13:30:10.928Z</time></trkpt><trkpt lat="53.538911045027746" lon="14.652199920170629"><ele>-2.0</ele><time>2026-04-06T13:30:11.928Z</time></trkpt><trkpt lat="53.53879762535324" lon="14.652150138057422"><ele>-2.0</ele><time>2026-04-06T13:30:12.928Z</time></trkpt><trkpt lat="53.53868089380834" lon="14.65210093052114"><ele>-2.0</ele><time>2026-04-06T13:30:13.928Z</time></trkpt><trkpt lat="53.53856773648894" lon="14.65204427709531"><ele>-2.0</ele><time>2026-04-06T13:30:14.928Z</time></trkpt><trkpt lat="53.538469274933526" lon="14.652002355726156"><ele>-2.0</ele><time>2026-04-06T13:30:15.928Z</time></trkpt><trkpt lat="53.53837334614523" lon="14.651952034171696"><ele>-2.0</ele><time>2026-04-06T13:30:16.928Z</time></trkpt><trkpt lat="53.53827048882716" lon="14.651898381251474"><ele>-2.0</ele><time>2026-04-06T13:30:17.928Z</time></trkpt><trkpt lat="53.53816867806592" lon="14.651841376002741"><ele>-2.2</ele><time>2026-04-06T13:30:18.928Z</time></trkpt><trkpt lat="53.53807788533956" lon="14.651772408830128"><ele>-2.4000000000000004</ele><time>2026-04-06T13:30:19.928Z</time></trkpt><trkpt lat="53.537978086460114" lon="14.65169711513191"><ele>-2.5999999999999996</ele><time>2026-04-06T13:30:20.928Z</time></trkpt><trkpt lat="53.53788073648962" lon="14.651616564638095"><ele>-2.8</ele><time>2026-04-06T13:30:21.928Z</time></trkpt><trkpt lat="53.53778507982497" lon="14.651528036535614"><ele>-3.0</ele><time>2026-04-06T13:30:22.928Z</time></trkpt><trkpt lat="53.53770522710223" lon="14.651445438596497"><ele>-3.0</ele><time>2026-04-06T13:30:23.928Z</time></trkpt><trkpt lat="53.53762842761612" lon="14.651326898014004"><ele>-3.0</ele><time>2026-04-06T13:30:24.928Z</time></trkpt><trkpt lat="53.53755738815315" lon="14.651182759592714"><ele>-3.0</ele><time>2026-04-06T13:30:25.928Z</time></trkpt><trkpt lat="53.53749891332118" lon="14.65101475521113"><ele>-3.0</ele><time>2026-04-06T13:30:26.928Z</time></trkpt><trkpt lat="53.537451038593446" lon="14.650858453224005"><ele>-3.0</ele><time>2026-04-06T13:30:27.928Z</time></trkpt><trkpt lat="53.53739594731175" lon="14.650690511683813"><ele>-3.0</ele><time>2026-04-06T13:30:28.928Z</time></trkpt><trkpt lat="53.53735365354955" lon="14.650529752243878"><ele>-3.0</ele><time>2026-04-06T13:30:29.928Z</time></trkpt><trkpt lat="53.53730502233045" lon="14.65035103918559"><ele>-3.0</ele><time>2026-04-06T13:30:30.928Z</time></trkpt><trkpt lat="53.53725773089728" lon="14.650161084233854"><ele>-3.0</ele><time>2026-04-06T13:30:31.928Z</time></trkpt><trkpt lat="53.53721156000454" lon="14.649959782659515"><ele>-3.0</ele><time>2026-04-06T13:30:32.928Z</time></trkpt><trkpt lat="53.53716738694461" lon="14.64975211864837"><ele>-3.0</ele><time>2026-04-06T13:30:33.928Z</time></trkpt><trkpt lat="53.53713164349954" lon="14.649541879554812"><ele>-3.0</ele><time>2026-04-06T13:30:34.928Z</time></trkpt><trkpt lat="53.537092503124626" lon="14.649339076796187"><ele>-3.0</ele><time>2026-04-06T13:30:35.928Z</time></trkpt><trkpt lat="53.53704450712475" lon="14.649105811281839"><ele>-2.75</ele><time>2026-04-06T13:30:36.928Z</time></trkpt><trkpt lat="53.53699690753883" lon="14.648869630387065"><ele>-2.5</ele><time>2026-04-06T13:30:37.928Z</time></trkpt><trkpt lat="53.536939958357415" lon="14.64860139029466"><ele>-2.25</ele><time>2026-04-06T13:30:38.928Z</time></trkpt><trkpt lat="53.53689790864881" lon="14.648419585844117"><ele>-2.0</ele><time>2026-04-06T13:30:39.928Z</time></trkpt><trkpt lat="53.53683387521196" lon="14.648186774132839"><ele>-1.75</ele><time>2026-04-06T13:30:40.928Z</time></trkpt><trkpt lat="53.53676768368068" lon="14.647969257517492"><ele>-1.5</ele><time>2026-04-06T13:30:41.928Z</time></trkpt><trkpt lat="53.53670805520715" lon="14.647729713793002"><ele>-1.25</ele><time>2026-04-06T13:30:42.928Z</time></trkpt><trkpt lat="53.53665046773166" lon="14.647520193646804"><ele>-1.0</ele><time>2026-04-06T13:30:43.928Z</time></trkpt><trkpt lat="53.53660604979765" lon="14.64730615194187"><ele>-1.0</ele><time>2026-04-06T13:30:44.928Z</time></trkpt><trkpt lat="53.536573508268084" lon="14.64708116924924"><ele>-1.0</ele><time>2026-04-06T13:30:45.928Z</time></trkpt><trkpt lat="53.53654865510892" lon="14.646836063752922"><ele>-1.0</ele><time>2026-04-06T13:30:46.928Z</time></trkpt><trkpt lat="53.53652569038917" lon="14.646607985949734"><ele>-1.0</ele><time>2026-04-06T13:30:47.928Z</time></trkpt><trkpt lat="53.53650821647221" lon="14.646358909764354"><ele>-1.25</ele><time>2026-04-06T13:30:48.928Z</time></trkpt><trkpt lat="53.53650201454251" lon="14.646127140790446"><ele>-1.5</ele><time>2026-04-06T13:30:49.928Z</time></trkpt><trkpt lat="53.5365069722804" lon="14.645944120550386"><ele>-1.75</ele><time>2026-04-06T13:30:50.928Z</time></trkpt><trkpt lat="53.53650491479216" lon="14.645753517399811"><ele>-2.0</ele><time>2026-04-06T13:30:51.928Z</time></trkpt><trkpt lat="53.53647961253306" lon="14.645549229640558"><ele>-2.0</ele><time>2026-04-06T13:30:52.928Z</time></trkpt><trkpt lat="53.53645191524792" lon="14.645379543379576"><ele>-2.0</ele><time>2026-04-06T13:30:53.928Z</time></trkpt><trkpt lat="53.53642689278971" lon="14.64517457077305"><ele>-2.0</ele><time>2026-04-06T13:30:54.928Z</time></trkpt><trkpt lat="53.53639201929599" lon="14.64499150691323"><ele>-2.0</ele><time>2026-04-06T13:30:55.928Z</time></trkpt><trkpt lat="53.53633012685223" lon="14.644798880000383"><ele>-2.0</ele><time>2026-04-06T13:30:56.928Z</time></trkpt><trkpt lat="53.53625664658137" lon="14.644587583299277"><ele>-2.0</ele><time>2026-04-06T13:30:57.928Z</time></trkpt><trkpt lat="53.53619185115147" lon="14.644404048466217"><ele>-2.0</ele><time>2026-04-06T13:30:58.928Z</time></trkpt><trkpt lat="53.53615519869052" lon="14.64424849493281"><ele>-2.0</ele><time>2026-04-06T13:30:59.928Z</time></trkpt><trkpt lat="53.536128076518736" lon="14.644032803222732"><ele>-2.0</ele><time>2026-04-06T13:31:00.928Z</time></trkpt><trkpt lat="53.536118102775376" lon="14.643836090939493"><ele>-2.0</ele><time>2026-04-06T13:31:01.928Z</time></trkpt><trkpt lat="53.53610958277764" lon="14.64361257253994"><ele>-2.0</ele><time>2026-04-06T13:31:02.928Z</time></trkpt><trkpt lat="53.53610274223126" lon="14.643383085357994"><ele>-2.0</ele><time>2026-04-06T13:31:03.928Z</time></trkpt><trkpt lat="53.536076247782425" lon="14.64311608653272"><ele>-2.25</ele><time>2026-04-06T13:31:04.928Z</time></trkpt><trkpt lat="53.536036056982724" lon="14.642840273569462"><ele>-2.5</ele><time>2026-04-06T13:31:05.928Z</time></trkpt><trkpt lat="53.53599693007616" lon="14.64259923262329"><ele>-2.75</ele><time>2026-04-06T13:31:06.928Z</time></trkpt><trkpt lat="53.53596240579851" lon="14.642395839942"><ele>-3.0</ele><time>2026-04-06T13:31:07.928Z</time></trkpt><trkpt lat="53.53593004179611" lon="14.642224764034669"><ele>-3.0</ele><time>2026-04-06T13:31:08.928Z</time></trkpt><trkpt lat="53.53589822461019" lon="14.642012678865989"><ele>-3.0</ele><time>2026-04-06T13:31:09.928Z</time></trkpt><trkpt lat="53.535869419003056" lon="14.641803848909802"><ele>-3.0</ele><time>2026-04-06T13:31:10.928Z</time></trkpt><trkpt lat="53.535845043959064" lon="14.64157051476646"><ele>-3.0</ele><time>2026-04-06T13:31:11.928Z</time></trkpt><trkpt lat="53.535804897132685" lon="14.641375919749088"><ele>-2.75</ele><time>2026-04-06T13:31:12.928Z</time></trkpt><trkpt lat="53.5357644131265" lon="14.641137132032188"><ele>-2.5</ele><time>2026-04-06T13:31:13.928Z</time></trkpt><trkpt lat="53.53572371472143" lon="14.640905150855152"><ele>-2.25</ele><time>2026-04-06T13:31:14.928Z</time></trkpt><trkpt lat="53.5356845440801" lon="14.640661353144205"><ele>-2.0</ele><time>2026-04-06T13:31:15.928Z</time></trkpt><trkpt lat="53.53564823062384" lon="14.64043379758675"><ele>-2.25</ele><time>2026-04-06T13:31:16.928Z</time></trkpt><trkpt lat="53.53562141516134" lon="14.640206156420524"><ele>-2.5</ele><time>2026-04-06T13:31:17.928Z</time></trkpt><trkpt lat="53.5355933230661" lon="14.640008573682067"><ele>-2.75</ele><time>2026-04-06T13:31:18.928Z</time></trkpt><trkpt lat="53.535564844902304" lon="14.639834237994158"><ele>-3.0</ele><time>2026-04-06T13:31:19.928Z</time></trkpt><trkpt lat="53.53554045333243" lon="14.639660174434812"><ele>-3.0</ele><time>2026-04-06T13:31:20.928Z</time></trkpt><trkpt lat="53.535509827151486" lon="14.639485984895297"><ele>-3.0</ele><time>2026-04-06T13:31:21.928Z</time></trkpt><trkpt lat="53.535474868321046" lon="14.63930363382789"><ele>-3.0</ele><time>2026-04-06T13:31:22.928Z</time></trkpt><trkpt lat="53.535435375460494" lon="14.639154736779979"><ele>-3.0</ele><time>2026-04-06T13:31:23.928Z</time></trkpt><trkpt lat="53.535396483062804" lon="14.638983269234568"><ele>-3.0</ele><time>2026-04-06T13:31:24.927Z</time></trkpt><trkpt lat="53.53535431906673" lon="14.6388704166261"><ele>-3.0</ele><time>2026-04-06T13:31:25.927Z</time></trkpt><trkpt lat="53.53531029747694" lon="14.638749899855744"><ele>-3.0</ele><time>2026-04-06T13:31:26.927Z</time></trkpt><trkpt lat="53.53526080084299" lon="14.638607438753317"><ele>-3.0</ele><time>2026-04-06T13:31:27.927Z</time></trkpt><trkpt lat="53.5352172619198" lon="14.638501032171568"><ele>-3.0</ele><time>2026-04-06T13:31:28.927Z</time></trkpt><trkpt lat="53.53518067376314" lon="14.638398093192453"><ele>-3.0</ele><time>2026-04-06T13:31:29.927Z</time></trkpt><trkpt lat="53.53513727059763" lon="14.638288872232833"><ele>-3.0</ele><time>2026-04-06T13:31:30.927Z</time></trkpt><trkpt lat="53.5350911862512" lon="14.63816483787916"><ele>-3.0</ele><time>2026-04-06T13:31:31.926Z</time></trkpt><trkpt lat="53.53502998772175" lon="14.637983537722892"><ele>-3.0</ele><time>2026-04-06T13:31:32.926Z</time></trkpt><trkpt lat="53.53497979388436" lon="14.637856376951063"><ele>-3.0</ele><time>2026-04-06T13:31:33.927Z</time></trkpt><trkpt lat="53.534924323310534" lon="14.63772053343551"><ele>-3.0</ele><time>2026-04-06T13:31:34.927Z</time></trkpt><trkpt lat="53.53486099015012" lon="14.637558407393238"><ele>-3.0</ele><time>2026-04-06T13:31:35.927Z</time></trkpt><trkpt lat="53.534802046917186" lon="14.63740328798146"><ele>-3.0</ele><time>2026-04-06T13:31:36.927Z</time></trkpt><trkpt lat="53.53474304750037" lon="14.637251690422088"><ele>-3.0</ele><time>2026-04-06T13:31:37.927Z</time></trkpt><trkpt lat="53.53468834566344" lon="14.637104014164539"><ele>-3.0</ele><time>2026-04-06T13:31:38.927Z</time></trkpt><trkpt lat="53.53462999808194" lon="14.636954156433173"><ele>-3.0</ele><time>2026-04-06T13:31:39.927Z</time></trkpt><trkpt lat="53.53459387608725" lon="14.636844802803964"><ele>-3.0</ele><time>2026-04-06T13:31:40.927Z</time></trkpt><trkpt lat="53.534557457679654" lon="14.636741821434525"><ele>-2.6666666666666665</ele><time>2026-04-06T13:31:41.927Z</time></trkpt><trkpt lat="53.53452000698471" lon="14.636569228857029"><ele>-2.3333333333333335</ele><time>2026-04-06T13:31:43.927Z</time></trkpt><trkpt lat="53.53451035270928" lon="14.636450903632047"><ele>-2.0</ele><time>2026-04-06T13:31:45.927Z</time></trkpt><trkpt lat="53.53449128385396" lon="14.636297753896558"><ele>-1.6666666666666665</ele><time>2026-04-06T13:32:58.927Z</time></trkpt><trkpt lat="53.53447956255849" lon="14.63618581823673"><ele>-1.3333333333333333</ele><time>2026-04-06T13:33:01.927Z</time></trkpt><trkpt lat="53.534462770817505" lon="14.6360833417752"><ele>-1.0</ele><time>2026-04-06T13:33:07.927Z</time></trkpt><trkpt lat="53.534485339306414" lon="14.636193127238586"><ele>-0.9999999999999999</ele><time>2026-04-06T13:37:55.925Z</time></trkpt><trkpt lat="53.534504529033164" lon="14.63631497467695"><ele>-1.0</ele><time>2026-04-06T13:39:32.925Z</time></trkpt><trkpt lat="53.53447658711054" lon="14.636170223578658"><ele>-1.0</ele><time>2026-04-06T13:42:55.924Z</time></trkpt><trkpt lat="53.53450520971052" lon="14.636059455858058"><ele>-1.0</ele><time>2026-04-06T13:44:01.924Z</time></trkpt><trkpt lat="53.53445679162949" lon="14.636131348736749"><ele>-0.9999999999999999</ele><time>2026-04-06T13:44:13.923Z</time></trkpt><trkpt lat="53.53448799841164" lon="14.6363340797743"><ele>-1.0</ele><time>2026-04-06T13:48:06.879Z</time></trkpt><trkpt lat="53.53447706860028" lon="14.63643996793341"><ele>-1.0</ele><time>2026-04-06T13:48:08.879Z</time></trkpt><trkpt lat="53.534494541362406" lon="14.636644787532143"><ele>-1.0</ele><time>2026-04-06T13:48:10.879Z</time></trkpt><trkpt lat="53.53452470349541" lon="14.636766409863338"><ele>-1.0</ele><time>2026-04-06T13:48:11.877Z</time></trkpt><trkpt lat="53.534567962612066" lon="14.636894180611707"><ele>-1.0</ele><time>2026-04-06T13:48:12.877Z</time></trkpt><trkpt lat="53.5346200929325" lon="14.637033324204035"><ele>-1.0</ele><time>2026-04-06T13:48:13.877Z</time></trkpt><trkpt lat="53.53467231021075" lon="14.637171185208809"><ele>-1.4</ele><time>2026-04-06T13:48:14.877Z</time></trkpt><trkpt lat="53.53472373760862" lon="14.637277835313906"><ele>-1.8</ele><time>2026-04-06T13:48:15.877Z</time></trkpt><trkpt lat="53.53477935307902" lon="14.63743107758555"><ele>-2.1999999999999997</ele><time>2026-04-06T13:48:16.877Z</time></trkpt><trkpt lat="53.534839775828864" lon="14.637591715215303"><ele>-2.6</ele><time>2026-04-06T13:48:17.877Z</time></trkpt><trkpt lat="53.53489575199901" lon="14.6377308216166"><ele>-3.0</ele><time>2026-04-06T13:48:18.877Z</time></trkpt><trkpt lat="53.53493789593682" lon="14.637830343983023"><ele>-3.0</ele><time>2026-04-06T13:48:19.877Z</time></trkpt><trkpt lat="53.53500031012866" lon="14.63800163630881"><ele>-3.0</ele><time>2026-04-06T13:48:20.877Z</time></trkpt><trkpt lat="53.535050634926364" lon="14.638127040715887"><ele>-3.0</ele><time>2026-04-06T13:48:21.877Z</time></trkpt><trkpt lat="53.53509596939809" lon="14.63824594864882"><ele>-3.0</ele><time>2026-04-06T13:48:22.877Z</time></trkpt><trkpt lat="53.535147396993985" lon="14.638394493402117"><ele>-3.0</ele><time>2026-04-06T13:48:23.877Z</time></trkpt><trkpt lat="53.53520268658488" lon="14.638543680476138"><ele>-3.0</ele><time>2026-04-06T13:48:24.876Z</time></trkpt><trkpt lat="53.5352666472493" lon="14.638711680164981"><ele>-3.0</ele><time>2026-04-06T13:48:25.876Z</time></trkpt><trkpt lat="53.535310873720896" lon="14.638850483475933"><ele>-3.0</ele><time>2026-04-06T13:48:26.876Z</time></trkpt><trkpt lat="53.5353594396695" lon="14.639003616482908"><ele>-3.0</ele><time>2026-04-06T13:48:27.876Z</time></trkpt><trkpt lat="53.535409715692346" lon="14.639148889614917"><ele>-3.0</ele><time>2026-04-06T13:48:28.876Z</time></trkpt><trkpt lat="53.53542990455562" lon="14.639261675209854"><ele>-3.0</ele><time>2026-04-06T13:48:29.876Z</time></trkpt><trkpt lat="53.53545936219414" lon="14.639400197168385"><ele>-3.0</ele><time>2026-04-06T13:48:30.876Z</time></trkpt><trkpt lat="53.535486261788265" lon="14.639567850199182"><ele>-3.0</ele><time>2026-04-06T13:48:31.876Z</time></trkpt><trkpt lat="53.53552343450455" lon="14.639757168751338"><ele>-3.0</ele><time>2026-04-06T13:48:32.876Z</time></trkpt><trkpt lat="53.53557600634172" lon="14.63997155029183"><ele>-3.0</ele><time>2026-04-06T13:48:33.876Z</time></trkpt><trkpt lat="53.53559719448863" lon="14.640171047011572"><ele>-2.8</ele><time>2026-04-06T13:48:34.876Z</time></trkpt><trkpt lat="53.535608057628835" lon="14.640320448917487"><ele>-2.5999999999999996</ele><time>2026-04-06T13:48:35.876Z</time></trkpt><trkpt lat="53.53564095309965" lon="14.640502861235586"><ele>-2.4000000000000004</ele><time>2026-04-06T13:48:36.876Z</time></trkpt><trkpt lat="53.53566851946875" lon="14.640697305542623"><ele>-2.2</ele><time>2026-04-06T13:48:37.876Z</time></trkpt><trkpt lat="53.53570002187746" lon="14.640896552083198"><ele>-2.0</ele><time>2026-04-06T13:48:38.876Z</time></trkpt><trkpt lat="53.53572875886869" lon="14.641088712669747"><ele>-2.0</ele><time>2026-04-06T13:48:39.876Z</time></trkpt><trkpt lat="53.53575593068994" lon="14.641278372852756"><ele>-2.0</ele><time>2026-04-06T13:48:40.876Z</time></trkpt><trkpt lat="53.53578321800355" lon="14.641446029186033"><ele>-2.0</ele><time>2026-04-06T13:48:41.876Z</time></trkpt><trkpt lat="53.535810291086285" lon="14.641614282609977"><ele>-2.0</ele><time>2026-04-06T13:48:42.876Z</time></trkpt><trkpt lat="53.535838454606406" lon="14.641787054896543"><ele>-2.0</ele><time>2026-04-06T13:48:43.876Z</time></trkpt><trkpt lat="53.53586673277926" lon="14.641951782091578"><ele>-2.2</ele><time>2026-04-06T13:48:44.876Z</time></trkpt><trkpt lat="53.535898031956144" lon="14.642127994325522"><ele>-2.4000000000000004</ele><time>2026-04-06T13:48:45.876Z</time></trkpt><trkpt lat="53.53592363002332" lon="14.642311396948944"><ele>-2.5999999999999996</ele><time>2026-04-06T13:48:46.876Z</time></trkpt><trkpt lat="53.53595462175924" lon="14.642499429129236"><ele>-2.8</ele><time>2026-04-06T13:48:47.876Z</time></trkpt><trkpt lat="53.5359813708547" lon="14.642679227425042"><ele>-3.0</ele><time>2026-04-06T13:48:48.876Z</time></trkpt><trkpt lat="53.536008997268446" lon="14.642858319369479"><ele>-3.0</ele><time>2026-04-06T13:48:49.876Z</time></trkpt><trkpt lat="53.53603614862958" lon="14.643029101203956"><ele>-3.0</ele><time>2026-04-06T13:48:50.876Z</time></trkpt><trkpt lat="53.53606060874544" lon="14.64319130646079"><ele>-3.0</ele><time>2026-04-06T13:48:51.876Z</time></trkpt><trkpt lat="53.53608097055913" lon="14.643372822377547"><ele>-3.0</ele><time>2026-04-06T13:48:52.876Z</time></trkpt><trkpt lat="53.5361022773995" lon="14.64356853311462"><ele>-3.0</ele><time>2026-04-06T13:48:53.876Z</time></trkpt><trkpt lat="53.53611784309657" lon="14.643778141745308"><ele>-2.75</ele><time>2026-04-06T13:48:54.876Z</time></trkpt><trkpt lat="53.536124470821306" lon="14.643986097117311"><ele>-2.5</ele><time>2026-04-06T13:48:55.876Z</time></trkpt><trkpt lat="53.53613425995451" lon="14.644177531069268"><ele>-2.25</ele><time>2026-04-06T13:48:56.876Z</time></trkpt><trkpt lat="53.53615117211285" lon="14.644362486123358"><ele>-2.0</ele><time>2026-04-06T13:48:57.876Z</time></trkpt><trkpt lat="53.53618467929457" lon="14.644535762530964"><ele>-2.0</ele><time>2026-04-06T13:48:58.876Z</time></trkpt><trkpt lat="53.536236218804284" lon="14.644701938683072"><ele>-2.0</ele><time>2026-04-06T13:48:59.876Z</time></trkpt><trkpt lat="53.536301492082714" lon="14.644894635243341"><ele>-2.0</ele><time>2026-04-06T13:49:00.876Z</time></trkpt><trkpt lat="53.536361848666544" lon="14.64506862018387"><ele>-2.0</ele><time>2026-04-06T13:49:01.876Z</time></trkpt><trkpt lat="53.536412123727665" lon="14.64523100045338"><ele>-2.0</ele><time>2026-04-06T13:49:02.876Z</time></trkpt><trkpt lat="53.536450187478835" lon="14.645401128998852"><ele>-2.0</ele><time>2026-04-06T13:49:03.876Z</time></trkpt><trkpt lat="53.53647096335506" lon="14.645586331043527"><ele>-2.0</ele><time>2026-04-06T13:49:04.876Z</time></trkpt><trkpt lat="53.53648807609155" lon="14.645764630969955"><ele>-2.0</ele><time>2026-04-06T13:49:05.876Z</time></trkpt><trkpt lat="53.5365018749484" lon="14.645926408163593"><ele>-2.0</ele><time>2026-04-06T13:49:06.876Z</time></trkpt><trkpt lat="53.5365101974315" lon="14.646105534020984"><ele>-2.0</ele><time>2026-04-06T13:49:07.876Z</time></trkpt><trkpt lat="53.53650699212184" lon="14.64629164393239"><ele>-2.0</ele><time>2026-04-06T13:49:08.876Z</time></trkpt><trkpt lat="53.53650561983176" lon="14.646486552867803"><ele>-2.0</ele><time>2026-04-06T13:49:09.876Z</time></trkpt><trkpt lat="53.53651699686133" lon="14.646690165044372"><ele>-2.0</ele><time>2026-04-06T13:49:10.876Z</time></trkpt><trkpt lat="53.53653403645488" lon="14.646884195962777"><ele>-1.75</ele><time>2026-04-06T13:49:11.876Z</time></trkpt><trkpt lat="53.53655065696502" lon="14.647072888510229"><ele>-1.5</ele><time>2026-04-06T13:49:12.876Z</time></trkpt><trkpt lat="53.536582348185924" lon="14.64726989213141"><ele>-1.25</ele><time>2026-04-06T13:49:13.876Z</time></trkpt><trkpt lat="53.53662347819108" lon="14.647467258392787"><ele>-1.0</ele><time>2026-04-06T13:49:14.876Z</time></trkpt><trkpt lat="53.53666462630596" lon="14.647634755364393"><ele>-1.0</ele><time>2026-04-06T13:49:15.876Z</time></trkpt><trkpt lat="53.536715262323135" lon="14.647800856117351"><ele>-1.0</ele><time>2026-04-06T13:49:16.876Z</time></trkpt><trkpt lat="53.536772791756675" lon="14.647992511212005"><ele>-1.0</ele><time>2026-04-06T13:49:17.876Z</time></trkpt><trkpt lat="53.53682261918786" lon="14.648207837954974"><ele>-1.0</ele><time>2026-04-06T13:49:18.876Z</time></trkpt><trkpt lat="53.53688147032721" lon="14.648409670119909"><ele>-1.0</ele><time>2026-04-06T13:49:19.876Z</time></trkpt><trkpt lat="53.53692979114775" lon="14.648590725972346"><ele>-1.0</ele><time>2026-04-06T13:49:20.876Z</time></trkpt><trkpt lat="53.53697554762445" lon="14.64877489218085"><ele>-1.0</ele><time>2026-04-06T13:49:21.876Z</time></trkpt><trkpt lat="53.537013298856735" lon="14.648969731453628"><ele>-1.0</ele><time>2026-04-06T13:49:22.876Z</time></trkpt><trkpt lat="53.537053618451694" lon="14.649175637154968"><ele>-1.25</ele><time>2026-04-06T13:49:23.876Z</time></trkpt><trkpt lat="53.53708847625708" lon="14.649352074597296"><ele>-1.5</ele><time>2026-04-06T13:49:24.876Z</time></trkpt><trkpt lat="53.53713077588207" lon="14.649567788421388"><ele>-1.75</ele><time>2026-04-06T13:49:25.876Z</time></trkpt><trkpt lat="53.5371773041255" lon="14.649768588622225"><ele>-2.0</ele><time>2026-04-06T13:49:26.876Z</time></trkpt><trkpt lat="53.53722217938171" lon="14.649986863397201"><ele>-2.0</ele><time>2026-04-06T13:49:27.876Z</time></trkpt><trkpt lat="53.53726464175199" lon="14.650173484707954"><ele>-2.0</ele><time>2026-04-06T13:49:28.876Z</time></trkpt><trkpt lat="53.53731137511714" lon="14.650383658684309"><ele>-2.0</ele><time>2026-04-06T13:49:29.876Z</time></trkpt><trkpt lat="53.53735801705947" lon="14.650581721195731"><ele>-2.0</ele><time>2026-04-06T13:49:30.876Z</time></trkpt><trkpt lat="53.5374201322042" lon="14.650800083137076"><ele>-2.25</ele><time>2026-04-06T13:49:31.876Z</time></trkpt><trkpt lat="53.53748381762066" lon="14.650994516521811"><ele>-2.5</ele><time>2026-04-06T13:49:32.876Z</time></trkpt><trkpt lat="53.53755223282943" lon="14.651177496329163"><ele>-2.75</ele><time>2026-04-06T13:49:33.876Z</time></trkpt><trkpt lat="53.53762423976122" lon="14.651332353634926"><ele>-3.0</ele><time>2026-04-06T13:49:34.876Z</time></trkpt><trkpt lat="53.53769195969968" lon="14.651447440353547"><ele>-3.0</ele><time>2026-04-06T13:49:35.876Z</time></trkpt><trkpt lat="53.537782361006315" lon="14.65156233889744"><ele>-3.0</ele><time>2026-04-06T13:49:36.876Z</time></trkpt><trkpt lat="53.537895715210155" lon="14.651662929872483"><ele>-3.0</ele><time>2026-04-06T13:49:37.876Z</time></trkpt><trkpt lat="53.538020118668676" lon="14.651753123842166"><ele>-3.0</ele><time>2026-04-06T13:49:38.876Z</time></trkpt><trkpt lat="53.538154263170945" lon="14.651831539200531"><ele>-3.0</ele><time>2026-04-06T13:49:39.876Z</time></trkpt><trkpt lat="53.53828672181288" lon="14.651912238791759"><ele>-3.0</ele><time>2026-04-06T13:49:40.876Z</time></trkpt><trkpt lat="53.53841916819414" lon="14.651997024421448"><ele>-3.0</ele><time>2026-04-06T13:49:41.876Z</time></trkpt><trkpt lat="53.53855267679677" lon="14.652050852680588"><ele>-3.0</ele><time>2026-04-06T13:49:42.876Z</time></trkpt><trkpt lat="53.5386788193373" lon="14.652101044715161"><ele>-2.5</ele><time>2026-04-06T13:49:43.876Z</time></trkpt><trkpt lat="53.53881184960566" lon="14.652151856804036"><ele>-2.0</ele><time>2026-04-06T13:49:44.876Z</time></trkpt><trkpt lat="53.53894592092453" lon="14.652215922602354"><ele>-1.5</ele><time>2026-04-06T13:49:45.876Z</time></trkpt><trkpt lat="53.53906477024291" lon="14.65228272649859"><ele>-1.0</ele><time>2026-04-06T13:49:46.876Z</time></trkpt><trkpt lat="53.53916125688671" lon="14.652346088121167"><ele>-1.0</ele><time>2026-04-06T13:49:47.876Z</time></trkpt><trkpt lat="53.53924489058061" lon="14.652433796894693"><ele>-1.0</ele><time>2026-04-06T13:49:48.876Z</time></trkpt><trkpt lat="53.53932391114894" lon="14.652552490104874"><ele>-1.0</ele><time>2026-04-06T13:49:49.876Z</time></trkpt><trkpt lat="53.539406764486046" lon="14.65271015643962"><ele>-1.0</ele><time>2026-04-06T13:49:50.876Z</time></trkpt><trkpt lat="53.53947328012209" lon="14.652903288151188"><ele>-1.25</ele><time>2026-04-06T13:49:51.876Z</time></trkpt><trkpt lat="53.5395329480184" lon="14.653108459516549"><ele>-1.5</ele><time>2026-04-06T13:49:52.876Z</time></trkpt><trkpt lat="53.53959452980417" lon="14.653309590708659"><ele>-1.75</ele><time>2026-04-06T13:49:53.876Z</time></trkpt><trkpt lat="53.539651208076755" lon="14.653525740478614"><ele>-2.0</ele><time>2026-04-06T13:49:54.876Z</time></trkpt><trkpt lat="53.53968960103118" lon="14.653764690779042"><ele>-2.25</ele><time>2026-04-06T13:49:55.876Z</time></trkpt><trkpt lat="53.53971982163778" lon="14.65399762255785"><ele>-2.5</ele><time>2026-04-06T13:49:56.876Z</time></trkpt><trkpt lat="53.53972919211877" lon="14.65422073802258"><ele>-2.75</ele><time>2026-04-06T13:49:57.876Z</time></trkpt><trkpt lat="53.53973391540874" lon="14.654452604387945"><ele>-3.0</ele><time>2026-04-06T13:49:58.876Z</time></trkpt><trkpt lat="53.53974293584336" lon="14.654652306250622"><ele>-3.2</ele><time>2026-04-06T13:49:59.876Z</time></trkpt><trkpt lat="53.539763131576436" lon="14.654867682211627"><ele>-3.4</ele><time>2026-04-06T13:50:00.876Z</time></trkpt><trkpt lat="53.53976899976737" lon="14.65501894344241"><ele>-3.6000000000000005</ele><time>2026-04-06T13:50:01.876Z</time></trkpt><trkpt lat="53.53978391999542" lon="14.655188238265055"><ele>-3.8000000000000003</ele><time>2026-04-06T13:50:02.876Z</time></trkpt><trkpt lat="53.53979844245" lon="14.655363108599584"><ele>-4.0</ele><time>2026-04-06T13:50:03.876Z</time></trkpt><trkpt lat="53.539808787251815" lon="14.655551984142287"><ele>-4.0</ele><time>2026-04-06T13:50:04.876Z</time></trkpt><trkpt lat="53.53982444038156" lon="14.655749033389665"><ele>-4.0</ele><time>2026-04-06T13:50:05.876Z</time></trkpt><trkpt lat="53.53983867939672" lon="14.655912529072264"><ele>-4.0</ele><time>2026-04-06T13:50:06.876Z</time></trkpt><trkpt lat="53.53986944438702" lon="14.656057319544955"><ele>-4.0</ele><time>2026-04-06T13:50:07.876Z</time></trkpt><trkpt lat="53.539915339728374" lon="14.656183591520183"><ele>-4.0</ele><time>2026-04-06T13:50:08.876Z</time></trkpt><trkpt lat="53.53999405888231" lon="14.65629101451637"><ele>-3.75</ele><time>2026-04-06T13:50:09.876Z</time></trkpt><trkpt lat="53.54008773364222" lon="14.65641556224162"><ele>-3.5</ele><time>2026-04-06T13:50:10.876Z</time></trkpt><trkpt lat="53.54018756876283" lon="14.656564441428783"><ele>-3.25</ele><time>2026-04-06T13:50:11.876Z</time></trkpt><trkpt lat="53.54027430648193" lon="14.656698463354724"><ele>-3.0</ele><time>2026-04-06T13:50:12.876Z</time></trkpt><trkpt lat="53.54036766077554" lon="14.656867036009595"><ele>-2.75</ele><time>2026-04-06T13:50:13.876Z</time></trkpt><trkpt lat="53.540446393724224" lon="14.657023028940841"><ele>-2.5</ele><time>2026-04-06T13:50:14.876Z</time></trkpt><trkpt lat="53.54052595659202" lon="14.657190016997456"><ele>-2.25</ele><time>2026-04-06T13:50:15.876Z</time></trkpt><trkpt lat="53.54060340355428" lon="14.657331440435835"><ele>-2.0</ele><time>2026-04-06T13:50:16.876Z</time></trkpt><trkpt lat="53.54067075814737" lon="14.657451507032079"><ele>-2.0</ele><time>2026-04-06T13:50:17.875Z</time></trkpt><trkpt lat="53.540727838882184" lon="14.65755934311501"><ele>-2.0</ele><time>2026-04-06T13:50:18.874Z</time></trkpt><trkpt lat="53.54078640390424" lon="14.657660380450677"><ele>-2.0</ele><time>2026-04-06T13:50:19.874Z</time></trkpt><trkpt lat="53.54089343880588" lon="14.657867763830176"><ele>-2.0</ele><time>2026-04-06T13:50:21.875Z</time></trkpt><trkpt lat="53.540945670077505" lon="14.657960944825001"><ele>-2.0</ele><time>2026-04-06T13:50:22.875Z</time></trkpt><trkpt lat="53.54099458277647" lon="14.658062351666848"><ele>-2.0</ele><time>2026-04-06T13:50:23.874Z</time></trkpt><trkpt lat="53.541061252391984" lon="14.658190744839976"><ele>-2.0</ele><time>2026-04-06T13:50:24.874Z</time></trkpt><trkpt lat="53.54111442467664" lon="14.6583164513133"><ele>-2.0</ele><time>2026-04-06T13:50:25.874Z</time></trkpt><trkpt lat="53.54117660900081" lon="14.658462947812087"><ele>-2.0</ele><time>2026-04-06T13:50:26.874Z</time></trkpt><trkpt lat="53.5412417814223" lon="14.658613335164654"><ele>-2.0</ele><time>2026-04-06T13:50:27.874Z</time></trkpt><trkpt lat="53.54130702151909" lon="14.658764745986652"><ele>-2.0</ele><time>2026-04-06T13:50:28.874Z</time></trkpt><trkpt lat="53.54137278948019" lon="14.658914064559122"><ele>-2.0</ele><time>2026-04-06T13:50:29.875Z</time></trkpt><trkpt lat="53.54144431500483" lon="14.659064125426662"><ele>-2.0</ele><time>2026-04-06T13:50:30.875Z</time></trkpt><trkpt lat="53.54153179694355" lon="14.659225255374103"><ele>-2.0</ele><time>2026-04-06T13:50:31.875Z</time></trkpt><trkpt lat="53.54161488897117" lon="14.659412233151741"><ele>-2.0</ele><time>2026-04-06T13:50:32.875Z</time></trkpt><trkpt lat="53.541697826492666" lon="14.659586146138466"><ele>-2.0</ele><time>2026-04-06T13:50:33.875Z</time></trkpt><trkpt lat="53.54177094713752" lon="14.659733958292122"><ele>-2.0</ele><time>2026-04-06T13:50:34.875Z</time></trkpt><trkpt lat="53.541854158796355" lon="14.65990498016085"><ele>-2.0</ele><time>2026-04-06T13:50:35.875Z</time></trkpt><trkpt lat="53.541934567832776" lon="14.660072021787617"><ele>-2.0</ele><time>2026-04-06T13:50:36.875Z</time></trkpt><trkpt lat="53.54201105259233" lon="14.6602261849121"><ele>-2.0</ele><time>2026-04-06T13:50:37.875Z</time></trkpt><trkpt lat="53.54207683646507" lon="14.660376881850397"><ele>-2.0</ele><time>2026-04-06T13:50:38.875Z</time></trkpt><trkpt lat="53.54215502969847" lon="14.66053101513443"><ele>-2.0</ele><time>2026-04-06T13:50:39.875Z</time></trkpt><trkpt lat="53.542222708970776" lon="14.660679543448833"><ele>-2.0</ele><time>2026-04-06T13:50:40.875Z</time></trkpt><trkpt lat="53.54230525251234" lon="14.66084503194909"><ele>-2.0</ele><time>2026-04-06T13:50:41.875Z</time></trkpt><trkpt lat="53.542394398367165" lon="14.661019346421863"><ele>-2.0</ele><time>2026-04-06T13:50:42.875Z</time></trkpt><trkpt lat="53.542478238514974" lon="14.661173111536609"><ele>-2.0</ele><time>2026-04-06T13:50:43.875Z</time></trkpt><trkpt lat="53.542560327805965" lon="14.66133467928048"><ele>-2.0</ele><time>2026-04-06T13:50:44.875Z</time></trkpt><trkpt lat="53.54264575515107" lon="14.661486326801054"><ele>-2.0</ele><time>2026-04-06T13:50:45.875Z</time></trkpt><trkpt lat="53.54272521331925" lon="14.66164782509743"><ele>-2.0</ele><time>2026-04-06T13:50:46.875Z</time></trkpt><trkpt lat="53.542805782281576" lon="14.661804628700054"><ele>-2.0</ele><time>2026-04-06T13:50:47.875Z</time></trkpt><trkpt lat="53.54288396960078" lon="14.661961082499644"><ele>-2.2</ele><time>2026-04-06T13:50:48.875Z</time></trkpt><trkpt lat="53.54295538871375" lon="14.662105154150561"><ele>-2.4000000000000004</ele><time>2026-04-06T13:50:49.875Z</time></trkpt><trkpt lat="53.5430383176297" lon="14.66224872187904"><ele>-2.5999999999999996</ele><time>2026-04-06T13:50:50.875Z</time></trkpt><trkpt lat="53.543113594994026" lon="14.66237394484684"><ele>-2.8</ele><time>2026-04-06T13:50:51.875Z</time></trkpt><trkpt lat="53.54318525235179" lon="14.662488519143682"><ele>-3.0</ele><time>2026-04-06T13:50:52.875Z</time></trkpt><trkpt lat="53.543256592011204" lon="14.66261923712375"><ele>-3.0</ele><time>2026-04-06T13:50:53.875Z</time></trkpt><trkpt lat="53.54333222832542" lon="14.662769916525926"><ele>-3.0</ele><time>2026-04-06T13:50:54.875Z</time></trkpt><trkpt lat="53.54340972440051" lon="14.662920783073298"><ele>-3.0</ele><time>2026-04-06T13:50:55.875Z</time></trkpt><trkpt lat="53.543488169702314" lon="14.663067849651794"><ele>-3.0</ele><time>2026-04-06T13:50:56.875Z</time></trkpt><trkpt lat="53.54357152420326" lon="14.663221624410301"><ele>-2.8</ele><time>2026-04-06T13:50:57.875Z</time></trkpt><trkpt lat="53.543654690000075" lon="14.663373069866417"><ele>-2.5999999999999996</ele><time>2026-04-06T13:50:58.875Z</time></trkpt><trkpt lat="53.54372677237445" lon="14.663511734365466"><ele>-2.4000000000000004</ele><time>2026-04-06T13:50:59.875Z</time></trkpt><trkpt lat="53.54380280554997" lon="14.66365167142204"><ele>-2.2</ele><time>2026-04-06T13:51:00.875Z</time></trkpt><trkpt lat="53.543862942139555" lon="14.663762885722488"><ele>-2.0</ele><time>2026-04-06T13:51:01.875Z</time></trkpt><trkpt lat="53.54392659545675" lon="14.663885608379546"><ele>-2.0</ele><time>2026-04-06T13:51:02.875Z</time></trkpt><trkpt lat="53.543972468267945" lon="14.664029749403232"><ele>-2.0</ele><time>2026-04-06T13:51:03.875Z</time></trkpt><trkpt lat="53.54401095865592" lon="14.664232052119827"><ele>-2.0</ele><time>2026-04-06T13:51:04.875Z</time></trkpt><trkpt lat="53.54403358159001" lon="14.664461736389072"><ele>-2.0</ele><time>2026-04-06T13:51:05.875Z</time></trkpt><trkpt lat="53.54405011821389" lon="14.664663061538372"><ele>-2.0</ele><time>2026-04-06T13:51:06.875Z</time></trkpt><trkpt lat="53.54407747392216" lon="14.664846616609877"><ele>-2.0</ele><time>2026-04-06T13:51:07.875Z</time></trkpt><trkpt lat="53.54411521885113" lon="14.665052692398831"><ele>-2.0</ele><time>2026-04-06T13:51:08.875Z</time></trkpt><trkpt lat="53.54415571397461" lon="14.665265172646762"><ele>-2.0</ele><time>2026-04-06T13:51:09.875Z</time></trkpt><trkpt lat="53.54418686271568" lon="14.665439804527075"><ele>-2.0</ele><time>2026-04-06T13:51:10.875Z</time></trkpt><trkpt lat="53.544234236322175" lon="14.665635258494937"><ele>-2.0</ele><time>2026-04-06T13:51:11.875Z</time></trkpt><trkpt lat="53.54428464382821" lon="14.665824751859647"><ele>-2.0</ele><time>2026-04-06T13:51:12.874Z</time></trkpt><trkpt lat="53.54433321438471" lon="14.665991818324084"><ele>-2.0</ele><time>2026-04-06T13:51:13.874Z</time></trkpt><trkpt lat="53.54438189467044" lon="14.666144092089139"><ele>-2.25</ele><time>2026-04-06T13:51:14.874Z</time></trkpt><trkpt lat="53.54444512150804" lon="14.666294572959508"><ele>-2.5</ele><time>2026-04-06T13:51:15.874Z</time></trkpt><trkpt lat="53.544538685015226" lon="14.666457273888494"><ele>-2.75</ele><time>2026-04-06T13:51:16.874Z</time></trkpt><trkpt lat="53.544636576398474" lon="14.66662146332136"><ele>-3.0</ele><time>2026-04-06T13:51:17.874Z</time></trkpt><trkpt lat="53.54472940882472" lon="14.666770765863753"><ele>-3.0</ele><time>2026-04-06T13:51:18.874Z</time></trkpt><trkpt lat="53.544823911917575" lon="14.666913039197748"><ele>-3.0</ele><time>2026-04-06T13:51:19.874Z</time></trkpt><trkpt lat="53.54490762346172" lon="14.667049825276562"><ele>-3.0</ele><time>2026-04-06T13:51:20.874Z</time></trkpt><trkpt lat="53.54499199176563" lon="14.66721123888531"><ele>-3.0</ele><time>2026-04-06T13:51:21.874Z</time></trkpt><trkpt lat="53.545077811969236" lon="14.667426080275563"><ele>-3.0</ele><time>2026-04-06T13:51:22.874Z</time></trkpt><trkpt lat="53.54514954616438" lon="14.667649848877044"><ele>-3.0</ele><time>2026-04-06T13:51:23.874Z</time></trkpt><trkpt lat="53.54521785003196" lon="14.667875890149054"><ele>-3.0</ele><time>2026-04-06T13:51:24.874Z</time></trkpt><trkpt lat="53.54529529666421" lon="14.668096974672977"><ele>-3.0</ele><time>2026-04-06T13:51:25.874Z</time></trkpt><trkpt lat="53.54538581450471" lon="14.66835126946844"><ele>-3.0</ele><time>2026-04-06T13:51:26.874Z</time></trkpt><trkpt lat="53.5454775028273" lon="14.6686082934892"><ele>-3.0</ele><time>2026-04-06T13:51:27.874Z</time></trkpt><trkpt lat="53.54555533158008" lon="14.66883311658508"><ele>-3.0</ele><time>2026-04-06T13:51:28.874Z</time></trkpt><trkpt lat="53.54562761442478" lon="14.669066571002324"><ele>-3.0</ele><time>2026-04-06T13:51:29.874Z</time></trkpt><trkpt lat="53.54570081570067" lon="14.669270026558896"><ele>-3.0</ele><time>2026-04-06T13:51:30.874Z</time></trkpt><trkpt lat="53.54576521076647" lon="14.66944537894907"><ele>-3.0</ele><time>2026-04-06T13:51:31.874Z</time></trkpt><trkpt lat="53.54583538240013" lon="14.66963375848592"><ele>-3.0</ele><time>2026-04-06T13:51:32.874Z</time></trkpt><trkpt lat="53.54591460765468" lon="14.669832819307194"><ele>-3.0</ele><time>2026-04-06T13:51:33.874Z</time></trkpt><trkpt lat="53.54598704458975" lon="14.670020113647176"><ele>-3.0</ele><time>2026-04-06T13:51:34.874Z</time></trkpt><trkpt lat="53.54606740593657" lon="14.670214477776023"><ele>-3.0</ele><time>2026-04-06T13:51:35.874Z</time></trkpt><trkpt lat="53.54616065427809" lon="14.670407680230628"><ele>-2.75</ele><time>2026-04-06T13:51:36.874Z</time></trkpt><trkpt lat="53.54627786734825" lon="14.67060558671233"><ele>-2.5</ele><time>2026-04-06T13:51:37.874Z</time></trkpt><trkpt lat="53.546380037243345" lon="14.67075978757788"><ele>-2.25</ele><time>2026-04-06T13:51:38.874Z</time></trkpt><trkpt lat="53.5464956811897" lon="14.67089122094912"><ele>-2.0</ele><time>2026-04-06T13:51:39.874Z</time></trkpt><trkpt lat="53.54661079184028" lon="14.671013530458634"><ele>-2.0</ele><time>2026-04-06T13:51:40.874Z</time></trkpt><trkpt lat="53.54673610511941" lon="14.671137969629898"><ele>-2.0</ele><time>2026-04-06T13:51:41.874Z</time></trkpt><trkpt lat="53.546833072654834" lon="14.671231780552677"><ele>-2.0</ele><time>2026-04-06T13:51:42.874Z</time></trkpt><trkpt lat="53.546939158824756" lon="14.671308220748802"><ele>-2.0</ele><time>2026-04-06T13:51:43.874Z</time></trkpt><trkpt lat="53.54704450823549" lon="14.671366488966308"><ele>-2.0</ele><time>2026-04-06T13:51:44.874Z</time></trkpt><trkpt lat="53.54716907376641" lon="14.671422542943036"><ele>-2.0</ele><time>2026-04-06T13:51:45.874Z</time></trkpt><trkpt lat="53.54729748373499" lon="14.671463667796907"><ele>-2.0</ele><time>2026-04-06T13:51:46.874Z</time></trkpt><trkpt lat="53.547425430165895" lon="14.671501905225442"><ele>-2.0</ele><time>2026-04-06T13:51:47.874Z</time></trkpt><trkpt lat="53.54755366770222" lon="14.671546218790185"><ele>-2.0</ele><time>2026-04-06T13:51:48.874Z</time></trkpt><trkpt lat="53.547690228068994" lon="14.671571607541576"><ele>-2.0</ele><time>2026-04-06T13:51:49.874Z</time></trkpt><trkpt lat="53.547815991137355" lon="14.671616072205333"><ele>-2.0</ele><time>2026-04-06T13:51:50.874Z</time></trkpt><trkpt lat="53.54794750752389" lon="14.67165462994249"><ele>-2.0</ele><time>2026-04-06T13:51:51.874Z</time></trkpt><trkpt lat="53.54808988606853" lon="14.67170882871039"><ele>-2.0</ele><time>2026-04-06T13:51:52.874Z</time></trkpt><trkpt lat="53.54820650510956" lon="14.671748159798026"><ele>-2.0</ele><time>2026-04-06T13:51:53.874Z</time></trkpt><trkpt lat="53.54832721237567" lon="14.671776145621843"><ele>-2.0</ele><time>2026-04-06T13:51:54.874Z</time></trkpt><trkpt lat="53.5484316757819" lon="14.671800813331801"><ele>-2.0</ele><time>2026-04-06T13:51:55.874Z</time></trkpt><trkpt lat="53.54856700734283" lon="14.67183433662513"><ele>-2.0</ele><time>2026-04-06T13:51:56.874Z</time></trkpt><trkpt lat="53.548702505474495" lon="14.671876191058205"><ele>-2.0</ele><time>2026-04-06T13:51:57.874Z</time></trkpt><trkpt lat="53.54885323163746" lon="14.671917513175979"><ele>-2.0</ele><time>2026-04-06T13:51:58.874Z</time></trkpt><trkpt lat="53.548987948023075" lon="14.671954330854698"><ele>-2.0</ele><time>2026-04-06T13:51:59.874Z</time></trkpt><trkpt lat="53.5491322845556" lon="14.671992003804561"><ele>-2.0</ele><time>2026-04-06T13:52:00.874Z</time></trkpt><trkpt lat="53.54929171635339" lon="14.672039270897326"><ele>-2.0</ele><time>2026-04-06T13:52:01.874Z</time></trkpt><trkpt lat="53.54942752691178" lon="14.672079656462786"><ele>-2.0</ele><time>2026-04-06T13:52:02.874Z</time></trkpt><trkpt lat="53.549567845865" lon="14.672120807943093"><ele>-2.0</ele><time>2026-04-06T13:52:03.874Z</time></trkpt><trkpt lat="53.5497017742624" lon="14.67217389046521"><ele>-2.0</ele><time>2026-04-06T13:52:04.874Z</time></trkpt><trkpt lat="53.54983061980947" lon="14.672209712909218"><ele>-2.0</ele><time>2026-04-06T13:52:05.874Z</time></trkpt><trkpt lat="53.54996342825949" lon="14.672238003710634"><ele>-2.0</ele><time>2026-04-06T13:52:06.874Z</time></trkpt><trkpt lat="53.55008198041835" lon="14.672269360415164"><ele>-2.0</ele><time>2026-04-06T13:52:07.874Z</time></trkpt><trkpt lat="53.55020881119871" lon="14.672308478930718"><ele>-2.0</ele><time>2026-04-06T13:52:08.874Z</time></trkpt><trkpt lat="53.550317353809554" lon="14.672351010144219"><ele>-2.0</ele><time>2026-04-06T13:52:09.874Z</time></trkpt><trkpt lat="53.55040230727108" lon="14.67240041343703"><ele>-2.0</ele><time>2026-04-06T13:52:10.874Z</time></trkpt><trkpt lat="53.550503267257255" lon="14.672510633598396"><ele>-2.0</ele><time>2026-04-06T13:52:11.874Z</time></trkpt><trkpt lat="53.55056180891123" lon="14.67261548992819"><ele>-2.0</ele><time>2026-04-06T13:52:12.874Z</time></trkpt><trkpt lat="53.55058334253674" lon="14.672802209730701"><ele>-2.0</ele><time>2026-04-06T13:52:13.874Z</time></trkpt><trkpt lat="53.55061701193959" lon="14.673007101984805"><ele>-2.0</ele><time>2026-04-06T13:52:14.874Z</time></trkpt><trkpt lat="53.550661902866835" lon="14.673216552574893"><ele>-2.0</ele><time>2026-04-06T13:52:15.874Z</time></trkpt><trkpt lat="53.550710193075076" lon="14.673430677478589"><ele>-2.0</ele><time>2026-04-06T13:52:16.874Z</time></trkpt><trkpt lat="53.55076611598723" lon="14.673645014177977"><ele>-2.0</ele><time>2026-04-06T13:52:17.874Z</time></trkpt><trkpt lat="53.55081241341696" lon="14.67386129069142"><ele>-2.0</ele><time>2026-04-06T13:52:18.874Z</time></trkpt><trkpt lat="53.550870641373656" lon="14.674089100450837"><ele>-2.0</ele><time>2026-04-06T13:52:19.874Z</time></trkpt><trkpt lat="53.55092125845334" lon="14.67432409107862"><ele>-2.0</ele><time>2026-04-06T13:52:20.874Z</time></trkpt><trkpt lat="53.55097269804413" lon="14.674559492360538"><ele>-2.0</ele><time>2026-04-06T13:52:21.874Z</time></trkpt><trkpt lat="53.551031719912075" lon="14.67478728331833"><ele>-2.0</ele><time>2026-04-06T13:52:22.874Z</time></trkpt><trkpt lat="53.551078875325736" lon="14.675000570918643"><ele>-2.0</ele><time>2026-04-06T13:52:23.872Z</time></trkpt><trkpt lat="53.551127299449696" lon="14.675190349380523"><ele>-2.0</ele><time>2026-04-06T13:52:24.872Z</time></trkpt><trkpt lat="53.55117843739765" lon="14.675393668321643"><ele>-2.0</ele><time>2026-04-06T13:52:25.872Z</time></trkpt><trkpt lat="53.55122435583534" lon="14.675581965177326"><ele>-2.0</ele><time>2026-04-06T13:52:26.872Z</time></trkpt><trkpt lat="53.55127558554694" lon="14.675790683539985"><ele>-2.0</ele><time>2026-04-06T13:52:27.872Z</time></trkpt><trkpt lat="53.55131303767555" lon="14.67599335936278"><ele>-2.0</ele><time>2026-04-06T13:52:28.872Z</time></trkpt><trkpt lat="53.5513572023409" lon="14.676192613777339"><ele>-2.0</ele><time>2026-04-06T13:52:29.872Z</time></trkpt><trkpt lat="53.55139626810685" lon="14.676385787724154"><ele>-2.0</ele><time>2026-04-06T13:52:30.872Z</time></trkpt><trkpt lat="53.55143963822314" lon="14.676599218275207"><ele>-2.0</ele><time>2026-04-06T13:52:31.872Z</time></trkpt><trkpt lat="53.551488157657445" lon="14.676806496562666"><ele>-2.0</ele><time>2026-04-06T13:52:32.872Z</time></trkpt><trkpt lat="53.55153491658306" lon="14.676993395122162"><ele>-2.25</ele><time>2026-04-06T13:52:33.873Z</time></trkpt><trkpt lat="53.55157574483384" lon="14.677198308613978"><ele>-2.5</ele><time>2026-04-06T13:52:34.873Z</time></trkpt><trkpt lat="53.551618867440844" lon="14.677406911897984"><ele>-2.75</ele><time>2026-04-06T13:52:35.872Z</time></trkpt><trkpt lat="53.55165054654876" lon="14.677625658505464"><ele>-3.0</ele><time>2026-04-06T13:52:36.872Z</time></trkpt><trkpt lat="53.55170124487074" lon="14.677860604455885"><ele>-3.0</ele><time>2026-04-06T13:52:37.872Z</time></trkpt><trkpt lat="53.55174856857953" lon="14.678102591937485"><ele>-3.0</ele><time>2026-04-06T13:52:38.872Z</time></trkpt><trkpt lat="53.551786924058476" lon="14.678326709239652"><ele>-3.0</ele><time>2026-04-06T13:52:39.872Z</time></trkpt><trkpt lat="53.551824061126204" lon="14.678541272603692"><ele>-3.0</ele><time>2026-04-06T13:52:40.872Z</time></trkpt><trkpt lat="53.55186254767341" lon="14.678752458917323"><ele>-3.0</ele><time>2026-04-06T13:52:41.872Z</time></trkpt><trkpt lat="53.551907330597444" lon="14.678968776966993"><ele>-3.0</ele><time>2026-04-06T13:52:42.872Z</time></trkpt><trkpt lat="53.55194496379501" lon="14.679199980704746"><ele>-3.0</ele><time>2026-04-06T13:52:43.872Z</time></trkpt><trkpt lat="53.551977844639666" lon="14.679380493781434"><ele>-3.0</ele><time>2026-04-06T13:52:44.872Z</time></trkpt><trkpt lat="53.55201413783483" lon="14.679559975909301"><ele>-3.0</ele><time>2026-04-06T13:52:45.872Z</time></trkpt><trkpt lat="53.55204871346283" lon="14.679754520906908"><ele>-3.0</ele><time>2026-04-06T13:52:46.872Z</time></trkpt><trkpt lat="53.55208386637722" lon="14.679961715272462"><ele>-3.0</ele><time>2026-04-06T13:52:47.872Z</time></trkpt><trkpt lat="53.5521274879249" lon="14.680147316185025"><ele>-3.0</ele><time>2026-04-06T13:52:48.872Z</time></trkpt><trkpt lat="53.552186362588834" lon="14.680345434564297"><ele>-2.75</ele><time>2026-04-06T13:52:49.872Z</time></trkpt><trkpt lat="53.55224496973996" lon="14.680515103400408"><ele>-2.5</ele><time>2026-04-06T13:52:50.872Z</time></trkpt><trkpt lat="53.55232559451479" lon="14.680708174504147"><ele>-2.25</ele><time>2026-04-06T13:52:51.872Z</time></trkpt><trkpt lat="53.55240612983918" lon="14.680891718322192"><ele>-2.0</ele><time>2026-04-06T13:52:52.872Z</time></trkpt><trkpt lat="53.55248497540608" lon="14.681086208393237"><ele>-2.0</ele><time>2026-04-06T13:52:53.872Z</time></trkpt><trkpt lat="53.55256809754565" lon="14.681297377607164"><ele>-2.0</ele><time>2026-04-06T13:52:54.872Z</time></trkpt><trkpt lat="53.55263342771192" lon="14.681475098262911"><ele>-2.0</ele><time>2026-04-06T13:52:55.872Z</time></trkpt><trkpt lat="53.552706032695255" lon="14.681658684499174"><ele>-2.0</ele><time>2026-04-06T13:52:56.872Z</time></trkpt><trkpt lat="53.552773986837494" lon="14.681842939917"><ele>-2.0</ele><time>2026-04-06T13:52:57.872Z</time></trkpt><trkpt lat="53.55284046054197" lon="14.68202330422808"><ele>-2.0</ele><time>2026-04-06T13:52:58.872Z</time></trkpt><trkpt lat="53.55292079542064" lon="14.682229841138238"><ele>-2.0</ele><time>2026-04-06T13:52:59.872Z</time></trkpt><trkpt lat="53.55300073161114" lon="14.682429491002097"><ele>-2.0</ele><time>2026-04-06T13:53:00.872Z</time></trkpt><trkpt lat="53.55306163327292" lon="14.682614118961189"><ele>-1.75</ele><time>2026-04-06T13:53:01.872Z</time></trkpt><trkpt lat="53.55313318958331" lon="14.68280443079761"><ele>-1.5</ele><time>2026-04-06T13:53:02.872Z</time></trkpt><trkpt lat="53.55320479538661" lon="14.682992188569813"><ele>-1.25</ele><time>2026-04-06T13:53:03.872Z</time></trkpt><trkpt lat="53.55325395655473" lon="14.683132965142752"><ele>-1.0</ele><time>2026-04-06T13:53:04.872Z</time></trkpt><trkpt lat="53.55332188962136" lon="14.68328797610499"><ele>-1.0</ele><time>2026-04-06T13:53:05.872Z</time></trkpt><trkpt lat="53.55337355139904" lon="14.68344151983693"><ele>-1.0</ele><time>2026-04-06T13:53:06.872Z</time></trkpt><trkpt lat="53.553453209335835" lon="14.683640753573663"><ele>-1.0</ele><time>2026-04-06T13:53:07.872Z</time></trkpt><trkpt lat="53.55351424585199" lon="14.683802911190439"><ele>-1.0</ele><time>2026-04-06T13:53:08.872Z</time></trkpt><trkpt lat="53.55358558128473" lon="14.683988342654333"><ele>-1.25</ele><time>2026-04-06T13:53:09.872Z</time></trkpt><trkpt lat="53.5536621834462" lon="14.684163316906316"><ele>-1.5</ele><time>2026-04-06T13:53:10.872Z</time></trkpt><trkpt lat="53.553735095893416" lon="14.684349516768505"><ele>-1.75</ele><time>2026-04-06T13:53:11.872Z</time></trkpt><trkpt lat="53.55381103654186" lon="14.684533661795191"><ele>-2.0</ele><time>2026-04-06T13:53:12.872Z</time></trkpt><trkpt lat="53.55387802845342" lon="14.684707304026968"><ele>-2.0</ele><time>2026-04-06T13:53:13.872Z</time></trkpt><trkpt lat="53.55394044072235" lon="14.684879394658783"><ele>-2.0</ele><time>2026-04-06T13:53:14.872Z</time></trkpt><trkpt lat="53.553981147744494" lon="14.685041724767288"><ele>-2.0</ele><time>2026-04-06T13:53:15.872Z</time></trkpt><trkpt lat="53.55402871433816" lon="14.685236159370042"><ele>-2.0</ele><time>2026-04-06T13:53:16.872Z</time></trkpt><trkpt lat="53.55405929234929" lon="14.685426450042879"><ele>-2.0</ele><time>2026-04-06T13:53:17.872Z</time></trkpt><trkpt lat="53.55408588249347" lon="14.685632798141075"><ele>-2.0</ele><time>2026-04-06T13:53:18.872Z</time></trkpt><trkpt lat="53.5541175292632" lon="14.685852905595086"><ele>-2.0</ele><time>2026-04-06T13:53:19.872Z</time></trkpt><trkpt lat="53.55414116788346" lon="14.686071998040347"><ele>-2.0</ele><time>2026-04-06T13:53:20.872Z</time></trkpt><trkpt lat="53.55416129532344" lon="14.686280909843063"><ele>-2.0</ele><time>2026-04-06T13:53:21.872Z</time></trkpt><trkpt lat="53.55419803807931" lon="14.68651136570742"><ele>-2.0</ele><time>2026-04-06T13:53:22.872Z</time></trkpt><trkpt lat="53.55423098700406" lon="14.68673616340736"><ele>-2.0</ele><time>2026-04-06T13:53:23.872Z</time></trkpt><trkpt lat="53.55425915817205" lon="14.686964553570919"><ele>-2.0</ele><time>2026-04-06T13:53:24.872Z</time></trkpt><trkpt lat="53.554265840637285" lon="14.6871451540672"><ele>-2.0</ele><time>2026-04-06T13:53:25.872Z</time></trkpt><trkpt lat="53.554290681320815" lon="14.687313260137579"><ele>-2.0</ele><time>2026-04-06T13:53:26.872Z</time></trkpt><trkpt lat="53.554323006123056" lon="14.687503455810734"><ele>-2.0</ele><time>2026-04-06T13:53:27.872Z</time></trkpt><trkpt lat="53.5543596956768" lon="14.68772094676277"><ele>-2.0</ele><time>2026-04-06T13:53:28.872Z</time></trkpt><trkpt lat="53.554386532298366" lon="14.687966080863568"><ele>-2.25</ele><time>2026-04-06T13:53:29.872Z</time></trkpt><trkpt lat="53.55441296929906" lon="14.688174784819518"><ele>-2.5</ele><time>2026-04-06T13:53:30.872Z</time></trkpt><trkpt lat="53.55443509315883" lon="14.68837908034302"><ele>-2.75</ele><time>2026-04-06T13:53:31.872Z</time></trkpt><trkpt lat="53.55446438040442" lon="14.688591604799642"><ele>-3.0</ele><time>2026-04-06T13:53:32.872Z</time></trkpt><trkpt lat="53.55448792202504" lon="14.688802868630216"><ele>-3.0</ele><time>2026-04-06T13:53:33.872Z</time></trkpt><trkpt lat="53.55451933279063" lon="14.688998109079181"><ele>-3.0</ele><time>2026-04-06T13:53:34.872Z</time></trkpt><trkpt lat="53.5545552770692" lon="14.68921047542137"><ele>-3.0</ele><time>2026-04-06T13:53:35.872Z</time></trkpt><trkpt lat="53.554581135907775" lon="14.689447630485022"><ele>-3.0</ele><time>2026-04-06T13:53:36.872Z</time></trkpt><trkpt lat="53.55461087468029" lon="14.689694202800215"><ele>-3.0</ele><time>2026-04-06T13:53:37.872Z</time></trkpt><trkpt lat="53.55464241957631" lon="14.689927083556505"><ele>-3.0</ele><time>2026-04-06T13:53:38.872Z</time></trkpt><trkpt lat="53.55466704687568" lon="14.690164898630874"><ele>-3.0</ele><time>2026-04-06T13:53:39.872Z</time></trkpt><trkpt lat="53.55468214072162" lon="14.690379989204196"><ele>-3.0</ele><time>2026-04-06T13:53:40.872Z</time></trkpt><trkpt lat="53.55469225211896" lon="14.690607561941713"><ele>-3.0</ele><time>2026-04-06T13:53:41.872Z</time></trkpt><trkpt lat="53.55468718367112" lon="14.690844398955258"><ele>-3.0</ele><time>2026-04-06T13:53:42.872Z</time></trkpt><trkpt lat="53.55466558633797" lon="14.691081107932852"><ele>-3.0</ele><time>2026-04-06T13:53:43.872Z</time></trkpt><trkpt lat="53.55463866621391" lon="14.691300201302887"><ele>-3.0</ele><time>2026-04-06T13:53:44.872Z</time></trkpt><trkpt lat="53.55462171715089" lon="14.691499806076612"><ele>-3.0</ele><time>2026-04-06T13:53:45.872Z</time></trkpt><trkpt lat="53.55461028209559" lon="14.691697171168292"><ele>-3.0</ele><time>2026-04-06T13:53:46.872Z</time></trkpt><trkpt lat="53.55460008946864" lon="14.691921052270384"><ele>-3.0</ele><time>2026-04-06T13:53:47.872Z</time></trkpt><trkpt lat="53.55459008118971" lon="14.692147032160074"><ele>-3.0</ele><time>2026-04-06T13:53:48.872Z</time></trkpt><trkpt lat="53.55457017489581" lon="14.6923720238007"><ele>-3.0</ele><time>2026-04-06T13:53:49.872Z</time></trkpt><trkpt lat="53.554555579340004" lon="14.692572936090562"><ele>-3.0</ele><time>2026-04-06T13:53:50.872Z</time></trkpt><trkpt lat="53.55454710686885" lon="14.692771616805327"><ele>-3.0</ele><time>2026-04-06T13:53:51.872Z</time></trkpt><trkpt lat="53.554529458052315" lon="14.692975125374934"><ele>-3.0</ele><time>2026-04-06T13:53:52.872Z</time></trkpt><trkpt lat="53.55450999792344" lon="14.693202404912153"><ele>-2.5</ele><time>2026-04-06T13:53:53.872Z</time></trkpt><trkpt lat="53.55448974970914" lon="14.693390290404862"><ele>-2.0</ele><time>2026-04-06T13:53:54.872Z</time></trkpt><trkpt lat="53.55447762652068" lon="14.693636441472925"><ele>-1.5</ele><time>2026-04-06T13:53:55.872Z</time></trkpt><trkpt lat="53.55447929258461" lon="14.693908253463022"><ele>-1.0</ele><time>2026-04-06T13:53:56.872Z</time></trkpt><trkpt lat="53.55447447245963" lon="14.694200851352644"><ele>-1.0</ele><time>2026-04-06T13:53:57.872Z</time></trkpt><trkpt lat="53.554471382192105" lon="14.694489226580115"><ele>-1.0</ele><time>2026-04-06T13:53:58.872Z</time></trkpt><trkpt lat="53.554470459751464" lon="14.69472317517148"><ele>-1.0</ele><time>2026-04-06T13:53:59.872Z</time></trkpt><trkpt lat="53.55447306819657" lon="14.69498315345968"><ele>-1.3333333333333333</ele><time>2026-04-06T13:54:00.872Z</time></trkpt><trkpt lat="53.554470192475584" lon="14.695257456657137"><ele>-1.6666666666666665</ele><time>2026-04-06T13:54:01.872Z</time></trkpt><trkpt lat="53.5544650096823" lon="14.695497894828708"><ele>-2.0</ele><time>2026-04-06T13:54:02.872Z</time></trkpt><trkpt lat="53.5544578613378" lon="14.695747554793318"><ele>-2.0</ele><time>2026-04-06T13:54:03.872Z</time></trkpt><trkpt lat="53.55445529735907" lon="14.696033838493914"><ele>-2.0</ele><time>2026-04-06T13:54:04.872Z</time></trkpt><trkpt lat="53.55445604665107" lon="14.69629704159533"><ele>-2.0</ele><time>2026-04-06T13:54:05.872Z</time></trkpt><trkpt lat="53.55444811127096" lon="14.696506718917323"><ele>-1.75</ele><time>2026-04-06T13:54:06.872Z</time></trkpt><trkpt lat="53.55445133524519" lon="14.696765477026457"><ele>-1.5</ele><time>2026-04-06T13:54:07.872Z</time></trkpt><trkpt lat="53.55444381714132" lon="14.696990355781663"><ele>-1.25</ele><time>2026-04-06T13:54:08.872Z</time></trkpt><trkpt lat="53.55443815247499" lon="14.697230983725818"><ele>-1.0</ele><time>2026-04-06T13:54:09.872Z</time></trkpt><trkpt lat="53.554433460799395" lon="14.697480149120729"><ele>-1.0</ele><time>2026-04-06T13:54:10.872Z</time></trkpt><trkpt lat="53.55443644621472" lon="14.697754046712493"><ele>-1.0</ele><time>2026-04-06T13:54:11.872Z</time></trkpt><trkpt lat="53.55442600542853" lon="14.697976845836992"><ele>-1.0</ele><time>2026-04-06T13:54:12.872Z</time></trkpt><trkpt lat="53.554421128142046" lon="14.698255222516416"><ele>-1.0</ele><time>2026-04-06T13:54:13.872Z</time></trkpt><trkpt lat="53.554414821143226" lon="14.698479735615567"><ele>-1.0</ele><time>2026-04-06T13:54:14.872Z</time></trkpt><trkpt lat="53.55441516787714" lon="14.698703188790281"><ele>-1.0</ele><time>2026-04-06T13:54:15.872Z</time></trkpt><trkpt lat="53.5544126454221" lon="14.699169798277609"><ele>-1.25</ele><time>2026-04-06T13:54:17.872Z</time></trkpt><trkpt lat="53.554407705293336" lon="14.69946098692741"><ele>-1.5</ele><time>2026-04-06T13:54:19.872Z</time></trkpt><trkpt lat="53.55440399839097" lon="14.699658851610955"><ele>-1.75</ele><time>2026-04-06T13:54:20.872Z</time></trkpt><trkpt lat="53.55439829300697" lon="14.69986656795971"><ele>-2.0</ele><time>2026-04-06T13:54:21.872Z</time></trkpt><trkpt lat="53.55439746369836" lon="14.700078723445575"><ele>-2.25</ele><time>2026-04-06T13:54:22.872Z</time></trkpt><trkpt lat="53.5543967373011" lon="14.700258723692869"><ele>-2.5</ele><time>2026-04-06T13:54:23.872Z</time></trkpt><trkpt lat="53.5543954581109" lon="14.700466974341797"><ele>-2.75</ele><time>2026-04-06T13:54:24.872Z</time></trkpt><trkpt lat="53.55439415180338" lon="14.700664589531542"><ele>-3.0</ele><time>2026-04-06T13:54:25.872Z</time></trkpt><trkpt lat="53.5543899674667" lon="14.7008855737686"><ele>-3.0</ele><time>2026-04-06T13:54:26.872Z</time></trkpt><trkpt lat="53.55438244992079" lon="14.701088608129195"><ele>-3.0</ele><time>2026-04-06T13:54:27.872Z</time></trkpt><trkpt lat="53.55437233434958" lon="14.701288822281052"><ele>-3.0</ele><time>2026-04-06T13:54:28.872Z</time></trkpt><trkpt lat="53.55436914661027" lon="14.701456893171885"><ele>-3.0</ele><time>2026-04-06T13:54:29.87Z</time></trkpt><trkpt lat="53.55436923659829" lon="14.701638413468038"><ele>-3.0</ele><time>2026-04-06T13:54:30.87Z</time></trkpt><trkpt lat="53.55436765945216" lon="14.701828368752574"><ele>-3.0</ele><time>2026-04-06T13:54:31.87Z</time></trkpt><trkpt lat="53.55436902881808" lon="14.701995097823422"><ele>-3.0</ele><time>2026-04-06T13:54:32.87Z</time></trkpt><trkpt lat="53.554368161328036" lon="14.70211040972689"><ele>-3.0</ele><time>2026-04-06T13:54:33.87Z</time></trkpt><trkpt lat="53.55437100208726" lon="14.702330888715112"><ele>-3.0</ele><time>2026-04-06T13:54:35.87Z</time></trkpt><trkpt lat="53.55436773927027" lon="14.702447569490245"><ele>-3.0</ele><time>2026-04-06T13:54:37.87Z</time></trkpt><trkpt lat="53.55434855495933" lon="14.702553006578194"><ele>-3.0</ele><time>2026-04-06T13:54:40.869Z</time></trkpt><trkpt lat="53.55416005196839" lon="14.70259809735924"><ele>-3.0</ele><time>2026-04-06T13:54:41.87Z</time></trkpt><trkpt lat="53.55407038002005" lon="14.702645677950114"><ele>-3.0</ele><time>2026-04-06T13:54:42.87Z</time></trkpt><trkpt lat="53.55393914842277" lon="14.702727965111958"><ele>-3.0</ele><time>2026-04-06T13:54:43.87Z</time></trkpt><trkpt lat="53.553817516397196" lon="14.702801266915143"><ele>-3.0</ele><time>2026-04-06T13:54:44.87Z</time></trkpt><trkpt lat="53.55371466187231" lon="14.702859808436836"><ele>-2.8</ele><time>2026-04-06T13:54:45.87Z</time></trkpt><trkpt lat="53.553623369087674" lon="14.702911431910938"><ele>-2.5999999999999996</ele><time>2026-04-06T13:54:46.87Z</time></trkpt><trkpt lat="53.553530164805565" lon="14.70297257824155"><ele>-2.4000000000000004</ele><time>2026-04-06T13:54:47.87Z</time></trkpt><trkpt lat="53.55343077662773" lon="14.703030260206692"><ele>-2.2</ele><time>2026-04-06T13:54:48.87Z</time></trkpt><trkpt lat="53.55333282514443" lon="14.703086707462997"><ele>-2.0</ele><time>2026-04-06T13:54:49.87Z</time></trkpt><trkpt lat="53.55323593476979" lon="14.703149466620744"><ele>-1.9999999999999998</ele><time>2026-04-06T13:54:50.87Z</time></trkpt><trkpt lat="53.5531465277543" lon="14.703204494844181"><ele>-2.0</ele><time>2026-04-06T13:54:51.87Z</time></trkpt><trkpt lat="53.55306251409428" lon="14.703251497328887"><ele>-2.0</ele><time>2026-04-06T13:54:52.87Z</time></trkpt><trkpt lat="53.5529933833109" lon="14.703296321107025"><ele>-2.0</ele><time>2026-04-06T13:54:53.87Z</time></trkpt><trkpt lat="53.55290098524528" lon="14.703360118693627"><ele>-1.9999999999999998</ele><time>2026-04-06T13:54:55.87Z</time></trkpt><trkpt lat="53.55281873410432" lon="14.70330150964132"><ele>-2.0</ele><time>2026-04-06T13:54:58.87Z</time></trkpt><trkpt lat="53.55273347311434" lon="14.70354944069924"><ele>-2.0</ele><time>2026-04-06T13:55:01.87Z</time></trkpt><trkpt lat="53.55278138076593" lon="14.703697345384393"><ele>-2.0</ele><time>2026-04-06T13:55:02.87Z</time></trkpt><trkpt lat="53.55279848298552" lon="14.703837087712945"><ele>-2.0</ele><time>2026-04-06T13:55:03.87Z</time></trkpt><trkpt lat="53.55281822961073" lon="14.703988731867764"><ele>-2.0</ele><time>2026-04-06T13:55:04.87Z</time></trkpt><trkpt lat="53.55286061412745" lon="14.704190854293518"><ele>-2.0</ele><time>2026-04-06T13:55:05.87Z</time></trkpt><trkpt lat="53.55289039751072" lon="14.704423949970044"><ele>-2.0</ele><time>2026-04-06T13:55:06.87Z</time></trkpt><trkpt lat="53.55291834827449" lon="14.70467948061368"><ele>-2.0</ele><time>2026-04-06T13:55:07.87Z</time></trkpt><trkpt lat="53.552952602751205" lon="14.70494729408695"><ele>-2.0</ele><time>2026-04-06T13:55:08.87Z</time></trkpt><trkpt lat="53.55298564932638" lon="14.705223467209086"><ele>-2.333333333333333</ele><time>2026-04-06T13:55:09.87Z</time></trkpt><trkpt lat="53.55301759593572" lon="14.705483896388916"><ele>-2.6666666666666665</ele><time>2026-04-06T13:55:10.87Z</time></trkpt><trkpt lat="53.55305353542022" lon="14.705766641765678"><ele>-3.0</ele><time>2026-04-06T13:55:11.87Z</time></trkpt><trkpt lat="53.55308902735902" lon="14.706051745129002"><ele>-2.6666666666666665</ele><time>2026-04-06T13:55:12.87Z</time></trkpt><trkpt lat="53.55312471321514" lon="14.706338495095192"><ele>-2.333333333333333</ele><time>2026-04-06T13:55:13.87Z</time></trkpt><trkpt lat="53.55315611625536" lon="14.706615115485251"><ele>-2.0</ele><time>2026-04-06T13:55:14.87Z</time></trkpt><trkpt lat="53.55319189744095" lon="14.70690017933705"><ele>-2.333333333333333</ele><time>2026-04-06T13:55:15.87Z</time></trkpt><trkpt lat="53.55322528370236" lon="14.707163863865471"><ele>-2.6666666666666665</ele><time>2026-04-06T13:55:16.87Z</time></trkpt><trkpt lat="53.553259040737736" lon="14.70742571886999"><ele>-3.0</ele><time>2026-04-06T13:55:17.87Z</time></trkpt><trkpt lat="53.55329391043848" lon="14.707678553082753"><ele>-2.75</ele><time>2026-04-06T13:55:18.87Z</time></trkpt><trkpt lat="53.553320508223585" lon="14.707884694041374"><ele>-2.5</ele><time>2026-04-06T13:55:19.87Z</time></trkpt><trkpt lat="53.553342129627644" lon="14.708076654631613"><ele>-2.25</ele><time>2026-04-06T13:55:20.87Z</time></trkpt><trkpt lat="53.5533503319805" lon="14.708268125504294"><ele>-2.0</ele><time>2026-04-06T13:55:21.87Z</time></trkpt><trkpt lat="53.55334396375552" lon="14.708478960542902"><ele>-2.0</ele><time>2026-04-06T13:55:22.87Z</time></trkpt><trkpt lat="53.553335724337835" lon="14.708714632943687"><ele>-2.0</ele><time>2026-04-06T13:55:23.87Z</time></trkpt><trkpt lat="53.55332245022619" lon="14.70895709407882"><ele>-2.0</ele><time>2026-04-06T13:55:24.87Z</time></trkpt><trkpt lat="53.553303787588085" lon="14.709215181913493"><ele>-2.0</ele><time>2026-04-06T13:55:25.87Z</time></trkpt><trkpt lat="53.553263682604765" lon="14.709446174368203"><ele>-2.0</ele><time>2026-04-06T13:55:26.87Z</time></trkpt><trkpt lat="53.553183848367084" lon="14.709662415802642"><ele>-2.0</ele><time>2026-04-06T13:55:27.87Z</time></trkpt><trkpt lat="53.55310449937565" lon="14.709887831554804"><ele>-2.0</ele><time>2026-04-06T13:55:28.87Z</time></trkpt><trkpt lat="53.553018151093084" lon="14.710124484957383"><ele>-2.0</ele><time>2026-04-06T13:55:29.87Z</time></trkpt><trkpt lat="53.552922260093936" lon="14.71038399992205"><ele>-2.0</ele><time>2026-04-06T13:55:30.87Z</time></trkpt><trkpt lat="53.55283284883352" lon="14.710649725314873"><ele>-2.0</ele><time>2026-04-06T13:55:31.87Z</time></trkpt><trkpt lat="53.552728357988194" lon="14.710914686306936"><ele>-2.0</ele><time>2026-04-06T13:55:32.87Z</time></trkpt><trkpt lat="53.552628570835815" lon="14.711181338089276"><ele>-2.0</ele><time>2026-04-06T13:55:33.87Z</time></trkpt><trkpt lat="53.552534445271206" lon="14.711427957455477"><ele>-2.0</ele><time>2026-04-06T13:55:34.87Z</time></trkpt><trkpt lat="53.55244342216285" lon="14.71167683608958"><ele>-2.0</ele><time>2026-04-06T13:55:35.87Z</time></trkpt><trkpt lat="53.55235301048479" lon="14.711940658297392"><ele>-2.0</ele><time>2026-04-06T13:55:36.87Z</time></trkpt><trkpt lat="53.55226647248991" lon="14.71220299738874"><ele>-2.0</ele><time>2026-04-06T13:55:37.87Z</time></trkpt><trkpt lat="53.55217641426703" lon="14.712472689200464"><ele>-2.0</ele><time>2026-04-06T13:55:38.87Z</time></trkpt><trkpt lat="53.55209514913354" lon="14.71272502635341"><ele>-2.0</ele><time>2026-04-06T13:55:39.87Z</time></trkpt><trkpt lat="53.55200251189465" lon="14.71301061174203"><ele>-2.0</ele><time>2026-04-06T13:55:40.87Z</time></trkpt><trkpt lat="53.55191801540844" lon="14.71326854714143"><ele>-2.0</ele><time>2026-04-06T13:55:41.87Z</time></trkpt><trkpt lat="53.55183253040689" lon="14.713527908487587"><ele>-2.0</ele><time>2026-04-06T13:55:42.87Z</time></trkpt><trkpt lat="53.55174960234765" lon="14.713770275481279"><ele>-2.0</ele><time>2026-04-06T13:55:43.87Z</time></trkpt><trkpt lat="53.551673667612725" lon="14.714016733089684"><ele>-2.0</ele><time>2026-04-06T13:55:44.87Z</time></trkpt><trkpt lat="53.55160054152467" lon="14.714270332840467"><ele>-2.0</ele><time>2026-04-06T13:55:45.87Z</time></trkpt><trkpt lat="53.55152906545431" lon="14.714563601664864"><ele>-2.0</ele><time>2026-04-06T13:55:46.87Z</time></trkpt><trkpt lat="53.551460133843946" lon="14.71483411198045"><ele>-2.0</ele><time>2026-04-06T13:55:47.87Z</time></trkpt><trkpt lat="53.55139119896781" lon="14.715095167581751"><ele>-2.0</ele><time>2026-04-06T13:55:48.87Z</time></trkpt><trkpt lat="53.551324262792235" lon="14.715344082633692"><ele>-2.0</ele><time>2026-04-06T13:55:49.87Z</time></trkpt><trkpt lat="53.55126682204781" lon="14.71555857697349"><ele>-2.0</ele><time>2026-04-06T13:55:50.87Z</time></trkpt><trkpt lat="53.55121189504471" lon="14.71576721723112"><ele>-2.0</ele><time>2026-04-06T13:55:51.87Z</time></trkpt><trkpt lat="53.551196262887" lon="14.715966047771559"><ele>-2.0</ele><time>2026-04-06T13:55:52.87Z</time></trkpt><trkpt lat="53.55118732319197" lon="14.716139196865631"><ele>-2.0</ele><time>2026-04-06T13:55:53.87Z</time></trkpt><trkpt lat="53.55117558038339" lon="14.716343903124118"><ele>-2.0</ele><time>2026-04-06T13:55:54.87Z</time></trkpt><trkpt lat="53.55118931426891" lon="14.716547096640074"><ele>-2.0</ele><time>2026-04-06T13:55:55.87Z</time></trkpt><trkpt lat="53.55123331060715" lon="14.716752798299046"><ele>-2.0</ele><time>2026-04-06T13:55:56.87Z</time></trkpt><trkpt lat="53.55125574430352" lon="14.716975990528427"><ele>-2.0</ele><time>2026-04-06T13:55:57.87Z</time></trkpt><trkpt lat="53.55128432866386" lon="14.717212305332884"><ele>-2.0</ele><time>2026-04-06T13:55:58.87Z</time></trkpt><trkpt lat="53.551327105819695" lon="14.717439849956113"><ele>-2.0</ele><time>2026-04-06T13:55:59.87Z</time></trkpt><trkpt lat="53.551357349283016" lon="14.717659373714014"><ele>-2.0</ele><time>2026-04-06T13:56:00.87Z</time></trkpt><trkpt lat="53.5513815169573" lon="14.71787966681821"><ele>-2.0</ele><time>2026-04-06T13:56:01.87Z</time></trkpt><trkpt lat="53.551438950649015" lon="14.718112636907764"><ele>-2.0</ele><time>2026-04-06T13:56:02.87Z</time></trkpt><trkpt lat="53.55149457431783" lon="14.718349089004072"><ele>-2.0</ele><time>2026-04-06T13:56:03.87Z</time></trkpt><trkpt lat="53.551548232665574" lon="14.718604719638257"><ele>-2.0</ele><time>2026-04-06T13:56:04.87Z</time></trkpt><trkpt lat="53.55161105147751" lon="14.718871029369334"><ele>-2.0</ele><time>2026-04-06T13:56:05.87Z</time></trkpt><trkpt lat="53.55166056065798" lon="14.719108021469228"><ele>-2.0</ele><time>2026-04-06T13:56:06.87Z</time></trkpt><trkpt lat="53.55170838197782" lon="14.719348890860681"><ele>-2.0</ele><time>2026-04-06T13:56:07.87Z</time></trkpt><trkpt lat="53.551752100204624" lon="14.71954992858968"><ele>-2.0</ele><time>2026-04-06T13:56:08.87Z</time></trkpt><trkpt lat="53.55179471914323" lon="14.719736891101078"><ele>-2.0</ele><time>2026-04-06T13:56:09.87Z</time></trkpt><trkpt lat="53.55184376940353" lon="14.719928701548291"><ele>-2.0</ele><time>2026-04-06T13:56:10.87Z</time></trkpt><trkpt lat="53.551886397501896" lon="14.72013627535663"><ele>-2.0</ele><time>2026-04-06T13:56:11.87Z</time></trkpt><trkpt lat="53.55193519052673" lon="14.72035341842314"><ele>-2.0</ele><time>2026-04-06T13:56:12.87Z</time></trkpt><trkpt lat="53.55196244504529" lon="14.720567854127907"><ele>-2.0</ele><time>2026-04-06T13:56:13.87Z</time></trkpt><trkpt lat="53.55201313976051" lon="14.720750519909148"><ele>-2.0</ele><time>2026-04-06T13:56:14.87Z</time></trkpt><trkpt lat="53.552046746671856" lon="14.720931920455211"><ele>-2.0</ele><time>2026-04-06T13:56:15.87Z</time></trkpt><trkpt lat="53.552082810460746" lon="14.721108279823886"><ele>-2.0</ele><time>2026-04-06T13:56:16.87Z</time></trkpt><trkpt lat="53.55212872480475" lon="14.721299087108077"><ele>-2.0</ele><time>2026-04-06T13:56:17.87Z</time></trkpt><trkpt lat="53.5521696283477" lon="14.721483396797522"><ele>-2.0</ele><time>2026-04-06T13:56:18.87Z</time></trkpt><trkpt lat="53.5522141022518" lon="14.721654203939886"><ele>-2.0</ele><time>2026-04-06T13:56:19.87Z</time></trkpt><trkpt lat="53.55225567632426" lon="14.721804884334677"><ele>-2.0</ele><time>2026-04-06T13:56:20.87Z</time></trkpt><trkpt lat="53.552299937434654" lon="14.72195974773542"><ele>-2.0</ele><time>2026-04-06T13:56:21.87Z</time></trkpt><trkpt lat="53.552353607304966" lon="14.722141670132062"><ele>-2.0</ele><time>2026-04-06T13:56:22.87Z</time></trkpt><trkpt lat="53.55241361619787" lon="14.722339901526256"><ele>-2.0</ele><time>2026-04-06T13:56:23.87Z</time></trkpt><trkpt lat="53.55248001936525" lon="14.722560401457816"><ele>-2.0</ele><time>2026-04-06T13:56:24.87Z</time></trkpt><trkpt lat="53.552542804133886" lon="14.722774582047581"><ele>-2.0</ele><time>2026-04-06T13:56:25.87Z</time></trkpt><trkpt lat="53.55260353385126" lon="14.722990785812808"><ele>-2.0</ele><time>2026-04-06T13:56:26.87Z</time></trkpt><trkpt lat="53.552663431045836" lon="14.72319153060674"><ele>-2.0</ele><time>2026-04-06T13:56:27.87Z</time></trkpt><trkpt lat="53.55271605466601" lon="14.723353832201443"><ele>-2.0</ele><time>2026-04-06T13:56:28.87Z</time></trkpt><trkpt lat="53.552756956978" lon="14.723483033041052"><ele>-2.0</ele><time>2026-04-06T13:56:29.87Z</time></trkpt><trkpt lat="53.55277142493354" lon="14.723594024874618"><ele>-2.0</ele><time>2026-04-06T13:56:30.87Z</time></trkpt><trkpt lat="53.55278358542556" lon="14.72371117546747"><ele>-2.0</ele><time>2026-04-06T13:56:52.867Z</time></trkpt><trkpt lat="53.55278900754561" lon="14.723819636160146"><ele>-2.0</ele><time>2026-04-06T13:56:54.867Z</time></trkpt><trkpt lat="53.552925565891584" lon="14.724045891912303"><ele>-2.0</ele><time>2026-04-06T13:56:56.867Z</time></trkpt><trkpt lat="53.55297397180613" lon="14.72419992266935"><ele>-2.0</ele><time>2026-04-06T13:56:57.867Z</time></trkpt><trkpt lat="53.55303297909291" lon="14.724389330118681"><ele>-2.0</ele><time>2026-04-06T13:56:58.867Z</time></trkpt><trkpt lat="53.55309103764727" lon="14.724562267147082"><ele>-2.0</ele><time>2026-04-06T13:56:59.867Z</time></trkpt><trkpt lat="53.553139209644534" lon="14.72472139346766"><ele>-2.0</ele><time>2026-04-06T13:57:00.867Z</time></trkpt><trkpt lat="53.55318540162023" lon="14.724885947142042"><ele>-2.0</ele><time>2026-04-06T13:57:01.867Z</time></trkpt><trkpt lat="53.553232655789294" lon="14.725044261873297"><ele>-2.0</ele><time>2026-04-06T13:57:02.867Z</time></trkpt><trkpt lat="53.553284733412845" lon="14.725222824278855"><ele>-2.0</ele><time>2026-04-06T13:57:03.867Z</time></trkpt><trkpt lat="53.55333718045879" lon="14.725392423403106"><ele>-2.0</ele><time>2026-04-06T13:57:04.867Z</time></trkpt><trkpt lat="53.55338324751498" lon="14.725550404913703"><ele>-2.0</ele><time>2026-04-06T13:57:05.867Z</time></trkpt><trkpt lat="53.55341874250544" lon="14.725694036143349"><ele>-2.0</ele><time>2026-04-06T13:57:06.867Z</time></trkpt><trkpt lat="53.553448514643954" lon="14.725822729007321"><ele>-2.0</ele><time>2026-04-06T13:57:07.867Z</time></trkpt><trkpt lat="53.55347230955241" lon="14.725930195216181"><ele>-2.1666666666666665</ele><time>2026-04-06T13:57:08.867Z</time></trkpt><trkpt lat="53.55349203057076" lon="14.726069747142688"><ele>-2.333333333333333</ele><time>2026-04-06T13:57:10.867Z</time></trkpt><trkpt lat="53.55349718482617" lon="14.726190059710158"><ele>-2.5</ele><time>2026-04-06T13:57:12.867Z</time></trkpt><trkpt lat="53.55351192683216" lon="14.72631065594301"><ele>-2.6666666666666665</ele><time>2026-04-06T13:57:14.867Z</time></trkpt><trkpt lat="53.55351774180071" lon="14.726464525627938"><ele>-2.8333333333333335</ele><time>2026-04-06T13:57:16.867Z</time></trkpt><trkpt lat="53.55352570208657" lon="14.726577731681546"><ele>-3.0</ele><time>2026-04-06T13:57:18.867Z</time></trkpt><trkpt lat="53.55351819707669" lon="14.726724634909772"><ele>-2.8</ele><time>2026-04-06T13:57:20.867Z</time></trkpt><trkpt lat="53.553516355285154" lon="14.726904740122546"><ele>-2.5999999999999996</ele><time>2026-04-06T13:57:22.867Z</time></trkpt><trkpt lat="53.55351432315976" lon="14.72702394050035"><ele>-2.4000000000000004</ele><time>2026-04-06T13:57:24.867Z</time></trkpt><trkpt lat="53.55352408298263" lon="14.727241325656975"><ele>-2.2</ele><time>2026-04-06T13:57:26.867Z</time></trkpt><trkpt lat="53.55351423080672" lon="14.727367787271154"><ele>-2.0</ele><time>2026-04-06T13:57:27.867Z</time></trkpt><trkpt lat="53.553508750597835" lon="14.727495911295001"><ele>-2.0</ele><time>2026-04-06T13:57:28.867Z</time></trkpt><trkpt lat="53.55349504614052" lon="14.727668039794823"><ele>-2.0</ele><time>2026-04-06T13:57:30.867Z</time></trkpt><trkpt lat="53.55348545872971" lon="14.72788542635027"><ele>-2.0</ele><time>2026-04-06T13:57:32.867Z</time></trkpt><trkpt lat="53.553469760539016" lon="14.72807750700382"><ele>-2.0</ele><time>2026-04-06T13:57:34.867Z</time></trkpt><trkpt lat="53.553449522756964" lon="14.728209844933398"><ele>-2.0</ele><time>2026-04-06T13:57:36.867Z</time></trkpt><trkpt lat="53.553437907446984" lon="14.72838480348686"><ele>-2.0</ele><time>2026-04-06T13:57:38.867Z</time></trkpt><trkpt lat="53.55343267696489" lon="14.72852752823758"><ele>-2.0</ele><time>2026-04-06T13:57:40.867Z</time></trkpt><trkpt lat="53.55340485556953" lon="14.728662912999498"><ele>-2.0</ele><time>2026-04-06T13:57:42.867Z</time></trkpt><trkpt lat="53.5533989145643" lon="14.72881878938204"><ele>-2.0</ele><time>2026-04-06T13:57:44.867Z</time></trkpt><trkpt lat="53.55338692258707" lon="14.728956554150313"><ele>-2.0</ele><time>2026-04-06T13:57:46.867Z</time></trkpt><trkpt lat="53.55337401300889" lon="14.729131830661146"><ele>-2.0</ele><time>2026-04-06T13:57:48.867Z</time></trkpt><trkpt lat="53.553383277281036" lon="14.729260118055835"><ele>-2.0</ele><time>2026-04-06T13:57:50.867Z</time></trkpt><trkpt lat="53.55343245351617" lon="14.729366404306367"><ele>-2.0</ele><time>2026-04-06T13:57:52.867Z</time></trkpt><trkpt lat="53.55351284308975" lon="14.729471182655274"><ele>-2.0</ele><time>2026-04-06T13:57:54.867Z</time></trkpt><trkpt lat="53.553531658955" lon="14.729611805151764"><ele>-2.0</ele><time>2026-04-06T13:57:56.867Z</time></trkpt><trkpt lat="53.55350601447862" lon="14.729802980643802"><ele>-1.75</ele><time>2026-04-06T13:57:58.867Z</time></trkpt><trkpt lat="53.553483591091265" lon="14.730002864742534"><ele>-1.5</ele><time>2026-04-06T13:58:00.867Z</time></trkpt><trkpt lat="53.553475423156094" lon="14.730235803216154"><ele>-1.25</ele><time>2026-04-06T13:58:02.867Z</time></trkpt><trkpt lat="53.553471679544245" lon="14.730476232522648"><ele>-1.0</ele><time>2026-04-06T13:58:04.867Z</time></trkpt><trkpt lat="53.553478125331424" lon="14.730601212304808"><ele>-1.0</ele><time>2026-04-06T13:58:05.867Z</time></trkpt><trkpt lat="53.55348462727302" lon="14.730774909469163"><ele>-1.0</ele><time>2026-04-06T13:58:06.867Z</time></trkpt><trkpt lat="53.55350429572167" lon="14.730910042656276"><ele>-1.0</ele><time>2026-04-06T13:58:07.867Z</time></trkpt><trkpt lat="53.553514340673594" lon="14.73107357427898"><ele>-1.0</ele><time>2026-04-06T13:58:08.867Z</time></trkpt><trkpt lat="53.553532501042845" lon="14.731218182861545"><ele>-1.0</ele><time>2026-04-06T13:58:09.867Z</time></trkpt><trkpt lat="53.553555684624186" lon="14.73138519265826"><ele>-1.0</ele><time>2026-04-06T13:58:10.867Z</time></trkpt><trkpt lat="53.55358299052491" lon="14.731554129447682"><ele>-1.0</ele><time>2026-04-06T13:58:11.867Z</time></trkpt><trkpt lat="53.55360964284393" lon="14.731686438923644"><ele>-1.0</ele><time>2026-04-06T13:58:12.867Z</time></trkpt><trkpt lat="53.553642050837055" lon="14.731829465742441"><ele>-1.0</ele><time>2026-04-06T13:58:13.867Z</time></trkpt><trkpt lat="53.55367544485653" lon="14.731988714836922"><ele>-1.0</ele><time>2026-04-06T13:58:14.867Z</time></trkpt><trkpt lat="53.55371010232232" lon="14.732138155969338"><ele>-0.8</ele><time>2026-04-06T13:58:15.867Z</time></trkpt><trkpt lat="53.55373381527387" lon="14.732360684607553"><ele>-0.6000000000000001</ele><time>2026-04-06T13:58:16.867Z</time></trkpt><trkpt lat="53.553766661365" lon="14.73256616904642"><ele>-0.4</ele><time>2026-04-06T13:58:17.867Z</time></trkpt><trkpt lat="53.55382994113109" lon="14.7325496972768"><ele>-0.2</ele><time>2026-04-06T13:58:18.867Z</time></trkpt><trkpt lat="53.553873012443376" lon="14.732627355373323"><ele>0.0</ele><time>2026-04-06T13:58:19.867Z</time></trkpt><trkpt lat="53.5539249674135" lon="14.732712574170154"><ele>-0.2</ele><time>2026-04-06T13:58:20.867Z</time></trkpt><trkpt lat="53.55397529918839" lon="14.732879684761178"><ele>-0.4</ele><time>2026-04-06T13:58:21.867Z</time></trkpt><trkpt lat="53.554026709748115" lon="14.73303887851579"><ele>-0.6000000000000001</ele><time>2026-04-06T13:58:22.867Z</time></trkpt><trkpt lat="53.554072310389" lon="14.733152640463645"><ele>-0.8</ele><time>2026-04-06T13:58:23.867Z</time></trkpt><trkpt lat="53.554128924100034" lon="14.733279580564185"><ele>-1.0</ele><time>2026-04-06T13:58:24.867Z</time></trkpt><trkpt lat="53.55418717663539" lon="14.733393108189668"><ele>-1.0</ele><time>2026-04-06T13:58:25.867Z</time></trkpt><trkpt lat="53.554238444946535" lon="14.733486532017391"><ele>-1.0</ele><time>2026-04-06T13:58:26.867Z</time></trkpt><trkpt lat="53.55429525615565" lon="14.733606370552078"><ele>-1.0</ele><time>2026-04-06T13:58:27.867Z</time></trkpt><trkpt lat="53.55436329480718" lon="14.733744659919807"><ele>-1.0</ele><time>2026-04-06T13:58:28.867Z</time></trkpt><trkpt lat="53.554435347547084" lon="14.733876051090746"><ele>-1.0</ele><time>2026-04-06T13:58:29.867Z</time></trkpt><trkpt lat="53.55450747733017" lon="14.734042381513465"><ele>-1.3333333333333333</ele><time>2026-04-06T13:58:30.867Z</time></trkpt><trkpt lat="53.55457683481702" lon="14.734190304432824"><ele>-1.6666666666666665</ele><time>2026-04-06T13:58:31.867Z</time></trkpt><trkpt lat="53.554628705891595" lon="14.734294212608777"><ele>-2.0</ele><time>2026-04-06T13:58:32.867Z</time></trkpt><trkpt lat="53.554675540222156" lon="14.73439968459894"><ele>-2.3333333333333335</ele><time>2026-04-06T13:58:33.867Z</time></trkpt><trkpt lat="53.55473312388509" lon="14.734510139240596"><ele>-2.6666666666666665</ele><time>2026-04-06T13:58:34.867Z</time></trkpt><trkpt lat="53.5547843463029" lon="14.734609479169762"><ele>-3.0</ele><time>2026-04-06T13:58:35.867Z</time></trkpt><trkpt lat="53.55482163603303" lon="14.73471496183413"><ele>-3.0</ele><time>2026-04-06T13:58:36.867Z</time></trkpt><trkpt lat="53.554900160600056" lon="14.734877567045842"><ele>-3.0</ele><time>2026-04-06T13:58:37.867Z</time></trkpt><trkpt lat="53.554961237287" lon="14.735025783335734"><ele>-3.0</ele><time>2026-04-06T13:58:38.867Z</time></trkpt><trkpt lat="53.5550137713955" lon="14.735169420787981"><ele>-3.0</ele><time>2026-04-06T13:58:39.867Z</time></trkpt><trkpt lat="53.55506803585146" lon="14.73533280219224"><ele>-3.0</ele><time>2026-04-06T13:58:40.867Z</time></trkpt><trkpt lat="53.55512462344975" lon="14.7354514310146"><ele>-2.8</ele><time>2026-04-06T13:58:41.865Z</time></trkpt><trkpt lat="53.55516544000189" lon="14.735559956525545"><ele>-2.5999999999999996</ele><time>2026-04-06T13:58:42.865Z</time></trkpt><trkpt lat="53.55521318163037" lon="14.735680492747676"><ele>-2.4000000000000004</ele><time>2026-04-06T13:58:43.865Z</time></trkpt><trkpt lat="53.5552683113941" lon="14.735820809060153"><ele>-2.2</ele><time>2026-04-06T13:58:44.865Z</time></trkpt><trkpt lat="53.55532974407243" lon="14.73599002333324"><ele>-2.0</ele><time>2026-04-06T13:58:45.865Z</time></trkpt><trkpt lat="53.5553905830644" lon="14.736172153838712"><ele>-2.0</ele><time>2026-04-06T13:58:46.865Z</time></trkpt><trkpt lat="53.55543819602252" lon="14.736309831390432"><ele>-2.0</ele><time>2026-04-06T13:58:47.865Z</time></trkpt><trkpt lat="53.55550430734454" lon="14.736499481268197"><ele>-2.0</ele><time>2026-04-06T13:58:48.865Z</time></trkpt><trkpt lat="53.555555668407365" lon="14.736657342198884"><ele>-2.0</ele><time>2026-04-06T13:58:49.865Z</time></trkpt><trkpt lat="53.555606002106046" lon="14.736821248220902"><ele>-2.0</ele><time>2026-04-06T13:58:50.865Z</time></trkpt><trkpt lat="53.55565537170712" lon="14.736991414624637"><ele>-1.75</ele><time>2026-04-06T13:58:51.865Z</time></trkpt><trkpt lat="53.55570680375352" lon="14.73717994235558"><ele>-1.5</ele><time>2026-04-06T13:58:52.865Z</time></trkpt><trkpt lat="53.55575342066254" lon="14.737347278825007"><ele>-1.25</ele><time>2026-04-06T13:58:53.865Z</time></trkpt><trkpt lat="53.555811723286254" lon="14.737527723160264"><ele>-1.0</ele><time>2026-04-06T13:58:54.864Z</time></trkpt><trkpt lat="53.555859325074394" lon="14.737699915043915"><ele>-1.0</ele><time>2026-04-06T13:58:55.864Z</time></trkpt><trkpt lat="53.5559062390556" lon="14.73789007407594"><ele>-1.0</ele><time>2026-04-06T13:58:56.864Z</time></trkpt><trkpt lat="53.5559492884546" lon="14.738077845958209"><ele>-1.0</ele><time>2026-04-06T13:58:57.864Z</time></trkpt><trkpt lat="53.55598010234" lon="14.73822695323151"><ele>-1.0</ele><time>2026-04-06T13:58:58.864Z</time></trkpt><trkpt lat="53.55602093636163" lon="14.738426934142838"><ele>-1.0</ele><time>2026-04-06T13:58:59.864Z</time></trkpt><trkpt lat="53.55606430494317" lon="14.7385998398739"><ele>-1.0</ele><time>2026-04-06T13:59:00.864Z</time></trkpt><trkpt lat="53.55610459479975" lon="14.73878838749383"><ele>-1.0</ele><time>2026-04-06T13:59:01.864Z</time></trkpt><trkpt lat="53.5561359443159" lon="14.738955855807072"><ele>-1.0</ele><time>2026-04-06T13:59:02.864Z</time></trkpt><trkpt lat="53.55616326377692" lon="14.739139797675877"><ele>-1.0</ele><time>2026-04-06T13:59:03.864Z</time></trkpt><trkpt lat="53.55620311510218" lon="14.739342033161009"><ele>-1.0</ele><time>2026-04-06T13:59:04.864Z</time></trkpt><trkpt lat="53.5562205820683" lon="14.73951439919288"><ele>-1.0</ele><time>2026-04-06T13:59:05.864Z</time></trkpt><trkpt lat="53.556244465232965" lon="14.739692000066027"><ele>-1.0</ele><time>2026-04-06T13:59:06.864Z</time></trkpt><trkpt lat="53.556275856533254" lon="14.739856038215999"><ele>-1.0</ele><time>2026-04-06T13:59:07.864Z</time></trkpt><trkpt lat="53.5563128200444" lon="14.740023086965838"><ele>-1.0</ele><time>2026-04-06T13:59:08.864Z</time></trkpt><trkpt lat="53.556327879413786" lon="14.740167826689634"><ele>-0.8</ele><time>2026-04-06T13:59:09.864Z</time></trkpt><trkpt lat="53.5563555426069" lon="14.740359525007692"><ele>-0.6000000000000001</ele><time>2026-04-06T13:59:10.864Z</time></trkpt><trkpt lat="53.556380804406444" lon="14.740536657397483"><ele>-0.4</ele><time>2026-04-06T13:59:11.864Z</time></trkpt><trkpt lat="53.556412855621645" lon="14.740718433386927"><ele>-0.2</ele><time>2026-04-06T13:59:12.864Z</time></trkpt><trkpt lat="53.55643658798579" lon="14.740872008548061"><ele>0.0</ele><time>2026-04-06T13:59:13.864Z</time></trkpt><trkpt lat="53.55647755138506" lon="14.741043664434597"><ele>0.2</ele><time>2026-04-06T13:59:14.864Z</time></trkpt><trkpt lat="53.556507647195694" lon="14.741216857917971"><ele>0.4</ele><time>2026-04-06T13:59:15.864Z</time></trkpt><trkpt lat="53.55652521157244" lon="14.74136933015804"><ele>0.6000000000000001</ele><time>2026-04-06T13:59:16.864Z</time></trkpt><trkpt lat="53.55654924901857" lon="14.741557820908671"><ele>0.8</ele><time>2026-04-06T13:59:17.864Z</time></trkpt><trkpt lat="53.55658454258801" lon="14.741745797352117"><ele>1.0</ele><time>2026-04-06T13:59:18.864Z</time></trkpt><trkpt lat="53.556628816891575" lon="14.741912797039863"><ele>1.0</ele><time>2026-04-06T13:59:19.864Z</time></trkpt><trkpt lat="53.55669541589035" lon="14.742079347707236"><ele>1.0</ele><time>2026-04-06T13:59:20.864Z</time></trkpt><trkpt lat="53.55673047992558" lon="14.742284054217844"><ele>1.0</ele><time>2026-04-06T13:59:22.864Z</time></trkpt><trkpt lat="53.55678272572054" lon="14.742424165883184"><ele>1.0</ele><time>2026-04-06T13:59:23.864Z</time></trkpt><trkpt lat="53.556829546060186" lon="14.742556976064305"><ele>1.0</ele><time>2026-04-06T13:59:24.864Z</time></trkpt><trkpt lat="53.55685842882989" lon="14.742656896712926"><ele>0.8333333333333333</ele><time>2026-04-06T13:59:25.864Z</time></trkpt><trkpt lat="53.55690163598623" lon="14.742757643641625"><ele>0.6666666666666666</ele><time>2026-04-06T13:59:26.864Z</time></trkpt><trkpt lat="53.55694687798185" lon="14.742851488262296"><ele>0.5</ele><time>2026-04-06T13:59:27.864Z</time></trkpt><trkpt lat="53.5570051182039" lon="14.742950078004393"><ele>0.3333333333333333</ele><time>2026-04-06T13:59:28.864Z</time></trkpt><trkpt lat="53.55706881476952" lon="14.743064532185462"><ele>0.16666666666666666</ele><time>2026-04-06T13:59:29.864Z</time></trkpt><trkpt lat="53.55712657273826" lon="14.743152507181701"><ele>0.0</ele><time>2026-04-06T13:59:30.864Z</time></trkpt><trkpt lat="53.557184326483295" lon="14.743242833059925"><ele>0.0</ele><time>2026-04-06T13:59:31.864Z</time></trkpt><trkpt lat="53.55723266653284" lon="14.743366029099535"><ele>0.0</ele><time>2026-04-06T13:59:32.864Z</time></trkpt><trkpt lat="53.557305418986736" lon="14.743481710655686"><ele>0.0</ele><time>2026-04-06T13:59:33.864Z</time></trkpt><trkpt lat="53.5573826837254" lon="14.743593583854016"><ele>0.0</ele><time>2026-04-06T13:59:34.864Z</time></trkpt><trkpt lat="53.55745336137792" lon="14.743694858758628"><ele>0.0</ele><time>2026-04-06T13:59:35.864Z</time></trkpt><trkpt lat="53.557479025327375" lon="14.743805443665021"><ele>-0.2</ele><time>2026-04-06T13:59:36.864Z</time></trkpt><trkpt lat="53.55759283535634" lon="14.743826580875863"><ele>-0.4</ele><time>2026-04-06T13:59:37.864Z</time></trkpt><trkpt lat="53.55767679993834" lon="14.743917183002292"><ele>-0.6000000000000001</ele><time>2026-04-06T13:59:38.864Z</time></trkpt><trkpt lat="53.55777147392976" lon="14.744027826121808"><ele>-0.8</ele><time>2026-04-06T13:59:39.864Z</time></trkpt><trkpt lat="53.55786544886038" lon="14.744142804601864"><ele>-1.0</ele><time>2026-04-06T13:59:40.864Z</time></trkpt><trkpt lat="53.55795865231378" lon="14.744253554802874"><ele>-1.0</ele><time>2026-04-06T13:59:41.864Z</time></trkpt><trkpt lat="53.55805315596141" lon="14.744368510062966"><ele>-1.0</ele><time>2026-04-06T13:59:42.864Z</time></trkpt><trkpt lat="53.558147643003046" lon="14.744479623892946"><ele>-1.0</ele><time>2026-04-06T13:59:43.864Z</time></trkpt><trkpt lat="53.558238929149056" lon="14.744592716961952"><ele>-1.0</ele><time>2026-04-06T13:59:44.864Z</time></trkpt><trkpt lat="53.55832607126953" lon="14.744699893970626"><ele>-1.0</ele><time>2026-04-06T13:59:45.864Z</time></trkpt><trkpt lat="53.55840632955493" lon="14.744803201785626"><ele>-1.0</ele><time>2026-04-06T13:59:46.864Z</time></trkpt><trkpt lat="53.55848485411116" lon="14.744897691203228"><ele>-1.0</ele><time>2026-04-06T13:59:47.864Z</time></trkpt><trkpt lat="53.55857171449908" lon="14.745007868945056"><ele>-1.0</ele><time>2026-04-06T13:59:48.864Z</time></trkpt><trkpt lat="53.55866564672726" lon="14.745130533640596"><ele>-1.0</ele><time>2026-04-06T13:59:49.864Z</time></trkpt><trkpt lat="53.558756581752235" lon="14.745249908004588"><ele>-1.0</ele><time>2026-04-06T13:59:50.864Z</time></trkpt><trkpt lat="53.55885148529472" lon="14.745358974808118"><ele>-1.0</ele><time>2026-04-06T13:59:51.864Z</time></trkpt><trkpt lat="53.55894998987923" lon="14.745479028112083"><ele>-1.0</ele><time>2026-04-06T13:59:52.864Z</time></trkpt><trkpt lat="53.55904691707256" lon="14.745603378196565"><ele>-1.0</ele><time>2026-04-06T13:59:53.864Z</time></trkpt><trkpt lat="53.559146607879896" lon="14.745730791757223"><ele>-1.0</ele><time>2026-04-06T13:59:54.864Z</time></trkpt><trkpt lat="53.559241796604915" lon="14.745856093619013"><ele>-1.0</ele><time>2026-04-06T13:59:55.864Z</time></trkpt><trkpt lat="53.55933424659385" lon="14.745972027198048"><ele>-1.0</ele><time>2026-04-06T13:59:56.864Z</time></trkpt><trkpt lat="53.55942716370816" lon="14.746089767965817"><ele>-1.0</ele><time>2026-04-06T13:59:57.864Z</time></trkpt><trkpt lat="53.55951478202486" lon="14.746202394764543"><ele>-0.75</ele><time>2026-04-06T13:59:58.864Z</time></trkpt><trkpt lat="53.55960258044129" lon="14.746324055865827"><ele>-0.5</ele><time>2026-04-06T13:59:59.864Z</time></trkpt><trkpt lat="53.55969148610461" lon="14.746459647696575"><ele>-0.25</ele><time>2026-04-06T14:00:00.864Z</time></trkpt><trkpt lat="53.55978132162525" lon="14.74659442647574"><ele>0.0</ele><time>2026-04-06T14:00:01.864Z</time></trkpt><trkpt lat="53.55986607821015" lon="14.746683423431518"><ele>0.0</ele><time>2026-04-06T14:00:02.864Z</time></trkpt><trkpt lat="53.5599488048652" lon="14.746824806946648"><ele>0.0</ele><time>2026-04-06T14:00:03.864Z</time></trkpt><trkpt lat="53.56004343628285" lon="14.746961554924907"><ele>0.0</ele><time>2026-04-06T14:00:04.864Z</time></trkpt><trkpt lat="53.56010894756669" lon="14.747097814093904"><ele>0.0</ele><time>2026-04-06T14:00:05.864Z</time></trkpt><trkpt lat="53.56016676722647" lon="14.747241949541587"><ele>0.0</ele><time>2026-04-06T14:00:06.864Z</time></trkpt><trkpt lat="53.56021001173448" lon="14.747429866301406"><ele>0.0</ele><time>2026-04-06T14:00:07.864Z</time></trkpt><trkpt lat="53.56024211152995" lon="14.747636908967449"><ele>0.0</ele><time>2026-04-06T14:00:08.864Z</time></trkpt><trkpt lat="53.560251640497555" lon="14.747855372291422"><ele>0.0</ele><time>2026-04-06T14:00:09.864Z</time></trkpt><trkpt lat="53.56024072243393" lon="14.748079449185546"><ele>0.0</ele><time>2026-04-06T14:00:10.864Z</time></trkpt><trkpt lat="53.56020481120816" lon="14.748302208829315"><ele>0.0</ele><time>2026-04-06T14:00:11.864Z</time></trkpt><trkpt lat="53.56017416315296" lon="14.748515907480469"><ele>0.0</ele><time>2026-04-06T14:00:12.864Z</time></trkpt><trkpt lat="53.56016028797713" lon="14.748733625788361"><ele>0.0</ele><time>2026-04-06T14:00:13.864Z</time></trkpt><trkpt lat="53.56015366249033" lon="14.748930579095951"><ele>0.16666666666666666</ele><time>2026-04-06T14:00:14.864Z</time></trkpt><trkpt lat="53.56013645085428" lon="14.749094427453302"><ele>0.3333333333333333</ele><time>2026-04-06T14:00:15.864Z</time></trkpt><trkpt lat="53.56012768910265" lon="14.749247219905817"><ele>0.5</ele><time>2026-04-06T14:00:16.864Z</time></trkpt><trkpt lat="53.5601017844653" lon="14.749375977638124"><ele>0.6666666666666666</ele><time>2026-04-06T14:00:17.864Z</time></trkpt><trkpt lat="53.56009742304649" lon="14.74948918153252"><ele>0.8333333333333333</ele><time>2026-04-06T14:00:18.864Z</time></trkpt><trkpt lat="53.560104053470255" lon="14.749602380896091"><ele>1.0</ele><time>2026-04-06T14:00:19.864Z</time></trkpt><trkpt lat="53.560099157709075" lon="14.74971116823932"><ele>1.6</ele><time>2026-04-06T14:00:20.864Z</time></trkpt><trkpt lat="53.56011040235886" lon="14.749872999770805"><ele>2.2</ele><time>2026-04-06T14:00:21.864Z</time></trkpt><trkpt lat="53.56011890282656" lon="14.750029079271195"><ele>2.8000000000000003</ele><time>2026-04-06T14:00:22.864Z</time></trkpt><trkpt lat="53.56010288503935" lon="14.750167225572346"><ele>3.4000000000000004</ele><time>2026-04-06T14:00:23.864Z</time></trkpt><trkpt lat="53.56009073570769" lon="14.750318470942183"><ele>4.0</ele><time>2026-04-06T14:00:25.864Z</time></trkpt><trkpt lat="53.56008939188581" lon="14.7504717059902"><ele>5.2</ele><time>2026-04-06T14:00:33.864Z</time></trkpt><trkpt lat="53.560075732570304" lon="14.75062642311757"><ele>6.4</ele><time>2026-04-06T14:00:34.864Z</time></trkpt><trkpt lat="53.56007000238406" lon="14.750771266223285"><ele>7.6</ele><time>2026-04-06T14:00:35.864Z</time></trkpt><trkpt lat="53.56005875537625" lon="14.750912174579932"><ele>8.8</ele><time>2026-04-06T14:00:36.864Z</time></trkpt><trkpt lat="53.56004201884456" lon="14.751061879208352"><ele>10.0</ele><time>2026-04-06T14:00:37.864Z</time></trkpt><trkpt lat="53.5600480904976" lon="14.751267244503241"><ele>10.666666666666668</ele><time>2026-04-06T14:00:38.864Z</time></trkpt><trkpt lat="53.56004362903627" lon="14.751544496886153"><ele>11.333333333333334</ele><time>2026-04-06T14:00:39.864Z</time></trkpt><trkpt lat="53.560056581025094" lon="14.751801243696203"><ele>12.0</ele><time>2026-04-06T14:00:40.864Z</time></trkpt><trkpt lat="53.5600681153399" lon="14.752043052710485"><ele>12.0</ele><time>2026-04-06T14:00:41.864Z</time></trkpt><trkpt lat="53.56007808784241" lon="14.752272035449721"><ele>12.0</ele><time>2026-04-06T14:00:42.864Z</time></trkpt><trkpt lat="53.56009030988638" lon="14.752467166697132"><ele>12.0</ele><time>2026-04-06T14:00:43.864Z</time></trkpt><trkpt lat="53.56009468251586" lon="14.752677895986526"><ele>12.0</ele><time>2026-04-06T14:00:44.864Z</time></trkpt><trkpt lat="53.56009363434094" lon="14.752908640714496"><ele>12.0</ele><time>2026-04-06T14:00:45.864Z</time></trkpt><trkpt lat="53.56009019067214" lon="14.753161204974006"><ele>12.0</ele><time>2026-04-06T14:00:46.864Z</time></trkpt><trkpt lat="53.56008325844215" lon="14.75338799208307"><ele>12.0</ele><time>2026-04-06T14:00:47.863Z</time></trkpt><trkpt lat="53.5600835535508" lon="14.753611624095745"><ele>12.0</ele><time>2026-04-06T14:00:48.863Z</time></trkpt><trkpt lat="53.560087621339136" lon="14.753836789564438"><ele>11.5</ele><time>2026-04-06T14:00:49.863Z</time></trkpt><trkpt lat="53.56007604952245" lon="14.75404901492021"><ele>11.0</ele><time>2026-04-06T14:00:50.863Z</time></trkpt><trkpt lat="53.56007394167044" lon="14.754256980705899"><ele>10.5</ele><time>2026-04-06T14:00:51.863Z</time></trkpt><trkpt lat="53.56007157009946" lon="14.754486883125221"><ele>10.0</ele><time>2026-04-06T14:00:52.863Z</time></trkpt><trkpt lat="53.560071891049155" lon="14.754698937783349"><ele>10.0</ele><time>2026-04-06T14:00:53.863Z</time></trkpt><trkpt lat="53.5600757653175" lon="14.754901420005051"><ele>10.0</ele><time>2026-04-06T14:00:54.863Z</time></trkpt><trkpt lat="53.56007899708423" lon="14.755134017022135"><ele>10.0</ele><time>2026-04-06T14:00:55.863Z</time></trkpt><trkpt lat="53.56007952260177" lon="14.755371745099053"><ele>10.0</ele><time>2026-04-06T14:00:56.862Z</time></trkpt><trkpt lat="53.56005721065182" lon="14.75559419455355"><ele>9.666666666666668</ele><time>2026-04-06T14:00:57.862Z</time></trkpt><trkpt lat="53.5600345288502" lon="14.755860729200217"><ele>9.333333333333334</ele><time>2026-04-06T14:00:58.862Z</time></trkpt><trkpt lat="53.56000222531871" lon="14.756120078099459"><ele>9.0</ele><time>2026-04-06T14:00:59.862Z</time></trkpt><trkpt lat="53.55997811899079" lon="14.7563456884824"><ele>9.0</ele><time>2026-04-06T14:01:00.862Z</time></trkpt><trkpt lat="53.55994914789246" lon="14.756546472800885"><ele>9.0</ele><time>2026-04-06T14:01:01.862Z</time></trkpt><trkpt lat="53.55993794277329" lon="14.756775255129835"><ele>9.0</ele><time>2026-04-06T14:01:02.862Z</time></trkpt><trkpt lat="53.55993411169289" lon="14.757034673793843"><ele>9.0</ele><time>2026-04-06T14:01:03.862Z</time></trkpt><trkpt lat="53.559910490962686" lon="14.757281455216965"><ele>8.5</ele><time>2026-04-06T14:01:04.862Z</time></trkpt><trkpt lat="53.559886709591204" lon="14.757487078780711"><ele>8.0</ele><time>2026-04-06T14:01:05.862Z</time></trkpt><trkpt lat="53.55987156584658" lon="14.757676679006845"><ele>7.5</ele><time>2026-04-06T14:01:06.862Z</time></trkpt><trkpt lat="53.55986590759895" lon="14.757885188174077"><ele>7.0</ele><time>2026-04-06T14:01:07.862Z</time></trkpt><trkpt lat="53.559841984991856" lon="14.758046055371207"><ele>7.0</ele><time>2026-04-06T14:01:08.862Z</time></trkpt><trkpt lat="53.5598190852254" lon="14.758197658414563"><ele>6.999999999999999</ele><time>2026-04-06T14:01:09.862Z</time></trkpt><trkpt lat="53.5598020090795" lon="14.758352302633682"><ele>6.999999999999999</ele><time>2026-04-06T14:01:10.862Z</time></trkpt><trkpt lat="53.55979861299172" lon="14.758531274139916"><ele>7.0</ele><time>2026-04-06T14:01:11.862Z</time></trkpt><trkpt lat="53.55979569817251" lon="14.758716589078029"><ele>7.0</ele><time>2026-04-06T14:01:12.862Z</time></trkpt><trkpt lat="53.559791715726135" lon="14.758882385441426"><ele>7.0</ele><time>2026-04-06T14:01:13.862Z</time></trkpt><trkpt lat="53.559774818176365" lon="14.759059316603452"><ele>7.0</ele><time>2026-04-06T14:01:14.862Z</time></trkpt><trkpt lat="53.55974929325119" lon="14.759247598472676"><ele>7.0</ele><time>2026-04-06T14:01:15.862Z</time></trkpt><trkpt lat="53.55972140740653" lon="14.759441720885343"><ele>7.0</ele><time>2026-04-06T14:01:16.862Z</time></trkpt><trkpt lat="53.55970332158503" lon="14.759636412170584"><ele>7.199999999999999</ele><time>2026-04-06T14:01:17.862Z</time></trkpt><trkpt lat="53.559684043728836" lon="14.759822869864072"><ele>7.3999999999999995</ele><time>2026-04-06T14:01:18.862Z</time></trkpt><trkpt lat="53.559672312099174" lon="14.759990019286924"><ele>7.6000000000000005</ele><time>2026-04-06T14:01:19.862Z</time></trkpt><trkpt lat="53.55965402672116" lon="14.760151199700099"><ele>7.800000000000001</ele><time>2026-04-06T14:01:20.862Z</time></trkpt><trkpt lat="53.55963067043677" lon="14.760326598313325"><ele>8.0</ele><time>2026-04-06T14:01:21.862Z</time></trkpt><trkpt lat="53.55961184995111" lon="14.760523441193918"><ele>8.0</ele><time>2026-04-06T14:01:22.862Z</time></trkpt><trkpt lat="53.559594505982" lon="14.76073294680908"><ele>8.0</ele><time>2026-04-06T14:01:23.862Z</time></trkpt><trkpt lat="53.559576086044274" lon="14.760907341906266"><ele>8.0</ele><time>2026-04-06T14:01:24.862Z</time></trkpt><trkpt lat="53.55956224202789" lon="14.761050898052984"><ele>8.0</ele><time>2026-04-06T14:01:25.862Z</time></trkpt><trkpt lat="53.55954736362166" lon="14.761179637102742"><ele>8.0</ele><time>2026-04-06T14:01:26.862Z</time></trkpt><trkpt lat="53.55952309507419" lon="14.761290945914382"><ele>7.6000000000000005</ele><time>2026-04-06T14:01:27.862Z</time></trkpt><trkpt lat="53.55949980123404" lon="14.761458501481139"><ele>7.200000000000001</ele><time>2026-04-06T14:01:29.862Z</time></trkpt><trkpt lat="53.55949671150617" lon="14.76159544232029"><ele>6.8</ele><time>2026-04-06T14:01:31.862Z</time></trkpt><trkpt lat="53.55948381667041" lon="14.761773800388523"><ele>6.4</ele><time>2026-04-06T14:01:33.862Z</time></trkpt><trkpt lat="53.55947173487991" lon="14.76191165583555"><ele>6.0</ele><time>2026-04-06T14:01:34.862Z</time></trkpt><trkpt lat="53.5594518604054" lon="14.762052672751125"><ele>6.0</ele><time>2026-04-06T14:01:35.861Z</time></trkpt><trkpt lat="53.55943371931977" lon="14.762165196589118"><ele>6.0</ele><time>2026-04-06T14:01:36.861Z</time></trkpt><trkpt lat="53.55940823359524" lon="14.762322978542214"><ele>6.0</ele><time>2026-04-06T14:01:38.86Z</time></trkpt><trkpt lat="53.55939746903726" lon="14.7624421425129"><ele>6.0</ele><time>2026-04-06T14:01:41.859Z</time></trkpt><trkpt lat="53.559365317743385" lon="14.762608253544794"><ele>6.0</ele><time>2026-04-06T14:02:07.855Z</time></trkpt><trkpt lat="53.55932104842608" lon="14.762727358987537"><ele>6.0</ele><time>2026-04-06T14:02:08.855Z</time></trkpt><trkpt lat="53.55926436805649" lon="14.762808770956653"><ele>6.8</ele><time>2026-04-06T14:02:09.855Z</time></trkpt><trkpt lat="53.559192691378335" lon="14.76287868180567"><ele>7.6</ele><time>2026-04-06T14:02:10.855Z</time></trkpt><trkpt lat="53.55908253570399" lon="14.762954104768212"><ele>8.4</ele><time>2026-04-06T14:02:11.855Z</time></trkpt><trkpt lat="53.55898521025177" lon="14.763050060054839"><ele>9.2</ele><time>2026-04-06T14:02:12.855Z</time></trkpt><trkpt lat="53.558885199229486" lon="14.763132735886307"><ele>10.0</ele><time>2026-04-06T14:02:13.855Z</time></trkpt><trkpt lat="53.558788021966414" lon="14.763228542838538"><ele>10.0</ele><time>2026-04-06T14:02:14.855Z</time></trkpt><trkpt lat="53.5587017924421" lon="14.763310885671032"><ele>10.0</ele><time>2026-04-06T14:02:15.855Z</time></trkpt><trkpt lat="53.558614326400665" lon="14.763382902027974"><ele>10.0</ele><time>2026-04-06T14:02:16.855Z</time></trkpt><trkpt lat="53.55850582938435" lon="14.763481062985555"><ele>10.0</ele><time>2026-04-06T14:02:17.855Z</time></trkpt><trkpt lat="53.55838085799601" lon="14.76354918557524"><ele>9.666666666666668</ele><time>2026-04-06T14:02:18.855Z</time></trkpt><trkpt lat="53.558251216931296" lon="14.763643614264563"><ele>9.333333333333334</ele><time>2026-04-06T14:02:19.855Z</time></trkpt><trkpt lat="53.55810137720479" lon="14.763778055780403"><ele>9.0</ele><time>2026-04-06T14:02:20.855Z</time></trkpt><trkpt lat="53.55795131402575" lon="14.76388188455487"><ele>11.0</ele><time>2026-04-06T14:02:21.855Z</time></trkpt><trkpt lat="53.55780626449567" lon="14.763980595424979"><ele>13.0</ele><time>2026-04-06T14:02:22.855Z</time></trkpt><trkpt lat="53.55765766516466" lon="14.76407200005632"><ele>15.0</ele><time>2026-04-06T14:02:23.855Z</time></trkpt><trkpt lat="53.55750690854271" lon="14.764143128437562"><ele>15.0</ele><time>2026-04-06T14:02:24.855Z</time></trkpt><trkpt lat="53.557371076792535" lon="14.764224864131025"><ele>15.0</ele><time>2026-04-06T14:02:25.855Z</time></trkpt><trkpt lat="53.55723048716847" lon="14.7643149419953"><ele>15.0</ele><time>2026-04-06T14:02:26.855Z</time></trkpt><trkpt lat="53.557099776978845" lon="14.764435558652306"><ele>15.0</ele><time>2026-04-06T14:02:27.855Z</time></trkpt><trkpt lat="53.55696584987977" lon="14.76454356483307"><ele>15.0</ele><time>2026-04-06T14:02:28.855Z</time></trkpt><trkpt lat="53.55681263409097" lon="14.764696546555879"><ele>15.0</ele><time>2026-04-06T14:02:29.854Z</time></trkpt><trkpt lat="53.556679681986935" lon="14.764862486559226"><ele>15.0</ele><time>2026-04-06T14:02:30.854Z</time></trkpt><trkpt lat="53.556562945192695" lon="14.765052414169668"><ele>14.333333333333332</ele><time>2026-04-06T14:02:31.854Z</time></trkpt><trkpt lat="53.556436325402245" lon="14.765245703499255"><ele>13.666666666666666</ele><time>2026-04-06T14:02:32.854Z</time></trkpt><trkpt lat="53.55631822972386" lon="14.765429494659449"><ele>13.0</ele><time>2026-04-06T14:02:33.854Z</time></trkpt><trkpt lat="53.556207783010294" lon="14.76559936025251"><ele>11.25</ele><time>2026-04-06T14:02:34.854Z</time></trkpt><trkpt lat="53.55612475315141" lon="14.765799179304405"><ele>9.5</ele><time>2026-04-06T14:02:35.854Z</time></trkpt><trkpt lat="53.55603220692582" lon="14.765972242471245"><ele>7.75</ele><time>2026-04-06T14:02:36.854Z</time></trkpt><trkpt lat="53.55595161951809" lon="14.766186993356307"><ele>6.0</ele><time>2026-04-06T14:02:37.854Z</time></trkpt><trkpt lat="53.555872049053484" lon="14.766370769397971"><ele>6.0</ele><time>2026-04-06T14:02:38.854Z</time></trkpt><trkpt lat="53.55578401098877" lon="14.766572034257566"><ele>6.0</ele><time>2026-04-06T14:02:39.854Z</time></trkpt><trkpt lat="53.55570511675937" lon="14.766768158368446"><ele>6.0</ele><time>2026-04-06T14:02:40.854Z</time></trkpt><trkpt lat="53.55565285727845" lon="14.767012204627122"><ele>6.0</ele><time>2026-04-06T14:02:41.854Z</time></trkpt><trkpt lat="53.555598413597394" lon="14.767257783217143"><ele>6.25</ele><time>2026-04-06T14:02:42.854Z</time></trkpt><trkpt lat="53.55552137251399" lon="14.767507816255982"><ele>6.5</ele><time>2026-04-06T14:02:43.854Z</time></trkpt><trkpt lat="53.555477965753994" lon="14.767740146539838"><ele>6.75</ele><time>2026-04-06T14:02:44.854Z</time></trkpt><trkpt lat="53.55538973785308" lon="14.767912590358291"><ele>7.0</ele><time>2026-04-06T14:02:45.854Z</time></trkpt><trkpt lat="53.555299702785994" lon="14.768084919682517"><ele>8.333333333333334</ele><time>2026-04-06T14:02:46.854Z</time></trkpt><trkpt lat="53.55519784632774" lon="14.768265595189316"><ele>9.666666666666666</ele><time>2026-04-06T14:02:47.854Z</time></trkpt><trkpt lat="53.555084649047316" lon="14.76845558579157"><ele>11.0</ele><time>2026-04-06T14:02:48.854Z</time></trkpt><trkpt lat="53.55496769383279" lon="14.768675125731766"><ele>11.0</ele><time>2026-04-06T14:02:49.854Z</time></trkpt><trkpt lat="53.5548421046568" lon="14.76886346182026"><ele>11.0</ele><time>2026-04-06T14:02:50.854Z</time></trkpt><trkpt lat="53.55472627225954" lon="14.769048661994585"><ele>11.0</ele><time>2026-04-06T14:02:51.854Z</time></trkpt><trkpt lat="53.55459027526276" lon="14.769209914747224"><ele>11.333333333333332</ele><time>2026-04-06T14:02:52.854Z</time></trkpt><trkpt lat="53.5544392914246" lon="14.769428089569692"><ele>11.666666666666666</ele><time>2026-04-06T14:02:53.852Z</time></trkpt><trkpt lat="53.55427953784924" lon="14.76966207816379"><ele>12.0</ele><time>2026-04-06T14:02:54.852Z</time></trkpt><trkpt lat="53.55413192519078" lon="14.769889499152425"><ele>12.0</ele><time>2026-04-06T14:02:55.852Z</time></trkpt><trkpt lat="53.554003134759434" lon="14.770110303151789"><ele>12.0</ele><time>2026-04-06T14:02:56.852Z</time></trkpt><trkpt lat="53.55390838812103" lon="14.770315907374764"><ele>12.0</ele><time>2026-04-06T14:02:57.853Z</time></trkpt><trkpt lat="53.55381242145242" lon="14.770464733142122"><ele>12.25</ele><time>2026-04-06T14:02:58.853Z</time></trkpt><trkpt lat="53.553720621533046" lon="14.770632799452564"><ele>12.5</ele><time>2026-04-06T14:02:59.852Z</time></trkpt><trkpt lat="53.55363194703949" lon="14.770825880124674"><ele>12.75</ele><time>2026-04-06T14:03:00.852Z</time></trkpt><trkpt lat="53.55352226212508" lon="14.771023125802618"><ele>13.0</ele><time>2026-04-06T14:03:01.852Z</time></trkpt><trkpt lat="53.55341085793521" lon="14.771223800758374"><ele>13.333333333333332</ele><time>2026-04-06T14:03:02.852Z</time></trkpt><trkpt lat="53.553284538064204" lon="14.771451392749839"><ele>13.666666666666668</ele><time>2026-04-06T14:03:03.852Z</time></trkpt><trkpt lat="53.55316934936699" lon="14.77165960278238"><ele>14.0</ele><time>2026-04-06T14:03:04.852Z</time></trkpt><trkpt lat="53.55305405561542" lon="14.771867031774008"><ele>14.0</ele><time>2026-04-06T14:03:05.852Z</time></trkpt><trkpt lat="53.552931055490824" lon="14.772090206487695"><ele>14.0</ele><time>2026-04-06T14:03:06.852Z</time></trkpt><trkpt lat="53.55279902522892" lon="14.772328296363353"><ele>14.0</ele><time>2026-04-06T14:03:07.852Z</time></trkpt><trkpt lat="53.55268662850607" lon="14.772572374018173"><ele>14.0</ele><time>2026-04-06T14:03:08.852Z</time></trkpt><trkpt lat="53.55254666823771" lon="14.772802281383836"><ele>14.0</ele><time>2026-04-06T14:03:09.852Z</time></trkpt><trkpt lat="53.55240452815719" lon="14.773052016863607"><ele>14.0</ele><time>2026-04-06T14:03:10.852Z</time></trkpt><trkpt lat="53.55227648360365" lon="14.773288091911919"><ele>14.0</ele><time>2026-04-06T14:03:11.851Z</time></trkpt><trkpt lat="53.55214638396995" lon="14.77351487450528"><ele>14.0</ele><time>2026-04-06T14:03:12.851Z</time></trkpt><trkpt lat="53.55199672119305" lon="14.773744765008434"><ele>14.0</ele><time>2026-04-06T14:03:13.851Z</time></trkpt><trkpt lat="53.551866847597395" lon="14.77401044977354"><ele>14.0</ele><time>2026-04-06T14:03:14.851Z</time></trkpt><trkpt lat="53.5517162618383" lon="14.774261741600128"><ele>14.0</ele><time>2026-04-06T14:03:15.851Z</time></trkpt><trkpt lat="53.55156359506457" lon="14.774504009600832"><ele>14.0</ele><time>2026-04-06T14:03:16.851Z</time></trkpt><trkpt lat="53.551425845082164" lon="14.774740766482445"><ele>14.333333333333334</ele><time>2026-04-06T14:03:17.851Z</time></trkpt><trkpt lat="53.55130516304201" lon="14.774962059299403"><ele>14.666666666666668</ele><time>2026-04-06T14:03:18.851Z</time></trkpt><trkpt lat="53.55118618463569" lon="14.775184828159595"><ele>15.0</ele><time>2026-04-06T14:03:19.851Z</time></trkpt><trkpt lat="53.55108475572605" lon="14.7753719343018"><ele>14.0</ele><time>2026-04-06T14:03:20.851Z</time></trkpt><trkpt lat="53.550984136889156" lon="14.775508394953615"><ele>13.0</ele><time>2026-04-06T14:03:21.851Z</time></trkpt><trkpt lat="53.55093793580575" lon="14.77562629352194"><ele>12.0</ele><time>2026-04-06T14:03:22.851Z</time></trkpt><trkpt lat="53.550856665218106" lon="14.775536873121654"><ele>11.0</ele><time>2026-04-06T14:03:29.851Z</time></trkpt><trkpt lat="53.55076286205619" lon="14.775452927183224"><ele>10.0</ele><time>2026-04-06T14:03:30.851Z</time></trkpt><trkpt lat="53.55066461490439" lon="14.775367303426963"><ele>10.0</ele><time>2026-04-06T14:03:31.851Z</time></trkpt><trkpt lat="53.55055458818227" lon="14.77528184881844"><ele>10.0</ele><time>2026-04-06T14:03:32.851Z</time></trkpt><trkpt lat="53.550433529630524" lon="14.77520455298345"><ele>10.0</ele><time>2026-04-06T14:03:33.851Z</time></trkpt><trkpt lat="53.5502909660939" lon="14.775157407729221"><ele>10.0</ele><time>2026-04-06T14:03:34.851Z</time></trkpt><trkpt lat="53.550147804314896" lon="14.775076478882621"><ele>10.25</ele><time>2026-04-06T14:03:35.851Z</time></trkpt><trkpt lat="53.54999603535387" lon="14.775020770688885"><ele>10.5</ele><time>2026-04-06T14:03:36.851Z</time></trkpt><trkpt lat="53.549843237558086" lon="14.774976512390948"><ele>10.75</ele><time>2026-04-06T14:03:37.851Z</time></trkpt><trkpt lat="53.54971267776601" lon="14.774934368184855"><ele>11.0</ele><time>2026-04-06T14:03:38.851Z</time></trkpt><trkpt lat="53.549607920886295" lon="14.774886374096267"><ele>11.0</ele><time>2026-04-06T14:03:39.851Z</time></trkpt><trkpt lat="53.5495317332757" lon="14.774843674364506"><ele>11.0</ele><time>2026-04-06T14:03:40.851Z</time></trkpt><trkpt lat="53.549452551158794" lon="14.774808981928675"><ele>11.0</ele><time>2026-04-06T14:03:42.851Z</time></trkpt><trkpt lat="53.54938255639585" lon="14.77506422752246"><ele>11.0</ele><time>2026-04-06T14:03:43.851Z</time></trkpt><trkpt lat="53.549347693948704" lon="14.77516340916184"><ele>11.0</ele><time>2026-04-06T14:03:44.851Z</time></trkpt><trkpt lat="53.549306120901996" lon="14.775303147719516"><ele>11.25</ele><time>2026-04-06T14:03:45.851Z</time></trkpt><trkpt lat="53.54924186123131" lon="14.775505796545156"><ele>11.5</ele><time>2026-04-06T14:03:46.851Z</time></trkpt><trkpt lat="53.54919377369349" lon="14.775709717189534"><ele>11.75</ele><time>2026-04-06T14:03:47.851Z</time></trkpt><trkpt lat="53.54915321213525" lon="14.775881112318043"><ele>12.0</ele><time>2026-04-06T14:03:48.851Z</time></trkpt><trkpt lat="53.54912170410377" lon="14.776022412132969"><ele>12.0</ele><time>2026-04-06T14:03:49.851Z</time></trkpt><trkpt lat="53.54909129343677" lon="14.776172976723325"><ele>12.0</ele><time>2026-04-06T14:03:50.851Z</time></trkpt><trkpt lat="53.5490575787387" lon="14.77630476882542"><ele>12.0</ele><time>2026-04-06T14:03:51.851Z</time></trkpt><trkpt lat="53.54902347563717" lon="14.776438930023275"><ele>12.0</ele><time>2026-04-06T14:03:52.851Z</time></trkpt><trkpt lat="53.54899477301778" lon="14.776563261562826"><ele>12.0</ele><time>2026-04-06T14:03:53.851Z</time></trkpt><trkpt lat="53.548975223484014" lon="14.776673410906437"><ele>12.0</ele><time>2026-04-06T14:03:54.851Z</time></trkpt><trkpt lat="53.54893732388504" lon="14.77687771310064"><ele>12.0</ele><time>2026-04-06T14:03:56.851Z</time></trkpt><trkpt lat="53.54889763540539" lon="14.776979865800383"><ele>12.0</ele><time>2026-04-06T14:03:57.851Z</time></trkpt><trkpt lat="53.54877118417485" lon="14.777123032126028"><ele>12.0</ele><time>2026-04-06T14:03:59.851Z</time></trkpt><trkpt lat="53.54864435000296" lon="14.777287060892057"><ele>12.0</ele><time>2026-04-06T14:04:01.851Z</time></trkpt><trkpt lat="53.54854380369958" lon="14.777441303318863"><ele>12.0</ele><time>2026-04-06T14:04:02.851Z</time></trkpt><trkpt lat="53.54842989828282" lon="14.777586673927454"><ele>12.0</ele><time>2026-04-06T14:04:03.851Z</time></trkpt><trkpt lat="53.54835027967207" lon="14.777684786592074"><ele>12.0</ele><time>2026-04-06T14:04:04.851Z</time></trkpt><trkpt lat="53.548282989285724" lon="14.777780753878607"><ele>12.0</ele><time>2026-04-06T14:04:05.851Z</time></trkpt><trkpt lat="53.548217824939414" lon="14.777848088771398"><ele>12.0</ele><time>2026-04-06T14:04:06.851Z</time></trkpt><trkpt lat="53.54812331779879" lon="14.778006255778928"><ele>11.4</ele><time>2026-04-06T14:04:08.851Z</time></trkpt><trkpt lat="53.548087664534975" lon="14.778144581732695"><ele>10.799999999999999</ele><time>2026-04-06T14:04:09.851Z</time></trkpt><trkpt lat="53.5480693627277" lon="14.77828459673745"><ele>10.2</ele><time>2026-04-06T14:04:10.851Z</time></trkpt><trkpt lat="53.548074005834714" lon="14.778458390150787"><ele>9.6</ele><time>2026-04-06T14:04:11.851Z</time></trkpt><trkpt lat="53.54805817779377" lon="14.778662125392986"><ele>9.0</ele><time>2026-04-06T14:04:12.851Z</time></trkpt><trkpt lat="53.548048381642076" lon="14.778818761376256"><ele>9.0</ele><time>2026-04-06T14:04:13.851Z</time></trkpt><trkpt lat="53.548017751473054" lon="14.778964752550692"><ele>9.0</ele><time>2026-04-06T14:04:14.851Z</time></trkpt><trkpt lat="53.54796146302388" lon="14.779123901759402"><ele>9.0</ele><time>2026-04-06T14:04:15.851Z</time></trkpt><trkpt lat="53.547872399794066" lon="14.779278630971012"><ele>9.0</ele><time>2026-04-06T14:04:16.851Z</time></trkpt><trkpt lat="53.547790288149244" lon="14.779384364496885"><ele>9.0</ele><time>2026-04-06T14:04:17.851Z</time></trkpt><trkpt lat="53.547690297342506" lon="14.779483854962546"><ele>10.75</ele><time>2026-04-06T14:04:18.851Z</time></trkpt><trkpt lat="53.54758063021037" lon="14.779577317728613"><ele>12.5</ele><time>2026-04-06T14:04:19.851Z</time></trkpt><trkpt lat="53.54746025718217" lon="14.779677514508272"><ele>14.25</ele><time>2026-04-06T14:04:20.851Z</time></trkpt><trkpt lat="53.54733803094019" lon="14.779780334262057"><ele>16.0</ele><time>2026-04-06T14:04:21.851Z</time></trkpt><trkpt lat="53.54722513836438" lon="14.779881053896265"><ele>16.0</ele><time>2026-04-06T14:04:22.851Z</time></trkpt><trkpt lat="53.54711641841047" lon="14.78000743943046"><ele>16.0</ele><time>2026-04-06T14:04:23.851Z</time></trkpt><trkpt lat="53.546999874365476" lon="14.780078317662571"><ele>16.0</ele><time>2026-04-06T14:04:24.851Z</time></trkpt><trkpt lat="53.54688245180823" lon="14.780194611716013"><ele>16.0</ele><time>2026-04-06T14:04:25.851Z</time></trkpt><trkpt lat="53.54675226112298" lon="14.780309108322498"><ele>16.0</ele><time>2026-04-06T14:04:26.851Z</time></trkpt><trkpt lat="53.54661147845483" lon="14.780421653612935"><ele>16.0</ele><time>2026-04-06T14:04:27.851Z</time></trkpt><trkpt lat="53.546472935959315" lon="14.780517269984637"><ele>16.0</ele><time>2026-04-06T14:04:28.851Z</time></trkpt><trkpt lat="53.546330876782505" lon="14.780591966143794"><ele>15.5</ele><time>2026-04-06T14:04:29.851Z</time></trkpt><trkpt lat="53.546186542865144" lon="14.780656416137049"><ele>15.0</ele><time>2026-04-06T14:04:30.851Z</time></trkpt><trkpt lat="53.54605973802735" lon="14.780711492259234"><ele>14.5</ele><time>2026-04-06T14:04:31.851Z</time></trkpt><trkpt lat="53.54593290991755" lon="14.780760176004529"><ele>14.0</ele><time>2026-04-06T14:04:32.851Z</time></trkpt><trkpt lat="53.54580912742304" lon="14.780795210182282"><ele>14.0</ele><time>2026-04-06T14:04:33.851Z</time></trkpt><trkpt lat="53.54566577673086" lon="14.78086027182406"><ele>14.0</ele><time>2026-04-06T14:04:34.851Z</time></trkpt><trkpt lat="53.545509889901936" lon="14.780925260735676"><ele>14.0</ele><time>2026-04-06T14:04:35.851Z</time></trkpt><trkpt lat="53.54535619228237" lon="14.780989038477001"><ele>14.0</ele><time>2026-04-06T14:04:36.851Z</time></trkpt><trkpt lat="53.545220588991455" lon="14.781058403048391"><ele>14.0</ele><time>2026-04-06T14:04:37.851Z</time></trkpt><trkpt lat="53.54509060482008" lon="14.781083960176945"><ele>14.0</ele><time>2026-04-06T14:04:38.851Z</time></trkpt><trkpt lat="53.54494661489117" lon="14.781147061310579"><ele>14.0</ele><time>2026-04-06T14:04:39.851Z</time></trkpt><trkpt lat="53.54476382087871" lon="14.781221709896558"><ele>14.0</ele><time>2026-04-06T14:04:40.851Z</time></trkpt><trkpt lat="53.544594154859226" lon="14.781285845226098"><ele>14.0</ele><time>2026-04-06T14:04:41.851Z</time></trkpt><trkpt lat="53.54441808377371" lon="14.781360642504177"><ele>14.0</ele><time>2026-04-06T14:04:42.851Z</time></trkpt><trkpt lat="53.5442360736476" lon="14.781440795546548"><ele>13.333333333333334</ele><time>2026-04-06T14:04:43.851Z</time></trkpt><trkpt lat="53.54407607046573" lon="14.7815134688211"><ele>12.666666666666668</ele><time>2026-04-06T14:04:44.851Z</time></trkpt><trkpt lat="53.543900068841516" lon="14.78160369349831"><ele>12.0</ele><time>2026-04-06T14:04:45.851Z</time></trkpt><trkpt lat="53.54374477141148" lon="14.781666918296922"><ele>12.0</ele><time>2026-04-06T14:04:46.851Z</time></trkpt><trkpt lat="53.5435726417863" lon="14.78174707138734"><ele>12.0</ele><time>2026-04-06T14:04:47.851Z</time></trkpt><trkpt lat="53.543409057535044" lon="14.781816477596523"><ele>12.0</ele><time>2026-04-06T14:04:48.851Z</time></trkpt><trkpt lat="53.54321562079233" lon="14.781916331979179"><ele>12.0</ele><time>2026-04-06T14:04:49.851Z</time></trkpt><trkpt lat="53.54303474938786" lon="14.781991922903845"><ele>12.0</ele><time>2026-04-06T14:04:50.851Z</time></trkpt><trkpt lat="53.54284380289562" lon="14.782072700249614"><ele>12.0</ele><time>2026-04-06T14:04:51.851Z</time></trkpt><trkpt lat="53.54267867191105" lon="14.78214118476743"><ele>11.666666666666666</ele><time>2026-04-06T14:04:52.851Z</time></trkpt><trkpt lat="53.54252783070972" lon="14.782210124554524"><ele>11.333333333333332</ele><time>2026-04-06T14:04:53.851Z</time></trkpt><trkpt lat="53.542383976551534" lon="14.782281107098028"><ele>11.0</ele><time>2026-04-06T14:04:54.851Z</time></trkpt><trkpt lat="53.54224333998238" lon="14.782345702051071"><ele>11.0</ele><time>2026-04-06T14:04:55.851Z</time></trkpt><trkpt lat="53.542091144751076" lon="14.782390518978373"><ele>11.0</ele><time>2026-04-06T14:04:56.851Z</time></trkpt><trkpt lat="53.54193935637871" lon="14.782468297264284"><ele>11.0</ele><time>2026-04-06T14:04:57.851Z</time></trkpt><trkpt lat="53.54177792858258" lon="14.782539468872404"><ele>11.0</ele><time>2026-04-06T14:04:58.851Z</time></trkpt><trkpt lat="53.54161589777315" lon="14.782620829223148"><ele>11.0</ele><time>2026-04-06T14:04:59.849Z</time></trkpt><trkpt lat="53.54143829791158" lon="14.782704443164503"><ele>11.0</ele><time>2026-04-06T14:05:00.848Z</time></trkpt><trkpt lat="53.54125675675937" lon="14.782783538037332"><ele>11.0</ele><time>2026-04-06T14:05:01.848Z</time></trkpt><trkpt lat="53.54109977368575" lon="14.782845952140626"><ele>11.0</ele><time>2026-04-06T14:05:02.848Z</time></trkpt><trkpt lat="53.54094591373264" lon="14.782909404415324"><ele>11.0</ele><time>2026-04-06T14:05:03.848Z</time></trkpt><trkpt lat="53.54079281117996" lon="14.782987783559715"><ele>11.0</ele><time>2026-04-06T14:05:04.848Z</time></trkpt><trkpt lat="53.540651013482844" lon="14.783050129608862"><ele>11.0</ele><time>2026-04-06T14:05:05.849Z</time></trkpt><trkpt lat="53.54054313511565" lon="14.783096087054952"><ele>11.0</ele><time>2026-04-06T14:05:06.848Z</time></trkpt><trkpt lat="53.54045736863183" lon="14.783135526751781"><ele>11.0</ele><time>2026-04-06T14:05:07.848Z</time></trkpt><trkpt lat="53.54039140192522" lon="14.7831488689044"><ele>11.0</ele><time>2026-04-06T14:05:08.849Z</time></trkpt><trkpt lat="53.54031942685062" lon="14.783180451148631"><ele>10.666666666666666</ele><time>2026-04-06T14:05:10.849Z</time></trkpt><trkpt lat="53.5402385033088" lon="14.78322574726634"><ele>10.333333333333332</ele><time>2026-04-06T14:05:13.848Z</time></trkpt><trkpt lat="53.540174214929586" lon="14.783264454940548"><ele>10.0</ele><time>2026-04-06T14:05:17.848Z</time></trkpt><trkpt lat="53.54010891763936" lon="14.783297890691435"><ele>9.666666666666666</ele><time>2026-04-06T14:05:23.848Z</time></trkpt><trkpt lat="53.54003981763984" lon="14.783328236573789"><ele>9.333333333333334</ele><time>2026-04-06T14:05:30.848Z</time></trkpt><trkpt lat="53.53995751998415" lon="14.783363519028327"><ele>9.0</ele><time>2026-04-06T14:05:31.848Z</time></trkpt><trkpt lat="53.539885701149025" lon="14.783383555449978"><ele>9.0</ele><time>2026-04-06T14:05:32.848Z</time></trkpt><trkpt lat="53.53981756530339" lon="14.783412000240045"><ele>9.0</ele><time>2026-04-06T14:05:33.848Z</time></trkpt><trkpt lat="53.53973993800281" lon="14.783442375195174"><ele>9.0</ele><time>2026-04-06T14:05:34.848Z</time></trkpt><trkpt lat="53.53965288955143" lon="14.783475419417869"><ele>9.0</ele><time>2026-04-06T14:05:35.848Z</time></trkpt><trkpt lat="53.53957142007261" lon="14.783506796568421"><ele>9.0</ele><time>2026-04-06T14:05:36.848Z</time></trkpt><trkpt lat="53.53947737722167" lon="14.783553873566056"><ele>9.0</ele><time>2026-04-06T14:05:37.848Z</time></trkpt><trkpt lat="53.53938312212127" lon="14.78359525035539"><ele>8.714285714285715</ele><time>2026-04-06T14:05:38.848Z</time></trkpt><trkpt lat="53.53930690275398" lon="14.783621867635325"><ele>8.428571428571429</ele><time>2026-04-06T14:05:39.848Z</time></trkpt><trkpt lat="53.53923335892315" lon="14.783654813213891"><ele>8.142857142857142</ele><time>2026-04-06T14:05:40.848Z</time></trkpt><trkpt lat="53.539167043818146" lon="14.783670585921941"><ele>7.857142857142858</ele><time>2026-04-06T14:05:41.848Z</time></trkpt><trkpt lat="53.539092430901086" lon="14.783711991289316"><ele>7.571428571428571</ele><time>2026-04-06T14:05:43.848Z</time></trkpt><trkpt lat="53.5390355164058" lon="14.783760318370637"><ele>7.285714285714286</ele><time>2026-04-06T14:05:46.848Z</time></trkpt><trkpt lat="53.538952633934315" lon="14.783795502957494"><ele>7.0</ele><time>2026-04-06T14:05:49.848Z</time></trkpt><trkpt lat="53.538797316387104" lon="14.783844852014127"><ele>7.3999999999999995</ele><time>2026-04-06T14:05:51.848Z</time></trkpt><trkpt lat="53.53870539470502" lon="14.783886902039976"><ele>7.799999999999999</ele><time>2026-04-06T14:05:52.848Z</time></trkpt><trkpt lat="53.538587333590854" lon="14.78392814159463"><ele>8.2</ele><time>2026-04-06T14:05:53.848Z</time></trkpt><trkpt lat="53.538474082621036" lon="14.783977483209988"><ele>8.6</ele><time>2026-04-06T14:05:54.848Z</time></trkpt><trkpt lat="53.53838091680752" lon="14.784016689463117"><ele>9.0</ele><time>2026-04-06T14:05:55.848Z</time></trkpt><trkpt lat="53.538301976312404" lon="14.784050858395357"><ele>9.0</ele><time>2026-04-06T14:05:56.848Z</time></trkpt><trkpt lat="53.53823418138065" lon="14.784085116722386"><ele>9.0</ele><time>2026-04-06T14:05:57.848Z</time></trkpt><trkpt lat="53.538171913923954" lon="14.78410596577543"><ele>9.0</ele><time>2026-04-06T14:05:58.848Z</time></trkpt><trkpt lat="53.538107348272256" lon="14.78439842807892"><ele>9.0</ele><time>2026-04-06T14:06:00.848Z</time></trkpt><trkpt lat="53.538137715034026" lon="14.784564190450746"><ele>9.0</ele><time>2026-04-06T14:06:01.848Z</time></trkpt><trkpt lat="53.53817778326737" lon="14.784794750442785"><ele>7.666666666666667</ele><time>2026-04-06T14:06:02.848Z</time></trkpt><trkpt lat="53.53821680118362" lon="14.7850687327447"><ele>6.333333333333334</ele><time>2026-04-06T14:06:03.848Z</time></trkpt><trkpt lat="53.53826639619189" lon="14.785315154992105"><ele>5.0</ele><time>2026-04-06T14:06:04.848Z</time></trkpt><trkpt lat="53.538314776924565" lon="14.785579238356187"><ele>5.0</ele><time>2026-04-06T14:06:05.848Z</time></trkpt><trkpt lat="53.53836130387974" lon="14.78585110906225"><ele>5.0</ele><time>2026-04-06T14:06:06.848Z</time></trkpt><trkpt lat="53.53840499395621" lon="14.786104317150503"><ele>5.0</ele><time>2026-04-06T14:06:07.848Z</time></trkpt><trkpt lat="53.53844812543828" lon="14.786351173646025"><ele>4.666666666666667</ele><time>2026-04-06T14:06:08.848Z</time></trkpt><trkpt lat="53.53849484517042" lon="14.786603888003297"><ele>4.333333333333333</ele><time>2026-04-06T14:06:09.848Z</time></trkpt><trkpt lat="53.53854597550514" lon="14.786865912885904"><ele>4.0</ele><time>2026-04-06T14:06:10.848Z</time></trkpt><trkpt lat="53.5385940178431" lon="14.787146942304378"><ele>3.6666666666666665</ele><time>2026-04-06T14:06:11.848Z</time></trkpt><trkpt lat="53.53864388119858" lon="14.787440026955615"><ele>3.333333333333333</ele><time>2026-04-06T14:06:12.848Z</time></trkpt><trkpt lat="53.53869873317017" lon="14.78773898918388"><ele>3.0</ele><time>2026-04-06T14:06:13.848Z</time></trkpt><trkpt lat="53.538748886421416" lon="14.788013164513245"><ele>2.6666666666666665</ele><time>2026-04-06T14:06:14.848Z</time></trkpt><trkpt lat="53.538792762650125" lon="14.788269868220269"><ele>2.333333333333333</ele><time>2026-04-06T14:06:15.848Z</time></trkpt><trkpt lat="53.53883616377633" lon="14.788526267825016"><ele>2.0</ele><time>2026-04-06T14:06:16.848Z</time></trkpt><trkpt lat="53.538892135711954" lon="14.788812279881643"><ele>2.0</ele><time>2026-04-06T14:06:17.848Z</time></trkpt><trkpt lat="53.53893842507014" lon="14.789083624218959"><ele>2.0</ele><time>2026-04-06T14:06:18.848Z</time></trkpt><trkpt lat="53.53899077357196" lon="14.789394736692739"><ele>2.0</ele><time>2026-04-06T14:06:19.848Z</time></trkpt><trkpt lat="53.539047900136296" lon="14.789692961577533"><ele>2.5</ele><time>2026-04-06T14:06:20.848Z</time></trkpt><trkpt lat="53.53910367846721" lon="14.790077558684695"><ele>3.0</ele><time>2026-04-06T14:06:21.848Z</time></trkpt><trkpt lat="53.53916251729885" lon="14.790427236936896"><ele>3.0</ele><time>2026-04-06T14:06:22.848Z</time></trkpt><trkpt lat="53.53922292094977" lon="14.790799344604652"><ele>3.0</ele><time>2026-04-06T14:06:23.848Z</time></trkpt><trkpt lat="53.53928007617093" lon="14.791123228183046"><ele>3.0</ele><time>2026-04-06T14:06:24.848Z</time></trkpt><trkpt lat="53.53933291900012" lon="14.791404469701316"><ele>3.0</ele><time>2026-04-06T14:06:25.848Z</time></trkpt><trkpt lat="53.53937898571562" lon="14.79168171796215"><ele>3.0</ele><time>2026-04-06T14:06:26.848Z</time></trkpt><trkpt lat="53.53942884954878" lon="14.791945177049726"><ele>3.0</ele><time>2026-04-06T14:06:27.848Z</time></trkpt><trkpt lat="53.53947850898228" lon="14.79226511317088"><ele>3.0</ele><time>2026-04-06T14:06:28.848Z</time></trkpt><trkpt lat="53.53953034077448" lon="14.792570276743195"><ele>3.0</ele><time>2026-04-06T14:06:29.848Z</time></trkpt><trkpt lat="53.539583052244524" lon="14.792899248323758"><ele>3.0</ele><time>2026-04-06T14:06:30.848Z</time></trkpt><trkpt lat="53.53963833143459" lon="14.79319146984464"><ele>3.0</ele><time>2026-04-06T14:06:31.848Z</time></trkpt><trkpt lat="53.53969739093929" lon="14.793516316936621"><ele>3.0</ele><time>2026-04-06T14:06:32.848Z</time></trkpt><trkpt lat="53.539755413390026" lon="14.793835686145359"><ele>3.0</ele><time>2026-04-06T14:06:33.848Z</time></trkpt><trkpt lat="53.5398085726079" lon="14.7941322709224"><ele>3.0</ele><time>2026-04-06T14:06:34.848Z</time></trkpt><trkpt lat="53.53986427363071" lon="14.7944504192042"><ele>3.0</ele><time>2026-04-06T14:06:35.848Z</time></trkpt><trkpt lat="53.53991578694306" lon="14.794717948235137"><ele>3.0</ele><time>2026-04-06T14:06:36.848Z</time></trkpt><trkpt lat="53.53996657514973" lon="14.794986986295552"><ele>3.333333333333333</ele><time>2026-04-06T14:06:37.848Z</time></trkpt><trkpt lat="53.540013698898626" lon="14.795265693008455"><ele>3.6666666666666665</ele><time>2026-04-06T14:06:38.848Z</time></trkpt><trkpt lat="53.540056869871044" lon="14.795530933944194"><ele>4.0</ele><time>2026-04-06T14:06:39.848Z</time></trkpt><trkpt lat="53.54009838669694" lon="14.795783061008512"><ele>4.0</ele><time>2026-04-06T14:06:40.848Z</time></trkpt><trkpt lat="53.540138559149284" lon="14.796005200674925"><ele>4.0</ele><time>2026-04-06T14:06:41.848Z</time></trkpt><trkpt lat="53.54017480805133" lon="14.796212487321139"><ele>4.0</ele><time>2026-04-06T14:06:42.848Z</time></trkpt><trkpt lat="53.540209053865226" lon="14.796403574004124"><ele>4.0</ele><time>2026-04-06T14:06:43.848Z</time></trkpt><trkpt lat="53.540237361740374" lon="14.796581551402358"><ele>3.9999999999999996</ele><time>2026-04-06T14:06:44.848Z</time></trkpt><trkpt lat="53.54026112115509" lon="14.79673119415204"><ele>4.0</ele><time>2026-04-06T14:06:45.848Z</time></trkpt><trkpt lat="53.540278054043824" lon="14.796858204259653"><ele>4.0</ele><time>2026-04-06T14:06:46.848Z</time></trkpt><trkpt lat="53.540298618575775" lon="14.796974361254824"><ele>4.0</ele><time>2026-04-06T14:06:47.848Z</time></trkpt><trkpt lat="53.54032084372277" lon="14.797159122070257"><ele>3.9999999999999996</ele><time>2026-04-06T14:06:49.848Z</time></trkpt><trkpt lat="53.54035322624363" lon="14.797279254344595"><ele>4.0</ele><time>2026-04-06T14:06:53.848Z</time></trkpt><trkpt lat="53.54037833635288" lon="14.797425022289879"><ele>3.833333333333333</ele><time>2026-04-06T14:07:06.845Z</time></trkpt><trkpt lat="53.54039838524896" lon="14.7975411839882"><ele>3.6666666666666665</ele><time>2026-04-06T14:07:07.845Z</time></trkpt><trkpt lat="53.54042343272997" lon="14.797686307044767"><ele>3.5</ele><time>2026-04-06T14:07:08.845Z</time></trkpt><trkpt lat="53.540445492002526" lon="14.79781397131125"><ele>3.333333333333333</ele><time>2026-04-06T14:07:09.845Z</time></trkpt><trkpt lat="53.54047963348378" lon="14.797933225114997"><ele>3.1666666666666665</ele><time>2026-04-06T14:07:10.845Z</time></trkpt><trkpt lat="53.54050367993253" lon="14.798058978708548"><ele>3.0</ele><time>2026-04-06T14:07:11.846Z</time></trkpt><trkpt lat="53.54051694540201" lon="14.798227353358554"><ele>3.0</ele><time>2026-04-06T14:07:12.846Z</time></trkpt><trkpt lat="53.54054494796326" lon="14.798389357418262"><ele>3.0</ele><time>2026-04-06T14:07:13.846Z</time></trkpt><trkpt lat="53.540580180641456" lon="14.798593190488706"><ele>3.0</ele><time>2026-04-06T14:07:14.845Z</time></trkpt><trkpt lat="53.54063065261884" lon="14.79878642747683"><ele>3.0</ele><time>2026-04-06T14:07:15.845Z</time></trkpt><trkpt lat="53.54066024978907" lon="14.798985725543531"><ele>3.25</ele><time>2026-04-06T14:07:16.845Z</time></trkpt><trkpt lat="53.540694676480925" lon="14.799162285342817"><ele>3.5</ele><time>2026-04-06T14:07:17.846Z</time></trkpt><trkpt lat="53.54071462169383" lon="14.799372153619606"><ele>3.75</ele><time>2026-04-06T14:07:18.846Z</time></trkpt><trkpt lat="53.54076141915034" lon="14.799543398702994"><ele>4.0</ele><time>2026-04-06T14:07:19.846Z</time></trkpt><trkpt lat="53.5407863826132" lon="14.799727325407515"><ele>4.0</ele><time>2026-04-06T14:07:20.846Z</time></trkpt><trkpt lat="53.54081628587222" lon="14.799894431257346"><ele>4.0</ele><time>2026-04-06T14:07:21.846Z</time></trkpt><trkpt lat="53.54084318801195" lon="14.800041442908833"><ele>4.0</ele><time>2026-04-06T14:07:22.846Z</time></trkpt><trkpt lat="53.540861689264275" lon="14.800222838268002"><ele>4.0</ele><time>2026-04-06T14:07:23.846Z</time></trkpt><trkpt lat="53.54090956914246" lon="14.800404230933427"><ele>4.0</ele><time>2026-04-06T14:07:24.846Z</time></trkpt><trkpt lat="53.540937404442055" lon="14.800566646863238"><ele>4.0</ele><time>2026-04-06T14:07:25.846Z</time></trkpt><trkpt lat="53.54095802420722" lon="14.800781172270824"><ele>4.0</ele><time>2026-04-06T14:07:26.846Z</time></trkpt><trkpt lat="53.54100357667679" lon="14.800974195460343"><ele>4.0</ele><time>2026-04-06T14:07:27.846Z</time></trkpt><trkpt lat="53.541036016195996" lon="14.801165632917408"><ele>4.0</ele><time>2026-04-06T14:07:28.846Z</time></trkpt><trkpt lat="53.54106818471583" lon="14.801361357809101"><ele>4.0</ele><time>2026-04-06T14:07:29.846Z</time></trkpt><trkpt lat="53.541107678991054" lon="14.801566188715618"><ele>4.0</ele><time>2026-04-06T14:07:30.846Z</time></trkpt><trkpt lat="53.54114298013108" lon="14.801754141121059"><ele>4.0</ele><time>2026-04-06T14:07:31.846Z</time></trkpt><trkpt lat="53.54117058016994" lon="14.80195706986332"><ele>4.0</ele><time>2026-04-06T14:07:32.846Z</time></trkpt><trkpt lat="53.54120049255625" lon="14.80213468235704"><ele>4.0</ele><time>2026-04-06T14:07:33.846Z</time></trkpt><trkpt lat="53.54123055340039" lon="14.802333943284692"><ele>4.0</ele><time>2026-04-06T14:07:34.846Z</time></trkpt><trkpt lat="53.54125870625015" lon="14.802492804376854"><ele>4.0</ele><time>2026-04-06T14:07:35.846Z</time></trkpt><trkpt lat="53.54128769855801" lon="14.802652708320942"><ele>4.0</ele><time>2026-04-06T14:07:36.846Z</time></trkpt><trkpt lat="53.54131531705148" lon="14.802785162859402"><ele>4.0</ele><time>2026-04-06T14:07:37.846Z</time></trkpt><trkpt lat="53.54134528808969" lon="14.802884302112304"><ele>4.25</ele><time>2026-04-06T14:07:39.846Z</time></trkpt><trkpt lat="53.5413988206002" lon="14.802956524912481"><ele>4.5</ele><time>2026-04-06T14:07:43.845Z</time></trkpt><trkpt lat="53.541634410062905" lon="14.802836275725294"><ele>4.75</ele><time>2026-04-06T14:07:44.845Z</time></trkpt><trkpt lat="53.541716539563296" lon="14.802799948830264"><ele>5.0</ele><time>2026-04-06T14:07:45.845Z</time></trkpt><trkpt lat="53.54179176056249" lon="14.802758131748766"><ele>4.8</ele><time>2026-04-06T14:07:46.845Z</time></trkpt><trkpt lat="53.54189980585646" lon="14.802657110200116"><ele>4.6</ele><time>2026-04-06T14:07:48.845Z</time></trkpt><trkpt lat="53.54198101701663" lon="14.802624950867951"><ele>4.4</ele><time>2026-04-06T14:07:49.845Z</time></trkpt><trkpt lat="53.54203793909901" lon="14.802570832185038"><ele>4.2</ele><time>2026-04-06T14:07:50.845Z</time></trkpt><trkpt lat="53.542117388739015" lon="14.802437066262883"><ele>4.0</ele><time>2026-04-06T14:07:52.845Z</time></trkpt><trkpt lat="53.54218208206549" lon="14.802387765694949"><ele>4.0</ele><time>2026-04-06T14:07:53.845Z</time></trkpt><trkpt lat="53.542295433518596" lon="14.802312785947782"><ele>4.0</ele><time>2026-04-06T14:07:55.845Z</time></trkpt><trkpt lat="53.54243371128663" lon="14.80224415988666"><ele>4.0</ele><time>2026-04-06T14:07:57.845Z</time></trkpt><trkpt lat="53.542522838016424" lon="14.802210416513638"><ele>4.0</ele><time>2026-04-06T14:07:58.845Z</time></trkpt><trkpt lat="53.54264380767963" lon="14.802112239585247"><ele>3.9999999999999996</ele><time>2026-04-06T14:08:00.845Z</time></trkpt><trkpt lat="53.54270891577133" lon="14.802052716153511"><ele>4.0</ele><time>2026-04-06T14:08:01.845Z</time></trkpt><trkpt lat="53.54276989325892" lon="14.801989147815988"><ele>4.0</ele><time>2026-04-06T14:08:02.845Z</time></trkpt><trkpt lat="53.54287527820996" lon="14.801913361746541"><ele>4.0</ele><time>2026-04-06T14:08:04.845Z</time></trkpt><trkpt lat="53.54294097079656" lon="14.801863547483055"><ele>3.9999999999999996</ele><time>2026-04-06T14:08:05.845Z</time></trkpt><trkpt lat="53.543015242499564" lon="14.801824590460903"><ele>4.0</ele><time>2026-04-06T14:08:06.845Z</time></trkpt><trkpt lat="53.54309560740326" lon="14.801792190435057"><ele>4.0</ele><time>2026-04-06T14:08:07.845Z</time></trkpt><trkpt lat="53.54317323172541" lon="14.801763219018174"><ele>4.0</ele><time>2026-04-06T14:08:08.845Z</time></trkpt><trkpt lat="53.54325342166034" lon="14.801738212234627"><ele>4.0</ele><time>2026-04-06T14:08:09.845Z</time></trkpt><trkpt lat="53.54334506222335" lon="14.80170609177443"><ele>4.0</ele><time>2026-04-06T14:08:10.845Z</time></trkpt><trkpt lat="53.54344855413202" lon="14.801666475812052"><ele>4.0</ele><time>2026-04-06T14:08:11.845Z</time></trkpt><trkpt lat="53.54355026081884" lon="14.80163773331026"><ele>3.9999999999999996</ele><time>2026-04-06T14:08:12.845Z</time></trkpt><trkpt lat="53.543625283986046" lon="14.801621828583725"><ele>4.0</ele><time>2026-04-06T14:08:13.845Z</time></trkpt><trkpt lat="53.54369784262978" lon="14.801608949377448"><ele>4.0</ele><time>2026-04-06T14:08:14.845Z</time></trkpt><trkpt lat="53.543773718555286" lon="14.801592836520456"><ele>4.0</ele><time>2026-04-06T14:08:15.845Z</time></trkpt><trkpt lat="53.54384046553136" lon="14.801574722186686"><ele>3.9999999999999996</ele><time>2026-04-06T14:08:16.845Z</time></trkpt><trkpt lat="53.543921576849584" lon="14.801529679259723"><ele>4.0</ele><time>2026-04-06T14:08:17.845Z</time></trkpt><trkpt lat="53.544004009996755" lon="14.801496908821418"><ele>4.166666666666666</ele><time>2026-04-06T14:08:18.845Z</time></trkpt><trkpt lat="53.544093914719674" lon="14.801465152909984"><ele>4.333333333333333</ele><time>2026-04-06T14:08:19.845Z</time></trkpt><trkpt lat="53.54418154498725" lon="14.801429663109037"><ele>4.5</ele><time>2026-04-06T14:08:20.845Z</time></trkpt><trkpt lat="53.544257881836955" lon="14.801400216524323"><ele>4.666666666666667</ele><time>2026-04-06T14:08:21.845Z</time></trkpt><trkpt lat="53.54434109436346" lon="14.801372542315304"><ele>4.833333333333334</ele><time>2026-04-06T14:08:22.845Z</time></trkpt><trkpt lat="53.54443119602778" lon="14.801326719908914"><ele>5.0</ele><time>2026-04-06T14:08:23.845Z</time></trkpt><trkpt lat="53.54451915306595" lon="14.80128274095513"><ele>5.0</ele><time>2026-04-06T14:08:24.845Z</time></trkpt><trkpt lat="53.54458343837698" lon="14.801240863170818"><ele>5.0</ele><time>2026-04-06T14:08:25.845Z</time></trkpt><trkpt lat="53.544687786525415" lon="14.80117549818819"><ele>5.0</ele><time>2026-04-06T14:08:27.845Z</time></trkpt><trkpt lat="53.54474830969553" lon="14.80114351669265"><ele>5.0</ele><time>2026-04-06T14:08:28.845Z</time></trkpt><trkpt lat="53.544812254723965" lon="14.801113305605861"><ele>5.0</ele><time>2026-04-06T14:08:29.845Z</time></trkpt><trkpt lat="53.544895931742914" lon="14.801075136634365"><ele>5.0</ele><time>2026-04-06T14:08:31.845Z</time></trkpt><trkpt lat="53.54499019936518" lon="14.801015818492479"><ele>5.0</ele><time>2026-04-06T14:08:34.845Z</time></trkpt><trkpt lat="53.54502686538149" lon="14.800924251964755"><ele>5.0</ele><time>2026-04-06T14:10:05.843Z</time></trkpt><trkpt lat="53.544924291248776" lon="14.800953646632035"><ele>5.0</ele><time>2026-04-06T14:10:09.843Z</time></trkpt><trkpt lat="53.54487608872986" lon="14.801033471455238"><ele>5.0</ele><time>2026-04-06T14:10:10.842Z</time></trkpt><trkpt lat="53.54481847200793" lon="14.801103673949829"><ele>5.0</ele><time>2026-04-06T14:10:11.842Z</time></trkpt><trkpt lat="53.54472850655658" lon="14.801164422752798"><ele>5.0</ele><time>2026-04-06T14:10:13.842Z</time></trkpt><trkpt lat="53.54461691506366" lon="14.801213432557935"><ele>5.0</ele><time>2026-04-06T14:10:14.842Z</time></trkpt><trkpt lat="53.54454653553157" lon="14.801249727281716"><ele>5.0</ele><time>2026-04-06T14:10:15.842Z</time></trkpt><trkpt lat="53.54446743178521" lon="14.801306914846146"><ele>5.0</ele><time>2026-04-06T14:10:17.842Z</time></trkpt><trkpt lat="53.544392189730374" lon="14.801356286427414"><ele>5.0</ele><time>2026-04-06T14:10:20.842Z</time></trkpt><trkpt lat="53.54430782982064" lon="14.801392730643151"><ele>5.0</ele><time>2026-04-06T14:10:23.842Z</time></trkpt><trkpt lat="53.544231245097116" lon="14.801416843053484"><ele>5.0</ele><time>2026-04-06T14:10:25.842Z</time></trkpt><trkpt lat="53.54414137245718" lon="14.801454919789988"><ele>5.0</ele><time>2026-04-06T14:10:27.842Z</time></trkpt><trkpt lat="53.544031692999226" lon="14.801493017482294"><ele>5.0</ele><time>2026-04-06T14:10:29.842Z</time></trkpt><trkpt lat="53.54391897162896" lon="14.801536993813997"><ele>5.0</ele><time>2026-04-06T14:10:31.842Z</time></trkpt><trkpt lat="53.543843327822565" lon="14.801565575963942"><ele>5.0</ele><time>2026-04-06T14:10:33.842Z</time></trkpt><trkpt lat="53.54372508509351" lon="14.801607292921991"><ele>5.0</ele><time>2026-04-06T14:10:35.842Z</time></trkpt><trkpt lat="53.54362898955508" lon="14.801623785746735"><ele>4.8</ele><time>2026-04-06T14:10:37.842Z</time></trkpt><trkpt lat="53.543566874063465" lon="14.801659270569084"><ele>4.6</ele><time>2026-04-06T14:10:38.842Z</time></trkpt><trkpt lat="53.54347378622033" lon="14.80165989521434"><ele>4.4</ele><time>2026-04-06T14:10:39.842Z</time></trkpt><trkpt lat="53.54336371271371" lon="14.801719767840805"><ele>4.2</ele><time>2026-04-06T14:10:41.842Z</time></trkpt><trkpt lat="53.54328410773115" lon="14.801762513530305"><ele>4.0</ele><time>2026-04-06T14:10:43.842Z</time></trkpt><trkpt lat="53.543173884036314" lon="14.801803932143"><ele>3.9999999999999996</ele><time>2026-04-06T14:10:45.842Z</time></trkpt><trkpt lat="53.54310538678171" lon="14.801825572935675"><ele>4.0</ele><time>2026-04-06T14:10:46.842Z</time></trkpt><trkpt lat="53.54302936570159" lon="14.801863379830255"><ele>4.0</ele><time>2026-04-06T14:10:47.842Z</time></trkpt><trkpt lat="53.542956786479884" lon="14.801903244212498"><ele>4.0</ele><time>2026-04-06T14:10:48.842Z</time></trkpt><trkpt lat="53.542879843827734" lon="14.801926916892711"><ele>3.9999999999999996</ele><time>2026-04-06T14:10:49.842Z</time></trkpt><trkpt lat="53.542805251226824" lon="14.80197242046614"><ele>4.0</ele><time>2026-04-06T14:10:50.842Z</time></trkpt><trkpt lat="53.542738973834986" lon="14.802058257786133"><ele>4.0</ele><time>2026-04-06T14:10:51.842Z</time></trkpt><trkpt lat="53.54263764402655" lon="14.802108077655792"><ele>4.0</ele><time>2026-04-06T14:10:52.842Z</time></trkpt><trkpt lat="53.542544597154524" lon="14.802184252797572"><ele>4.0</ele><time>2026-04-06T14:10:53.842Z</time></trkpt><trkpt lat="53.54244204910747" lon="14.802247199282505"><ele>4.0</ele><time>2026-04-06T14:10:54.842Z</time></trkpt><trkpt lat="53.54233360756821" lon="14.802315849924204"><ele>4.0</ele><time>2026-04-06T14:10:55.842Z</time></trkpt><trkpt lat="53.542231738524386" lon="14.802331941410499"><ele>4.0</ele><time>2026-04-06T14:10:56.842Z</time></trkpt><trkpt lat="53.54213506470808" lon="14.802360919624313"><ele>4.0</ele><time>2026-04-06T14:10:57.842Z</time></trkpt><trkpt lat="53.54207630078283" lon="14.802430985701491"><ele>4.0</ele><time>2026-04-06T14:10:58.842Z</time></trkpt><trkpt lat="53.541982492410376" lon="14.80261442482272"><ele>4.0</ele><time>2026-04-06T14:11:00.842Z</time></trkpt><trkpt lat="53.5419110487329" lon="14.802619397574025"><ele>4.0</ele><time>2026-04-06T14:11:01.842Z</time></trkpt><trkpt lat="53.54181255105781" lon="14.802617589067838"><ele>3.9999999999999996</ele><time>2026-04-06T14:11:02.842Z</time></trkpt><trkpt lat="53.54170555133687" lon="14.802564195643562"><ele>4.0</ele><time>2026-04-06T14:11:03.842Z</time></trkpt><trkpt lat="53.54161832128824" lon="14.802542583902856"><ele>4.0</ele><time>2026-04-06T14:11:04.842Z</time></trkpt><trkpt lat="53.541578032376776" lon="14.802651005941318"><ele>4.0</ele><time>2026-04-06T14:11:05.842Z</time></trkpt><trkpt lat="53.541518488891015" lon="14.802700503354489"><ele>3.9999999999999996</ele><time>2026-04-06T14:11:06.842Z</time></trkpt><trkpt lat="53.54145200796162" lon="14.802724813344547"><ele>4.0</ele><time>2026-04-06T14:11:07.842Z</time></trkpt><trkpt lat="53.541376003294985" lon="14.802705877694377"><ele>3.9999999999999996</ele><time>2026-04-06T14:11:09.842Z</time></trkpt><trkpt lat="53.54129386442217" lon="14.802677175371931"><ele>4.0</ele><time>2026-04-06T14:11:12.842Z</time></trkpt><trkpt lat="53.54126284492726" lon="14.802561498197605"><ele>4.0</ele><time>2026-04-06T14:11:14.842Z</time></trkpt><trkpt lat="53.54127357766191" lon="14.802407033167094"><ele>4.0</ele><time>2026-04-06T14:11:15.842Z</time></trkpt><trkpt lat="53.54125084398857" lon="14.802275741806776"><ele>3.9999999999999996</ele><time>2026-04-06T14:11:16.842Z</time></trkpt><trkpt lat="53.541212180042905" lon="14.802114624642385"><ele>4.0</ele><time>2026-04-06T14:11:17.841Z</time></trkpt><trkpt lat="53.54118324660393" lon="14.801921639136705"><ele>4.0</ele><time>2026-04-06T14:11:18.841Z</time></trkpt><trkpt lat="53.541148740251444" lon="14.801749294425715"><ele>4.0</ele><time>2026-04-06T14:11:19.841Z</time></trkpt><trkpt lat="53.54111587013044" lon="14.801561558758031"><ele>4.0</ele><time>2026-04-06T14:11:20.84Z</time></trkpt><trkpt lat="53.54108220559088" lon="14.80137716852256"><ele>4.0</ele><time>2026-04-06T14:11:21.841Z</time></trkpt><trkpt lat="53.54104752194816" lon="14.801173979779863"><ele>4.0</ele><time>2026-04-06T14:11:22.841Z</time></trkpt><trkpt lat="53.54100954075228" lon="14.800954339337668"><ele>4.0</ele><time>2026-04-06T14:11:23.841Z</time></trkpt><trkpt lat="53.54097515826128" lon="14.800737515862874"><ele>4.0</ele><time>2026-04-06T14:11:24.84Z</time></trkpt><trkpt lat="53.54093705193615" lon="14.800530143835434"><ele>4.0</ele><time>2026-04-06T14:11:25.84Z</time></trkpt><trkpt lat="53.540912634471894" lon="14.800317506361134"><ele>4.0</ele><time>2026-04-06T14:11:26.84Z</time></trkpt><trkpt lat="53.54085422663354" lon="14.800143632874704"><ele>4.0</ele><time>2026-04-06T14:11:27.84Z</time></trkpt><trkpt lat="53.540821266512324" lon="14.79995395050024"><ele>4.0</ele><time>2026-04-06T14:11:28.84Z</time></trkpt><trkpt lat="53.54079445866134" lon="14.799747879695097"><ele>4.0</ele><time>2026-04-06T14:11:29.84Z</time></trkpt><trkpt lat="53.54075271170033" lon="14.799559094622655"><ele>4.0</ele><time>2026-04-06T14:11:30.84Z</time></trkpt><trkpt lat="53.540721485455414" lon="14.799355546472414"><ele>4.0</ele><time>2026-04-06T14:11:31.84Z</time></trkpt><trkpt lat="53.54069907719808" lon="14.799152898194377"><ele>4.0</ele><time>2026-04-06T14:11:32.84Z</time></trkpt><trkpt lat="53.54066443448893" lon="14.7989412286192"><ele>4.0</ele><time>2026-04-06T14:11:33.84Z</time></trkpt><trkpt lat="53.540641874165935" lon="14.79872187082659"><ele>3.75</ele><time>2026-04-06T14:11:34.84Z</time></trkpt><trkpt lat="53.54059622203711" lon="14.798492210491503"><ele>3.5</ele><time>2026-04-06T14:11:35.84Z</time></trkpt><trkpt lat="53.54055144485127" lon="14.798256708403075"><ele>3.25</ele><time>2026-04-06T14:11:36.84Z</time></trkpt><trkpt lat="53.54052525393558" lon="14.798041039927059"><ele>3.0</ele><time>2026-04-06T14:11:37.84Z</time></trkpt><trkpt lat="53.540482298669794" lon="14.797862692592036"><ele>3.0</ele><time>2026-04-06T14:11:38.84Z</time></trkpt><trkpt lat="53.54044622179446" lon="14.797698643336844"><ele>3.0</ele><time>2026-04-06T14:11:39.84Z</time></trkpt><trkpt lat="53.540417899838225" lon="14.797552739053547"><ele>3.0</ele><time>2026-04-06T14:11:40.84Z</time></trkpt><trkpt lat="53.54039229829998" lon="14.797434776546963"><ele>3.0</ele><time>2026-04-06T14:11:41.84Z</time></trkpt><trkpt lat="53.540389762592916" lon="14.797318871745263"><ele>3.0</ele><time>2026-04-06T14:11:42.84Z</time></trkpt><trkpt lat="53.5404225495942" lon="14.797219325145631"><ele>3.0</ele><time>2026-04-06T14:11:43.84Z</time></trkpt><trkpt lat="53.54049914391068" lon="14.79715652861481"><ele>3.0</ele><time>2026-04-06T14:11:44.84Z</time></trkpt><trkpt lat="53.54061088042926" lon="14.797128683199958"><ele>3.0</ele><time>2026-04-06T14:11:45.84Z</time></trkpt><trkpt lat="53.54076268430921" lon="14.7970928852889"><ele>3.0</ele><time>2026-04-06T14:11:46.84Z</time></trkpt><trkpt lat="53.54092177463024" lon="14.79702295336003"><ele>3.0</ele><time>2026-04-06T14:11:47.84Z</time></trkpt><trkpt lat="53.54107954832924" lon="14.796939270942923"><ele>3.0</ele><time>2026-04-06T14:11:48.84Z</time></trkpt><trkpt lat="53.541239435925974" lon="14.796842322275872"><ele>3.0</ele><time>2026-04-06T14:11:49.84Z</time></trkpt><trkpt lat="53.54141891039281" lon="14.796748501675543"><ele>3.0</ele><time>2026-04-06T14:11:50.84Z</time></trkpt><trkpt lat="53.54159744359217" lon="14.796661577385663"><ele>3.0</ele><time>2026-04-06T14:11:51.84Z</time></trkpt><trkpt lat="53.54177381150818" lon="14.796577153974908"><ele>3.0</ele><time>2026-04-06T14:11:52.84Z</time></trkpt><trkpt lat="53.54193082252132" lon="14.796494508572529"><ele>3.0</ele><time>2026-04-06T14:11:53.84Z</time></trkpt><trkpt lat="53.54208490367354" lon="14.796414185785354"><ele>2.6666666666666665</ele><time>2026-04-06T14:11:54.84Z</time></trkpt><trkpt lat="53.54224392356101" lon="14.796328384032693"><ele>2.333333333333333</ele><time>2026-04-06T14:11:55.84Z</time></trkpt><trkpt lat="53.542402727162596" lon="14.796245157433164"><ele>2.0</ele><time>2026-04-06T14:11:56.84Z</time></trkpt><trkpt lat="53.54256313442139" lon="14.79619024873655"><ele>2.0</ele><time>2026-04-06T14:11:57.84Z</time></trkpt><trkpt lat="53.542716539077944" lon="14.796103519545872"><ele>2.0</ele><time>2026-04-06T14:11:58.84Z</time></trkpt><trkpt lat="53.54286974490821" lon="14.796026161115819"><ele>2.0</ele><time>2026-04-06T14:11:59.84Z</time></trkpt><trkpt lat="53.54302042290908" lon="14.795958501683911"><ele>1.75</ele><time>2026-04-06T14:12:00.84Z</time></trkpt><trkpt lat="53.54316262825451" lon="14.79588722530371"><ele>1.5</ele><time>2026-04-06T14:12:01.84Z</time></trkpt><trkpt lat="53.543298093487984" lon="14.79581303432291"><ele>1.25</ele><time>2026-04-06T14:12:02.84Z</time></trkpt><trkpt lat="53.54343243242303" lon="14.795738953902848"><ele>1.0</ele><time>2026-04-06T14:12:03.84Z</time></trkpt><trkpt lat="53.54356280781048" lon="14.795674041956463"><ele>1.0</ele><time>2026-04-06T14:12:04.84Z</time></trkpt><trkpt lat="53.54367921988021" lon="14.795611218320545"><ele>1.0</ele><time>2026-04-06T14:12:05.84Z</time></trkpt><trkpt lat="53.543793759317" lon="14.79555409079175"><ele>1.0</ele><time>2026-04-06T14:12:06.84Z</time></trkpt><trkpt lat="53.54390204155735" lon="14.795502574337954"><ele>1.0</ele><time>2026-04-06T14:12:07.84Z</time></trkpt><trkpt lat="53.54400935866707" lon="14.795452577059056"><ele>1.5</ele><time>2026-04-06T14:12:08.84Z</time></trkpt><trkpt lat="53.54411672093763" lon="14.795400041032435"><ele>2.0</ele><time>2026-04-06T14:12:09.84Z</time></trkpt><trkpt lat="53.54422639889354" lon="14.79534197859429"><ele>2.5</ele><time>2026-04-06T14:12:10.84Z</time></trkpt><trkpt lat="53.544336217515934" lon="14.795285690837614"><ele>3.0</ele><time>2026-04-06T14:12:11.84Z</time></trkpt><trkpt lat="53.54444705048262" lon="14.795233297727291"><ele>3.0</ele><time>2026-04-06T14:12:12.84Z</time></trkpt><trkpt lat="53.544555743387846" lon="14.79518436679349"><ele>3.0</ele><time>2026-04-06T14:12:13.84Z</time></trkpt><trkpt lat="53.544665666302784" lon="14.79513036004769"><ele>3.0</ele><time>2026-04-06T14:12:14.84Z</time></trkpt><trkpt lat="53.544775938682555" lon="14.795069753572388"><ele>3.0</ele><time>2026-04-06T14:12:15.84Z</time></trkpt><trkpt lat="53.54488820911221" lon="14.795007942072871"><ele>3.25</ele><time>2026-04-06T14:12:16.84Z</time></trkpt><trkpt lat="53.545000309270144" lon="14.794946278233265"><ele>3.5</ele><time>2026-04-06T14:12:17.84Z</time></trkpt><trkpt lat="53.54510948189197" lon="14.794892596610971"><ele>3.75</ele><time>2026-04-06T14:12:18.84Z</time></trkpt><trkpt lat="53.54522204832496" lon="14.794838531806345"><ele>4.0</ele><time>2026-04-06T14:12:19.84Z</time></trkpt><trkpt lat="53.54533736340846" lon="14.794782746822351"><ele>3.8000000000000003</ele><time>2026-04-06T14:12:20.84Z</time></trkpt><trkpt lat="53.545454155855296" lon="14.7947271179993"><ele>3.6000000000000005</ele><time>2026-04-06T14:12:21.84Z</time></trkpt><trkpt lat="53.54556938988877" lon="14.794673755566814"><ele>3.4</ele><time>2026-04-06T14:12:22.84Z</time></trkpt><trkpt lat="53.54567683512671" lon="14.79462201105381"><ele>3.2</ele><time>2026-04-06T14:12:23.84Z</time></trkpt><trkpt lat="53.54576956906319" lon="14.794579748808832"><ele>3.0</ele><time>2026-04-06T14:12:24.84Z</time></trkpt><trkpt lat="53.545847423540756" lon="14.794539612964547"><ele>3.0</ele><time>2026-04-06T14:12:25.84Z</time></trkpt><trkpt lat="53.54594184139964" lon="14.794492108959615"><ele>3.0</ele><time>2026-04-06T14:12:27.84Z</time></trkpt><trkpt lat="53.546065204916616" lon="14.794432294851577"><ele>3.0</ele><time>2026-04-06T14:13:06.84Z</time></trkpt><trkpt lat="53.54616763883966" lon="14.794381086044371"><ele>3.0</ele><time>2026-04-06T14:13:07.84Z</time></trkpt><trkpt lat="53.546277079281715" lon="14.794325608622447"><ele>3.0</ele><time>2026-04-06T14:13:08.84Z</time></trkpt><trkpt lat="53.546364651081994" lon="14.794281216832918"><ele>3.0</ele><time>2026-04-06T14:13:09.84Z</time></trkpt><trkpt lat="53.54638987234949" lon="14.79411713519231"><ele>3.0</ele><time>2026-04-06T14:13:12.84Z</time></trkpt><trkpt lat="53.546286086961565" lon="14.794143195760316"><ele>3.0</ele><time>2026-04-06T14:13:14.84Z</time></trkpt><trkpt lat="53.54618904337819" lon="14.794256984478677"><ele>3.0</ele><time>2026-04-06T14:13:15.84Z</time></trkpt><trkpt lat="53.54599980061581" lon="14.794021394508407"><ele>3.333333333333333</ele><time>2026-04-06T14:13:16.84Z</time></trkpt><trkpt lat="53.54585935864165" lon="14.794095535239256"><ele>3.6666666666666665</ele><time>2026-04-06T14:13:17.84Z</time></trkpt><trkpt lat="53.54571104548391" lon="14.79417621458397"><ele>4.0</ele><time>2026-04-06T14:13:18.84Z</time></trkpt><trkpt lat="53.54554230899424" lon="14.79426800381053"><ele>4.0</ele><time>2026-04-06T14:13:19.84Z</time></trkpt><trkpt lat="53.545356486644295" lon="14.794366552512926"><ele>4.0</ele><time>2026-04-06T14:13:20.84Z</time></trkpt><trkpt lat="53.54522127706933" lon="14.794403336899718"><ele>4.0</ele><time>2026-04-06T14:13:21.84Z</time></trkpt><trkpt lat="53.54503328186533" lon="14.794424717235643"><ele>4.0</ele><time>2026-04-06T14:13:22.84Z</time></trkpt><trkpt lat="53.5449050445164" lon="14.79448617945808"><ele>4.0</ele><time>2026-04-06T14:13:23.839Z</time></trkpt><trkpt lat="53.54482933999907" lon="14.79452505871224"><ele>4.0</ele><time>2026-04-06T14:13:24.838Z</time></trkpt><trkpt lat="53.54476723708517" lon="14.79457657863735"><ele>4.0</ele><time>2026-04-06T14:13:26.839Z</time></trkpt><trkpt lat="53.54428873267673" lon="14.795800544805497"><ele>4.0</ele><time>2026-04-06T14:13:27.839Z</time></trkpt><trkpt lat="53.544492167218415" lon="14.795909622082185"><ele>4.0</ele><time>2026-04-06T14:13:28.839Z</time></trkpt><trkpt lat="53.54465486608809" lon="14.79607451757858"><ele>4.0</ele><time>2026-04-06T14:13:29.838Z</time></trkpt><trkpt lat="53.544675613104054" lon="14.796317252082641"><ele>4.0</ele><time>2026-04-06T14:13:30.838Z</time></trkpt><trkpt lat="53.54472414422617" lon="14.796507951920209"><ele>4.0</ele><time>2026-04-06T14:13:31.838Z</time></trkpt><trkpt lat="53.54477332193049" lon="14.796683836256415"><ele>4.0</ele><time>2026-04-06T14:13:32.839Z</time></trkpt><trkpt lat="53.545202776722256" lon="14.796740692026054"><ele>3.75</ele><time>2026-04-06T14:13:33.838Z</time></trkpt><trkpt lat="53.54524322806288" lon="14.796944301974149"><ele>3.5</ele><time>2026-04-06T14:13:34.838Z</time></trkpt><trkpt lat="53.54528606112648" lon="14.797156790787115"><ele>3.25</ele><time>2026-04-06T14:13:35.839Z</time></trkpt><trkpt lat="53.54532519830015" lon="14.79735433749096"><ele>3.0</ele><time>2026-04-06T14:13:36.839Z</time></trkpt><trkpt lat="53.54536206256515" lon="14.797541636671069"><ele>2.8</ele><time>2026-04-06T14:13:37.839Z</time></trkpt><trkpt lat="53.54539872030294" lon="14.797756744259452"><ele>2.5999999999999996</ele><time>2026-04-06T14:13:38.839Z</time></trkpt><trkpt lat="53.545434839463674" lon="14.797954710654833"><ele>2.4000000000000004</ele><time>2026-04-06T14:13:39.839Z</time></trkpt><trkpt lat="53.54546650741024" lon="14.79811487255153"><ele>2.2</ele><time>2026-04-06T14:13:40.839Z</time></trkpt><trkpt lat="53.54549792289844" lon="14.79823895713685"><ele>2.0</ele><time>2026-04-06T14:13:41.839Z</time></trkpt><trkpt lat="53.545549814626455" lon="14.798382932342673"><ele>2.0</ele><time>2026-04-06T14:13:43.839Z</time></trkpt><trkpt lat="53.545593690115574" lon="14.798487291921457"><ele>2.0</ele><time>2026-04-06T14:13:47.839Z</time></trkpt><trkpt lat="53.54563252656971" lon="14.79860421325198"><ele>2.0</ele><time>2026-04-06T14:13:52.839Z</time></trkpt><trkpt lat="53.54566995923858" lon="14.798790474609323"><ele>2.0</ele><time>2026-04-06T14:13:54.839Z</time></trkpt><trkpt lat="53.54558811103027" lon="14.798953200612502"><ele>2.0</ele><time>2026-04-06T14:13:55.839Z</time></trkpt><trkpt lat="53.545605718843255" lon="14.799088774962247"><ele>2.0</ele><time>2026-04-06T14:13:56.839Z</time></trkpt><trkpt lat="53.54563380731671" lon="14.799265109297334"><ele>2.0</ele><time>2026-04-06T14:13:57.839Z</time></trkpt><trkpt lat="53.545666229431106" lon="14.799446644082474"><ele>2.0</ele><time>2026-04-06T14:13:58.839Z</time></trkpt><trkpt lat="53.54581380454282" lon="14.799575026915015"><ele>2.0</ele><time>2026-04-06T14:13:59.839Z</time></trkpt><trkpt lat="53.5458407922739" lon="14.799728302396456"><ele>2.2</ele><time>2026-04-06T14:14:00.839Z</time></trkpt><trkpt lat="53.545865495252166" lon="14.799863905968222"><ele>2.4000000000000004</ele><time>2026-04-06T14:14:01.839Z</time></trkpt><trkpt lat="53.54588560390188" lon="14.79996812035925"><ele>2.5999999999999996</ele><time>2026-04-06T14:14:02.839Z</time></trkpt><trkpt lat="53.54604749724085" lon="14.800000428994712"><ele>2.8</ele><time>2026-04-06T14:14:03.839Z</time></trkpt><trkpt lat="53.54607489558595" lon="14.800147969386876"><ele>3.0</ele><time>2026-04-06T14:14:05.839Z</time></trkpt><trkpt lat="53.54609712224695" lon="14.800271142294783"><ele>3.333333333333333</ele><time>2026-04-06T14:14:32.839Z</time></trkpt><trkpt lat="53.54611746330395" lon="14.80038832272509"><ele>3.6666666666666665</ele><time>2026-04-06T14:14:44.839Z</time></trkpt><trkpt lat="53.54575630225814" lon="14.80044707378865"><ele>4.0</ele><time>2026-04-06T14:15:05.839Z</time></trkpt><trkpt lat="53.54567894542075" lon="14.800534615689152"><ele>3.9999999999999996</ele><time>2026-04-06T14:15:07.839Z</time></trkpt><trkpt lat="53.54568871244082" lon="14.800644591847469"><ele>4.0</ele><time>2026-04-06T14:15:12.839Z</time></trkpt><trkpt lat="53.54574080861395" lon="14.800781170578228"><ele>4.0</ele><time>2026-04-06T14:15:14.839Z</time></trkpt><trkpt lat="53.54568002278911" lon="14.800872765134564"><ele>4.0</ele><time>2026-04-06T14:15:16.839Z</time></trkpt><trkpt lat="53.54557623912702" lon="14.80086754161231"><ele>3.9999999999999996</ele><time>2026-04-06T14:19:43.882Z</time></trkpt><trkpt lat="53.545519434815155" lon="14.800811356291542"><ele>4.0</ele><time>2026-04-06T14:20:25.883Z</time></trkpt><trkpt lat="53.54574939618898" lon="14.800803218459242"><ele>3.9999999999999996</ele><time>2026-04-06T14:22:58.883Z</time></trkpt><trkpt lat="53.545726092959214" lon="14.800907132259187"><ele>4.0</ele><time>2026-04-06T14:23:02.883Z</time></trkpt><trkpt lat="53.54560007936037" lon="14.8009156625532"><ele>4.0</ele><time>2026-04-06T14:25:10.88Z</time></trkpt><trkpt lat="53.545555004443266" lon="14.800774996339268"><ele>4.0</ele><time>2026-04-06T14:25:13.88Z</time></trkpt><trkpt lat="53.54560217433438" lon="14.800688877593567"><ele>3.9999999999999996</ele><time>2026-04-06T14:25:16.88Z</time></trkpt><trkpt lat="53.54567764150398" lon="14.800684040292017"><ele>4.0</ele><time>2026-04-06T14:25:18.88Z</time></trkpt><trkpt lat="53.54564432517067" lon="14.800577248537795"><ele>4.0</ele><time>2026-04-06T14:26:45.881Z</time></trkpt><trkpt lat="53.545561063502234" lon="14.800686104938402"><ele>4.0</ele><time>2026-04-06T14:26:47.881Z</time></trkpt><trkpt lat="53.54546886301879" lon="14.800738292639977"><ele>4.0</ele><time>2026-04-06T14:26:49.881Z</time></trkpt><trkpt lat="53.545399963377356" lon="14.800856636821294"><ele>4.0</ele><time>2026-04-06T14:26:51.881Z</time></trkpt><trkpt lat="53.54535925610989" lon="14.800973106850527"><ele>4.0</ele><time>2026-04-06T14:26:53.881Z</time></trkpt><trkpt lat="53.54534012819142" lon="14.801155935751325"><ele>4.166666666666666</ele><time>2026-04-06T14:26:55.881Z</time></trkpt><trkpt lat="53.545349577936356" lon="14.80127621362142"><ele>4.333333333333333</ele><time>2026-04-06T14:26:56.881Z</time></trkpt><trkpt lat="53.545363053994066" lon="14.801396342548665"><ele>4.5</ele><time>2026-04-06T14:26:57.881Z</time></trkpt><trkpt lat="53.545368664136646" lon="14.801506229256063"><ele>4.666666666666667</ele><time>2026-04-06T14:26:58.881Z</time></trkpt><trkpt lat="53.54537925507537" lon="14.801686355618545"><ele>4.833333333333334</ele><time>2026-04-06T14:27:00.881Z</time></trkpt><trkpt lat="53.545340555842216" lon="14.801804239944296"><ele>5.0</ele><time>2026-04-06T14:27:01.881Z</time></trkpt><trkpt lat="53.54531669366721" lon="14.801923364845166"><ele>5.833333333333334</ele><time>2026-04-06T14:27:02.881Z</time></trkpt><trkpt lat="53.54529550800573" lon="14.80203429652222"><ele>6.666666666666667</ele><time>2026-04-06T14:27:03.881Z</time></trkpt><trkpt lat="53.54523816878862" lon="14.802128791165403"><ele>7.5</ele><time>2026-04-06T14:27:04.881Z</time></trkpt><trkpt lat="53.545144057401636" lon="14.802150465757721"><ele>8.333333333333334</ele><time>2026-04-06T14:27:05.881Z</time></trkpt><trkpt lat="53.54505920868661" lon="14.802209420060809"><ele>9.166666666666668</ele><time>2026-04-06T14:27:06.881Z</time></trkpt><trkpt lat="53.54497027354922" lon="14.802265634614754"><ele>10.0</ele><time>2026-04-06T14:27:07.881Z</time></trkpt><trkpt lat="53.544882440690714" lon="14.80232976596492"><ele>10.0</ele><time>2026-04-06T14:27:08.881Z</time></trkpt><trkpt lat="53.544795888721396" lon="14.802390589912125"><ele>10.0</ele><time>2026-04-06T14:27:09.881Z</time></trkpt><trkpt lat="53.544707181254395" lon="14.802458367180856"><ele>10.0</ele><time>2026-04-06T14:27:10.881Z</time></trkpt><trkpt lat="53.544603633445114" lon="14.802540114437477"><ele>10.0</ele><time>2026-04-06T14:27:11.881Z</time></trkpt><trkpt lat="53.54449764012717" lon="14.802616136223211"><ele>10.0</ele><time>2026-04-06T14:27:12.881Z</time></trkpt><trkpt lat="53.544387329445165" lon="14.802706536911034"><ele>10.5</ele><time>2026-04-06T14:27:13.881Z</time></trkpt><trkpt lat="53.54426139248345" lon="14.802805105740955"><ele>11.0</ele><time>2026-04-06T14:27:14.881Z</time></trkpt><trkpt lat="53.54413461337896" lon="14.80290151398023"><ele>11.5</ele><time>2026-04-06T14:27:15.879Z</time></trkpt><trkpt lat="53.543997709422534" lon="14.80300926382077"><ele>12.0</ele><time>2026-04-06T14:27:16.879Z</time></trkpt><trkpt lat="53.54385410274018" lon="14.803116442328799"><ele>11.333333333333334</ele><time>2026-04-06T14:27:17.879Z</time></trkpt><trkpt lat="53.54371257660067" lon="14.803219919537769"><ele>10.666666666666668</ele><time>2026-04-06T14:27:18.879Z</time></trkpt><trkpt lat="53.54356744856304" lon="14.803325930333784"><ele>10.0</ele><time>2026-04-06T14:27:19.879Z</time></trkpt><trkpt lat="53.54342199538714" lon="14.803439159276174"><ele>12.0</ele><time>2026-04-06T14:27:20.879Z</time></trkpt><trkpt lat="53.54326960918427" lon="14.803554876412793"><ele>14.0</ele><time>2026-04-06T14:27:21.879Z</time></trkpt><trkpt lat="53.54311892363437" lon="14.80365970145452"><ele>16.0</ele><time>2026-04-06T14:27:22.879Z</time></trkpt><trkpt lat="53.54297099467585" lon="14.80376350143776"><ele>14.666666666666666</ele><time>2026-04-06T14:27:23.879Z</time></trkpt><trkpt lat="53.54281207764831" lon="14.803873989796674"><ele>13.333333333333332</ele><time>2026-04-06T14:27:24.879Z</time></trkpt><trkpt lat="53.54265618476235" lon="14.803983466350223"><ele>12.0</ele><time>2026-04-06T14:27:25.879Z</time></trkpt><trkpt lat="53.54249117046143" lon="14.804099148394746"><ele>12.0</ele><time>2026-04-06T14:27:26.879Z</time></trkpt><trkpt lat="53.54232860189426" lon="14.80421742457322"><ele>12.0</ele><time>2026-04-06T14:27:27.879Z</time></trkpt><trkpt lat="53.54216039129989" lon="14.804336900219106"><ele>12.0</ele><time>2026-04-06T14:27:28.878Z</time></trkpt><trkpt lat="53.54199820505627" lon="14.804448244223384"><ele>12.666666666666668</ele><time>2026-04-06T14:27:29.878Z</time></trkpt><trkpt lat="53.54183479206692" lon="14.804555248518945"><ele>13.333333333333334</ele><time>2026-04-06T14:27:30.878Z</time></trkpt><trkpt lat="53.541670728206086" lon="14.804671985853194"><ele>14.0</ele><time>2026-04-06T14:27:31.878Z</time></trkpt><trkpt lat="53.5415072399675" lon="14.804788729732971"><ele>14.0</ele><time>2026-04-06T14:27:32.878Z</time></trkpt><trkpt lat="53.54133886925958" lon="14.804906172907291"><ele>14.0</ele><time>2026-04-06T14:27:33.878Z</time></trkpt><trkpt lat="53.541167193216054" lon="14.805027543758573"><ele>14.0</ele><time>2026-04-06T14:27:34.878Z</time></trkpt><trkpt lat="53.540990578833004" lon="14.805148358650886"><ele>14.666666666666668</ele><time>2026-04-06T14:27:35.878Z</time></trkpt><trkpt lat="53.54081970019265" lon="14.805267539929691"><ele>15.333333333333332</ele><time>2026-04-06T14:27:36.878Z</time></trkpt><trkpt lat="53.54064271862517" lon="14.805384752648562"><ele>16.0</ele><time>2026-04-06T14:27:37.878Z</time></trkpt><trkpt lat="53.54046827654516" lon="14.805505729560968"><ele>14.333333333333332</ele><time>2026-04-06T14:27:38.878Z</time></trkpt><trkpt lat="53.54029170940458" lon="14.805628332823764"><ele>12.666666666666666</ele><time>2026-04-06T14:27:39.878Z</time></trkpt><trkpt lat="53.54011257701566" lon="14.805756000515531"><ele>11.0</ele><time>2026-04-06T14:27:40.878Z</time></trkpt><trkpt lat="53.539939033193576" lon="14.80588376902568"><ele>11.333333333333332</ele><time>2026-04-06T14:27:41.878Z</time></trkpt><trkpt lat="53.53976706887957" lon="14.806005085852442"><ele>11.666666666666666</ele><time>2026-04-06T14:27:42.878Z</time></trkpt><trkpt lat="53.53959228923743" lon="14.806125216756001"><ele>12.0</ele><time>2026-04-06T14:27:43.878Z</time></trkpt><trkpt lat="53.53941274985681" lon="14.806247262938887"><ele>12.666666666666668</ele><time>2026-04-06T14:27:44.878Z</time></trkpt><trkpt lat="53.53923504082915" lon="14.806371406789038"><ele>13.333333333333334</ele><time>2026-04-06T14:27:45.878Z</time></trkpt><trkpt lat="53.53906037706044" lon="14.8064943965274"><ele>14.0</ele><time>2026-04-06T14:27:46.878Z</time></trkpt><trkpt lat="53.538885538668595" lon="14.806610545041458"><ele>14.333333333333334</ele><time>2026-04-06T14:27:47.878Z</time></trkpt><trkpt lat="53.53870375868645" lon="14.806737288726453"><ele>14.666666666666668</ele><time>2026-04-06T14:27:48.878Z</time></trkpt><trkpt lat="53.53851730176149" lon="14.806861815219872"><ele>15.0</ele><time>2026-04-06T14:27:49.878Z</time></trkpt><trkpt lat="53.5383329276386" lon="14.806985551803074"><ele>15.0</ele><time>2026-04-06T14:27:50.878Z</time></trkpt><trkpt lat="53.53815005371239" lon="14.807101694026462"><ele>15.0</ele><time>2026-04-06T14:27:51.878Z</time></trkpt><trkpt lat="53.53797537422703" lon="14.80721838896526"><ele>15.0</ele><time>2026-04-06T14:27:52.878Z</time></trkpt><trkpt lat="53.537797195814385" lon="14.807328095236098"><ele>15.333333333333332</ele><time>2026-04-06T14:27:53.878Z</time></trkpt><trkpt lat="53.53762262154921" lon="14.807444415680635"><ele>15.666666666666666</ele><time>2026-04-06T14:27:54.878Z</time></trkpt><trkpt lat="53.53745453970749" lon="14.807562584799058"><ele>16.0</ele><time>2026-04-06T14:27:55.878Z</time></trkpt><trkpt lat="53.5372927871391" lon="14.807689091219315"><ele>15.666666666666666</ele><time>2026-04-06T14:27:56.879Z</time></trkpt><trkpt lat="53.53712201516313" lon="14.807804134520266"><ele>15.333333333333332</ele><time>2026-04-06T14:27:57.879Z</time></trkpt><trkpt lat="53.536956240623425" lon="14.807921775593744"><ele>15.0</ele><time>2026-04-06T14:27:58.879Z</time></trkpt><trkpt lat="53.53678177310808" lon="14.808032661125178"><ele>15.0</ele><time>2026-04-06T14:27:59.879Z</time></trkpt><trkpt lat="53.536605615544374" lon="14.808144954029933"><ele>15.0</ele><time>2026-04-06T14:28:00.879Z</time></trkpt><trkpt lat="53.536433708085255" lon="14.808260356092037"><ele>15.0</ele><time>2026-04-06T14:28:01.879Z</time></trkpt><trkpt lat="53.53626457055451" lon="14.808379341985844"><ele>14.0</ele><time>2026-04-06T14:28:02.879Z</time></trkpt><trkpt lat="53.536099128355694" lon="14.808495514872897"><ele>13.0</ele><time>2026-04-06T14:28:03.879Z</time></trkpt><trkpt lat="53.535931896618614" lon="14.808613528278043"><ele>12.0</ele><time>2026-04-06T14:28:04.879Z</time></trkpt><trkpt lat="53.53576733421674" lon="14.808730289878671"><ele>12.0</ele><time>2026-04-06T14:28:05.879Z</time></trkpt><trkpt lat="53.53560271757783" lon="14.808846510546825"><ele>12.0</ele><time>2026-04-06T14:28:06.879Z</time></trkpt><trkpt lat="53.53544642170182" lon="14.808963646410685"><ele>12.0</ele><time>2026-04-06T14:28:07.879Z</time></trkpt><trkpt lat="53.535300357467314" lon="14.80906833297712"><ele>11.75</ele><time>2026-04-06T14:28:08.879Z</time></trkpt><trkpt lat="53.53515850044799" lon="14.809163177020627"><ele>11.5</ele><time>2026-04-06T14:28:09.879Z</time></trkpt><trkpt lat="53.53501995982909" lon="14.80925873530188"><ele>11.25</ele><time>2026-04-06T14:28:10.879Z</time></trkpt><trkpt lat="53.53489641540075" lon="14.809353612985944"><ele>11.0</ele><time>2026-04-06T14:28:11.879Z</time></trkpt><trkpt lat="53.53477711924733" lon="14.809432470689691"><ele>11.0</ele><time>2026-04-06T14:28:12.879Z</time></trkpt><trkpt lat="53.53466045208795" lon="14.809495726267478"><ele>11.0</ele><time>2026-04-06T14:28:13.879Z</time></trkpt><trkpt lat="53.5345446171386" lon="14.809530199330178"><ele>11.0</ele><time>2026-04-06T14:28:14.879Z</time></trkpt><trkpt lat="53.53443407075342" lon="14.809522893417753"><ele>11.0</ele><time>2026-04-06T14:28:15.879Z</time></trkpt><trkpt lat="53.53433492137906" lon="14.80946766106281"><ele>11.25</ele><time>2026-04-06T14:28:16.879Z</time></trkpt><trkpt lat="53.53423529909002" lon="14.809363756737158"><ele>11.5</ele><time>2026-04-06T14:28:17.879Z</time></trkpt><trkpt lat="53.534084293963495" lon="14.809255066708106"><ele>11.75</ele><time>2026-04-06T14:28:18.879Z</time></trkpt><trkpt lat="53.53394130037933" lon="14.809155020053455"><ele>12.0</ele><time>2026-04-06T14:28:19.879Z</time></trkpt><trkpt lat="53.53380805726814" lon="14.809058566476846"><ele>13.75</ele><time>2026-04-06T14:28:20.879Z</time></trkpt><trkpt lat="53.53368079859906" lon="14.808978804539592"><ele>15.5</ele><time>2026-04-06T14:28:21.879Z</time></trkpt><trkpt lat="53.53354172484845" lon="14.808952772380282"><ele>17.25</ele><time>2026-04-06T14:28:22.879Z</time></trkpt><trkpt lat="53.53342239108567" lon="14.808993449166366"><ele>19.0</ele><time>2026-04-06T14:28:23.879Z</time></trkpt><trkpt lat="53.5333385070947" lon="14.809042386643814"><ele>19.0</ele><time>2026-04-06T14:28:24.879Z</time></trkpt><trkpt lat="53.53325611960703" lon="14.809083678657306"><ele>19.0</ele><time>2026-04-06T14:28:25.879Z</time></trkpt><trkpt lat="53.533162485862675" lon="14.809106544269252"><ele>19.0</ele><time>2026-04-06T14:28:26.879Z</time></trkpt><trkpt lat="53.53308001003834" lon="14.809155858279238"><ele>19.0</ele><time>2026-04-06T14:28:27.879Z</time></trkpt><trkpt lat="53.53299641764457" lon="14.809210440967636"><ele>19.0</ele><time>2026-04-06T14:28:28.879Z</time></trkpt><trkpt lat="53.53291963741391" lon="14.809254970242531"><ele>19.0</ele><time>2026-04-06T14:28:29.879Z</time></trkpt><trkpt lat="53.53284905134692" lon="14.80929575477289"><ele>18.5</ele><time>2026-04-06T14:28:30.879Z</time></trkpt><trkpt lat="53.53278624466351" lon="14.809335026720335"><ele>18.0</ele><time>2026-04-06T14:28:31.879Z</time></trkpt><trkpt lat="53.53268027642098" lon="14.809382782696153"><ele>17.5</ele><time>2026-04-06T14:28:33.879Z</time></trkpt><trkpt lat="53.532595074207336" lon="14.809419447310438"><ele>17.0</ele><time>2026-04-06T14:28:35.879Z</time></trkpt><trkpt lat="53.53253219122369" lon="14.809456490838611"><ele>16.5</ele><time>2026-04-06T14:28:37.879Z</time></trkpt><trkpt lat="53.53244303534367" lon="14.809507289530217"><ele>16.0</ele><time>2026-04-06T14:28:39.879Z</time></trkpt><trkpt lat="53.53237690945823" lon="14.809545467922787"><ele>15.999999999999998</ele><time>2026-04-06T14:28:41.879Z</time></trkpt><trkpt lat="53.53229714247757" lon="14.809585832077532"><ele>16.0</ele><time>2026-04-06T14:28:44.879Z</time></trkpt><trkpt lat="53.532207129990475" lon="14.809639716223987"><ele>16.0</ele><time>2026-04-06T14:28:47.879Z</time></trkpt><trkpt lat="53.532126794958316" lon="14.809683776105198"><ele>16.0</ele><time>2026-04-06T14:28:50.879Z</time></trkpt><trkpt lat="53.53203975746359" lon="14.809714386482067"><ele>15.999999999999998</ele><time>2026-04-06T14:28:53.879Z</time></trkpt><trkpt lat="53.53197777785942" lon="14.809742906191229"><ele>16.0</ele><time>2026-04-06T14:28:55.879Z</time></trkpt><trkpt lat="53.5319162286017" lon="14.809802679066197"><ele>15.200000000000001</ele><time>2026-04-06T14:28:56.879Z</time></trkpt><trkpt lat="53.53182952946677" lon="14.80988072922921"><ele>14.400000000000002</ele><time>2026-04-06T14:31:54.865Z</time></trkpt><trkpt lat="53.531746562119466" lon="14.80992601007597"><ele>13.6</ele><time>2026-04-06T14:31:55.864Z</time></trkpt><trkpt lat="53.5316657896155" lon="14.809971438926524"><ele>12.8</ele><time>2026-04-06T14:31:56.864Z</time></trkpt><trkpt lat="53.531571088254985" lon="14.81002393606767"><ele>12.0</ele><time>2026-04-06T14:31:57.864Z</time></trkpt><trkpt lat="53.53146493725093" lon="14.810076219670552"><ele>12.0</ele><time>2026-04-06T14:31:58.863Z</time></trkpt><trkpt lat="53.53135540386687" lon="14.81012752935791"><ele>12.0</ele><time>2026-04-06T14:31:59.863Z</time></trkpt><trkpt lat="53.531257479052776" lon="14.810168963452913"><ele>12.0</ele><time>2026-04-06T14:32:00.863Z</time></trkpt><trkpt lat="53.531170922526485" lon="14.810205788998044"><ele>12.0</ele><time>2026-04-06T14:32:01.862Z</time></trkpt><trkpt lat="53.53109324860315" lon="14.810237915974882"><ele>12.0</ele><time>2026-04-06T14:32:02.862Z</time></trkpt><trkpt lat="53.53102544808944" lon="14.810272138131939"><ele>11.666666666666666</ele><time>2026-04-06T14:32:03.862Z</time></trkpt><trkpt lat="53.53095837872024" lon="14.810309012760825"><ele>11.333333333333334</ele><time>2026-04-06T14:32:04.862Z</time></trkpt><trkpt lat="53.530891122728015" lon="14.81034938646671"><ele>11.0</ele><time>2026-04-06T14:32:05.862Z</time></trkpt><trkpt lat="53.53082637417929" lon="14.810389776207364"><ele>10.666666666666668</ele><time>2026-04-06T14:32:06.861Z</time></trkpt><trkpt lat="53.53072227187089" lon="14.81047567829836"><ele>10.333333333333334</ele><time>2026-04-06T14:32:08.861Z</time></trkpt><trkpt lat="53.5306668587263" lon="14.810601585148643"><ele>10.0</ele><time>2026-04-06T14:32:10.861Z</time></trkpt><trkpt lat="53.53069008207836" lon="14.81081175643171"><ele>10.0</ele><time>2026-04-06T14:32:12.86Z</time></trkpt><trkpt lat="53.53076573967903" lon="14.810924153087575"><ele>10.0</ele><time>2026-04-06T14:32:13.86Z</time></trkpt><trkpt lat="53.53086621784114" lon="14.811056141005539"><ele>10.0</ele><time>2026-04-06T14:32:14.86Z</time></trkpt><trkpt lat="53.53096845833505" lon="14.811192095269337"><ele>10.0</ele><time>2026-04-06T14:32:15.86Z</time></trkpt><trkpt lat="53.53107156844027" lon="14.811323278802245"><ele>10.25</ele><time>2026-04-06T14:32:16.86Z</time></trkpt><trkpt lat="53.53118357571731" lon="14.811457190505164"><ele>10.5</ele><time>2026-04-06T14:32:17.86Z</time></trkpt><trkpt lat="53.53129109637268" lon="14.811608393700059"><ele>10.75</ele><time>2026-04-06T14:32:18.86Z</time></trkpt><trkpt lat="53.53141026253789" lon="14.811711958023311"><ele>11.0</ele><time>2026-04-06T14:32:19.86Z</time></trkpt><trkpt lat="53.53152468661982" lon="14.811806879375357"><ele>12.5</ele><time>2026-04-06T14:32:20.86Z</time></trkpt><trkpt lat="53.531648206865945" lon="14.811893261105705"><ele>14.0</ele><time>2026-04-06T14:32:21.86Z</time></trkpt><trkpt lat="53.531773532893965" lon="14.811967376065883"><ele>15.5</ele><time>2026-04-06T14:32:22.86Z</time></trkpt><trkpt lat="53.53190756650821" lon="14.812027860982855"><ele>17.0</ele><time>2026-04-06T14:32:23.859Z</time></trkpt><trkpt lat="53.532053371917016" lon="14.81207704365565"><ele>14.666666666666668</ele><time>2026-04-06T14:32:24.859Z</time></trkpt><trkpt lat="53.532195717792476" lon="14.81210576535526"><ele>12.333333333333334</ele><time>2026-04-06T14:32:25.859Z</time></trkpt><trkpt lat="53.53234905161793" lon="14.812122299979125"><ele>10.0</ele><time>2026-04-06T14:32:26.859Z</time></trkpt><trkpt lat="53.53250537660287" lon="14.812120275171454"><ele>10.0</ele><time>2026-04-06T14:32:27.859Z</time></trkpt><trkpt lat="53.532663349172616" lon="14.812085576068974"><ele>10.0</ele><time>2026-04-06T14:32:28.859Z</time></trkpt><trkpt lat="53.532821647960276" lon="14.812026175966627"><ele>10.0</ele><time>2026-04-06T14:32:29.859Z</time></trkpt><trkpt lat="53.53298108517838" lon="14.811965072602337"><ele>11.0</ele><time>2026-04-06T14:32:30.859Z</time></trkpt><trkpt lat="53.53314149988525" lon="14.811902454878696"><ele>12.0</ele><time>2026-04-06T14:32:31.859Z</time></trkpt><trkpt lat="53.533298110226404" lon="14.81184021470043"><ele>13.0</ele><time>2026-04-06T14:32:32.859Z</time></trkpt><trkpt lat="53.53346306289348" lon="14.8117793188858"><ele>13.666666666666666</ele><time>2026-04-06T14:32:33.859Z</time></trkpt><trkpt lat="53.53361775487362" lon="14.811720934684953"><ele>14.333333333333332</ele><time>2026-04-06T14:32:34.859Z</time></trkpt><trkpt lat="53.53377865554753" lon="14.811660644418053"><ele>15.0</ele><time>2026-04-06T14:32:35.859Z</time></trkpt><trkpt lat="53.53393631034086" lon="14.811590233578311"><ele>15.333333333333332</ele><time>2026-04-06T14:32:36.859Z</time></trkpt><trkpt lat="53.53408957028591" lon="14.811530598087588"><ele>15.666666666666666</ele><time>2026-04-06T14:32:37.859Z</time></trkpt><trkpt lat="53.53424627875429" lon="14.811459946746076"><ele>16.0</ele><time>2026-04-06T14:32:38.859Z</time></trkpt><trkpt lat="53.53440223520134" lon="14.811393306818859"><ele>16.0</ele><time>2026-04-06T14:32:39.859Z</time></trkpt><trkpt lat="53.5345444373372" lon="14.811349819409315"><ele>16.0</ele><time>2026-04-06T14:32:40.859Z</time></trkpt><trkpt lat="53.534672031931166" lon="14.811328563560478"><ele>16.0</ele><time>2026-04-06T14:32:41.859Z</time></trkpt><trkpt lat="53.534787335926964" lon="14.811329832337464"><ele>16.0</ele><time>2026-04-06T14:32:42.859Z</time></trkpt><trkpt lat="53.53488954669503" lon="14.811355567871228"><ele>16.0</ele><time>2026-04-06T14:32:43.859Z</time></trkpt><trkpt lat="53.53497823701727" lon="14.811415764806698"><ele>16.0</ele><time>2026-04-06T14:32:44.859Z</time></trkpt><trkpt lat="53.53506961045023" lon="14.81149008164833"><ele>16.0</ele><time>2026-04-06T14:32:45.859Z</time></trkpt><trkpt lat="53.535165100215316" lon="14.811501943171674"><ele>16.0</ele><time>2026-04-06T14:32:46.859Z</time></trkpt><trkpt lat="53.535272811804184" lon="14.81147695547439"><ele>16.0</ele><time>2026-04-06T14:32:47.859Z</time></trkpt><trkpt lat="53.535394829110416" lon="14.811489725903684"><ele>16.0</ele><time>2026-04-06T14:32:48.859Z</time></trkpt><trkpt lat="53.53552322553279" lon="14.811540438713653"><ele>16.0</ele><time>2026-04-06T14:32:49.859Z</time></trkpt><trkpt lat="53.535658923033125" lon="14.811680188455911"><ele>16.0</ele><time>2026-04-06T14:32:50.859Z</time></trkpt><trkpt lat="53.53579385422071" lon="14.81177797577438"><ele>16.0</ele><time>2026-04-06T14:32:51.859Z</time></trkpt><trkpt lat="53.53593326671562" lon="14.81185942395218"><ele>16.0</ele><time>2026-04-06T14:32:52.859Z</time></trkpt><trkpt lat="53.53608842301352" lon="14.811935270614581"><ele>16.0</ele><time>2026-04-06T14:32:53.859Z</time></trkpt><trkpt lat="53.53624753142245" lon="14.812007369357367"><ele>16.0</ele><time>2026-04-06T14:32:54.859Z</time></trkpt><trkpt lat="53.536409286586455" lon="14.81206887412898"><ele>16.666666666666664</ele><time>2026-04-06T14:32:55.859Z</time></trkpt><trkpt lat="53.53657660031794" lon="14.81212737695121"><ele>17.333333333333332</ele><time>2026-04-06T14:32:56.859Z</time></trkpt><trkpt lat="53.53674924356255" lon="14.81218665948434"><ele>18.0</ele><time>2026-04-06T14:32:57.859Z</time></trkpt><trkpt lat="53.53692227948483" lon="14.812260924641782"><ele>18.333333333333332</ele><time>2026-04-06T14:32:58.859Z</time></trkpt><trkpt lat="53.53709976918687" lon="14.81233105334046"><ele>18.666666666666664</ele><time>2026-04-06T14:32:59.859Z</time></trkpt><trkpt lat="53.537273741752784" lon="14.812399755856282"><ele>19.0</ele><time>2026-04-06T14:33:00.859Z</time></trkpt><trkpt lat="53.537451913560496" lon="14.812467381652114"><ele>19.0</ele><time>2026-04-06T14:33:01.859Z</time></trkpt><trkpt lat="53.53763158358591" lon="14.812539863566249"><ele>19.0</ele><time>2026-04-06T14:33:02.859Z</time></trkpt><trkpt lat="53.53782793184987" lon="14.81262898773108"><ele>19.0</ele><time>2026-04-06T14:33:03.859Z</time></trkpt><trkpt lat="53.53795731396807" lon="14.812648969891406"><ele>19.666666666666664</ele><time>2026-04-06T14:33:04.859Z</time></trkpt><trkpt lat="53.53813512354161" lon="14.812707579766611"><ele>20.333333333333332</ele><time>2026-04-06T14:33:05.859Z</time></trkpt><trkpt lat="53.53831265470871" lon="14.81276828179321"><ele>21.0</ele><time>2026-04-06T14:33:06.859Z</time></trkpt><trkpt lat="53.53849022096645" lon="14.812836508139258"><ele>21.0</ele><time>2026-04-06T14:33:07.859Z</time></trkpt><trkpt lat="53.53866935923526" lon="14.812902331286569"><ele>21.0</ele><time>2026-04-06T14:33:08.859Z</time></trkpt><trkpt lat="53.53885062066535" lon="14.812965945208564"><ele>21.0</ele><time>2026-04-06T14:33:09.859Z</time></trkpt><trkpt lat="53.53903482291522" lon="14.813029352788872"><ele>20.666666666666668</ele><time>2026-04-06T14:33:10.859Z</time></trkpt><trkpt lat="53.53921924266066" lon="14.813092961526229"><ele>20.333333333333336</ele><time>2026-04-06T14:33:11.859Z</time></trkpt><trkpt lat="53.53940357222318" lon="14.81316005535276"><ele>20.0</ele><time>2026-04-06T14:33:12.859Z</time></trkpt><trkpt lat="53.53959135024991" lon="14.813227780965502"><ele>18.666666666666668</ele><time>2026-04-06T14:33:13.859Z</time></trkpt><trkpt lat="53.53978078964697" lon="14.813296807564075"><ele>17.333333333333332</ele><time>2026-04-06T14:33:14.859Z</time></trkpt><trkpt lat="53.5399716568593" lon="14.81336820711059"><ele>16.0</ele><time>2026-04-06T14:33:15.859Z</time></trkpt><trkpt lat="53.54016292478388" lon="14.813443602025437"><ele>15.666666666666666</ele><time>2026-04-06T14:33:16.859Z</time></trkpt><trkpt lat="53.54034175240395" lon="14.813513991691933"><ele>15.333333333333332</ele><time>2026-04-06T14:33:17.859Z</time></trkpt><trkpt lat="53.540502162732544" lon="14.813565018006795"><ele>15.0</ele><time>2026-04-06T14:33:18.859Z</time></trkpt><trkpt lat="53.54063443824709" lon="14.813614766506843"><ele>14.0</ele><time>2026-04-06T14:33:19.859Z</time></trkpt><trkpt lat="53.5407453681328" lon="14.813652720314224"><ele>13.0</ele><time>2026-04-06T14:33:20.859Z</time></trkpt><trkpt lat="53.540837373756986" lon="14.81368843050239"><ele>12.0</ele><time>2026-04-06T14:33:21.859Z</time></trkpt><trkpt lat="53.54091637879218" lon="14.813717295966027"><ele>11.0</ele><time>2026-04-06T14:33:22.859Z</time></trkpt><trkpt lat="53.54097919456253" lon="14.81374479889446"><ele>10.0</ele><time>2026-04-06T14:33:23.859Z</time></trkpt><trkpt lat="53.54108187408128" lon="14.81379238893036"><ele>10.0</ele><time>2026-04-06T14:33:25.859Z</time></trkpt><trkpt lat="53.54116691848751" lon="14.81386807820794"><ele>10.0</ele><time>2026-04-06T14:33:27.859Z</time></trkpt><trkpt lat="53.541229301891846" lon="14.813926065926369"><ele>10.0</ele><time>2026-04-06T14:33:32.859Z</time></trkpt><trkpt lat="53.54131134962716" lon="14.81395563928523"><ele>10.0</ele><time>2026-04-06T14:33:33.857Z</time></trkpt><trkpt lat="53.541402108393974" lon="14.814011512068499"><ele>10.0</ele><time>2026-04-06T14:33:34.857Z</time></trkpt><trkpt lat="53.54149717171872" lon="14.814024582720124"><ele>10.0</ele><time>2026-04-06T14:33:35.857Z</time></trkpt><trkpt lat="53.541588141799295" lon="14.814059175442216"><ele>10.0</ele><time>2026-04-06T14:33:36.857Z</time></trkpt><trkpt lat="53.54167632460715" lon="14.814105587826374"><ele>10.0</ele><time>2026-04-06T14:33:37.857Z</time></trkpt><trkpt lat="53.54176460082822" lon="14.814134576635825"><ele>10.0</ele><time>2026-04-06T14:33:38.857Z</time></trkpt><trkpt lat="53.541857460821475" lon="14.814179154562106"><ele>10.0</ele><time>2026-04-06T14:33:39.857Z</time></trkpt><trkpt lat="53.54195026974414" lon="14.814207857219708"><ele>10.0</ele><time>2026-04-06T14:33:40.857Z</time></trkpt><trkpt lat="53.542052059474194" lon="14.814255713499103"><ele>10.4</ele><time>2026-04-06T14:33:41.857Z</time></trkpt><trkpt lat="53.54217475487059" lon="14.814297411233072"><ele>10.8</ele><time>2026-04-06T14:33:42.857Z</time></trkpt><trkpt lat="53.54227454950725" lon="14.814333554038813"><ele>11.2</ele><time>2026-04-06T14:33:43.857Z</time></trkpt><trkpt lat="53.542370682162634" lon="14.814367657606825"><ele>11.6</ele><time>2026-04-06T14:33:44.857Z</time></trkpt><trkpt lat="53.54244565165781" lon="14.814402974111182"><ele>12.0</ele><time>2026-04-06T14:33:45.857Z</time></trkpt><trkpt lat="53.54252887646084" lon="14.814420851073743"><ele>12.0</ele><time>2026-04-06T14:33:46.857Z</time></trkpt><trkpt lat="53.542617419180445" lon="14.814447323699314"><ele>12.0</ele><time>2026-04-06T14:33:47.857Z</time></trkpt><trkpt lat="53.54274235903997" lon="14.814491071563912"><ele>12.0</ele><time>2026-04-06T14:33:48.857Z</time></trkpt><trkpt lat="53.542853413883456" lon="14.814537352984964"><ele>12.0</ele><time>2026-04-06T14:33:49.857Z</time></trkpt><trkpt lat="53.542972460813054" lon="14.814584549427883"><ele>12.6</ele><time>2026-04-06T14:33:50.857Z</time></trkpt><trkpt lat="53.54308295817684" lon="14.814628911409113"><ele>13.2</ele><time>2026-04-06T14:33:51.857Z</time></trkpt><trkpt lat="53.54317179456411" lon="14.814670277011402"><ele>13.8</ele><time>2026-04-06T14:33:52.857Z</time></trkpt><trkpt lat="53.543276712780425" lon="14.814704464463933"><ele>14.4</ele><time>2026-04-06T14:33:53.857Z</time></trkpt><trkpt lat="53.54337049609705" lon="14.814729464064916"><ele>15.0</ele><time>2026-04-06T14:33:54.857Z</time></trkpt><trkpt lat="53.54346265324658" lon="14.814763716915405"><ele>15.0</ele><time>2026-04-06T14:33:55.857Z</time></trkpt><trkpt lat="53.543590585733654" lon="14.814810124346035"><ele>15.0</ele><time>2026-04-06T14:33:56.857Z</time></trkpt><trkpt lat="53.543687439096125" lon="14.814845521780219"><ele>15.0</ele><time>2026-04-06T14:33:57.857Z</time></trkpt><trkpt lat="53.54380551095797" lon="14.814889328824437"><ele>15.0</ele><time>2026-04-06T14:33:58.857Z</time></trkpt><trkpt lat="53.54390015329794" lon="14.814926278564272"><ele>15.0</ele><time>2026-04-06T14:33:59.857Z</time></trkpt><trkpt lat="53.54398229838508" lon="14.814958349275585"><ele>15.333333333333334</ele><time>2026-04-06T14:34:00.857Z</time></trkpt><trkpt lat="53.54406206716464" lon="14.814987814217208"><ele>15.666666666666668</ele><time>2026-04-06T14:34:01.857Z</time></trkpt><trkpt lat="53.5441424877127" lon="14.815017659465843"><ele>16.0</ele><time>2026-04-06T14:34:02.857Z</time></trkpt><trkpt lat="53.544221795738466" lon="14.815047091830357"><ele>16.333333333333336</ele><time>2026-04-06T14:34:03.857Z</time></trkpt><trkpt lat="53.544311315283856" lon="14.815080313816981"><ele>16.666666666666668</ele><time>2026-04-06T14:34:04.857Z</time></trkpt><trkpt lat="53.54441011392488" lon="14.815116979433643"><ele>17.0</ele><time>2026-04-06T14:34:05.857Z</time></trkpt><trkpt lat="53.544478796534754" lon="14.815142468547075"><ele>18.0</ele><time>2026-04-06T14:34:06.857Z</time></trkpt><trkpt lat="53.544622797213016" lon="14.815197229569803"><ele>19.0</ele><time>2026-04-06T14:34:08.857Z</time></trkpt><trkpt lat="53.54472951908801" lon="14.815238100615568"><ele>20.0</ele><time>2026-04-06T14:34:09.857Z</time></trkpt><trkpt lat="53.544844482806425" lon="14.815309849203633"><ele>21.0</ele><time>2026-04-06T14:34:10.857Z</time></trkpt><trkpt lat="53.54495656157738" lon="14.815351411755106"><ele>21.0</ele><time>2026-04-06T14:34:11.857Z</time></trkpt><trkpt lat="53.54507855133793" lon="14.815399890436918"><ele>21.0</ele><time>2026-04-06T14:34:12.857Z</time></trkpt><trkpt lat="53.545177277655945" lon="14.81543600007718"><ele>21.0</ele><time>2026-04-06T14:34:13.857Z</time></trkpt><trkpt lat="53.54524974043703" lon="14.815456731346433"><ele>21.0</ele><time>2026-04-06T14:34:14.857Z</time></trkpt><trkpt lat="53.545349567046124" lon="14.815493438128286"><ele>21.0</ele><time>2026-04-06T14:34:15.857Z</time></trkpt><trkpt lat="53.54544705682505" lon="14.815537650431327"><ele>21.333333333333332</ele><time>2026-04-06T14:34:16.857Z</time></trkpt><trkpt lat="53.54553419448614" lon="14.815563800852189"><ele>21.666666666666668</ele><time>2026-04-06T14:34:17.857Z</time></trkpt><trkpt lat="53.545616285668544" lon="14.815601653074788"><ele>22.0</ele><time>2026-04-06T14:34:18.857Z</time></trkpt><trkpt lat="53.54571634402525" lon="14.81563778859072"><ele>22.333333333333336</ele><time>2026-04-06T14:34:19.857Z</time></trkpt><trkpt lat="53.545797319649786" lon="14.815653879966478"><ele>22.666666666666668</ele><time>2026-04-06T14:34:20.857Z</time></trkpt><trkpt lat="53.5458646463455" lon="14.815681053909447"><ele>23.0</ele><time>2026-04-06T14:34:21.857Z</time></trkpt><trkpt lat="53.54605036892517" lon="14.815739972614791"><ele>23.0</ele><time>2026-04-06T14:34:23.857Z</time></trkpt><trkpt lat="53.54618355058563" lon="14.815772096018192"><ele>23.0</ele><time>2026-04-06T14:34:24.857Z</time></trkpt><trkpt lat="53.54628093007492" lon="14.815794846484195"><ele>23.0</ele><time>2026-04-06T14:34:25.857Z</time></trkpt><trkpt lat="53.54640631232085" lon="14.815854562238432"><ele>23.0</ele><time>2026-04-06T14:34:27.857Z</time></trkpt><trkpt lat="53.54650464474682" lon="14.815895674335477"><ele>23.0</ele><time>2026-04-06T14:34:28.857Z</time></trkpt><trkpt lat="53.546570415134475" lon="14.8159421398258"><ele>23.0</ele><time>2026-04-06T14:34:29.857Z</time></trkpt><trkpt lat="53.546635570626776" lon="14.81595059660076"><ele>23.0</ele><time>2026-04-06T14:34:30.857Z</time></trkpt><trkpt lat="53.5467280869853" lon="14.8159851316777"><ele>23.0</ele><time>2026-04-06T14:34:31.857Z</time></trkpt><trkpt lat="53.546812474760486" lon="14.816021999763917"><ele>23.0</ele><time>2026-04-06T14:34:32.857Z</time></trkpt><trkpt lat="53.5469485328794" lon="14.816076352224695"><ele>22.799999999999997</ele><time>2026-04-06T14:34:34.857Z</time></trkpt><trkpt lat="53.547064770353224" lon="14.816109574609177"><ele>22.6</ele><time>2026-04-06T14:34:36.857Z</time></trkpt><trkpt lat="53.54713615975861" lon="14.81613655124194"><ele>22.4</ele><time>2026-04-06T14:34:37.857Z</time></trkpt><trkpt lat="53.54724821406544" lon="14.816178925193444"><ele>22.200000000000003</ele><time>2026-04-06T14:34:39.857Z</time></trkpt><trkpt lat="53.54731797087751" lon="14.816205183958482"><ele>22.0</ele><time>2026-04-06T14:34:41.857Z</time></trkpt><trkpt lat="53.54740517202746" lon="14.816237347327744"><ele>22.0</ele><time>2026-04-06T14:34:44.857Z</time></trkpt><trkpt lat="53.547474680993446" lon="14.816262881856897"><ele>22.0</ele><time>2026-04-06T14:34:46.857Z</time></trkpt><trkpt lat="53.54755645125727" lon="14.816293558147661"><ele>22.0</ele><time>2026-04-06T14:34:48.857Z</time></trkpt><trkpt lat="53.54758930631487" lon="14.816818511234418"><ele>21.6</ele><time>2026-04-06T14:34:50.857Z</time></trkpt><trkpt lat="53.54761395989136" lon="14.816984134509738"><ele>21.200000000000003</ele><time>2026-04-06T14:34:51.857Z</time></trkpt><trkpt lat="53.5476462597732" lon="14.817110270040754"><ele>20.8</ele><time>2026-04-06T14:34:52.857Z</time></trkpt><trkpt lat="53.547673646296154" lon="14.817217908757941"><ele>20.4</ele><time>2026-04-06T14:34:53.857Z</time></trkpt><trkpt lat="53.547728592183574" lon="14.817438216943419"><ele>20.0</ele><time>2026-04-06T14:34:54.857Z</time></trkpt><trkpt lat="53.547785113589825" lon="14.817660335253942"><ele>19.8</ele><time>2026-04-06T14:34:55.857Z</time></trkpt><trkpt lat="53.54780974980026" lon="14.817829538341353"><ele>19.6</ele><time>2026-04-06T14:34:56.857Z</time></trkpt><trkpt lat="53.5478366315624" lon="14.817960174340683"><ele>19.4</ele><time>2026-04-06T14:34:57.857Z</time></trkpt><trkpt lat="53.54787044407552" lon="14.818082260974489"><ele>19.2</ele><time>2026-04-06T14:34:59.857Z</time></trkpt><trkpt lat="53.54780348676747" lon="14.818183295529732"><ele>19.0</ele><time>2026-04-06T14:35:10.857Z</time></trkpt><trkpt lat="53.54771192357309" lon="14.818227964853055"><ele>19.0</ele><time>2026-04-06T14:35:13.857Z</time></trkpt><trkpt lat="53.54764224424056" lon="14.818322209240526"><ele>19.0</ele><time>2026-04-06T14:35:15.857Z</time></trkpt><trkpt lat="53.54761226117124" lon="14.81843099394021"><ele>19.0</ele><time>2026-04-06T14:35:18.857Z</time></trkpt><trkpt lat="53.54759838163474" lon="14.818566979761092"><ele>19.0</ele><time>2026-04-06T14:35:21.857Z</time></trkpt><trkpt lat="53.54756484425234" lon="14.818680062462697"><ele>19.0</ele><time>2026-04-06T14:35:24.857Z</time></trkpt><trkpt lat="53.54753719752181" lon="14.818783276899998"><ele>19.0</ele><time>2026-04-06T14:35:25.857Z</time></trkpt><trkpt lat="53.54750456759848" lon="14.818897723212483"><ele>18.5</ele><time>2026-04-06T14:35:26.857Z</time></trkpt><trkpt lat="53.54748016662584" lon="14.819027519259553"><ele>18.0</ele><time>2026-04-06T14:35:27.857Z</time></trkpt><trkpt lat="53.547447614389625" lon="14.81912688578284"><ele>17.5</ele><time>2026-04-06T14:35:29.857Z</time></trkpt><trkpt lat="53.547405456260954" lon="14.81922766467273"><ele>17.0</ele><time>2026-04-06T14:35:33.857Z</time></trkpt><trkpt lat="53.547375613944055" lon="14.819394703505191"><ele>16.5</ele><time>2026-04-06T14:35:46.856Z</time></trkpt><trkpt lat="53.547343253894184" lon="14.819517006611619"><ele>16.0</ele><time>2026-04-06T14:35:49.855Z</time></trkpt><trkpt lat="53.547332379321695" lon="14.819643896098926"><ele>15.666666666666666</ele><time>2026-04-06T14:35:52.855Z</time></trkpt><trkpt lat="53.54729794570075" lon="14.819734833248761"><ele>15.333333333333332</ele><time>2026-04-06T14:35:55.855Z</time></trkpt><trkpt lat="53.54727996137433" lon="14.819860491133014"><ele>15.0</ele><time>2026-04-06T14:35:58.855Z</time></trkpt><trkpt lat="53.54725122955694" lon="14.819975820401114"><ele>14.666666666666668</ele><time>2026-04-06T14:36:02.855Z</time></trkpt><trkpt lat="53.547203783486275" lon="14.820074254639906"><ele>14.333333333333334</ele><time>2026-04-06T14:36:05.855Z</time></trkpt><trkpt lat="53.54713027353647" lon="14.820182051548864"><ele>14.0</ele><time>2026-04-06T14:36:08.855Z</time></trkpt><trkpt lat="53.547088879558345" lon="14.8202960002125"><ele>15.666666666666668</ele><time>2026-04-06T14:36:10.855Z</time></trkpt><trkpt lat="53.54700673531416" lon="14.82037297162552"><ele>17.333333333333336</ele><time>2026-04-06T14:36:12.855Z</time></trkpt><trkpt lat="53.54691865898509" lon="14.820454984016889"><ele>19.0</ele><time>2026-04-06T14:36:14.855Z</time></trkpt><trkpt lat="53.5468751723511" lon="14.820535506685902"><ele>20.666666666666668</ele><time>2026-04-06T14:36:16.855Z</time></trkpt><trkpt lat="53.546824394603114" lon="14.820600583685097"><ele>22.333333333333332</ele><time>2026-04-06T14:36:22.855Z</time></trkpt><trkpt lat="53.54683064316316" lon="14.82071802902985"><ele>24.0</ele><time>2026-04-06T14:36:25.855Z</time></trkpt><trkpt lat="53.54688085213084" lon="14.820818365864682"><ele>24.0</ele><time>2026-04-06T14:36:26.855Z</time></trkpt><trkpt lat="53.546936622815196" lon="14.8209044101031"><ele>24.0</ele><time>2026-04-06T14:36:28.855Z</time></trkpt><trkpt lat="53.5469634646645" lon="14.821055850737036"><ele>24.0</ele><time>2026-04-06T14:36:30.855Z</time></trkpt><trkpt lat="53.54702929711557" lon="14.82118125244469"><ele>24.0</ele><time>2026-04-06T14:36:32.855Z</time></trkpt><trkpt lat="53.54709347382186" lon="14.82121866791849"><ele>24.0</ele><time>2026-04-06T14:36:33.855Z</time></trkpt><trkpt lat="53.54716255996372" lon="14.82127945151806"><ele>24.0</ele><time>2026-04-06T14:36:35.855Z</time></trkpt><trkpt lat="53.547249017053865" lon="14.821305739354754"><ele>23.666666666666668</ele><time>2026-04-06T14:36:38.855Z</time></trkpt><trkpt lat="53.54734637775452" lon="14.821265205186096"><ele>23.333333333333332</ele><time>2026-04-06T14:36:41.855Z</time></trkpt><trkpt lat="53.547432843774985" lon="14.82120393364372"><ele>23.0</ele><time>2026-04-06T14:36:43.855Z</time></trkpt><trkpt lat="53.547502609065916" lon="14.821149530681444"><ele>22.666666666666664</ele><time>2026-04-06T14:36:45.855Z</time></trkpt><trkpt lat="53.547570545177436" lon="14.82108092818013"><ele>22.333333333333332</ele><time>2026-04-06T14:36:46.855Z</time></trkpt><trkpt lat="53.547629778915194" lon="14.821020364162772"><ele>22.0</ele><time>2026-04-06T14:36:47.855Z</time></trkpt><trkpt lat="53.54771814509279" lon="14.820949883558587"><ele>22.0</ele><time>2026-04-06T14:36:49.855Z</time></trkpt><trkpt lat="53.54776482143976" lon="14.820863132103852"><ele>22.0</ele><time>2026-04-06T14:36:52.855Z</time></trkpt><trkpt lat="53.54784392542282" lon="14.820827871514782"><ele>22.0</ele><time>2026-04-06T14:36:57.855Z</time></trkpt><trkpt lat="53.54790291037548" lon="14.82076322670077"><ele>22.0</ele><time>2026-04-06T14:37:01.855Z</time></trkpt><trkpt lat="53.547962604883296" lon="14.820693877496282"><ele>22.0</ele><time>2026-04-06T14:37:04.855Z</time></trkpt><trkpt lat="53.5480158867873" lon="14.82060854241079"><ele>22.0</ele><time>2026-04-06T14:37:08.855Z</time></trkpt><trkpt lat="53.548099156264804" lon="14.820534805863995"><ele>22.0</ele><time>2026-04-06T14:37:11.855Z</time></trkpt><trkpt lat="53.54817097419511" lon="14.820448971911134"><ele>22.0</ele><time>2026-04-06T14:37:14.855Z</time></trkpt><trkpt lat="53.548228603197224" lon="14.820511241520812"><ele>22.0</ele><time>2026-04-06T14:37:16.855Z</time></trkpt><trkpt lat="53.54825573461957" lon="14.820666612096785"><ele>22.0</ele><time>2026-04-06T14:37:18.855Z</time></trkpt><trkpt lat="53.54829790379989" lon="14.82081707358855"><ele>22.0</ele><time>2026-04-06T14:37:20.855Z</time></trkpt><trkpt lat="53.548336216918095" lon="14.820951883504026"><ele>22.0</ele><time>2026-04-06T14:37:22.855Z</time></trkpt><trkpt lat="53.54836215506126" lon="14.821089588443366"><ele>22.0</ele><time>2026-04-06T14:37:24.855Z</time></trkpt><trkpt lat="53.548413604769024" lon="14.821229884629005"><ele>22.0</ele><time>2026-04-06T14:37:26.855Z</time></trkpt><trkpt lat="53.54846508491252" lon="14.82139210420538"><ele>22.0</ele><time>2026-04-06T14:37:28.855Z</time></trkpt><trkpt lat="53.54849133312351" lon="14.82149102837034"><ele>22.0</ele><time>2026-04-06T14:37:29.855Z</time></trkpt><trkpt lat="53.54851200413477" lon="14.821602379519293"><ele>22.0</ele><time>2026-04-06T14:37:30.855Z</time></trkpt><trkpt lat="53.548545993793056" lon="14.821712235041561"><ele>22.0</ele><time>2026-04-06T14:37:31.855Z</time></trkpt><trkpt lat="53.548574071067385" lon="14.821865285874898"><ele>22.0</ele><time>2026-04-06T14:37:32.855Z</time></trkpt><trkpt lat="53.54859910288959" lon="14.822051315791251"><ele>22.0</ele><time>2026-04-06T14:37:33.855Z</time></trkpt><trkpt lat="53.548638597364544" lon="14.822273109959736"><ele>22.0</ele><time>2026-04-06T14:37:34.855Z</time></trkpt><trkpt lat="53.548677163936084" lon="14.822503189940708"><ele>22.0</ele><time>2026-04-06T14:37:35.855Z</time></trkpt><trkpt lat="53.548722108641876" lon="14.822764254135274"><ele>21.75</ele><time>2026-04-06T14:37:36.855Z</time></trkpt><trkpt lat="53.548764039865134" lon="14.82298489587041"><ele>21.5</ele><time>2026-04-06T14:37:37.855Z</time></trkpt><trkpt lat="53.548800078428016" lon="14.823205889814577"><ele>21.25</ele><time>2026-04-06T14:37:38.855Z</time></trkpt><trkpt lat="53.54883697727432" lon="14.823403157308675"><ele>21.0</ele><time>2026-04-06T14:37:39.855Z</time></trkpt><trkpt lat="53.548879264802565" lon="14.823610289448784"><ele>21.0</ele><time>2026-04-06T14:37:40.855Z</time></trkpt><trkpt lat="53.54890804544324" lon="14.823817571073521"><ele>21.0</ele><time>2026-04-06T14:37:41.855Z</time></trkpt><trkpt lat="53.548934830317584" lon="14.824023623443393"><ele>21.0</ele><time>2026-04-06T14:37:42.855Z</time></trkpt><trkpt lat="53.548976588359096" lon="14.824260462464492"><ele>21.0</ele><time>2026-04-06T14:37:43.855Z</time></trkpt><trkpt lat="53.54901519354913" lon="14.8245131478383"><ele>21.0</ele><time>2026-04-06T14:37:44.855Z</time></trkpt><trkpt lat="53.5490721992076" lon="14.824777276564236"><ele>21.0</ele><time>2026-04-06T14:37:45.854Z</time></trkpt><trkpt lat="53.54913358885725" lon="14.8250650580265"><ele>21.0</ele><time>2026-04-06T14:37:46.854Z</time></trkpt><trkpt lat="53.54917802149989" lon="14.82529208286294"><ele>22.25</ele><time>2026-04-06T14:37:47.854Z</time></trkpt><trkpt lat="53.549225406753585" lon="14.825513604709883"><ele>23.5</ele><time>2026-04-06T14:37:48.855Z</time></trkpt><trkpt lat="53.549271599077606" lon="14.825708503131745"><ele>24.75</ele><time>2026-04-06T14:37:49.854Z</time></trkpt><trkpt lat="53.54930676171599" lon="14.825910747599982"><ele>26.0</ele><time>2026-04-06T14:37:50.854Z</time></trkpt><trkpt lat="53.54934156425868" lon="14.8261213140006"><ele>26.75</ele><time>2026-04-06T14:37:51.854Z</time></trkpt><trkpt lat="53.549375420407735" lon="14.826334456281439"><ele>27.5</ele><time>2026-04-06T14:37:52.855Z</time></trkpt><trkpt lat="53.54940434942589" lon="14.826526622162792"><ele>28.25</ele><time>2026-04-06T14:37:53.855Z</time></trkpt><trkpt lat="53.549451859072626" lon="14.826755321158293"><ele>29.0</ele><time>2026-04-06T14:37:54.855Z</time></trkpt><trkpt lat="53.54949527319005" lon="14.826960128091267"><ele>29.0</ele><time>2026-04-06T14:37:55.854Z</time></trkpt><trkpt lat="53.54953863859608" lon="14.827165982498023"><ele>29.0</ele><time>2026-04-06T14:37:56.854Z</time></trkpt><trkpt lat="53.54957503262385" lon="14.827356858191983"><ele>29.0</ele><time>2026-04-06T14:37:57.854Z</time></trkpt><trkpt lat="53.5495977520038" lon="14.82755806720326"><ele>29.0</ele><time>2026-04-06T14:37:58.855Z</time></trkpt><trkpt lat="53.54963723870556" lon="14.827808395512298"><ele>26.0</ele><time>2026-04-06T14:37:59.855Z</time></trkpt><trkpt lat="53.54969056184837" lon="14.828048994470045"><ele>23.0</ele><time>2026-04-06T14:38:00.855Z</time></trkpt><trkpt lat="53.549747016030956" lon="14.828324156363538"><ele>20.0</ele><time>2026-04-06T14:38:01.855Z</time></trkpt><trkpt lat="53.549781514372555" lon="14.828553037004262"><ele>20.0</ele><time>2026-04-06T14:38:02.855Z</time></trkpt><trkpt lat="53.549823054357844" lon="14.828745631696586"><ele>20.0</ele><time>2026-04-06T14:38:03.855Z</time></trkpt><trkpt lat="53.549859755995314" lon="14.828935846566916"><ele>20.0</ele><time>2026-04-06T14:38:04.855Z</time></trkpt><trkpt lat="53.54988658428154" lon="14.829098704175053"><ele>20.0</ele><time>2026-04-06T14:38:05.855Z</time></trkpt><trkpt lat="53.54992442883542" lon="14.82925332336107"><ele>20.0</ele><time>2026-04-06T14:38:06.855Z</time></trkpt><trkpt lat="53.549954626644606" lon="14.829387664663104"><ele>20.2</ele><time>2026-04-06T14:38:07.855Z</time></trkpt><trkpt lat="53.54997513047732" lon="14.829532263235755"><ele>20.4</ele><time>2026-04-06T14:38:08.855Z</time></trkpt><trkpt lat="53.550008973003486" lon="14.829695617679711"><ele>20.6</ele><time>2026-04-06T14:38:09.855Z</time></trkpt><trkpt lat="53.550039621055234" lon="14.829877289596071"><ele>20.8</ele><time>2026-04-06T14:38:10.855Z</time></trkpt><trkpt lat="53.550072829257736" lon="14.830017203755688"><ele>21.0</ele><time>2026-04-06T14:38:11.855Z</time></trkpt><trkpt lat="53.550105428091854" lon="14.830173912483374"><ele>19.8</ele><time>2026-04-06T14:38:12.855Z</time></trkpt><trkpt lat="53.550133111680154" lon="14.83031863371764"><ele>18.6</ele><time>2026-04-06T14:38:13.855Z</time></trkpt><trkpt lat="53.550155808814246" lon="14.830477364987097"><ele>17.4</ele><time>2026-04-06T14:38:14.855Z</time></trkpt><trkpt lat="53.55016943392842" lon="14.830629927956458"><ele>16.2</ele><time>2026-04-06T14:38:15.855Z</time></trkpt><trkpt lat="53.55018316456329" lon="14.830785439022515"><ele>15.0</ele><time>2026-04-06T14:38:16.855Z</time></trkpt><trkpt lat="53.55021873338386" lon="14.830936071214524"><ele>13.8</ele><time>2026-04-06T14:38:17.855Z</time></trkpt><trkpt lat="53.55023467527391" lon="14.831043899272869"><ele>12.6</ele><time>2026-04-06T14:38:18.855Z</time></trkpt><trkpt lat="53.550314371617134" lon="14.83124440551447"><ele>11.4</ele><time>2026-04-06T14:38:20.855Z</time></trkpt><trkpt lat="53.550376667329374" lon="14.831346829832206"><ele>10.2</ele><time>2026-04-06T14:38:21.855Z</time></trkpt><trkpt lat="53.55048675811165" lon="14.831496953017568"><ele>9.0</ele><time>2026-04-06T14:38:22.855Z</time></trkpt><trkpt lat="53.55058373058851" lon="14.831606048775777"><ele>9.0</ele><time>2026-04-06T14:38:23.855Z</time></trkpt><trkpt lat="53.55065359871737" lon="14.831683988730736"><ele>9.0</ele><time>2026-04-06T14:38:24.855Z</time></trkpt><trkpt lat="53.550717483107654" lon="14.831759790514496"><ele>9.0</ele><time>2026-04-06T14:38:25.855Z</time></trkpt><trkpt lat="53.55080336320167" lon="14.831850853281423"><ele>9.0</ele><time>2026-04-06T14:38:26.855Z</time></trkpt><trkpt lat="53.55084916902837" lon="14.831929733090123"><ele>9.0</ele><time>2026-04-06T14:38:27.855Z</time></trkpt><trkpt lat="53.55093251282583" lon="14.832073179789422"><ele>9.0</ele><time>2026-04-06T14:38:29.855Z</time></trkpt><trkpt lat="53.55092554764593" lon="14.832214666512785"><ele>8.6</ele><time>2026-04-06T14:38:32.855Z</time></trkpt><trkpt lat="53.55086868666014" lon="14.832279798153522"><ele>8.2</ele><time>2026-04-06T14:38:34.855Z</time></trkpt><trkpt lat="53.55078527384028" lon="14.832320429929771"><ele>7.799999999999999</ele><time>2026-04-06T14:38:35.855Z</time></trkpt><trkpt lat="53.55067200604087" lon="14.832374310185237"><ele>7.3999999999999995</ele><time>2026-04-06T14:38:36.855Z</time></trkpt><trkpt lat="53.55056468517863" lon="14.832436660874778"><ele>7.0</ele><time>2026-04-06T14:38:37.855Z</time></trkpt><trkpt lat="53.55046442183287" lon="14.832502148072843"><ele>7.0</ele><time>2026-04-06T14:38:38.855Z</time></trkpt><trkpt lat="53.550342806330136" lon="14.832598075461874"><ele>6.999999999999999</ele><time>2026-04-06T14:38:40.855Z</time></trkpt><trkpt lat="53.55027350932486" lon="14.83264679897797"><ele>6.999999999999999</ele><time>2026-04-06T14:38:41.855Z</time></trkpt><trkpt lat="53.55020664030749" lon="14.83267252455979"><ele>7.0</ele><time>2026-04-06T14:38:42.855Z</time></trkpt><trkpt lat="53.55013875083213" lon="14.83270178537784"><ele>7.0</ele><time>2026-04-06T14:38:43.855Z</time></trkpt><trkpt lat="53.550028708806984" lon="14.83274499918168"><ele>7.166666666666667</ele><time>2026-04-06T14:38:45.855Z</time></trkpt><trkpt lat="53.54991790230869" lon="14.832776336070282"><ele>7.333333333333334</ele><time>2026-04-06T14:38:47.855Z</time></trkpt><trkpt lat="53.54982686132392" lon="14.832773014894578"><ele>7.5</ele><time>2026-04-06T14:38:48.855Z</time></trkpt><trkpt lat="53.54974284197588" lon="14.832752529964639"><ele>7.666666666666666</ele><time>2026-04-06T14:38:49.855Z</time></trkpt><trkpt lat="53.549658399409815" lon="14.832726524641558"><ele>7.833333333333333</ele><time>2026-04-06T14:38:50.855Z</time></trkpt><trkpt lat="53.549596805927486" lon="14.83270377712964"><ele>8.0</ele><time>2026-04-06T14:38:51.855Z</time></trkpt><trkpt lat="53.5495158438174" lon="14.832671999204806"><ele>7.0</ele><time>2026-04-06T14:38:52.855Z</time></trkpt><trkpt lat="53.549439264490395" lon="14.831914047686512"><ele>7.0</ele><time>2026-04-06T14:38:53.855Z</time></trkpt><trkpt lat="53.549352949326924" lon="14.831808843146773"><ele>6.999999999999999</ele><time>2026-04-06T14:38:54.855Z</time></trkpt><trkpt lat="53.54926515616984" lon="14.831703338762193"><ele>6.999999999999999</ele><time>2026-04-06T14:38:55.855Z</time></trkpt><trkpt lat="53.549180271288286" lon="14.831602963899666"><ele>7.0</ele><time>2026-04-06T14:38:56.855Z</time></trkpt><trkpt lat="53.54908934186094" lon="14.831497012982885"><ele>7.0</ele><time>2026-04-06T14:38:57.855Z</time></trkpt><trkpt lat="53.54899996356484" lon="14.831395956885812"><ele>7.3999999999999995</ele><time>2026-04-06T14:38:58.855Z</time></trkpt><trkpt lat="53.54891691212053" lon="14.831285372666146"><ele>7.799999999999999</ele><time>2026-04-06T14:38:59.855Z</time></trkpt><trkpt lat="53.5488277865428" lon="14.831195040054206"><ele>8.2</ele><time>2026-04-06T14:39:00.855Z</time></trkpt><trkpt lat="53.548729447736044" lon="14.831087798156435"><ele>8.6</ele><time>2026-04-06T14:39:01.855Z</time></trkpt><trkpt lat="53.54863220452161" lon="14.830974184558425"><ele>9.0</ele><time>2026-04-06T14:39:02.855Z</time></trkpt><trkpt lat="53.54852930452951" lon="14.830858001577633"><ele>11.0</ele><time>2026-04-06T14:39:03.855Z</time></trkpt><trkpt lat="53.548415091473096" lon="14.830743189149853"><ele>13.0</ele><time>2026-04-06T14:39:04.855Z</time></trkpt><trkpt lat="53.548289040539416" lon="14.830619743939721"><ele>15.0</ele><time>2026-04-06T14:39:05.855Z</time></trkpt><trkpt lat="53.548156085403924" lon="14.83049118605466"><ele>17.0</ele><time>2026-04-06T14:39:06.855Z</time></trkpt><trkpt lat="53.54801244430956" lon="14.830345606656698"><ele>19.333333333333336</ele><time>2026-04-06T14:39:07.855Z</time></trkpt><trkpt lat="53.54787259835892" lon="14.830200201664855"><ele>21.666666666666668</ele><time>2026-04-06T14:39:08.855Z</time></trkpt><trkpt lat="53.547734553900725" lon="14.830042497213029"><ele>24.0</ele><time>2026-04-06T14:39:09.855Z</time></trkpt><trkpt lat="53.54761093413817" lon="14.829906316637889"><ele>24.25</ele><time>2026-04-06T14:39:10.855Z</time></trkpt><trkpt lat="53.54749801119141" lon="14.829779400766858"><ele>24.5</ele><time>2026-04-06T14:39:11.855Z</time></trkpt><trkpt lat="53.54737494882564" lon="14.82965853378968"><ele>24.75</ele><time>2026-04-06T14:39:12.855Z</time></trkpt><trkpt lat="53.547269961336056" lon="14.829557493061031"><ele>25.0</ele><time>2026-04-06T14:39:13.855Z</time></trkpt><trkpt lat="53.547154233024635" lon="14.82942900150714"><ele>25.333333333333336</ele><time>2026-04-06T14:39:14.855Z</time></trkpt><trkpt lat="53.54703354439997" lon="14.829302476662969"><ele>25.666666666666664</ele><time>2026-04-06T14:39:15.855Z</time></trkpt><trkpt lat="53.54690405590645" lon="14.829177982810572"><ele>26.0</ele><time>2026-04-06T14:39:16.855Z</time></trkpt><trkpt lat="53.546760881732496" lon="14.82903002078305"><ele>26.0</ele><time>2026-04-06T14:39:17.855Z</time></trkpt><trkpt lat="53.546626346754664" lon="14.828873878790356"><ele>26.0</ele><time>2026-04-06T14:39:18.855Z</time></trkpt><trkpt lat="53.54649759975954" lon="14.828717622462422"><ele>26.0</ele><time>2026-04-06T14:39:19.855Z</time></trkpt><trkpt lat="53.54636681569106" lon="14.828577415292171"><ele>26.0</ele><time>2026-04-06T14:39:20.855Z</time></trkpt><trkpt lat="53.54626574157201" lon="14.828487434798882"><ele>26.0</ele><time>2026-04-06T14:39:21.855Z</time></trkpt><trkpt lat="53.54616465266992" lon="14.82836530713103"><ele>26.0</ele><time>2026-04-06T14:39:22.855Z</time></trkpt><trkpt lat="53.54603717237889" lon="14.828227281423928"><ele>26.0</ele><time>2026-04-06T14:39:23.855Z</time></trkpt><trkpt lat="53.54593001896348" lon="14.82812587954979"><ele>26.0</ele><time>2026-04-06T14:39:24.855Z</time></trkpt><trkpt lat="53.54581370137423" lon="14.82800664768167"><ele>26.0</ele><time>2026-04-06T14:39:25.855Z</time></trkpt><trkpt lat="53.545701104377066" lon="14.827888664745752"><ele>26.0</ele><time>2026-04-06T14:39:26.855Z</time></trkpt><trkpt lat="53.54556875845998" lon="14.827750844821997"><ele>26.0</ele><time>2026-04-06T14:39:27.855Z</time></trkpt><trkpt lat="53.54545999595083" lon="14.827633945377093"><ele>23.75</ele><time>2026-04-06T14:39:28.855Z</time></trkpt><trkpt lat="53.54537117398895" lon="14.827538958244146"><ele>21.5</ele><time>2026-04-06T14:39:29.855Z</time></trkpt><trkpt lat="53.54526893080541" lon="14.827435759782468"><ele>19.25</ele><time>2026-04-06T14:39:30.855Z</time></trkpt><trkpt lat="53.54516844112686" lon="14.827332900415104"><ele>17.0</ele><time>2026-04-06T14:39:31.855Z</time></trkpt><trkpt lat="53.545063770382995" lon="14.827205543911084"><ele>17.0</ele><time>2026-04-06T14:39:32.855Z</time></trkpt><trkpt lat="53.54494708395052" lon="14.827072439331477"><ele>17.0</ele><time>2026-04-06T14:39:33.855Z</time></trkpt><trkpt lat="53.54484635721356" lon="14.826960342326432"><ele>17.0</ele><time>2026-04-06T14:39:34.855Z</time></trkpt><trkpt lat="53.544740228149" lon="14.826853147866213"><ele>17.0</ele><time>2026-04-06T14:39:35.855Z</time></trkpt><trkpt lat="53.544614245737186" lon="14.826731184900668"><ele>16.75</ele><time>2026-04-06T14:39:36.855Z</time></trkpt><trkpt lat="53.54448127456266" lon="14.826581468469152"><ele>16.5</ele><time>2026-04-06T14:39:37.855Z</time></trkpt><trkpt lat="53.54437460748891" lon="14.826471408639076"><ele>16.25</ele><time>2026-04-06T14:39:38.855Z</time></trkpt><trkpt lat="53.544273226680154" lon="14.826356860790652"><ele>16.0</ele><time>2026-04-06T14:39:39.855Z</time></trkpt><trkpt lat="53.544167602868775" lon="14.826243026556007"><ele>16.0</ele><time>2026-04-06T14:39:40.855Z</time></trkpt><trkpt lat="53.54406081909663" lon="14.826123471740612"><ele>16.0</ele><time>2026-04-06T14:39:41.855Z</time></trkpt><trkpt lat="53.543938644147666" lon="14.825994442936496"><ele>16.0</ele><time>2026-04-06T14:39:42.855Z</time></trkpt><trkpt lat="53.543813168622" lon="14.825863844927019"><ele>16.0</ele><time>2026-04-06T14:39:43.855Z</time></trkpt><trkpt lat="53.543682625656324" lon="14.825720185424197"><ele>18.25</ele><time>2026-04-06T14:39:44.855Z</time></trkpt><trkpt lat="53.54355714126748" lon="14.825584335795448"><ele>20.5</ele><time>2026-04-06T14:39:45.855Z</time></trkpt><trkpt lat="53.543441704491805" lon="14.825466252596089"><ele>22.75</ele><time>2026-04-06T14:39:46.855Z</time></trkpt><trkpt lat="53.54333365855457" lon="14.8253531126497"><ele>25.0</ele><time>2026-04-06T14:39:47.855Z</time></trkpt><trkpt lat="53.543207273981146" lon="14.82521503520538"><ele>24.666666666666668</ele><time>2026-04-06T14:39:48.855Z</time></trkpt><trkpt lat="53.54305572521923" lon="14.825067356032237"><ele>24.333333333333336</ele><time>2026-04-06T14:39:49.855Z</time></trkpt><trkpt lat="53.54292905004544" lon="14.824937230213928"><ele>24.0</ele><time>2026-04-06T14:39:50.855Z</time></trkpt><trkpt lat="53.54278084159465" lon="14.824789494029005"><ele>24.0</ele><time>2026-04-06T14:39:51.852Z</time></trkpt><trkpt lat="53.54263747194586" lon="14.824636770126775"><ele>24.0</ele><time>2026-04-06T14:39:52.853Z</time></trkpt><trkpt lat="53.542538831920155" lon="14.824527307241366"><ele>24.0</ele><time>2026-04-06T14:39:53.853Z</time></trkpt><trkpt lat="53.54244693203832" lon="14.824428394503322"><ele>24.0</ele><time>2026-04-06T14:39:54.852Z</time></trkpt><trkpt lat="53.54236022975041" lon="14.824334249866075"><ele>23.666666666666668</ele><time>2026-04-06T14:39:55.853Z</time></trkpt><trkpt lat="53.54227850809197" lon="14.824259354789799"><ele>23.333333333333332</ele><time>2026-04-06T14:39:56.853Z</time></trkpt><trkpt lat="53.54220990549657" lon="14.82419316835665"><ele>23.0</ele><time>2026-04-06T14:39:57.853Z</time></trkpt><trkpt lat="53.54215249729704" lon="14.824128501883946"><ele>22.666666666666664</ele><time>2026-04-06T14:39:58.852Z</time></trkpt><trkpt lat="53.54208236695307" lon="14.824065141064088"><ele>22.333333333333332</ele><time>2026-04-06T14:39:59.852Z</time></trkpt><trkpt lat="53.5420061112167" lon="14.823983635673832"><ele>22.0</ele><time>2026-04-06T14:40:00.852Z</time></trkpt><trkpt lat="53.54192854169257" lon="14.823903160546756"><ele>22.0</ele><time>2026-04-06T14:40:01.852Z</time></trkpt><trkpt lat="53.5418558509911" lon="14.823823057919832"><ele>22.0</ele><time>2026-04-06T14:40:02.852Z</time></trkpt><trkpt lat="53.5417698365385" lon="14.823723141551234"><ele>22.0</ele><time>2026-04-06T14:40:03.853Z</time></trkpt><trkpt lat="53.54169514641381" lon="14.82362781336642"><ele>22.0</ele><time>2026-04-06T14:40:04.852Z</time></trkpt><trkpt lat="53.54163514209848" lon="14.823572993278573"><ele>22.0</ele><time>2026-04-06T14:40:05.852Z</time></trkpt><trkpt lat="53.5415859569954" lon="14.823502963356525"><ele>22.0</ele><time>2026-04-06T14:40:06.852Z</time></trkpt><trkpt lat="53.541525255272845" lon="14.823449029786454"><ele>22.0</ele><time>2026-04-06T14:40:07.852Z</time></trkpt><trkpt lat="53.54137071948126" lon="14.823444522155942"><ele>22.0</ele><time>2026-04-06T14:40:09.852Z</time></trkpt><trkpt lat="53.541248659683674" lon="14.823485835692981"><ele>22.0</ele><time>2026-04-06T14:40:10.852Z</time></trkpt><trkpt lat="53.54112262921021" lon="14.823565633675653"><ele>22.0</ele><time>2026-04-06T14:40:11.852Z</time></trkpt><trkpt lat="53.540984972963734" lon="14.823653562161082"><ele>22.333333333333332</ele><time>2026-04-06T14:40:12.852Z</time></trkpt><trkpt lat="53.540815169197835" lon="14.823746913525582"><ele>22.666666666666668</ele><time>2026-04-06T14:40:13.852Z</time></trkpt><trkpt lat="53.540635479553266" lon="14.823836680033597"><ele>23.0</ele><time>2026-04-06T14:40:14.852Z</time></trkpt><trkpt lat="53.54042594475607" lon="14.82391913303578"><ele>22.333333333333336</ele><time>2026-04-06T14:40:15.852Z</time></trkpt><trkpt lat="53.54023189978276" lon="14.824004076590004"><ele>21.666666666666668</ele><time>2026-04-06T14:40:16.853Z</time></trkpt><trkpt lat="53.54001793894979" lon="14.824104094241276"><ele>21.0</ele><time>2026-04-06T14:40:17.853Z</time></trkpt><trkpt lat="53.53980123560288" lon="14.82421806084749"><ele>21.333333333333332</ele><time>2026-04-06T14:40:18.853Z</time></trkpt><trkpt lat="53.539604871672836" lon="14.82432908217"><ele>21.666666666666664</ele><time>2026-04-06T14:40:19.853Z</time></trkpt><trkpt lat="53.539412841424834" lon="14.824429201758656"><ele>22.0</ele><time>2026-04-06T14:40:20.853Z</time></trkpt><trkpt lat="53.53923617134798" lon="14.824519588065481"><ele>22.0</ele><time>2026-04-06T14:40:21.853Z</time></trkpt><trkpt lat="53.53907177955846" lon="14.824609225840488"><ele>22.0</ele><time>2026-04-06T14:40:22.853Z</time></trkpt><trkpt lat="53.5389185284048" lon="14.824692625481834"><ele>22.0</ele><time>2026-04-06T14:40:23.853Z</time></trkpt><trkpt lat="53.53877326762275" lon="14.824762112967397"><ele>21.25</ele><time>2026-04-06T14:40:24.853Z</time></trkpt><trkpt lat="53.53862748791201" lon="14.824832212649905"><ele>20.5</ele><time>2026-04-06T14:40:25.853Z</time></trkpt><trkpt lat="53.538486238425484" lon="14.824899281605655"><ele>19.75</ele><time>2026-04-06T14:40:26.853Z</time></trkpt><trkpt lat="53.538343125097704" lon="14.824968476267957"><ele>19.0</ele><time>2026-04-06T14:40:27.853Z</time></trkpt><trkpt lat="53.53820360638331" lon="14.825032998316622"><ele>19.0</ele><time>2026-04-06T14:40:28.853Z</time></trkpt><trkpt lat="53.538060151800366" lon="14.825104660997312"><ele>19.0</ele><time>2026-04-06T14:40:29.853Z</time></trkpt><trkpt lat="53.53793150166942" lon="14.825164698297023"><ele>19.0</ele><time>2026-04-06T14:40:30.853Z</time></trkpt><trkpt lat="53.53779741062579" lon="14.825225771323272"><ele>19.0</ele><time>2026-04-06T14:40:31.853Z</time></trkpt><trkpt lat="53.53769332789929" lon="14.825285427216082"><ele>19.6</ele><time>2026-04-06T14:40:32.853Z</time></trkpt><trkpt lat="53.537597730383915" lon="14.82533717500933"><ele>20.2</ele><time>2026-04-06T14:40:33.853Z</time></trkpt><trkpt lat="53.53752215063237" lon="14.825377513777935"><ele>20.8</ele><time>2026-04-06T14:40:34.853Z</time></trkpt><trkpt lat="53.537446401444974" lon="14.82540965784425"><ele>21.400000000000002</ele><time>2026-04-06T14:40:35.853Z</time></trkpt><trkpt lat="53.53736877883091" lon="14.825447170466894"><ele>22.0</ele><time>2026-04-06T14:40:36.853Z</time></trkpt><trkpt lat="53.53724715059623" lon="14.825509595937602"><ele>22.0</ele><time>2026-04-06T14:40:37.853Z</time></trkpt><trkpt lat="53.53714258186569" lon="14.825563306662657"><ele>22.0</ele><time>2026-04-06T14:40:38.853Z</time></trkpt><trkpt lat="53.53702669656975" lon="14.825633228438257"><ele>22.0</ele><time>2026-04-06T14:40:39.853Z</time></trkpt><trkpt lat="53.5368765172649" lon="14.825709152197291"><ele>22.0</ele><time>2026-04-06T14:40:40.853Z</time></trkpt><trkpt lat="53.53672090290016" lon="14.825780490267755"><ele>21.0</ele><time>2026-04-06T14:40:41.853Z</time></trkpt><trkpt lat="53.53657252102492" lon="14.825847007471049"><ele>20.0</ele><time>2026-04-06T14:40:42.853Z</time></trkpt><trkpt lat="53.536427682024026" lon="14.825931211156664"><ele>19.0</ele><time>2026-04-06T14:40:43.853Z</time></trkpt><trkpt lat="53.53628293014054" lon="14.826004999810632"><ele>16.333333333333332</ele><time>2026-04-06T14:40:44.853Z</time></trkpt><trkpt lat="53.53613600233235" lon="14.826081862450053"><ele>13.666666666666666</ele><time>2026-04-06T14:40:45.853Z</time></trkpt><trkpt lat="53.53599260151439" lon="14.826153898032926"><ele>11.0</ele><time>2026-04-06T14:40:46.853Z</time></trkpt><trkpt lat="53.5358507943176" lon="14.82621354634678"><ele>11.0</ele><time>2026-04-06T14:40:47.853Z</time></trkpt><trkpt lat="53.53570434417645" lon="14.826278886023847"><ele>11.0</ele><time>2026-04-06T14:40:48.853Z</time></trkpt><trkpt lat="53.53556033774149" lon="14.826352719353329"><ele>11.0</ele><time>2026-04-06T14:40:49.853Z</time></trkpt><trkpt lat="53.53542102005392" lon="14.826417061837978"><ele>11.0</ele><time>2026-04-06T14:40:50.853Z</time></trkpt><trkpt lat="53.53527950862571" lon="14.82649243795412"><ele>10.75</ele><time>2026-04-06T14:40:51.853Z</time></trkpt><trkpt lat="53.535135117788194" lon="14.826563366452739"><ele>10.5</ele><time>2026-04-06T14:40:52.853Z</time></trkpt><trkpt lat="53.53499561142899" lon="14.826620505651132"><ele>10.25</ele><time>2026-04-06T14:40:53.853Z</time></trkpt><trkpt lat="53.53486580973511" lon="14.826699360875633"><ele>10.0</ele><time>2026-04-06T14:40:54.853Z</time></trkpt><trkpt lat="53.534745660930824" lon="14.826773815405181"><ele>10.5</ele><time>2026-04-06T14:40:55.853Z</time></trkpt><trkpt lat="53.534647020213015" lon="14.826835445866527"><ele>11.0</ele><time>2026-04-06T14:40:56.853Z</time></trkpt><trkpt lat="53.53452965430756" lon="14.826902944721628"><ele>11.5</ele><time>2026-04-06T14:40:57.853Z</time></trkpt><trkpt lat="53.534414964651226" lon="14.826977797816863"><ele>12.0</ele><time>2026-04-06T14:40:58.853Z</time></trkpt><trkpt lat="53.534281153331875" lon="14.827049453183415"><ele>13.25</ele><time>2026-04-06T14:40:59.853Z</time></trkpt><trkpt lat="53.53412889565009" lon="14.827125824626632"><ele>14.5</ele><time>2026-04-06T14:41:00.853Z</time></trkpt><trkpt lat="53.5339907903714" lon="14.82718293095094"><ele>15.75</ele><time>2026-04-06T14:41:01.853Z</time></trkpt><trkpt lat="53.533857223645484" lon="14.827254584929298"><ele>17.0</ele><time>2026-04-06T14:41:02.853Z</time></trkpt><trkpt lat="53.53371958848067" lon="14.82731720235717"><ele>18.0</ele><time>2026-04-06T14:41:03.853Z</time></trkpt><trkpt lat="53.533576091070294" lon="14.827389884733112"><ele>19.0</ele><time>2026-04-06T14:41:04.853Z</time></trkpt><trkpt lat="53.533434760325605" lon="14.82745986590565"><ele>20.0</ele><time>2026-04-06T14:41:05.853Z</time></trkpt><trkpt lat="53.53328470042519" lon="14.827528354928157"><ele>20.0</ele><time>2026-04-06T14:41:06.853Z</time></trkpt><trkpt lat="53.53313003524625" lon="14.827604147337887"><ele>20.0</ele><time>2026-04-06T14:41:07.853Z</time></trkpt><trkpt lat="53.532974521651894" lon="14.827678011626462"><ele>20.0</ele><time>2026-04-06T14:41:08.853Z</time></trkpt><trkpt lat="53.53282165900097" lon="14.827760692221913"><ele>19.666666666666668</ele><time>2026-04-06T14:41:09.853Z</time></trkpt><trkpt lat="53.53266697050065" lon="14.827839619921518"><ele>19.333333333333332</ele><time>2026-04-06T14:41:10.853Z</time></trkpt><trkpt lat="53.532505564896155" lon="14.827926669142045"><ele>19.0</ele><time>2026-04-06T14:41:11.853Z</time></trkpt><trkpt lat="53.532354750596376" lon="14.82801392742848"><ele>19.0</ele><time>2026-04-06T14:41:12.853Z</time></trkpt><trkpt lat="53.532201886075086" lon="14.828085262662709"><ele>19.0</ele><time>2026-04-06T14:41:13.853Z</time></trkpt><trkpt lat="53.53205283674807" lon="14.828163738389353"><ele>19.0</ele><time>2026-04-06T14:41:14.853Z</time></trkpt><trkpt lat="53.531899144455515" lon="14.828237537551932"><ele>19.0</ele><time>2026-04-06T14:41:15.853Z</time></trkpt><trkpt lat="53.53174774842574" lon="14.828307060133717"><ele>19.0</ele><time>2026-04-06T14:41:16.853Z</time></trkpt><trkpt lat="53.53159671303643" lon="14.828387817986625"><ele>19.0</ele><time>2026-04-06T14:41:17.853Z</time></trkpt><trkpt lat="53.531455400212266" lon="14.828457316897142"><ele>18.0</ele><time>2026-04-06T14:41:18.853Z</time></trkpt><trkpt lat="53.531300679197784" lon="14.828527083752878"><ele>17.0</ele><time>2026-04-06T14:41:19.853Z</time></trkpt><trkpt lat="53.5311318930899" lon="14.828613315358258"><ele>16.0</ele><time>2026-04-06T14:41:20.853Z</time></trkpt><trkpt lat="53.53097214554715" lon="14.828685810496669"><ele>15.75</ele><time>2026-04-06T14:41:21.853Z</time></trkpt><trkpt lat="53.53082831869002" lon="14.828748782845532"><ele>15.5</ele><time>2026-04-06T14:41:22.853Z</time></trkpt><trkpt lat="53.530688293007046" lon="14.828809397081946"><ele>15.25</ele><time>2026-04-06T14:41:23.853Z</time></trkpt><trkpt lat="53.53054235977789" lon="14.828880535732269"><ele>15.0</ele><time>2026-04-06T14:41:24.853Z</time></trkpt><trkpt lat="53.53039317751134" lon="14.828975612811439"><ele>16.333333333333332</ele><time>2026-04-06T14:41:25.853Z</time></trkpt><trkpt lat="53.53023112732921" lon="14.829051922847258"><ele>17.666666666666664</ele><time>2026-04-06T14:41:26.853Z</time></trkpt><trkpt lat="53.53006184834834" lon="14.829117450268678"><ele>19.0</ele><time>2026-04-06T14:41:27.853Z</time></trkpt><trkpt lat="53.52992754625374" lon="14.82918220725877"><ele>19.0</ele><time>2026-04-06T14:41:28.853Z</time></trkpt><trkpt lat="53.52976660732931" lon="14.829259682976069"><ele>19.0</ele><time>2026-04-06T14:41:29.853Z</time></trkpt><trkpt lat="53.52961082225308" lon="14.829343127278506"><ele>19.0</ele><time>2026-04-06T14:41:30.853Z</time></trkpt><trkpt lat="53.52946871709808" lon="14.829414712003219"><ele>18.75</ele><time>2026-04-06T14:41:31.853Z</time></trkpt><trkpt lat="53.52931369949577" lon="14.829488220037058"><ele>18.5</ele><time>2026-04-06T14:41:32.853Z</time></trkpt><trkpt lat="53.52917903555892" lon="14.829542985138229"><ele>18.25</ele><time>2026-04-06T14:41:33.853Z</time></trkpt><trkpt lat="53.52904054722317" lon="14.829610146606354"><ele>18.0</ele><time>2026-04-06T14:41:34.853Z</time></trkpt><trkpt lat="53.52889745162482" lon="14.829661351187836"><ele>18.0</ele><time>2026-04-06T14:41:35.853Z</time></trkpt><trkpt lat="53.52876318814057" lon="14.829719801595246"><ele>18.0</ele><time>2026-04-06T14:41:36.853Z</time></trkpt><trkpt lat="53.528645892781846" lon="14.8297863053957"><ele>18.0</ele><time>2026-04-06T14:41:37.853Z</time></trkpt><trkpt lat="53.52851554310787" lon="14.829860990879551"><ele>18.0</ele><time>2026-04-06T14:41:38.853Z</time></trkpt><trkpt lat="53.52837559310639" lon="14.829940757704984"><ele>19.333333333333332</ele><time>2026-04-06T14:41:39.853Z</time></trkpt><trkpt lat="53.5282234158128" lon="14.830013029000813"><ele>20.666666666666664</ele><time>2026-04-06T14:41:40.853Z</time></trkpt><trkpt lat="53.52807087943756" lon="14.830086465406431"><ele>22.0</ele><time>2026-04-06T14:41:41.853Z</time></trkpt><trkpt lat="53.52791129085254" lon="14.830162771278554"><ele>23.0</ele><time>2026-04-06T14:41:42.853Z</time></trkpt><trkpt lat="53.52772944264183" lon="14.830241303768235"><ele>24.0</ele><time>2026-04-06T14:41:43.853Z</time></trkpt><trkpt lat="53.5275362602092" lon="14.830334837234545"><ele>25.0</ele><time>2026-04-06T14:41:44.853Z</time></trkpt><trkpt lat="53.527318837898456" lon="14.830432632274743"><ele>25.0</ele><time>2026-04-06T14:41:45.853Z</time></trkpt><trkpt lat="53.52709896888733" lon="14.830547240053065"><ele>25.0</ele><time>2026-04-06T14:41:46.853Z</time></trkpt><trkpt lat="53.52686835447508" lon="14.830662794476417"><ele>24.5</ele><time>2026-04-06T14:41:47.853Z</time></trkpt><trkpt lat="53.52662996037126" lon="14.83078262836542"><ele>24.0</ele><time>2026-04-06T14:41:48.853Z</time></trkpt><trkpt lat="53.526400380103546" lon="14.83088350977039"><ele>25.0</ele><time>2026-04-06T14:41:49.853Z</time></trkpt><trkpt lat="53.526190604392966" lon="14.830988881109086"><ele>26.0</ele><time>2026-04-06T14:41:50.853Z</time></trkpt><trkpt lat="53.525983065960006" lon="14.831094784094505"><ele>27.0</ele><time>2026-04-06T14:41:51.853Z</time></trkpt><trkpt lat="53.52578407109529" lon="14.831179479705545"><ele>27.0</ele><time>2026-04-06T14:41:52.853Z</time></trkpt><trkpt lat="53.52559796520559" lon="14.831265042073976"><ele>27.0</ele><time>2026-04-06T14:41:53.853Z</time></trkpt><trkpt lat="53.525426903015806" lon="14.831340838582031"><ele>27.0</ele><time>2026-04-06T14:41:54.853Z</time></trkpt><trkpt lat="53.5252814972461" lon="14.831422282746985"><ele>27.0</ele><time>2026-04-06T14:41:55.853Z</time></trkpt><trkpt lat="53.52510261975348" lon="14.831519453399588"><ele>27.0</ele><time>2026-04-06T14:41:56.853Z</time></trkpt><trkpt lat="53.52493352992106" lon="14.831602392417189"><ele>27.0</ele><time>2026-04-06T14:41:57.851Z</time></trkpt><trkpt lat="53.52481176414134" lon="14.83166734409296"><ele>27.0</ele><time>2026-04-06T14:41:58.851Z</time></trkpt><trkpt lat="53.524658013266276" lon="14.831736236313585"><ele>27.0</ele><time>2026-04-06T14:41:59.851Z</time></trkpt><trkpt lat="53.52455001401661" lon="14.831800574662154"><ele>27.0</ele><time>2026-04-06T14:42:00.851Z</time></trkpt><trkpt lat="53.52443349209095" lon="14.831852149369704"><ele>27.0</ele><time>2026-04-06T14:42:01.852Z</time></trkpt><trkpt lat="53.52431541041821" lon="14.831901338457582"><ele>27.0</ele><time>2026-04-06T14:42:02.852Z</time></trkpt><trkpt lat="53.52420034271182" lon="14.831946139394088"><ele>27.0</ele><time>2026-04-06T14:42:03.851Z</time></trkpt><trkpt lat="53.52408009348281" lon="14.831992583592712"><ele>27.0</ele><time>2026-04-06T14:42:04.851Z</time></trkpt><trkpt lat="53.52396762912217" lon="14.832053644332953"><ele>27.0</ele><time>2026-04-06T14:42:05.851Z</time></trkpt><trkpt lat="53.523860680612" lon="14.83209758370042"><ele>27.0</ele><time>2026-04-06T14:42:06.851Z</time></trkpt><trkpt lat="53.523753607113136" lon="14.832163801793138"><ele>27.0</ele><time>2026-04-06T14:42:07.851Z</time></trkpt><trkpt lat="53.52365127230148" lon="14.832214735566774"><ele>27.0</ele><time>2026-04-06T14:42:08.851Z</time></trkpt><trkpt lat="53.52353439844144" lon="14.832277327667517"><ele>27.0</ele><time>2026-04-06T14:42:09.851Z</time></trkpt><trkpt lat="53.52341043794533" lon="14.832345955123891"><ele>26.75</ele><time>2026-04-06T14:42:10.851Z</time></trkpt><trkpt lat="53.52327670195842" lon="14.832400356065293"><ele>26.5</ele><time>2026-04-06T14:42:11.851Z</time></trkpt><trkpt lat="53.5231613858149" lon="14.832461189341764"><ele>26.25</ele><time>2026-04-06T14:42:12.851Z</time></trkpt><trkpt lat="53.52304308491107" lon="14.832519428080506"><ele>26.0</ele><time>2026-04-06T14:42:13.851Z</time></trkpt><trkpt lat="53.522909877509676" lon="14.832582826419946"><ele>25.5</ele><time>2026-04-06T14:42:14.851Z</time></trkpt><trkpt lat="53.522795693479345" lon="14.832649691608191"><ele>25.0</ele><time>2026-04-06T14:42:15.851Z</time></trkpt><trkpt lat="53.52266304210517" lon="14.83270928374751"><ele>24.5</ele><time>2026-04-06T14:42:16.851Z</time></trkpt><trkpt lat="53.52253820095653" lon="14.832766758906429"><ele>24.0</ele><time>2026-04-06T14:42:17.851Z</time></trkpt><trkpt lat="53.522418533199236" lon="14.832829747610026"><ele>24.0</ele><time>2026-04-06T14:42:18.851Z</time></trkpt><trkpt lat="53.52229699815292" lon="14.832895814908591"><ele>24.0</ele><time>2026-04-06T14:42:19.851Z</time></trkpt><trkpt lat="53.5221946983073" lon="14.832961535251473"><ele>24.0</ele><time>2026-04-06T14:42:20.851Z</time></trkpt><trkpt lat="53.522077717279274" lon="14.833013992108372"><ele>24.0</ele><time>2026-04-06T14:42:21.851Z</time></trkpt><trkpt lat="53.52197094396697" lon="14.833050521268625"><ele>23.6</ele><time>2026-04-06T14:42:22.851Z</time></trkpt><trkpt lat="53.52187075917319" lon="14.833069685054292"><ele>23.2</ele><time>2026-04-06T14:42:23.851Z</time></trkpt><trkpt lat="53.521786055860076" lon="14.833078456240012"><ele>22.8</ele><time>2026-04-06T14:42:24.851Z</time></trkpt><trkpt lat="53.521721225331696" lon="14.833070429003824"><ele>22.400000000000002</ele><time>2026-04-06T14:42:25.851Z</time></trkpt><trkpt lat="53.521620964696375" lon="14.833076463204097"><ele>22.0</ele><time>2026-04-06T14:42:27.851Z</time></trkpt><trkpt lat="53.52151983150722" lon="14.8330586380934"><ele>22.0</ele><time>2026-04-06T14:42:29.851Z</time></trkpt><trkpt lat="53.52143909583355" lon="14.83303542902789"><ele>22.0</ele><time>2026-04-06T14:42:31.851Z</time></trkpt><trkpt lat="53.52136068316793" lon="14.833076043686955"><ele>22.0</ele><time>2026-04-06T14:42:34.851Z</time></trkpt><trkpt lat="53.521282291848706" lon="14.833194264598319"><ele>22.0</ele><time>2026-04-06T14:42:36.851Z</time></trkpt><trkpt lat="53.521197364837704" lon="14.833261004282111"><ele>22.0</ele><time>2026-04-06T14:42:38.851Z</time></trkpt><trkpt lat="53.52113220200423" lon="14.833363983281643"><ele>22.333333333333332</ele><time>2026-04-06T14:42:39.851Z</time></trkpt><trkpt lat="53.521075280993045" lon="14.833420192329028"><ele>22.666666666666664</ele><time>2026-04-06T14:42:42.851Z</time></trkpt><trkpt lat="53.52106212019758" lon="14.833584524836885"><ele>23.0</ele><time>2026-04-06T14:42:44.851Z</time></trkpt><trkpt lat="53.52108366338645" lon="14.833760641799843"><ele>23.333333333333332</ele><time>2026-04-06T14:42:46.851Z</time></trkpt><trkpt lat="53.52109172775962" lon="14.833877144295684"><ele>23.666666666666668</ele><time>2026-04-06T14:42:48.851Z</time></trkpt><trkpt lat="53.521108513548405" lon="14.833982985206056"><ele>24.0</ele><time>2026-04-06T14:42:49.851Z</time></trkpt><trkpt lat="53.521163124290645" lon="14.834224642645813"><ele>24.5</ele><time>2026-04-06T14:42:51.851Z</time></trkpt><trkpt lat="53.52119454298015" lon="14.834346944323572"><ele>25.0</ele><time>2026-04-06T14:42:54.851Z</time></trkpt><trkpt lat="53.52124297198812" lon="14.834441573975766"><ele>25.5</ele><time>2026-04-06T14:42:56.851Z</time></trkpt><trkpt lat="53.52130734221815" lon="14.834537775774452"><ele>26.0</ele><time>2026-04-06T14:43:00.851Z</time></trkpt><trkpt lat="53.521343946954445" lon="14.83467387520688"><ele>26.5</ele><time>2026-04-06T14:43:02.851Z</time></trkpt><trkpt lat="53.52139607335917" lon="14.834818770597337"><ele>27.0</ele><time>2026-04-06T14:43:04.851Z</time></trkpt><trkpt lat="53.52134473973979" lon="14.834722081129614"><ele>27.0</ele><time>2026-04-06T14:43:13.851Z</time></trkpt><trkpt lat="53.521304675543284" lon="14.8345550302898"><ele>27.0</ele><time>2026-04-06T14:43:15.851Z</time></trkpt><trkpt lat="53.52122923021848" lon="14.834465563027281"><ele>27.0</ele><time>2026-04-06T14:43:17.851Z</time></trkpt><trkpt lat="53.52117681517599" lon="14.83438617700952"><ele>27.0</ele><time>2026-04-06T14:43:18.851Z</time></trkpt><trkpt lat="53.521140741044945" lon="14.834270550255859"><ele>27.0</ele><time>2026-04-06T14:43:23.851Z</time></trkpt><trkpt lat="53.52110599220663" lon="14.834113307695867"><ele>27.0</ele><time>2026-04-06T14:43:25.851Z</time></trkpt><trkpt lat="53.521089185763365" lon="14.83400801841217"><ele>27.0</ele><time>2026-04-06T14:43:26.851Z</time></trkpt><trkpt lat="53.52106725762994" lon="14.833880707658597"><ele>27.0</ele><time>2026-04-06T14:43:27.851Z</time></trkpt><trkpt lat="53.521044908298066" lon="14.833733656531026"><ele>27.0</ele><time>2026-04-06T14:43:29.851Z</time></trkpt><trkpt lat="53.521037396046474" lon="14.833580960343088"><ele>27.0</ele><time>2026-04-06T14:43:31.851Z</time></trkpt><trkpt lat="53.520991345234115" lon="14.83350063772751"><ele>27.0</ele><time>2026-04-06T14:43:34.851Z</time></trkpt><trkpt lat="53.52094059980667" lon="14.833418742379076"><ele>27.0</ele><time>2026-04-06T14:43:38.851Z</time></trkpt><trkpt lat="53.52090830957861" lon="14.833286519633566"><ele>26.400000000000002</ele><time>2026-04-06T14:43:41.851Z</time></trkpt><trkpt lat="53.52086063274615" lon="14.833178557677531"><ele>25.800000000000004</ele><time>2026-04-06T14:43:44.851Z</time></trkpt><trkpt lat="53.52079767037514" lon="14.833152566491394"><ele>25.2</ele><time>2026-04-06T14:43:45.851Z</time></trkpt><trkpt lat="53.52069453001394" lon="14.833174170074217"><ele>24.6</ele><time>2026-04-06T14:43:46.851Z</time></trkpt><trkpt lat="53.52057356007001" lon="14.83321581579553"><ele>24.0</ele><time>2026-04-06T14:43:47.851Z</time></trkpt><trkpt lat="53.52044370780877" lon="14.833286139517805"><ele>23.25</ele><time>2026-04-06T14:43:48.851Z</time></trkpt><trkpt lat="53.52030915433923" lon="14.833329786041087"><ele>22.5</ele><time>2026-04-06T14:43:49.851Z</time></trkpt><trkpt lat="53.52016077489743" lon="14.833387236405807"><ele>21.75</ele><time>2026-04-06T14:43:50.851Z</time></trkpt><trkpt lat="53.5200298388653" lon="14.833415207018161"><ele>21.0</ele><time>2026-04-06T14:43:51.851Z</time></trkpt><trkpt lat="53.51988391795508" lon="14.833474600098382"><ele>21.0</ele><time>2026-04-06T14:43:52.851Z</time></trkpt><trkpt lat="53.51970039259765" lon="14.8335455802302"><ele>21.0</ele><time>2026-04-06T14:43:53.851Z</time></trkpt><trkpt lat="53.519540226413575" lon="14.833640059569579"><ele>21.0</ele><time>2026-04-06T14:43:54.851Z</time></trkpt><trkpt lat="53.51939348120807" lon="14.833721950748574"><ele>21.0</ele><time>2026-04-06T14:43:55.851Z</time></trkpt><trkpt lat="53.519282105966376" lon="14.833775118577615"><ele>21.0</ele><time>2026-04-06T14:43:56.851Z</time></trkpt><trkpt lat="53.51915401278156" lon="14.833845690872419"><ele>21.0</ele><time>2026-04-06T14:43:57.851Z</time></trkpt><trkpt lat="53.519027436199295" lon="14.833898460038514"><ele>21.0</ele><time>2026-04-06T14:43:58.851Z</time></trkpt><trkpt lat="53.51888951916315" lon="14.833959817168953"><ele>21.0</ele><time>2026-04-06T14:43:59.851Z</time></trkpt><trkpt lat="53.51877880491309" lon="14.83401674537995"><ele>21.0</ele><time>2026-04-06T14:44:00.851Z</time></trkpt><trkpt lat="53.5186835127667" lon="14.834056651412954"><ele>21.0</ele><time>2026-04-06T14:44:01.851Z</time></trkpt><trkpt lat="53.51860525431431" lon="14.834101059329216"><ele>21.0</ele><time>2026-04-06T14:44:02.851Z</time></trkpt><trkpt lat="53.518515991944156" lon="14.834136157111041"><ele>21.0</ele><time>2026-04-06T14:44:03.849Z</time></trkpt><trkpt lat="53.51843075905658" lon="14.83416988854934"><ele>21.0</ele><time>2026-04-06T14:44:04.85Z</time></trkpt><trkpt lat="53.5183620185415" lon="14.834201444440529"><ele>21.0</ele><time>2026-04-06T14:44:05.85Z</time></trkpt><trkpt lat="53.51828380212489" lon="14.834220137611634"><ele>21.0</ele><time>2026-04-06T14:44:06.85Z</time></trkpt><trkpt lat="53.51820360777725" lon="14.834262168562777"><ele>21.0</ele><time>2026-04-06T14:44:07.849Z</time></trkpt><trkpt lat="53.518115664739796" lon="14.834294065275857"><ele>21.0</ele><time>2026-04-06T14:44:08.849Z</time></trkpt><trkpt lat="53.518021602136066" lon="14.834315647313137"><ele>21.0</ele><time>2026-04-06T14:44:09.85Z</time></trkpt><trkpt lat="53.517925907454114" lon="14.834357539924028"><ele>21.200000000000003</ele><time>2026-04-06T14:44:10.849Z</time></trkpt><trkpt lat="53.51782250328709" lon="14.834406554629712"><ele>21.400000000000002</ele><time>2026-04-06T14:44:11.849Z</time></trkpt><trkpt lat="53.51770330123515" lon="14.834436413860459"><ele>21.6</ele><time>2026-04-06T14:44:12.849Z</time></trkpt><trkpt lat="53.51760223312002" lon="14.834455362862103"><ele>21.8</ele><time>2026-04-06T14:44:13.85Z</time></trkpt><trkpt lat="53.51749991165228" lon="14.834501607950173"><ele>22.0</ele><time>2026-04-06T14:44:14.85Z</time></trkpt><trkpt lat="53.517380602942104" lon="14.834544646217505"><ele>22.0</ele><time>2026-04-06T14:44:15.85Z</time></trkpt><trkpt lat="53.51725202494337" lon="14.834597807729375"><ele>22.0</ele><time>2026-04-06T14:44:16.85Z</time></trkpt><trkpt lat="53.51712800526685" lon="14.834649782499778"><ele>22.0</ele><time>2026-04-06T14:44:17.85Z</time></trkpt><trkpt lat="53.51701476750736" lon="14.834691714546"><ele>22.0</ele><time>2026-04-06T14:44:18.85Z</time></trkpt><trkpt lat="53.516902556886414" lon="14.83473511205419"><ele>22.0</ele><time>2026-04-06T14:44:19.85Z</time></trkpt><trkpt lat="53.51681174389682" lon="14.834780406945768"><ele>22.0</ele><time>2026-04-06T14:44:20.85Z</time></trkpt><trkpt lat="53.516710256003044" lon="14.834829174522307"><ele>22.0</ele><time>2026-04-06T14:44:21.85Z</time></trkpt><trkpt lat="53.51662707949326" lon="14.834868241638784"><ele>22.0</ele><time>2026-04-06T14:44:22.85Z</time></trkpt><trkpt lat="53.51655473988946" lon="14.83490378679"><ele>22.0</ele><time>2026-04-06T14:44:23.85Z</time></trkpt><trkpt lat="53.51643636390453" lon="14.834949589273307"><ele>22.0</ele><time>2026-04-06T14:44:24.85Z</time></trkpt><trkpt lat="53.51632952454985" lon="14.835000061886008"><ele>22.0</ele><time>2026-04-06T14:44:25.85Z</time></trkpt><trkpt lat="53.51621167858085" lon="14.835034954970837"><ele>22.0</ele><time>2026-04-06T14:44:26.85Z</time></trkpt><trkpt lat="53.51610035758708" lon="14.835068338187451"><ele>22.0</ele><time>2026-04-06T14:44:27.85Z</time></trkpt><trkpt lat="53.51601168926757" lon="14.835105142371036"><ele>22.0</ele><time>2026-04-06T14:44:28.85Z</time></trkpt><trkpt lat="53.51593610923105" lon="14.835135765908468"><ele>21.833333333333332</ele><time>2026-04-06T14:44:29.85Z</time></trkpt><trkpt lat="53.51586107608364" lon="14.835166447486978"><ele>21.666666666666664</ele><time>2026-04-06T14:44:30.85Z</time></trkpt><trkpt lat="53.51578677974256" lon="14.835197733033601"><ele>21.5</ele><time>2026-04-06T14:44:31.85Z</time></trkpt><trkpt lat="53.515709367854654" lon="14.835183233775938"><ele>21.333333333333332</ele><time>2026-04-06T14:44:33.85Z</time></trkpt><trkpt lat="53.51567759401857" lon="14.835052781706505"><ele>21.166666666666668</ele><time>2026-04-06T14:44:35.85Z</time></trkpt><trkpt lat="53.51567375697951" lon="14.834921197758629"><ele>21.0</ele><time>2026-04-06T14:44:36.85Z</time></trkpt><trkpt lat="53.5156933872292" lon="14.834762277625506"><ele>21.0</ele><time>2026-04-06T14:44:37.85Z</time></trkpt><trkpt lat="53.51571507852152" lon="14.834579950063965"><ele>21.0</ele><time>2026-04-06T14:44:38.85Z</time></trkpt><trkpt lat="53.51573667909412" lon="14.834405389540693"><ele>21.0</ele><time>2026-04-06T14:44:39.85Z</time></trkpt><trkpt lat="53.51575832336832" lon="14.834206920939728"><ele>21.0</ele><time>2026-04-06T14:44:40.85Z</time></trkpt><trkpt lat="53.515781474798075" lon="14.833992024398368"><ele>21.0</ele><time>2026-04-06T14:44:41.85Z</time></trkpt><trkpt lat="53.51580609213253" lon="14.833778390725346"><ele>21.0</ele><time>2026-04-06T14:44:42.85Z</time></trkpt><trkpt lat="53.515835408489686" lon="14.833588602573178"><ele>21.0</ele><time>2026-04-06T14:44:43.85Z</time></trkpt><trkpt lat="53.51585934416888" lon="14.833388208932915"><ele>21.0</ele><time>2026-04-06T14:44:44.85Z</time></trkpt><trkpt lat="53.51588291066641" lon="14.833198161006292"><ele>20.0</ele><time>2026-04-06T14:44:45.85Z</time></trkpt><trkpt lat="53.51590114658505" lon="14.832997078088905"><ele>19.0</ele><time>2026-04-06T14:44:46.85Z</time></trkpt><trkpt lat="53.515917310280166" lon="14.832814362530046"><ele>18.0</ele><time>2026-04-06T14:44:47.85Z</time></trkpt><trkpt lat="53.51594059146806" lon="14.832609732127288"><ele>17.0</ele><time>2026-04-06T14:44:48.85Z</time></trkpt><trkpt lat="53.5159583096833" lon="14.832421147922012"><ele>16.25</ele><time>2026-04-06T14:44:49.85Z</time></trkpt><trkpt lat="53.515978464426766" lon="14.832218030815145"><ele>15.5</ele><time>2026-04-06T14:44:50.85Z</time></trkpt><trkpt lat="53.51599230217624" lon="14.832000969990027"><ele>14.75</ele><time>2026-04-06T14:44:51.85Z</time></trkpt><trkpt lat="53.5160259308714" lon="14.831797978661163"><ele>14.0</ele><time>2026-04-06T14:44:52.85Z</time></trkpt><trkpt lat="53.51603912331659" lon="14.831587834081725"><ele>14.0</ele><time>2026-04-06T14:44:53.85Z</time></trkpt><trkpt lat="53.516061776017345" lon="14.831373548303182"><ele>14.0</ele><time>2026-04-06T14:44:54.85Z</time></trkpt><trkpt lat="53.516092591125364" lon="14.831153942785564"><ele>14.0</ele><time>2026-04-06T14:44:55.85Z</time></trkpt><trkpt lat="53.516131771531484" lon="14.830926826905456"><ele>14.0</ele><time>2026-04-06T14:44:56.85Z</time></trkpt><trkpt lat="53.51616428846017" lon="14.830690350722152"><ele>14.0</ele><time>2026-04-06T14:44:57.85Z</time></trkpt><trkpt lat="53.51617702153675" lon="14.830473856707842"><ele>14.0</ele><time>2026-04-06T14:44:58.85Z</time></trkpt><trkpt lat="53.51619371678972" lon="14.830267530110737"><ele>14.0</ele><time>2026-04-06T14:44:59.85Z</time></trkpt><trkpt lat="53.51622766507604" lon="14.830042787382288"><ele>14.0</ele><time>2026-04-06T14:45:00.85Z</time></trkpt><trkpt lat="53.51624930252145" lon="14.829827896320515"><ele>13.75</ele><time>2026-04-06T14:45:01.85Z</time></trkpt><trkpt lat="53.516273307608806" lon="14.82962188567345"><ele>13.5</ele><time>2026-04-06T14:45:02.85Z</time></trkpt><trkpt lat="53.51630017114857" lon="14.829429296817894"><ele>13.25</ele><time>2026-04-06T14:45:03.85Z</time></trkpt><trkpt lat="53.516321694178615" lon="14.829228987935105"><ele>13.0</ele><time>2026-04-06T14:45:04.85Z</time></trkpt><trkpt lat="53.51633816075333" lon="14.829032147134797"><ele>13.5</ele><time>2026-04-06T14:45:05.85Z</time></trkpt><trkpt lat="53.51635468594706" lon="14.828812940649575"><ele>14.0</ele><time>2026-04-06T14:45:06.85Z</time></trkpt><trkpt lat="53.516389844797175" lon="14.82858344011697"><ele>14.5</ele><time>2026-04-06T14:45:07.85Z</time></trkpt><trkpt lat="53.51641330181709" lon="14.828365224804601"><ele>15.0</ele><time>2026-04-06T14:45:08.85Z</time></trkpt><trkpt lat="53.51642681224119" lon="14.82819091894143"><ele>15.25</ele><time>2026-04-06T14:45:09.85Z</time></trkpt><trkpt lat="53.51644769212877" lon="14.827989439964215"><ele>15.5</ele><time>2026-04-06T14:45:10.85Z</time></trkpt><trkpt lat="53.5164772547366" lon="14.827756867795475"><ele>15.75</ele><time>2026-04-06T14:45:11.85Z</time></trkpt><trkpt lat="53.516507853937256" lon="14.827497894776286"><ele>16.0</ele><time>2026-04-06T14:45:12.85Z</time></trkpt><trkpt lat="53.51653390379545" lon="14.827248021887014"><ele>16.0</ele><time>2026-04-06T14:45:13.85Z</time></trkpt><trkpt lat="53.51657119806193" lon="14.826965329348386"><ele>16.0</ele><time>2026-04-06T14:45:14.85Z</time></trkpt><trkpt lat="53.51659958413336" lon="14.82670122800505"><ele>16.0</ele><time>2026-04-06T14:45:15.85Z</time></trkpt><trkpt lat="53.5166487703105" lon="14.826425264872283"><ele>16.5</ele><time>2026-04-06T14:45:16.85Z</time></trkpt><trkpt lat="53.51667294087827" lon="14.826197731368342"><ele>17.0</ele><time>2026-04-06T14:45:17.85Z</time></trkpt><trkpt lat="53.51670545878778" lon="14.825949090412776"><ele>17.5</ele><time>2026-04-06T14:45:18.85Z</time></trkpt><trkpt lat="53.51673580146307" lon="14.825684039459187"><ele>18.0</ele><time>2026-04-06T14:45:19.85Z</time></trkpt><trkpt lat="53.51676405314581" lon="14.825453316911684"><ele>18.0</ele><time>2026-04-06T14:45:20.85Z</time></trkpt><trkpt lat="53.5167857870663" lon="14.825226029370747"><ele>18.0</ele><time>2026-04-06T14:45:21.85Z</time></trkpt><trkpt lat="53.516816296840645" lon="14.824993587514394"><ele>18.0</ele><time>2026-04-06T14:45:22.85Z</time></trkpt><trkpt lat="53.51684541565425" lon="14.824731498393197"><ele>18.0</ele><time>2026-04-06T14:45:23.85Z</time></trkpt><trkpt lat="53.516885965414126" lon="14.82446076584063"><ele>17.666666666666668</ele><time>2026-04-06T14:45:24.85Z</time></trkpt><trkpt lat="53.51692628330633" lon="14.824165144168491"><ele>17.333333333333336</ele><time>2026-04-06T14:45:25.85Z</time></trkpt><trkpt lat="53.51696095196879" lon="14.823909907987822"><ele>17.0</ele><time>2026-04-06T14:45:26.85Z</time></trkpt><trkpt lat="53.516981642195525" lon="14.823658909661127"><ele>17.25</ele><time>2026-04-06T14:45:27.85Z</time></trkpt><trkpt lat="53.517014620916015" lon="14.82341833996548"><ele>17.5</ele><time>2026-04-06T14:45:28.85Z</time></trkpt><trkpt lat="53.51703274288933" lon="14.823178711710524"><ele>17.75</ele><time>2026-04-06T14:45:29.85Z</time></trkpt><trkpt lat="53.51706575381135" lon="14.822922320648688"><ele>18.0</ele><time>2026-04-06T14:45:30.85Z</time></trkpt><trkpt lat="53.517096605504854" lon="14.822681704938821"><ele>18.0</ele><time>2026-04-06T14:45:31.85Z</time></trkpt><trkpt lat="53.51712019266236" lon="14.822422284799904"><ele>18.0</ele><time>2026-04-06T14:45:32.85Z</time></trkpt><trkpt lat="53.51715983875104" lon="14.822164993311098"><ele>18.0</ele><time>2026-04-06T14:45:33.85Z</time></trkpt><trkpt lat="53.51718659092602" lon="14.821949588876704"><ele>18.0</ele><time>2026-04-06T14:45:34.85Z</time></trkpt><trkpt lat="53.517198128220684" lon="14.821761109281873"><ele>18.0</ele><time>2026-04-06T14:45:35.85Z</time></trkpt><trkpt lat="53.517235504288855" lon="14.82155964410737"><ele>18.0</ele><time>2026-04-06T14:45:36.85Z</time></trkpt><trkpt lat="53.517262588231034" lon="14.821351264458995"><ele>18.0</ele><time>2026-04-06T14:45:37.85Z</time></trkpt><trkpt lat="53.51729318377804" lon="14.821146046540521"><ele>18.0</ele><time>2026-04-06T14:45:38.85Z</time></trkpt><trkpt lat="53.517316091892035" lon="14.820934385547787"><ele>17.75</ele><time>2026-04-06T14:45:39.85Z</time></trkpt><trkpt lat="53.5173392515566" lon="14.820723267086615"><ele>17.5</ele><time>2026-04-06T14:45:40.85Z</time></trkpt><trkpt lat="53.51735746719472" lon="14.820519557428836"><ele>17.25</ele><time>2026-04-06T14:45:41.85Z</time></trkpt><trkpt lat="53.51737622821444" lon="14.820305233487762"><ele>17.0</ele><time>2026-04-06T14:45:42.85Z</time></trkpt><trkpt lat="53.51740165022376" lon="14.820077558998603"><ele>17.0</ele><time>2026-04-06T14:45:43.85Z</time></trkpt><trkpt lat="53.51742914904085" lon="14.819837097041388"><ele>17.0</ele><time>2026-04-06T14:45:44.85Z</time></trkpt><trkpt lat="53.51746415575838" lon="14.819568177711181"><ele>17.0</ele><time>2026-04-06T14:45:45.85Z</time></trkpt><trkpt lat="53.51749954347002" lon="14.819275021068515"><ele>17.0</ele><time>2026-04-06T14:45:46.85Z</time></trkpt><trkpt lat="53.51753400700297" lon="14.818975907442837"><ele>17.0</ele><time>2026-04-06T14:45:47.85Z</time></trkpt><trkpt lat="53.51756959865415" lon="14.818648024775246"><ele>17.0</ele><time>2026-04-06T14:45:48.85Z</time></trkpt><trkpt lat="53.51761345673409" lon="14.818289567534666"><ele>17.0</ele><time>2026-04-06T14:45:49.85Z</time></trkpt><trkpt lat="53.51765817956999" lon="14.817942194648683"><ele>17.0</ele><time>2026-04-06T14:45:50.85Z</time></trkpt><trkpt lat="53.5176920908241" lon="14.81762490418334"><ele>17.0</ele><time>2026-04-06T14:45:51.85Z</time></trkpt><trkpt lat="53.51772390560853" lon="14.817351282853142"><ele>17.0</ele><time>2026-04-06T14:45:52.85Z</time></trkpt><trkpt lat="53.517745783345624" lon="14.817094971581765"><ele>17.0</ele><time>2026-04-06T14:45:53.85Z</time></trkpt><trkpt lat="53.51776548248515" lon="14.816855814678899"><ele>17.0</ele><time>2026-04-06T14:45:54.85Z</time></trkpt><trkpt lat="53.51778943526715" lon="14.81663519677989"><ele>17.0</ele><time>2026-04-06T14:45:55.85Z</time></trkpt><trkpt lat="53.51781484973719" lon="14.816414908415922"><ele>17.25</ele><time>2026-04-06T14:45:56.85Z</time></trkpt><trkpt lat="53.51783777856175" lon="14.816178240574668"><ele>17.5</ele><time>2026-04-06T14:45:57.85Z</time></trkpt><trkpt lat="53.51786261422065" lon="14.815939898257739"><ele>17.75</ele><time>2026-04-06T14:45:58.85Z</time></trkpt><trkpt lat="53.51788946202448" lon="14.815728639047833"><ele>18.0</ele><time>2026-04-06T14:45:59.85Z</time></trkpt><trkpt lat="53.51790812507956" lon="14.815561914381274"><ele>18.166666666666668</ele><time>2026-04-06T14:46:00.85Z</time></trkpt><trkpt lat="53.51791952216182" lon="14.815423955842954"><ele>18.333333333333332</ele><time>2026-04-06T14:46:01.85Z</time></trkpt><trkpt lat="53.51793309869766" lon="14.815296798899588"><ele>18.5</ele><time>2026-04-06T14:46:02.85Z</time></trkpt><trkpt lat="53.51794636970561" lon="14.815188009027517"><ele>18.666666666666664</ele><time>2026-04-06T14:46:03.85Z</time></trkpt><trkpt lat="53.517959153624716" lon="14.815030304817016"><ele>18.833333333333332</ele><time>2026-04-06T14:46:05.85Z</time></trkpt><trkpt lat="53.51787566068161" lon="14.814916055746506"><ele>19.0</ele><time>2026-04-06T14:46:07.85Z</time></trkpt><trkpt lat="53.51777028154015" lon="14.81488381956934"><ele>18.5</ele><time>2026-04-06T14:46:08.85Z</time></trkpt><trkpt lat="53.51766410553264" lon="14.814869527358828"><ele>18.0</ele><time>2026-04-06T14:46:09.848Z</time></trkpt><trkpt lat="53.51753982632324" lon="14.814847199671117"><ele>17.5</ele><time>2026-04-06T14:46:10.848Z</time></trkpt><trkpt lat="53.51739865917913" lon="14.814826146424112"><ele>17.0</ele><time>2026-04-06T14:46:11.848Z</time></trkpt><trkpt lat="53.51724678281038" lon="14.814773013155445"><ele>17.0</ele><time>2026-04-06T14:46:12.848Z</time></trkpt><trkpt lat="53.51711650124953" lon="14.81473070562381"><ele>17.0</ele><time>2026-04-06T14:46:13.848Z</time></trkpt><trkpt lat="53.51699904830446" lon="14.814693959940506"><ele>17.0</ele><time>2026-04-06T14:46:14.848Z</time></trkpt><trkpt lat="53.51687522155902" lon="14.814659436071054"><ele>17.0</ele><time>2026-04-06T14:46:15.847Z</time></trkpt><trkpt lat="53.51675937527062" lon="14.814618599224257"><ele>17.5</ele><time>2026-04-06T14:46:16.848Z</time></trkpt><trkpt lat="53.51662756109294" lon="14.814586934764504"><ele>18.0</ele><time>2026-04-06T14:46:17.848Z</time></trkpt><trkpt lat="53.5165418279329" lon="14.81454992325963"><ele>18.5</ele><time>2026-04-06T14:46:18.848Z</time></trkpt><trkpt lat="53.51642021373013" lon="14.814506720273611"><ele>19.0</ele><time>2026-04-06T14:46:19.848Z</time></trkpt><trkpt lat="53.516294326004726" lon="14.814471718770704"><ele>18.5</ele><time>2026-04-06T14:46:20.848Z</time></trkpt><trkpt lat="53.516168159381294" lon="14.814434827467503"><ele>18.0</ele><time>2026-04-06T14:46:21.848Z</time></trkpt><trkpt lat="53.51603415847288" lon="14.814403650899568"><ele>17.5</ele><time>2026-04-06T14:46:22.848Z</time></trkpt><trkpt lat="53.51589684483994" lon="14.814355452813896"><ele>17.0</ele><time>2026-04-06T14:46:23.848Z</time></trkpt><trkpt lat="53.51577266991115" lon="14.814307479077295"><ele>18.75</ele><time>2026-04-06T14:46:24.848Z</time></trkpt><trkpt lat="53.5156401468742" lon="14.81425970976049"><ele>20.5</ele><time>2026-04-06T14:46:25.848Z</time></trkpt><trkpt lat="53.51550234374413" lon="14.814224538041314"><ele>22.25</ele><time>2026-04-06T14:46:26.848Z</time></trkpt><trkpt lat="53.51537576687965" lon="14.81418040804626"><ele>24.0</ele><time>2026-04-06T14:46:27.848Z</time></trkpt><trkpt lat="53.515247590819726" lon="14.814150734696563"><ele>24.25</ele><time>2026-04-06T14:46:28.848Z</time></trkpt><trkpt lat="53.515134644037225" lon="14.814101698219506"><ele>24.5</ele><time>2026-04-06T14:46:29.848Z</time></trkpt><trkpt lat="53.51503642016819" lon="14.81405551982455"><ele>24.75</ele><time>2026-04-06T14:46:30.848Z</time></trkpt><trkpt lat="53.51492124091915" lon="14.814007682033921"><ele>25.0</ele><time>2026-04-06T14:46:31.848Z</time></trkpt><trkpt lat="53.514786257318484" lon="14.813959859269925"><ele>25.0</ele><time>2026-04-06T14:46:32.848Z</time></trkpt><trkpt lat="53.514648268828616" lon="14.813919853629686"><ele>25.0</ele><time>2026-04-06T14:46:33.848Z</time></trkpt><trkpt lat="53.51452607043782" lon="14.813876586983746"><ele>25.0</ele><time>2026-04-06T14:46:34.848Z</time></trkpt><trkpt lat="53.51443052332673" lon="14.813846959764733"><ele>25.0</ele><time>2026-04-06T14:46:35.848Z</time></trkpt><trkpt lat="53.51433216882895" lon="14.813797485067873"><ele>25.4</ele><time>2026-04-06T14:46:36.848Z</time></trkpt><trkpt lat="53.514244163654105" lon="14.813773758212509"><ele>25.8</ele><time>2026-04-06T14:46:37.848Z</time></trkpt><trkpt lat="53.51414962134698" lon="14.813745694960975"><ele>26.200000000000003</ele><time>2026-04-06T14:46:38.848Z</time></trkpt><trkpt lat="53.514027798078516" lon="14.813707364726238"><ele>26.6</ele><time>2026-04-06T14:46:39.848Z</time></trkpt><trkpt lat="53.51389353143511" lon="14.813657436361046"><ele>27.0</ele><time>2026-04-06T14:46:40.848Z</time></trkpt><trkpt lat="53.5137780583345" lon="14.81363077043902"><ele>26.25</ele><time>2026-04-06T14:46:41.848Z</time></trkpt><trkpt lat="53.513647276564555" lon="14.813584566985439"><ele>25.5</ele><time>2026-04-06T14:46:42.848Z</time></trkpt><trkpt lat="53.513540585450876" lon="14.813533873380711"><ele>24.75</ele><time>2026-04-06T14:46:43.848Z</time></trkpt><trkpt lat="53.513430288682386" lon="14.813502123916312"><ele>24.0</ele><time>2026-04-06T14:46:44.848Z</time></trkpt><trkpt lat="53.51331516745407" lon="14.81346476906135"><ele>24.0</ele><time>2026-04-06T14:46:45.848Z</time></trkpt><trkpt lat="53.51319744444212" lon="14.81342036088821"><ele>24.0</ele><time>2026-04-06T14:46:46.85Z</time></trkpt><trkpt lat="53.51308873575407" lon="14.81339116120784"><ele>24.0</ele><time>2026-04-06T14:46:47.852Z</time></trkpt><trkpt lat="53.512973367324065" lon="14.813353735276136"><ele>24.0</ele><time>2026-04-06T14:46:48.854Z</time></trkpt><trkpt lat="53.51285322830611" lon="14.813323168244496"><ele>24.0</ele><time>2026-04-06T14:46:49.855Z</time></trkpt><trkpt lat="53.51272169237771" lon="14.813282700749431"><ele>24.0</ele><time>2026-04-06T14:46:50.856Z</time></trkpt><trkpt lat="53.512616358117874" lon="14.813240576306386"><ele>24.0</ele><time>2026-04-06T14:46:51.858Z</time></trkpt><trkpt lat="53.512492171399195" lon="14.813196768445408"><ele>24.0</ele><time>2026-04-06T14:46:52.859Z</time></trkpt><trkpt lat="53.51237523950139" lon="14.813155841497865"><ele>24.0</ele><time>2026-04-06T14:46:53.86Z</time></trkpt><trkpt lat="53.51224697939495" lon="14.813126947995297"><ele>24.0</ele><time>2026-04-06T14:46:54.861Z</time></trkpt><trkpt lat="53.512124725041296" lon="14.813097897895606"><ele>24.0</ele><time>2026-04-06T14:46:55.862Z</time></trkpt><trkpt lat="53.51200322458836" lon="14.81305941069872"><ele>24.0</ele><time>2026-04-06T14:46:56.863Z</time></trkpt><trkpt lat="53.511866344397006" lon="14.81302031922068"><ele>24.0</ele><time>2026-04-06T14:46:57.864Z</time></trkpt><trkpt lat="53.51175910560174" lon="14.812980229711965"><ele>24.0</ele><time>2026-04-06T14:46:58.865Z</time></trkpt><trkpt lat="53.51163212559062" lon="14.812938210801162"><ele>24.0</ele><time>2026-04-06T14:46:59.866Z</time></trkpt><trkpt lat="53.51150246715886" lon="14.812894087588681"><ele>24.0</ele><time>2026-04-06T14:47:00.866Z</time></trkpt><trkpt lat="53.51138864711423" lon="14.812850432080273"><ele>24.0</ele><time>2026-04-06T14:47:01.867Z</time></trkpt><trkpt lat="53.51126216880156" lon="14.81282192264242"><ele>24.0</ele><time>2026-04-06T14:47:02.868Z</time></trkpt><trkpt lat="53.51112196377362" lon="14.812777477735654"><ele>24.0</ele><time>2026-04-06T14:47:03.868Z</time></trkpt><trkpt lat="53.51101814318297" lon="14.812744538790023"><ele>24.0</ele><time>2026-04-06T14:47:04.869Z</time></trkpt><trkpt lat="53.51090719953009" lon="14.812722554289177"><ele>23.4</ele><time>2026-04-06T14:47:05.869Z</time></trkpt><trkpt lat="53.51081259854752" lon="14.812648529460473"><ele>22.799999999999997</ele><time>2026-04-06T14:47:07.87Z</time></trkpt><trkpt lat="53.510784491113306" lon="14.812516899186653"><ele>22.200000000000003</ele><time>2026-04-06T14:47:09.871Z</time></trkpt><trkpt lat="53.51078559948447" lon="14.81239701891549"><ele>21.6</ele><time>2026-04-06T14:47:10.872Z</time></trkpt><trkpt lat="53.51080229669043" lon="14.812245513074293"><ele>21.0</ele><time>2026-04-06T14:47:11.872Z</time></trkpt><trkpt lat="53.510827832557474" lon="14.8120662832706"><ele>21.0</ele><time>2026-04-06T14:47:12.872Z</time></trkpt><trkpt lat="53.510852249932306" lon="14.811851475763655"><ele>21.0</ele><time>2026-04-06T14:47:13.873Z</time></trkpt><trkpt lat="53.51085875519638" lon="14.811631060631534"><ele>21.0</ele><time>2026-04-06T14:47:14.873Z</time></trkpt><trkpt lat="53.51086863868647" lon="14.811430381845863"><ele>21.0</ele><time>2026-04-06T14:47:15.873Z</time></trkpt><trkpt lat="53.51088199606691" lon="14.811239225864835"><ele>21.0</ele><time>2026-04-06T14:47:16.874Z</time></trkpt><trkpt lat="53.51089995332714" lon="14.81103329510166"><ele>21.0</ele><time>2026-04-06T14:47:17.874Z</time></trkpt><trkpt lat="53.51091666602763" lon="14.810815921902876"><ele>21.0</ele><time>2026-04-06T14:47:18.874Z</time></trkpt><trkpt lat="53.51093222841629" lon="14.810610386043129"><ele>21.0</ele><time>2026-04-06T14:47:19.874Z</time></trkpt><trkpt lat="53.510945348443656" lon="14.810451139068087"><ele>21.4</ele><time>2026-04-06T14:47:20.874Z</time></trkpt><trkpt lat="53.510955353695785" lon="14.81029427804681"><ele>21.8</ele><time>2026-04-06T14:47:21.875Z</time></trkpt><trkpt lat="53.51094469385879" lon="14.810114040687255"><ele>22.2</ele><time>2026-04-06T14:47:23.875Z</time></trkpt><trkpt lat="53.51087470506688" lon="14.80996925926779"><ele>22.599999999999998</ele><time>2026-04-06T14:47:25.875Z</time></trkpt><trkpt lat="53.51079825906941" lon="14.809946596512086"><ele>23.0</ele><time>2026-04-06T14:47:26.875Z</time></trkpt><trkpt lat="53.51069516799961" lon="14.810012393793624"><ele>23.25</ele><time>2026-04-06T14:47:27.876Z</time></trkpt><trkpt lat="53.5105831819901" lon="14.810070995709742"><ele>23.5</ele><time>2026-04-06T14:47:28.876Z</time></trkpt><trkpt lat="53.51045463324373" lon="14.810113237952937"><ele>23.75</ele><time>2026-04-06T14:47:29.876Z</time></trkpt><trkpt lat="53.51032088215889" lon="14.810141856782396"><ele>24.0</ele><time>2026-04-06T14:47:30.876Z</time></trkpt><trkpt lat="53.510199396190664" lon="14.810168894619949"><ele>24.0</ele><time>2026-04-06T14:47:31.876Z</time></trkpt><trkpt lat="53.51010693913316" lon="14.810190448659048"><ele>24.0</ele><time>2026-04-06T14:47:32.876Z</time></trkpt><trkpt lat="53.51000556372617" lon="14.810195313516692"><ele>24.0</ele><time>2026-04-06T14:47:33.876Z</time></trkpt><trkpt lat="53.50992550763548" lon="14.810200318222424"><ele>24.0</ele><time>2026-04-06T14:47:34.876Z</time></trkpt><trkpt lat="53.5098451124731" lon="14.810223935338051"><ele>24.0</ele><time>2026-04-06T14:47:35.876Z</time></trkpt><trkpt lat="53.50977899021582" lon="14.8102520026599"><ele>24.0</ele><time>2026-04-06T14:47:36.877Z</time></trkpt><trkpt lat="53.50966137486611" lon="14.810320426953888"><ele>23.75</ele><time>2026-04-06T14:47:37.877Z</time></trkpt><trkpt lat="53.50956470784072" lon="14.810358947200715"><ele>23.5</ele><time>2026-04-06T14:47:38.877Z</time></trkpt><trkpt lat="53.5094349472192" lon="14.810395618636194"><ele>23.25</ele><time>2026-04-06T14:47:39.877Z</time></trkpt><trkpt lat="53.509321433270024" lon="14.810408494527545"><ele>23.0</ele><time>2026-04-06T14:47:40.877Z</time></trkpt><trkpt lat="53.50919937199465" lon="14.810448128708535"><ele>23.0</ele><time>2026-04-06T14:47:41.877Z</time></trkpt><trkpt lat="53.50907327976087" lon="14.810495199465677"><ele>23.0</ele><time>2026-04-06T14:47:42.877Z</time></trkpt><trkpt lat="53.50896116091926" lon="14.810522124115899"><ele>23.0</ele><time>2026-04-06T14:47:43.877Z</time></trkpt><trkpt lat="53.50886047708694" lon="14.81056200569832"><ele>23.0</ele><time>2026-04-06T14:47:44.877Z</time></trkpt><trkpt lat="53.508756850877745" lon="14.81059086174818"><ele>23.5</ele><time>2026-04-06T14:47:45.877Z</time></trkpt><trkpt lat="53.50866244725372" lon="14.810602380236046"><ele>24.0</ele><time>2026-04-06T14:47:46.877Z</time></trkpt><trkpt lat="53.50855702969053" lon="14.810614608195952"><ele>24.5</ele><time>2026-04-06T14:47:47.877Z</time></trkpt><trkpt lat="53.5084278199439" lon="14.810667938455063"><ele>25.0</ele><time>2026-04-06T14:47:48.877Z</time></trkpt><trkpt lat="53.50831283312263" lon="14.810716541707505"><ele>25.0</ele><time>2026-04-06T14:47:49.877Z</time></trkpt><trkpt lat="53.50819559596619" lon="14.81074210359605"><ele>25.0</ele><time>2026-04-06T14:47:50.877Z</time></trkpt><trkpt lat="53.50808103100806" lon="14.81077932053928"><ele>25.0</ele><time>2026-04-06T14:47:51.877Z</time></trkpt><trkpt lat="53.507972602917505" lon="14.810808841965665"><ele>25.0</ele><time>2026-04-06T14:47:52.877Z</time></trkpt><trkpt lat="53.50786798075082" lon="14.810858374633897"><ele>25.75</ele><time>2026-04-06T14:47:53.877Z</time></trkpt><trkpt lat="53.50776132442975" lon="14.810899764325594"><ele>26.5</ele><time>2026-04-06T14:47:54.877Z</time></trkpt><trkpt lat="53.50763686507198" lon="14.81093611724767"><ele>27.25</ele><time>2026-04-06T14:47:55.877Z</time></trkpt><trkpt lat="53.50751502844955" lon="14.810972397280903"><ele>28.0</ele><time>2026-04-06T14:47:56.877Z</time></trkpt><trkpt lat="53.5073991884156" lon="14.810990829544616"><ele>27.5</ele><time>2026-04-06T14:47:57.877Z</time></trkpt><trkpt lat="53.50728325348293" lon="14.811034877790718"><ele>27.0</ele><time>2026-04-06T14:47:58.877Z</time></trkpt><trkpt lat="53.50715126689136" lon="14.811073850008317"><ele>26.5</ele><time>2026-04-06T14:47:59.878Z</time></trkpt><trkpt lat="53.50702290139568" lon="14.811117663500225"><ele>26.0</ele><time>2026-04-06T14:48:00.878Z</time></trkpt><trkpt lat="53.50691272272881" lon="14.811156770413938"><ele>25.999999999999996</ele><time>2026-04-06T14:48:01.878Z</time></trkpt><trkpt lat="53.506809577995924" lon="14.811191247689601"><ele>26.0</ele><time>2026-04-06T14:48:02.878Z</time></trkpt><trkpt lat="53.50672271686262" lon="14.811211160257622"><ele>26.0</ele><time>2026-04-06T14:48:03.878Z</time></trkpt><trkpt lat="53.50663778644127" lon="14.81121673084295"><ele>26.0</ele><time>2026-04-06T14:48:04.878Z</time></trkpt><trkpt lat="53.50656332686594" lon="14.811213114064541"><ele>25.999999999999996</ele><time>2026-04-06T14:48:05.878Z</time></trkpt><trkpt lat="53.506478493293216" lon="14.811231913552362"><ele>26.0</ele><time>2026-04-06T14:48:06.878Z</time></trkpt><trkpt lat="53.50637438346727" lon="14.811299553890017"><ele>25.999999999999996</ele><time>2026-04-06T14:48:08.878Z</time></trkpt><trkpt lat="53.50629595187404" lon="14.8113462323102"><ele>26.0</ele><time>2026-04-06T14:48:09.878Z</time></trkpt><trkpt lat="53.5062129762293" lon="14.811375948816863"><ele>26.0</ele><time>2026-04-06T14:48:10.878Z</time></trkpt><trkpt lat="53.50611248810158" lon="14.81142184175138"><ele>26.0</ele><time>2026-04-06T14:48:11.878Z</time></trkpt><trkpt lat="53.50603674031092" lon="14.811454640932396"><ele>25.999999999999996</ele><time>2026-04-06T14:48:12.878Z</time></trkpt><trkpt lat="53.505945861981296" lon="14.811499348178218"><ele>26.0</ele><time>2026-04-06T14:48:13.878Z</time></trkpt><trkpt lat="53.50585727981413" lon="14.81153617586213"><ele>26.4</ele><time>2026-04-06T14:48:14.878Z</time></trkpt><trkpt lat="53.5057477020554" lon="14.81157641338143"><ele>26.8</ele><time>2026-04-06T14:48:15.877Z</time></trkpt><trkpt lat="53.50566537879061" lon="14.811600636125368"><ele>27.199999999999996</ele><time>2026-04-06T14:48:16.877Z</time></trkpt><trkpt lat="53.50557397774552" lon="14.81163151499002"><ele>27.599999999999998</ele><time>2026-04-06T14:48:17.877Z</time></trkpt><trkpt lat="53.50549155430959" lon="14.811659942635004"><ele>28.0</ele><time>2026-04-06T14:48:18.877Z</time></trkpt><trkpt lat="53.50540764845825" lon="14.811685800305673"><ele>28.799999999999997</ele><time>2026-04-06T14:48:19.876Z</time></trkpt><trkpt lat="53.50531094003251" lon="14.811708396460682"><ele>29.599999999999998</ele><time>2026-04-06T14:48:20.876Z</time></trkpt><trkpt lat="53.50522330642674" lon="14.811731458175664"><ele>30.400000000000002</ele><time>2026-04-06T14:48:21.877Z</time></trkpt><trkpt lat="53.50511317998317" lon="14.811774468411292"><ele>31.200000000000003</ele><time>2026-04-06T14:48:22.876Z</time></trkpt><trkpt lat="53.50500646790428" lon="14.81181032763527"><ele>32.0</ele><time>2026-04-06T14:48:23.876Z</time></trkpt><trkpt lat="53.50491414833136" lon="14.811838928793575"><ele>32.2</ele><time>2026-04-06T14:48:24.876Z</time></trkpt><trkpt lat="53.50481364780233" lon="14.811877879410224"><ele>32.400000000000006</ele><time>2026-04-06T14:48:25.876Z</time></trkpt><trkpt lat="53.504710813232116" lon="14.811927424597155"><ele>32.599999999999994</ele><time>2026-04-06T14:48:26.876Z</time></trkpt><trkpt lat="53.50463448142696" lon="14.811956975469887"><ele>32.8</ele><time>2026-04-06T14:48:27.877Z</time></trkpt><trkpt lat="53.50453047888857" lon="14.811993583532399"><ele>33.0</ele><time>2026-04-06T14:48:28.876Z</time></trkpt><trkpt lat="53.504443948995984" lon="14.812029970046646"><ele>33.0</ele><time>2026-04-06T14:48:29.876Z</time></trkpt><trkpt lat="53.50435335685119" lon="14.812042003980483"><ele>33.0</ele><time>2026-04-06T14:48:30.876Z</time></trkpt><trkpt lat="53.50427529807033" lon="14.81206142556913"><ele>33.0</ele><time>2026-04-06T14:48:31.876Z</time></trkpt><trkpt lat="53.50419904099714" lon="14.812084858133083"><ele>33.0</ele><time>2026-04-06T14:48:32.876Z</time></trkpt><trkpt lat="53.50413400579148" lon="14.812118144429222"><ele>33.0</ele><time>2026-04-06T14:48:33.877Z</time></trkpt><trkpt lat="53.50406417455126" lon="14.812151503051215"><ele>33.0</ele><time>2026-04-06T14:48:34.877Z</time></trkpt><trkpt lat="53.50392428566767" lon="14.812183464474451"><ele>33.0</ele><time>2026-04-06T14:48:36.877Z</time></trkpt><trkpt lat="53.503849629175555" lon="14.812215204291471"><ele>33.0</ele><time>2026-04-06T14:48:37.877Z</time></trkpt><trkpt lat="53.50376768684681" lon="14.81224748709134"><ele>33.0</ele><time>2026-04-06T14:48:38.877Z</time></trkpt><trkpt lat="53.5036816684558" lon="14.81227376785364"><ele>33.0</ele><time>2026-04-06T14:48:39.877Z</time></trkpt><trkpt lat="53.50359113511854" lon="14.81229406588045"><ele>33.0</ele><time>2026-04-06T14:48:40.877Z</time></trkpt><trkpt lat="53.50349067177713" lon="14.812306439360365"><ele>33.0</ele><time>2026-04-06T14:48:41.877Z</time></trkpt><trkpt lat="53.50339248210182" lon="14.8123473369834"><ele>32.5</ele><time>2026-04-06T14:48:42.877Z</time></trkpt><trkpt lat="53.5032823843097" lon="14.812381549565032"><ele>32.0</ele><time>2026-04-06T14:48:43.877Z</time></trkpt><trkpt lat="53.503167891140144" lon="14.812420542431113"><ele>31.5</ele><time>2026-04-06T14:48:44.877Z</time></trkpt><trkpt lat="53.50305050611747" lon="14.812458244672603"><ele>31.0</ele><time>2026-04-06T14:48:45.877Z</time></trkpt><trkpt lat="53.50292608155134" lon="14.812497618859771"><ele>31.0</ele><time>2026-04-06T14:48:46.877Z</time></trkpt><trkpt lat="53.50280797967061" lon="14.81253539994645"><ele>31.0</ele><time>2026-04-06T14:48:47.877Z</time></trkpt><trkpt lat="53.502677675579186" lon="14.812581065865766"><ele>31.0</ele><time>2026-04-06T14:48:48.877Z</time></trkpt><trkpt lat="53.50254608631372" lon="14.81262613069119"><ele>31.0</ele><time>2026-04-06T14:48:49.877Z</time></trkpt><trkpt lat="53.502408705980606" lon="14.81267148823219"><ele>31.0</ele><time>2026-04-06T14:48:50.877Z</time></trkpt><trkpt lat="53.502271556138204" lon="14.81272428537159"><ele>31.0</ele><time>2026-04-06T14:48:51.877Z</time></trkpt><trkpt lat="53.50211072312997" lon="14.812769154918561"><ele>31.0</ele><time>2026-04-06T14:48:52.877Z</time></trkpt><trkpt lat="53.50197287426405" lon="14.812823639872269"><ele>31.0</ele><time>2026-04-06T14:48:53.877Z</time></trkpt><trkpt lat="53.501828748968855" lon="14.812867461962679"><ele>31.25</ele><time>2026-04-06T14:48:54.877Z</time></trkpt><trkpt lat="53.501674265882016" lon="14.812908175981294"><ele>31.5</ele><time>2026-04-06T14:48:55.877Z</time></trkpt><trkpt lat="53.501544114289956" lon="14.812955462237511"><ele>31.75</ele><time>2026-04-06T14:48:56.877Z</time></trkpt><trkpt lat="53.50140694521701" lon="14.813006696469392"><ele>32.0</ele><time>2026-04-06T14:48:57.877Z</time></trkpt><trkpt lat="53.50127155917999" lon="14.81305532965134"><ele>31.8</ele><time>2026-04-06T14:48:58.877Z</time></trkpt><trkpt lat="53.501158763347625" lon="14.813095544833402"><ele>31.6</ele><time>2026-04-06T14:48:59.877Z</time></trkpt><trkpt lat="53.50105221791272" lon="14.813118676737318"><ele>31.400000000000002</ele><time>2026-04-06T14:49:00.877Z</time></trkpt><trkpt lat="53.50095444342148" lon="14.813153484838486"><ele>31.200000000000003</ele><time>2026-04-06T14:49:01.877Z</time></trkpt><trkpt lat="53.50084211433948" lon="14.813188324608532"><ele>31.0</ele><time>2026-04-06T14:49:02.877Z</time></trkpt><trkpt lat="53.50070569013032" lon="14.813231215351573"><ele>31.0</ele><time>2026-04-06T14:49:03.877Z</time></trkpt><trkpt lat="53.500580277375775" lon="14.813267517879117"><ele>31.0</ele><time>2026-04-06T14:49:04.877Z</time></trkpt><trkpt lat="53.50046927065645" lon="14.813305854972569"><ele>31.0</ele><time>2026-04-06T14:49:05.877Z</time></trkpt><trkpt lat="53.500343839379795" lon="14.813349347472277"><ele>31.0</ele><time>2026-04-06T14:49:06.877Z</time></trkpt><trkpt lat="53.50022671748903" lon="14.813408821117385"><ele>30.5</ele><time>2026-04-06T14:49:07.877Z</time></trkpt><trkpt lat="53.50008858652353" lon="14.81343915978842"><ele>30.0</ele><time>2026-04-06T14:49:08.877Z</time></trkpt><trkpt lat="53.499947470804976" lon="14.813484787389067"><ele>29.5</ele><time>2026-04-06T14:49:09.877Z</time></trkpt><trkpt lat="53.4998256494868" lon="14.813530485173988"><ele>29.0</ele><time>2026-04-06T14:49:10.877Z</time></trkpt><trkpt lat="53.49971663799661" lon="14.813575388026885"><ele>29.0</ele><time>2026-04-06T14:49:11.877Z</time></trkpt><trkpt lat="53.49961571460471" lon="14.813600041540747"><ele>29.0</ele><time>2026-04-06T14:49:12.877Z</time></trkpt><trkpt lat="53.4995162125729" lon="14.81363050222361"><ele>29.0</ele><time>2026-04-06T14:49:13.877Z</time></trkpt><trkpt lat="53.49943587510973" lon="14.813643553745258"><ele>29.0</ele><time>2026-04-06T14:49:14.877Z</time></trkpt><trkpt lat="53.49935572509136" lon="14.813660086486637"><ele>29.0</ele><time>2026-04-06T14:49:15.877Z</time></trkpt><trkpt lat="53.49926606469097" lon="14.813698116615294"><ele>29.0</ele><time>2026-04-06T14:49:16.877Z</time></trkpt><trkpt lat="53.49915980554246" lon="14.813738424053838"><ele>29.0</ele><time>2026-04-06T14:49:17.877Z</time></trkpt><trkpt lat="53.499071605528144" lon="14.813783901301223"><ele>29.0</ele><time>2026-04-06T14:49:18.877Z</time></trkpt><trkpt lat="53.49895870932375" lon="14.813822179751057"><ele>29.0</ele><time>2026-04-06T14:49:19.877Z</time></trkpt><trkpt lat="53.49884148208309" lon="14.81385394747531"><ele>29.0</ele><time>2026-04-06T14:49:20.877Z</time></trkpt><trkpt lat="53.498728740666444" lon="14.813884588489426"><ele>28.5</ele><time>2026-04-06T14:49:21.877Z</time></trkpt><trkpt lat="53.49861165895773" lon="14.813926730523189"><ele>28.0</ele><time>2026-04-06T14:49:22.877Z</time></trkpt><trkpt lat="53.49847664935681" lon="14.813971718083724"><ele>27.5</ele><time>2026-04-06T14:49:23.877Z</time></trkpt><trkpt lat="53.49833925393203" lon="14.814020306655415"><ele>27.0</ele><time>2026-04-06T14:49:24.877Z</time></trkpt><trkpt lat="53.49821151079559" lon="14.814063990152492"><ele>27.0</ele><time>2026-04-06T14:49:25.877Z</time></trkpt><trkpt lat="53.498078322542355" lon="14.814119657207197"><ele>27.0</ele><time>2026-04-06T14:49:26.877Z</time></trkpt><trkpt lat="53.49792134269107" lon="14.814169596037717"><ele>27.0</ele><time>2026-04-06T14:49:27.877Z</time></trkpt><trkpt lat="53.49777562679809" lon="14.814222002319452"><ele>27.0</ele><time>2026-04-06T14:49:28.877Z</time></trkpt><trkpt lat="53.497635043559264" lon="14.814270803352857"><ele>28.0</ele><time>2026-04-06T14:49:29.877Z</time></trkpt><trkpt lat="53.49748943934255" lon="14.81432618915895"><ele>29.0</ele><time>2026-04-06T14:49:30.877Z</time></trkpt><trkpt lat="53.49734003613851" lon="14.814379486879066"><ele>30.0</ele><time>2026-04-06T14:49:31.877Z</time></trkpt><trkpt lat="53.49717574752424" lon="14.814424549575747"><ele>30.333333333333336</ele><time>2026-04-06T14:49:32.877Z</time></trkpt><trkpt lat="53.497018995832924" lon="14.814469802478081"><ele>30.666666666666668</ele><time>2026-04-06T14:49:33.877Z</time></trkpt><trkpt lat="53.49684668377274" lon="14.814510273857806"><ele>31.0</ele><time>2026-04-06T14:49:34.877Z</time></trkpt><trkpt lat="53.496700300546074" lon="14.814545453500994"><ele>31.0</ele><time>2026-04-06T14:49:35.877Z</time></trkpt><trkpt lat="53.49655860232258" lon="14.814603219196579"><ele>31.0</ele><time>2026-04-06T14:49:36.877Z</time></trkpt><trkpt lat="53.49641067956871" lon="14.814671199173024"><ele>31.0</ele><time>2026-04-06T14:49:37.877Z</time></trkpt><trkpt lat="53.49624773880547" lon="14.814718452793318"><ele>29.666666666666668</ele><time>2026-04-06T14:49:38.877Z</time></trkpt><trkpt lat="53.49607574523083" lon="14.81477423561107"><ele>28.333333333333336</ele><time>2026-04-06T14:49:39.877Z</time></trkpt><trkpt lat="53.49591254572502" lon="14.814832522000243"><ele>27.0</ele><time>2026-04-06T14:49:40.877Z</time></trkpt><trkpt lat="53.49575752958275" lon="14.81487663525323"><ele>27.0</ele><time>2026-04-06T14:49:41.877Z</time></trkpt><trkpt lat="53.49561352066302" lon="14.81491260001504"><ele>27.0</ele><time>2026-04-06T14:49:42.877Z</time></trkpt><trkpt lat="53.49545529686386" lon="14.814958861724715"><ele>27.0</ele><time>2026-04-06T14:49:43.877Z</time></trkpt><trkpt lat="53.49527638033886" lon="14.815037901217476"><ele>27.333333333333336</ele><time>2026-04-06T14:49:44.877Z</time></trkpt><trkpt lat="53.49510130455025" lon="14.815119703631403"><ele>27.666666666666668</ele><time>2026-04-06T14:49:45.877Z</time></trkpt><trkpt lat="53.49492364342966" lon="14.815189590768453"><ele>28.0</ele><time>2026-04-06T14:49:46.877Z</time></trkpt><trkpt lat="53.49474802438994" lon="14.815219715208931"><ele>28.0</ele><time>2026-04-06T14:49:47.877Z</time></trkpt><trkpt lat="53.49460047590887" lon="14.815237090679108"><ele>28.0</ele><time>2026-04-06T14:49:48.877Z</time></trkpt><trkpt lat="53.4944394977128" lon="14.815286554855945"><ele>28.0</ele><time>2026-04-06T14:49:49.877Z</time></trkpt><trkpt lat="53.4942560700558" lon="14.815362173601189"><ele>28.0</ele><time>2026-04-06T14:49:50.877Z</time></trkpt><trkpt lat="53.49410165251387" lon="14.815428473935023"><ele>28.0</ele><time>2026-04-06T14:49:51.877Z</time></trkpt><trkpt lat="53.493941128610615" lon="14.815506764388067"><ele>28.0</ele><time>2026-04-06T14:49:52.877Z</time></trkpt><trkpt lat="53.493796019563376" lon="14.815531330019288"><ele>27.0</ele><time>2026-04-06T14:49:53.877Z</time></trkpt><trkpt lat="53.493642850546046" lon="14.815547243043707"><ele>26.0</ele><time>2026-04-06T14:49:54.877Z</time></trkpt><trkpt lat="53.49351604202454" lon="14.81557289522473"><ele>25.0</ele><time>2026-04-06T14:49:55.877Z</time></trkpt><trkpt lat="53.493343240873884" lon="14.815647404808658"><ele>25.0</ele><time>2026-04-06T14:49:56.877Z</time></trkpt><trkpt lat="53.493175083337" lon="14.815720175576848"><ele>25.0</ele><time>2026-04-06T14:49:57.877Z</time></trkpt><trkpt lat="53.493013397257606" lon="14.815794955720943"><ele>25.0</ele><time>2026-04-06T14:49:58.877Z</time></trkpt><trkpt lat="53.49287069070575" lon="14.815847929852556"><ele>24.75</ele><time>2026-04-06T14:49:59.877Z</time></trkpt><trkpt lat="53.49274153498878" lon="14.815894307250204"><ele>24.5</ele><time>2026-04-06T14:50:00.877Z</time></trkpt><trkpt lat="53.492602002787876" lon="14.81593932884162"><ele>24.25</ele><time>2026-04-06T14:50:01.877Z</time></trkpt><trkpt lat="53.49245511877299" lon="14.815987913060694"><ele>24.0</ele><time>2026-04-06T14:50:02.877Z</time></trkpt><trkpt lat="53.49229972557201" lon="14.81604086216693"><ele>24.0</ele><time>2026-04-06T14:50:03.877Z</time></trkpt><trkpt lat="53.49214204419345" lon="14.816096305703237"><ele>24.0</ele><time>2026-04-06T14:50:04.877Z</time></trkpt><trkpt lat="53.491966589548014" lon="14.816145396690137"><ele>24.0</ele><time>2026-04-06T14:50:05.877Z</time></trkpt><trkpt lat="53.49178645967411" lon="14.816200816519679"><ele>23.666666666666668</ele><time>2026-04-06T14:50:06.877Z</time></trkpt><trkpt lat="53.491601212970615" lon="14.816245986717009"><ele>23.333333333333336</ele><time>2026-04-06T14:50:07.877Z</time></trkpt><trkpt lat="53.49143575852498" lon="14.816307848921758"><ele>23.0</ele><time>2026-04-06T14:50:08.877Z</time></trkpt><trkpt lat="53.49130331199946" lon="14.816353520057897"><ele>23.0</ele><time>2026-04-06T14:50:09.877Z</time></trkpt><trkpt lat="53.49116784134372" lon="14.816412295633082"><ele>23.0</ele><time>2026-04-06T14:50:10.877Z</time></trkpt><trkpt lat="53.49102677430503" lon="14.816469107237348"><ele>23.0</ele><time>2026-04-06T14:50:11.877Z</time></trkpt><trkpt lat="53.490847212362546" lon="14.81649905703994"><ele>23.0</ele><time>2026-04-06T14:50:12.877Z</time></trkpt><trkpt lat="53.49066346899356" lon="14.816552527454416"><ele>23.0</ele><time>2026-04-06T14:50:13.877Z</time></trkpt><trkpt lat="53.490505279982514" lon="14.81661508903135"><ele>23.0</ele><time>2026-04-06T14:50:14.877Z</time></trkpt><trkpt lat="53.49035035547879" lon="14.816666249262068"><ele>23.0</ele><time>2026-04-06T14:50:15.877Z</time></trkpt><trkpt lat="53.49018591774429" lon="14.816723173600591"><ele>23.0</ele><time>2026-04-06T14:50:16.877Z</time></trkpt><trkpt lat="53.490048788231974" lon="14.816787824123741"><ele>23.0</ele><time>2026-04-06T14:50:17.877Z</time></trkpt><trkpt lat="53.489889350980796" lon="14.816835720286127"><ele>22.75</ele><time>2026-04-06T14:50:18.877Z</time></trkpt><trkpt lat="53.489751576866475" lon="14.816897456063549"><ele>22.5</ele><time>2026-04-06T14:50:19.877Z</time></trkpt><trkpt lat="53.48961765536326" lon="14.816915974568715"><ele>22.25</ele><time>2026-04-06T14:50:20.877Z</time></trkpt><trkpt lat="53.489486636036986" lon="14.816932292505859"><ele>22.0</ele><time>2026-04-06T14:50:21.876Z</time></trkpt><trkpt lat="53.489365871695554" lon="14.816961471827499"><ele>22.0</ele><time>2026-04-06T14:50:22.876Z</time></trkpt><trkpt lat="53.48923612896998" lon="14.817007990531671"><ele>22.0</ele><time>2026-04-06T14:50:23.876Z</time></trkpt><trkpt lat="53.489083375469676" lon="14.817071381823697"><ele>22.0</ele><time>2026-04-06T14:50:24.876Z</time></trkpt><trkpt lat="53.48892617187104" lon="14.817130967510291"><ele>22.0</ele><time>2026-04-06T14:50:25.876Z</time></trkpt><trkpt lat="53.48876826054632" lon="14.817177657269406"><ele>22.0</ele><time>2026-04-06T14:50:26.876Z</time></trkpt><trkpt lat="53.48863978708846" lon="14.817209530499493"><ele>22.0</ele><time>2026-04-06T14:50:27.875Z</time></trkpt><trkpt lat="53.48850863103518" lon="14.817250294821473"><ele>22.0</ele><time>2026-04-06T14:50:28.876Z</time></trkpt><trkpt lat="53.48836977684153" lon="14.817301667344234"><ele>22.333333333333332</ele><time>2026-04-06T14:50:29.876Z</time></trkpt><trkpt lat="53.488224377572415" lon="14.81735332830717"><ele>22.666666666666668</ele><time>2026-04-06T14:50:30.876Z</time></trkpt><trkpt lat="53.4880710291907" lon="14.817412383368294"><ele>23.0</ele><time>2026-04-06T14:50:31.875Z</time></trkpt><trkpt lat="53.48791146203321" lon="14.817441173311195"><ele>23.5</ele><time>2026-04-06T14:50:32.875Z</time></trkpt><trkpt lat="53.48776334164134" lon="14.817491641165276"><ele>24.0</ele><time>2026-04-06T14:50:33.876Z</time></trkpt><trkpt lat="53.48763641436075" lon="14.81753220970861"><ele>24.5</ele><time>2026-04-06T14:50:34.876Z</time></trkpt><trkpt lat="53.487477705861956" lon="14.817571621168742"><ele>25.0</ele><time>2026-04-06T14:50:35.876Z</time></trkpt><trkpt lat="53.48730790686507" lon="14.81763792102654"><ele>24.666666666666668</ele><time>2026-04-06T14:50:36.876Z</time></trkpt><trkpt lat="53.487151296624525" lon="14.817726081943837"><ele>24.333333333333336</ele><time>2026-04-06T14:50:37.876Z</time></trkpt><trkpt lat="53.48698563623398" lon="14.817785783060545"><ele>24.0</ele><time>2026-04-06T14:50:38.876Z</time></trkpt><trkpt lat="53.486866450318644" lon="14.817832778009945"><ele>23.799999999999997</ele><time>2026-04-06T14:50:39.876Z</time></trkpt><trkpt lat="53.48675460629951" lon="14.817863806345407"><ele>23.599999999999998</ele><time>2026-04-06T14:50:40.876Z</time></trkpt><trkpt lat="53.48665189313039" lon="14.817883385822594"><ele>23.4</ele><time>2026-04-06T14:50:41.876Z</time></trkpt><trkpt lat="53.486547320820115" lon="14.817930242860797"><ele>23.2</ele><time>2026-04-06T14:50:42.876Z</time></trkpt><trkpt lat="53.48644928855902" lon="14.817972654989802"><ele>23.0</ele><time>2026-04-06T14:50:43.876Z</time></trkpt><trkpt lat="53.4863488429477" lon="14.81800073355677"><ele>23.0</ele><time>2026-04-06T14:50:44.876Z</time></trkpt><trkpt lat="53.48627579185238" lon="14.818023328089454"><ele>23.0</ele><time>2026-04-06T14:50:45.876Z</time></trkpt><trkpt lat="53.486145803472" lon="14.818052526278494"><ele>23.0</ele><time>2026-04-06T14:50:47.876Z</time></trkpt><trkpt lat="53.48606587890442" lon="14.818060539390999"><ele>23.0</ele><time>2026-04-06T14:50:48.876Z</time></trkpt><trkpt lat="53.48598635009084" lon="14.818095356609309"><ele>23.0</ele><time>2026-04-06T14:50:49.876Z</time></trkpt><trkpt lat="53.48589127618357" lon="14.818155994030947"><ele>23.2</ele><time>2026-04-06T14:50:50.876Z</time></trkpt><trkpt lat="53.485797273996674" lon="14.818190550154116"><ele>23.4</ele><time>2026-04-06T14:50:51.876Z</time></trkpt><trkpt lat="53.48573023315301" lon="14.818217378063233"><ele>23.599999999999998</ele><time>2026-04-06T14:50:52.876Z</time></trkpt><trkpt lat="53.48562355676951" lon="14.818253006199605"><ele>23.799999999999997</ele><time>2026-04-06T14:50:53.876Z</time></trkpt><trkpt lat="53.485507169577545" lon="14.818290894557146"><ele>24.0</ele><time>2026-04-06T14:50:54.876Z</time></trkpt><trkpt lat="53.4854086984634" lon="14.81832696150888"><ele>24.2</ele><time>2026-04-06T14:50:55.876Z</time></trkpt><trkpt lat="53.48532691145445" lon="14.818346690843063"><ele>24.4</ele><time>2026-04-06T14:50:58.876Z</time></trkpt><trkpt lat="53.48526298303457" lon="14.818367286686188"><ele>24.6</ele><time>2026-04-06T14:50:59.876Z</time></trkpt><trkpt lat="53.48511067791541" lon="14.818410486930373"><ele>24.8</ele><time>2026-04-06T14:51:01.876Z</time></trkpt><trkpt lat="53.48503373326253" lon="14.818442212620596"><ele>25.0</ele><time>2026-04-06T14:51:02.876Z</time></trkpt><trkpt lat="53.48491232454358" lon="14.818491356682395"><ele>25.0</ele><time>2026-04-06T14:51:04.876Z</time></trkpt><trkpt lat="53.48478873455904" lon="14.818555136040192"><ele>25.0</ele><time>2026-04-06T14:51:06.876Z</time></trkpt><trkpt lat="53.4846857586631" lon="14.818572344098616"><ele>25.0</ele><time>2026-04-06T14:51:07.876Z</time></trkpt><trkpt lat="53.48455672443877" lon="14.818605301751546"><ele>25.0</ele><time>2026-04-06T14:51:08.876Z</time></trkpt><trkpt lat="53.48442450488905" lon="14.818653487294938"><ele>25.0</ele><time>2026-04-06T14:51:09.876Z</time></trkpt><trkpt lat="53.484335481841185" lon="14.818693223356"><ele>25.0</ele><time>2026-04-06T14:51:10.876Z</time></trkpt><trkpt lat="53.484225803872874" lon="14.818719893847184"><ele>25.0</ele><time>2026-04-06T14:51:11.876Z</time></trkpt><trkpt lat="53.484095119833356" lon="14.818758328899904"><ele>25.0</ele><time>2026-04-06T14:51:12.876Z</time></trkpt><trkpt lat="53.483988095626664" lon="14.818783809990745"><ele>25.0</ele><time>2026-04-06T14:51:13.876Z</time></trkpt><trkpt lat="53.48386635971645" lon="14.818823631742909"><ele>23.75</ele><time>2026-04-06T14:51:14.876Z</time></trkpt><trkpt lat="53.483751070282814" lon="14.818857298804627"><ele>22.5</ele><time>2026-04-06T14:51:15.876Z</time></trkpt><trkpt lat="53.483638733759314" lon="14.81889171785784"><ele>21.25</ele><time>2026-04-06T14:51:16.876Z</time></trkpt><trkpt lat="53.483523626637194" lon="14.818953460632608"><ele>20.0</ele><time>2026-04-06T14:51:17.876Z</time></trkpt><trkpt lat="53.483412261414244" lon="14.81898976363443"><ele>20.0</ele><time>2026-04-06T14:51:18.876Z</time></trkpt><trkpt lat="53.48329868651455" lon="14.819030711090926"><ele>20.0</ele><time>2026-04-06T14:51:19.876Z</time></trkpt><trkpt lat="53.48316649677417" lon="14.81908192723325"><ele>20.0</ele><time>2026-04-06T14:51:20.876Z</time></trkpt><trkpt lat="53.48303927421166" lon="14.819128936636533"><ele>20.0</ele><time>2026-04-06T14:51:21.876Z</time></trkpt><trkpt lat="53.48290740351074" lon="14.819175917628217"><ele>19.75</ele><time>2026-04-06T14:51:22.876Z</time></trkpt><trkpt lat="53.48279308076019" lon="14.819201560255655"><ele>19.5</ele><time>2026-04-06T14:51:23.876Z</time></trkpt><trkpt lat="53.48265643926033" lon="14.819258380668836"><ele>19.25</ele><time>2026-04-06T14:51:24.876Z</time></trkpt><trkpt lat="53.48253308549847" lon="14.81929821928049"><ele>19.0</ele><time>2026-04-06T14:51:25.876Z</time></trkpt><trkpt lat="53.482403268525644" lon="14.819335579446758"><ele>18.5</ele><time>2026-04-06T14:51:26.876Z</time></trkpt><trkpt lat="53.48226855722091" lon="14.819373736729682"><ele>18.0</ele><time>2026-04-06T14:51:27.877Z</time></trkpt><trkpt lat="53.48211670904533" lon="14.819416488081185"><ele>17.5</ele><time>2026-04-06T14:51:28.877Z</time></trkpt><trkpt lat="53.48196301204677" lon="14.819465524939526"><ele>17.0</ele><time>2026-04-06T14:51:29.877Z</time></trkpt><trkpt lat="53.481816818748094" lon="14.819523889563353"><ele>17.0</ele><time>2026-04-06T14:51:30.877Z</time></trkpt><trkpt lat="53.48168441362176" lon="14.81958175974854"><ele>17.0</ele><time>2026-04-06T14:51:31.877Z</time></trkpt><trkpt lat="53.48156636548673" lon="14.819618744275877"><ele>17.0</ele><time>2026-04-06T14:51:32.877Z</time></trkpt><trkpt lat="53.4814136888448" lon="14.81966534353068"><ele>17.0</ele><time>2026-04-06T14:51:33.877Z</time></trkpt><trkpt lat="53.481277828753356" lon="14.819712386869194"><ele>17.75</ele><time>2026-04-06T14:51:34.877Z</time></trkpt><trkpt lat="53.481141371549256" lon="14.819765953555404"><ele>18.5</ele><time>2026-04-06T14:51:35.877Z</time></trkpt><trkpt lat="53.480998398694375" lon="14.819827528721277"><ele>19.25</ele><time>2026-04-06T14:51:36.877Z</time></trkpt><trkpt lat="53.48084530898588" lon="14.81986479649339"><ele>20.0</ele><time>2026-04-06T14:51:37.877Z</time></trkpt><trkpt lat="53.48066480580639" lon="14.81992058750323"><ele>20.0</ele><time>2026-04-06T14:51:38.877Z</time></trkpt><trkpt lat="53.48052809667027" lon="14.819965904653593"><ele>20.0</ele><time>2026-04-06T14:51:39.877Z</time></trkpt><trkpt lat="53.48038125147042" lon="14.820019154490268"><ele>20.0</ele><time>2026-04-06T14:51:40.877Z</time></trkpt><trkpt lat="53.48023124388365" lon="14.82006983770944"><ele>20.0</ele><time>2026-04-06T14:51:41.877Z</time></trkpt><trkpt lat="53.480088290233105" lon="14.820112304163882"><ele>19.0</ele><time>2026-04-06T14:51:42.877Z</time></trkpt><trkpt lat="53.47994191051129" lon="14.820175856137542"><ele>18.0</ele><time>2026-04-06T14:51:43.877Z</time></trkpt><trkpt lat="53.479766349781585" lon="14.820225121681544"><ele>17.0</ele><time>2026-04-06T14:51:44.877Z</time></trkpt><trkpt lat="53.479617652163085" lon="14.820289438014777"><ele>18.0</ele><time>2026-04-06T14:51:45.877Z</time></trkpt><trkpt lat="53.47946536795051" lon="14.820355297494348"><ele>19.0</ele><time>2026-04-06T14:51:46.877Z</time></trkpt><trkpt lat="53.47930358503136" lon="14.820407698257407"><ele>20.0</ele><time>2026-04-06T14:51:47.877Z</time></trkpt><trkpt lat="53.479158464970105" lon="14.820449961800175"><ele>20.0</ele><time>2026-04-06T14:51:48.877Z</time></trkpt><trkpt lat="53.478998040320434" lon="14.820488122810726"><ele>20.0</ele><time>2026-04-06T14:51:49.877Z</time></trkpt><trkpt lat="53.478837389203946" lon="14.820533687827982"><ele>20.0</ele><time>2026-04-06T14:51:50.877Z</time></trkpt><trkpt lat="53.478681896204" lon="14.820598712901235"><ele>21.0</ele><time>2026-04-06T14:51:51.877Z</time></trkpt><trkpt lat="53.47851119393862" lon="14.820650291059952"><ele>22.0</ele><time>2026-04-06T14:51:52.877Z</time></trkpt><trkpt lat="53.47833562620135" lon="14.82070790654902"><ele>23.0</ele><time>2026-04-06T14:51:53.877Z</time></trkpt><trkpt lat="53.47815741526063" lon="14.820768337265315"><ele>23.0</ele><time>2026-04-06T14:51:54.877Z</time></trkpt><trkpt lat="53.47797712219097" lon="14.820821631984847"><ele>23.0</ele><time>2026-04-06T14:51:55.877Z</time></trkpt><trkpt lat="53.477813737346715" lon="14.82087228401131"><ele>23.0</ele><time>2026-04-06T14:51:56.877Z</time></trkpt><trkpt lat="53.477650564954914" lon="14.820933485714534"><ele>22.666666666666668</ele><time>2026-04-06T14:51:57.877Z</time></trkpt><trkpt lat="53.47748044030487" lon="14.820997676505332"><ele>22.333333333333332</ele><time>2026-04-06T14:51:58.877Z</time></trkpt><trkpt lat="53.47733288595734" lon="14.821035744548716"><ele>22.0</ele><time>2026-04-06T14:51:59.877Z</time></trkpt><trkpt lat="53.477179045118554" lon="14.821092296304519"><ele>22.0</ele><time>2026-04-06T14:52:00.877Z</time></trkpt><trkpt lat="53.47701224047615" lon="14.821147480324509"><ele>22.0</ele><time>2026-04-06T14:52:01.877Z</time></trkpt><trkpt lat="53.4768306728488" lon="14.821206093695972"><ele>22.0</ele><time>2026-04-06T14:52:02.877Z</time></trkpt><trkpt lat="53.47666967019172" lon="14.821256279804736"><ele>22.0</ele><time>2026-04-06T14:52:03.877Z</time></trkpt><trkpt lat="53.47651256466459" lon="14.821300267530818"><ele>22.0</ele><time>2026-04-06T14:52:04.877Z</time></trkpt><trkpt lat="53.476350885676325" lon="14.821358608549138"><ele>22.0</ele><time>2026-04-06T14:52:05.877Z</time></trkpt><trkpt lat="53.47619060454228" lon="14.821406170118886"><ele>22.333333333333332</ele><time>2026-04-06T14:52:06.877Z</time></trkpt><trkpt lat="53.47603420022679" lon="14.821467200379248"><ele>22.666666666666668</ele><time>2026-04-06T14:52:07.877Z</time></trkpt><trkpt lat="53.47589608436478" lon="14.821499120854844"><ele>23.0</ele><time>2026-04-06T14:52:08.877Z</time></trkpt><trkpt lat="53.47573305842898" lon="14.821557099190768"><ele>23.0</ele><time>2026-04-06T14:52:09.877Z</time></trkpt><trkpt lat="53.47556307885071" lon="14.821612504985971"><ele>23.0</ele><time>2026-04-06T14:52:10.877Z</time></trkpt><trkpt lat="53.47536626161947" lon="14.821687363812115"><ele>23.0</ele><time>2026-04-06T14:52:11.877Z</time></trkpt><trkpt lat="53.4751880585799" lon="14.821748400401662"><ele>23.0</ele><time>2026-04-06T14:52:12.877Z</time></trkpt><trkpt lat="53.47500034427164" lon="14.821785991425019"><ele>23.0</ele><time>2026-04-06T14:52:13.877Z</time></trkpt><trkpt lat="53.47484127829297" lon="14.821863225860145"><ele>23.0</ele><time>2026-04-06T14:52:14.877Z</time></trkpt><trkpt lat="53.474671842169094" lon="14.821889409569557"><ele>23.0</ele><time>2026-04-06T14:52:15.877Z</time></trkpt><trkpt lat="53.47447286915435" lon="14.821968952069229"><ele>23.0</ele><time>2026-04-06T14:52:16.877Z</time></trkpt><trkpt lat="53.47430568226757" lon="14.822021953160581"><ele>23.0</ele><time>2026-04-06T14:52:17.877Z</time></trkpt><trkpt lat="53.474125165673634" lon="14.82208255199246"><ele>23.0</ele><time>2026-04-06T14:52:18.877Z</time></trkpt><trkpt lat="53.47394391922526" lon="14.822137522764631"><ele>23.0</ele><time>2026-04-06T14:52:19.877Z</time></trkpt><trkpt lat="53.47377397403663" lon="14.822173258956573"><ele>23.0</ele><time>2026-04-06T14:52:20.877Z</time></trkpt><trkpt lat="53.47357028955443" lon="14.822247133664963"><ele>23.666666666666668</ele><time>2026-04-06T14:52:21.877Z</time></trkpt><trkpt lat="53.473358076319755" lon="14.822323928917427"><ele>24.333333333333336</ele><time>2026-04-06T14:52:22.877Z</time></trkpt><trkpt lat="53.4731548735427" lon="14.822392572011843"><ele>25.0</ele><time>2026-04-06T14:52:23.877Z</time></trkpt><trkpt lat="53.47295480089891" lon="14.82247076191318"><ele>25.333333333333336</ele><time>2026-04-06T14:52:24.877Z</time></trkpt><trkpt lat="53.47278476190785" lon="14.822514101882815"><ele>25.666666666666664</ele><time>2026-04-06T14:52:25.877Z</time></trkpt><trkpt lat="53.47263163968607" lon="14.822566988892051"><ele>26.0</ele><time>2026-04-06T14:52:26.877Z</time></trkpt><trkpt lat="53.4724737979731" lon="14.822618193652874"><ele>26.0</ele><time>2026-04-06T14:52:27.876Z</time></trkpt><trkpt lat="53.472305090746985" lon="14.8226697319608"><ele>26.0</ele><time>2026-04-06T14:52:28.875Z</time></trkpt><trkpt lat="53.47215934140792" lon="14.822726669377532"><ele>26.0</ele><time>2026-04-06T14:52:29.876Z</time></trkpt><trkpt lat="53.47202412427892" lon="14.8227838908102"><ele>25.666666666666664</ele><time>2026-04-06T14:52:30.875Z</time></trkpt><trkpt lat="53.47185980946922" lon="14.822837806588009"><ele>25.333333333333336</ele><time>2026-04-06T14:52:31.875Z</time></trkpt><trkpt lat="53.471697740931596" lon="14.82289159537176"><ele>25.0</ele><time>2026-04-06T14:52:32.875Z</time></trkpt><trkpt lat="53.47153642736021" lon="14.822953611439043"><ele>25.0</ele><time>2026-04-06T14:52:33.875Z</time></trkpt><trkpt lat="53.47137760195868" lon="14.822995528328857"><ele>25.0</ele><time>2026-04-06T14:52:34.875Z</time></trkpt><trkpt lat="53.47123422285573" lon="14.823052085377972"><ele>25.0</ele><time>2026-04-06T14:52:35.875Z</time></trkpt><trkpt lat="53.471060725519436" lon="14.823119944137723"><ele>25.0</ele><time>2026-04-06T14:52:36.875Z</time></trkpt><trkpt lat="53.470890345582035" lon="14.823175226522304"><ele>25.0</ele><time>2026-04-06T14:52:37.875Z</time></trkpt><trkpt lat="53.47070982473641" lon="14.823226889651268"><ele>25.0</ele><time>2026-04-06T14:52:38.875Z</time></trkpt><trkpt lat="53.47054640272684" lon="14.823274598668563"><ele>25.0</ele><time>2026-04-06T14:52:39.875Z</time></trkpt><trkpt lat="53.47039903969132" lon="14.823330114381264"><ele>25.0</ele><time>2026-04-06T14:52:40.875Z</time></trkpt><trkpt lat="53.470217640598214" lon="14.823382530466255"><ele>25.0</ele><time>2026-04-06T14:52:41.875Z</time></trkpt><trkpt lat="53.4700626103821" lon="14.8234324323827"><ele>25.0</ele><time>2026-04-06T14:52:42.875Z</time></trkpt><trkpt lat="53.469913583293476" lon="14.823499302429127"><ele>25.0</ele><time>2026-04-06T14:52:43.875Z</time></trkpt><trkpt lat="53.46974288620223" lon="14.823558199474142"><ele>25.0</ele><time>2026-04-06T14:52:44.875Z</time></trkpt><trkpt lat="53.469540968708756" lon="14.823636613331974"><ele>25.0</ele><time>2026-04-06T14:52:45.875Z</time></trkpt><trkpt lat="53.469374365050705" lon="14.82370210977467"><ele>25.0</ele><time>2026-04-06T14:52:46.875Z</time></trkpt><trkpt lat="53.469165064042386" lon="14.823784094008966"><ele>25.0</ele><time>2026-04-06T14:52:47.875Z</time></trkpt><trkpt lat="53.468973049546584" lon="14.82386773603205"><ele>25.0</ele><time>2026-04-06T14:52:48.875Z</time></trkpt><trkpt lat="53.468848123202456" lon="14.82389225158607"><ele>25.0</ele><time>2026-04-06T14:52:49.875Z</time></trkpt><trkpt lat="53.46868117417735" lon="14.823923438936282"><ele>25.0</ele><time>2026-04-06T14:52:50.875Z</time></trkpt><trkpt lat="53.46852696225931" lon="14.823994214606678"><ele>25.666666666666668</ele><time>2026-04-06T14:52:51.875Z</time></trkpt><trkpt lat="53.46832494103196" lon="14.824057682457816"><ele>26.333333333333336</ele><time>2026-04-06T14:52:52.875Z</time></trkpt><trkpt lat="53.46814761217677" lon="14.824122881640724"><ele>27.0</ele><time>2026-04-06T14:52:53.875Z</time></trkpt><trkpt lat="53.46798676438244" lon="14.824185553576513"><ele>26.666666666666664</ele><time>2026-04-06T14:52:54.875Z</time></trkpt><trkpt lat="53.46784379293816" lon="14.824243340321596"><ele>26.333333333333332</ele><time>2026-04-06T14:52:55.875Z</time></trkpt><trkpt lat="53.46766345229286" lon="14.824301814031836"><ele>26.0</ele><time>2026-04-06T14:52:56.875Z</time></trkpt><trkpt lat="53.46750344260652" lon="14.824353849942314"><ele>26.0</ele><time>2026-04-06T14:52:57.875Z</time></trkpt><trkpt lat="53.4673577298132" lon="14.82441992903487"><ele>26.0</ele><time>2026-04-06T14:52:58.875Z</time></trkpt><trkpt lat="53.467168644588874" lon="14.82446122224042"><ele>26.0</ele><time>2026-04-06T14:52:59.875Z</time></trkpt><trkpt lat="53.467008144540955" lon="14.824504163439"><ele>25.75</ele><time>2026-04-06T14:53:00.875Z</time></trkpt><trkpt lat="53.46689589907772" lon="14.824558489429466"><ele>25.5</ele><time>2026-04-06T14:53:01.875Z</time></trkpt><trkpt lat="53.46678129781662" lon="14.82461882941077"><ele>25.25</ele><time>2026-04-06T14:53:02.875Z</time></trkpt><trkpt lat="53.46666900203641" lon="14.82465372690591"><ele>25.0</ele><time>2026-04-06T14:53:03.875Z</time></trkpt><trkpt lat="53.46657000312173" lon="14.824678869861645"><ele>25.0</ele><time>2026-04-06T14:53:04.875Z</time></trkpt><trkpt lat="53.46644416706652" lon="14.824668911511875"><ele>25.0</ele><time>2026-04-06T14:53:05.875Z</time></trkpt><trkpt lat="53.46631722270938" lon="14.824631088225045"><ele>25.0</ele><time>2026-04-06T14:53:06.875Z</time></trkpt><trkpt lat="53.46623701978244" lon="14.824664002747136"><ele>25.0</ele><time>2026-04-06T14:53:07.875Z</time></trkpt><trkpt lat="53.466197118648275" lon="14.82477883963288"><ele>25.0</ele><time>2026-04-06T14:53:09.875Z</time></trkpt><trkpt lat="53.46609958581968" lon="14.824811018881652"><ele>25.2</ele><time>2026-04-06T14:53:11.875Z</time></trkpt><trkpt lat="53.466019360053465" lon="14.824822884536626"><ele>25.4</ele><time>2026-04-06T14:53:13.875Z</time></trkpt><trkpt lat="53.46591168598338" lon="14.824822772705708"><ele>25.6</ele><time>2026-04-06T14:53:16.875Z</time></trkpt><trkpt lat="53.46583808225384" lon="14.824839247881341"><ele>25.8</ele><time>2026-04-06T14:53:17.875Z</time></trkpt><trkpt lat="53.465755508311894" lon="14.824888083128272"><ele>26.0</ele><time>2026-04-06T14:53:18.875Z</time></trkpt><trkpt lat="53.479617652163085" lon="14.820289438014777"><ele>24.0</ele><time>2026-04-06T14:51:45.877Z</time></trkpt><trkpt lat="53.47946536795051" lon="14.820355297494348"><ele>22.0</ele><time>2026-04-06T14:51:46.877Z</time></trkpt><trkpt lat="53.47930358503136" lon="14.820407698257407"><ele>20.0</ele><time>2026-04-06T14:51:47.877Z</time></trkpt><trkpt lat="53.479158464970105" lon="14.820449961800175"><ele>20.0</ele><time>2026-04-06T14:51:48.877Z</time></trkpt><trkpt lat="53.478998040320434" lon="14.820488122810726"><ele>20.0</ele><time>2026-04-06T14:51:49.877Z</time></trkpt><trkpt lat="53.478837389203946" lon="14.820533687827982"><ele>20.0</ele><time>2026-04-06T14:51:50.877Z</time></trkpt><trkpt lat="53.478681896204" lon="14.820598712901235"><ele>21.0</ele><time>2026-04-06T14:51:51.877Z</time></trkpt><trkpt lat="53.47851119393862" lon="14.820650291059952"><ele>22.0</ele><time>2026-04-06T14:51:52.877Z</time></trkpt><trkpt lat="53.47833562620135" lon="14.82070790654902"><ele>23.0</ele><time>2026-04-06T14:51:53.877Z</time></trkpt><trkpt lat="53.47815741526063" lon="14.820768337265315"><ele>23.0</ele><time>2026-04-06T14:51:54.877Z</time></trkpt><trkpt lat="53.47797712219097" lon="14.820821631984847"><ele>23.0</ele><time>2026-04-06T14:51:55.877Z</time></trkpt><trkpt lat="53.477813737346715" lon="14.82087228401131"><ele>23.0</ele><time>2026-04-06T14:51:56.877Z</time></trkpt><trkpt lat="53.477650564954914" lon="14.820933485714534"><ele>22.666666666666668</ele><time>2026-04-06T14:51:57.877Z</time></trkpt><trkpt lat="53.47748044030487" lon="14.820997676505332"><ele>22.333333333333332</ele><time>2026-04-06T14:51:58.877Z</time></trkpt><trkpt lat="53.47733288595734" lon="14.821035744548716"><ele>22.0</ele><time>2026-04-06T14:51:59.877Z</time></trkpt><trkpt lat="53.477179045118554" lon="14.821092296304519"><ele>22.0</ele><time>2026-04-06T14:52:00.877Z</time></trkpt><trkpt lat="53.47701224047615" lon="14.821147480324509"><ele>22.0</ele><time>2026-04-06T14:52:01.877Z</time></trkpt><trkpt lat="53.4768306728488" lon="14.821206093695972"><ele>22.0</ele><time>2026-04-06T14:52:02.877Z</time></trkpt><trkpt lat="53.47666967019172" lon="14.821256279804736"><ele>22.0</ele><time>2026-04-06T14:52:03.877Z</time></trkpt><trkpt lat="53.47651256466459" lon="14.821300267530818"><ele>22.0</ele><time>2026-04-06T14:52:04.877Z</time></trkpt><trkpt lat="53.476350885676325" lon="14.821358608549138"><ele>22.0</ele><time>2026-04-06T14:52:05.877Z</time></trkpt><trkpt lat="53.47619060454228" lon="14.821406170118886"><ele>22.333333333333332</ele><time>2026-04-06T14:52:06.877Z</time></trkpt><trkpt lat="53.47603420022679" lon="14.821467200379248"><ele>22.666666666666668</ele><time>2026-04-06T14:52:07.877Z</time></trkpt><trkpt lat="53.47589608436478" lon="14.821499120854844"><ele>23.0</ele><time>2026-04-06T14:52:08.877Z</time></trkpt><trkpt lat="53.47573305842898" lon="14.821557099190768"><ele>23.0</ele><time>2026-04-06T14:52:09.877Z</time></trkpt><trkpt lat="53.47556307885071" lon="14.821612504985971"><ele>23.0</ele><time>2026-04-06T14:52:10.877Z</time></trkpt><trkpt lat="53.47536626161947" lon="14.821687363812115"><ele>23.0</ele><time>2026-04-06T14:52:11.877Z</time></trkpt><trkpt lat="53.4751880585799" lon="14.821748400401662"><ele>23.0</ele><time>2026-04-06T14:52:12.877Z</time></trkpt><trkpt lat="53.47500034427164" lon="14.821785991425019"><ele>23.0</ele><time>2026-04-06T14:52:13.877Z</time></trkpt><trkpt lat="53.47484127829297" lon="14.821863225860145"><ele>23.0</ele><time>2026-04-06T14:52:14.877Z</time></trkpt><trkpt lat="53.474671842169094" lon="14.821889409569557"><ele>23.0</ele><time>2026-04-06T14:52:15.877Z</time></trkpt><trkpt lat="53.47447286915435" lon="14.821968952069229"><ele>23.0</ele><time>2026-04-06T14:52:16.877Z</time></trkpt><trkpt lat="53.47430568226757" lon="14.822021953160581"><ele>23.0</ele><time>2026-04-06T14:52:17.877Z</time></trkpt><trkpt lat="53.474125165673634" lon="14.82208255199246"><ele>23.0</ele><time>2026-04-06T14:52:18.877Z</time></trkpt><trkpt lat="53.47394391922526" lon="14.822137522764631"><ele>23.0</ele><time>2026-04-06T14:52:19.877Z</time></trkpt><trkpt lat="53.47377397403663" lon="14.822173258956573"><ele>23.0</ele><time>2026-04-06T14:52:20.877Z</time></trkpt><trkpt lat="53.47357028955443" lon="14.822247133664963"><ele>23.666666666666668</ele><time>2026-04-06T14:52:21.877Z</time></trkpt><trkpt lat="53.473358076319755" lon="14.822323928917427"><ele>24.333333333333336</ele><time>2026-04-06T14:52:22.877Z</time></trkpt><trkpt lat="53.4731548735427" lon="14.822392572011843"><ele>25.0</ele><time>2026-04-06T14:52:23.877Z</time></trkpt><trkpt lat="53.47295480089891" lon="14.82247076191318"><ele>25.333333333333336</ele><time>2026-04-06T14:52:24.877Z</time></trkpt><trkpt lat="53.47278476190785" lon="14.822514101882815"><ele>25.666666666666664</ele><time>2026-04-06T14:52:25.877Z</time></trkpt><trkpt lat="53.47263163968607" lon="14.822566988892051"><ele>26.0</ele><time>2026-04-06T14:52:26.877Z</time></trkpt><trkpt lat="53.4724737979731" lon="14.822618193652874"><ele>26.0</ele><time>2026-04-06T14:52:27.876Z</time></trkpt><trkpt lat="53.472305090746985" lon="14.8226697319608"><ele>26.0</ele><time>2026-04-06T14:52:28.875Z</time></trkpt><trkpt lat="53.47215934140792" lon="14.822726669377532"><ele>26.0</ele><time>2026-04-06T14:52:29.876Z</time></trkpt><trkpt lat="53.47202412427892" lon="14.8227838908102"><ele>25.666666666666664</ele><time>2026-04-06T14:52:30.875Z</time></trkpt><trkpt lat="53.47185980946922" lon="14.822837806588009"><ele>25.333333333333336</ele><time>2026-04-06T14:52:31.875Z</time></trkpt><trkpt lat="53.471697740931596" lon="14.82289159537176"><ele>25.0</ele><time>2026-04-06T14:52:32.875Z</time></trkpt><trkpt lat="53.47153642736021" lon="14.822953611439043"><ele>25.0</ele><time>2026-04-06T14:52:33.875Z</time></trkpt><trkpt lat="53.47137760195868" lon="14.822995528328857"><ele>25.0</ele><time>2026-04-06T14:52:34.875Z</time></trkpt><trkpt lat="53.47123422285573" lon="14.823052085377972"><ele>25.0</ele><time>2026-04-06T14:52:35.875Z</time></trkpt><trkpt lat="53.471060725519436" lon="14.823119944137723"><ele>25.0</ele><time>2026-04-06T14:52:36.875Z</time></trkpt><trkpt lat="53.470890345582035" lon="14.823175226522304"><ele>25.0</ele><time>2026-04-06T14:52:37.875Z</time></trkpt><trkpt lat="53.47070982473641" lon="14.823226889651268"><ele>25.0</ele><time>2026-04-06T14:52:38.875Z</time></trkpt><trkpt lat="53.47054640272684" lon="14.823274598668563"><ele>25.0</ele><time>2026-04-06T14:52:39.875Z</time></trkpt><trkpt lat="53.47039903969132" lon="14.823330114381264"><ele>25.0</ele><time>2026-04-06T14:52:40.875Z</time></trkpt><trkpt lat="53.470217640598214" lon="14.823382530466255"><ele>25.0</ele><time>2026-04-06T14:52:41.875Z</time></trkpt><trkpt lat="53.4700626103821" lon="14.8234324323827"><ele>25.0</ele><time>2026-04-06T14:52:42.875Z</time></trkpt><trkpt lat="53.469913583293476" lon="14.823499302429127"><ele>25.0</ele><time>2026-04-06T14:52:43.875Z</time></trkpt><trkpt lat="53.46974288620223" lon="14.823558199474142"><ele>25.0</ele><time>2026-04-06T14:52:44.875Z</time></trkpt><trkpt lat="53.469540968708756" lon="14.823636613331974"><ele>25.0</ele><time>2026-04-06T14:52:45.875Z</time></trkpt><trkpt lat="53.469374365050705" lon="14.82370210977467"><ele>25.0</ele><time>2026-04-06T14:52:46.875Z</time></trkpt><trkpt lat="53.469165064042386" lon="14.823784094008966"><ele>25.0</ele><time>2026-04-06T14:52:47.875Z</time></trkpt><trkpt lat="53.468973049546584" lon="14.82386773603205"><ele>25.0</ele><time>2026-04-06T14:52:48.875Z</time></trkpt><trkpt lat="53.468848123202456" lon="14.82389225158607"><ele>25.0</ele><time>2026-04-06T14:52:49.875Z</time></trkpt><trkpt lat="53.46868117417735" lon="14.823923438936282"><ele>25.0</ele><time>2026-04-06T14:52:50.875Z</time></trkpt><trkpt lat="53.46852696225931" lon="14.823994214606678"><ele>25.666666666666668</ele><time>2026-04-06T14:52:51.875Z</time></trkpt><trkpt lat="53.46832494103196" lon="14.824057682457816"><ele>26.333333333333336</ele><time>2026-04-06T14:52:52.875Z</time></trkpt><trkpt lat="53.46814761217677" lon="14.824122881640724"><ele>27.0</ele><time>2026-04-06T14:52:53.875Z</time></trkpt><trkpt lat="53.46798676438244" lon="14.824185553576513"><ele>26.666666666666664</ele><time>2026-04-06T14:52:54.875Z</time></trkpt><trkpt lat="53.46784379293816" lon="14.824243340321596"><ele>26.333333333333332</ele><time>2026-04-06T14:52:55.875Z</time></trkpt><trkpt lat="53.46766345229286" lon="14.824301814031836"><ele>26.0</ele><time>2026-04-06T14:52:56.875Z</time></trkpt><trkpt lat="53.46750344260652" lon="14.824353849942314"><ele>26.0</ele><time>2026-04-06T14:52:57.875Z</time></trkpt><trkpt lat="53.4673577298132" lon="14.82441992903487"><ele>26.0</ele><time>2026-04-06T14:52:58.875Z</time></trkpt><trkpt lat="53.467168644588874" lon="14.82446122224042"><ele>26.0</ele><time>2026-04-06T14:52:59.875Z</time></trkpt><trkpt lat="53.467008144540955" lon="14.824504163439"><ele>25.75</ele><time>2026-04-06T14:53:00.875Z</time></trkpt><trkpt lat="53.46689589907772" lon="14.824558489429466"><ele>25.5</ele><time>2026-04-06T14:53:01.875Z</time></trkpt><trkpt lat="53.46678129781662" lon="14.82461882941077"><ele>25.25</ele><time>2026-04-06T14:53:02.875Z</time></trkpt><trkpt lat="53.46666900203641" lon="14.82465372690591"><ele>25.0</ele><time>2026-04-06T14:53:03.875Z</time></trkpt><trkpt lat="53.46657000312173" lon="14.824678869861645"><ele>25.0</ele><time>2026-04-06T14:53:04.875Z</time></trkpt><trkpt lat="53.46644416706652" lon="14.824668911511875"><ele>25.0</ele><time>2026-04-06T14:53:05.875Z</time></trkpt><trkpt lat="53.46631722270938" lon="14.824631088225045"><ele>25.0</ele><time>2026-04-06T14:53:06.875Z</time></trkpt><trkpt lat="53.46623701978244" lon="14.824664002747136"><ele>25.0</ele><time>2026-04-06T14:53:07.875Z</time></trkpt><trkpt lat="53.466197118648275" lon="14.82477883963288"><ele>25.0</ele><time>2026-04-06T14:53:09.875Z</time></trkpt><trkpt lat="53.46609958581968" lon="14.824811018881652"><ele>25.166666666666668</ele><time>2026-04-06T14:53:11.875Z</time></trkpt><trkpt lat="53.466019360053465" lon="14.824822884536626"><ele>25.333333333333336</ele><time>2026-04-06T14:53:13.875Z</time></trkpt><trkpt lat="53.46591168598338" lon="14.824822772705708"><ele>25.5</ele><time>2026-04-06T14:53:16.875Z</time></trkpt><trkpt lat="53.46583808225384" lon="14.824839247881341"><ele>25.666666666666664</ele><time>2026-04-06T14:53:17.875Z</time></trkpt><trkpt lat="53.465755508311894" lon="14.824888083128272"><ele>25.833333333333332</ele><time>2026-04-06T14:53:18.875Z</time></trkpt><trkpt lat="53.465682709519015" lon="14.824918382430512"><ele>26.0</ele><time>2026-04-06T14:53:19.875Z</time></trkpt><trkpt lat="53.465568130268956" lon="14.82497508523761"><ele>26.0</ele><time>2026-04-06T14:53:21.875Z</time></trkpt><trkpt lat="53.46548169935957" lon="14.824997296565435"><ele>26.0</ele><time>2026-04-06T14:53:22.875Z</time></trkpt><trkpt lat="53.46537939287025" lon="14.825031245556215"><ele>26.0</ele><time>2026-04-06T14:53:23.875Z</time></trkpt><trkpt lat="53.465246255573184" lon="14.82508381167308"><ele>26.0</ele><time>2026-04-06T14:53:24.875Z</time></trkpt><trkpt lat="53.46508923476616" lon="14.825125813964327"><ele>26.333333333333332</ele><time>2026-04-06T14:53:25.875Z</time></trkpt><trkpt lat="53.464922358093425" lon="14.825171188850614"><ele>26.666666666666664</ele><time>2026-04-06T14:53:26.875Z</time></trkpt><trkpt lat="53.46476725014792" lon="14.82522548093014"><ele>27.0</ele><time>2026-04-06T14:53:27.875Z</time></trkpt><trkpt lat="53.46462692312344" lon="14.825268167763415"><ele>26.75</ele><time>2026-04-06T14:53:28.875Z</time></trkpt><trkpt lat="53.46448862736415" lon="14.825317560636606"><ele>26.5</ele><time>2026-04-06T14:53:29.875Z</time></trkpt><trkpt lat="53.464333162225145" lon="14.8253592965606"><ele>26.25</ele><time>2026-04-06T14:53:30.875Z</time></trkpt><trkpt lat="53.464185602165436" lon="14.82540761710459"><ele>26.0</ele><time>2026-04-06T14:53:31.875Z</time></trkpt><trkpt lat="53.46405273208806" lon="14.825442343030085"><ele>26.0</ele><time>2026-04-06T14:53:32.875Z</time></trkpt><trkpt lat="53.463928125875285" lon="14.825482548646225"><ele>26.0</ele><time>2026-04-06T14:53:33.875Z</time></trkpt><trkpt lat="53.46381902730315" lon="14.825510610865198"><ele>26.0</ele><time>2026-04-06T14:53:34.875Z</time></trkpt><trkpt lat="53.46370927429082" lon="14.825544598434204"><ele>26.0</ele><time>2026-04-06T14:53:35.875Z</time></trkpt><trkpt lat="53.463589880092655" lon="14.825573645641875"><ele>25.25</ele><time>2026-04-06T14:53:36.875Z</time></trkpt><trkpt lat="53.463461586320555" lon="14.825618017952156"><ele>24.5</ele><time>2026-04-06T14:53:37.875Z</time></trkpt><trkpt lat="53.46333782206017" lon="14.825663887057203"><ele>23.75</ele><time>2026-04-06T14:53:38.875Z</time></trkpt><trkpt lat="53.46318719693463" lon="14.825720164716891"><ele>23.0</ele><time>2026-04-06T14:53:39.875Z</time></trkpt><trkpt lat="53.4630314374483" lon="14.825799798203123"><ele>23.5</ele><time>2026-04-06T14:53:40.875Z</time></trkpt><trkpt lat="53.46288116044956" lon="14.825869083268174"><ele>24.0</ele><time>2026-04-06T14:53:41.875Z</time></trkpt><trkpt lat="53.46274059088262" lon="14.825932022133415"><ele>24.5</ele><time>2026-04-06T14:53:42.875Z</time></trkpt><trkpt lat="53.46262323428765" lon="14.825985808208207"><ele>25.0</ele><time>2026-04-06T14:53:43.875Z</time></trkpt><trkpt lat="53.462497845147546" lon="14.826018262347358"><ele>25.0</ele><time>2026-04-06T14:53:44.875Z</time></trkpt><trkpt lat="53.462357378462755" lon="14.826048080933294"><ele>25.0</ele><time>2026-04-06T14:53:45.875Z</time></trkpt><trkpt lat="53.46224589390066" lon="14.826083491518151"><ele>25.0</ele><time>2026-04-06T14:53:46.875Z</time></trkpt><trkpt lat="53.462112178747546" lon="14.826121912222463"><ele>25.0</ele><time>2026-04-06T14:53:47.875Z</time></trkpt><trkpt lat="53.462001684565486" lon="14.826181143055237"><ele>25.25</ele><time>2026-04-06T14:53:48.875Z</time></trkpt><trkpt lat="53.461866271599604" lon="14.82623129086712"><ele>25.5</ele><time>2026-04-06T14:53:49.875Z</time></trkpt><trkpt lat="53.461739379369305" lon="14.82627658395131"><ele>25.75</ele><time>2026-04-06T14:53:50.875Z</time></trkpt><trkpt lat="53.461610503826634" lon="14.826316842240962"><ele>26.0</ele><time>2026-04-06T14:53:51.875Z</time></trkpt><trkpt lat="53.461448135954825" lon="14.82636670976133"><ele>26.0</ele><time>2026-04-06T14:53:52.875Z</time></trkpt><trkpt lat="53.461316062760396" lon="14.82640677886508"><ele>26.0</ele><time>2026-04-06T14:53:53.875Z</time></trkpt><trkpt lat="53.461174674185266" lon="14.826467810123175"><ele>26.0</ele><time>2026-04-06T14:53:54.875Z</time></trkpt><trkpt lat="53.46102495482097" lon="14.826530201228412"><ele>26.0</ele><time>2026-04-06T14:53:55.875Z</time></trkpt><trkpt lat="53.46085759704635" lon="14.826578046496895"><ele>26.333333333333332</ele><time>2026-04-06T14:53:56.875Z</time></trkpt><trkpt lat="53.46069694858149" lon="14.826633463221958"><ele>26.666666666666664</ele><time>2026-04-06T14:53:57.875Z</time></trkpt><trkpt lat="53.46054574107187" lon="14.826671406969533"><ele>27.0</ele><time>2026-04-06T14:53:58.875Z</time></trkpt><trkpt lat="53.46040001359668" lon="14.826719269573921"><ele>27.5</ele><time>2026-04-06T14:53:59.875Z</time></trkpt><trkpt lat="53.46026642150384" lon="14.826756349686342"><ele>28.0</ele><time>2026-04-06T14:54:00.875Z</time></trkpt><trkpt lat="53.46011999001803" lon="14.826812283839581"><ele>28.5</ele><time>2026-04-06T14:54:01.875Z</time></trkpt><trkpt lat="53.45997690262292" lon="14.826859038965612"><ele>29.0</ele><time>2026-04-06T14:54:02.875Z</time></trkpt><trkpt lat="53.45981842851498" lon="14.826912642669024"><ele>29.0</ele><time>2026-04-06T14:54:03.875Z</time></trkpt><trkpt lat="53.45968999475369" lon="14.826976493005407"><ele>29.0</ele><time>2026-04-06T14:54:04.875Z</time></trkpt><trkpt lat="53.45955577198932" lon="14.827009271284554"><ele>29.0</ele><time>2026-04-06T14:54:05.875Z</time></trkpt><trkpt lat="53.45942301974166" lon="14.827049873185215"><ele>29.0</ele><time>2026-04-06T14:54:06.875Z</time></trkpt><trkpt lat="53.459310945635465" lon="14.827093341321136"><ele>28.25</ele><time>2026-04-06T14:54:07.875Z</time></trkpt><trkpt lat="53.4591798221707" lon="14.827128109802107"><ele>27.5</ele><time>2026-04-06T14:54:08.875Z</time></trkpt><trkpt lat="53.4590476186904" lon="14.82716009622739"><ele>26.75</ele><time>2026-04-06T14:54:09.875Z</time></trkpt><trkpt lat="53.45889607492941" lon="14.82720672144585"><ele>26.0</ele><time>2026-04-06T14:54:10.875Z</time></trkpt><trkpt lat="53.45873252240017" lon="14.827255264444876"><ele>25.666666666666664</ele><time>2026-04-06T14:54:11.875Z</time></trkpt><trkpt lat="53.45856300556375" lon="14.827314335082484"><ele>25.333333333333336</ele><time>2026-04-06T14:54:12.875Z</time></trkpt><trkpt lat="53.45838702317814" lon="14.827366813814551"><ele>25.0</ele><time>2026-04-06T14:54:13.875Z</time></trkpt><trkpt lat="53.45819505798147" lon="14.827425394084388"><ele>25.0</ele><time>2026-04-06T14:54:14.875Z</time></trkpt><trkpt lat="53.458008178266766" lon="14.827485247182022"><ele>25.0</ele><time>2026-04-06T14:54:15.875Z</time></trkpt><trkpt lat="53.45782416351374" lon="14.827547890620155"><ele>25.0</ele><time>2026-04-06T14:54:16.875Z</time></trkpt><trkpt lat="53.45764786152457" lon="14.82760263645498"><ele>25.666666666666668</ele><time>2026-04-06T14:54:17.875Z</time></trkpt><trkpt lat="53.457463412705366" lon="14.827652342663098"><ele>26.333333333333336</ele><time>2026-04-06T14:54:18.875Z</time></trkpt><trkpt lat="53.45729605257912" lon="14.82769972912829"><ele>27.0</ele><time>2026-04-06T14:54:19.876Z</time></trkpt><trkpt lat="53.45712728729791" lon="14.827742302546078"><ele>27.0</ele><time>2026-04-06T14:54:20.876Z</time></trkpt><trkpt lat="53.456972305070465" lon="14.827793498908656"><ele>27.0</ele><time>2026-04-06T14:54:21.876Z</time></trkpt><trkpt lat="53.45682134719901" lon="14.827846423948754"><ele>27.0</ele><time>2026-04-06T14:54:22.876Z</time></trkpt><trkpt lat="53.456670283754534" lon="14.827887295108514"><ele>27.0</ele><time>2026-04-06T14:54:23.876Z</time></trkpt><trkpt lat="53.45654080519563" lon="14.827936266990006"><ele>27.0</ele><time>2026-04-06T14:54:24.876Z</time></trkpt><trkpt lat="53.456409709299336" lon="14.827995666119067"><ele>27.0</ele><time>2026-04-06T14:54:25.876Z</time></trkpt><trkpt lat="53.45626794025592" lon="14.828054271523166"><ele>27.0</ele><time>2026-04-06T14:54:26.876Z</time></trkpt><trkpt lat="53.45610471266908" lon="14.828108624307445"><ele>26.666666666666664</ele><time>2026-04-06T14:54:27.876Z</time></trkpt><trkpt lat="53.455951593560165" lon="14.828146396974425"><ele>26.333333333333332</ele><time>2026-04-06T14:54:28.876Z</time></trkpt><trkpt lat="53.45578970179963" lon="14.828214701777888"><ele>26.0</ele><time>2026-04-06T14:54:29.876Z</time></trkpt><trkpt lat="53.45563000286417" lon="14.828291368189094"><ele>26.0</ele><time>2026-04-06T14:54:30.876Z</time></trkpt><trkpt lat="53.45547572011037" lon="14.828339295647888"><ele>26.0</ele><time>2026-04-06T14:54:31.876Z</time></trkpt><trkpt lat="53.455298276562495" lon="14.828396737596526"><ele>26.0</ele><time>2026-04-06T14:54:32.876Z</time></trkpt><trkpt lat="53.455113086204335" lon="14.828464863766156"><ele>26.333333333333332</ele><time>2026-04-06T14:54:33.998Z</time></trkpt><trkpt lat="53.45494518051011" lon="14.828526225427698"><ele>26.666666666666664</ele><time>2026-04-06T14:54:34.998Z</time></trkpt><trkpt lat="53.45479356518102" lon="14.82855871270013"><ele>27.0</ele><time>2026-04-06T14:54:35.998Z</time></trkpt><trkpt lat="53.454659642242866" lon="14.828604635571319"><ele>26.5</ele><time>2026-04-06T14:54:36.998Z</time></trkpt><trkpt lat="53.45453270418777" lon="14.828641885509098"><ele>26.0</ele><time>2026-04-06T14:54:37.999Z</time></trkpt><trkpt lat="53.454374986080694" lon="14.828705830910156"><ele>25.5</ele><time>2026-04-06T14:54:38.999Z</time></trkpt><trkpt lat="53.45423656094484" lon="14.828757626585018"><ele>25.0</ele><time>2026-04-06T14:54:39.999Z</time></trkpt><trkpt lat="53.4540841980521" lon="14.828810497275319"><ele>25.0</ele><time>2026-04-06T14:54:40.999Z</time></trkpt><trkpt lat="53.45394510474984" lon="14.828849627131229"><ele>25.0</ele><time>2026-04-06T14:54:41.999Z</time></trkpt><trkpt lat="53.45378787163174" lon="14.828899774965072"><ele>25.0</ele><time>2026-04-06T14:54:42.999Z</time></trkpt><trkpt lat="53.453632507674314" lon="14.828950636445144"><ele>24.666666666666668</ele><time>2026-04-06T14:54:43.999Z</time></trkpt><trkpt lat="53.4534761657354" lon="14.828999393530735"><ele>24.333333333333336</ele><time>2026-04-06T14:54:44.999Z</time></trkpt><trkpt lat="53.45332209263705" lon="14.829054790011387"><ele>24.0</ele><time>2026-04-06T14:54:45.999Z</time></trkpt><trkpt lat="53.4531742605083" lon="14.829101126916006"><ele>24.0</ele><time>2026-04-06T14:54:46.999Z</time></trkpt><trkpt lat="53.45300674725846" lon="14.829161863180618"><ele>24.0</ele><time>2026-04-06T14:54:47.999Z</time></trkpt><trkpt lat="53.45284220558052" lon="14.829215505500208"><ele>24.0</ele><time>2026-04-06T14:54:48.999Z</time></trkpt><trkpt lat="53.452661092607556" lon="14.829283589950187"><ele>25.333333333333336</ele><time>2026-04-06T14:54:49.999Z</time></trkpt><trkpt lat="53.45249349736677" lon="14.829339674030333"><ele>26.666666666666668</ele><time>2026-04-06T14:54:50.999Z</time></trkpt><trkpt lat="53.452334372190414" lon="14.8293774555933"><ele>28.0</ele><time>2026-04-06T14:54:51.999Z</time></trkpt><trkpt lat="53.45216160454564" lon="14.829437990188044"><ele>28.333333333333336</ele><time>2026-04-06T14:54:52.999Z</time></trkpt><trkpt lat="53.45197842916254" lon="14.82950587207404"><ele>28.666666666666664</ele><time>2026-04-06T14:54:54Z</time></trkpt><trkpt lat="53.45178169110131" lon="14.829568450122919"><ele>29.0</ele><time>2026-04-06T14:54:55Z</time></trkpt><trkpt lat="53.45159617909799" lon="14.829613316776532"><ele>29.0</ele><time>2026-04-06T14:54:56Z</time></trkpt><trkpt lat="53.451388258174724" lon="14.829676911520686"><ele>29.0</ele><time>2026-04-06T14:54:57Z</time></trkpt><trkpt lat="53.45118832308821" lon="14.829744485076702"><ele>29.0</ele><time>2026-04-06T14:54:58Z</time></trkpt><trkpt lat="53.451013524087585" lon="14.829793496100711"><ele>28.333333333333332</ele><time>2026-04-06T14:54:59Z</time></trkpt><trkpt lat="53.45083828163936" lon="14.829851843200483"><ele>27.666666666666664</ele><time>2026-04-06T14:55:00Z</time></trkpt><trkpt lat="53.450663300336686" lon="14.829919672006916"><ele>27.0</ele><time>2026-04-06T14:55:01Z</time></trkpt><trkpt lat="53.45046293375777" lon="14.829973567463467"><ele>27.0</ele><time>2026-04-06T14:55:02Z</time></trkpt><trkpt lat="53.45030727356446" lon="14.830033588851881"><ele>27.0</ele><time>2026-04-06T14:55:03Z</time></trkpt><trkpt lat="53.45015694891051" lon="14.830087330424512"><ele>27.0</ele><time>2026-04-06T14:55:04Z</time></trkpt><trkpt lat="53.4499816734858" lon="14.830138782074442"><ele>27.333333333333336</ele><time>2026-04-06T14:55:05Z</time></trkpt><trkpt lat="53.44982981247344" lon="14.830186157662308"><ele>27.666666666666668</ele><time>2026-04-06T14:55:06Z</time></trkpt><trkpt lat="53.44967800931075" lon="14.830234203948791"><ele>28.0</ele><time>2026-04-06T14:55:07Z</time></trkpt><trkpt lat="53.449507900791495" lon="14.830294263912089"><ele>28.0</ele><time>2026-04-06T14:55:08Z</time></trkpt><trkpt lat="53.449363355238035" lon="14.830361832811246"><ele>28.0</ele><time>2026-04-06T14:55:09Z</time></trkpt><trkpt lat="53.44921036325441" lon="14.830424970294183"><ele>28.0</ele><time>2026-04-06T14:55:10Z</time></trkpt><trkpt lat="53.449054242263074" lon="14.830471513481013"><ele>28.0</ele><time>2026-04-06T14:55:11Z</time></trkpt><trkpt lat="53.4488924058681" lon="14.830524989723315"><ele>28.0</ele><time>2026-04-06T14:55:12Z</time></trkpt><trkpt lat="53.44872673760532" lon="14.830578671241312"><ele>28.0</ele><time>2026-04-06T14:55:13Z</time></trkpt><trkpt lat="53.44857620900841" lon="14.830632357102552"><ele>28.0</ele><time>2026-04-06T14:55:14Z</time></trkpt><trkpt lat="53.44842508664404" lon="14.830671337816261"><ele>28.0</ele><time>2026-04-06T14:55:15Z</time></trkpt><trkpt lat="53.4482987328117" lon="14.830705771883496"><ele>28.0</ele><time>2026-04-06T14:55:16Z</time></trkpt><trkpt lat="53.44815725148415" lon="14.830732755606974"><ele>28.0</ele><time>2026-04-06T14:55:17Z</time></trkpt><trkpt lat="53.44802810130476" lon="14.830790558506806"><ele>28.666666666666668</ele><time>2026-04-06T14:55:18.001Z</time></trkpt><trkpt lat="53.44788344884666" lon="14.830843797194065"><ele>29.333333333333336</ele><time>2026-04-06T14:55:19.001Z</time></trkpt><trkpt lat="53.447716574535754" lon="14.830908298786223"><ele>30.0</ele><time>2026-04-06T14:55:20.001Z</time></trkpt><trkpt lat="53.44755984738928" lon="14.830937020874199"><ele>30.25</ele><time>2026-04-06T14:55:21.001Z</time></trkpt><trkpt lat="53.447424880321684" lon="14.830979342175219"><ele>30.5</ele><time>2026-04-06T14:55:22.001Z</time></trkpt><trkpt lat="53.44726739952723" lon="14.831028601406633"><ele>30.75</ele><time>2026-04-06T14:55:23.001Z</time></trkpt><trkpt lat="53.44712044698305" lon="14.831090150390681"><ele>31.0</ele><time>2026-04-06T14:55:24.001Z</time></trkpt><trkpt lat="53.44697776977433" lon="14.831117613045835"><ele>30.5</ele><time>2026-04-06T14:55:25.001Z</time></trkpt><trkpt lat="53.446851860676" lon="14.83118044664351"><ele>30.0</ele><time>2026-04-06T14:55:26.001Z</time></trkpt><trkpt lat="53.44669658151994" lon="14.831203063071209"><ele>29.5</ele><time>2026-04-06T14:55:27.001Z</time></trkpt><trkpt lat="53.44657449789251" lon="14.831239384857895"><ele>29.0</ele><time>2026-04-06T14:55:28.001Z</time></trkpt><trkpt lat="53.44643296842506" lon="14.83128119723318"><ele>28.0</ele><time>2026-04-06T14:55:29.001Z</time></trkpt><trkpt lat="53.4462647854373" lon="14.831328647221264"><ele>27.0</ele><time>2026-04-06T14:55:30.001Z</time></trkpt><trkpt lat="53.446104911565094" lon="14.831368635531366"><ele>26.0</ele><time>2026-04-06T14:55:31.001Z</time></trkpt><trkpt lat="53.44595194227473" lon="14.831405121498046"><ele>26.0</ele><time>2026-04-06T14:55:32.001Z</time></trkpt><trkpt lat="53.4458150039337" lon="14.83146653457107"><ele>26.0</ele><time>2026-04-06T14:55:33.001Z</time></trkpt><trkpt lat="53.44568261081405" lon="14.831497447309253"><ele>26.0</ele><time>2026-04-06T14:55:34.001Z</time></trkpt><trkpt lat="53.44553506375061" lon="14.831549980200121"><ele>26.0</ele><time>2026-04-06T14:55:35.001Z</time></trkpt><trkpt lat="53.445386160342004" lon="14.83158085316717"><ele>26.0</ele><time>2026-04-06T14:55:36.001Z</time></trkpt><trkpt lat="53.44525123762631" lon="14.831616886398729"><ele>26.0</ele><time>2026-04-06T14:55:37.001Z</time></trkpt><trkpt lat="53.44509093674217" lon="14.83166997205239"><ele>26.0</ele><time>2026-04-06T14:55:38.001Z</time></trkpt><trkpt lat="53.44495633047531" lon="14.831705157983327"><ele>26.0</ele><time>2026-04-06T14:55:39.001Z</time></trkpt><trkpt lat="53.444814679193954" lon="14.831753451658518"><ele>26.333333333333332</ele><time>2026-04-06T14:55:40.001Z</time></trkpt><trkpt lat="53.444664935954094" lon="14.831809689751134"><ele>26.666666666666664</ele><time>2026-04-06T14:55:41.001Z</time></trkpt><trkpt lat="53.444513350212766" lon="14.8318643987384"><ele>27.0</ele><time>2026-04-06T14:55:42.001Z</time></trkpt><trkpt lat="53.44435523048829" lon="14.831927160189972"><ele>27.0</ele><time>2026-04-06T14:55:43.001Z</time></trkpt><trkpt lat="53.444216378656684" lon="14.831966917812704"><ele>27.0</ele><time>2026-04-06T14:55:44.001Z</time></trkpt><trkpt lat="53.44406427656377" lon="14.832024051266188"><ele>27.0</ele><time>2026-04-06T14:55:45.001Z</time></trkpt><trkpt lat="53.44391404920502" lon="14.832077125079792"><ele>26.666666666666664</ele><time>2026-04-06T14:55:46.001Z</time></trkpt><trkpt lat="53.443755957497785" lon="14.832139773239744"><ele>26.333333333333332</ele><time>2026-04-06T14:55:47.001Z</time></trkpt><trkpt lat="53.44360850996077" lon="14.832179641646755"><ele>26.0</ele><time>2026-04-06T14:55:48.001Z</time></trkpt><trkpt lat="53.44344998986243" lon="14.832225419355003"><ele>26.0</ele><time>2026-04-06T14:55:49.002Z</time></trkpt><trkpt lat="53.44329405381517" lon="14.832276567254166"><ele>26.0</ele><time>2026-04-06T14:55:50.002Z</time></trkpt><trkpt lat="53.44313801415537" lon="14.83233547181687"><ele>26.0</ele><time>2026-04-06T14:55:51.002Z</time></trkpt><trkpt lat="53.44296310956773" lon="14.8324031522816"><ele>25.666666666666664</ele><time>2026-04-06T14:55:52.002Z</time></trkpt><trkpt lat="53.442806188555515" lon="14.832453826815053"><ele>25.333333333333336</ele><time>2026-04-06T14:55:53.003Z</time></trkpt><trkpt lat="53.442660354224216" lon="14.832501062845674"><ele>25.0</ele><time>2026-04-06T14:55:54.002Z</time></trkpt><trkpt lat="53.442506203451984" lon="14.83257203868817"><ele>25.0</ele><time>2026-04-06T14:55:55.002Z</time></trkpt><trkpt lat="53.44234934746771" lon="14.83258840688696"><ele>25.0</ele><time>2026-04-06T14:55:56.002Z</time></trkpt><trkpt lat="53.44219123534706" lon="14.832631655590232"><ele>25.0</ele><time>2026-04-06T14:55:57.002Z</time></trkpt><trkpt lat="53.44203953907417" lon="14.832673148587752"><ele>26.0</ele><time>2026-04-06T14:55:58.002Z</time></trkpt><trkpt lat="53.44188194095379" lon="14.832716255898003"><ele>27.0</ele><time>2026-04-06T14:55:59.002Z</time></trkpt><trkpt lat="53.441735156970054" lon="14.832789591973041"><ele>28.0</ele><time>2026-04-06T14:56:00.002Z</time></trkpt><trkpt lat="53.44156199407502" lon="14.832836808536037"><ele>28.0</ele><time>2026-04-06T14:56:01.002Z</time></trkpt><trkpt lat="53.441401856686305" lon="14.832878545228574"><ele>28.0</ele><time>2026-04-06T14:56:02.002Z</time></trkpt><trkpt lat="53.441227581219735" lon="14.83295842383103"><ele>28.0</ele><time>2026-04-06T14:56:03.002Z</time></trkpt><trkpt lat="53.44107275727098" lon="14.833007699400447"><ele>27.333333333333336</ele><time>2026-04-06T14:56:04.002Z</time></trkpt><trkpt lat="53.44092537574786" lon="14.833050634150121"><ele>26.666666666666664</ele><time>2026-04-06T14:56:05.002Z</time></trkpt><trkpt lat="53.440771754532165" lon="14.833094639564635"><ele>26.0</ele><time>2026-04-06T14:56:06.002Z</time></trkpt><trkpt lat="53.440624326171644" lon="14.833155891529767"><ele>26.0</ele><time>2026-04-06T14:56:07.002Z</time></trkpt><trkpt lat="53.44046947089105" lon="14.833219266324226"><ele>26.0</ele><time>2026-04-06T14:56:08.002Z</time></trkpt><trkpt lat="53.4403199728229" lon="14.833271939333217"><ele>26.0</ele><time>2026-04-06T14:56:09.002Z</time></trkpt><trkpt lat="53.440148250531934" lon="14.833318912531404"><ele>26.0</ele><time>2026-04-06T14:56:10.002Z</time></trkpt><trkpt lat="53.43999685651882" lon="14.83337266121724"><ele>26.0</ele><time>2026-04-06T14:56:11.002Z</time></trkpt><trkpt lat="53.439825525531255" lon="14.833433624425908"><ele>26.0</ele><time>2026-04-06T14:56:12.002Z</time></trkpt><trkpt lat="53.43967078156104" lon="14.83348845039593"><ele>26.666666666666664</ele><time>2026-04-06T14:56:13.002Z</time></trkpt><trkpt lat="53.439506606824644" lon="14.833543680238705"><ele>27.333333333333336</ele><time>2026-04-06T14:56:14.002Z</time></trkpt><trkpt lat="53.43934620289798" lon="14.833602269352497"><ele>28.0</ele><time>2026-04-06T14:56:15.002Z</time></trkpt><trkpt lat="53.439205903121106" lon="14.833654913039313"><ele>28.0</ele><time>2026-04-06T14:56:16.002Z</time></trkpt><trkpt lat="53.43905693545077" lon="14.833722330459784"><ele>28.0</ele><time>2026-04-06T14:56:17.002Z</time></trkpt><trkpt lat="53.43891245960664" lon="14.833791851355706"><ele>28.0</ele><time>2026-04-06T14:56:18.002Z</time></trkpt><trkpt lat="53.43874292568734" lon="14.833862544331446"><ele>28.0</ele><time>2026-04-06T14:56:19.002Z</time></trkpt><trkpt lat="53.43857807737199" lon="14.833913556347108"><ele>28.0</ele><time>2026-04-06T14:56:20.002Z</time></trkpt><trkpt lat="53.43840548165268" lon="14.833948100141317"><ele>28.0</ele><time>2026-04-06T14:56:21.002Z</time></trkpt><trkpt lat="53.43821913633562" lon="14.833991046827247"><ele>28.0</ele><time>2026-04-06T14:56:22.003Z</time></trkpt><trkpt lat="53.43801891957867" lon="14.834049025182582"><ele>28.0</ele><time>2026-04-06T14:56:23.003Z</time></trkpt><trkpt lat="53.43782710638822" lon="14.834119190930913"><ele>28.0</ele><time>2026-04-06T14:56:24.003Z</time></trkpt><trkpt lat="53.43765156660682" lon="14.834195291655123"><ele>28.666666666666668</ele><time>2026-04-06T14:56:25.003Z</time></trkpt><trkpt lat="53.437485955421884" lon="14.834229776567554"><ele>29.333333333333336</ele><time>2026-04-06T14:56:26.003Z</time></trkpt><trkpt lat="53.43731389363449" lon="14.834288587365482"><ele>30.0</ele><time>2026-04-06T14:56:27.003Z</time></trkpt><trkpt lat="53.43714329661157" lon="14.834362539088831"><ele>29.666666666666664</ele><time>2026-04-06T14:56:28.003Z</time></trkpt><trkpt lat="53.436914349544764" lon="14.834438254387154"><ele>29.333333333333332</ele><time>2026-04-06T14:56:29.003Z</time></trkpt><trkpt lat="53.43671296038975" lon="14.834501561257865"><ele>29.0</ele><time>2026-04-06T14:56:30.003Z</time></trkpt><trkpt lat="53.436525493919454" lon="14.834560226772593"><ele>29.0</ele><time>2026-04-06T14:56:31.003Z</time></trkpt><trkpt lat="53.436326162637044" lon="14.83463243366867"><ele>29.0</ele><time>2026-04-06T14:56:32.003Z</time></trkpt><trkpt lat="53.43614156700898" lon="14.834681716504704"><ele>29.0</ele><time>2026-04-06T14:56:33.003Z</time></trkpt><trkpt lat="53.435931671211215" lon="14.834746960572067"><ele>28.666666666666664</ele><time>2026-04-06T14:56:34.003Z</time></trkpt><trkpt lat="53.43574865303303" lon="14.834839578992582"><ele>28.333333333333336</ele><time>2026-04-06T14:56:35.003Z</time></trkpt><trkpt lat="53.435554061215555" lon="14.834906946551145"><ele>28.0</ele><time>2026-04-06T14:56:36.003Z</time></trkpt><trkpt lat="53.435400069985704" lon="14.834955333121151"><ele>28.0</ele><time>2026-04-06T14:56:37.003Z</time></trkpt><trkpt lat="53.43521447518666" lon="14.834987538614754"><ele>28.0</ele><time>2026-04-06T14:56:38.003Z</time></trkpt><trkpt lat="53.43502267779262" lon="14.835048825269906"><ele>28.0</ele><time>2026-04-06T14:56:39.003Z</time></trkpt><trkpt lat="53.434837738231465" lon="14.835108004397389"><ele>28.333333333333336</ele><time>2026-04-06T14:56:40.001Z</time></trkpt><trkpt lat="53.43464789416215" lon="14.835169157967607"><ele>28.666666666666664</ele><time>2026-04-06T14:56:41.001Z</time></trkpt><trkpt lat="53.43445647609409" lon="14.835231401839176"><ele>29.0</ele><time>2026-04-06T14:56:42.001Z</time></trkpt><trkpt lat="53.43430236731836" lon="14.83528189059834"><ele>28.0</ele><time>2026-04-06T14:56:43.001Z</time></trkpt><trkpt lat="53.43414776072349" lon="14.835333431508783"><ele>27.0</ele><time>2026-04-06T14:56:44.001Z</time></trkpt><trkpt lat="53.433988845621734" lon="14.83538734782824"><ele>26.0</ele><time>2026-04-06T14:56:45.001Z</time></trkpt><trkpt lat="53.43381731667016" lon="14.835447636759094"><ele>25.333333333333332</ele><time>2026-04-06T14:56:46.001Z</time></trkpt><trkpt lat="53.43364470514879" lon="14.835508956959275"><ele>24.666666666666664</ele><time>2026-04-06T14:56:47.001Z</time></trkpt><trkpt lat="53.43349405312317" lon="14.835562580367473"><ele>24.0</ele><time>2026-04-06T14:56:48.001Z</time></trkpt><trkpt lat="53.43334340762722" lon="14.835644140165325"><ele>24.0</ele><time>2026-04-06T14:56:49.001Z</time></trkpt><trkpt lat="53.4331884027372" lon="14.835695689837756"><ele>24.0</ele><time>2026-04-06T14:56:50.001Z</time></trkpt><trkpt lat="53.433031415946814" lon="14.835754231686591"><ele>24.0</ele><time>2026-04-06T14:56:51.001Z</time></trkpt><trkpt lat="53.43287829578862" lon="14.83580407214771"><ele>24.333333333333336</ele><time>2026-04-06T14:56:52.001Z</time></trkpt><trkpt lat="53.43272122138377" lon="14.835837857751285"><ele>24.666666666666668</ele><time>2026-04-06T14:56:53Z</time></trkpt><trkpt lat="53.43255220944094" lon="14.835897063088188"><ele>25.0</ele><time>2026-04-06T14:56:54Z</time></trkpt><trkpt lat="53.43241681514728" lon="14.835958285501187"><ele>25.25</ele><time>2026-04-06T14:56:55Z</time></trkpt><trkpt lat="53.43229642936364" lon="14.836021074754123"><ele>25.5</ele><time>2026-04-06T14:56:56Z</time></trkpt><trkpt lat="53.43216555007442" lon="14.836049557440475"><ele>25.75</ele><time>2026-04-06T14:56:57Z</time></trkpt><trkpt lat="53.43203449011659" lon="14.83609887167044"><ele>26.0</ele><time>2026-04-06T14:56:58Z</time></trkpt><trkpt lat="53.43189109324423" lon="14.836175195859141"><ele>26.0</ele><time>2026-04-06T14:56:59Z</time></trkpt><trkpt lat="53.43175775024491" lon="14.836220739737136"><ele>26.0</ele><time>2026-04-06T14:57:00Z</time></trkpt><trkpt lat="53.431625523724236" lon="14.836274231170576"><ele>26.0</ele><time>2026-04-06T14:57:01Z</time></trkpt><trkpt lat="53.43149935931764" lon="14.836318090416203"><ele>26.0</ele><time>2026-04-06T14:57:02Z</time></trkpt><trkpt lat="53.43137444067593" lon="14.836336308477064"><ele>25.5</ele><time>2026-04-06T14:57:03Z</time></trkpt><trkpt lat="53.43125079948965" lon="14.836396106189012"><ele>25.0</ele><time>2026-04-06T14:57:04Z</time></trkpt><trkpt lat="53.4311347904169" lon="14.836436347800051"><ele>24.5</ele><time>2026-04-06T14:57:05Z</time></trkpt><trkpt lat="53.43101989993883" lon="14.83647481344973"><ele>24.0</ele><time>2026-04-06T14:57:06Z</time></trkpt><trkpt lat="53.43091210963393" lon="14.836508590307497"><ele>24.0</ele><time>2026-04-06T14:57:07Z</time></trkpt><trkpt lat="53.43081994199004" lon="14.836538426293503"><ele>24.0</ele><time>2026-04-06T14:57:08Z</time></trkpt><trkpt lat="53.430733082199296" lon="14.836567215137867"><ele>24.0</ele><time>2026-04-06T14:57:09Z</time></trkpt><trkpt lat="53.43065327492458" lon="14.83659452334877"><ele>24.0</ele><time>2026-04-06T14:57:10Z</time></trkpt><trkpt lat="53.430589603230594" lon="14.83661473176168"><ele>24.0</ele><time>2026-04-06T14:57:11Z</time></trkpt><trkpt lat="53.43047607209004" lon="14.836648869170148"><ele>24.0</ele><time>2026-04-06T14:57:13Z</time></trkpt><trkpt lat="53.43040639500807" lon="14.83665188999902"><ele>24.0</ele><time>2026-04-06T14:57:16Z</time></trkpt><trkpt lat="53.430383310878874" lon="14.836537881292994"><ele>24.0</ele><time>2026-04-06T14:57:17Z</time></trkpt><trkpt lat="53.43036704420226" lon="14.836426847795796"><ele>24.0</ele><time>2026-04-06T14:57:18Z</time></trkpt><trkpt lat="53.4303400624229" lon="14.836323462560772"><ele>24.0</ele><time>2026-04-06T14:57:19Z</time></trkpt><trkpt lat="53.430302205123155" lon="14.836210267382722"><ele>24.0</ele><time>2026-04-06T14:57:20Z</time></trkpt><trkpt lat="53.43026307001109" lon="14.836076193318968"><ele>24.0</ele><time>2026-04-06T14:57:21Z</time></trkpt><trkpt lat="53.430218515151374" lon="14.835893288345732"><ele>24.0</ele><time>2026-04-06T14:57:22Z</time></trkpt><trkpt lat="53.43018403222774" lon="14.835743253317826"><ele>24.0</ele><time>2026-04-06T14:57:23Z</time></trkpt><trkpt lat="53.43014461317131" lon="14.835585144349318"><ele>24.0</ele><time>2026-04-06T14:57:24Z</time></trkpt><trkpt lat="53.43008372877143" lon="14.835413277755382"><ele>24.0</ele><time>2026-04-06T14:57:25Z</time></trkpt><trkpt lat="53.430024331180036" lon="14.83524283243962"><ele>24.0</ele><time>2026-04-06T14:57:26Z</time></trkpt><trkpt lat="53.42996067408478" lon="14.835048527148404"><ele>23.666666666666668</ele><time>2026-04-06T14:57:27Z</time></trkpt><trkpt lat="53.42990995399677" lon="14.834796228335211"><ele>23.333333333333336</ele><time>2026-04-06T14:57:28Z</time></trkpt><trkpt lat="53.42985342453603" lon="14.83452841949843"><ele>23.0</ele><time>2026-04-06T14:57:29Z</time></trkpt><trkpt lat="53.42978904003637" lon="14.834246426912518"><ele>23.0</ele><time>2026-04-06T14:57:30Z</time></trkpt><trkpt lat="53.4297289954111" lon="14.833948807634739"><ele>23.0</ele><time>2026-04-06T14:57:31Z</time></trkpt><trkpt lat="53.429666152401566" lon="14.833651523835995"><ele>23.0</ele><time>2026-04-06T14:57:32Z</time></trkpt><trkpt lat="53.42960094965925" lon="14.833341878473597"><ele>22.0</ele><time>2026-04-06T14:57:33Z</time></trkpt><trkpt lat="53.42953538851106" lon="14.833026244901623"><ele>21.0</ele><time>2026-04-06T14:57:34Z</time></trkpt><trkpt lat="53.429464688922884" lon="14.832697728106288"><ele>20.0</ele><time>2026-04-06T14:57:35Z</time></trkpt><trkpt lat="53.42939210041137" lon="14.8323579671316"><ele>20.0</ele><time>2026-04-06T14:57:36Z</time></trkpt><trkpt lat="53.42932355852485" lon="14.832017428023503"><ele>20.0</ele><time>2026-04-06T14:57:37Z</time></trkpt><trkpt lat="53.4292531702944" lon="14.831679504589616"><ele>20.0</ele><time>2026-04-06T14:57:38.001Z</time></trkpt><trkpt lat="53.42918516713391" lon="14.831325840734747"><ele>20.0</ele><time>2026-04-06T14:57:39.001Z</time></trkpt><trkpt lat="53.429124823693435" lon="14.830967189953437"><ele>20.0</ele><time>2026-04-06T14:57:40.001Z</time></trkpt><trkpt lat="53.429066194742724" lon="14.830606471562772"><ele>20.0</ele><time>2026-04-06T14:57:41.001Z</time></trkpt><trkpt lat="53.429010522574075" lon="14.830244606578825"><ele>20.666666666666668</ele><time>2026-04-06T14:57:42.001Z</time></trkpt><trkpt lat="53.428949259972505" lon="14.829887828889373"><ele>21.333333333333332</ele><time>2026-04-06T14:57:43.001Z</time></trkpt><trkpt lat="53.428892782212465" lon="14.829533647995643"><ele>22.0</ele><time>2026-04-06T14:57:44.001Z</time></trkpt><trkpt lat="53.42884761107441" lon="14.829178405568017"><ele>22.0</ele><time>2026-04-06T14:57:45.001Z</time></trkpt><trkpt lat="53.42880484983909" lon="14.828830582345553"><ele>22.0</ele><time>2026-04-06T14:57:46.001Z</time></trkpt><trkpt lat="53.42876365215641" lon="14.828486077145593"><ele>22.0</ele><time>2026-04-06T14:57:47.001Z</time></trkpt><trkpt lat="53.42871893641438" lon="14.828139695569206"><ele>21.666666666666664</ele><time>2026-04-06T14:57:48.001Z</time></trkpt><trkpt lat="53.42867298419532" lon="14.827789564611264"><ele>21.333333333333332</ele><time>2026-04-06T14:57:49.001Z</time></trkpt><trkpt lat="53.4286288310453" lon="14.82743664663429"><ele>21.0</ele><time>2026-04-06T14:57:50.001Z</time></trkpt><trkpt lat="53.42859418295277" lon="14.827078152448669"><ele>20.666666666666668</ele><time>2026-04-06T14:57:51.001Z</time></trkpt><trkpt lat="53.42856212401795" lon="14.826712401217309"><ele>20.333333333333336</ele><time>2026-04-06T14:57:52.001Z</time></trkpt><trkpt lat="53.42853233459101" lon="14.826347505275027"><ele>20.0</ele><time>2026-04-06T14:57:53.001Z</time></trkpt><trkpt lat="53.42850722529034" lon="14.82597866223445"><ele>20.0</ele><time>2026-04-06T14:57:54.001Z</time></trkpt><trkpt lat="53.428483211525204" lon="14.82564675850057"><ele>20.0</ele><time>2026-04-06T14:57:55.001Z</time></trkpt><trkpt lat="53.4284618916891" lon="14.825338921425594"><ele>20.0</ele><time>2026-04-06T14:57:56.001Z</time></trkpt><trkpt lat="53.42844601400352" lon="14.825045605746391"><ele>20.333333333333336</ele><time>2026-04-06T14:57:57.001Z</time></trkpt><trkpt lat="53.42843305014548" lon="14.82475892205859"><ele>20.666666666666668</ele><time>2026-04-06T14:57:58.001Z</time></trkpt><trkpt lat="53.42841699051999" lon="14.82447470203269"><ele>21.0</ele><time>2026-04-06T14:57:59.001Z</time></trkpt><trkpt lat="53.42839888104679" lon="14.824185597279103"><ele>21.0</ele><time>2026-04-06T14:58:00.001Z</time></trkpt><trkpt lat="53.428381604046734" lon="14.82387481417555"><ele>21.0</ele><time>2026-04-06T14:58:01.001Z</time></trkpt><trkpt lat="53.42836640535202" lon="14.823558093527824"><ele>21.0</ele><time>2026-04-06T14:58:02.001Z</time></trkpt><trkpt lat="53.428351220362394" lon="14.823240541105994"><ele>21.0</ele><time>2026-04-06T14:58:03.001Z</time></trkpt><trkpt lat="53.428333420409146" lon="14.822908870281317"><ele>21.0</ele><time>2026-04-06T14:58:04.001Z</time></trkpt><trkpt lat="53.4283135922873" lon="14.82256349064089"><ele>21.0</ele><time>2026-04-06T14:58:05.001Z</time></trkpt><trkpt lat="53.42829618606041" lon="14.822210192509365"><ele>21.0</ele><time>2026-04-06T14:58:06.001Z</time></trkpt><trkpt lat="53.42827816234846" lon="14.821862332560086"><ele>21.0</ele><time>2026-04-06T14:58:07.001Z</time></trkpt><trkpt lat="53.42825876829001" lon="14.821510233484542"><ele>21.0</ele><time>2026-04-06T14:58:08.001Z</time></trkpt><trkpt lat="53.42824233368184" lon="14.82115370008142"><ele>21.666666666666668</ele><time>2026-04-06T14:58:09.001Z</time></trkpt><trkpt lat="53.42822655758922" lon="14.820789366097873"><ele>22.333333333333336</ele><time>2026-04-06T14:58:10.001Z</time></trkpt><trkpt lat="53.428210425883" lon="14.820423100705371"><ele>23.0</ele><time>2026-04-06T14:58:11.001Z</time></trkpt><trkpt lat="53.42819506055849" lon="14.820048386637271"><ele>23.0</ele><time>2026-04-06T14:58:12.001Z</time></trkpt><trkpt lat="53.42817945957787" lon="14.819676024675186"><ele>23.0</ele><time>2026-04-06T14:58:13.001Z</time></trkpt><trkpt lat="53.42816112193" lon="14.81929966157053"><ele>23.0</ele><time>2026-04-06T14:58:14.001Z</time></trkpt><trkpt lat="53.428140235111975" lon="14.8189200710649"><ele>23.0</ele><time>2026-04-06T14:58:15.001Z</time></trkpt><trkpt lat="53.42812220053304" lon="14.818537525345045"><ele>23.0</ele><time>2026-04-06T14:58:16.001Z</time></trkpt><trkpt lat="53.428107316342896" lon="14.818158973183913"><ele>23.333333333333336</ele><time>2026-04-06T14:58:17.001Z</time></trkpt><trkpt lat="53.4280897744832" lon="14.817783781763595"><ele>23.666666666666668</ele><time>2026-04-06T14:58:18.001Z</time></trkpt><trkpt lat="53.42806764675947" lon="14.817411235618637"><ele>24.0</ele><time>2026-04-06T14:58:19.001Z</time></trkpt><trkpt lat="53.428042583051386" lon="14.817039581642472"><ele>25.0</ele><time>2026-04-06T14:58:20.001Z</time></trkpt><trkpt lat="53.42801776912434" lon="14.816663605241164"><ele>26.0</ele><time>2026-04-06T14:58:21.001Z</time></trkpt><trkpt lat="53.42799530482207" lon="14.816284811974866"><ele>26.0</ele><time>2026-04-06T14:58:22.001Z</time></trkpt><trkpt lat="53.42797573541654" lon="14.815905003074997"><ele>26.0</ele><time>2026-04-06T14:58:23.001Z</time></trkpt><trkpt lat="53.42795900466059" lon="14.815529603623473"><ele>26.0</ele><time>2026-04-06T14:58:24.001Z</time></trkpt><trkpt lat="53.4279399387899" lon="14.81515426747948"><ele>26.0</ele><time>2026-04-06T14:58:25.001Z</time></trkpt><trkpt lat="53.42791769026936" lon="14.814768508940261"><ele>26.0</ele><time>2026-04-06T14:58:26.001Z</time></trkpt><trkpt lat="53.427894222914645" lon="14.814356437232211"><ele>26.0</ele><time>2026-04-06T14:58:27.001Z</time></trkpt><trkpt lat="53.42787344117796" lon="14.81398490500064"><ele>25.666666666666664</ele><time>2026-04-06T14:58:28.001Z</time></trkpt><trkpt lat="53.42785376386462" lon="14.813642008580745"><ele>25.333333333333336</ele><time>2026-04-06T14:58:29.001Z</time></trkpt><trkpt lat="53.42783588605372" lon="14.813295883994938"><ele>25.0</ele><time>2026-04-06T14:58:30.001Z</time></trkpt><trkpt lat="53.42781717429003" lon="14.812934077709677"><ele>25.5</ele><time>2026-04-06T14:58:31.001Z</time></trkpt><trkpt lat="53.427795298128515" lon="14.81256157253148"><ele>26.0</ele><time>2026-04-06T14:58:32.001Z</time></trkpt><trkpt lat="53.42777377901153" lon="14.812183035973566"><ele>26.0</ele><time>2026-04-06T14:58:33.002Z</time></trkpt><trkpt lat="53.42775253785264" lon="14.811804399610033"><ele>26.0</ele><time>2026-04-06T14:58:34.002Z</time></trkpt><trkpt lat="53.42773487677452" lon="14.81142255882542"><ele>26.0</ele><time>2026-04-06T14:58:35.002Z</time></trkpt><trkpt lat="53.427716597450384" lon="14.81104092481731"><ele>26.0</ele><time>2026-04-06T14:58:36.002Z</time></trkpt><trkpt lat="53.42769805721133" lon="14.810662772863088"><ele>26.5</ele><time>2026-04-06T14:58:37.002Z</time></trkpt><trkpt lat="53.427675791442454" lon="14.810282152284216"><ele>27.0</ele><time>2026-04-06T14:58:38.002Z</time></trkpt><trkpt lat="53.42765624953719" lon="14.809893319019533"><ele>27.0</ele><time>2026-04-06T14:58:39.002Z</time></trkpt><trkpt lat="53.42763633911371" lon="14.809495254765466"><ele>27.0</ele><time>2026-04-06T14:58:40.002Z</time></trkpt><trkpt lat="53.42761452753457" lon="14.809094854922154"><ele>27.0</ele><time>2026-04-06T14:58:41.002Z</time></trkpt><trkpt lat="53.42759418552618" lon="14.808685777283248"><ele>27.0</ele><time>2026-04-06T14:58:42.002Z</time></trkpt><trkpt lat="53.42757816209359" lon="14.808272967690279"><ele>26.5</ele><time>2026-04-06T14:58:43.002Z</time></trkpt><trkpt lat="53.427560529473574" lon="14.807859407091053"><ele>26.0</ele><time>2026-04-06T14:58:44.002Z</time></trkpt><trkpt lat="53.42753602840806" lon="14.807449213164318"><ele>26.0</ele><time>2026-04-06T14:58:45.002Z</time></trkpt><trkpt lat="53.42750605853924" lon="14.807043811381623"><ele>26.0</ele><time>2026-04-06T14:58:46Z</time></trkpt><trkpt lat="53.42748130422339" lon="14.806636509237574"><ele>26.0</ele><time>2026-04-06T14:58:47Z</time></trkpt><trkpt lat="53.42745833372967" lon="14.80623677456442"><ele>26.0</ele><time>2026-04-06T14:58:48Z</time></trkpt><trkpt lat="53.42743726759122" lon="14.805844962328171"><ele>24.5</ele><time>2026-04-06T14:58:49Z</time></trkpt><trkpt lat="53.42741894608701" lon="14.805454867849939"><ele>23.0</ele><time>2026-04-06T14:58:50Z</time></trkpt><trkpt lat="53.427399214123305" lon="14.805063074778268"><ele>23.0</ele><time>2026-04-06T14:58:51Z</time></trkpt><trkpt lat="53.42737772996548" lon="14.804675426335418"><ele>23.0</ele><time>2026-04-06T14:58:52Z</time></trkpt><trkpt lat="53.427356763609744" lon="14.804286683000791"><ele>24.0</ele><time>2026-04-06T14:58:53Z</time></trkpt><trkpt lat="53.42733843035419" lon="14.803897478564709"><ele>25.0</ele><time>2026-04-06T14:58:54Z</time></trkpt><trkpt lat="53.42731981808078" lon="14.803511299610818"><ele>24.5</ele><time>2026-04-06T14:58:55Z</time></trkpt><trkpt lat="53.42729567341301" lon="14.803124310425467"><ele>24.0</ele><time>2026-04-06T14:58:56Z</time></trkpt><trkpt lat="53.427274835344384" lon="14.802743176883787"><ele>24.333333333333336</ele><time>2026-04-06T14:58:57Z</time></trkpt><trkpt lat="53.42725234655654" lon="14.802377999997399"><ele>24.666666666666668</ele><time>2026-04-06T14:58:58Z</time></trkpt><trkpt lat="53.427231932362375" lon="14.802023677011105"><ele>25.0</ele><time>2026-04-06T14:58:59Z</time></trkpt><trkpt lat="53.42721337845628" lon="14.801668109534718"><ele>25.0</ele><time>2026-04-06T14:59:00Z</time></trkpt><trkpt lat="53.42719480702217" lon="14.801335576612972"><ele>25.0</ele><time>2026-04-06T14:59:01Z</time></trkpt><trkpt lat="53.42717650622389" lon="14.801010496628267"><ele>25.0</ele><time>2026-04-06T14:59:02Z</time></trkpt><trkpt lat="53.42715595027652" lon="14.800687187916651"><ele>24.0</ele><time>2026-04-06T14:59:03Z</time></trkpt><trkpt lat="53.42712809196675" lon="14.80035202352489"><ele>23.0</ele><time>2026-04-06T14:59:04Z</time></trkpt><trkpt lat="53.42711207368774" lon="14.800005894723032"><ele>22.0</ele><time>2026-04-06T14:59:05Z</time></trkpt><trkpt lat="53.42709664035533" lon="14.799645597413113"><ele>21.666666666666664</ele><time>2026-04-06T14:59:06Z</time></trkpt><trkpt lat="53.42708274194208" lon="14.79928482418414"><ele>21.333333333333332</ele><time>2026-04-06T14:59:07Z</time></trkpt><trkpt lat="53.427064224812916" lon="14.798917732652479"><ele>21.0</ele><time>2026-04-06T14:59:08Z</time></trkpt><trkpt lat="53.42704205227525" lon="14.798550766140638"><ele>21.666666666666668</ele><time>2026-04-06T14:59:09Z</time></trkpt><trkpt lat="53.427021565172566" lon="14.798180955436852"><ele>22.333333333333336</ele><time>2026-04-06T14:59:10Z</time></trkpt><trkpt lat="53.42700265950047" lon="14.797812516941047"><ele>23.0</ele><time>2026-04-06T14:59:11Z</time></trkpt><trkpt lat="53.4269833357061" lon="14.797448896385138"><ele>23.0</ele><time>2026-04-06T14:59:12Z</time></trkpt><trkpt lat="53.426962273023946" lon="14.797094455400448"><ele>23.0</ele><time>2026-04-06T14:59:13Z</time></trkpt><trkpt lat="53.42694255309633" lon="14.79674091252733"><ele>23.0</ele><time>2026-04-06T14:59:14Z</time></trkpt><trkpt lat="53.42692410032464" lon="14.796389531022072"><ele>23.333333333333336</ele><time>2026-04-06T14:59:15Z</time></trkpt><trkpt lat="53.42690548492481" lon="14.796038263099625"><ele>23.666666666666668</ele><time>2026-04-06T14:59:16Z</time></trkpt><trkpt lat="53.42688740632054" lon="14.795694596533652"><ele>24.0</ele><time>2026-04-06T14:59:17Z</time></trkpt><trkpt lat="53.42686966127536" lon="14.795373625320499"><ele>23.666666666666668</ele><time>2026-04-06T14:59:18Z</time></trkpt><trkpt lat="53.42685340152675" lon="14.795078233053795"><ele>23.333333333333336</ele><time>2026-04-06T14:59:19Z</time></trkpt><trkpt lat="53.426840873549914" lon="14.794800926414334"><ele>23.0</ele><time>2026-04-06T14:59:20Z</time></trkpt><trkpt lat="53.426827815253105" lon="14.79455231547716"><ele>23.0</ele><time>2026-04-06T14:59:21Z</time></trkpt><trkpt lat="53.42681578381474" lon="14.794347873921483"><ele>23.0</ele><time>2026-04-06T14:59:22Z</time></trkpt><trkpt lat="53.42680789222626" lon="14.794208539553393"><ele>23.0</ele><time>2026-04-06T14:59:23Z</time></trkpt><trkpt lat="53.426808782386395" lon="14.794088231232486"><ele>23.0</ele><time>2026-04-06T14:59:24Z</time></trkpt><trkpt lat="53.42679825933686" lon="14.793881771445614"><ele>23.0</ele><time>2026-04-06T14:59:26Z</time></trkpt><trkpt lat="53.42679062056302" lon="14.793771046153651"><ele>22.714285714285715</ele><time>2026-04-06T14:59:27Z</time></trkpt><trkpt lat="53.42678383184551" lon="14.793658400104476"><ele>22.428571428571427</ele><time>2026-04-06T14:59:28Z</time></trkpt><trkpt lat="53.42678187186531" lon="14.79354992034137"><ele>22.142857142857142</ele><time>2026-04-06T14:59:29Z</time></trkpt><trkpt lat="53.42676989781344" lon="14.793388046778206"><ele>21.857142857142858</ele><time>2026-04-06T14:59:31Z</time></trkpt><trkpt lat="53.4267569532524" lon="14.79326521892406"><ele>21.57142857142857</ele><time>2026-04-06T14:59:35Z</time></trkpt><trkpt lat="53.426698805356295" lon="14.793204778055692"><ele>21.285714285714285</ele><time>2026-04-06T14:59:40Z</time></trkpt><trkpt lat="53.42664248969731" lon="14.79325327653484"><ele>21.0</ele><time>2026-04-06T14:59:46Z</time></trkpt><trkpt lat="53.42657590865286" lon="14.793300139906014"><ele>20.571428571428573</ele><time>2026-04-06T14:59:49Z</time></trkpt><trkpt lat="53.42651798985736" lon="14.793221334065604"><ele>20.142857142857142</ele><time>2026-04-06T14:59:51Z</time></trkpt><trkpt lat="53.42646681193633" lon="14.793154348924627"><ele>19.714285714285715</ele><time>2026-04-06T14:59:53Z</time></trkpt><trkpt lat="53.426388861404824" lon="14.793147470293144"><ele>19.285714285714285</ele><time>2026-04-06T14:59:55Z</time></trkpt><trkpt lat="53.42631550886985" lon="14.79316196384993"><ele>18.857142857142858</ele><time>2026-04-06T14:59:56Z</time></trkpt><trkpt lat="53.42624289192728" lon="14.793194496188262"><ele>18.42857142857143</ele><time>2026-04-06T14:59:57Z</time></trkpt><trkpt lat="53.4261629644345" lon="14.793212423243176"><ele>18.0</ele><time>2026-04-06T14:59:58Z</time></trkpt><trkpt lat="53.42607547750636" lon="14.793227848035931"><ele>19.4</ele><time>2026-04-06T14:59:59Z</time></trkpt><trkpt lat="53.4259903843742" lon="14.793241622894481"><ele>20.8</ele><time>2026-04-06T15:00:00Z</time></trkpt><trkpt lat="53.42589847856618" lon="14.79325856379457"><ele>22.2</ele><time>2026-04-06T15:00:01.001Z</time></trkpt><trkpt lat="53.42578768996433" lon="14.79327516920617"><ele>23.6</ele><time>2026-04-06T15:00:03.001Z</time></trkpt><trkpt lat="53.42571907899076" lon="14.793278380442302"><ele>25.0</ele><time>2026-04-06T15:00:04.001Z</time></trkpt><trkpt lat="53.425616954928785" lon="14.793295367953174"><ele>25.0</ele><time>2026-04-06T15:00:05.001Z</time></trkpt><trkpt lat="53.425505731545655" lon="14.793314659631806"><ele>25.0</ele><time>2026-04-06T15:00:06.001Z</time></trkpt><trkpt lat="53.425393040735095" lon="14.79332546129665"><ele>25.0</ele><time>2026-04-06T15:00:07.001Z</time></trkpt><trkpt lat="53.4252863138055" lon="14.793344325006892"><ele>25.0</ele><time>2026-04-06T15:00:08.001Z</time></trkpt><trkpt lat="53.42519779348626" lon="14.793366764603139"><ele>25.0</ele><time>2026-04-06T15:00:09.001Z</time></trkpt><trkpt lat="53.42510101157288" lon="14.793403352062962"><ele>25.0</ele><time>2026-04-06T15:00:10.001Z</time></trkpt><trkpt lat="53.42499512432876" lon="14.793415944485455"><ele>25.0</ele><time>2026-04-06T15:00:11.001Z</time></trkpt><trkpt lat="53.42490003522865" lon="14.793422401440681"><ele>25.0</ele><time>2026-04-06T15:00:12.001Z</time></trkpt><trkpt lat="53.42480547450786" lon="14.793429113438425"><ele>25.0</ele><time>2026-04-06T15:00:13.001Z</time></trkpt><trkpt lat="53.42470319016099" lon="14.793439499957882"><ele>25.0</ele><time>2026-04-06T15:00:14.001Z</time></trkpt><trkpt lat="53.424615453849306" lon="14.79345570211171"><ele>24.833333333333336</ele><time>2026-04-06T15:00:15.001Z</time></trkpt><trkpt lat="53.42453514603221" lon="14.793479291054759"><ele>24.666666666666668</ele><time>2026-04-06T15:00:16.001Z</time></trkpt><trkpt lat="53.42440581149503" lon="14.793479195756861"><ele>24.5</ele><time>2026-04-06T15:00:18.001Z</time></trkpt><trkpt lat="53.42433486698856" lon="14.793498664689888"><ele>24.333333333333336</ele><time>2026-04-06T15:00:19.001Z</time></trkpt><trkpt lat="53.424259907877726" lon="14.793511066464426"><ele>24.166666666666668</ele><time>2026-04-06T15:00:20.001Z</time></trkpt><trkpt lat="53.42417964431678" lon="14.79352864877442"><ele>24.0</ele><time>2026-04-06T15:00:21.001Z</time></trkpt><trkpt lat="53.424093280723845" lon="14.793548442893504"><ele>24.4</ele><time>2026-04-06T15:00:22.001Z</time></trkpt><trkpt lat="53.42400126603445" lon="14.793556337602421"><ele>24.799999999999997</ele><time>2026-04-06T15:00:23.001Z</time></trkpt><trkpt lat="53.42390058379951" lon="14.793578418322591"><ele>25.200000000000003</ele><time>2026-04-06T15:00:24.001Z</time></trkpt><trkpt lat="53.42380170747048" lon="14.793600035777962"><ele>25.6</ele><time>2026-04-06T15:00:25.001Z</time></trkpt><trkpt lat="53.42369308298947" lon="14.793616504882875"><ele>26.0</ele><time>2026-04-06T15:00:26.001Z</time></trkpt><trkpt lat="53.423565529798836" lon="14.793627510555053"><ele>26.5</ele><time>2026-04-06T15:00:27.001Z</time></trkpt><trkpt lat="53.42344616649252" lon="14.793632865701133"><ele>27.0</ele><time>2026-04-06T15:00:28.001Z</time></trkpt><trkpt lat="53.42332401758477" lon="14.793629573343297"><ele>27.5</ele><time>2026-04-06T15:00:29.001Z</time></trkpt><trkpt lat="53.42319138954005" lon="14.793640340854596"><ele>28.0</ele><time>2026-04-06T15:00:30.001Z</time></trkpt><trkpt lat="53.42307355561605" lon="14.793649110582693"><ele>27.75</ele><time>2026-04-06T15:00:31.001Z</time></trkpt><trkpt lat="53.422942836822685" lon="14.793656766315815"><ele>27.5</ele><time>2026-04-06T15:00:32.001Z</time></trkpt><trkpt lat="53.42280669163823" lon="14.793668488735326"><ele>27.25</ele><time>2026-04-06T15:00:33.001Z</time></trkpt><trkpt lat="53.42268251129009" lon="14.793677971169672"><ele>27.0</ele><time>2026-04-06T15:00:34.001Z</time></trkpt><trkpt lat="53.422560673608025" lon="14.793701991577025"><ele>27.0</ele><time>2026-04-06T15:00:35.001Z</time></trkpt><trkpt lat="53.42243251247634" lon="14.793719290048967"><ele>27.0</ele><time>2026-04-06T15:00:36.001Z</time></trkpt><trkpt lat="53.42231360212997" lon="14.793736558326895"><ele>27.0</ele><time>2026-04-06T15:00:37.001Z</time></trkpt><trkpt lat="53.422194556902014" lon="14.793748496866392"><ele>27.0</ele><time>2026-04-06T15:00:38.001Z</time></trkpt><trkpt lat="53.42207015746429" lon="14.793755595330538"><ele>26.75</ele><time>2026-04-06T15:00:39.001Z</time></trkpt><trkpt lat="53.42195134945488" lon="14.793775480418025"><ele>26.5</ele><time>2026-04-06T15:00:40.001Z</time></trkpt><trkpt lat="53.421819627126474" lon="14.793795881656653"><ele>26.25</ele><time>2026-04-06T15:00:41.001Z</time></trkpt><trkpt lat="53.42169555439972" lon="14.793804612762942"><ele>26.0</ele><time>2026-04-06T15:00:42.001Z</time></trkpt><trkpt lat="53.42157606819103" lon="14.793821245887184"><ele>26.0</ele><time>2026-04-06T15:00:43.001Z</time></trkpt><trkpt lat="53.42144708173814" lon="14.793831063965689"><ele>26.0</ele><time>2026-04-06T15:00:44.001Z</time></trkpt><trkpt lat="53.421320562873255" lon="14.793859130642"><ele>26.0</ele><time>2026-04-06T15:00:45.001Z</time></trkpt><trkpt lat="53.42119871973152" lon="14.793867988175393"><ele>26.0</ele><time>2026-04-06T15:00:46.001Z</time></trkpt><trkpt lat="53.42108793613783" lon="14.793874431135551"><ele>26.0</ele><time>2026-04-06T15:00:47.001Z</time></trkpt><trkpt lat="53.420978752888544" lon="14.793890218768528"><ele>26.0</ele><time>2026-04-06T15:00:48.001Z</time></trkpt><trkpt lat="53.42087910512571" lon="14.79390502821704"><ele>26.0</ele><time>2026-04-06T15:00:49.001Z</time></trkpt><trkpt lat="53.420770701350335" lon="14.793929931900319"><ele>26.0</ele><time>2026-04-06T15:00:50.001Z</time></trkpt><trkpt lat="53.42066823532165" lon="14.793944737272847"><ele>26.0</ele><time>2026-04-06T15:00:51.001Z</time></trkpt><trkpt lat="53.420584604015595" lon="14.793940836974373"><ele>26.0</ele><time>2026-04-06T15:00:52Z</time></trkpt><trkpt lat="53.42048919881488" lon="14.79395476150547"><ele>26.0</ele><time>2026-04-06T15:00:54Z</time></trkpt><trkpt lat="53.420426992047105" lon="14.793980466607895"><ele>26.0</ele><time>2026-04-06T15:00:58Z</time></trkpt><trkpt lat="53.42048428486701" lon="14.793854286991909"><ele>26.0</ele><time>2026-04-06T15:01:03Z</time></trkpt><trkpt lat="53.42048230479487" lon="14.793700489817677"><ele>26.0</ele><time>2026-04-06T15:01:04Z</time></trkpt><trkpt lat="53.42045971903679" lon="14.79352660938168"><ele>26.0</ele><time>2026-04-06T15:01:05Z</time></trkpt><trkpt lat="53.420429122552896" lon="14.79334194147522"><ele>26.0</ele><time>2026-04-06T15:01:06Z</time></trkpt><trkpt lat="53.420403017217396" lon="14.793149145681792"><ele>26.0</ele><time>2026-04-06T15:01:07Z</time></trkpt><trkpt lat="53.42037521304679" lon="14.792968393380313"><ele>26.0</ele><time>2026-04-06T15:01:08Z</time></trkpt><trkpt lat="53.42034934683878" lon="14.792782083605378"><ele>26.25</ele><time>2026-04-06T15:01:09Z</time></trkpt><trkpt lat="53.420328445975386" lon="14.792604849313491"><ele>26.5</ele><time>2026-04-06T15:01:10Z</time></trkpt><trkpt lat="53.42031442413693" lon="14.792399754738966"><ele>26.75</ele><time>2026-04-06T15:01:11Z</time></trkpt><trkpt lat="53.42028362608604" lon="14.79216342175177"><ele>27.0</ele><time>2026-04-06T15:01:12Z</time></trkpt><trkpt lat="53.42024930922635" lon="14.791941997413986"><ele>26.75</ele><time>2026-04-06T15:01:13Z</time></trkpt><trkpt lat="53.420221957401246" lon="14.791707265515669"><ele>26.5</ele><time>2026-04-06T15:01:14Z</time></trkpt><trkpt lat="53.42018699619452" lon="14.79149056812311"><ele>26.25</ele><time>2026-04-06T15:01:15Z</time></trkpt><trkpt lat="53.420166743279616" lon="14.791301787889335"><ele>26.0</ele><time>2026-04-06T15:01:16Z</time></trkpt><trkpt lat="53.420152255010215" lon="14.791113568384807"><ele>25.75</ele><time>2026-04-06T15:01:17Z</time></trkpt><trkpt lat="53.420131950636204" lon="14.790906471332498"><ele>25.5</ele><time>2026-04-06T15:01:18Z</time></trkpt><trkpt lat="53.420105392537245" lon="14.790700833385502"><ele>25.25</ele><time>2026-04-06T15:01:19Z</time></trkpt><trkpt lat="53.4200850625434" lon="14.790480471026406"><ele>25.0</ele><time>2026-04-06T15:01:20Z</time></trkpt><trkpt lat="53.420067045109974" lon="14.79027331914671"><ele>25.0</ele><time>2026-04-06T15:01:21Z</time></trkpt><trkpt lat="53.420037340254495" lon="14.790069279008287"><ele>25.0</ele><time>2026-04-06T15:01:22Z</time></trkpt><trkpt lat="53.42000911686535" lon="14.789861738541623"><ele>25.0</ele><time>2026-04-06T15:01:23Z</time></trkpt><trkpt lat="53.41998449789804" lon="14.789667343797493"><ele>25.0</ele><time>2026-04-06T15:01:24Z</time></trkpt><trkpt lat="53.41997198712037" lon="14.789473738378742"><ele>25.5</ele><time>2026-04-06T15:01:25Z</time></trkpt><trkpt lat="53.41995675913527" lon="14.789289337835235"><ele>26.0</ele><time>2026-04-06T15:01:26Z</time></trkpt><trkpt lat="53.419925868309505" lon="14.789075250975849"><ele>26.5</ele><time>2026-04-06T15:01:27Z</time></trkpt><trkpt lat="53.41989859054803" lon="14.788830630806064"><ele>27.0</ele><time>2026-04-06T15:01:28Z</time></trkpt><trkpt lat="53.419876270179174" lon="14.788605061698972"><ele>27.5</ele><time>2026-04-06T15:01:29Z</time></trkpt><trkpt lat="53.41984534205091" lon="14.78837178011178"><ele>28.0</ele><time>2026-04-06T15:01:30Z</time></trkpt><trkpt lat="53.419826917601796" lon="14.788179743577324"><ele>28.5</ele><time>2026-04-06T15:01:31Z</time></trkpt><trkpt lat="53.41981520479452" lon="14.78800538486213"><ele>29.0</ele><time>2026-04-06T15:01:32Z</time></trkpt><trkpt lat="53.41979260458097" lon="14.78781195595896"><ele>29.25</ele><time>2026-04-06T15:01:33Z</time></trkpt><trkpt lat="53.419770080759335" lon="14.787610781434477"><ele>29.5</ele><time>2026-04-06T15:01:34Z</time></trkpt><trkpt lat="53.4197493263729" lon="14.787390410053089"><ele>29.75</ele><time>2026-04-06T15:01:35Z</time></trkpt><trkpt lat="53.41972082639993" lon="14.787194952508996"><ele>30.0</ele><time>2026-04-06T15:01:36Z</time></trkpt><trkpt lat="53.419700376285306" lon="14.787010351252592"><ele>30.25</ele><time>2026-04-06T15:01:37Z</time></trkpt><trkpt lat="53.41968137468326" lon="14.78681258228472"><ele>30.5</ele><time>2026-04-06T15:01:38Z</time></trkpt><trkpt lat="53.41965744403212" lon="14.786599225584844"><ele>30.75</ele><time>2026-04-06T15:01:39Z</time></trkpt><trkpt lat="53.419632575787176" lon="14.78639166737263"><ele>31.0</ele><time>2026-04-06T15:01:40Z</time></trkpt><trkpt lat="53.41961176482558" lon="14.786177325551439"><ele>30.5</ele><time>2026-04-06T15:01:41Z</time></trkpt><trkpt lat="53.41957771656203" lon="14.785957174940322"><ele>30.0</ele><time>2026-04-06T15:01:42Z</time></trkpt><trkpt lat="53.419557551816105" lon="14.785757224977514"><ele>29.5</ele><time>2026-04-06T15:01:43Z</time></trkpt><trkpt lat="53.419534362653295" lon="14.78557019812831"><ele>29.0</ele><time>2026-04-06T15:01:44Z</time></trkpt><trkpt lat="53.41951335805664" lon="14.785389764498188"><ele>29.0</ele><time>2026-04-06T15:01:45Z</time></trkpt><trkpt lat="53.41948649620515" lon="14.785182950338674"><ele>29.0</ele><time>2026-04-06T15:01:46Z</time></trkpt><trkpt lat="53.419462145885376" lon="14.784978381583914"><ele>29.0</ele><time>2026-04-06T15:01:47Z</time></trkpt><trkpt lat="53.41943884532696" lon="14.78478840839145"><ele>29.0</ele><time>2026-04-06T15:01:48Z</time></trkpt><trkpt lat="53.41942265001227" lon="14.784618086977703"><ele>28.999999999999996</ele><time>2026-04-06T15:01:49Z</time></trkpt><trkpt lat="53.41941019268465" lon="14.784482848357285"><ele>29.0</ele><time>2026-04-06T15:01:50Z</time></trkpt><trkpt lat="53.41939203171128" lon="14.784363036445207"><ele>29.0</ele><time>2026-04-06T15:01:51Z</time></trkpt><trkpt lat="53.41937362290854" lon="14.78423121551132"><ele>29.0</ele><time>2026-04-06T15:01:52Z</time></trkpt><trkpt lat="53.41936212960859" lon="14.78411164482249"><ele>28.999999999999996</ele><time>2026-04-06T15:01:53Z</time></trkpt><trkpt lat="53.41933561340528" lon="14.783950603053347"><ele>29.0</ele><time>2026-04-06T15:01:55.001Z</time></trkpt><trkpt lat="53.4193219837357" lon="14.783843312159336"><ele>28.999999999999996</ele><time>2026-04-06T15:01:58.001Z</time></trkpt><trkpt lat="53.41929982697536" lon="14.783722151073171"><ele>29.0</ele><time>2026-04-06T15:02:01.001Z</time></trkpt><trkpt lat="53.41929514132153" lon="14.783607454515904"><ele>29.0</ele><time>2026-04-06T15:02:03.001Z</time></trkpt><trkpt lat="53.41929346251996" lon="14.783488597101863"><ele>29.0</ele><time>2026-04-06T15:02:06.001Z</time></trkpt><trkpt lat="53.419262395491124" lon="14.78321084646792"><ele>28.999999999999996</ele><time>2026-04-06T15:02:07.001Z</time></trkpt><trkpt lat="53.419249862621534" lon="14.783101915841971"><ele>29.0</ele><time>2026-04-06T15:02:08.001Z</time></trkpt><trkpt lat="53.419232588249265" lon="14.782936176901867"><ele>29.0</ele><time>2026-04-06T15:02:10.001Z</time></trkpt><trkpt lat="53.419216396005474" lon="14.782785123065642"><ele>29.0</ele><time>2026-04-06T15:02:13.001Z</time></trkpt><trkpt lat="53.41919400513177" lon="14.782586910687007"><ele>29.0</ele><time>2026-04-06T15:02:15.001Z</time></trkpt><trkpt lat="53.41918355237666" lon="14.782475219271648"><ele>29.0</ele><time>2026-04-06T15:02:16.001Z</time></trkpt><trkpt lat="53.41916712945624" lon="14.782324343915592"><ele>29.0</ele><time>2026-04-06T15:02:17.001Z</time></trkpt><trkpt lat="53.419148345694694" lon="14.782163286210421"><ele>29.0</ele><time>2026-04-06T15:02:18.001Z</time></trkpt><trkpt lat="53.41913659129178" lon="14.782001360341217"><ele>29.0</ele><time>2026-04-06T15:02:19.001Z</time></trkpt><trkpt lat="53.41911503994922" lon="14.78183394157031"><ele>29.0</ele><time>2026-04-06T15:02:20.001Z</time></trkpt><trkpt lat="53.41909210196628" lon="14.781628805654325"><ele>29.0</ele><time>2026-04-06T15:02:21.001Z</time></trkpt><trkpt lat="53.41906940552776" lon="14.781452956065142"><ele>29.0</ele><time>2026-04-06T15:02:22.001Z</time></trkpt><trkpt lat="53.41905023017411" lon="14.781282938262313"><ele>29.0</ele><time>2026-04-06T15:02:23.001Z</time></trkpt><trkpt lat="53.419030503194" lon="14.781122697511691"><ele>29.0</ele><time>2026-04-06T15:02:24.001Z</time></trkpt><trkpt lat="53.41900992543121" lon="14.780957864386304"><ele>29.0</ele><time>2026-04-06T15:02:25.001Z</time></trkpt><trkpt lat="53.41896486628493" lon="14.780775078521112"><ele>29.0</ele><time>2026-04-06T15:02:26.001Z</time></trkpt><trkpt lat="53.418946217802144" lon="14.78061804342908"><ele>29.0</ele><time>2026-04-06T15:02:27.001Z</time></trkpt><trkpt lat="53.41892340983178" lon="14.780465415313218"><ele>29.2</ele><time>2026-04-06T15:02:28.001Z</time></trkpt><trkpt lat="53.418900834786044" lon="14.780335864024877"><ele>29.4</ele><time>2026-04-06T15:02:29.001Z</time></trkpt><trkpt lat="53.41887949766175" lon="14.780203921664087"><ele>29.6</ele><time>2026-04-06T15:02:30.001Z</time></trkpt><trkpt lat="53.418869286798504" lon="14.780010491841715"><ele>29.8</ele><time>2026-04-06T15:02:31.001Z</time></trkpt><trkpt lat="53.41884957526408" lon="14.77983649460004"><ele>30.0</ele><time>2026-04-06T15:02:32.001Z</time></trkpt><trkpt lat="53.41882599985393" lon="14.779669406450937"><ele>29.8</ele><time>2026-04-06T15:02:33.001Z</time></trkpt><trkpt lat="53.41881095192049" lon="14.779508050594623"><ele>29.6</ele><time>2026-04-06T15:02:34.001Z</time></trkpt><trkpt lat="53.41879989129634" lon="14.779348161499854"><ele>29.4</ele><time>2026-04-06T15:02:35.001Z</time></trkpt><trkpt lat="53.418787384903744" lon="14.779201569853967"><ele>29.2</ele><time>2026-04-06T15:02:36.001Z</time></trkpt><trkpt lat="53.418767746382684" lon="14.77906607246875"><ele>29.0</ele><time>2026-04-06T15:02:37.001Z</time></trkpt><trkpt lat="53.418745516731754" lon="14.778923209727372"><ele>29.0</ele><time>2026-04-06T15:02:38.001Z</time></trkpt><trkpt lat="53.41873230870435" lon="14.778781368300903"><ele>29.0</ele><time>2026-04-06T15:02:39.001Z</time></trkpt><trkpt lat="53.418716247921324" lon="14.77861998852859"><ele>29.0</ele><time>2026-04-06T15:02:40.001Z</time></trkpt><trkpt lat="53.41870150202013" lon="14.77845611343285"><ele>29.0</ele><time>2026-04-06T15:02:41.001Z</time></trkpt><trkpt lat="53.418677099915584" lon="14.778264671576894"><ele>29.0</ele><time>2026-04-06T15:02:42.001Z</time></trkpt><trkpt lat="53.41865318796836" lon="14.778059880244808"><ele>29.0</ele><time>2026-04-06T15:02:43.001Z</time></trkpt><trkpt lat="53.41862434130401" lon="14.7778544137025"><ele>29.0</ele><time>2026-04-06T15:02:44.001Z</time></trkpt><trkpt lat="53.41860187754672" lon="14.777656586104397"><ele>29.0</ele><time>2026-04-06T15:02:45.001Z</time></trkpt><trkpt lat="53.418576745073125" lon="14.77749102205139"><ele>29.0</ele><time>2026-04-06T15:02:46.001Z</time></trkpt><trkpt lat="53.418554161113356" lon="14.777317162323191"><ele>28.799999999999997</ele><time>2026-04-06T15:02:47.001Z</time></trkpt><trkpt lat="53.418543223430795" lon="14.777136738767462"><ele>28.599999999999998</ele><time>2026-04-06T15:02:48.001Z</time></trkpt><trkpt lat="53.41852788421436" lon="14.776959638216809"><ele>28.4</ele><time>2026-04-06T15:02:49.001Z</time></trkpt><trkpt lat="53.41850686359751" lon="14.776831761462043"><ele>28.2</ele><time>2026-04-06T15:02:50.001Z</time></trkpt><trkpt lat="53.4184886031704" lon="14.776675607254083"><ele>28.0</ele><time>2026-04-06T15:02:51.001Z</time></trkpt><trkpt lat="53.41847368241175" lon="14.776510356677704"><ele>28.0</ele><time>2026-04-06T15:02:52.001Z</time></trkpt><trkpt lat="53.41845091370438" lon="14.776329310492933"><ele>27.999999999999996</ele><time>2026-04-06T15:02:53.001Z</time></trkpt><trkpt lat="53.41843720265691" lon="14.776148580290055"><ele>27.999999999999996</ele><time>2026-04-06T15:02:54.001Z</time></trkpt><trkpt lat="53.418418690664815" lon="14.775964583230403"><ele>28.0</ele><time>2026-04-06T15:02:55.001Z</time></trkpt><trkpt lat="53.4183962627391" lon="14.775794554584596"><ele>28.0</ele><time>2026-04-06T15:02:56.001Z</time></trkpt><trkpt lat="53.418375687428934" lon="14.775617499186346"><ele>28.4</ele><time>2026-04-06T15:02:57.001Z</time></trkpt><trkpt lat="53.418346391542485" lon="14.775436540710349"><ele>28.799999999999997</ele><time>2026-04-06T15:02:58Z</time></trkpt><trkpt lat="53.41831762413959" lon="14.775262073756439"><ele>29.2</ele><time>2026-04-06T15:02:59Z</time></trkpt><trkpt lat="53.41830269015561" lon="14.77508417287028"><ele>29.6</ele><time>2026-04-06T15:03:00Z</time></trkpt><trkpt lat="53.41826804545723" lon="14.774898234113055"><ele>30.0</ele><time>2026-04-06T15:03:01Z</time></trkpt><trkpt lat="53.41824181683449" lon="14.774716402804719"><ele>30.0</ele><time>2026-04-06T15:03:02Z</time></trkpt><trkpt lat="53.418222203215485" lon="14.774543886888058"><ele>30.0</ele><time>2026-04-06T15:03:03Z</time></trkpt><trkpt lat="53.418199392665166" lon="14.774343056310027"><ele>30.0</ele><time>2026-04-06T15:03:04Z</time></trkpt><trkpt lat="53.41816987427957" lon="14.774134091632199"><ele>30.0</ele><time>2026-04-06T15:03:05Z</time></trkpt><trkpt lat="53.41814333349914" lon="14.773943819753997"><ele>29.8</ele><time>2026-04-06T15:03:06Z</time></trkpt><trkpt lat="53.41812260869118" lon="14.773739248989486"><ele>29.6</ele><time>2026-04-06T15:03:07Z</time></trkpt><trkpt lat="53.41811118677476" lon="14.773563645231041"><ele>29.4</ele><time>2026-04-06T15:03:08Z</time></trkpt><trkpt lat="53.41808546489165" lon="14.773401827876512"><ele>29.2</ele><time>2026-04-06T15:03:09Z</time></trkpt><trkpt lat="53.418060241137184" lon="14.773239715392082"><ele>29.0</ele><time>2026-04-06T15:03:10Z</time></trkpt><trkpt lat="53.418042432908464" lon="14.773089263808565"><ele>28.4</ele><time>2026-04-06T15:03:11Z</time></trkpt><trkpt lat="53.418025569700525" lon="14.772961052287025"><ele>27.799999999999997</ele><time>2026-04-06T15:03:12Z</time></trkpt><trkpt lat="53.41801313945912" lon="14.772780211601406"><ele>27.200000000000003</ele><time>2026-04-06T15:03:14Z</time></trkpt><trkpt lat="53.418109039170346" lon="14.772720802543994"><ele>26.6</ele><time>2026-04-06T15:03:18Z</time></trkpt><trkpt lat="53.41816792694397" lon="14.77267017904992"><ele>26.0</ele><time>2026-04-06T15:03:20Z</time></trkpt><trkpt lat="53.41846944272206" lon="14.772684588639954"><ele>26.0</ele><time>2026-04-06T15:03:22Z</time></trkpt><trkpt lat="53.418612602585064" lon="14.772658095938437"><ele>26.0</ele><time>2026-04-06T15:03:23Z</time></trkpt><trkpt lat="53.41876549973068" lon="14.772637633733387"><ele>26.0</ele><time>2026-04-06T15:03:24Z</time></trkpt><trkpt lat="53.41892078117748" lon="14.772617950540294"><ele>26.0</ele><time>2026-04-06T15:03:25Z</time></trkpt><trkpt lat="53.419074137865834" lon="14.772628697118607"><ele>26.0</ele><time>2026-04-06T15:03:26Z</time></trkpt><trkpt lat="53.41922726069173" lon="14.7726322830038"><ele>26.0</ele><time>2026-04-06T15:03:27Z</time></trkpt><trkpt lat="53.41937331581133" lon="14.77263043566795"><ele>26.0</ele><time>2026-04-06T15:03:28Z</time></trkpt><trkpt lat="53.41951782972933" lon="14.77262356382801"><ele>26.0</ele><time>2026-04-06T15:03:29Z</time></trkpt><trkpt lat="53.41966827857837" lon="14.772616278889865"><ele>26.0</ele><time>2026-04-06T15:03:30Z</time></trkpt><trkpt lat="53.419811317656354" lon="14.772610397948855"><ele>26.0</ele><time>2026-04-06T15:03:31Z</time></trkpt><trkpt lat="53.41995395087476" lon="14.77266432364975"><ele>25.5</ele><time>2026-04-06T15:03:32Z</time></trkpt><trkpt lat="53.42009014945453" lon="14.772658794836108"><ele>25.0</ele><time>2026-04-06T15:03:33Z</time></trkpt><trkpt lat="53.420229044925414" lon="14.7726533695632"><ele>24.5</ele><time>2026-04-06T15:03:34Z</time></trkpt><trkpt lat="53.42037044035988" lon="14.772648780167943"><ele>24.0</ele><time>2026-04-06T15:03:35Z</time></trkpt><trkpt lat="53.4205139619634" lon="14.772644121758612"><ele>24.0</ele><time>2026-04-06T15:03:36Z</time></trkpt><trkpt lat="53.42065449367255" lon="14.772639560390463"><ele>24.0</ele><time>2026-04-06T15:03:37Z</time></trkpt><trkpt lat="53.42080126309727" lon="14.772619875807836"><ele>24.0</ele><time>2026-04-06T15:03:38Z</time></trkpt><trkpt lat="53.42094559620678" lon="14.772615340228377"><ele>24.0</ele><time>2026-04-06T15:03:39Z</time></trkpt><trkpt lat="53.421087308215654" lon="14.772615643247153"><ele>24.0</ele><time>2026-04-06T15:03:40Z</time></trkpt><trkpt lat="53.421220350737165" lon="14.772614261871515"><ele>24.0</ele><time>2026-04-06T15:03:41Z</time></trkpt><trkpt lat="53.42135327946775" lon="14.772607127858015"><ele>24.0</ele><time>2026-04-06T15:03:42Z</time></trkpt><trkpt lat="53.42146460198467" lon="14.772602684860344"><ele>24.0</ele><time>2026-04-06T15:03:43Z</time></trkpt><trkpt lat="53.42156461603922" lon="14.772601637914743"><ele>24.2</ele><time>2026-04-06T15:03:44Z</time></trkpt><trkpt lat="53.42169048793796" lon="14.77260369211943"><ele>24.4</ele><time>2026-04-06T15:03:46Z</time></trkpt><trkpt lat="53.42177125783109" lon="14.772590826706592"><ele>24.6</ele><time>2026-04-06T15:03:47Z</time></trkpt><trkpt lat="53.421868925280194" lon="14.77262808932813"><ele>24.8</ele><time>2026-04-06T15:03:48Z</time></trkpt><trkpt lat="53.421989341616126" lon="14.77263315770047"><ele>25.0</ele><time>2026-04-06T15:03:49Z</time></trkpt><trkpt lat="53.42209712115274" lon="14.772689850532146"><ele>25.0</ele><time>2026-04-06T15:03:50Z</time></trkpt><trkpt lat="53.42220905350687" lon="14.772763139900489"><ele>25.0</ele><time>2026-04-06T15:03:51Z</time></trkpt><trkpt lat="53.42231889396763" lon="14.772832913603983"><ele>25.0</ele><time>2026-04-06T15:03:52Z</time></trkpt><trkpt lat="53.42241695312476" lon="14.77289690733749"><ele>25.0</ele><time>2026-04-06T15:03:53Z</time></trkpt><trkpt lat="53.42249572336446" lon="14.772978038459618"><ele>25.0</ele><time>2026-04-06T15:03:54Z</time></trkpt><trkpt lat="53.422555354971145" lon="14.773017703703584"><ele>25.0</ele><time>2026-04-06T15:03:55Z</time></trkpt><trkpt lat="53.42265902740645" lon="14.773076353473591"><ele>25.0</ele><time>2026-04-06T15:03:57Z</time></trkpt><trkpt lat="53.42274980933432" lon="14.773140510207242"><ele>25.0</ele><time>2026-04-06T15:03:59Z</time></trkpt><trkpt lat="53.42284318220584" lon="14.77319980188365"><ele>25.0</ele><time>2026-04-06T15:04:01Z</time></trkpt><trkpt lat="53.42291123729098" lon="14.773242752989114"><ele>25.0</ele><time>2026-04-06T15:04:02.001Z</time></trkpt><trkpt lat="53.422980537200075" lon="14.773286358137474"><ele>24.2</ele><time>2026-04-06T15:04:03.001Z</time></trkpt><trkpt lat="53.42307899928681" lon="14.773348312896657"><ele>23.4</ele><time>2026-04-06T15:04:04.001Z</time></trkpt><trkpt lat="53.423176284513964" lon="14.773409527189566"><ele>22.6</ele><time>2026-04-06T15:04:05.001Z</time></trkpt><trkpt lat="53.42328008086128" lon="14.773474838455057"><ele>21.8</ele><time>2026-04-06T15:04:06.001Z</time></trkpt><trkpt lat="53.42336553263575" lon="14.773515595986627"><ele>21.0</ele><time>2026-04-06T15:04:07.001Z</time></trkpt><trkpt lat="53.42343104258519" lon="14.773538935212102"><ele>21.0</ele><time>2026-04-06T15:04:08.001Z</time></trkpt><trkpt lat="53.423496954036345" lon="14.773558910461038"><ele>21.0</ele><time>2026-04-06T15:04:09.001Z</time></trkpt><trkpt lat="53.42357151427815" lon="14.77357944244544"><ele>21.0</ele><time>2026-04-06T15:04:10.001Z</time></trkpt><trkpt lat="53.42364663337932" lon="14.773601025911335"><ele>21.0</ele><time>2026-04-06T15:04:11.001Z</time></trkpt><trkpt lat="53.42375964069082" lon="14.773599781053596"><ele>21.0</ele><time>2026-04-06T15:04:13.001Z</time></trkpt><trkpt lat="53.424052437382244" lon="14.772843771496003"><ele>21.0</ele><time>2026-04-06T15:04:15.001Z</time></trkpt><trkpt lat="53.424125057061296" lon="14.772817566411899"><ele>21.0</ele><time>2026-04-06T15:04:16.001Z</time></trkpt><trkpt lat="53.424081974874454" lon="14.772908588638176"><ele>21.0</ele><time>2026-04-06T15:13:52Z</time></trkpt><trkpt lat="53.42401099865792" lon="14.772871126256009"><ele>21.0</ele><time>2026-04-06T15:13:54Z</time></trkpt><trkpt lat="53.42393580774984" lon="14.772858785218517"><ele>21.0</ele><time>2026-04-06T15:13:56Z</time></trkpt><trkpt lat="53.42387271183599" lon="14.772858839064932"><ele>21.0</ele><time>2026-04-06T15:13:57Z</time></trkpt><trkpt lat="53.423760153071996" lon="14.77284364074972"><ele>21.0</ele><time>2026-04-06T15:13:59Z</time></trkpt><trkpt lat="53.42369103590473" lon="14.772830068223003"><ele>21.0</ele><time>2026-04-06T15:14:00Z</time></trkpt><trkpt lat="53.42356909667478" lon="14.772798262338608"><ele>21.0</ele><time>2026-04-06T15:14:02Z</time></trkpt><trkpt lat="53.42350535000378" lon="14.772779597432287"><ele>21.0</ele><time>2026-04-06T15:14:03Z</time></trkpt><trkpt lat="53.42343749110153" lon="14.772765510742817"><ele>21.0</ele><time>2026-04-06T15:14:04Z</time></trkpt><trkpt lat="53.423374412276466" lon="14.772734622570969"><ele>21.0</ele><time>2026-04-06T15:14:05Z</time></trkpt><trkpt lat="53.42331682171358" lon="14.772686142079765"><ele>21.333333333333332</ele><time>2026-04-06T15:14:06Z</time></trkpt><trkpt lat="53.423252443296086" lon="14.772619044717283"><ele>21.666666666666668</ele><time>2026-04-06T15:14:07Z</time></trkpt><trkpt lat="53.42318546655141" lon="14.772532595390956"><ele>22.0</ele><time>2026-04-06T15:14:08Z</time></trkpt><trkpt lat="53.423130180062046" lon="14.772463355854008"><ele>22.333333333333336</ele><time>2026-04-06T15:14:09Z</time></trkpt><trkpt lat="53.42307332907146" lon="14.77239509247522"><ele>22.666666666666668</ele><time>2026-04-06T15:14:10Z</time></trkpt><trkpt lat="53.42301650318994" lon="14.772341902026664"><ele>23.0</ele><time>2026-04-06T15:14:11Z</time></trkpt><trkpt lat="53.422925572846566" lon="14.772246062442978"><ele>23.166666666666668</ele><time>2026-04-06T15:14:13Z</time></trkpt><trkpt lat="53.422867898268976" lon="14.772200927931307"><ele>23.333333333333336</ele><time>2026-04-06T15:14:15Z</time></trkpt><trkpt lat="53.42282208683657" lon="14.772123971484717"><ele>23.5</ele><time>2026-04-06T15:14:17Z</time></trkpt><trkpt lat="53.422811680908964" lon="14.771953279695804"><ele>23.666666666666668</ele><time>2026-04-06T15:14:20Z</time></trkpt><trkpt lat="53.42281241131315" lon="14.771737525328536"><ele>23.833333333333332</ele><time>2026-04-06T15:14:22Z</time></trkpt><trkpt lat="53.422813976574695" lon="14.771600165948103"><ele>24.0</ele><time>2026-04-06T15:14:23Z</time></trkpt><trkpt lat="53.42281676855049" lon="14.771430406425761"><ele>24.0</ele><time>2026-04-06T15:14:24Z</time></trkpt><trkpt lat="53.422824837150735" lon="14.771240413941939"><ele>24.0</ele><time>2026-04-06T15:14:25Z</time></trkpt><trkpt lat="53.42283091168065" lon="14.771044684523199"><ele>24.0</ele><time>2026-04-06T15:14:26Z</time></trkpt><trkpt lat="53.42284481172103" lon="14.770793257440975"><ele>24.0</ele><time>2026-04-06T15:14:27Z</time></trkpt><trkpt lat="53.422851517226874" lon="14.770521286408622"><ele>24.0</ele><time>2026-04-06T15:14:28Z</time></trkpt><trkpt lat="53.422852016095234" lon="14.77023606273284"><ele>24.0</ele><time>2026-04-06T15:14:29Z</time></trkpt><trkpt lat="53.42284633352682" lon="14.769938188257553"><ele>24.0</ele><time>2026-04-06T15:14:30Z</time></trkpt><trkpt lat="53.42284473744392" lon="14.769653842306102"><ele>24.25</ele><time>2026-04-06T15:14:31Z</time></trkpt><trkpt lat="53.42285128066468" lon="14.769411461012686"><ele>24.5</ele><time>2026-04-06T15:14:32Z</time></trkpt><trkpt lat="53.4228521573578" lon="14.769180710485536"><ele>24.75</ele><time>2026-04-06T15:14:33Z</time></trkpt><trkpt lat="53.422858054411826" lon="14.768967213151509"><ele>25.0</ele><time>2026-04-06T15:14:34Z</time></trkpt><trkpt lat="53.422856509408966" lon="14.768755605154869"><ele>25.0</ele><time>2026-04-06T15:14:35Z</time></trkpt><trkpt lat="53.422849988464236" lon="14.768533005533282"><ele>25.0</ele><time>2026-04-06T15:14:36Z</time></trkpt><trkpt lat="53.422834071725106" lon="14.768304011405831"><ele>25.0</ele><time>2026-04-06T15:14:37Z</time></trkpt><trkpt lat="53.42281313989724" lon="14.768078495774587"><ele>25.0</ele><time>2026-04-06T15:14:38Z</time></trkpt><trkpt lat="53.42278835000783" lon="14.76784347016984"><ele>23.333333333333336</ele><time>2026-04-06T15:14:39Z</time></trkpt><trkpt lat="53.42274968345688" lon="14.767601094783732"><ele>21.666666666666668</ele><time>2026-04-06T15:14:40Z</time></trkpt><trkpt lat="53.42271281017893" lon="14.767364988439944"><ele>20.0</ele><time>2026-04-06T15:14:41Z</time></trkpt><trkpt lat="53.42266375318073" lon="14.76710771265724"><ele>20.0</ele><time>2026-04-06T15:14:42Z</time></trkpt><trkpt lat="53.42261679717393" lon="14.76687659077575"><ele>20.0</ele><time>2026-04-06T15:14:43Z</time></trkpt><trkpt lat="53.4225619827105" lon="14.766662096594446"><ele>20.0</ele><time>2026-04-06T15:14:44Z</time></trkpt><trkpt lat="53.42251153682191" lon="14.766474367926145"><ele>20.0</ele><time>2026-04-06T15:14:45Z</time></trkpt><trkpt lat="53.42247361817281" lon="14.76630578374445"><ele>19.833333333333336</ele><time>2026-04-06T15:14:46Z</time></trkpt><trkpt lat="53.42244254846443" lon="14.766162038930899"><ele>19.666666666666668</ele><time>2026-04-06T15:14:47Z</time></trkpt><trkpt lat="53.4224242709042" lon="14.766040242283658"><ele>19.5</ele><time>2026-04-06T15:14:48Z</time></trkpt><trkpt lat="53.42241460911868" lon="14.765926531511012"><ele>19.333333333333332</ele><time>2026-04-06T15:14:49Z</time></trkpt><trkpt lat="53.422381852021886" lon="14.765786760790643"><ele>19.166666666666664</ele><time>2026-04-06T15:14:51Z</time></trkpt><trkpt lat="53.42230835754032" lon="14.765719457693368"><ele>19.0</ele><time>2026-04-06T15:14:54Z</time></trkpt><trkpt lat="53.42227631990668" lon="14.765876364573282"><ele>19.0</ele><time>2026-04-06T15:14:57.001Z</time></trkpt><trkpt lat="53.42233040279825" lon="14.76601217633646"><ele>19.0</ele><time>2026-04-06T15:14:59.001Z</time></trkpt><trkpt lat="53.42236116706303" lon="14.766116567108773"><ele>19.0</ele><time>2026-04-06T15:15:00.001Z</time></trkpt><trkpt lat="53.422391262909585" lon="14.76623770476361"><ele>19.0</ele><time>2026-04-06T15:15:01.001Z</time></trkpt><trkpt lat="53.42242477801213" lon="14.766360783601625"><ele>19.0</ele><time>2026-04-06T15:15:02.001Z</time></trkpt><trkpt lat="53.42247857972176" lon="14.76650811391231"><ele>19.0</ele><time>2026-04-06T15:15:03.001Z</time></trkpt><trkpt lat="53.42254205946917" lon="14.766699311545153"><ele>19.333333333333332</ele><time>2026-04-06T15:15:04.001Z</time></trkpt><trkpt lat="53.422606059559364" lon="14.76693185377236"><ele>19.666666666666668</ele><time>2026-04-06T15:15:05.001Z</time></trkpt><trkpt lat="53.42266663474116" lon="14.767198169811799"><ele>20.0</ele><time>2026-04-06T15:15:06.001Z</time></trkpt><trkpt lat="53.42272091575316" lon="14.767501275194368"><ele>20.666666666666668</ele><time>2026-04-06T15:15:07.001Z</time></trkpt><trkpt lat="53.422766356417675" lon="14.76781863978209"><ele>21.333333333333332</ele><time>2026-04-06T15:15:08.001Z</time></trkpt><trkpt lat="53.42280364339056" lon="14.76817858810107"><ele>22.0</ele><time>2026-04-06T15:15:09.001Z</time></trkpt><trkpt lat="53.422831157828895" lon="14.76854218760592"><ele>23.0</ele><time>2026-04-06T15:15:10.001Z</time></trkpt><trkpt lat="53.42284022770721" lon="14.768909370906302"><ele>24.0</ele><time>2026-04-06T15:15:11.001Z</time></trkpt><trkpt lat="53.42284085267948" lon="14.769276346903185"><ele>25.0</ele><time>2026-04-06T15:15:12.001Z</time></trkpt><trkpt lat="53.422835254433" lon="14.769645315535568"><ele>25.0</ele><time>2026-04-06T15:15:13.001Z</time></trkpt><trkpt lat="53.42283340939272" lon="14.76999269234511"><ele>25.0</ele><time>2026-04-06T15:15:14.001Z</time></trkpt><trkpt lat="53.422829859033705" lon="14.77030692816353"><ele>25.0</ele><time>2026-04-06T15:15:15.001Z</time></trkpt><trkpt lat="53.422821910848" lon="14.770615262004055"><ele>24.75</ele><time>2026-04-06T15:15:16.001Z</time></trkpt><trkpt lat="53.4228112861083" lon="14.770880978201347"><ele>24.5</ele><time>2026-04-06T15:15:17.001Z</time></trkpt><trkpt lat="53.422813492520305" lon="14.771136337167967"><ele>24.25</ele><time>2026-04-06T15:15:18.001Z</time></trkpt><trkpt lat="53.42280903908459" lon="14.771364317739765"><ele>24.0</ele><time>2026-04-06T15:15:19.001Z</time></trkpt><trkpt lat="53.42281400324923" lon="14.771568595018897"><ele>24.0</ele><time>2026-04-06T15:15:20.001Z</time></trkpt><trkpt lat="53.422822314855246" lon="14.771766242057884"><ele>24.0</ele><time>2026-04-06T15:15:21.001Z</time></trkpt><trkpt lat="53.42282036614665" lon="14.77193521429726"><ele>24.0</ele><time>2026-04-06T15:15:22.001Z</time></trkpt><trkpt lat="53.422820171020376" lon="14.772081728001643"><ele>24.0</ele><time>2026-04-06T15:15:23.001Z</time></trkpt><trkpt lat="53.422815891621525" lon="14.772217687390222"><ele>24.0</ele><time>2026-04-06T15:15:24.001Z</time></trkpt><trkpt lat="53.42281967730899" lon="14.772339417153056"><ele>24.0</ele><time>2026-04-06T15:15:25.001Z</time></trkpt><trkpt lat="53.42282374331691" lon="14.77246459837664"><ele>24.0</ele><time>2026-04-06T15:15:26.001Z</time></trkpt><trkpt lat="53.42281821171311" lon="14.772596105041684"><ele>24.0</ele><time>2026-04-06T15:15:27.001Z</time></trkpt><trkpt lat="53.42281481175348" lon="14.772735104980896"><ele>24.0</ele><time>2026-04-06T15:15:28.001Z</time></trkpt><trkpt lat="53.42280474777443" lon="14.772846817831331"><ele>24.0</ele><time>2026-04-06T15:15:29.001Z</time></trkpt><trkpt lat="53.42278536411863" lon="14.772974675816311"><ele>24.0</ele><time>2026-04-06T15:15:31.001Z</time></trkpt><trkpt lat="53.422811371656024" lon="14.773079464370525"><ele>24.166666666666668</ele><time>2026-04-06T15:15:33.001Z</time></trkpt><trkpt lat="53.422871077960934" lon="14.77311410921475"><ele>24.333333333333336</ele><time>2026-04-06T15:15:35Z</time></trkpt><trkpt lat="53.42289542229618" lon="14.773232804307494"><ele>24.5</ele><time>2026-04-06T15:15:36Z</time></trkpt><trkpt lat="53.42300351593403" lon="14.773300819379015"><ele>24.666666666666668</ele><time>2026-04-06T15:15:38Z</time></trkpt><trkpt lat="53.423116811631814" lon="14.773372107936748"><ele>24.833333333333336</ele><time>2026-04-06T15:15:40Z</time></trkpt><trkpt lat="53.423181199516705" lon="14.773412622403622"><ele>25.0</ele><time>2026-04-06T15:15:41Z</time></trkpt><trkpt lat="53.42325373264835" lon="14.773458262078599"><ele>24.333333333333336</ele><time>2026-04-06T15:15:42Z</time></trkpt><trkpt lat="53.42331671783076" lon="14.773497893861467"><ele>23.666666666666668</ele><time>2026-04-06T15:15:43Z</time></trkpt><trkpt lat="53.423378080557626" lon="14.773536504790144"><ele>23.0</ele><time>2026-04-06T15:15:44Z</time></trkpt><trkpt lat="53.42348677341713" lon="14.773568301922214"><ele>22.333333333333336</ele><time>2026-04-06T15:15:46Z</time></trkpt><trkpt lat="53.42359805819966" lon="14.773632365319717"><ele>21.666666666666668</ele><time>2026-04-06T15:15:48Z</time></trkpt><trkpt lat="53.42368353568577" lon="14.773657723660977"><ele>21.0</ele><time>2026-04-06T15:15:49Z</time></trkpt><trkpt lat="53.423918654197124" lon="14.7728415431795"><ele>20.833333333333332</ele><time>2026-04-06T15:15:50Z</time></trkpt><trkpt lat="53.42398482640183" lon="14.772835642781693"><ele>20.666666666666668</ele><time>2026-04-06T15:15:51Z</time></trkpt><trkpt lat="53.42408727003674" lon="14.772814746065217"><ele>20.5</ele><time>2026-04-06T15:15:53Z</time></trkpt><trkpt lat="53.42415180126996" lon="14.772785243480536"><ele>20.333333333333336</ele><time>2026-04-06T15:15:56Z</time></trkpt><trkpt lat="53.424226917265926" lon="14.772815722351975"><ele>20.166666666666668</ele><time>2026-04-06T15:18:51Z</time></trkpt><trkpt lat="53.42430270160429" lon="14.772766645314672"><ele>20.0</ele><time>2026-04-06T15:18:57Z</time></trkpt><trkpt lat="53.42436510114299" lon="14.77274197926922"><ele>20.0</ele><time>2026-04-06T15:19:00Z</time></trkpt><trkpt lat="53.42444380615757" lon="14.772669064591517"><ele>20.0</ele><time>2026-04-06T15:19:04Z</time></trkpt><trkpt lat="53.42451137752939" lon="14.772599720578409"><ele>20.0</ele><time>2026-04-06T15:19:07Z</time></trkpt><trkpt lat="53.42449351116932" lon="14.772478485176972"><ele>20.0</ele><time>2026-04-06T15:19:10Z</time></trkpt><trkpt lat="53.424426911132194" lon="14.772390456761393"><ele>20.0</ele><time>2026-04-06T15:19:12Z</time></trkpt><trkpt lat="53.42440244599734" lon="14.772292973350924"><ele>20.0</ele><time>2026-04-06T15:19:13Z</time></trkpt><trkpt lat="53.42436952740587" lon="14.772187137828714"><ele>20.0</ele><time>2026-04-06T15:19:15Z</time></trkpt><trkpt lat="53.42427973557341" lon="14.772220932265077"><ele>20.0</ele><time>2026-04-06T15:19:18Z</time></trkpt><trkpt lat="53.424250674597886" lon="14.772315912617877"><ele>20.0</ele><time>2026-04-06T15:19:20Z</time></trkpt><trkpt lat="53.42426873484916" lon="14.772459648466555"><ele>20.0</ele><time>2026-04-06T15:19:22Z</time></trkpt><trkpt lat="53.424315020493836" lon="14.77257615113324"><ele>20.0</ele><time>2026-04-06T15:19:24Z</time></trkpt><trkpt lat="53.42441138556837" lon="14.772575515999247"><ele>20.0</ele><time>2026-04-06T15:19:26Z</time></trkpt><trkpt lat="53.42447833720959" lon="14.77254192326997"><ele>20.0</ele><time>2026-04-06T15:19:27Z</time></trkpt><trkpt lat="53.42455506268149" lon="14.772519507196671"><ele>20.0</ele><time>2026-04-06T15:19:28Z</time></trkpt><trkpt lat="53.42462700414606" lon="14.772500091799193"><ele>20.0</ele><time>2026-04-06T15:19:29Z</time></trkpt><trkpt lat="53.424701948043676" lon="14.772492525577642"><ele>20.0</ele><time>2026-04-06T15:19:30Z</time></trkpt><trkpt lat="53.42476711504796" lon="14.77259970732704"><ele>20.0</ele><time>2026-04-06T15:19:34Z</time></trkpt><trkpt lat="53.42484664250693" lon="14.772634740201072"><ele>20.0</ele><time>2026-04-06T15:19:37Z</time></trkpt><trkpt lat="53.42495885979162" lon="14.772586624508365"><ele>20.0</ele><time>2026-04-06T15:19:39Z</time></trkpt><trkpt lat="53.42504801390858" lon="14.772561435122643"><ele>20.0</ele><time>2026-04-06T15:19:41.001Z</time></trkpt><trkpt lat="53.42503254139978" lon="14.772440720371634"><ele>20.0</ele><time>2026-04-06T15:19:44.001Z</time></trkpt><trkpt lat="53.42492010237457" lon="14.772449508179436"><ele>20.0</ele><time>2026-04-06T15:19:46Z</time></trkpt><trkpt lat="53.42484544771395" lon="14.772525758928635"><ele>20.0</ele><time>2026-04-06T15:19:47Z</time></trkpt><trkpt lat="53.42476357741962" lon="14.772556422606986"><ele>20.0</ele><time>2026-04-06T15:19:49Z</time></trkpt><trkpt lat="53.42469219271671" lon="14.772523021956323"><ele>20.0</ele><time>2026-04-06T15:19:52Z</time></trkpt><trkpt lat="53.424630799416796" lon="14.772552248181801"><ele>20.0</ele><time>2026-04-06T15:20:12Z</time></trkpt><trkpt lat="53.42454547941984" lon="14.77258981851949"><ele>20.0</ele><time>2026-04-06T15:20:16Z</time></trkpt><trkpt lat="53.42444271665478" lon="14.772650719556337"><ele>20.0</ele><time>2026-04-06T15:20:18Z</time></trkpt><trkpt lat="53.42438112747387" lon="14.772727216834895"><ele>20.0</ele><time>2026-04-06T15:20:20Z</time></trkpt><trkpt lat="53.4243455168664" lon="14.77283849739314"><ele>20.0</ele><time>2026-04-06T15:20:24Z</time></trkpt><trkpt lat="53.42438526318888" lon="14.77293498132161"><ele>20.0</ele><time>2026-04-06T15:20:49Z</time></trkpt><trkpt lat="53.424423928099785" lon="14.773050604425054"><ele>20.0</ele><time>2026-04-06T15:20:51Z</time></trkpt><trkpt lat="53.42446036181404" lon="14.773213852225942"><ele>20.0</ele><time>2026-04-06T15:20:53Z</time></trkpt><trkpt lat="53.42449808785189" lon="14.773361843659965"><ele>20.0</ele><time>2026-04-06T15:20:54Z</time></trkpt><trkpt lat="53.42453122540213" lon="14.773492506593541"><ele>20.0</ele><time>2026-04-06T15:20:55Z</time></trkpt><trkpt lat="53.42456875174906" lon="14.773644996668763"><ele>20.0</ele><time>2026-04-06T15:20:56Z</time></trkpt><trkpt lat="53.424589452650096" lon="14.773767275798727"><ele>20.0</ele><time>2026-04-06T15:20:57Z</time></trkpt><trkpt lat="53.424624083876296" lon="14.773891628432295"><ele>20.0</ele><time>2026-04-06T15:20:59Z</time></trkpt><trkpt lat="53.42464380847533" lon="14.7737300859135"><ele>20.0</ele><time>2026-04-06T15:21:03Z</time></trkpt><trkpt lat="53.42460879617811" lon="14.77361963098866"><ele>20.0</ele><time>2026-04-06T15:21:04Z</time></trkpt><trkpt lat="53.42457601797992" lon="14.773511801832745"><ele>20.0</ele><time>2026-04-06T15:21:05Z</time></trkpt><trkpt lat="53.42454092506684" lon="14.773378490538283"><ele>20.0</ele><time>2026-04-06T15:21:06Z</time></trkpt><trkpt lat="53.42449693177246" lon="14.773161342736229"><ele>20.0</ele><time>2026-04-06T15:21:07Z</time></trkpt><trkpt lat="53.424455871148744" lon="14.772979632845193"><ele>20.0</ele><time>2026-04-06T15:21:08Z</time></trkpt><trkpt lat="53.42442342161628" lon="14.772881400160593"><ele>20.0</ele><time>2026-04-06T15:21:09Z</time></trkpt><trkpt lat="53.42438967330089" lon="14.772754173352011"><ele>20.0</ele><time>2026-04-06T15:21:11Z</time></trkpt><trkpt lat="53.42435399937633" lon="14.77261302672863"><ele>20.0</ele><time>2026-04-06T15:21:12Z</time></trkpt><trkpt lat="53.424310047366035" lon="14.772425973600166"><ele>20.0</ele><time>2026-04-06T15:21:13Z</time></trkpt><trkpt lat="53.42426738728571" lon="14.77222836517353"><ele>20.0</ele><time>2026-04-06T15:21:14Z</time></trkpt><trkpt lat="53.42423163447798" lon="14.772077241841759"><ele>20.0</ele><time>2026-04-06T15:21:15Z</time></trkpt><trkpt lat="53.424193044862236" lon="14.77194338031452"><ele>20.0</ele><time>2026-04-06T15:21:17Z</time></trkpt><trkpt lat="53.42414778762653" lon="14.771805163382242"><ele>20.0</ele><time>2026-04-06T15:21:20Z</time></trkpt><trkpt lat="53.424169220170185" lon="14.771950418175393"><ele>20.0</ele><time>2026-04-06T15:21:24Z</time></trkpt><trkpt lat="53.424202244522796" lon="14.772042742476641"><ele>20.0</ele><time>2026-04-06T15:21:25Z</time></trkpt><trkpt lat="53.424240370610214" lon="14.772198964653226"><ele>20.0</ele><time>2026-04-06T15:21:26Z</time></trkpt><trkpt lat="53.424259012828436" lon="14.772348279399713"><ele>20.0</ele><time>2026-04-06T15:21:27Z</time></trkpt><trkpt lat="53.42427155714211" lon="14.772462654283201"><ele>20.0</ele><time>2026-04-06T15:21:28Z</time></trkpt><trkpt lat="53.424320524698416" lon="14.77259855977148"><ele>20.0</ele><time>2026-04-06T15:21:30Z</time></trkpt><trkpt lat="53.424385565066636" lon="14.772744793229391"><ele>20.0</ele><time>2026-04-06T15:25:22Z</time></trkpt><trkpt lat="53.42441122117467" lon="14.772927845469148"><ele>20.0</ele><time>2026-04-06T15:25:24Z</time></trkpt><trkpt lat="53.42444563075099" lon="14.77314209519925"><ele>20.0</ele><time>2026-04-06T15:25:26Z</time></trkpt><trkpt lat="53.42448055624589" lon="14.773312197133166"><ele>20.0</ele><time>2026-04-06T15:25:28Z</time></trkpt><trkpt lat="53.424518603086604" lon="14.773480821385402"><ele>20.0</ele><time>2026-04-06T15:25:30Z</time></trkpt><trkpt lat="53.42455035694212" lon="14.773625304248755"><ele>20.0</ele><time>2026-04-06T15:25:32Z</time></trkpt><trkpt lat="53.42457873272395" lon="14.773726580797646"><ele>20.0</ele><time>2026-04-06T15:25:34Z</time></trkpt><trkpt lat="53.42462098807317" lon="14.773830918823716"><ele>20.0</ele><time>2026-04-06T15:25:38Z</time></trkpt><trkpt lat="53.42470413765255" lon="14.773803237446637"><ele>20.0</ele><time>2026-04-06T15:25:41Z</time></trkpt><trkpt lat="53.424751019770184" lon="14.773890562954724"><ele>20.0</ele><time>2026-04-06T15:25:45.001Z</time></trkpt><trkpt lat="53.4247018003432" lon="14.773966087983826"><ele>20.0</ele><time>2026-04-06T15:25:48.001Z</time></trkpt><trkpt lat="53.42463789228849" lon="14.773989536429633"><ele>20.0</ele><time>2026-04-06T15:25:54.001Z</time></trkpt><trkpt lat="53.424638059061984" lon="14.773859488769409"><ele>20.0</ele><time>2026-04-06T15:25:58.001Z</time></trkpt><trkpt lat="53.424708510737275" lon="14.77386788058729"><ele>20.0</ele><time>2026-04-06T15:26:02.001Z</time></trkpt><trkpt lat="53.42474921324889" lon="14.773781216601964"><ele>20.0</ele><time>2026-04-06T15:26:06Z</time></trkpt><trkpt lat="53.42471575647862" lon="14.773606450064273"><ele>20.0</ele><time>2026-04-06T15:26:08Z</time></trkpt><trkpt lat="53.42462651355567" lon="14.773515078132734"><ele>20.0</ele><time>2026-04-06T15:26:10Z</time></trkpt><trkpt lat="53.42455485180603" lon="14.773563168784495"><ele>20.0</ele><time>2026-04-06T15:26:12Z</time></trkpt><trkpt lat="53.424546511214096" lon="14.77369330237005"><ele>20.0</ele><time>2026-04-06T15:26:15Z</time></trkpt><trkpt lat="53.424594504132116" lon="14.773826245928664"><ele>20.0</ele><time>2026-04-06T15:26:17.999Z</time></trkpt><trkpt lat="53.4246303079289" lon="14.773927441380799"><ele>20.0</ele><time>2026-04-06T15:26:21.999Z</time></trkpt><trkpt lat="53.42460682196542" lon="14.773802768213335"><ele>20.0</ele><time>2026-04-06T15:27:04Z</time></trkpt><trkpt lat="53.42455798881174" lon="14.773668815951105"><ele>20.0</ele><time>2026-04-06T15:27:06Z</time></trkpt><trkpt lat="53.424527384505055" lon="14.773553445577537"><ele>20.0</ele><time>2026-04-06T15:27:08Z</time></trkpt><trkpt lat="53.42449339577164" lon="14.773407092728085"><ele>20.0</ele><time>2026-04-06T15:27:10Z</time></trkpt><trkpt lat="53.424462679471674" lon="14.773264155197188"><ele>20.0</ele><time>2026-04-06T15:27:12Z</time></trkpt><trkpt lat="53.42445535148214" lon="14.77315522555222"><ele>20.0</ele><time>2026-04-06T15:27:14Z</time></trkpt><trkpt lat="53.42451974066024" lon="14.773034221178772"><ele>20.0</ele><time>2026-04-06T15:27:16Z</time></trkpt><trkpt lat="53.424576653558596" lon="14.772935570404805"><ele>20.0</ele><time>2026-04-06T15:27:17Z</time></trkpt><trkpt lat="53.42464248660654" lon="14.77282935043574"><ele>20.0</ele><time>2026-04-06T15:27:18Z</time></trkpt><trkpt lat="53.424692294339586" lon="14.772751829503756"><ele>20.0</ele><time>2026-04-06T15:27:19Z</time></trkpt><trkpt lat="53.42468477528937" lon="14.772625731494905"><ele>20.0</ele><time>2026-04-06T15:27:23Z</time></trkpt><trkpt lat="53.424640538862576" lon="14.772549952078078"><ele>20.0</ele><time>2026-04-06T15:27:28Z</time></trkpt><trkpt lat="53.424576784008124" lon="14.772569575893899"><ele>20.0</ele><time>2026-04-06T15:27:49Z</time></trkpt><trkpt lat="53.42447877947171" lon="14.772603610851085"><ele>20.0</ele><time>2026-04-06T15:27:52Z</time></trkpt><trkpt lat="53.4243893356624" lon="14.772642927968597"><ele>20.0</ele><time>2026-04-06T15:28:07Z</time></trkpt><trkpt lat="53.42431407908452" lon="14.772631119760026"><ele>20.0</ele><time>2026-04-06T15:28:09.999Z</time></trkpt><trkpt lat="53.42427182032069" lon="14.772544233296115"><ele>20.0</ele><time>2026-04-06T15:28:11.999Z</time></trkpt><trkpt lat="53.424286982055605" lon="14.772412189755647"><ele>20.0</ele><time>2026-04-06T15:28:13.999Z</time></trkpt><trkpt lat="53.42437595643578" lon="14.772504290779407"><ele>20.0</ele><time>2026-04-06T15:28:47Z</time></trkpt><trkpt lat="53.42444342443698" lon="14.77250804393643"><ele>20.0</ele><time>2026-04-06T15:28:48Z</time></trkpt><trkpt lat="53.424563372617605" lon="14.772516664599467"><ele>20.0</ele><time>2026-04-06T15:28:49Z</time></trkpt><trkpt lat="53.424710722506155" lon="14.772544448799374"><ele>20.0</ele><time>2026-04-06T15:28:50Z</time></trkpt><trkpt lat="53.42463927867459" lon="14.772526310033413"><ele>20.0</ele><time>2026-04-06T15:28:51Z</time></trkpt><trkpt lat="53.424725478918724" lon="14.772545773327243"><ele>20.0</ele><time>2026-04-06T15:28:53Z</time></trkpt><trkpt lat="53.42482069288252" lon="14.772648981170056"><ele>20.0</ele><time>2026-04-06T15:28:55Z</time></trkpt><trkpt lat="53.42492276193751" lon="14.772636902498176"><ele>20.0</ele><time>2026-04-06T15:28:57Z</time></trkpt><trkpt lat="53.42500223651113" lon="14.772600539143987"><ele>20.0</ele><time>2026-04-06T15:28:58Z</time></trkpt><trkpt lat="53.42506123151698" lon="14.772518630974892"><ele>20.0</ele><time>2026-04-06T15:29:00Z</time></trkpt><trkpt lat="53.42501981366205" lon="14.772426753425384"><ele>20.0</ele><time>2026-04-06T15:29:02Z</time></trkpt><trkpt lat="53.42489933467155" lon="14.772452132614028"><ele>20.0</ele><time>2026-04-06T15:29:04Z</time></trkpt><trkpt lat="53.42482504053173" lon="14.772504282971651"><ele>20.0</ele><time>2026-04-06T15:29:06Z</time></trkpt><trkpt lat="53.42475286297926" lon="14.772539323527376"><ele>20.0</ele><time>2026-04-06T15:29:08Z</time></trkpt><trkpt lat="53.42468332889751" lon="14.772510483491665"><ele>20.0</ele><time>2026-04-06T15:29:11Z</time></trkpt><trkpt lat="53.4246155043939" lon="14.772567523441369"><ele>20.0</ele><time>2026-04-06T15:29:24Z</time></trkpt><trkpt lat="53.42454445224409" lon="14.772577320182364"><ele>20.0</ele><time>2026-04-06T15:29:28Z</time></trkpt><trkpt lat="53.42445739170979" lon="14.772624738165687"><ele>20.0</ele><time>2026-04-06T15:29:30Z</time></trkpt><trkpt lat="53.42438272458925" lon="14.772641809313313"><ele>20.0</ele><time>2026-04-06T15:29:32Z</time></trkpt><trkpt lat="53.424315802327946" lon="14.772697047495837"><ele>20.0</ele><time>2026-04-06T15:29:35Z</time></trkpt><trkpt lat="53.42436653547771" lon="14.772825847118765"><ele>20.0</ele><time>2026-04-06T15:29:38Z</time></trkpt><trkpt lat="53.42440563588531" lon="14.772956990912641"><ele>20.0</ele><time>2026-04-06T15:29:41Z</time></trkpt><trkpt lat="53.42442236557591" lon="14.773104548498317"><ele>20.0</ele><time>2026-04-06T15:29:44Z</time></trkpt><trkpt lat="53.42444797166132" lon="14.773210259719859"><ele>20.0</ele><time>2026-04-06T15:29:45Z</time></trkpt><trkpt lat="53.42447506315885" lon="14.773308770776644"><ele>20.0</ele><time>2026-04-06T15:29:46Z</time></trkpt><trkpt lat="53.42451690376028" lon="14.773229196428307"><ele>20.0</ele><time>2026-04-06T15:29:50Z</time></trkpt><trkpt lat="53.42444828909344" lon="14.773074440278156"><ele>20.0</ele><time>2026-04-06T15:29:52Z</time></trkpt><trkpt lat="53.424419042900944" lon="14.772971734721644"><ele>20.0</ele><time>2026-04-06T15:29:53Z</time></trkpt><trkpt lat="53.4243994791022" lon="14.772829332333409"><ele>20.0</ele><time>2026-04-06T15:29:55Z</time></trkpt><trkpt lat="53.424374675867746" lon="14.772693131973622"><ele>20.0</ele><time>2026-04-06T15:29:58Z</time></trkpt><trkpt lat="53.424436008633414" lon="14.772631542170036"><ele>20.0</ele><time>2026-04-06T15:30:01Z</time></trkpt><trkpt lat="53.424459283257534" lon="14.772528911921052"><ele>20.0</ele><time>2026-04-06T15:30:48.999Z</time></trkpt><trkpt lat="53.42442859582886" lon="14.77243633108329"><ele>20.0</ele><time>2026-04-06T15:30:50.999Z</time></trkpt><trkpt lat="53.42436303167482" lon="14.772428651170635"><ele>20.0</ele><time>2026-04-06T15:38:07Z</time></trkpt><trkpt lat="53.42440224728902" lon="14.772549032281807"><ele>20.0</ele><time>2026-04-06T15:38:09Z</time></trkpt><trkpt lat="53.42441242309126" lon="14.772693481301896"><ele>20.0</ele><time>2026-04-06T15:38:11Z</time></trkpt><trkpt lat="53.42440348587495" lon="14.772798196971047"><ele>20.0</ele><time>2026-04-06T15:38:12Z</time></trkpt><trkpt lat="53.42440113199518" lon="14.772941383789265"><ele>20.0</ele><time>2026-04-06T15:38:13Z</time></trkpt><trkpt lat="53.424409875262484" lon="14.773106734055197"><ele>20.0</ele><time>2026-04-06T15:38:14Z</time></trkpt><trkpt lat="53.42446430365045" lon="14.773310884441397"><ele>20.0</ele><time>2026-04-06T15:38:15Z</time></trkpt><trkpt lat="53.42452255170578" lon="14.773505250728789"><ele>20.0</ele><time>2026-04-06T15:38:16Z</time></trkpt><trkpt lat="53.42456182411426" lon="14.773666681937353"><ele>20.0</ele><time>2026-04-06T15:38:17Z</time></trkpt><trkpt lat="53.42458622447924" lon="14.773773308924358"><ele>20.0</ele><time>2026-04-06T15:38:18Z</time></trkpt><trkpt lat="53.42462254219143" lon="14.773918181507026"><ele>20.0</ele><time>2026-04-06T15:38:20Z</time></trkpt><trkpt lat="53.424687215349074" lon="14.773959414507127"><ele>20.0</ele><time>2026-04-06T15:38:22.001Z</time></trkpt><trkpt lat="53.424743247289236" lon="14.77385934879325"><ele>20.0</ele><time>2026-04-06T15:38:24.001Z</time></trkpt><trkpt lat="53.42474287949202" lon="14.773702805183245"><ele>20.0</ele><time>2026-04-06T15:38:26.001Z</time></trkpt><trkpt lat="53.4246782376802" lon="14.77354750864812"><ele>20.0</ele><time>2026-04-06T15:38:28.001Z</time></trkpt><trkpt lat="53.424569904561814" lon="14.773461614246964"><ele>20.0</ele><time>2026-04-06T15:38:30.001Z</time></trkpt><trkpt lat="53.42451248417683" lon="14.773405450227687"><ele>20.0</ele><time>2026-04-06T15:38:31.001Z</time></trkpt><trkpt lat="53.424443112713945" lon="14.773224035957307"><ele>20.0</ele><time>2026-04-06T15:38:33.001Z</time></trkpt><trkpt lat="53.42442126850266" lon="14.773086994420966"><ele>20.0</ele><time>2026-04-06T15:38:34.001Z</time></trkpt><trkpt lat="53.42440010225926" lon="14.772934244981787"><ele>20.0</ele><time>2026-04-06T15:38:35.001Z</time></trkpt><trkpt lat="53.424359068516424" lon="14.772755272877054"><ele>20.0</ele><time>2026-04-06T15:38:36.001Z</time></trkpt><trkpt lat="53.424314556934604" lon="14.772553611569236"><ele>20.0</ele><time>2026-04-06T15:38:37.001Z</time></trkpt><trkpt lat="53.42426476995938" lon="14.772320192357018"><ele>20.0</ele><time>2026-04-06T15:38:38.001Z</time></trkpt><trkpt lat="53.42421919429242" lon="14.77209535547473"><ele>20.0</ele><time>2026-04-06T15:38:39.001Z</time></trkpt><trkpt lat="53.42418097991261" lon="14.771914589696818"><ele>20.0</ele><time>2026-04-06T15:38:40Z</time></trkpt><trkpt lat="53.42414758983297" lon="14.771766838851146"><ele>20.0</ele><time>2026-04-06T15:38:41Z</time></trkpt><trkpt lat="53.42411428326793" lon="14.771634341397668"><ele>20.0</ele><time>2026-04-06T15:38:42Z</time></trkpt><trkpt lat="53.42407083491929" lon="14.77151300850862"><ele>20.0</ele><time>2026-04-06T15:38:43Z</time></trkpt><trkpt lat="53.424038959176734" lon="14.77139758283946"><ele>20.2</ele><time>2026-04-06T15:38:44Z</time></trkpt><trkpt lat="53.42400396583062" lon="14.771209021335709"><ele>20.4</ele><time>2026-04-06T15:38:46Z</time></trkpt><trkpt lat="53.42398330568962" lon="14.77108663768014"><ele>20.6</ele><time>2026-04-06T15:38:48Z</time></trkpt><trkpt lat="53.423923180757924" lon="14.771122552587633"><ele>20.8</ele><time>2026-04-06T15:38:50.999Z</time></trkpt><trkpt lat="53.423971573292114" lon="14.771291620493942"><ele>21.0</ele><time>2026-04-06T15:38:52.999Z</time></trkpt><trkpt lat="53.424015594240196" lon="14.7714085531581"><ele>21.0</ele><time>2026-04-06T15:38:53.999Z</time></trkpt><trkpt lat="53.4240711939184" lon="14.77151539304341"><ele>21.0</ele><time>2026-04-06T15:38:54.999Z</time></trkpt><trkpt lat="53.424146917530074" lon="14.771615019528577"><ele>21.0</ele><time>2026-04-06T15:38:56.999Z</time></trkpt><trkpt lat="53.42421339092432" lon="14.771717365838848"><ele>21.0</ele><time>2026-04-06T15:38:58.999Z</time></trkpt><trkpt lat="53.42426026067761" lon="14.771792519951653"><ele>21.0</ele><time>2026-04-06T15:38:59.999Z</time></trkpt><trkpt lat="53.424318648960565" lon="14.771956124276"><ele>21.0</ele><time>2026-04-06T15:39:01.999Z</time></trkpt><trkpt lat="53.424341171474666" lon="14.77210553691129"><ele>20.833333333333332</ele><time>2026-04-06T15:39:02.999Z</time></trkpt><trkpt lat="53.42435859793674" lon="14.772221998038955"><ele>20.666666666666668</ele><time>2026-04-06T15:39:03.999Z</time></trkpt><trkpt lat="53.42437120036951" lon="14.772353735691636"><ele>20.5</ele><time>2026-04-06T15:39:06Z</time></trkpt><trkpt lat="53.424432309565546" lon="14.77238926817995"><ele>20.333333333333336</ele><time>2026-04-06T15:40:04Z</time></trkpt><trkpt lat="53.424418177666084" lon="14.772252257416847"><ele>20.166666666666668</ele><time>2026-04-06T15:44:44.001Z</time></trkpt><trkpt lat="53.424363552336956" lon="14.772149280772751"><ele>20.0</ele><time>2026-04-06T15:44:46.001Z</time></trkpt><trkpt lat="53.42430610717746" lon="14.772076974976004"><ele>20.0</ele><time>2026-04-06T15:44:48.001Z</time></trkpt><trkpt lat="53.424229086749726" lon="14.771994468708147"><ele>20.0</ele><time>2026-04-06T15:44:51.001Z</time></trkpt><trkpt lat="53.424166079438116" lon="14.77183895253713"><ele>20.0</ele><time>2026-04-06T15:44:53.001Z</time></trkpt><trkpt lat="53.42414103859887" lon="14.771739777939235"><ele>20.0</ele><time>2026-04-06T15:44:54.001Z</time></trkpt><trkpt lat="53.42410798893265" lon="14.77162223107915"><ele>20.0</ele><time>2026-04-06T15:44:55.001Z</time></trkpt><trkpt lat="53.42407017770966" lon="14.77150457385473"><ele>20.0</ele><time>2026-04-06T15:44:56.001Z</time></trkpt><trkpt lat="53.42403423750041" lon="14.771400702300092"><ele>20.25</ele><time>2026-04-06T15:44:57.001Z</time></trkpt><trkpt lat="53.423964674677144" lon="14.771183752189044"><ele>20.5</ele><time>2026-04-06T15:44:59Z</time></trkpt><trkpt lat="53.42392206391247" lon="14.771037437800617"><ele>20.75</ele><time>2026-04-06T15:45:00Z</time></trkpt><trkpt lat="53.42386989503389" lon="14.770882298509921"><ele>21.0</ele><time>2026-04-06T15:45:01Z</time></trkpt><trkpt lat="53.423803825311786" lon="14.770722860762628"><ele>21.200000000000003</ele><time>2026-04-06T15:45:02Z</time></trkpt><trkpt lat="53.423733960361446" lon="14.770583785620026"><ele>21.400000000000002</ele><time>2026-04-06T15:45:03Z</time></trkpt><trkpt lat="53.42365591281662" lon="14.77045552239917"><ele>21.6</ele><time>2026-04-06T15:45:04Z</time></trkpt><trkpt lat="53.423570997139535" lon="14.770348107384097"><ele>21.8</ele><time>2026-04-06T15:45:05Z</time></trkpt><trkpt lat="53.42348350375921" lon="14.770262176791562"><ele>22.0</ele><time>2026-04-06T15:45:06Z</time></trkpt><trkpt lat="53.42339044881473" lon="14.770202078547285"><ele>22.0</ele><time>2026-04-06T15:45:07Z</time></trkpt><trkpt lat="53.423288233718964" lon="14.770181734426744"><ele>22.0</ele><time>2026-04-06T15:45:08Z</time></trkpt><trkpt lat="53.42319136184392" lon="14.770207829648813"><ele>22.0</ele><time>2026-04-06T15:45:09Z</time></trkpt><trkpt lat="53.423101607147" lon="14.770277276640309"><ele>22.0</ele><time>2026-04-06T15:45:10Z</time></trkpt><trkpt lat="53.42301782573039" lon="14.770374348862067"><ele>22.0</ele><time>2026-04-06T15:45:11Z</time></trkpt><trkpt lat="53.42294839277425" lon="14.770463944874614"><ele>22.333333333333332</ele><time>2026-04-06T15:45:12Z</time></trkpt><trkpt lat="53.422898235544835" lon="14.77054072429751"><ele>22.666666666666664</ele><time>2026-04-06T15:45:13Z</time></trkpt><trkpt lat="53.422848977139374" lon="14.770658597692101"><ele>23.0</ele><time>2026-04-06T15:45:15Z</time></trkpt><trkpt lat="53.42282406962668" lon="14.770800944891795"><ele>23.333333333333332</ele><time>2026-04-06T15:45:17Z</time></trkpt><trkpt lat="53.42281100092777" lon="14.770947256905448"><ele>23.666666666666668</ele><time>2026-04-06T15:45:18Z</time></trkpt><trkpt lat="53.42280483416306" lon="14.771108472775591"><ele>24.0</ele><time>2026-04-06T15:45:19Z</time></trkpt><trkpt lat="53.42280920103092" lon="14.771269229720405"><ele>24.0</ele><time>2026-04-06T15:45:20Z</time></trkpt><trkpt lat="53.42281599922278" lon="14.771430890880684"><ele>24.0</ele><time>2026-04-06T15:45:21Z</time></trkpt><trkpt lat="53.422818023056934" lon="14.771619928865043"><ele>24.0</ele><time>2026-04-06T15:45:22Z</time></trkpt><trkpt lat="53.42281826613307" lon="14.771800967940566"><ele>24.0</ele><time>2026-04-06T15:45:23Z</time></trkpt><trkpt lat="53.42281855327212" lon="14.771999868407596"><ele>24.0</ele><time>2026-04-06T15:45:24Z</time></trkpt><trkpt lat="53.42281992711792" lon="14.772194570655788"><ele>24.0</ele><time>2026-04-06T15:45:25Z</time></trkpt><trkpt lat="53.4228164333778" lon="14.772366183963717"><ele>24.0</ele><time>2026-04-06T15:45:26Z</time></trkpt><trkpt lat="53.42281346361011" lon="14.772526954643642"><ele>24.0</ele><time>2026-04-06T15:45:27Z</time></trkpt><trkpt lat="53.42280703483981" lon="14.772665362446753"><ele>24.0</ele><time>2026-04-06T15:45:28Z</time></trkpt><trkpt lat="53.42279575836574" lon="14.772782492846368"><ele>24.0</ele><time>2026-04-06T15:45:29Z</time></trkpt><trkpt lat="53.42276361797614" lon="14.772949865401754"><ele>24.2</ele><time>2026-04-06T15:45:31Z</time></trkpt><trkpt lat="53.42276302943467" lon="14.773112193104232"><ele>24.4</ele><time>2026-04-06T15:45:39Z</time></trkpt><trkpt lat="53.42285403996948" lon="14.773222010197882"><ele>24.6</ele><time>2026-04-06T15:45:41Z</time></trkpt><trkpt lat="53.42292209192466" lon="14.773255464147885"><ele>24.8</ele><time>2026-04-06T15:45:42Z</time></trkpt><trkpt lat="53.42299616198136" lon="14.773295971006107"><ele>25.0</ele><time>2026-04-06T15:45:43Z</time></trkpt><trkpt lat="53.42308530711419" lon="14.773339024544677"><ele>24.0</ele><time>2026-04-06T15:45:44Z</time></trkpt><trkpt lat="53.423188274463975" lon="14.773398804075898"><ele>23.0</ele><time>2026-04-06T15:45:45Z</time></trkpt><trkpt lat="53.4232907838402" lon="14.773465579384279"><ele>22.0</ele><time>2026-04-06T15:45:46Z</time></trkpt><trkpt lat="53.42340385695392" lon="14.77353425330966"><ele>21.0</ele><time>2026-04-06T15:45:47Z</time></trkpt><trkpt lat="53.423523187676345" lon="14.773613838695306"><ele>21.0</ele><time>2026-04-06T15:45:48Z</time></trkpt><trkpt lat="53.423652115581774" lon="14.773699333372726"><ele>21.0</ele><time>2026-04-06T15:45:49Z</time></trkpt><trkpt lat="53.423791914147856" lon="14.77378665074982"><ele>21.0</ele><time>2026-04-06T15:45:50Z</time></trkpt><trkpt lat="53.42393006030908" lon="14.773869189741736"><ele>21.0</ele><time>2026-04-06T15:45:51Z</time></trkpt><trkpt lat="53.42406764720263" lon="14.77395256754062"><ele>20.75</ele><time>2026-04-06T15:45:52Z</time></trkpt><trkpt lat="53.424188070036685" lon="14.774026473006794"><ele>20.5</ele><time>2026-04-06T15:45:53Z</time></trkpt><trkpt lat="53.424295877938555" lon="14.77408903092255"><ele>20.25</ele><time>2026-04-06T15:45:54Z</time></trkpt><trkpt lat="53.42439491591487" lon="14.774151473089457"><ele>20.0</ele><time>2026-04-06T15:45:55Z</time></trkpt><trkpt lat="53.424490499267996" lon="14.77422316989075"><ele>20.0</ele><time>2026-04-06T15:45:56Z</time></trkpt><trkpt lat="53.42456378474144" lon="14.774340923753016"><ele>20.0</ele><time>2026-04-06T15:45:57Z</time></trkpt><trkpt lat="53.42464656835636" lon="14.77444939995642"><ele>20.0</ele><time>2026-04-06T15:45:58Z</time></trkpt><trkpt lat="53.424703609986175" lon="14.774610104247433"><ele>20.0</ele><time>2026-04-06T15:45:59Z</time></trkpt><trkpt lat="53.42475249059265" lon="14.774792725136011"><ele>20.0</ele><time>2026-04-06T15:46:00Z</time></trkpt><trkpt lat="53.4247931827003" lon="14.77498714798007"><ele>18.5</ele><time>2026-04-06T15:46:01Z</time></trkpt><trkpt lat="53.42482993987886" lon="14.775189021312249"><ele>17.0</ele><time>2026-04-06T15:46:02Z</time></trkpt><trkpt lat="53.424863981509496" lon="14.775383720217814"><ele>15.5</ele><time>2026-04-06T15:46:03Z</time></trkpt><trkpt lat="53.424900251584766" lon="14.775582493586734"><ele>14.0</ele><time>2026-04-06T15:46:04Z</time></trkpt><trkpt lat="53.42494106618584" lon="14.77579486314918"><ele>14.0</ele><time>2026-04-06T15:46:05Z</time></trkpt><trkpt lat="53.424979791202766" lon="14.776015570510818"><ele>14.0</ele><time>2026-04-06T15:46:06Z</time></trkpt><trkpt lat="53.4250167326015" lon="14.776240153191683"><ele>14.0</ele><time>2026-04-06T15:46:07Z</time></trkpt><trkpt lat="53.42505150865592" lon="14.776463162019198"><ele>14.0</ele><time>2026-04-06T15:46:08Z</time></trkpt><trkpt lat="53.4250887917444" lon="14.77668439771063"><ele>15.0</ele><time>2026-04-06T15:46:09Z</time></trkpt><trkpt lat="53.425118186281786" lon="14.776888697325374"><ele>15.999999999999998</ele><time>2026-04-06T15:46:10Z</time></trkpt><trkpt lat="53.42514693868949" lon="14.777073310519574"><ele>17.0</ele><time>2026-04-06T15:46:11Z</time></trkpt><trkpt lat="53.425175538571715" lon="14.777242063727051"><ele>18.0</ele><time>2026-04-06T15:46:12Z</time></trkpt><trkpt lat="53.42519504544222" lon="14.777399048791333"><ele>19.0</ele><time>2026-04-06T15:46:13Z</time></trkpt><trkpt lat="53.425204627685176" lon="14.777543221213671"><ele>19.6</ele><time>2026-04-06T15:46:14Z</time></trkpt><trkpt lat="53.425184173628566" lon="14.777687305543934"><ele>20.2</ele><time>2026-04-06T15:46:15Z</time></trkpt><trkpt lat="53.42519475782459" lon="14.777837767663039"><ele>20.8</ele><time>2026-04-06T15:46:16Z</time></trkpt><trkpt lat="53.425204809703374" lon="14.777989570985914"><ele>21.400000000000002</ele><time>2026-04-06T15:46:17Z</time></trkpt><trkpt lat="53.42520399865322" lon="14.778186304721945"><ele>22.0</ele><time>2026-04-06T15:46:18Z</time></trkpt><trkpt lat="53.42522037233817" lon="14.778357486120445"><ele>22.0</ele><time>2026-04-06T15:46:19Z</time></trkpt><trkpt lat="53.425239370043094" lon="14.77849247665603"><ele>22.0</ele><time>2026-04-06T15:46:20Z</time></trkpt><trkpt lat="53.42526793931548" lon="14.778596962164423"><ele>22.0</ele><time>2026-04-06T15:46:21Z</time></trkpt><trkpt lat="53.425274041953585" lon="14.778743199352377"><ele>22.0</ele><time>2026-04-06T15:46:23Z</time></trkpt><trkpt lat="53.425429640547975" lon="14.778798495424006"><ele>22.0</ele><time>2026-04-06T15:46:27.001Z</time></trkpt><trkpt lat="53.425509740963214" lon="14.778783741741197"><ele>20.8</ele><time>2026-04-06T15:46:29.001Z</time></trkpt><trkpt lat="53.425617808449864" lon="14.778980174575981"><ele>19.6</ele><time>2026-04-06T15:46:35.001Z</time></trkpt><trkpt lat="53.425638180306386" lon="14.779096550819157"><ele>18.400000000000002</ele><time>2026-04-06T15:46:36.001Z</time></trkpt><trkpt lat="53.42565221087671" lon="14.779261904179869"><ele>17.200000000000003</ele><time>2026-04-06T15:46:37.001Z</time></trkpt><trkpt lat="53.42567320208821" lon="14.779449541188551"><ele>16.0</ele><time>2026-04-06T15:46:38.001Z</time></trkpt><trkpt lat="53.42570208834879" lon="14.779667441267115"><ele>16.0</ele><time>2026-04-06T15:46:39.001Z</time></trkpt><trkpt lat="53.42573597819342" lon="14.779896491228124"><ele>16.0</ele><time>2026-04-06T15:46:40.001Z</time></trkpt><trkpt lat="53.425775304319146" lon="14.780143108424793"><ele>16.0</ele><time>2026-04-06T15:46:41.001Z</time></trkpt><trkpt lat="53.42580954000211" lon="14.780391891841868"><ele>16.0</ele><time>2026-04-06T15:46:42.001Z</time></trkpt><trkpt lat="53.42584307284485" lon="14.780671554924286"><ele>16.333333333333332</ele><time>2026-04-06T15:46:43.001Z</time></trkpt><trkpt lat="53.42587680354763" lon="14.78095786703436"><ele>16.666666666666668</ele><time>2026-04-06T15:46:44.001Z</time></trkpt><trkpt lat="53.42590713362758" lon="14.78125326365628"><ele>17.0</ele><time>2026-04-06T15:46:45.001Z</time></trkpt><trkpt lat="53.42593946194926" lon="14.781535558200527"><ele>17.0</ele><time>2026-04-06T15:46:46.001Z</time></trkpt><trkpt lat="53.425987505587095" lon="14.781822144084687"><ele>17.0</ele><time>2026-04-06T15:46:47.001Z</time></trkpt><trkpt lat="53.426006441117494" lon="14.782126087315348"><ele>17.0</ele><time>2026-04-06T15:46:48.001Z</time></trkpt><trkpt lat="53.426039350095856" lon="14.782414214758616"><ele>17.0</ele><time>2026-04-06T15:46:49.001Z</time></trkpt><trkpt lat="53.42607679211094" lon="14.782702600756746"><ele>17.0</ele><time>2026-04-06T15:46:50.001Z</time></trkpt><trkpt lat="53.42611885536604" lon="14.783003650933816"><ele>17.0</ele><time>2026-04-06T15:46:51.001Z</time></trkpt><trkpt lat="53.42615875215814" lon="14.78331019043451"><ele>18.0</ele><time>2026-04-06T15:46:52.001Z</time></trkpt><trkpt lat="53.42618408449958" lon="14.783620393022803"><ele>19.0</ele><time>2026-04-06T15:46:53.001Z</time></trkpt><trkpt lat="53.42620638845725" lon="14.783942107826912"><ele>20.0</ele><time>2026-04-06T15:46:54.001Z</time></trkpt><trkpt lat="53.426232239543545" lon="14.784245684655492"><ele>20.333333333333336</ele><time>2026-04-06T15:46:55.001Z</time></trkpt><trkpt lat="53.42625726258385" lon="14.784558640618878"><ele>20.666666666666668</ele><time>2026-04-06T15:46:56.001Z</time></trkpt><trkpt lat="53.42627815304335" lon="14.784865043345423"><ele>21.0</ele><time>2026-04-06T15:46:57.001Z</time></trkpt><trkpt lat="53.42629765396597" lon="14.785179458183253"><ele>19.666666666666668</ele><time>2026-04-06T15:46:58.001Z</time></trkpt><trkpt lat="53.42631418528675" lon="14.785487174364725"><ele>18.333333333333336</ele><time>2026-04-06T15:46:59.001Z</time></trkpt><trkpt lat="53.42632626565536" lon="14.785781996232792"><ele>17.0</ele><time>2026-04-06T15:47:00.001Z</time></trkpt><trkpt lat="53.42633742541719" lon="14.786058181463074"><ele>16.666666666666668</ele><time>2026-04-06T15:47:01.001Z</time></trkpt><trkpt lat="53.42635575264487" lon="14.786332675358604"><ele>16.333333333333332</ele><time>2026-04-06T15:47:02.001Z</time></trkpt><trkpt lat="53.42637115655036" lon="14.786602115076384"><ele>16.0</ele><time>2026-04-06T15:47:03.001Z</time></trkpt><trkpt lat="53.426384702138655" lon="14.786862990462254"><ele>16.0</ele><time>2026-04-06T15:47:04.001Z</time></trkpt><trkpt lat="53.42640106412944" lon="14.787124814790873"><ele>16.0</ele><time>2026-04-06T15:47:05.001Z</time></trkpt><trkpt lat="53.426412093534196" lon="14.787376632631554"><ele>16.0</ele><time>2026-04-06T15:47:06.001Z</time></trkpt><trkpt lat="53.426422275475296" lon="14.787605634262663"><ele>16.0</ele><time>2026-04-06T15:47:07.001Z</time></trkpt><trkpt lat="53.42643520674916" lon="14.787822314775378"><ele>15.999999999999998</ele><time>2026-04-06T15:47:08.001Z</time></trkpt><trkpt lat="53.42644550051048" lon="14.788020530679987"><ele>16.0</ele><time>2026-04-06T15:47:09.001Z</time></trkpt><trkpt lat="53.42645351874614" lon="14.788193103944613"><ele>16.0</ele><time>2026-04-06T15:47:10.001Z</time></trkpt><trkpt lat="53.42646091376524" lon="14.788341087000878"><ele>16.0</ele><time>2026-04-06T15:47:11.001Z</time></trkpt><trkpt lat="53.42646678404954" lon="14.788453716183488"><ele>15.999999999999998</ele><time>2026-04-06T15:47:12.001Z</time></trkpt><trkpt lat="53.42649526639747" lon="14.78854817274669"><ele>16.0</ele><time>2026-04-06T15:47:14.001Z</time></trkpt><trkpt lat="53.426555492060956" lon="14.788651651513659"><ele>16.0</ele><time>2026-04-06T15:47:31.001Z</time></trkpt><trkpt lat="53.42662635183722" lon="14.788486083750179"><ele>16.0</ele><time>2026-04-06T15:47:34.001Z</time></trkpt><trkpt lat="53.42663935535233" lon="14.788378277387835"><ele>16.0</ele><time>2026-04-06T15:47:35.001Z</time></trkpt><trkpt lat="53.42663117032653" lon="14.788233682919747"><ele>16.0</ele><time>2026-04-06T15:47:36.001Z</time></trkpt><trkpt lat="53.4266203272361" lon="14.788056485631433"><ele>16.0</ele><time>2026-04-06T15:47:37.001Z</time></trkpt><trkpt lat="53.42660719123692" lon="14.787846730321993"><ele>15.75</ele><time>2026-04-06T15:47:38.001Z</time></trkpt><trkpt lat="53.426595190766385" lon="14.787641128019956"><ele>15.5</ele><time>2026-04-06T15:47:39.001Z</time></trkpt><trkpt lat="53.42658408132058" lon="14.78741239367004"><ele>15.25</ele><time>2026-04-06T15:47:40.001Z</time></trkpt><trkpt lat="53.426572120805524" lon="14.787154574424694"><ele>15.0</ele><time>2026-04-06T15:47:41.001Z</time></trkpt><trkpt lat="53.426557325679106" lon="14.786904232497891"><ele>15.333333333333332</ele><time>2026-04-06T15:47:42.001Z</time></trkpt><trkpt lat="53.42654255154907" lon="14.786641745595615"><ele>15.666666666666666</ele><time>2026-04-06T15:47:43.001Z</time></trkpt><trkpt lat="53.42652723496934" lon="14.786369452347369"><ele>16.0</ele><time>2026-04-06T15:47:44.001Z</time></trkpt><trkpt lat="53.42651238621353" lon="14.786087613014887"><ele>16.333333333333332</ele><time>2026-04-06T15:47:45.001Z</time></trkpt><trkpt lat="53.42650046164345" lon="14.785800269385676"><ele>16.666666666666668</ele><time>2026-04-06T15:47:46.001Z</time></trkpt><trkpt lat="53.42648849616701" lon="14.78549982223921"><ele>17.0</ele><time>2026-04-06T15:47:47.001Z</time></trkpt><trkpt lat="53.42647000690304" lon="14.785194142808997"><ele>17.333333333333336</ele><time>2026-04-06T15:47:48.001Z</time></trkpt><trkpt lat="53.42644757213158" lon="14.784901058458802"><ele>17.666666666666668</ele><time>2026-04-06T15:47:49.001Z</time></trkpt><trkpt lat="53.426423875618994" lon="14.78459563846275"><ele>18.0</ele><time>2026-04-06T15:47:50.001Z</time></trkpt><trkpt lat="53.42639901126673" lon="14.784273267185702"><ele>18.333333333333332</ele><time>2026-04-06T15:47:51.001Z</time></trkpt><trkpt lat="53.42637064841024" lon="14.783947138963741"><ele>18.666666666666664</ele><time>2026-04-06T15:47:52.001Z</time></trkpt><trkpt lat="53.42633718865875" lon="14.783615459093639"><ele>19.0</ele><time>2026-04-06T15:47:53.002Z</time></trkpt><trkpt lat="53.42630289341173" lon="14.783272794094655"><ele>18.333333333333332</ele><time>2026-04-06T15:47:54.002Z</time></trkpt><trkpt lat="53.42626781143907" lon="14.782927434823012"><ele>17.666666666666668</ele><time>2026-04-06T15:47:55.002Z</time></trkpt><trkpt lat="53.42623249017891" lon="14.782580695789822"><ele>17.0</ele><time>2026-04-06T15:47:56.002Z</time></trkpt><trkpt lat="53.42619349846373" lon="14.782232969708314"><ele>17.0</ele><time>2026-04-06T15:47:57.002Z</time></trkpt><trkpt lat="53.42615774311299" lon="14.781882484530435"><ele>17.0</ele><time>2026-04-06T15:47:58.002Z</time></trkpt><trkpt lat="53.42611965427781" lon="14.781538407349355"><ele>17.0</ele><time>2026-04-06T15:47:59.002Z</time></trkpt><trkpt lat="53.426080520638955" lon="14.78119853624187"><ele>17.0</ele><time>2026-04-06T15:48:00.002Z</time></trkpt><trkpt lat="53.42604095692523" lon="14.780859022687743"><ele>17.0</ele><time>2026-04-06T15:48:01.002Z</time></trkpt><trkpt lat="53.42599557135886" lon="14.780524893370417"><ele>17.0</ele><time>2026-04-06T15:48:02.002Z</time></trkpt><trkpt lat="53.425950025035725" lon="14.780189641904386"><ele>16.666666666666668</ele><time>2026-04-06T15:48:03.002Z</time></trkpt><trkpt lat="53.425902814409795" lon="14.7798509832765"><ele>16.333333333333332</ele><time>2026-04-06T15:48:04.002Z</time></trkpt><trkpt lat="53.42585018495624" lon="14.779514535901956"><ele>16.0</ele><time>2026-04-06T15:48:05.002Z</time></trkpt><trkpt lat="53.42580160173035" lon="14.779174391566688"><ele>16.0</ele><time>2026-04-06T15:48:06.002Z</time></trkpt><trkpt lat="53.425751521996006" lon="14.778827664529427"><ele>16.0</ele><time>2026-04-06T15:48:07.002Z</time></trkpt><trkpt lat="53.425693598833114" lon="14.778484012087771"><ele>16.0</ele><time>2026-04-06T15:48:08.002Z</time></trkpt><trkpt lat="53.42563177364113" lon="14.778139839258921"><ele>16.0</ele><time>2026-04-06T15:48:09.002Z</time></trkpt><trkpt lat="53.425564120636565" lon="14.777805924549531"><ele>16.0</ele><time>2026-04-06T15:48:10.002Z</time></trkpt><trkpt lat="53.4254965053714" lon="14.77747037967028"><ele>16.0</ele><time>2026-04-06T15:48:11.002Z</time></trkpt><trkpt lat="53.425435853592084" lon="14.777135725220576"><ele>16.0</ele><time>2026-04-06T15:48:12.002Z</time></trkpt><trkpt lat="53.42537559870314" lon="14.776799107402272"><ele>16.0</ele><time>2026-04-06T15:48:13.002Z</time></trkpt><trkpt lat="53.425321338618126" lon="14.776469469248193"><ele>16.0</ele><time>2026-04-06T15:48:14.002Z</time></trkpt><trkpt lat="53.42527507115676" lon="14.776134612246308"><ele>15.666666666666666</ele><time>2026-04-06T15:48:15.002Z</time></trkpt><trkpt lat="53.42523965411726" lon="14.775792514478535"><ele>15.333333333333332</ele><time>2026-04-06T15:48:16.002Z</time></trkpt><trkpt lat="53.425216840197706" lon="14.775443737630555"><ele>15.0</ele><time>2026-04-06T15:48:17.002Z</time></trkpt><trkpt lat="53.42522098369359" lon="14.775088853915587"><ele>15.0</ele><time>2026-04-06T15:48:18.002Z</time></trkpt><trkpt lat="53.42520802280881" lon="14.774739369335101"><ele>15.0</ele><time>2026-04-06T15:48:19.002Z</time></trkpt><trkpt lat="53.42522426580599" lon="14.774399563691038"><ele>15.0</ele><time>2026-04-06T15:48:20.002Z</time></trkpt><trkpt lat="53.42525518123908" lon="14.774062551783631"><ele>15.666666666666668</ele><time>2026-04-06T15:48:21.002Z</time></trkpt><trkpt lat="53.42529547080831" lon="14.77372487874907"><ele>16.333333333333336</ele><time>2026-04-06T15:48:22.002Z</time></trkpt><trkpt lat="53.42534426880365" lon="14.773390876361136"><ele>17.0</ele><time>2026-04-06T15:48:23.002Z</time></trkpt><trkpt lat="53.42540424365474" lon="14.773055818598937"><ele>17.333333333333336</ele><time>2026-04-06T15:48:24.002Z</time></trkpt><trkpt lat="53.42547367328498" lon="14.772721118334502"><ele>17.666666666666668</ele><time>2026-04-06T15:48:25.002Z</time></trkpt><trkpt lat="53.425551857216576" lon="14.772402347627962"><ele>18.0</ele><time>2026-04-06T15:48:26.002Z</time></trkpt><trkpt lat="53.425637640236936" lon="14.772099695803668"><ele>19.333333333333332</ele><time>2026-04-06T15:48:27.002Z</time></trkpt><trkpt lat="53.425737315100825" lon="14.771822202805653"><ele>20.666666666666664</ele><time>2026-04-06T15:48:28.002Z</time></trkpt><trkpt lat="53.42584148120462" lon="14.771561895870612"><ele>22.0</ele><time>2026-04-06T15:48:29.002Z</time></trkpt><trkpt lat="53.42593998892719" lon="14.771291119727744"><ele>22.0</ele><time>2026-04-06T15:48:30.002Z</time></trkpt><trkpt lat="53.426035146440405" lon="14.771018349695645"><ele>22.0</ele><time>2026-04-06T15:48:31.002Z</time></trkpt><trkpt lat="53.42613041930347" lon="14.770745699723452"><ele>22.0</ele><time>2026-04-06T15:48:32.002Z</time></trkpt><trkpt lat="53.42621990409621" lon="14.770482326076754"><ele>22.0</ele><time>2026-04-06T15:48:33.002Z</time></trkpt><trkpt lat="53.42631309925877" lon="14.770222068161683"><ele>22.0</ele><time>2026-04-06T15:48:34.002Z</time></trkpt><trkpt lat="53.42640404841396" lon="14.769973868369076"><ele>22.0</ele><time>2026-04-06T15:48:35.002Z</time></trkpt><trkpt lat="53.426492896048934" lon="14.769725163598599"><ele>22.0</ele><time>2026-04-06T15:48:36.002Z</time></trkpt><trkpt lat="53.426579639381615" lon="14.769468279986633"><ele>22.0</ele><time>2026-04-06T15:48:37.002Z</time></trkpt><trkpt lat="53.42667062298617" lon="14.769204045816833"><ele>22.0</ele><time>2026-04-06T15:48:38.002Z</time></trkpt><trkpt lat="53.42675773687665" lon="14.768938066211692"><ele>22.0</ele><time>2026-04-06T15:48:39.002Z</time></trkpt><trkpt lat="53.426826736451865" lon="14.768667202251212"><ele>22.0</ele><time>2026-04-06T15:48:40.002Z</time></trkpt><trkpt lat="53.42686367693071" lon="14.768372065742065"><ele>22.0</ele><time>2026-04-06T15:48:41.002Z</time></trkpt><trkpt lat="53.426862117440294" lon="14.76807558423078"><ele>22.0</ele><time>2026-04-06T15:48:42.002Z</time></trkpt><trkpt lat="53.426827454981485" lon="14.767776797288636"><ele>22.0</ele><time>2026-04-06T15:48:43.002Z</time></trkpt><trkpt lat="53.42676064676509" lon="14.767495511690697"><ele>22.0</ele><time>2026-04-06T15:48:44.002Z</time></trkpt><trkpt lat="53.42666740064855" lon="14.767250242332295"><ele>22.0</ele><time>2026-04-06T15:48:45.002Z</time></trkpt><trkpt lat="53.426561940451386" lon="14.767025540092149"><ele>22.0</ele><time>2026-04-06T15:48:46.002Z</time></trkpt><trkpt lat="53.42642902975488" lon="14.766838898504812"><ele>22.0</ele><time>2026-04-06T15:48:47.002Z</time></trkpt><trkpt lat="53.4262763584781" lon="14.766689424756724"><ele>21.666666666666664</ele><time>2026-04-06T15:48:48.002Z</time></trkpt><trkpt lat="53.42610209771176" lon="14.76660862982155"><ele>21.333333333333332</ele><time>2026-04-06T15:48:49.002Z</time></trkpt><trkpt lat="53.42591785957887" lon="14.766575758785711"><ele>21.0</ele><time>2026-04-06T15:48:50.002Z</time></trkpt><trkpt lat="53.42574103964422" lon="14.766586384465294"><ele>21.0</ele><time>2026-04-06T15:48:51.002Z</time></trkpt><trkpt lat="53.425579296531126" lon="14.766665806679383"><ele>21.0</ele><time>2026-04-06T15:48:52.002Z</time></trkpt><trkpt lat="53.42543405664721" lon="14.766767973284296"><ele>21.0</ele><time>2026-04-06T15:48:53.002Z</time></trkpt><trkpt lat="53.42530132459396" lon="14.766877429199619"><ele>21.25</ele><time>2026-04-06T15:48:54.002Z</time></trkpt><trkpt lat="53.425174852972546" lon="14.766987485113516"><ele>21.5</ele><time>2026-04-06T15:48:55.002Z</time></trkpt><trkpt lat="53.42504524081733" lon="14.767097635125248"><ele>21.75</ele><time>2026-04-06T15:48:56.002Z</time></trkpt><trkpt lat="53.42490492159967" lon="14.76718626221544"><ele>22.0</ele><time>2026-04-06T15:48:57.002Z</time></trkpt><trkpt lat="53.42475774625901" lon="14.76724825316328"><ele>22.0</ele><time>2026-04-06T15:48:58.002Z</time></trkpt><trkpt lat="53.42460292127986" lon="14.767285581417978"><ele>22.0</ele><time>2026-04-06T15:48:59.002Z</time></trkpt><trkpt lat="53.42444122726113" lon="14.767317225447915"><ele>22.0</ele><time>2026-04-06T15:49:00.002Z</time></trkpt><trkpt lat="53.42427364468016" lon="14.767299739436886"><ele>22.0</ele><time>2026-04-06T15:49:01.002Z</time></trkpt><trkpt lat="53.42410866396938" lon="14.76725637476213"><ele>22.0</ele><time>2026-04-06T15:49:02.002Z</time></trkpt><trkpt lat="53.423944049549156" lon="14.767170706819982"><ele>22.0</ele><time>2026-04-06T15:49:03.002Z</time></trkpt><trkpt lat="53.42378908355214" lon="14.767051591587979"><ele>21.666666666666664</ele><time>2026-04-06T15:49:04.002Z</time></trkpt><trkpt lat="53.42363919933485" lon="14.766906033581742"><ele>21.333333333333332</ele><time>2026-04-06T15:49:05.002Z</time></trkpt><trkpt lat="53.42349217080007" lon="14.766730932304226"><ele>21.0</ele><time>2026-04-06T15:49:06.002Z</time></trkpt><trkpt lat="53.42333848381498" lon="14.766565432289166"><ele>21.0</ele><time>2026-04-06T15:49:07.002Z</time></trkpt><trkpt lat="53.4232155631678" lon="14.766311482482868"><ele>21.0</ele><time>2026-04-06T15:49:08.002Z</time></trkpt><trkpt lat="53.42308247998959" lon="14.766077113195758"><ele>21.0</ele><time>2026-04-06T15:49:09.002Z</time></trkpt><trkpt lat="53.422946679945255" lon="14.765835739425034"><ele>20.666666666666668</ele><time>2026-04-06T15:49:10.002Z</time></trkpt><trkpt lat="53.42280629390201" lon="14.765591346760875"><ele>20.333333333333336</ele><time>2026-04-06T15:49:11.002Z</time></trkpt><trkpt lat="53.42266369740798" lon="14.76533408342841"><ele>20.0</ele><time>2026-04-06T15:49:12.002Z</time></trkpt><trkpt lat="53.42252021122819" lon="14.765068985390096"><ele>20.0</ele><time>2026-04-06T15:49:13.002Z</time></trkpt><trkpt lat="53.42237990925632" lon="14.764791579660157"><ele>20.0</ele><time>2026-04-06T15:49:14.002Z</time></trkpt><trkpt lat="53.422245720936566" lon="14.76450349664938"><ele>20.0</ele><time>2026-04-06T15:49:15.002Z</time></trkpt><trkpt lat="53.42211912779013" lon="14.764228935089502"><ele>20.0</ele><time>2026-04-06T15:49:16.002Z</time></trkpt><trkpt lat="53.42199895368217" lon="14.763957404285424"><ele>20.0</ele><time>2026-04-06T15:49:17.002Z</time></trkpt><trkpt lat="53.421876898054634" lon="14.763667045643116"><ele>20.0</ele><time>2026-04-06T15:49:18.002Z</time></trkpt><trkpt lat="53.42174813726606" lon="14.76335108660257"><ele>20.0</ele><time>2026-04-06T15:49:19.002Z</time></trkpt><trkpt lat="53.42161273154851" lon="14.763014109060034"><ele>20.0</ele><time>2026-04-06T15:49:20.002Z</time></trkpt><trkpt lat="53.42148185609088" lon="14.762674806157777"><ele>20.0</ele><time>2026-04-06T15:49:21.003Z</time></trkpt><trkpt lat="53.4213548194548" lon="14.762336843476783"><ele>20.0</ele><time>2026-04-06T15:49:22.003Z</time></trkpt><trkpt lat="53.421231839070956" lon="14.761992914546804"><ele>19.0</ele><time>2026-04-06T15:49:23.003Z</time></trkpt><trkpt lat="53.42110900074676" lon="14.761646345954848"><ele>18.0</ele><time>2026-04-06T15:49:24.003Z</time></trkpt><trkpt lat="53.420986610089464" lon="14.76129821949342"><ele>18.0</ele><time>2026-04-06T15:49:25.003Z</time></trkpt><trkpt lat="53.420867110300165" lon="14.76094986296953"><ele>18.0</ele><time>2026-04-06T15:49:26.003Z</time></trkpt><trkpt lat="53.42075210874446" lon="14.760598557810209"><ele>18.0</ele><time>2026-04-06T15:49:27.003Z</time></trkpt><trkpt lat="53.42063640812462" lon="14.760247839898348"><ele>18.0</ele><time>2026-04-06T15:49:28.003Z</time></trkpt><trkpt lat="53.4205195885286" lon="14.75989270492774"><ele>19.0</ele><time>2026-04-06T15:49:29.003Z</time></trkpt><trkpt lat="53.42040428950818" lon="14.759536783936005"><ele>20.0</ele><time>2026-04-06T15:49:30.003Z</time></trkpt><trkpt lat="53.42029255726089" lon="14.75918391873416"><ele>20.0</ele><time>2026-04-06T15:49:31.003Z</time></trkpt><trkpt lat="53.42018397231247" lon="14.758842757742519"><ele>20.0</ele><time>2026-04-06T15:49:32.003Z</time></trkpt><trkpt lat="53.42007226294138" lon="14.758485165576193"><ele>19.0</ele><time>2026-04-06T15:49:33.003Z</time></trkpt><trkpt lat="53.41995279220175" lon="14.758107289816948"><ele>18.0</ele><time>2026-04-06T15:49:34.003Z</time></trkpt><trkpt lat="53.41982237168382" lon="14.757715835972425"><ele>18.0</ele><time>2026-04-06T15:49:35.003Z</time></trkpt><trkpt lat="53.419693288286226" lon="14.757336538117253"><ele>18.0</ele><time>2026-04-06T15:49:36.003Z</time></trkpt><trkpt lat="53.419566912631446" lon="14.756961885258184"><ele>18.5</ele><time>2026-04-06T15:49:37.003Z</time></trkpt><trkpt lat="53.41944589470475" lon="14.75659787261199"><ele>19.0</ele><time>2026-04-06T15:49:38.003Z</time></trkpt><trkpt lat="53.41932728923198" lon="14.756241156575527"><ele>18.0</ele><time>2026-04-06T15:49:39.003Z</time></trkpt><trkpt lat="53.41921143664557" lon="14.75588884068263"><ele>17.0</ele><time>2026-04-06T15:49:40.003Z</time></trkpt><trkpt lat="53.41909785563108" lon="14.755530715827557"><ele>18.0</ele><time>2026-04-06T15:49:41.003Z</time></trkpt><trkpt lat="53.41898104668491" lon="14.755175272064129"><ele>19.0</ele><time>2026-04-06T15:49:42.003Z</time></trkpt><trkpt lat="53.41886438984722" lon="14.754818943214334"><ele>19.5</ele><time>2026-04-06T15:49:43.003Z</time></trkpt><trkpt lat="53.41874964106922" lon="14.754456087987059"><ele>20.0</ele><time>2026-04-06T15:49:44.003Z</time></trkpt><trkpt lat="53.4186326988323" lon="14.754095171069862"><ele>20.0</ele><time>2026-04-06T15:49:45.003Z</time></trkpt><trkpt lat="53.41851259721101" lon="14.753733944821576"><ele>20.0</ele><time>2026-04-06T15:49:46.003Z</time></trkpt><trkpt lat="53.41839641043691" lon="14.753363673213736"><ele>19.5</ele><time>2026-04-06T15:49:47.003Z</time></trkpt><trkpt lat="53.41827717596512" lon="14.752996876346428"><ele>19.0</ele><time>2026-04-06T15:49:48.003Z</time></trkpt><trkpt lat="53.418155860496576" lon="14.75263940066773"><ele>18.5</ele><time>2026-04-06T15:49:49.003Z</time></trkpt><trkpt lat="53.41803646516" lon="14.752283237895993"><ele>18.0</ele><time>2026-04-06T15:49:50.003Z</time></trkpt><trkpt lat="53.41791896845458" lon="14.751921283236854"><ele>19.5</ele><time>2026-04-06T15:49:51.003Z</time></trkpt><trkpt lat="53.41780083957831" lon="14.751558663690663"><ele>21.0</ele><time>2026-04-06T15:49:52.003Z</time></trkpt><trkpt lat="53.417683346930346" lon="14.75119804926586"><ele>21.5</ele><time>2026-04-06T15:49:53.003Z</time></trkpt><trkpt lat="53.41756715594814" lon="14.750839087963229"><ele>22.0</ele><time>2026-04-06T15:49:54.003Z</time></trkpt><trkpt lat="53.41745094021841" lon="14.750479660970406"><ele>21.5</ele><time>2026-04-06T15:49:55.003Z</time></trkpt><trkpt lat="53.417335088083355" lon="14.75011606680574"><ele>21.0</ele><time>2026-04-06T15:49:56.003Z</time></trkpt><trkpt lat="53.41721948317258" lon="14.749754577412473"><ele>21.5</ele><time>2026-04-06T15:49:57.003Z</time></trkpt><trkpt lat="53.41710441276128" lon="14.749395383261321"><ele>22.0</ele><time>2026-04-06T15:49:58.003Z</time></trkpt><trkpt lat="53.41699020501213" lon="14.749042794665527"><ele>21.0</ele><time>2026-04-06T15:49:59.003Z</time></trkpt><trkpt lat="53.41687695330167" lon="14.748689824393745"><ele>20.0</ele><time>2026-04-06T15:50:00.003Z</time></trkpt><trkpt lat="53.416762142916674" lon="14.748336906275645"><ele>18.5</ele><time>2026-04-06T15:50:01.003Z</time></trkpt><trkpt lat="53.41664764928292" lon="14.747979590413474"><ele>17.0</ele><time>2026-04-06T15:50:02.003Z</time></trkpt><trkpt lat="53.41653357635962" lon="14.747625278415267"><ele>17.0</ele><time>2026-04-06T15:50:03.003Z</time></trkpt><trkpt lat="53.41641608938395" lon="14.747270794311977"><ele>17.0</ele><time>2026-04-06T15:50:04.003Z</time></trkpt><trkpt lat="53.41629877283045" lon="14.746908172335402"><ele>17.0</ele><time>2026-04-06T15:50:05.003Z</time></trkpt><trkpt lat="53.41618050697012" lon="14.746548929408632"><ele>17.0</ele><time>2026-04-06T15:50:06.003Z</time></trkpt><trkpt lat="53.41606207700812" lon="14.746189431514305"><ele>16.5</ele><time>2026-04-06T15:50:07.003Z</time></trkpt><trkpt lat="53.41594569992921" lon="14.745829241293176"><ele>16.0</ele><time>2026-04-06T15:50:08.003Z</time></trkpt><trkpt lat="53.41582772896358" lon="14.745471123442853"><ele>16.5</ele><time>2026-04-06T15:50:09.003Z</time></trkpt><trkpt lat="53.4157137455572" lon="14.745116218143936"><ele>17.0</ele><time>2026-04-06T15:50:10.003Z</time></trkpt><trkpt lat="53.415599186181986" lon="14.744759611286602"><ele>17.0</ele><time>2026-04-06T15:50:11.003Z</time></trkpt><trkpt lat="53.41548338493669" lon="14.744404934596822"><ele>17.0</ele><time>2026-04-06T15:50:12.003Z</time></trkpt><trkpt lat="53.4153680935332" lon="14.744050063677513"><ele>17.0</ele><time>2026-04-06T15:50:13.003Z</time></trkpt><trkpt lat="53.41525188824517" lon="14.74369241278894"><ele>17.0</ele><time>2026-04-06T15:50:14.003Z</time></trkpt><trkpt lat="53.415135507476606" lon="14.743337142670876"><ele>16.5</ele><time>2026-04-06T15:50:15.003Z</time></trkpt><trkpt lat="53.41502012612153" lon="14.742981971632705"><ele>16.0</ele><time>2026-04-06T15:50:16.003Z</time></trkpt><trkpt lat="53.41490491408656" lon="14.742627288531615"><ele>15.5</ele><time>2026-04-06T15:50:17.003Z</time></trkpt><trkpt lat="53.41478725855969" lon="14.742276648610192"><ele>15.0</ele><time>2026-04-06T15:50:18.003Z</time></trkpt><trkpt lat="53.41467048996778" lon="14.741925927359121"><ele>15.5</ele><time>2026-04-06T15:50:19.003Z</time></trkpt><trkpt lat="53.414555792761604" lon="14.74157796230923"><ele>16.0</ele><time>2026-04-06T15:50:20.003Z</time></trkpt><trkpt lat="53.41444507800406" lon="14.741221183343166"><ele>15.0</ele><time>2026-04-06T15:50:21.003Z</time></trkpt><trkpt lat="53.41432889946143" lon="14.740864747613466"><ele>14.0</ele><time>2026-04-06T15:50:22.003Z</time></trkpt><trkpt lat="53.41421137305463" lon="14.740506719082644"><ele>14.0</ele><time>2026-04-06T15:50:23.003Z</time></trkpt><trkpt lat="53.41409222049816" lon="14.74015368482705"><ele>14.0</ele><time>2026-04-06T15:50:24.003Z</time></trkpt><trkpt lat="53.41397512204923" lon="14.739802494199887"><ele>14.0</ele><time>2026-04-06T15:50:25.003Z</time></trkpt><trkpt lat="53.41385875085511" lon="14.73945271716052"><ele>14.0</ele><time>2026-04-06T15:50:26.003Z</time></trkpt><trkpt lat="53.41374439154826" lon="14.739104896543838"><ele>14.5</ele><time>2026-04-06T15:50:27.003Z</time></trkpt><trkpt lat="53.4136309566666" lon="14.73875350739665"><ele>15.0</ele><time>2026-04-06T15:50:28.003Z</time></trkpt><trkpt lat="53.41351650861746" lon="14.738400122762005"><ele>15.0</ele><time>2026-04-06T15:50:29.003Z</time></trkpt><trkpt lat="53.41340429507883" lon="14.738045424940866"><ele>15.0</ele><time>2026-04-06T15:50:30.003Z</time></trkpt><trkpt lat="53.41329151674051" lon="14.73769161745103"><ele>15.5</ele><time>2026-04-06T15:50:31.003Z</time></trkpt><trkpt lat="53.41317878493848" lon="14.737342268359793"><ele>16.0</ele><time>2026-04-06T15:50:32.003Z</time></trkpt><trkpt lat="53.413065184014286" lon="14.736994899111117"><ele>16.5</ele><time>2026-04-06T15:50:33.003Z</time></trkpt><trkpt lat="53.412950628692684" lon="14.736650369461234"><ele>17.0</ele><time>2026-04-06T15:50:34.003Z</time></trkpt><trkpt lat="53.41283867501719" lon="14.736305279577639"><ele>16.5</ele><time>2026-04-06T15:50:35.003Z</time></trkpt><trkpt lat="53.412723505200205" lon="14.735967261824587"><ele>16.0</ele><time>2026-04-06T15:50:36.003Z</time></trkpt><trkpt lat="53.412609875916445" lon="14.735631303555358"><ele>16.0</ele><time>2026-04-06T15:50:37.003Z</time></trkpt><trkpt lat="53.412491852378615" lon="14.735301254085961"><ele>16.0</ele><time>2026-04-06T15:50:38.003Z</time></trkpt><trkpt lat="53.41237126646358" lon="14.734974006828265"><ele>16.0</ele><time>2026-04-06T15:50:39.003Z</time></trkpt><trkpt lat="53.412248603559526" lon="14.734652024103475"><ele>16.0</ele><time>2026-04-06T15:50:40.003Z</time></trkpt><trkpt lat="53.412126120041194" lon="14.73433140386327"><ele>16.0</ele><time>2026-04-06T15:50:41.003Z</time></trkpt><trkpt lat="53.412000135388645" lon="14.734014418759196"><ele>16.0</ele><time>2026-04-06T15:50:42.003Z</time></trkpt><trkpt lat="53.41187153361146" lon="14.733700140641545"><ele>16.0</ele><time>2026-04-06T15:50:43.003Z</time></trkpt><trkpt lat="53.411741495399234" lon="14.733391871576421"><ele>16.0</ele><time>2026-04-06T15:50:44.003Z</time></trkpt><trkpt lat="53.411607759374945" lon="14.73308917472682"><ele>16.0</ele><time>2026-04-06T15:50:45.003Z</time></trkpt><trkpt lat="53.41147132950385" lon="14.732784035526226"><ele>16.0</ele><time>2026-04-06T15:50:46.003Z</time></trkpt><trkpt lat="53.41133265830636" lon="14.732475415727812"><ele>16.5</ele><time>2026-04-06T15:50:47.003Z</time></trkpt><trkpt lat="53.41118836417716" lon="14.73217424941826"><ele>17.0</ele><time>2026-04-06T15:50:48.003Z</time></trkpt><trkpt lat="53.411041428341136" lon="14.73188210977684"><ele>17.0</ele><time>2026-04-06T15:50:49.004Z</time></trkpt><trkpt lat="53.41089423175123" lon="14.731588568613663"><ele>17.0</ele><time>2026-04-06T15:50:50.004Z</time></trkpt><trkpt lat="53.410743665249264" lon="14.73129600588815"><ele>17.0</ele><time>2026-04-06T15:50:51.004Z</time></trkpt><trkpt lat="53.41059059560403" lon="14.731002447398724"><ele>17.0</ele><time>2026-04-06T15:50:52.004Z</time></trkpt><trkpt lat="53.410437618410256" lon="14.73071304368301"><ele>17.0</ele><time>2026-04-06T15:50:53.004Z</time></trkpt><trkpt lat="53.41028420431493" lon="14.730429941522193"><ele>17.0</ele><time>2026-04-06T15:50:54.004Z</time></trkpt><trkpt lat="53.410125225148484" lon="14.730150975366438"><ele>17.0</ele><time>2026-04-06T15:50:55.004Z</time></trkpt><trkpt lat="53.40996263085426" lon="14.729875243883729"><ele>17.0</ele><time>2026-04-06T15:50:56.004Z</time></trkpt><trkpt lat="53.409801305536476" lon="14.729606065844024"><ele>16.0</ele><time>2026-04-06T15:50:57.004Z</time></trkpt><trkpt lat="53.40964065970034" lon="14.729342601160491"><ele>15.0</ele><time>2026-04-06T15:50:58.004Z</time></trkpt><trkpt lat="53.40948380810857" lon="14.729092348898662"><ele>14.0</ele><time>2026-04-06T15:50:59.004Z</time></trkpt><trkpt lat="53.40932821141691" lon="14.728848339811234"><ele>14.0</ele><time>2026-04-06T15:51:00.004Z</time></trkpt><trkpt lat="53.40917447471981" lon="14.728611810178458"><ele>14.0</ele><time>2026-04-06T15:51:01.004Z</time></trkpt><trkpt lat="53.409021910087965" lon="14.728383476061397"><ele>14.0</ele><time>2026-04-06T15:51:02.004Z</time></trkpt><trkpt lat="53.408868436499596" lon="14.728157035398208"><ele>14.0</ele><time>2026-04-06T15:51:03.004Z</time></trkpt><trkpt lat="53.408711825357656" lon="14.727945211179666"><ele>14.0</ele><time>2026-04-06T15:51:04.004Z</time></trkpt><trkpt lat="53.40855481844632" lon="14.727728441696458"><ele>14.0</ele><time>2026-04-06T15:51:05.004Z</time></trkpt><trkpt lat="53.408397672071935" lon="14.72750923320998"><ele>15.0</ele><time>2026-04-06T15:51:06.004Z</time></trkpt><trkpt lat="53.40823947539065" lon="14.727293454492676"><ele>16.0</ele><time>2026-04-06T15:51:07.004Z</time></trkpt><trkpt lat="53.408077166325896" lon="14.727073680874676"><ele>17.0</ele><time>2026-04-06T15:51:08.004Z</time></trkpt><trkpt lat="53.40791443343416" lon="14.726864101595776"><ele>17.666666666666668</ele><time>2026-04-06T15:51:09.004Z</time></trkpt><trkpt lat="53.40775093350898" lon="14.726658533688342"><ele>18.333333333333332</ele><time>2026-04-06T15:51:10.004Z</time></trkpt><trkpt lat="53.4075879758416" lon="14.7264602181289"><ele>19.0</ele><time>2026-04-06T15:51:11.004Z</time></trkpt><trkpt lat="53.40742426348441" lon="14.726266083580565"><ele>19.0</ele><time>2026-04-06T15:51:12.004Z</time></trkpt><trkpt lat="53.407259984986105" lon="14.726076221228505"><ele>19.0</ele><time>2026-04-06T15:51:13.004Z</time></trkpt><trkpt lat="53.40709739297283" lon="14.72589012404929"><ele>19.0</ele><time>2026-04-06T15:51:14.004Z</time></trkpt><trkpt lat="53.406933463257666" lon="14.725710134209502"><ele>19.0</ele><time>2026-04-06T15:51:15.004Z</time></trkpt><trkpt lat="53.40676963306675" lon="14.725540739880019"><ele>19.0</ele><time>2026-04-06T15:51:16.004Z</time></trkpt><trkpt lat="53.40660428432663" lon="14.725375894126104"><ele>19.0</ele><time>2026-04-06T15:51:17.004Z</time></trkpt><trkpt lat="53.40643750930364" lon="14.725208288908009"><ele>17.333333333333332</ele><time>2026-04-06T15:51:18.004Z</time></trkpt><trkpt lat="53.406270431977276" lon="14.725045624236753"><ele>15.666666666666668</ele><time>2026-04-06T15:51:19.004Z</time></trkpt><trkpt lat="53.40610503302805" lon="14.724887225184993"><ele>14.0</ele><time>2026-04-06T15:51:20.004Z</time></trkpt><trkpt lat="53.40593992472024" lon="14.72473612143827"><ele>14.0</ele><time>2026-04-06T15:51:21.004Z</time></trkpt><trkpt lat="53.40577494963887" lon="14.724583823279637"><ele>14.0</ele><time>2026-04-06T15:51:22.004Z</time></trkpt><trkpt lat="53.40560823320988" lon="14.724416892693645"><ele>14.0</ele><time>2026-04-06T15:51:23.004Z</time></trkpt><trkpt lat="53.405433079027794" lon="14.72424955057475"><ele>11.0</ele><time>2026-04-06T15:51:24.004Z</time></trkpt><trkpt lat="53.40524696067833" lon="14.724092375924807"><ele>8.0</ele><time>2026-04-06T15:51:25.004Z</time></trkpt><trkpt lat="53.40506032162124" lon="14.723930450016688"><ele>5.0</ele><time>2026-04-06T15:51:26.004Z</time></trkpt><trkpt lat="53.40487060232854" lon="14.723766528611616"><ele>5.0</ele><time>2026-04-06T15:51:27.004Z</time></trkpt><trkpt lat="53.404683898106654" lon="14.72361166628401"><ele>5.0</ele><time>2026-04-06T15:51:28.004Z</time></trkpt><trkpt lat="53.404497674905485" lon="14.723460039041655"><ele>5.0</ele><time>2026-04-06T15:51:29.004Z</time></trkpt><trkpt lat="53.40431019276817" lon="14.723314973976263"><ele>4.333333333333334</ele><time>2026-04-06T15:51:30.004Z</time></trkpt><trkpt lat="53.40412095005792" lon="14.723175445054657"><ele>3.666666666666667</ele><time>2026-04-06T15:51:31.004Z</time></trkpt><trkpt lat="53.40392630962196" lon="14.723035076258354"><ele>3.0</ele><time>2026-04-06T15:51:32.004Z</time></trkpt><trkpt lat="53.403725388083" lon="14.722899915023197"><ele>2.6666666666666665</ele><time>2026-04-06T15:51:33.004Z</time></trkpt><trkpt lat="53.40352525326002" lon="14.722770665642564"><ele>2.333333333333333</ele><time>2026-04-06T15:51:34.004Z</time></trkpt><trkpt lat="53.40332203335382" lon="14.722649921308285"><ele>2.0</ele><time>2026-04-06T15:51:35.004Z</time></trkpt><trkpt lat="53.403115397345296" lon="14.722526054053143"><ele>2.333333333333333</ele><time>2026-04-06T15:51:36.004Z</time></trkpt><trkpt lat="53.4029096704278" lon="14.722403157533686"><ele>2.6666666666666665</ele><time>2026-04-06T15:51:37.004Z</time></trkpt><trkpt lat="53.40270236397769" lon="14.722286800381903"><ele>3.0</ele><time>2026-04-06T15:51:38.004Z</time></trkpt><trkpt lat="53.402493892305124" lon="14.722172802631377"><ele>3.0</ele><time>2026-04-06T15:51:39.004Z</time></trkpt><trkpt lat="53.402284811931075" lon="14.722060975144784"><ele>3.0</ele><time>2026-04-06T15:51:40.004Z</time></trkpt><trkpt lat="53.40207826129826" lon="14.7219552615194"><ele>3.0</ele><time>2026-04-06T15:51:41.004Z</time></trkpt><trkpt lat="53.401878438326506" lon="14.721852344699123"><ele>2.6666666666666665</ele><time>2026-04-06T15:51:42.004Z</time></trkpt><trkpt lat="53.40168100244188" lon="14.721748318364122"><ele>2.333333333333333</ele><time>2026-04-06T15:51:43.004Z</time></trkpt><trkpt lat="53.401488137773754" lon="14.721647173561987"><ele>2.0</ele><time>2026-04-06T15:51:44.004Z</time></trkpt><trkpt lat="53.40130209847539" lon="14.721552195816384"><ele>2.0</ele><time>2026-04-06T15:51:45.004Z</time></trkpt><trkpt lat="53.401115218777974" lon="14.721463791097374"><ele>2.0</ele><time>2026-04-06T15:51:46.004Z</time></trkpt><trkpt lat="53.4009266910158" lon="14.7213752992801"><ele>2.0</ele><time>2026-04-06T15:51:47.004Z</time></trkpt><trkpt lat="53.40073951358754" lon="14.721276221111056"><ele>2.0</ele><time>2026-04-06T15:51:48.004Z</time></trkpt><trkpt lat="53.40055403341715" lon="14.721168528018424"><ele>2.0</ele><time>2026-04-06T15:51:49.004Z</time></trkpt><trkpt lat="53.40036744567908" lon="14.721062965073765"><ele>2.0</ele><time>2026-04-06T15:51:50.004Z</time></trkpt><trkpt lat="53.40018343061573" lon="14.72095806093978"><ele>2.333333333333333</ele><time>2026-04-06T15:51:51.004Z</time></trkpt><trkpt lat="53.4000003978147" lon="14.72085886063906"><ele>2.6666666666666665</ele><time>2026-04-06T15:51:52.004Z</time></trkpt><trkpt lat="53.39981939527494" lon="14.72076976761617"><ele>3.0</ele><time>2026-04-06T15:51:53.004Z</time></trkpt><trkpt lat="53.39964176679351" lon="14.720682347666276"><ele>4.333333333333334</ele><time>2026-04-06T15:51:54.004Z</time></trkpt><trkpt lat="53.39946092805542" lon="14.720587789504355"><ele>5.666666666666667</ele><time>2026-04-06T15:51:55.004Z</time></trkpt><trkpt lat="53.399280128203195" lon="14.720493203995959"><ele>7.0</ele><time>2026-04-06T15:51:56.004Z</time></trkpt><trkpt lat="53.39910733647309" lon="14.72040524608885"><ele>7.0</ele><time>2026-04-06T15:51:57.004Z</time></trkpt><trkpt lat="53.39894336593529" lon="14.720330027392375"><ele>7.0</ele><time>2026-04-06T15:51:58.004Z</time></trkpt><trkpt lat="53.39878209313925" lon="14.720247263126408"><ele>7.0</ele><time>2026-04-06T15:51:59.004Z</time></trkpt><trkpt lat="53.39861954975635" lon="14.720170420525132"><ele>8.333333333333334</ele><time>2026-04-06T15:52:00.004Z</time></trkpt><trkpt lat="53.39845813835159" lon="14.720091977795436"><ele>9.666666666666666</ele><time>2026-04-06T15:52:01.004Z</time></trkpt><trkpt lat="53.39828828612416" lon="14.720009820951645"><ele>11.0</ele><time>2026-04-06T15:52:02.004Z</time></trkpt><trkpt lat="53.39812056092397" lon="14.719919084097677"><ele>11.0</ele><time>2026-04-06T15:52:03.004Z</time></trkpt><trkpt lat="53.397947968055846" lon="14.719826372744896"><ele>11.0</ele><time>2026-04-06T15:52:04.004Z</time></trkpt><trkpt lat="53.397770031814886" lon="14.719739232588493"><ele>11.0</ele><time>2026-04-06T15:52:05.004Z</time></trkpt><trkpt lat="53.39759052577674" lon="14.719649143370743"><ele>11.0</ele><time>2026-04-06T15:52:06.004Z</time></trkpt><trkpt lat="53.39740926957831" lon="14.719549977780677"><ele>11.0</ele><time>2026-04-06T15:52:07.004Z</time></trkpt><trkpt lat="53.39722350692915" lon="14.719450360570885"><ele>11.0</ele><time>2026-04-06T15:52:08.004Z</time></trkpt><trkpt lat="53.397032561866666" lon="14.719357526938737"><ele>11.333333333333332</ele><time>2026-04-06T15:52:09.004Z</time></trkpt><trkpt lat="53.39683836030089" lon="14.719254178510061"><ele>11.666666666666666</ele><time>2026-04-06T15:52:10.004Z</time></trkpt><trkpt lat="53.39664347752592" lon="14.71914521717331"><ele>12.0</ele><time>2026-04-06T15:52:11.004Z</time></trkpt><trkpt lat="53.396438551160735" lon="14.71903054963152"><ele>11.0</ele><time>2026-04-06T15:52:12.004Z</time></trkpt><trkpt lat="53.39623301336956" lon="14.718917215943335"><ele>10.0</ele><time>2026-04-06T15:52:13.004Z</time></trkpt><trkpt lat="53.39602392055884" lon="14.718803931645702"><ele>9.0</ele><time>2026-04-06T15:52:14.004Z</time></trkpt><trkpt lat="53.395807875078255" lon="14.718693754089202"><ele>9.0</ele><time>2026-04-06T15:52:15.004Z</time></trkpt><trkpt lat="53.39559528566467" lon="14.718581849469357"><ele>9.0</ele><time>2026-04-06T15:52:16.004Z</time></trkpt><trkpt lat="53.39538280562895" lon="14.71846745682467"><ele>9.0</ele><time>2026-04-06T15:52:17.005Z</time></trkpt><trkpt lat="53.3951708096514" lon="14.718353040501029"><ele>9.333333333333334</ele><time>2026-04-06T15:52:18.005Z</time></trkpt><trkpt lat="53.3949615079147" lon="14.718243075758188"><ele>9.666666666666668</ele><time>2026-04-06T15:52:19.005Z</time></trkpt><trkpt lat="53.39475048761494" lon="14.718133589665408"><ele>10.0</ele><time>2026-04-06T15:52:20.005Z</time></trkpt><trkpt lat="53.39453988292377" lon="14.718017565720025"><ele>10.333333333333334</ele><time>2026-04-06T15:52:21.005Z</time></trkpt><trkpt lat="53.39432542007147" lon="14.71790176162998"><ele>10.666666666666666</ele><time>2026-04-06T15:52:22.005Z</time></trkpt><trkpt lat="53.39411552261757" lon="14.717791209509123"><ele>11.0</ele><time>2026-04-06T15:52:23.005Z</time></trkpt><trkpt lat="53.39390504069563" lon="14.717680207366584"><ele>11.5</ele><time>2026-04-06T15:52:24.005Z</time></trkpt><trkpt lat="53.39369026015488" lon="14.717571336773952"><ele>12.0</ele><time>2026-04-06T15:52:25.005Z</time></trkpt><trkpt lat="53.393473270642076" lon="14.717462595599969"><ele>12.0</ele><time>2026-04-06T15:52:26.005Z</time></trkpt><trkpt lat="53.393253391556584" lon="14.7173526441037"><ele>12.0</ele><time>2026-04-06T15:52:27.005Z</time></trkpt><trkpt lat="53.39303249209675" lon="14.717241265630221"><ele>11.0</ele><time>2026-04-06T15:52:28.005Z</time></trkpt><trkpt lat="53.39281051182842" lon="14.71713005758644"><ele>10.0</ele><time>2026-04-06T15:52:29.005Z</time></trkpt><trkpt lat="53.39258870089679" lon="14.717017871601646"><ele>10.5</ele><time>2026-04-06T15:52:30.005Z</time></trkpt><trkpt lat="53.3923694101526" lon="14.716898871417635"><ele>11.0</ele><time>2026-04-06T15:52:31.005Z</time></trkpt><trkpt lat="53.39214853150846" lon="14.716778738936073"><ele>11.0</ele><time>2026-04-06T15:52:32.005Z</time></trkpt><trkpt lat="53.39192625973007" lon="14.716657975032819"><ele>11.0</ele><time>2026-04-06T15:52:33.005Z</time></trkpt><trkpt lat="53.391705847595794" lon="14.716540932375686"><ele>11.0</ele><time>2026-04-06T15:52:34.005Z</time></trkpt><trkpt lat="53.391483344539274" lon="14.716422406785648"><ele>11.0</ele><time>2026-04-06T15:52:35.005Z</time></trkpt><trkpt lat="53.39126214238435" lon="14.716305335696365"><ele>11.0</ele><time>2026-04-06T15:52:36.005Z</time></trkpt><trkpt lat="53.3910437770732" lon="14.716192764228593"><ele>11.0</ele><time>2026-04-06T15:52:37.005Z</time></trkpt><trkpt lat="53.390825281854305" lon="14.71607766922527"><ele>11.5</ele><time>2026-04-06T15:52:38.005Z</time></trkpt><trkpt lat="53.39060686491675" lon="14.71596566831109"><ele>12.0</ele><time>2026-04-06T15:52:39.005Z</time></trkpt><trkpt lat="53.39038974500688" lon="14.715850536789137"><ele>12.0</ele><time>2026-04-06T15:52:40.005Z</time></trkpt><trkpt lat="53.39017022547104" lon="14.715736197974053"><ele>12.0</ele><time>2026-04-06T15:52:41.005Z</time></trkpt><trkpt lat="53.38994853035544" lon="14.715624370458121"><ele>12.0</ele><time>2026-04-06T15:52:42.005Z</time></trkpt><trkpt lat="53.38972518123789" lon="14.715506042581953"><ele>12.0</ele><time>2026-04-06T15:52:43.005Z</time></trkpt><trkpt lat="53.38950170006189" lon="14.715385716255252"><ele>10.5</ele><time>2026-04-06T15:52:44.005Z</time></trkpt><trkpt lat="53.389279227243264" lon="14.715269843438936"><ele>9.0</ele><time>2026-04-06T15:52:45.005Z</time></trkpt><trkpt lat="53.38905890140173" lon="14.715152879525462"><ele>8.0</ele><time>2026-04-06T15:52:46.005Z</time></trkpt><trkpt lat="53.388839661213545" lon="14.715038853422808"><ele>7.0</ele><time>2026-04-06T15:52:47.005Z</time></trkpt><trkpt lat="53.388624278910484" lon="14.714919843638441"><ele>7.0</ele><time>2026-04-06T15:52:48.005Z</time></trkpt><trkpt lat="53.388405924552934" lon="14.714804584354274"><ele>7.0</ele><time>2026-04-06T15:52:49.005Z</time></trkpt><trkpt lat="53.388189597170154" lon="14.714691014543849"><ele>6.5</ele><time>2026-04-06T15:52:50.005Z</time></trkpt><trkpt lat="53.38797168427511" lon="14.71458322046111"><ele>6.0</ele><time>2026-04-06T15:52:51.005Z</time></trkpt><trkpt lat="53.38775757139806" lon="14.714468169160035"><ele>8.0</ele><time>2026-04-06T15:52:52.005Z</time></trkpt><trkpt lat="53.3875436680984" lon="14.714352951353789"><ele>10.0</ele><time>2026-04-06T15:52:53.005Z</time></trkpt><trkpt lat="53.3873285108421" lon="14.714239798917587"><ele>10.0</ele><time>2026-04-06T15:52:54.005Z</time></trkpt><trkpt lat="53.387110750505755" lon="14.714127590652188"><ele>10.0</ele><time>2026-04-06T15:52:55.005Z</time></trkpt><trkpt lat="53.38689609916535" lon="14.714013450751795"><ele>10.0</ele><time>2026-04-06T15:52:56.005Z</time></trkpt><trkpt lat="53.38668537328609" lon="14.713904185438967"><ele>10.0</ele><time>2026-04-06T15:52:57.005Z</time></trkpt><trkpt lat="53.38647508270113" lon="14.713791992173395"><ele>10.0</ele><time>2026-04-06T15:52:58.005Z</time></trkpt><trkpt lat="53.38626115998209" lon="14.713680359618104"><ele>12.0</ele><time>2026-04-06T15:52:59.005Z</time></trkpt><trkpt lat="53.38604359384803" lon="14.713571106003815"><ele>14.0</ele><time>2026-04-06T15:53:00.005Z</time></trkpt><trkpt lat="53.385830857614415" lon="14.713456231673424"><ele>14.0</ele><time>2026-04-06T15:53:01.005Z</time></trkpt><trkpt lat="53.38561237527862" lon="14.713339629197973"><ele>14.0</ele><time>2026-04-06T15:53:02.005Z</time></trkpt><trkpt lat="53.385396457359114" lon="14.713223083112998"><ele>13.0</ele><time>2026-04-06T15:53:03.005Z</time></trkpt><trkpt lat="53.38517748263022" lon="14.713103865884246"><ele>12.0</ele><time>2026-04-06T15:53:04.005Z</time></trkpt><trkpt lat="53.38495647926256" lon="14.712978172872305"><ele>12.0</ele><time>2026-04-06T15:53:05.005Z</time></trkpt><trkpt lat="53.38473691533152" lon="14.712852391424812"><ele>12.0</ele><time>2026-04-06T15:53:06.005Z</time></trkpt><trkpt lat="53.38451681041779" lon="14.712719058959639"><ele>11.5</ele><time>2026-04-06T15:53:07.005Z</time></trkpt><trkpt lat="53.38429662003875" lon="14.71258297271881"><ele>11.0</ele><time>2026-04-06T15:53:08.005Z</time></trkpt><trkpt lat="53.38408617843151" lon="14.71243608404689"><ele>11.0</ele><time>2026-04-06T15:53:09.005Z</time></trkpt><trkpt lat="53.38386774662665" lon="14.712284601900542"><ele>11.0</ele><time>2026-04-06T15:53:10.005Z</time></trkpt><trkpt lat="53.38365617543039" lon="14.712136725761816"><ele>11.0</ele><time>2026-04-06T15:53:11.005Z</time></trkpt><trkpt lat="53.383448376215306" lon="14.711987364529827"><ele>11.0</ele><time>2026-04-06T15:53:12.005Z</time></trkpt><trkpt lat="53.383251219044176" lon="14.711838418785064"><ele>11.0</ele><time>2026-04-06T15:53:13.005Z</time></trkpt><trkpt lat="53.383054326217575" lon="14.71168759937222"><ele>12.0</ele><time>2026-04-06T15:53:14.005Z</time></trkpt><trkpt lat="53.382856643797524" lon="14.71153213874354"><ele>13.0</ele><time>2026-04-06T15:53:15.005Z</time></trkpt><trkpt lat="53.382664977817306" lon="14.711369065581636"><ele>14.0</ele><time>2026-04-06T15:53:16.005Z</time></trkpt><trkpt lat="53.38248194612185" lon="14.711205572431437"><ele>14.666666666666668</ele><time>2026-04-06T15:53:17.005Z</time></trkpt><trkpt lat="53.38229494906794" lon="14.711040868825952"><ele>15.333333333333332</ele><time>2026-04-06T15:53:18.005Z</time></trkpt><trkpt lat="53.38211023114476" lon="14.710874572633188"><ele>16.0</ele><time>2026-04-06T15:53:19.005Z</time></trkpt><trkpt lat="53.38192702669432" lon="14.710704289355629"><ele>16.0</ele><time>2026-04-06T15:53:20.005Z</time></trkpt><trkpt lat="53.38174683829203" lon="14.71052950474044"><ele>16.0</ele><time>2026-04-06T15:53:21.005Z</time></trkpt><trkpt lat="53.38157081347439" lon="14.710348195211619"><ele>16.0</ele><time>2026-04-06T15:53:22.005Z</time></trkpt><trkpt lat="53.38139672911179" lon="14.710172593726648"><ele>16.0</ele><time>2026-04-06T15:53:23.005Z</time></trkpt><trkpt lat="53.38122727564491" lon="14.709993432123294"><ele>16.0</ele><time>2026-04-06T15:53:24.005Z</time></trkpt><trkpt lat="53.381062601078916" lon="14.709815709920768"><ele>16.0</ele><time>2026-04-06T15:53:25.005Z</time></trkpt><trkpt lat="53.38090287754434" lon="14.709640306688101"><ele>16.0</ele><time>2026-04-06T15:53:26.005Z</time></trkpt><trkpt lat="53.38075037410773" lon="14.709468140896467"><ele>16.0</ele><time>2026-04-06T15:53:27.005Z</time></trkpt><trkpt lat="53.38060441654239" lon="14.709289355331077"><ele>16.0</ele><time>2026-04-06T15:53:28.005Z</time></trkpt><trkpt lat="53.38045317285685" lon="14.709089659015191"><ele>15.666666666666666</ele><time>2026-04-06T15:53:29.005Z</time></trkpt><trkpt lat="53.38030056204632" lon="14.708898937322207"><ele>15.333333333333332</ele><time>2026-04-06T15:53:30.005Z</time></trkpt><trkpt lat="53.38015373466196" lon="14.708714624656666"><ele>15.0</ele><time>2026-04-06T15:53:31.005Z</time></trkpt><trkpt lat="53.38000771711808" lon="14.708540736728086"><ele>15.0</ele><time>2026-04-06T15:53:32.005Z</time></trkpt><trkpt lat="53.37986228142734" lon="14.708372120051866"><ele>15.0</ele><time>2026-04-06T15:53:33.005Z</time></trkpt><trkpt lat="53.37972104122001" lon="14.708204964568585"><ele>15.0</ele><time>2026-04-06T15:53:34.005Z</time></trkpt><trkpt lat="53.37957988781689" lon="14.708037586099824"><ele>15.0</ele><time>2026-04-06T15:53:35.005Z</time></trkpt><trkpt lat="53.37944144225314" lon="14.707870916156153"><ele>15.0</ele><time>2026-04-06T15:53:36.005Z</time></trkpt><trkpt lat="53.379303662019716" lon="14.707702355534366"><ele>15.0</ele><time>2026-04-06T15:53:37.005Z</time></trkpt><trkpt lat="53.37916476418642" lon="14.70752684641776"><ele>15.333333333333332</ele><time>2026-04-06T15:53:38.005Z</time></trkpt><trkpt lat="53.37903297398246" lon="14.707351316554858"><ele>15.666666666666666</ele><time>2026-04-06T15:53:39.005Z</time></trkpt><trkpt lat="53.378906866001515" lon="14.707167786347606"><ele>16.0</ele><time>2026-04-06T15:53:40.005Z</time></trkpt><trkpt lat="53.37877706122957" lon="14.706972532301766"><ele>15.333333333333332</ele><time>2026-04-06T15:53:41.005Z</time></trkpt><trkpt lat="53.37864388549621" lon="14.706778723595766"><ele>14.666666666666668</ele><time>2026-04-06T15:53:42.005Z</time></trkpt><trkpt lat="53.37850649611761" lon="14.706604180468243"><ele>14.0</ele><time>2026-04-06T15:53:43.005Z</time></trkpt><trkpt lat="53.37837011110979" lon="14.70644824789133"><ele>14.0</ele><time>2026-04-06T15:53:44.006Z</time></trkpt><trkpt lat="53.37823700155554" lon="14.706281738125385"><ele>14.0</ele><time>2026-04-06T15:53:45.006Z</time></trkpt><trkpt lat="53.3781001477112" lon="14.706104020294381"><ele>14.0</ele><time>2026-04-06T15:53:46.006Z</time></trkpt><trkpt lat="53.37796134359916" lon="14.705919307433458"><ele>13.333333333333334</ele><time>2026-04-06T15:53:47.006Z</time></trkpt><trkpt lat="53.37782372139672" lon="14.705742384623926"><ele>12.666666666666668</ele><time>2026-04-06T15:53:48.006Z</time></trkpt><trkpt lat="53.37768546647021" lon="14.705568274381976"><ele>12.0</ele><time>2026-04-06T15:53:49.006Z</time></trkpt><trkpt lat="53.37754423980872" lon="14.705395630381382"><ele>12.0</ele><time>2026-04-06T15:53:50.006Z</time></trkpt><trkpt lat="53.37740559661326" lon="14.705242325737977"><ele>12.0</ele><time>2026-04-06T15:53:51.006Z</time></trkpt><trkpt lat="53.377272954443875" lon="14.705090335273736"><ele>12.0</ele><time>2026-04-06T15:53:52.006Z</time></trkpt><trkpt lat="53.37713366774801" lon="14.704911050734884"><ele>12.0</ele><time>2026-04-06T15:53:53.006Z</time></trkpt><trkpt lat="53.376986305102996" lon="14.704748565228916"><ele>12.0</ele><time>2026-04-06T15:53:54.006Z</time></trkpt><trkpt lat="53.376855842554676" lon="14.704578762330549"><ele>12.0</ele><time>2026-04-06T15:53:55.006Z</time></trkpt><trkpt lat="53.3767421130863" lon="14.70435690803776"><ele>11.0</ele><time>2026-04-06T15:53:56.006Z</time></trkpt><trkpt lat="53.3766444197028" lon="14.704134543296371"><ele>10.0</ele><time>2026-04-06T15:53:57.006Z</time></trkpt><trkpt lat="53.37657048287719" lon="14.703896968876231"><ele>9.0</ele><time>2026-04-06T15:53:58.006Z</time></trkpt><trkpt lat="53.376516143567024" lon="14.70364563860323"><ele>8.666666666666666</ele><time>2026-04-06T15:53:59.006Z</time></trkpt><trkpt lat="53.37646801278553" lon="14.703371324131092"><ele>8.333333333333332</ele><time>2026-04-06T15:54:00.006Z</time></trkpt><trkpt lat="53.37642522380118" lon="14.703117144890287"><ele>8.0</ele><time>2026-04-06T15:54:01.006Z</time></trkpt><trkpt lat="53.37638167054816" lon="14.702839021106145"><ele>8.666666666666666</ele><time>2026-04-06T15:54:02.006Z</time></trkpt><trkpt lat="53.3763301742343" lon="14.702577525423878"><ele>9.333333333333334</ele><time>2026-04-06T15:54:03.006Z</time></trkpt><trkpt lat="53.37629258093607" lon="14.702304115299992"><ele>10.0</ele><time>2026-04-06T15:54:04.006Z</time></trkpt><trkpt lat="53.37623307578071" lon="14.70202834388478"><ele>10.0</ele><time>2026-04-06T15:54:05.006Z</time></trkpt><trkpt lat="53.37618562809659" lon="14.7017592558919"><ele>10.0</ele><time>2026-04-06T15:54:06.006Z</time></trkpt><trkpt lat="53.37614210244328" lon="14.701464268453057"><ele>10.0</ele><time>2026-04-06T15:54:07.006Z</time></trkpt><trkpt lat="53.376077708734016" lon="14.7011844100843"><ele>10.333333333333334</ele><time>2026-04-06T15:54:08.006Z</time></trkpt><trkpt lat="53.37602762222007" lon="14.700936672670016"><ele>10.666666666666666</ele><time>2026-04-06T15:54:09.006Z</time></trkpt><trkpt lat="53.37597799671749" lon="14.700660743171575"><ele>11.0</ele><time>2026-04-06T15:54:10.006Z</time></trkpt><trkpt lat="53.37593751244014" lon="14.700428842820852"><ele>11.5</ele><time>2026-04-06T15:54:11.006Z</time></trkpt><trkpt lat="53.37588820261114" lon="14.70019924594972"><ele>12.0</ele><time>2026-04-06T15:54:12.006Z</time></trkpt><trkpt lat="53.37582718320234" lon="14.699971680089565"><ele>12.5</ele><time>2026-04-06T15:54:13.006Z</time></trkpt><trkpt lat="53.37575627271586" lon="14.699750618683366"><ele>13.0</ele><time>2026-04-06T15:54:14.006Z</time></trkpt><trkpt lat="53.375677113347436" lon="14.699532925960296"><ele>13.75</ele><time>2026-04-06T15:54:15.006Z</time></trkpt><trkpt lat="53.37559775383673" lon="14.699323886096856"><ele>14.5</ele><time>2026-04-06T15:54:16.006Z</time></trkpt><trkpt lat="53.37552378159041" lon="14.699117571361286"><ele>15.25</ele><time>2026-04-06T15:54:17.006Z</time></trkpt><trkpt lat="53.37545281075877" lon="14.698923498781632"><ele>16.0</ele><time>2026-04-06T15:54:18.006Z</time></trkpt><trkpt lat="53.37539113001193" lon="14.698740945201385"><ele>16.0</ele><time>2026-04-06T15:54:19.006Z</time></trkpt><trkpt lat="53.375338607176346" lon="14.698542784904882"><ele>16.0</ele><time>2026-04-06T15:54:20.006Z</time></trkpt><trkpt lat="53.37534152353965" lon="14.698318612176948"><ele>16.0</ele><time>2026-04-06T15:54:21.006Z</time></trkpt><trkpt lat="53.37534154442963" lon="14.698093635260888"><ele>16.0</ele><time>2026-04-06T15:54:22.006Z</time></trkpt><trkpt lat="53.37535772627933" lon="14.697881925659335"><ele>16.0</ele><time>2026-04-06T15:54:23.006Z</time></trkpt><trkpt lat="53.375392149622435" lon="14.697698941320532"><ele>16.0</ele><time>2026-04-06T15:54:24.006Z</time></trkpt><trkpt lat="53.37540454621079" lon="14.697524622814218"><ele>16.0</ele><time>2026-04-06T15:54:25.006Z</time></trkpt><trkpt lat="53.37545207791107" lon="14.697368454401374"><ele>16.0</ele><time>2026-04-06T15:54:26.006Z</time></trkpt><trkpt lat="53.37550285052062" lon="14.69720592657288"><ele>16.0</ele><time>2026-04-06T15:54:27.006Z</time></trkpt><trkpt lat="53.37554931055149" lon="14.697026154603822"><ele>16.0</ele><time>2026-04-06T15:54:28.006Z</time></trkpt><trkpt lat="53.375596149370985" lon="14.696837625951725"><ele>16.0</ele><time>2026-04-06T15:54:29.006Z</time></trkpt><trkpt lat="53.37564047873076" lon="14.69667298056292"><ele>16.0</ele><time>2026-04-06T15:54:30.006Z</time></trkpt><trkpt lat="53.37568397553585" lon="14.696513027738497"><ele>16.0</ele><time>2026-04-06T15:54:31.006Z</time></trkpt><trkpt lat="53.375725374485775" lon="14.696368895758827"><ele>16.0</ele><time>2026-04-06T15:54:32.006Z</time></trkpt><trkpt lat="53.37576301396499" lon="14.696259725866284"><ele>15.999999999999998</ele><time>2026-04-06T15:54:33.006Z</time></trkpt><trkpt lat="53.375795748749546" lon="14.696135747509885"><ele>16.0</ele><time>2026-04-06T15:54:34.006Z</time></trkpt><trkpt lat="53.37582715774488" lon="14.696028508670183"><ele>16.0</ele><time>2026-04-06T15:54:35.006Z</time></trkpt><trkpt lat="53.375879282136346" lon="14.695860574401598"><ele>16.0</ele><time>2026-04-06T15:54:37.006Z</time></trkpt><trkpt lat="53.375917637921724" lon="14.695726421198433"><ele>15.999999999999998</ele><time>2026-04-06T15:54:39.006Z</time></trkpt><trkpt lat="53.37595560232072" lon="14.695586479654347"><ele>16.0</ele><time>2026-04-06T15:54:41.006Z</time></trkpt><trkpt lat="53.37599520384026" lon="14.695453523182817"><ele>15.600000000000001</ele><time>2026-04-06T15:54:43.006Z</time></trkpt><trkpt lat="53.37603400273711" lon="14.695308685070826"><ele>15.200000000000001</ele><time>2026-04-06T15:54:45.006Z</time></trkpt><trkpt lat="53.37607736749336" lon="14.695155726291103"><ele>14.799999999999999</ele><time>2026-04-06T15:54:47.006Z</time></trkpt><trkpt lat="53.37611870064273" lon="14.694997999220485"><ele>14.399999999999999</ele><time>2026-04-06T15:54:49.006Z</time></trkpt><trkpt lat="53.37615658510223" lon="14.69485546002355"><ele>14.0</ele><time>2026-04-06T15:54:51.006Z</time></trkpt><trkpt lat="53.376209936551284" lon="14.694674692250993"><ele>13.833333333333334</ele><time>2026-04-06T15:54:53.006Z</time></trkpt><trkpt lat="53.37624171148577" lon="14.694574186288017"><ele>13.666666666666668</ele><time>2026-04-06T15:54:54.006Z</time></trkpt><trkpt lat="53.3762776872573" lon="14.694432078025093"><ele>13.5</ele><time>2026-04-06T15:54:55.006Z</time></trkpt><trkpt lat="53.3763176233173" lon="14.694287319458088"><ele>13.333333333333332</ele><time>2026-04-06T15:54:56.006Z</time></trkpt><trkpt lat="53.376357866928764" lon="14.694149473741955"><ele>13.166666666666666</ele><time>2026-04-06T15:54:57.006Z</time></trkpt><trkpt lat="53.37639754344493" lon="14.694006177519068"><ele>13.0</ele><time>2026-04-06T15:54:58.006Z</time></trkpt><trkpt lat="53.3764375287523" lon="14.693866583265066"><ele>12.428571428571429</ele><time>2026-04-06T15:54:59.006Z</time></trkpt><trkpt lat="53.376466096002474" lon="14.693753249579425"><ele>11.857142857142858</ele><time>2026-04-06T15:55:00.006Z</time></trkpt><trkpt lat="53.37649897044792" lon="14.693642312921018"><ele>11.285714285714286</ele><time>2026-04-06T15:55:01.006Z</time></trkpt><trkpt lat="53.37652856084151" lon="14.693536177955727"><ele>10.714285714285715</ele><time>2026-04-06T15:55:02.006Z</time></trkpt><trkpt lat="53.37655994005779" lon="14.693427071494856"><ele>10.142857142857142</ele><time>2026-04-06T15:55:03.006Z</time></trkpt><trkpt lat="53.376586270712274" lon="14.693315115238649"><ele>9.571428571428573</ele><time>2026-04-06T15:55:04.006Z</time></trkpt><trkpt lat="53.37661835383199" lon="14.693194079038276"><ele>9.0</ele><time>2026-04-06T15:55:05.006Z</time></trkpt><trkpt lat="53.37664664100484" lon="14.693081485185232"><ele>8.833333333333334</ele><time>2026-04-06T15:55:06.006Z</time></trkpt><trkpt lat="53.37667852406691" lon="14.69296773341577"><ele>8.666666666666666</ele><time>2026-04-06T15:55:07.006Z</time></trkpt><trkpt lat="53.37670817045354" lon="14.69286119894473"><ele>8.5</ele><time>2026-04-06T15:55:08.006Z</time></trkpt><trkpt lat="53.37673646890856" lon="14.692751293555409"><ele>8.333333333333332</ele><time>2026-04-06T15:55:09.006Z</time></trkpt><trkpt lat="53.376762468629046" lon="14.692645219035446"><ele>8.166666666666666</ele><time>2026-04-06T15:55:10.006Z</time></trkpt><trkpt lat="53.37678873647043" lon="14.692541225680461"><ele>8.0</ele><time>2026-04-06T15:55:11.006Z</time></trkpt><trkpt lat="53.376833120837134" lon="14.692367083649279"><ele>8.0</ele><time>2026-04-06T15:55:13.007Z</time></trkpt><trkpt lat="53.37687581822465" lon="14.692211970219699"><ele>8.0</ele><time>2026-04-06T15:55:15.007Z</time></trkpt><trkpt lat="53.37692839545515" lon="14.6920025502777"><ele>8.0</ele><time>2026-04-06T15:55:17.007Z</time></trkpt><trkpt lat="53.376966806046" lon="14.691860299508608"><ele>8.0</ele><time>2026-04-06T15:55:18.007Z</time></trkpt><trkpt lat="53.3770025575399" lon="14.691736407257634"><ele>8.0</ele><time>2026-04-06T15:55:19.007Z</time></trkpt><trkpt lat="53.377027675595905" lon="14.691626770322218"><ele>8.0</ele><time>2026-04-06T15:55:20.007Z</time></trkpt><trkpt lat="53.377069874576335" lon="14.691526551832693"><ele>8.0</ele><time>2026-04-06T15:55:21.007Z</time></trkpt><trkpt lat="53.377116015408006" lon="14.691351888775461"><ele>8.0</ele><time>2026-04-06T15:55:23.007Z</time></trkpt><trkpt lat="53.377167975306484" lon="14.691183714847721"><ele>8.0</ele><time>2026-04-06T15:55:25.007Z</time></trkpt><trkpt lat="53.37718843972623" lon="14.691083446527575"><ele>8.0</ele><time>2026-04-06T15:55:27.007Z</time></trkpt><trkpt lat="53.37722990913654" lon="14.690942016750425"><ele>8.200000000000001</ele><time>2026-04-06T15:55:41.007Z</time></trkpt><trkpt lat="53.377280260286646" lon="14.690817085268398"><ele>8.4</ele><time>2026-04-06T15:55:42.007Z</time></trkpt><trkpt lat="53.37734226350125" lon="14.690676574898216"><ele>8.600000000000001</ele><time>2026-04-06T15:55:43.007Z</time></trkpt><trkpt lat="53.37741718821092" lon="14.690519342838028"><ele>8.8</ele><time>2026-04-06T15:55:44.007Z</time></trkpt><trkpt lat="53.37750035500741" lon="14.690360219712504"><ele>9.0</ele><time>2026-04-06T15:55:45.007Z</time></trkpt><trkpt lat="53.377600396001974" lon="14.690192363891983"><ele>9.666666666666666</ele><time>2026-04-06T15:55:46.007Z</time></trkpt><trkpt lat="53.377709634457936" lon="14.690025367434405"><ele>10.333333333333332</ele><time>2026-04-06T15:55:47.007Z</time></trkpt><trkpt lat="53.377824254336176" lon="14.689857794735433"><ele>11.0</ele><time>2026-04-06T15:55:48.007Z</time></trkpt><trkpt lat="53.37794495677823" lon="14.689693564593053"><ele>11.0</ele><time>2026-04-06T15:55:49.007Z</time></trkpt><trkpt lat="53.3780778210227" lon="14.689512219393883"><ele>11.0</ele><time>2026-04-06T15:55:50.007Z</time></trkpt><trkpt lat="53.378212259733324" lon="14.689326889345876"><ele>11.0</ele><time>2026-04-06T15:55:51.007Z</time></trkpt><trkpt lat="53.37835566898419" lon="14.68912235356715"><ele>11.0</ele><time>2026-04-06T15:55:52.007Z</time></trkpt><trkpt lat="53.378505145395295" lon="14.688913252290252"><ele>11.0</ele><time>2026-04-06T15:55:53.007Z</time></trkpt><trkpt lat="53.37864081868689" lon="14.688715400704341"><ele>11.0</ele><time>2026-04-06T15:55:54.007Z</time></trkpt><trkpt lat="53.37878842869603" lon="14.688510167248149"><ele>11.0</ele><time>2026-04-06T15:55:55.007Z</time></trkpt><trkpt lat="53.3789336966201" lon="14.688287992460289"><ele>11.0</ele><time>2026-04-06T15:55:56.007Z</time></trkpt><trkpt lat="53.37908056060382" lon="14.688062753594174"><ele>11.0</ele><time>2026-04-06T15:55:57.007Z</time></trkpt><trkpt lat="53.37923597790541" lon="14.68782627899635"><ele>10.666666666666666</ele><time>2026-04-06T15:55:58.007Z</time></trkpt><trkpt lat="53.37938557774244" lon="14.687598205673345"><ele>10.333333333333334</ele><time>2026-04-06T15:55:59.007Z</time></trkpt><trkpt lat="53.37953541294346" lon="14.687365870607476"><ele>10.0</ele><time>2026-04-06T15:56:00.007Z</time></trkpt><trkpt lat="53.37969309775528" lon="14.687141732776492"><ele>10.333333333333334</ele><time>2026-04-06T15:56:01.007Z</time></trkpt><trkpt lat="53.379853551351445" lon="14.686917324031349"><ele>10.666666666666666</ele><time>2026-04-06T15:56:02.007Z</time></trkpt><trkpt lat="53.38001603824694" lon="14.686685369537003"><ele>11.0</ele><time>2026-04-06T15:56:03.007Z</time></trkpt><trkpt lat="53.38017582141678" lon="14.68645127316285"><ele>11.0</ele><time>2026-04-06T15:56:04.007Z</time></trkpt><trkpt lat="53.38032905598053" lon="14.686208562247845"><ele>11.0</ele><time>2026-04-06T15:56:05.007Z</time></trkpt><trkpt lat="53.38047970552063" lon="14.685958752026693"><ele>11.0</ele><time>2026-04-06T15:56:06.007Z</time></trkpt><trkpt lat="53.38062424992671" lon="14.685701456466663"><ele>10.666666666666666</ele><time>2026-04-06T15:56:07.007Z</time></trkpt><trkpt lat="53.380765683035676" lon="14.685432062376437"><ele>10.333333333333334</ele><time>2026-04-06T15:56:08.007Z</time></trkpt><trkpt lat="53.38089730011391" lon="14.685157709749221"><ele>10.0</ele><time>2026-04-06T15:56:09.007Z</time></trkpt><trkpt lat="53.381024202644724" lon="14.684866909108326"><ele>10.0</ele><time>2026-04-06T15:56:10.007Z</time></trkpt><trkpt lat="53.381141139569685" lon="14.68458175421502"><ele>10.0</ele><time>2026-04-06T15:56:11.007Z</time></trkpt><trkpt lat="53.38125364094485" lon="14.684285103354409"><ele>10.0</ele><time>2026-04-06T15:56:12.007Z</time></trkpt><trkpt lat="53.381363512887305" lon="14.683979619994082"><ele>10.333333333333334</ele><time>2026-04-06T15:56:13.007Z</time></trkpt><trkpt lat="53.381461381585865" lon="14.683669137729394"><ele>10.666666666666666</ele><time>2026-04-06T15:56:14.007Z</time></trkpt><trkpt lat="53.381553335263376" lon="14.683348488455975"><ele>11.0</ele><time>2026-04-06T15:56:15.007Z</time></trkpt><trkpt lat="53.381639308915354" lon="14.683019747333608"><ele>11.0</ele><time>2026-04-06T15:56:16.007Z</time></trkpt><trkpt lat="53.38171718019827" lon="14.682678820040953"><ele>11.0</ele><time>2026-04-06T15:56:17.007Z</time></trkpt><trkpt lat="53.38178947304754" lon="14.682332297296059"><ele>11.0</ele><time>2026-04-06T15:56:18.007Z</time></trkpt><trkpt lat="53.38185216311739" lon="14.681979821378034"><ele>11.0</ele><time>2026-04-06T15:56:19.007Z</time></trkpt><trkpt lat="53.381904709966925" lon="14.681626840410015"><ele>11.0</ele><time>2026-04-06T15:56:20.007Z</time></trkpt><trkpt lat="53.381948349475934" lon="14.68126766573379"><ele>11.0</ele><time>2026-04-06T15:56:21.007Z</time></trkpt><trkpt lat="53.38198554192147" lon="14.680904010453306"><ele>10.666666666666666</ele><time>2026-04-06T15:56:22.007Z</time></trkpt><trkpt lat="53.38201266488713" lon="14.680535534238787"><ele>10.333333333333334</ele><time>2026-04-06T15:56:23.007Z</time></trkpt><trkpt lat="53.382030822478065" lon="14.680160388957331"><ele>10.0</ele><time>2026-04-06T15:56:24.007Z</time></trkpt><trkpt lat="53.38204186830977" lon="14.679787971276943"><ele>10.0</ele><time>2026-04-06T15:56:25.007Z</time></trkpt><trkpt lat="53.38204595040543" lon="14.67941493877859"><ele>10.0</ele><time>2026-04-06T15:56:26.007Z</time></trkpt><trkpt lat="53.382045247780425" lon="14.679036851291851"><ele>10.0</ele><time>2026-04-06T15:56:27.007Z</time></trkpt><trkpt lat="53.38204555151506" lon="14.678662375994534"><ele>11.0</ele><time>2026-04-06T15:56:28.007Z</time></trkpt><trkpt lat="53.38204344474856" lon="14.678281175691302"><ele>12.0</ele><time>2026-04-06T15:56:29.007Z</time></trkpt><trkpt lat="53.38204696985543" lon="14.677908714235897"><ele>11.666666666666666</ele><time>2026-04-06T15:56:30.007Z</time></trkpt><trkpt lat="53.38204985645047" lon="14.67753881036203"><ele>11.333333333333332</ele><time>2026-04-06T15:56:31.007Z</time></trkpt><trkpt lat="53.38205745900233" lon="14.677175578777739"><ele>11.0</ele><time>2026-04-06T15:56:32.007Z</time></trkpt><trkpt lat="53.38207259000525" lon="14.676834477837254"><ele>11.0</ele><time>2026-04-06T15:56:33.007Z</time></trkpt><trkpt lat="53.382090711194024" lon="14.676481559008245"><ele>11.0</ele><time>2026-04-06T15:56:34.007Z</time></trkpt><trkpt lat="53.3821173111799" lon="14.676128213157812"><ele>11.0</ele><time>2026-04-06T15:56:35.007Z</time></trkpt><trkpt lat="53.38214788058684" lon="14.675777649564093"><ele>11.333333333333332</ele><time>2026-04-06T15:56:36.007Z</time></trkpt><trkpt lat="53.38218419151925" lon="14.675421964322632"><ele>11.666666666666666</ele><time>2026-04-06T15:56:37.007Z</time></trkpt><trkpt lat="53.382219112560435" lon="14.675073846182855"><ele>12.0</ele><time>2026-04-06T15:56:38.007Z</time></trkpt><trkpt lat="53.382250289270225" lon="14.67472601770578"><ele>12.0</ele><time>2026-04-06T15:56:39.007Z</time></trkpt><trkpt lat="53.38228194264639" lon="14.674374725389681"><ele>12.0</ele><time>2026-04-06T15:56:40.008Z</time></trkpt><trkpt lat="53.382310899348326" lon="14.674022891391365"><ele>12.0</ele><time>2026-04-06T15:56:41.008Z</time></trkpt><trkpt lat="53.382340377405555" lon="14.673676548348508"><ele>12.0</ele><time>2026-04-06T15:56:42.008Z</time></trkpt><trkpt lat="53.382370697870265" lon="14.673343342497306"><ele>12.0</ele><time>2026-04-06T15:56:43.008Z</time></trkpt><trkpt lat="53.38240399899864" lon="14.67300170787093"><ele>12.0</ele><time>2026-04-06T15:56:44.008Z</time></trkpt><trkpt lat="53.38243698277885" lon="14.672656108743299"><ele>11.666666666666666</ele><time>2026-04-06T15:56:45.008Z</time></trkpt><trkpt lat="53.38246877904756" lon="14.672309642559531"><ele>11.333333333333332</ele><time>2026-04-06T15:56:46.008Z</time></trkpt><trkpt lat="53.38250357721155" lon="14.67196665208852"><ele>11.0</ele><time>2026-04-06T15:56:47.008Z</time></trkpt><trkpt lat="53.38253687606483" lon="14.671620264974921"><ele>11.0</ele><time>2026-04-06T15:56:48.008Z</time></trkpt><trkpt lat="53.38256997265775" lon="14.671278580528613"><ele>11.0</ele><time>2026-04-06T15:56:49.008Z</time></trkpt><trkpt lat="53.382600966182764" lon="14.670939345541445"><ele>11.0</ele><time>2026-04-06T15:56:50.008Z</time></trkpt><trkpt lat="53.38263212323468" lon="14.67059690749993"><ele>10.666666666666666</ele><time>2026-04-06T15:56:51.008Z</time></trkpt><trkpt lat="53.382662241959196" lon="14.67025653911645"><ele>10.333333333333334</ele><time>2026-04-06T15:56:52.008Z</time></trkpt><trkpt lat="53.38269351326226" lon="14.669912923436822"><ele>10.0</ele><time>2026-04-06T15:56:53.008Z</time></trkpt><trkpt lat="53.3827260934819" lon="14.669565302743335"><ele>9.666666666666668</ele><time>2026-04-06T15:56:54.008Z</time></trkpt><trkpt lat="53.382757494093404" lon="14.669223932172182"><ele>9.333333333333334</ele><time>2026-04-06T15:56:55.008Z</time></trkpt><trkpt lat="53.38278822418334" lon="14.66888878392675"><ele>9.0</ele><time>2026-04-06T15:56:56.008Z</time></trkpt><trkpt lat="53.382819619760426" lon="14.668554991214966"><ele>8.0</ele><time>2026-04-06T15:56:57.008Z</time></trkpt><trkpt lat="53.382850628484434" lon="14.668224308230974"><ele>7.0</ele><time>2026-04-06T15:56:58.008Z</time></trkpt><trkpt lat="53.38287935131164" lon="14.667888846945111"><ele>6.0</ele><time>2026-04-06T15:56:59.008Z</time></trkpt><trkpt lat="53.38290910658074" lon="14.66755947629518"><ele>6.0</ele><time>2026-04-06T15:57:00.008Z</time></trkpt><trkpt lat="53.382938756889764" lon="14.667239902722853"><ele>6.0</ele><time>2026-04-06T15:57:01.008Z</time></trkpt><trkpt lat="53.382965036443636" lon="14.6669200978335"><ele>6.0</ele><time>2026-04-06T15:57:02.008Z</time></trkpt><trkpt lat="53.3829923199492" lon="14.666603735716869"><ele>6.666666666666666</ele><time>2026-04-06T15:57:03.008Z</time></trkpt><trkpt lat="53.383021432305206" lon="14.666286001934614"><ele>7.333333333333333</ele><time>2026-04-06T15:57:04.008Z</time></trkpt><trkpt lat="53.38305392279177" lon="14.665964264181568"><ele>8.0</ele><time>2026-04-06T15:57:05.008Z</time></trkpt><trkpt lat="53.383084692736276" lon="14.665653222846922"><ele>8.0</ele><time>2026-04-06T15:57:06.008Z</time></trkpt><trkpt lat="53.38310984815957" lon="14.665357083826601"><ele>8.0</ele><time>2026-04-06T15:57:07.008Z</time></trkpt><trkpt lat="53.383139638034564" lon="14.665059751654173"><ele>8.0</ele><time>2026-04-06T15:57:08.008Z</time></trkpt><trkpt lat="53.38316652849063" lon="14.664765655621213"><ele>8.333333333333332</ele><time>2026-04-06T15:57:09.008Z</time></trkpt><trkpt lat="53.3831991572037" lon="14.664447409025415"><ele>8.666666666666666</ele><time>2026-04-06T15:57:10.008Z</time></trkpt><trkpt lat="53.38322525637106" lon="14.66416623157133"><ele>9.0</ele><time>2026-04-06T15:57:11.008Z</time></trkpt><trkpt lat="53.38325290018049" lon="14.663885059194563"><ele>9.0</ele><time>2026-04-06T15:57:12.008Z</time></trkpt><trkpt lat="53.383279987193184" lon="14.663600086966706"><ele>9.0</ele><time>2026-04-06T15:57:13.008Z</time></trkpt><trkpt lat="53.38330727233573" lon="14.66331071273042"><ele>9.0</ele><time>2026-04-06T15:57:14.008Z</time></trkpt><trkpt lat="53.38333433973151" lon="14.663015237725002"><ele>8.666666666666666</ele><time>2026-04-06T15:57:15.008Z</time></trkpt><trkpt lat="53.38335989242088" lon="14.662718381595461"><ele>8.333333333333332</ele><time>2026-04-06T15:57:16.008Z</time></trkpt><trkpt lat="53.383387369815324" lon="14.662426242648557"><ele>8.0</ele><time>2026-04-06T15:57:17.008Z</time></trkpt><trkpt lat="53.38341232999151" lon="14.662132218526487"><ele>7.666666666666666</ele><time>2026-04-06T15:57:18.008Z</time></trkpt><trkpt lat="53.38343683926585" lon="14.661844481542998"><ele>7.333333333333334</ele><time>2026-04-06T15:57:19.008Z</time></trkpt><trkpt lat="53.38346197955702" lon="14.661554947342083"><ele>7.0</ele><time>2026-04-06T15:57:20.008Z</time></trkpt><trkpt lat="53.383488060963025" lon="14.661262501710992"><ele>6.666666666666667</ele><time>2026-04-06T15:57:21.008Z</time></trkpt><trkpt lat="53.383514199273506" lon="14.660966650036363"><ele>6.333333333333334</ele><time>2026-04-06T15:57:22.008Z</time></trkpt><trkpt lat="53.38354343734016" lon="14.660671724939071"><ele>6.0</ele><time>2026-04-06T15:57:23.008Z</time></trkpt><trkpt lat="53.38357179023357" lon="14.660373719727497"><ele>5.666666666666667</ele><time>2026-04-06T15:57:24.008Z</time></trkpt><trkpt lat="53.383599680102925" lon="14.660076845280766"><ele>5.333333333333334</ele><time>2026-04-06T15:57:25.008Z</time></trkpt><trkpt lat="53.38362727419147" lon="14.659791833090301"><ele>5.0</ele><time>2026-04-06T15:57:26.008Z</time></trkpt><trkpt lat="53.38365662343002" lon="14.659487421894674"><ele>5.333333333333334</ele><time>2026-04-06T15:57:27.008Z</time></trkpt><trkpt lat="53.38368270450704" lon="14.659183794552161"><ele>5.666666666666667</ele><time>2026-04-06T15:57:28.008Z</time></trkpt><trkpt lat="53.38370958814156" lon="14.65888420598497"><ele>6.0</ele><time>2026-04-06T15:57:29.008Z</time></trkpt><trkpt lat="53.38373766915651" lon="14.658585068707975"><ele>6.0</ele><time>2026-04-06T15:57:30.008Z</time></trkpt><trkpt lat="53.38376785858752" lon="14.658291019142634"><ele>6.0</ele><time>2026-04-06T15:57:31.008Z</time></trkpt><trkpt lat="53.38379546751489" lon="14.657996281084703"><ele>6.0</ele><time>2026-04-06T15:57:32.008Z</time></trkpt><trkpt lat="53.38382605260189" lon="14.657702492774476"><ele>6.666666666666666</ele><time>2026-04-06T15:57:33.008Z</time></trkpt><trkpt lat="53.383855251493905" lon="14.657398230933739"><ele>7.333333333333333</ele><time>2026-04-06T15:57:34.008Z</time></trkpt><trkpt lat="53.38388326935102" lon="14.657097608479267"><ele>8.0</ele><time>2026-04-06T15:57:35.008Z</time></trkpt><trkpt lat="53.38391288785269" lon="14.656787519266706"><ele>8.0</ele><time>2026-04-06T15:57:36.008Z</time></trkpt><trkpt lat="53.38394274495609" lon="14.656464062384911"><ele>8.0</ele><time>2026-04-06T15:57:37.008Z</time></trkpt><trkpt lat="53.38397329466459" lon="14.656153889235336"><ele>8.0</ele><time>2026-04-06T15:57:38.008Z</time></trkpt><trkpt lat="53.38400465607394" lon="14.655837596423723"><ele>8.0</ele><time>2026-04-06T15:57:39.008Z</time></trkpt><trkpt lat="53.38403548492313" lon="14.655519306849106"><ele>8.0</ele><time>2026-04-06T15:57:40.008Z</time></trkpt><trkpt lat="53.384069633608284" lon="14.655193035112761"><ele>8.0</ele><time>2026-04-06T15:57:41.008Z</time></trkpt><trkpt lat="53.384101596140404" lon="14.654869845916554"><ele>8.0</ele><time>2026-04-06T15:57:42.008Z</time></trkpt><trkpt lat="53.38413348026689" lon="14.654544214547078"><ele>8.0</ele><time>2026-04-06T15:57:43.008Z</time></trkpt><trkpt lat="53.38416338218782" lon="14.654215802292939"><ele>8.0</ele><time>2026-04-06T15:57:44.008Z</time></trkpt><trkpt lat="53.38419251827143" lon="14.653895558069916"><ele>7.666666666666666</ele><time>2026-04-06T15:57:45.008Z</time></trkpt><trkpt lat="53.384218301362516" lon="14.653564666806105"><ele>7.333333333333334</ele><time>2026-04-06T15:57:46.008Z</time></trkpt><trkpt lat="53.38424379580583" lon="14.653234337768934"><ele>7.0</ele><time>2026-04-06T15:57:47.008Z</time></trkpt><trkpt lat="53.384270990598466" lon="14.652910513430578"><ele>7.0</ele><time>2026-04-06T15:57:48.008Z</time></trkpt><trkpt lat="53.384297565099224" lon="14.652592263263129"><ele>7.0</ele><time>2026-04-06T15:57:49.008Z</time></trkpt><trkpt lat="53.38432325593186" lon="14.652280671182913"><ele>7.0</ele><time>2026-04-06T15:57:50.008Z</time></trkpt><trkpt lat="53.38434807626563" lon="14.651969765527996"><ele>6.0</ele><time>2026-04-06T15:57:51.008Z</time></trkpt><trkpt lat="53.384368724587766" lon="14.651663660941427"><ele>5.0</ele><time>2026-04-06T15:57:52.008Z</time></trkpt><trkpt lat="53.38439097076688" lon="14.65135842043793"><ele>4.0</ele><time>2026-04-06T15:57:53.008Z</time></trkpt><trkpt lat="53.38441590884136" lon="14.651053325436633"><ele>4.0</ele><time>2026-04-06T15:57:54.008Z</time></trkpt><trkpt lat="53.38445517161795" lon="14.65076578692349"><ele>4.0</ele><time>2026-04-06T15:57:55.008Z</time></trkpt><trkpt lat="53.384481927547455" lon="14.650460357402531"><ele>4.0</ele><time>2026-04-06T15:57:56.008Z</time></trkpt><trkpt lat="53.3845031057424" lon="14.650161442754701"><ele>4.0</ele><time>2026-04-06T15:57:57.008Z</time></trkpt><trkpt lat="53.38452301866857" lon="14.649873869586116"><ele>4.0</ele><time>2026-04-06T15:57:58.008Z</time></trkpt><trkpt lat="53.38454244931161" lon="14.649600847726843"><ele>4.0</ele><time>2026-04-06T15:57:59.008Z</time></trkpt><trkpt lat="53.384565464846375" lon="14.649328064394563"><ele>4.0</ele><time>2026-04-06T15:58:00.008Z</time></trkpt><trkpt lat="53.38459566669691" lon="14.64903727617279"><ele>4.0</ele><time>2026-04-06T15:58:01.008Z</time></trkpt><trkpt lat="53.384617526382705" lon="14.648726760616052"><ele>4.0</ele><time>2026-04-06T15:58:02.008Z</time></trkpt><trkpt lat="53.38465527800989" lon="14.648424880363958"><ele>4.0</ele><time>2026-04-06T15:58:03.008Z</time></trkpt><trkpt lat="53.38466801005442" lon="14.64816331584294"><ele>4.0</ele><time>2026-04-06T15:58:04.008Z</time></trkpt><trkpt lat="53.38470778194538" lon="14.647938381831441"><ele>4.0</ele><time>2026-04-06T15:58:05.008Z</time></trkpt><trkpt lat="53.38473023016135" lon="14.647700453715798"><ele>4.0</ele><time>2026-04-06T15:58:06.008Z</time></trkpt><trkpt lat="53.38474541567692" lon="14.647435171505157"><ele>3.6666666666666665</ele><time>2026-04-06T15:58:07.008Z</time></trkpt><trkpt lat="53.38476289049376" lon="14.647154251716074"><ele>3.333333333333333</ele><time>2026-04-06T15:58:08.009Z</time></trkpt><trkpt lat="53.38478237504006" lon="14.646897990289538"><ele>3.0</ele><time>2026-04-06T15:58:09.009Z</time></trkpt><trkpt lat="53.38480633256921" lon="14.646647546708193"><ele>2.3333333333333335</ele><time>2026-04-06T15:58:10.009Z</time></trkpt><trkpt lat="53.384829723457194" lon="14.646373739243343"><ele>1.6666666666666665</ele><time>2026-04-06T15:58:11.009Z</time></trkpt><trkpt lat="53.3848513845124" lon="14.646099944909615"><ele>1.0</ele><time>2026-04-06T15:58:12.009Z</time></trkpt><trkpt lat="53.38487441936411" lon="14.645830683554465"><ele>1.0</ele><time>2026-04-06T15:58:13.009Z</time></trkpt><trkpt lat="53.38489984325293" lon="14.645548582876316"><ele>1.0</ele><time>2026-04-06T15:58:14.009Z</time></trkpt><trkpt lat="53.384925580778386" lon="14.645265415954322"><ele>1.0</ele><time>2026-04-06T15:58:15.009Z</time></trkpt><trkpt lat="53.38495534675135" lon="14.644965283046359"><ele>0.6666666666666666</ele><time>2026-04-06T15:58:16.009Z</time></trkpt><trkpt lat="53.38499066952492" lon="14.644667109118412"><ele>0.3333333333333333</ele><time>2026-04-06T15:58:17.009Z</time></trkpt><trkpt lat="53.38502969809723" lon="14.64438557616306"><ele>0.0</ele><time>2026-04-06T15:58:18.009Z</time></trkpt><trkpt lat="53.38508347857928" lon="14.644106193859178"><ele>0.0</ele><time>2026-04-06T15:58:19.009Z</time></trkpt><trkpt lat="53.385157220869694" lon="14.643808922027556"><ele>0.0</ele><time>2026-04-06T15:58:20.009Z</time></trkpt><trkpt lat="53.38524563374553" lon="14.643502767751116"><ele>0.0</ele><time>2026-04-06T15:58:21.009Z</time></trkpt><trkpt lat="53.38533899059089" lon="14.643213761452996"><ele>0.0</ele><time>2026-04-06T15:58:22.009Z</time></trkpt><trkpt lat="53.385444632965445" lon="14.64293939854331"><ele>0.0</ele><time>2026-04-06T15:58:23.009Z</time></trkpt><trkpt lat="53.38555619579546" lon="14.642676223581075"><ele>0.0</ele><time>2026-04-06T15:58:24.009Z</time></trkpt><trkpt lat="53.38567665927322" lon="14.642413745859415"><ele>0.0</ele><time>2026-04-06T15:58:25.009Z</time></trkpt><trkpt lat="53.38581283085967" lon="14.642157837226518"><ele>0.0</ele><time>2026-04-06T15:58:26.009Z</time></trkpt><trkpt lat="53.38595443652228" lon="14.641905164845916"><ele>0.0</ele><time>2026-04-06T15:58:27.009Z</time></trkpt><trkpt lat="53.386093721823144" lon="14.641652040901448"><ele>-0.3333333333333333</ele><time>2026-04-06T15:58:28.009Z</time></trkpt><trkpt lat="53.38622047557915" lon="14.641391004849357"><ele>-0.6666666666666666</ele><time>2026-04-06T15:58:29.009Z</time></trkpt><trkpt lat="53.38634462669026" lon="14.64113009704118"><ele>-1.0</ele><time>2026-04-06T15:58:30.009Z</time></trkpt><trkpt lat="53.38646163913657" lon="14.640846312716873"><ele>-0.3333333333333333</ele><time>2026-04-06T15:58:31.009Z</time></trkpt><trkpt lat="53.38656607924193" lon="14.640553933905496"><ele>0.3333333333333333</ele><time>2026-04-06T15:58:32.009Z</time></trkpt><trkpt lat="53.386657975395266" lon="14.64026207103243"><ele>1.0</ele><time>2026-04-06T15:58:33.009Z</time></trkpt><trkpt lat="53.38673883619064" lon="14.639966308233952"><ele>1.0</ele><time>2026-04-06T15:58:34.009Z</time></trkpt><trkpt lat="53.386805802283256" lon="14.639659321036573"><ele>1.0</ele><time>2026-04-06T15:58:35.009Z</time></trkpt><trkpt lat="53.386863479468445" lon="14.63935587347649"><ele>1.0</ele><time>2026-04-06T15:58:36.009Z</time></trkpt><trkpt lat="53.386911378384546" lon="14.639056192385652"><ele>1.0</ele><time>2026-04-06T15:58:37.009Z</time></trkpt><trkpt lat="53.386945032724" lon="14.638749617851312"><ele>1.0</ele><time>2026-04-06T15:58:38.009Z</time></trkpt><trkpt lat="53.38696936625827" lon="14.638441710516787"><ele>1.0</ele><time>2026-04-06T15:58:39.009Z</time></trkpt><trkpt lat="53.38698285019481" lon="14.638142871299202"><ele>0.6666666666666666</ele><time>2026-04-06T15:58:40.009Z</time></trkpt><trkpt lat="53.38698684970088" lon="14.637852838724143"><ele>0.3333333333333333</ele><time>2026-04-06T15:58:41.009Z</time></trkpt><trkpt lat="53.38698452100376" lon="14.637570996673785"><ele>0.0</ele><time>2026-04-06T15:58:42.009Z</time></trkpt><trkpt lat="53.3869821535406" lon="14.637299638923016"><ele>0.0</ele><time>2026-04-06T15:58:43.009Z</time></trkpt><trkpt lat="53.386970740839466" lon="14.637019022933151"><ele>0.0</ele><time>2026-04-06T15:58:44.009Z</time></trkpt><trkpt lat="53.386961031813854" lon="14.636740273882424"><ele>0.0</ele><time>2026-04-06T15:58:45.009Z</time></trkpt><trkpt lat="53.38695468043951" lon="14.636452268882973"><ele>0.3333333333333333</ele><time>2026-04-06T15:58:46.009Z</time></trkpt><trkpt lat="53.38694234065329" lon="14.63615747658287"><ele>0.6666666666666666</ele><time>2026-04-06T15:58:47.009Z</time></trkpt><trkpt lat="53.38693179977031" lon="14.63587106632241"><ele>1.0</ele><time>2026-04-06T15:58:48.009Z</time></trkpt><trkpt lat="53.386928371488125" lon="14.635568300845192"><ele>0.6666666666666666</ele><time>2026-04-06T15:58:49.009Z</time></trkpt><trkpt lat="53.38692326268395" lon="14.63525608084888"><ele>0.3333333333333333</ele><time>2026-04-06T15:58:50.009Z</time></trkpt><trkpt lat="53.3869162761001" lon="14.634949296228521"><ele>0.0</ele><time>2026-04-06T15:58:51.009Z</time></trkpt><trkpt lat="53.38691337661397" lon="14.634633690395818"><ele>0.0</ele><time>2026-04-06T15:58:52.009Z</time></trkpt><trkpt lat="53.38691096523065" lon="14.6343206616843"><ele>0.0</ele><time>2026-04-06T15:58:53.009Z</time></trkpt><trkpt lat="53.38690317140594" lon="14.63398353232939"><ele>0.0</ele><time>2026-04-06T15:58:54.009Z</time></trkpt><trkpt lat="53.386896006492584" lon="14.63365222232367"><ele>0.0</ele><time>2026-04-06T15:58:55.009Z</time></trkpt><trkpt lat="53.38689318491203" lon="14.633327854746673"><ele>0.0</ele><time>2026-04-06T15:58:56.009Z</time></trkpt><trkpt lat="53.38689359593267" lon="14.633000054979757"><ele>0.0</ele><time>2026-04-06T15:58:57.009Z</time></trkpt><trkpt lat="53.38689111515969" lon="14.63266958814278"><ele>0.0</ele><time>2026-04-06T15:58:58.009Z</time></trkpt><trkpt lat="53.386887493884814" lon="14.632336741130082"><ele>0.0</ele><time>2026-04-06T15:58:59.009Z</time></trkpt><trkpt lat="53.386882245745646" lon="14.632010282034884"><ele>0.0</ele><time>2026-04-06T15:59:00.009Z</time></trkpt><trkpt lat="53.3868778050225" lon="14.63169290922427"><ele>0.0</ele><time>2026-04-06T15:59:01.009Z</time></trkpt><trkpt lat="53.386869611003505" lon="14.63137986954235"><ele>0.0</ele><time>2026-04-06T15:59:02.009Z</time></trkpt><trkpt lat="53.386867207339456" lon="14.63107147192757"><ele>0.0</ele><time>2026-04-06T15:59:03.009Z</time></trkpt><trkpt lat="53.38686557534608" lon="14.630761068057849"><ele>0.3333333333333333</ele><time>2026-04-06T15:59:04.009Z</time></trkpt><trkpt lat="53.38686471473424" lon="14.630455428756237"><ele>0.6666666666666666</ele><time>2026-04-06T15:59:05.009Z</time></trkpt><trkpt lat="53.386862165589186" lon="14.630147347765137"><ele>1.0</ele><time>2026-04-06T15:59:06.009Z</time></trkpt><trkpt lat="53.38686317339155" lon="14.629839619896252"><ele>1.0</ele><time>2026-04-06T15:59:07.009Z</time></trkpt><trkpt lat="53.38687200344633" lon="14.6295216665153"><ele>1.0</ele><time>2026-04-06T15:59:08.009Z</time></trkpt><trkpt lat="53.38689840750274" lon="14.629211854009462"><ele>1.0</ele><time>2026-04-06T15:59:09.009Z</time></trkpt><trkpt lat="53.38694006250819" lon="14.628913563814358"><ele>0.3333333333333333</ele><time>2026-04-06T15:59:10.009Z</time></trkpt><trkpt lat="53.38699123666205" lon="14.628618946504082"><ele>-0.3333333333333333</ele><time>2026-04-06T15:59:11.009Z</time></trkpt><trkpt lat="53.38706360701803" lon="14.62832861805955"><ele>-1.0</ele><time>2026-04-06T15:59:12.009Z</time></trkpt><trkpt lat="53.387136705132875" lon="14.628055975928822"><ele>-1.0</ele><time>2026-04-06T15:59:13.009Z</time></trkpt><trkpt lat="53.387222678333295" lon="14.627782296980081"><ele>-1.0</ele><time>2026-04-06T15:59:14.009Z</time></trkpt><trkpt lat="53.387317952103814" lon="14.627524449701575"><ele>-1.0</ele><time>2026-04-06T15:59:15.009Z</time></trkpt><trkpt lat="53.38742058228224" lon="14.627281933008119"><ele>-1.0</ele><time>2026-04-06T15:59:16.009Z</time></trkpt><trkpt lat="53.38752144929035" lon="14.627032806101207"><ele>-1.0</ele><time>2026-04-06T15:59:17.009Z</time></trkpt><trkpt lat="53.387627091000695" lon="14.626773292128732"><ele>-1.0</ele><time>2026-04-06T15:59:18.009Z</time></trkpt><trkpt lat="53.3877276983963" lon="14.626521879438126"><ele>-1.0</ele><time>2026-04-06T15:59:19.009Z</time></trkpt><trkpt lat="53.38782784676738" lon="14.626265454208763"><ele>-1.0</ele><time>2026-04-06T15:59:20.009Z</time></trkpt><trkpt lat="53.38792955260975" lon="14.626002143144179"><ele>-1.0</ele><time>2026-04-06T15:59:21.009Z</time></trkpt><trkpt lat="53.38803479192366" lon="14.62574800514427"><ele>-1.0</ele><time>2026-04-06T15:59:22.009Z</time></trkpt><trkpt lat="53.38813553484964" lon="14.625482502953457"><ele>-1.0</ele><time>2026-04-06T15:59:23.009Z</time></trkpt><trkpt lat="53.3882362931474" lon="14.625226757510287"><ele>-1.0</ele><time>2026-04-06T15:59:24.009Z</time></trkpt><trkpt lat="53.388344575649356" lon="14.62495527000953"><ele>-1.0</ele><time>2026-04-06T15:59:25.009Z</time></trkpt><trkpt lat="53.38844354767002" lon="14.624692926962188"><ele>-1.0</ele><time>2026-04-06T15:59:26.009Z</time></trkpt><trkpt lat="53.388548995365014" lon="14.624431212008961"><ele>-1.0</ele><time>2026-04-06T15:59:27.009Z</time></trkpt><trkpt lat="53.388654745587004" lon="14.624164555070129"><ele>-1.0</ele><time>2026-04-06T15:59:28.009Z</time></trkpt><trkpt lat="53.38875456691455" lon="14.623905884424982"><ele>-1.0</ele><time>2026-04-06T15:59:29.009Z</time></trkpt><trkpt lat="53.38885432901144" lon="14.623646373547786"><ele>-1.0</ele><time>2026-04-06T15:59:30.009Z</time></trkpt><trkpt lat="53.3889559480694" lon="14.623382650395836"><ele>-1.6666666666666665</ele><time>2026-04-06T15:59:31.009Z</time></trkpt><trkpt lat="53.389060588206306" lon="14.623121772931817"><ele>-2.3333333333333335</ele><time>2026-04-06T15:59:32.009Z</time></trkpt><trkpt lat="53.389165451319485" lon="14.622848609693467"><ele>-3.0</ele><time>2026-04-06T15:59:33.009Z</time></trkpt><trkpt lat="53.38926625388807" lon="14.62258154574923"><ele>-3.0</ele><time>2026-04-06T15:59:34.009Z</time></trkpt><trkpt lat="53.38937047389369" lon="14.622315608811173"><ele>-3.0</ele><time>2026-04-06T15:59:35.01Z</time></trkpt><trkpt lat="53.38947832099584" lon="14.622043240139565"><ele>-3.0</ele><time>2026-04-06T15:59:36.01Z</time></trkpt><trkpt lat="53.38958596645951" lon="14.621769447022926"><ele>-2.3333333333333335</ele><time>2026-04-06T15:59:37.01Z</time></trkpt><trkpt lat="53.38969585658769" lon="14.621494022535067"><ele>-1.6666666666666665</ele><time>2026-04-06T15:59:38.01Z</time></trkpt><trkpt lat="53.38980710415103" lon="14.62122981565077"><ele>-1.0</ele><time>2026-04-06T15:59:39.01Z</time></trkpt><trkpt lat="53.38992906541106" lon="14.620977263895844"><ele>-0.6666666666666666</ele><time>2026-04-06T15:59:40.01Z</time></trkpt><trkpt lat="53.3900615405575" lon="14.62073631679999"><ele>-0.3333333333333333</ele><time>2026-04-06T15:59:41.01Z</time></trkpt><trkpt lat="53.39019772670737" lon="14.62050168647167"><ele>0.0</ele><time>2026-04-06T15:59:42.01Z</time></trkpt><trkpt lat="53.390323481187124" lon="14.620294987029014"><ele>0.0</ele><time>2026-04-06T15:59:43.01Z</time></trkpt><trkpt lat="53.39046247179196" lon="14.620057233272389"><ele>0.0</ele><time>2026-04-06T15:59:44.01Z</time></trkpt><trkpt lat="53.39059411946478" lon="14.619819359025643"><ele>0.0</ele><time>2026-04-06T15:59:45.01Z</time></trkpt><trkpt lat="53.39072394109324" lon="14.619577660170743"><ele>0.3333333333333333</ele><time>2026-04-06T15:59:46.01Z</time></trkpt><trkpt lat="53.39085540554799" lon="14.619333120930305"><ele>0.6666666666666666</ele><time>2026-04-06T15:59:47.01Z</time></trkpt><trkpt lat="53.39098645089555" lon="14.61908621591377"><ele>1.0</ele><time>2026-04-06T15:59:48.01Z</time></trkpt><trkpt lat="53.391125793454734" lon="14.618837736045693"><ele>0.6666666666666666</ele><time>2026-04-06T15:59:49.01Z</time></trkpt><trkpt lat="53.39127252986013" lon="14.618585175827201"><ele>0.3333333333333333</ele><time>2026-04-06T15:59:50.01Z</time></trkpt><trkpt lat="53.391419422179254" lon="14.618333623964006"><ele>0.0</ele><time>2026-04-06T15:59:51.01Z</time></trkpt><trkpt lat="53.39156875871879" lon="14.61807595784298"><ele>0.6666666666666666</ele><time>2026-04-06T15:59:52.01Z</time></trkpt><trkpt lat="53.39171861355887" lon="14.617821573253797"><ele>1.3333333333333333</ele><time>2026-04-06T15:59:53.01Z</time></trkpt><trkpt lat="53.39186640946464" lon="14.617566340102387"><ele>2.0</ele><time>2026-04-06T15:59:54.01Z</time></trkpt><trkpt lat="53.392013303959004" lon="14.61731169083805"><ele>2.0</ele><time>2026-04-06T15:59:55.01Z</time></trkpt><trkpt lat="53.39215645773111" lon="14.61705909577071"><ele>2.0</ele><time>2026-04-06T15:59:56.01Z</time></trkpt><trkpt lat="53.392304318221065" lon="14.616804241958942"><ele>2.0</ele><time>2026-04-06T15:59:57.01Z</time></trkpt><trkpt lat="53.39244370990486" lon="14.61653683076362"><ele>2.0</ele><time>2026-04-06T15:59:58.01Z</time></trkpt><trkpt lat="53.3925706140628" lon="14.6162656612748"><ele>2.0</ele><time>2026-04-06T15:59:59.01Z</time></trkpt><trkpt lat="53.39270239316998" lon="14.615985065586278"><ele>2.0</ele><time>2026-04-06T16:00:00.01Z</time></trkpt><trkpt lat="53.39283104933635" lon="14.615696210793212"><ele>2.333333333333333</ele><time>2026-04-06T16:00:01.01Z</time></trkpt><trkpt lat="53.392958681353335" lon="14.61539903559633"><ele>2.6666666666666665</ele><time>2026-04-06T16:00:02.01Z</time></trkpt><trkpt lat="53.39308092667447" lon="14.615097786368343"><ele>3.0</ele><time>2026-04-06T16:00:03.01Z</time></trkpt><trkpt lat="53.39319874384454" lon="14.614798940215163"><ele>2.3333333333333335</ele><time>2026-04-06T16:00:04.01Z</time></trkpt><trkpt lat="53.39330927437566" lon="14.614497792564192"><ele>1.6666666666666665</ele><time>2026-04-06T16:00:05.01Z</time></trkpt><trkpt lat="53.39342007849325" lon="14.614195259666742"><ele>1.0</ele><time>2026-04-06T16:00:06.01Z</time></trkpt><trkpt lat="53.39353443689123" lon="14.613886369563334"><ele>0.6666666666666666</ele><time>2026-04-06T16:00:07.01Z</time></trkpt><trkpt lat="53.39364827961855" lon="14.613577430244828"><ele>0.3333333333333333</ele><time>2026-04-06T16:00:08.01Z</time></trkpt><trkpt lat="53.39376062262909" lon="14.613267134432924"><ele>0.0</ele><time>2026-04-06T16:00:09.01Z</time></trkpt><trkpt lat="53.39387392855986" lon="14.612956052865018"><ele>0.0</ele><time>2026-04-06T16:00:10.01Z</time></trkpt><trkpt lat="53.393989140396556" lon="14.612643947237217"><ele>0.0</ele><time>2026-04-06T16:00:11.01Z</time></trkpt><trkpt lat="53.39410576356313" lon="14.612335573224211"><ele>0.0</ele><time>2026-04-06T16:00:12.01Z</time></trkpt><trkpt lat="53.394222444836394" lon="14.612027775534568"><ele>0.0</ele><time>2026-04-06T16:00:13.01Z</time></trkpt><trkpt lat="53.39433557912407" lon="14.61172281786195"><ele>0.0</ele><time>2026-04-06T16:00:14.01Z</time></trkpt><trkpt lat="53.394448492525896" lon="14.611420379723286"><ele>0.0</ele><time>2026-04-06T16:00:15.01Z</time></trkpt><trkpt lat="53.3945587525258" lon="14.61112399729105"><ele>0.3333333333333333</ele><time>2026-04-06T16:00:16.01Z</time></trkpt><trkpt lat="53.39466633610489" lon="14.610823573227176"><ele>0.6666666666666666</ele><time>2026-04-06T16:00:17.01Z</time></trkpt><trkpt lat="53.39477535558202" lon="14.610530099965255"><ele>1.0</ele><time>2026-04-06T16:00:18.01Z</time></trkpt><trkpt lat="53.39488413023434" lon="14.61023956438971"><ele>1.0</ele><time>2026-04-06T16:00:19.01Z</time></trkpt><trkpt lat="53.3949898531978" lon="14.60995219588103"><ele>1.0</ele><time>2026-04-06T16:00:20.01Z</time></trkpt><trkpt lat="53.39509388746476" lon="14.609661032306716"><ele>1.0</ele><time>2026-04-06T16:00:21.01Z</time></trkpt><trkpt lat="53.39519946246634" lon="14.609372822210215"><ele>1.0</ele><time>2026-04-06T16:00:22.01Z</time></trkpt><trkpt lat="53.39530177398271" lon="14.609085746208692"><ele>1.0</ele><time>2026-04-06T16:00:23.01Z</time></trkpt><trkpt lat="53.3953953811627" lon="14.608791489840561"><ele>1.0</ele><time>2026-04-06T16:00:24.01Z</time></trkpt><trkpt lat="53.39548913309395" lon="14.60848827275946"><ele>0.0</ele><time>2026-04-06T16:00:25.01Z</time></trkpt><trkpt lat="53.395580999933664" lon="14.608177098201903"><ele>-1.0</ele><time>2026-04-06T16:00:26.01Z</time></trkpt><trkpt lat="53.39567474916884" lon="14.607838049161986"><ele>-2.0</ele><time>2026-04-06T16:00:27.01Z</time></trkpt><trkpt lat="53.39576484367779" lon="14.607487566242906"><ele>-2.0</ele><time>2026-04-06T16:00:28.01Z</time></trkpt><trkpt lat="53.39584778887009" lon="14.607147255839681"><ele>-2.0</ele><time>2026-04-06T16:00:29.01Z</time></trkpt><trkpt lat="53.395928115712735" lon="14.606811387352797"><ele>-2.0</ele><time>2026-04-06T16:00:30.01Z</time></trkpt><trkpt lat="53.39600373603339" lon="14.606480452652434"><ele>-0.6666666666666666</ele><time>2026-04-06T16:00:31.01Z</time></trkpt><trkpt lat="53.39607656087874" lon="14.60615630450326"><ele>0.6666666666666666</ele><time>2026-04-06T16:00:32.01Z</time></trkpt><trkpt lat="53.39615047443871" lon="14.605838063045258"><ele>2.0</ele><time>2026-04-06T16:00:33.01Z</time></trkpt><trkpt lat="53.39622646287255" lon="14.605512867962908"><ele>2.0</ele><time>2026-04-06T16:00:34.01Z</time></trkpt><trkpt lat="53.39630275439285" lon="14.605186625737579"><ele>2.0</ele><time>2026-04-06T16:00:35.01Z</time></trkpt><trkpt lat="53.39637910533534" lon="14.604858155181784"><ele>2.0</ele><time>2026-04-06T16:00:36.01Z</time></trkpt><trkpt lat="53.3964540140795" lon="14.604536729718568"><ele>1.3333333333333333</ele><time>2026-04-06T16:00:37.01Z</time></trkpt><trkpt lat="53.39652885160403" lon="14.604215627445774"><ele>0.6666666666666666</ele><time>2026-04-06T16:00:38.01Z</time></trkpt><trkpt lat="53.39660457994815" lon="14.603898018288419"><ele>0.0</ele><time>2026-04-06T16:00:39.01Z</time></trkpt><trkpt lat="53.39669759580291" lon="14.603595725768196"><ele>0.0</ele><time>2026-04-06T16:00:40.01Z</time></trkpt><trkpt lat="53.396778696604045" lon="14.603282328228406"><ele>0.0</ele><time>2026-04-06T16:00:41.01Z</time></trkpt><trkpt lat="53.396858497176176" lon="14.602994732747124"><ele>0.0</ele><time>2026-04-06T16:00:42.01Z</time></trkpt><trkpt lat="53.39695060039543" lon="14.602730161941833"><ele>0.0</ele><time>2026-04-06T16:00:43.01Z</time></trkpt><trkpt lat="53.39705046620347" lon="14.602483166612013"><ele>0.0</ele><time>2026-04-06T16:00:44.01Z</time></trkpt><trkpt lat="53.39716080755694" lon="14.602237914690411"><ele>0.0</ele><time>2026-04-06T16:00:45.01Z</time></trkpt><trkpt lat="53.397282415624126" lon="14.601995075511894"><ele>-0.3333333333333333</ele><time>2026-04-06T16:00:46.01Z</time></trkpt><trkpt lat="53.39741060627355" lon="14.601765889739886"><ele>-0.6666666666666666</ele><time>2026-04-06T16:00:47.01Z</time></trkpt><trkpt lat="53.39754784641955" lon="14.601538923508134"><ele>-1.0</ele><time>2026-04-06T16:00:48.01Z</time></trkpt><trkpt lat="53.397683675410065" lon="14.601301656090468"><ele>-1.0</ele><time>2026-04-06T16:00:49.01Z</time></trkpt><trkpt lat="53.39783875434515" lon="14.601109918328735"><ele>-1.0</ele><time>2026-04-06T16:00:50.01Z</time></trkpt><trkpt lat="53.39800057931172" lon="14.600933815328078"><ele>-1.0</ele><time>2026-04-06T16:00:51.01Z</time></trkpt><trkpt lat="53.39816223529457" lon="14.600771480285788"><ele>-1.0</ele><time>2026-04-06T16:00:52.01Z</time></trkpt><trkpt lat="53.39833094670981" lon="14.600638765087593"><ele>-1.0</ele><time>2026-04-06T16:00:53.01Z</time></trkpt><trkpt lat="53.39849415191435" lon="14.60052548724951"><ele>-1.0</ele><time>2026-04-06T16:00:54.01Z</time></trkpt><trkpt lat="53.398658136989994" lon="14.60042003871772"><ele>-1.0</ele><time>2026-04-06T16:00:55.01Z</time></trkpt><trkpt lat="53.39882098646976" lon="14.600325516197048"><ele>-1.0</ele><time>2026-04-06T16:00:56.01Z</time></trkpt><trkpt lat="53.39897936764259" lon="14.60024404531014"><ele>-1.0</ele><time>2026-04-06T16:00:57.01Z</time></trkpt><trkpt lat="53.3991401638953" lon="14.60017016538597"><ele>-1.0</ele><time>2026-04-06T16:00:58.01Z</time></trkpt><trkpt lat="53.39929261998691" lon="14.600112796938497"><ele>-1.0</ele><time>2026-04-06T16:00:59.01Z</time></trkpt><trkpt lat="53.39944551493727" lon="14.600041378792225"><ele>-1.0</ele><time>2026-04-06T16:01:00.01Z</time></trkpt><trkpt lat="53.399610049053955" lon="14.599970160330006"><ele>-1.0</ele><time>2026-04-06T16:01:01.01Z</time></trkpt><trkpt lat="53.39977126061612" lon="14.599899813538"><ele>-1.0</ele><time>2026-04-06T16:01:02.01Z</time></trkpt><trkpt lat="53.39994579281645" lon="14.599825716128597"><ele>-1.0</ele><time>2026-04-06T16:01:03.011Z</time></trkpt><trkpt lat="53.40011865876726" lon="14.599757969629913"><ele>-1.0</ele><time>2026-04-06T16:01:04.011Z</time></trkpt><trkpt lat="53.400292048837464" lon="14.599689131588605"><ele>-1.0</ele><time>2026-04-06T16:01:05.011Z</time></trkpt><trkpt lat="53.40046881041752" lon="14.599612923835783"><ele>-1.0</ele><time>2026-04-06T16:01:06.011Z</time></trkpt><trkpt lat="53.40064211736083" lon="14.599538053826521"><ele>-1.0</ele><time>2026-04-06T16:01:07.011Z</time></trkpt><trkpt lat="53.40081503740016" lon="14.599466341125808"><ele>-1.0</ele><time>2026-04-06T16:01:08.011Z</time></trkpt><trkpt lat="53.40098687720283" lon="14.599393070651788"><ele>-1.0</ele><time>2026-04-06T16:01:09.011Z</time></trkpt><trkpt lat="53.40116180456144" lon="14.599316293255507"><ele>-1.0</ele><time>2026-04-06T16:01:10.011Z</time></trkpt><trkpt lat="53.40134024741193" lon="14.599241594320086"><ele>-1.0</ele><time>2026-04-06T16:01:11.011Z</time></trkpt><trkpt lat="53.40151961725054" lon="14.599187332142309"><ele>-1.0</ele><time>2026-04-06T16:01:12.011Z</time></trkpt><trkpt lat="53.40169697700402" lon="14.599107767616857"><ele>-1.0</ele><time>2026-04-06T16:01:13.011Z</time></trkpt><trkpt lat="53.40187967578284" lon="14.5990289313873"><ele>-1.0</ele><time>2026-04-06T16:01:14.011Z</time></trkpt><trkpt lat="53.40205695317694" lon="14.598958039638779"><ele>-1.0</ele><time>2026-04-06T16:01:15.011Z</time></trkpt><trkpt lat="53.40223808249833" lon="14.598879117144726"><ele>-0.6666666666666666</ele><time>2026-04-06T16:01:16.011Z</time></trkpt><trkpt lat="53.402408311137556" lon="14.598798312501327"><ele>-0.3333333333333333</ele><time>2026-04-06T16:01:17.011Z</time></trkpt><trkpt lat="53.402576711651996" lon="14.598689806530837"><ele>0.0</ele><time>2026-04-06T16:01:18.011Z</time></trkpt><trkpt lat="53.402745045407315" lon="14.598558341263336"><ele>0.0</ele><time>2026-04-06T16:01:19.011Z</time></trkpt><trkpt lat="53.40290471580144" lon="14.59841295629353"><ele>0.0</ele><time>2026-04-06T16:01:20.011Z</time></trkpt><trkpt lat="53.40306652790301" lon="14.598257198190186"><ele>0.0</ele><time>2026-04-06T16:01:21.011Z</time></trkpt><trkpt lat="53.40322238543923" lon="14.598101114766651"><ele>0.0</ele><time>2026-04-06T16:01:22.011Z</time></trkpt><trkpt lat="53.40338108225698" lon="14.597937175563791"><ele>0.0</ele><time>2026-04-06T16:01:23.011Z</time></trkpt><trkpt lat="53.40354043425364" lon="14.597765857653515"><ele>0.0</ele><time>2026-04-06T16:01:24.011Z</time></trkpt><trkpt lat="53.40369685767663" lon="14.597590622464757"><ele>-0.3333333333333333</ele><time>2026-04-06T16:01:25.011Z</time></trkpt><trkpt lat="53.40384108050483" lon="14.5974148792105"><ele>-0.6666666666666666</ele><time>2026-04-06T16:01:26.011Z</time></trkpt><trkpt lat="53.40397216092656" lon="14.597233417884965"><ele>-1.0</ele><time>2026-04-06T16:01:27.011Z</time></trkpt><trkpt lat="53.404092404002355" lon="14.59704232174891"><ele>-0.3333333333333333</ele><time>2026-04-06T16:01:28.011Z</time></trkpt><trkpt lat="53.40420081121278" lon="14.596838219205608"><ele>0.3333333333333333</ele><time>2026-04-06T16:01:29.011Z</time></trkpt><trkpt lat="53.404308896248786" lon="14.596618782490129"><ele>1.0</ele><time>2026-04-06T16:01:30.011Z</time></trkpt><trkpt lat="53.4044130172267" lon="14.596389881446207"><ele>1.0</ele><time>2026-04-06T16:01:31.011Z</time></trkpt><trkpt lat="53.404518225147044" lon="14.596146259393942"><ele>1.0</ele><time>2026-04-06T16:01:32.011Z</time></trkpt><trkpt lat="53.404625822780964" lon="14.595901460684535"><ele>1.0</ele><time>2026-04-06T16:01:33.011Z</time></trkpt><trkpt lat="53.404727244585224" lon="14.595663599304002"><ele>1.0</ele><time>2026-04-06T16:01:34.011Z</time></trkpt><trkpt lat="53.40482779710833" lon="14.595427469251959"><ele>1.0</ele><time>2026-04-06T16:01:35.011Z</time></trkpt><trkpt lat="53.40492626334815" lon="14.595199010119554"><ele>1.0</ele><time>2026-04-06T16:01:36.011Z</time></trkpt><trkpt lat="53.40502549745873" lon="14.594967527493628"><ele>1.0</ele><time>2026-04-06T16:01:37.011Z</time></trkpt><trkpt lat="53.40512886198434" lon="14.59472842462447"><ele>1.0</ele><time>2026-04-06T16:01:38.011Z</time></trkpt><trkpt lat="53.40523854969895" lon="14.594481844837711"><ele>1.0</ele><time>2026-04-06T16:01:39.011Z</time></trkpt><trkpt lat="53.40534737298017" lon="14.594232445116235"><ele>0.6666666666666666</ele><time>2026-04-06T16:01:40.011Z</time></trkpt><trkpt lat="53.40546066589244" lon="14.593978870310556"><ele>0.3333333333333333</ele><time>2026-04-06T16:01:41.011Z</time></trkpt><trkpt lat="53.40556229518362" lon="14.593726215065736"><ele>0.0</ele><time>2026-04-06T16:01:42.011Z</time></trkpt><trkpt lat="53.405660207634604" lon="14.593491047850117"><ele>-0.3333333333333333</ele><time>2026-04-06T16:01:43.011Z</time></trkpt><trkpt lat="53.405763606133355" lon="14.593254342075106"><ele>-0.6666666666666666</ele><time>2026-04-06T16:01:44.011Z</time></trkpt><trkpt lat="53.40586588835374" lon="14.593019030963612"><ele>-1.0</ele><time>2026-04-06T16:01:45.011Z</time></trkpt><trkpt lat="53.40597119162533" lon="14.592782413297227"><ele>-1.3333333333333333</ele><time>2026-04-06T16:01:46.011Z</time></trkpt><trkpt lat="53.40607120989302" lon="14.59254643285707"><ele>-1.6666666666666665</ele><time>2026-04-06T16:01:47.011Z</time></trkpt><trkpt lat="53.406173551320435" lon="14.592313389525682"><ele>-2.0</ele><time>2026-04-06T16:01:48.011Z</time></trkpt><trkpt lat="53.406281722277576" lon="14.59206672334864"><ele>-1.6666666666666665</ele><time>2026-04-06T16:01:49.011Z</time></trkpt><trkpt lat="53.40639070329437" lon="14.591816138189024"><ele>-1.3333333333333333</ele><time>2026-04-06T16:01:50.011Z</time></trkpt><trkpt lat="53.40649696035855" lon="14.591572677991936"><ele>-1.0</ele><time>2026-04-06T16:01:51.011Z</time></trkpt><trkpt lat="53.40660112486644" lon="14.5913193564066"><ele>-0.6666666666666666</ele><time>2026-04-06T16:01:52.011Z</time></trkpt><trkpt lat="53.40671362588318" lon="14.591059292972544"><ele>-0.3333333333333333</ele><time>2026-04-06T16:01:53.011Z</time></trkpt><trkpt lat="53.40682788571278" lon="14.590792697406727"><ele>0.0</ele><time>2026-04-06T16:01:54.011Z</time></trkpt><trkpt lat="53.40694200426608" lon="14.590518101171165"><ele>0.0</ele><time>2026-04-06T16:01:55.011Z</time></trkpt><trkpt lat="53.40706092021129" lon="14.590230868245916"><ele>0.0</ele><time>2026-04-06T16:01:56.011Z</time></trkpt><trkpt lat="53.40718532430629" lon="14.589941170690377"><ele>0.0</ele><time>2026-04-06T16:01:57.011Z</time></trkpt><trkpt lat="53.40731087132063" lon="14.58966441645328"><ele>0.3333333333333333</ele><time>2026-04-06T16:01:58.011Z</time></trkpt><trkpt lat="53.40743384304636" lon="14.589393655651564"><ele>0.6666666666666666</ele><time>2026-04-06T16:01:59.011Z</time></trkpt><trkpt lat="53.407556757902775" lon="14.589112568335112"><ele>1.0</ele><time>2026-04-06T16:02:00.011Z</time></trkpt><trkpt lat="53.4076798508698" lon="14.588829426894678"><ele>0.6666666666666666</ele><time>2026-04-06T16:02:01.011Z</time></trkpt><trkpt lat="53.40780184889615" lon="14.58855476372383"><ele>0.3333333333333333</ele><time>2026-04-06T16:02:02.011Z</time></trkpt><trkpt lat="53.40792168959017" lon="14.588275766445113"><ele>0.0</ele><time>2026-04-06T16:02:03.011Z</time></trkpt><trkpt lat="53.40804368294673" lon="14.58799263453085"><ele>0.3333333333333333</ele><time>2026-04-06T16:02:04.011Z</time></trkpt><trkpt lat="53.4081670220943" lon="14.587704648997237"><ele>0.6666666666666666</ele><time>2026-04-06T16:02:05.011Z</time></trkpt><trkpt lat="53.408294168938674" lon="14.58741634111097"><ele>1.0</ele><time>2026-04-06T16:02:06.011Z</time></trkpt><trkpt lat="53.408424783514164" lon="14.587125110824909"><ele>1.0</ele><time>2026-04-06T16:02:07.011Z</time></trkpt><trkpt lat="53.408555046282956" lon="14.586834459182988"><ele>1.0</ele><time>2026-04-06T16:02:08.011Z</time></trkpt><trkpt lat="53.408684670018914" lon="14.586539929169831"><ele>1.0</ele><time>2026-04-06T16:02:09.011Z</time></trkpt><trkpt lat="53.40881281034211" lon="14.586246324575315"><ele>1.3333333333333333</ele><time>2026-04-06T16:02:10.011Z</time></trkpt><trkpt lat="53.408940014826676" lon="14.585953096298022"><ele>1.6666666666666665</ele><time>2026-04-06T16:02:11.011Z</time></trkpt><trkpt lat="53.40906606140912" lon="14.58566553714457"><ele>2.0</ele><time>2026-04-06T16:02:12.011Z</time></trkpt><trkpt lat="53.40919019012397" lon="14.58538415028098"><ele>2.6666666666666665</ele><time>2026-04-06T16:02:13.011Z</time></trkpt><trkpt lat="53.409310113697344" lon="14.585115692945113"><ele>3.333333333333333</ele><time>2026-04-06T16:02:14.011Z</time></trkpt><trkpt lat="53.40942569452113" lon="14.5848551756221"><ele>4.0</ele><time>2026-04-06T16:02:15.011Z</time></trkpt><trkpt lat="53.40953631767391" lon="14.584600185979989"><ele>4.0</ele><time>2026-04-06T16:02:16.011Z</time></trkpt><trkpt lat="53.409647890473046" lon="14.584351940729137"><ele>4.0</ele><time>2026-04-06T16:02:17.011Z</time></trkpt><trkpt lat="53.40975478707215" lon="14.58412560301627"><ele>4.0</ele><time>2026-04-06T16:02:18.011Z</time></trkpt><trkpt lat="53.40986673272717" lon="14.58388407843658"><ele>3.6666666666666665</ele><time>2026-04-06T16:02:19.011Z</time></trkpt><trkpt lat="53.40997706191433" lon="14.58365982425993"><ele>3.333333333333333</ele><time>2026-04-06T16:02:20.011Z</time></trkpt><trkpt lat="53.41008491289428" lon="14.583428246050206"><ele>3.0</ele><time>2026-04-06T16:02:21.011Z</time></trkpt><trkpt lat="53.41019444971681" lon="14.583186875283396"><ele>3.0</ele><time>2026-04-06T16:02:22.011Z</time></trkpt><trkpt lat="53.410308699374895" lon="14.58293607620888"><ele>3.0</ele><time>2026-04-06T16:02:23.011Z</time></trkpt><trkpt lat="53.410422188709084" lon="14.582684257610799"><ele>3.0</ele><time>2026-04-06T16:02:24.011Z</time></trkpt><trkpt lat="53.41053680083972" lon="14.582427240162453"><ele>3.0</ele><time>2026-04-06T16:02:25.011Z</time></trkpt><trkpt lat="53.41064894014098" lon="14.582175752546748"><ele>3.0</ele><time>2026-04-06T16:02:26.011Z</time></trkpt><trkpt lat="53.41076347957907" lon="14.581920421509926"><ele>3.0</ele><time>2026-04-06T16:02:27.011Z</time></trkpt><trkpt lat="53.41087032349144" lon="14.58167021064101"><ele>2.3333333333333335</ele><time>2026-04-06T16:02:28.011Z</time></trkpt><trkpt lat="53.4109806857501" lon="14.581430099510015"><ele>1.6666666666666665</ele><time>2026-04-06T16:02:29.011Z</time></trkpt><trkpt lat="53.41108896823294" lon="14.581186887386583"><ele>1.0</ele><time>2026-04-06T16:02:30.011Z</time></trkpt><trkpt lat="53.41119870457043" lon="14.580938360406357"><ele>0.6666666666666666</ele><time>2026-04-06T16:02:31.012Z</time></trkpt><trkpt lat="53.41130892340015" lon="14.580680684646026"><ele>0.3333333333333333</ele><time>2026-04-06T16:02:32.012Z</time></trkpt><trkpt lat="53.41141080192769" lon="14.580418300514959"><ele>0.0</ele><time>2026-04-06T16:02:33.012Z</time></trkpt><trkpt lat="53.41151870668994" lon="14.5801532525989"><ele>0.0</ele><time>2026-04-06T16:02:34.012Z</time></trkpt><trkpt lat="53.411625930812" lon="14.579881735612519"><ele>0.0</ele><time>2026-04-06T16:02:35.012Z</time></trkpt><trkpt lat="53.411726607311834" lon="14.579608213460414"><ele>0.0</ele><time>2026-04-06T16:02:36.012Z</time></trkpt><trkpt lat="53.411832492919636" lon="14.579369736880457"><ele>0.0</ele><time>2026-04-06T16:02:37.012Z</time></trkpt><trkpt lat="53.41191283013987" lon="14.579111857359218"><ele>0.0</ele><time>2026-04-06T16:02:38.012Z</time></trkpt><trkpt lat="53.412009552964626" lon="14.578872455291684"><ele>0.0</ele><time>2026-04-06T16:02:39.012Z</time></trkpt><trkpt lat="53.412119212121794" lon="14.578645216567667"><ele>0.0</ele><time>2026-04-06T16:02:40.012Z</time></trkpt><trkpt lat="53.41219943348288" lon="14.578406948611384"><ele>0.0</ele><time>2026-04-06T16:02:41.012Z</time></trkpt><trkpt lat="53.41228421926468" lon="14.57818797321646"><ele>0.0</ele><time>2026-04-06T16:02:42.012Z</time></trkpt><trkpt lat="53.412382000435045" lon="14.577980881261443"><ele>0.0</ele><time>2026-04-06T16:02:43.012Z</time></trkpt><trkpt lat="53.41247869415839" lon="14.57775323338946"><ele>0.0</ele><time>2026-04-06T16:02:44.012Z</time></trkpt><trkpt lat="53.41257189341662" lon="14.577517449781958"><ele>0.0</ele><time>2026-04-06T16:02:45.012Z</time></trkpt><trkpt lat="53.41265912949299" lon="14.577295256897244"><ele>0.0</ele><time>2026-04-06T16:02:46.012Z</time></trkpt><trkpt lat="53.41275087200601" lon="14.57707807693856"><ele>0.0</ele><time>2026-04-06T16:02:47.012Z</time></trkpt><trkpt lat="53.412837725777806" lon="14.576857959689734"><ele>0.0</ele><time>2026-04-06T16:02:48.012Z</time></trkpt><trkpt lat="53.412922827493894" lon="14.576645350087636"><ele>-0.25</ele><time>2026-04-06T16:02:49.012Z</time></trkpt><trkpt lat="53.41300610332806" lon="14.576435749219291"><ele>-0.5</ele><time>2026-04-06T16:02:50.012Z</time></trkpt><trkpt lat="53.41308688958393" lon="14.57622975411723"><ele>-0.75</ele><time>2026-04-06T16:02:51.012Z</time></trkpt><trkpt lat="53.41316539718365" lon="14.576032712879014"><ele>-1.0</ele><time>2026-04-06T16:02:52.012Z</time></trkpt><trkpt lat="53.41323662212446" lon="14.57583895689704"><ele>-1.0</ele><time>2026-04-06T16:02:53.012Z</time></trkpt><trkpt lat="53.4133050307061" lon="14.5756439111165"><ele>-1.0</ele><time>2026-04-06T16:02:54.012Z</time></trkpt><trkpt lat="53.4133767502722" lon="14.575425103066177"><ele>-1.0</ele><time>2026-04-06T16:02:55.012Z</time></trkpt><trkpt lat="53.41346506887859" lon="14.575181294588143"><ele>-0.6666666666666666</ele><time>2026-04-06T16:02:56.012Z</time></trkpt><trkpt lat="53.413557567768926" lon="14.574935035422955"><ele>-0.3333333333333333</ele><time>2026-04-06T16:02:57.012Z</time></trkpt><trkpt lat="53.41365505489939" lon="14.574718356414902"><ele>0.0</ele><time>2026-04-06T16:02:58.012Z</time></trkpt><trkpt lat="53.41374589254215" lon="14.574509516084355"><ele>-0.3333333333333333</ele><time>2026-04-06T16:02:59.012Z</time></trkpt><trkpt lat="53.41383056834933" lon="14.574286935061961"><ele>-0.6666666666666666</ele><time>2026-04-06T16:03:00.012Z</time></trkpt><trkpt lat="53.413912717717515" lon="14.574068587815058"><ele>-1.0</ele><time>2026-04-06T16:03:01.012Z</time></trkpt><trkpt lat="53.41399576764486" lon="14.57384052376924"><ele>-1.3333333333333333</ele><time>2026-04-06T16:03:02.012Z</time></trkpt><trkpt lat="53.41408328403751" lon="14.573607614201135"><ele>-1.6666666666666665</ele><time>2026-04-06T16:03:03.012Z</time></trkpt><trkpt lat="53.41417257341115" lon="14.573370190507067"><ele>-2.0</ele><time>2026-04-06T16:03:04.012Z</time></trkpt><trkpt lat="53.41426363130147" lon="14.573128186187233"><ele>-2.0</ele><time>2026-04-06T16:03:05.012Z</time></trkpt><trkpt lat="53.414354932294884" lon="14.572884395004486"><ele>-2.0</ele><time>2026-04-06T16:03:06.012Z</time></trkpt><trkpt lat="53.41445097139097" lon="14.572640549228211"><ele>-2.0</ele><time>2026-04-06T16:03:07.012Z</time></trkpt><trkpt lat="53.41454935560859" lon="14.572387025430722"><ele>-2.0</ele><time>2026-04-06T16:03:08.012Z</time></trkpt><trkpt lat="53.414674244065175" lon="14.57218488778737"><ele>-2.0</ele><time>2026-04-06T16:03:09.012Z</time></trkpt><trkpt lat="53.41476801434751" lon="14.571965151122303"><ele>-2.0</ele><time>2026-04-06T16:03:10.012Z</time></trkpt><trkpt lat="53.41481110804146" lon="14.571711887323941"><ele>-2.0</ele><time>2026-04-06T16:03:11.012Z</time></trkpt><trkpt lat="53.41487182662614" lon="14.571485527681427"><ele>-2.0</ele><time>2026-04-06T16:03:12.012Z</time></trkpt><trkpt lat="53.414930905381375" lon="14.57125869913455"><ele>-2.0</ele><time>2026-04-06T16:03:13.012Z</time></trkpt><trkpt lat="53.414992741079196" lon="14.571029006384261"><ele>-2.0</ele><time>2026-04-06T16:03:14.012Z</time></trkpt><trkpt lat="53.41504996398455" lon="14.570823681886523"><ele>-2.0</ele><time>2026-04-06T16:03:15.012Z</time></trkpt><trkpt lat="53.41510217097041" lon="14.57063308369532"><ele>-2.0</ele><time>2026-04-06T16:03:16.012Z</time></trkpt><trkpt lat="53.415147472085856" lon="14.570457335248491"><ele>-2.0</ele><time>2026-04-06T16:03:17.012Z</time></trkpt><trkpt lat="53.4151890980936" lon="14.57026698670677"><ele>-2.0</ele><time>2026-04-06T16:03:18.012Z</time></trkpt><trkpt lat="53.41523441721789" lon="14.570066415242362"><ele>-1.5</ele><time>2026-04-06T16:03:19.012Z</time></trkpt><trkpt lat="53.415273717099645" lon="14.56987388734892"><ele>-1.0</ele><time>2026-04-06T16:03:20.012Z</time></trkpt><trkpt lat="53.41531485860133" lon="14.56965251340052"><ele>-0.5</ele><time>2026-04-06T16:03:21.012Z</time></trkpt><trkpt lat="53.41535953673415" lon="14.569407423970162"><ele>0.0</ele><time>2026-04-06T16:03:22.012Z</time></trkpt><trkpt lat="53.415420602654685" lon="14.56915177745012"><ele>0.0</ele><time>2026-04-06T16:03:23.012Z</time></trkpt><trkpt lat="53.41549790216137" lon="14.56892192421825"><ele>0.0</ele><time>2026-04-06T16:03:24.012Z</time></trkpt><trkpt lat="53.41559660630486" lon="14.568713298258531"><ele>0.0</ele><time>2026-04-06T16:03:25.012Z</time></trkpt><trkpt lat="53.41572209476051" lon="14.5685103256724"><ele>0.3333333333333333</ele><time>2026-04-06T16:03:26.012Z</time></trkpt><trkpt lat="53.41587748485546" lon="14.568352947963573"><ele>0.6666666666666666</ele><time>2026-04-06T16:03:27.012Z</time></trkpt><trkpt lat="53.41604011688215" lon="14.568247316815704"><ele>1.0</ele><time>2026-04-06T16:03:28.012Z</time></trkpt><trkpt lat="53.41621467130595" lon="14.568187703192594"><ele>-0.33333333333333337</ele><time>2026-04-06T16:03:29.012Z</time></trkpt><trkpt lat="53.416399564235476" lon="14.568175723285263"><ele>-1.6666666666666667</ele><time>2026-04-06T16:03:30.012Z</time></trkpt><trkpt lat="53.41658364651448" lon="14.568217648276388"><ele>-3.0</ele><time>2026-04-06T16:03:31.012Z</time></trkpt><trkpt lat="53.41676203053746" lon="14.5682442813968"><ele>-3.0</ele><time>2026-04-06T16:03:32.012Z</time></trkpt><trkpt lat="53.41694503794988" lon="14.56825682093643"><ele>-3.0</ele><time>2026-04-06T16:03:33.012Z</time></trkpt><trkpt lat="53.41713407736413" lon="14.568265024530225"><ele>-3.0</ele><time>2026-04-06T16:03:34.012Z</time></trkpt><trkpt lat="53.41732142955373" lon="14.56827001423513"><ele>-2.3333333333333335</ele><time>2026-04-06T16:03:35.012Z</time></trkpt><trkpt lat="53.41749390688446" lon="14.56826343761773"><ele>-1.6666666666666665</ele><time>2026-04-06T16:03:36.012Z</time></trkpt><trkpt lat="53.4176607958426" lon="14.568224225975351"><ele>-1.0</ele><time>2026-04-06T16:03:37.012Z</time></trkpt><trkpt lat="53.41782722922844" lon="14.568154100330856"><ele>0.0</ele><time>2026-04-06T16:03:38.012Z</time></trkpt><trkpt lat="53.417990542285914" lon="14.568044357914067"><ele>1.0</ele><time>2026-04-06T16:03:39.012Z</time></trkpt><trkpt lat="53.418142110438026" lon="14.567897437591494"><ele>2.0</ele><time>2026-04-06T16:03:40.012Z</time></trkpt><trkpt lat="53.41827583712189" lon="14.567714037799503"><ele>2.0</ele><time>2026-04-06T16:03:41.012Z</time></trkpt><trkpt lat="53.41838243450456" lon="14.56749722752029"><ele>2.0</ele><time>2026-04-06T16:03:42.012Z</time></trkpt><trkpt lat="53.418479352234286" lon="14.56727408738169"><ele>2.0</ele><time>2026-04-06T16:03:43.012Z</time></trkpt><trkpt lat="53.418596369831455" lon="14.567033483940023"><ele>2.333333333333333</ele><time>2026-04-06T16:03:44.012Z</time></trkpt><trkpt lat="53.41870180632456" lon="14.566801472534797"><ele>2.6666666666666665</ele><time>2026-04-06T16:03:45.012Z</time></trkpt><trkpt lat="53.41880154076167" lon="14.566593980055059"><ele>3.0</ele><time>2026-04-06T16:03:46.012Z</time></trkpt><trkpt lat="53.418900385537555" lon="14.566394851079819"><ele>3.0</ele><time>2026-04-06T16:03:47.012Z</time></trkpt><trkpt lat="53.41899533344341" lon="14.56620938342324"><ele>3.0</ele><time>2026-04-06T16:03:48.012Z</time></trkpt><trkpt lat="53.419068901535006" lon="14.566010547932525"><ele>3.0</ele><time>2026-04-06T16:03:49.012Z</time></trkpt><trkpt lat="53.41914661189993" lon="14.565872299402495"><ele>3.0</ele><time>2026-04-06T16:03:50.012Z</time></trkpt><trkpt lat="53.41920709862492" lon="14.5657631766233"><ele>3.0</ele><time>2026-04-06T16:03:51.012Z</time></trkpt><trkpt lat="53.41927028091343" lon="14.565657237848418"><ele>3.0</ele><time>2026-04-06T16:03:52.012Z</time></trkpt><trkpt lat="53.419321943827" lon="14.565545478077631"><ele>3.0</ele><time>2026-04-06T16:03:53.012Z</time></trkpt><trkpt lat="53.41937527387235" lon="14.565444486932646"><ele>3.0</ele><time>2026-04-06T16:03:54.012Z</time></trkpt><trkpt lat="53.41944719256949" lon="14.56535262330039"><ele>3.0</ele><time>2026-04-06T16:03:55.012Z</time></trkpt><trkpt lat="53.41954325241555" lon="14.565339661665261"><ele>3.0</ele><time>2026-04-06T16:03:56.012Z</time></trkpt><trkpt lat="53.419625343844444" lon="14.565359381569843"><ele>2.4</ele><time>2026-04-06T16:03:57.012Z</time></trkpt><trkpt lat="53.41970114603899" lon="14.565350015986798"><ele>1.7999999999999998</ele><time>2026-04-06T16:03:58.012Z</time></trkpt><trkpt lat="53.419780150323945" lon="14.565290271163326"><ele>1.2</ele><time>2026-04-06T16:03:59.013Z</time></trkpt><trkpt lat="53.419858154035445" lon="14.565189548060808"><ele>0.6</ele><time>2026-04-06T16:04:00.013Z</time></trkpt><trkpt lat="53.41991550675225" lon="14.565064262278318"><ele>0.0</ele><time>2026-04-06T16:04:01.013Z</time></trkpt><trkpt lat="53.419968307718314" lon="14.564914198130081"><ele>0.0</ele><time>2026-04-06T16:04:02.013Z</time></trkpt><trkpt lat="53.41999024540245" lon="14.564749853081135"><ele>0.0</ele><time>2026-04-06T16:04:03.013Z</time></trkpt><trkpt lat="53.41998620871998" lon="14.564598091565696"><ele>0.0</ele><time>2026-04-06T16:04:04.013Z</time></trkpt><trkpt lat="53.41998227586362" lon="14.564469938148381"><ele>0.0</ele><time>2026-04-06T16:04:05.013Z</time></trkpt><trkpt lat="53.42000575318838" lon="14.56433052556943"><ele>0.0</ele><time>2026-04-06T16:04:06.013Z</time></trkpt><trkpt lat="53.42005968766051" lon="14.564194445166063"><ele>-0.2</ele><time>2026-04-06T16:04:07.013Z</time></trkpt><trkpt lat="53.42013347290192" lon="14.564070601036107"><ele>-0.4</ele><time>2026-04-06T16:04:08.013Z</time></trkpt><trkpt lat="53.42020822556553" lon="14.563944370720137"><ele>-0.6000000000000001</ele><time>2026-04-06T16:04:09.013Z</time></trkpt><trkpt lat="53.42028304270216" lon="14.56380739039589"><ele>-0.8</ele><time>2026-04-06T16:04:10.013Z</time></trkpt><trkpt lat="53.42035232938339" lon="14.563678420923473"><ele>-1.0</ele><time>2026-04-06T16:04:11.013Z</time></trkpt><trkpt lat="53.42041246472063" lon="14.563564699552039"><ele>-0.8571428571428571</ele><time>2026-04-06T16:04:12.013Z</time></trkpt><trkpt lat="53.42046790540418" lon="14.563462503351175"><ele>-0.7142857142857142</ele><time>2026-04-06T16:04:13.013Z</time></trkpt><trkpt lat="53.420520601731184" lon="14.563362994949932"><ele>-0.5714285714285714</ele><time>2026-04-06T16:04:14.013Z</time></trkpt><trkpt lat="53.420568629381194" lon="14.563263514791943"><ele>-0.42857142857142855</ele><time>2026-04-06T16:04:15.013Z</time></trkpt><trkpt lat="53.420615499515456" lon="14.563168968492716"><ele>-0.2857142857142857</ele><time>2026-04-06T16:04:16.013Z</time></trkpt><trkpt lat="53.420661948009894" lon="14.56308431426352"><ele>-0.14285714285714285</ele><time>2026-04-06T16:04:17.013Z</time></trkpt><trkpt lat="53.420704589144584" lon="14.562998174679734"><ele>0.0</ele><time>2026-04-06T16:04:18.013Z</time></trkpt><trkpt lat="53.42077665702339" lon="14.56286088289781"><ele>0.3333333333333333</ele><time>2026-04-06T16:04:20.013Z</time></trkpt><trkpt lat="53.42082065406977" lon="14.56276511373802"><ele>0.6666666666666666</ele><time>2026-04-06T16:04:22.013Z</time></trkpt><trkpt lat="53.42086217673671" lon="14.562680038920785"><ele>1.0</ele><time>2026-04-06T16:04:24.013Z</time></trkpt><trkpt lat="53.42091903097019" lon="14.562564220186648"><ele>1.3333333333333333</ele><time>2026-04-06T16:04:27.013Z</time></trkpt><trkpt lat="53.4209814363696" lon="14.562456710109139"><ele>1.6666666666666665</ele><time>2026-04-06T16:04:29.013Z</time></trkpt><trkpt lat="53.421038109706714" lon="14.562372176311431"><ele>2.0</ele><time>2026-04-06T16:04:31.013Z</time></trkpt><trkpt lat="53.42107908027181" lon="14.562281873326205"><ele>2.0</ele><time>2026-04-06T16:04:32.013Z</time></trkpt><trkpt lat="53.42113912941435" lon="14.562169418582915"><ele>2.0</ele><time>2026-04-06T16:04:33.013Z</time></trkpt><trkpt lat="53.42119654387949" lon="14.562047775745025"><ele>2.0</ele><time>2026-04-06T16:04:34.013Z</time></trkpt><trkpt lat="53.421272053497404" lon="14.561892959894397"><ele>2.0</ele><time>2026-04-06T16:04:35.013Z</time></trkpt><trkpt lat="53.42134831272515" lon="14.561751387768217"><ele>2.0</ele><time>2026-04-06T16:04:36.013Z</time></trkpt><trkpt lat="53.42143894666916" lon="14.561590721806908"><ele>2.25</ele><time>2026-04-06T16:04:37.013Z</time></trkpt><trkpt lat="53.421538978237" lon="14.561416810912872"><ele>2.5</ele><time>2026-04-06T16:04:38.013Z</time></trkpt><trkpt lat="53.421643059126154" lon="14.56124754121987"><ele>2.75</ele><time>2026-04-06T16:04:39.013Z</time></trkpt><trkpt lat="53.42174528214383" lon="14.561095773392443"><ele>3.0</ele><time>2026-04-06T16:04:40.013Z</time></trkpt><trkpt lat="53.42183534010562" lon="14.560955597832049"><ele>2.6</ele><time>2026-04-06T16:04:41.013Z</time></trkpt><trkpt lat="53.421916714173754" lon="14.560827116640521"><ele>2.1999999999999997</ele><time>2026-04-06T16:04:42.013Z</time></trkpt><trkpt lat="53.42199237179442" lon="14.560702523171129"><ele>1.8</ele><time>2026-04-06T16:04:43.013Z</time></trkpt><trkpt lat="53.4220656380578" lon="14.56059320293474"><ele>1.4</ele><time>2026-04-06T16:04:44.013Z</time></trkpt><trkpt lat="53.42212777730187" lon="14.560497776720677"><ele>1.0</ele><time>2026-04-06T16:04:45.013Z</time></trkpt><trkpt lat="53.422186531418916" lon="14.560403380231831"><ele>0.8333333333333333</ele><time>2026-04-06T16:04:46.013Z</time></trkpt><trkpt lat="53.42224647220112" lon="14.560302613849927"><ele>0.6666666666666666</ele><time>2026-04-06T16:04:47.013Z</time></trkpt><trkpt lat="53.422305255751084" lon="14.560203578397203"><ele>0.5</ele><time>2026-04-06T16:04:48.013Z</time></trkpt><trkpt lat="53.42236242700884" lon="14.560112009590434"><ele>0.3333333333333333</ele><time>2026-04-06T16:04:49.013Z</time></trkpt><trkpt lat="53.422417265700176" lon="14.56002532225556"><ele>0.16666666666666666</ele><time>2026-04-06T16:04:50.013Z</time></trkpt><trkpt lat="53.42246450126816" lon="14.559948023639965"><ele>0.0</ele><time>2026-04-06T16:04:51.013Z</time></trkpt><trkpt lat="53.422561519151905" lon="14.559798825615449"><ele>0.0</ele><time>2026-04-06T16:04:53.013Z</time></trkpt><trkpt lat="53.422620718507446" lon="14.559727384478073"><ele>0.0</ele><time>2026-04-06T16:04:54.013Z</time></trkpt><trkpt lat="53.42268934218282" lon="14.559657152883156"><ele>0.0</ele><time>2026-04-06T16:04:55.013Z</time></trkpt><trkpt lat="53.422763207456896" lon="14.559595312251565"><ele>0.0</ele><time>2026-04-06T16:04:56.013Z</time></trkpt><trkpt lat="53.42283512089657" lon="14.559521944188281"><ele>0.0</ele><time>2026-04-06T16:04:57.013Z</time></trkpt><trkpt lat="53.42291216032154" lon="14.559430790774941"><ele>0.0</ele><time>2026-04-06T16:04:58.013Z</time></trkpt><trkpt lat="53.42299124554596" lon="14.559327117827474"><ele>1.5</ele><time>2026-04-06T16:04:59.013Z</time></trkpt><trkpt lat="53.42307505867209" lon="14.55920955265141"><ele>3.0</ele><time>2026-04-06T16:05:00.013Z</time></trkpt><trkpt lat="53.423161277551394" lon="14.559071213601703"><ele>4.5</ele><time>2026-04-06T16:05:01.013Z</time></trkpt><trkpt lat="53.42324562611108" lon="14.55892932689913"><ele>6.0</ele><time>2026-04-06T16:05:02.013Z</time></trkpt><trkpt lat="53.42332726571199" lon="14.558778109911477"><ele>6.5</ele><time>2026-04-06T16:05:03.013Z</time></trkpt><trkpt lat="53.42340626189599" lon="14.558619143438833"><ele>7.0</ele><time>2026-04-06T16:05:04.013Z</time></trkpt><trkpt lat="53.42348129114827" lon="14.558467774713225"><ele>7.5</ele><time>2026-04-06T16:05:05.013Z</time></trkpt><trkpt lat="53.42355497911329" lon="14.558311682094672"><ele>8.0</ele><time>2026-04-06T16:05:06.013Z</time></trkpt><trkpt lat="53.42362323978567" lon="14.558153601140312"><ele>8.0</ele><time>2026-04-06T16:05:07.013Z</time></trkpt><trkpt lat="53.42369213997879" lon="14.55798078216469"><ele>8.0</ele><time>2026-04-06T16:05:08.013Z</time></trkpt><trkpt lat="53.42375609048085" lon="14.55780267584209"><ele>8.0</ele><time>2026-04-06T16:05:09.013Z</time></trkpt><trkpt lat="53.423818257088556" lon="14.557611838201975"><ele>8.0</ele><time>2026-04-06T16:05:10.013Z</time></trkpt><trkpt lat="53.423880384098794" lon="14.557432611304963"><ele>9.25</ele><time>2026-04-06T16:05:10.999Z</time></trkpt><trkpt lat="53.42394844925972" lon="14.55723801505772"><ele>10.5</ele><time>2026-04-06T16:05:11.999Z</time></trkpt><trkpt lat="53.42400684942929" lon="14.55703426991"><ele>11.75</ele><time>2026-04-06T16:05:12.999Z</time></trkpt><trkpt lat="53.424059279976596" lon="14.55682664148003"><ele>13.0</ele><time>2026-04-06T16:05:13.999Z</time></trkpt><trkpt lat="53.42409969053995" lon="14.55661307787665"><ele>13.5</ele><time>2026-04-06T16:05:14.999Z</time></trkpt><trkpt lat="53.42413951950711" lon="14.556397092487096"><ele>14.0</ele><time>2026-04-06T16:05:15.999Z</time></trkpt><trkpt lat="53.42418019572401" lon="14.556180110084489"><ele>14.5</ele><time>2026-04-06T16:05:16.999Z</time></trkpt><trkpt lat="53.42421957788887" lon="14.555965229249846"><ele>15.0</ele><time>2026-04-06T16:05:17.999Z</time></trkpt><trkpt lat="53.42425751870541" lon="14.555756868726872"><ele>15.5</ele><time>2026-04-06T16:05:18.999Z</time></trkpt><trkpt lat="53.42428942804055" lon="14.555540711565229"><ele>16.0</ele><time>2026-04-06T16:05:19.999Z</time></trkpt><trkpt lat="53.42431693883038" lon="14.555325304171692"><ele>16.5</ele><time>2026-04-06T16:05:20.999Z</time></trkpt><trkpt lat="53.424342972976504" lon="14.555109032594668"><ele>17.0</ele><time>2026-04-06T16:05:21.999Z</time></trkpt><trkpt lat="53.424365637709904" lon="14.554884931784187"><ele>17.5</ele><time>2026-04-06T16:05:22.999Z</time></trkpt><trkpt lat="53.42438566110847" lon="14.554667759476235"><ele>18.0</ele><time>2026-04-06T16:05:23.999Z</time></trkpt><trkpt lat="53.42440558817074" lon="14.554451150748744"><ele>18.5</ele><time>2026-04-06T16:05:24.999Z</time></trkpt><trkpt lat="53.4244288130257" lon="14.554233194312932"><ele>19.0</ele><time>2026-04-06T16:05:25.999Z</time></trkpt><trkpt lat="53.424453020803284" lon="14.55402440053456"><ele>19.5</ele><time>2026-04-06T16:05:26.999Z</time></trkpt><trkpt lat="53.42448548657935" lon="14.553824602038969"><ele>20.0</ele><time>2026-04-06T16:05:27.999Z</time></trkpt><trkpt lat="53.42451830931064" lon="14.553621170474687"><ele>20.5</ele><time>2026-04-06T16:05:28.999Z</time></trkpt><trkpt lat="53.4245455616023" lon="14.55342059172693"><ele>21.0</ele><time>2026-04-06T16:05:29.999Z</time></trkpt><trkpt lat="53.424577404065886" lon="14.553227657761818"><ele>21.166666666666668</ele><time>2026-04-06T16:05:30.999Z</time></trkpt><trkpt lat="53.42459950413141" lon="14.553058327770959"><ele>21.333333333333332</ele><time>2026-04-06T16:05:31.999Z</time></trkpt><trkpt lat="53.424620228098064" lon="14.552908101983807"><ele>21.5</ele><time>2026-04-06T16:05:32.999Z</time></trkpt><trkpt lat="53.4246389329306" lon="14.552774399677716"><ele>21.666666666666664</ele><time>2026-04-06T16:05:33.999Z</time></trkpt><trkpt lat="53.42465223962208" lon="14.552656602847835"><ele>21.833333333333332</ele><time>2026-04-06T16:05:34.999Z</time></trkpt><trkpt lat="53.42467377998087" lon="14.552491711832873"><ele>22.0</ele><time>2026-04-06T16:05:36.999Z</time></trkpt><trkpt lat="53.424691835012055" lon="14.552328406206342"><ele>22.0</ele><time>2026-04-06T16:05:38.999Z</time></trkpt><trkpt lat="53.42474347176074" lon="14.55217703742417"><ele>22.0</ele><time>2026-04-06T16:05:40.999Z</time></trkpt><trkpt lat="53.4248221538564" lon="14.55209613822254"><ele>22.0</ele><time>2026-04-06T16:05:42.999Z</time></trkpt><trkpt lat="53.4248242688339" lon="14.551972834521877"><ele>22.0</ele><time>2026-04-06T16:05:44.999Z</time></trkpt><trkpt lat="53.424875191216685" lon="14.551845738477935"><ele>22.0</ele><time>2026-04-06T16:05:46.999Z</time></trkpt><trkpt lat="53.42491471779217" lon="14.551741267846506"><ele>22.0</ele><time>2026-04-06T16:05:48.999Z</time></trkpt><trkpt lat="53.42496240057229" lon="14.551601922228018"><ele>21.75</ele><time>2026-04-06T16:05:51.999Z</time></trkpt><trkpt lat="53.4250345510258" lon="14.55150909169615"><ele>21.5</ele><time>2026-04-06T16:06:20.997Z</time></trkpt><trkpt lat="53.42506605217889" lon="14.551284979063492"><ele>21.25</ele><time>2026-04-06T16:06:22.997Z</time></trkpt><trkpt lat="53.42509682231529" lon="14.551099684541368"><ele>21.0</ele><time>2026-04-06T16:06:23.997Z</time></trkpt><trkpt lat="53.425122264947824" lon="14.550923875069333"><ele>21.0</ele><time>2026-04-06T16:06:24.997Z</time></trkpt><trkpt lat="53.42514591031688" lon="14.55072249733699"><ele>21.0</ele><time>2026-04-06T16:06:25.997Z</time></trkpt><trkpt lat="53.42517081792925" lon="14.550515539456777"><ele>21.0</ele><time>2026-04-06T16:06:26.997Z</time></trkpt><trkpt lat="53.42520133196483" lon="14.550292299334833"><ele>21.0</ele><time>2026-04-06T16:06:27.997Z</time></trkpt><trkpt lat="53.42523200483736" lon="14.550054948866654"><ele>21.0</ele><time>2026-04-06T16:06:28.997Z</time></trkpt><trkpt lat="53.4252767699965" lon="14.549809274325622"><ele>21.0</ele><time>2026-04-06T16:06:29.997Z</time></trkpt><trkpt lat="53.42531149576773" lon="14.549548273366026"><ele>21.0</ele><time>2026-04-06T16:06:30.997Z</time></trkpt><trkpt lat="53.42536182676382" lon="14.549282281848319"><ele>21.0</ele><time>2026-04-06T16:06:31.997Z</time></trkpt><trkpt lat="53.42540496428488" lon="14.549016859552125"><ele>21.0</ele><time>2026-04-06T16:06:32.997Z</time></trkpt><trkpt lat="53.425455533996704" lon="14.548733582015526"><ele>21.0</ele><time>2026-04-06T16:06:33.997Z</time></trkpt><trkpt lat="53.42553633308285" lon="14.54846447224464"><ele>21.666666666666668</ele><time>2026-04-06T16:06:34.997Z</time></trkpt><trkpt lat="53.42563692232678" lon="14.548190504510606"><ele>22.333333333333336</ele><time>2026-04-06T16:06:35.997Z</time></trkpt><trkpt lat="53.425729776188824" lon="14.547918081196626"><ele>23.0</ele><time>2026-04-06T16:06:36.997Z</time></trkpt><trkpt lat="53.4258120480915" lon="14.547658803779436"><ele>23.0</ele><time>2026-04-06T16:06:37.997Z</time></trkpt><trkpt lat="53.42587779057666" lon="14.54741559501497"><ele>23.0</ele><time>2026-04-06T16:06:38.997Z</time></trkpt><trkpt lat="53.425919683176645" lon="14.547143042362224"><ele>23.0</ele><time>2026-04-06T16:06:39.997Z</time></trkpt><trkpt lat="53.42595249579843" lon="14.54686445914548"><ele>23.0</ele><time>2026-04-06T16:06:40.997Z</time></trkpt><trkpt lat="53.425986545799766" lon="14.546634997313978"><ele>23.0</ele><time>2026-04-06T16:06:41.997Z</time></trkpt><trkpt lat="53.426027017666044" lon="14.546409469348253"><ele>23.0</ele><time>2026-04-06T16:06:42.997Z</time></trkpt><trkpt lat="53.426056077779194" lon="14.546203661877978"><ele>23.0</ele><time>2026-04-06T16:06:43.997Z</time></trkpt><trkpt lat="53.42603877575609" lon="14.546024613084416"><ele>23.0</ele><time>2026-04-06T16:06:44.997Z</time></trkpt><trkpt lat="53.42603162375435" lon="14.545835815342057"><ele>23.0</ele><time>2026-04-06T16:06:45.997Z</time></trkpt><trkpt lat="53.42599667874908" lon="14.545641501917277"><ele>23.0</ele><time>2026-04-06T16:06:46.997Z</time></trkpt><trkpt lat="53.425991574794985" lon="14.545445705620615"><ele>23.0</ele><time>2026-04-06T16:06:47.997Z</time></trkpt><trkpt lat="53.42601804021271" lon="14.545263177139049"><ele>22.75</ele><time>2026-04-06T16:06:48.997Z</time></trkpt><trkpt lat="53.42606594902128" lon="14.545063589391994"><ele>22.5</ele><time>2026-04-06T16:06:49.997Z</time></trkpt><trkpt lat="53.42609424508923" lon="14.544829426144583"><ele>22.25</ele><time>2026-04-06T16:06:50.998Z</time></trkpt><trkpt lat="53.426131837256214" lon="14.544584270924954"><ele>22.0</ele><time>2026-04-06T16:06:51.998Z</time></trkpt><trkpt lat="53.42615927015768" lon="14.54436520594971"><ele>21.75</ele><time>2026-04-06T16:06:52.998Z</time></trkpt><trkpt lat="53.42618382178882" lon="14.544137514006069"><ele>21.5</ele><time>2026-04-06T16:06:53.998Z</time></trkpt><trkpt lat="53.42620682270715" lon="14.543903021939997"><ele>21.25</ele><time>2026-04-06T16:06:54.998Z</time></trkpt><trkpt lat="53.42624093461299" lon="14.543662500899451"><ele>21.0</ele><time>2026-04-06T16:06:55.998Z</time></trkpt><trkpt lat="53.426286990473805" lon="14.543431530008318"><ele>21.333333333333332</ele><time>2026-04-06T16:06:56.998Z</time></trkpt><trkpt lat="53.426326967439614" lon="14.543171392561305"><ele>21.666666666666664</ele><time>2026-04-06T16:06:57.998Z</time></trkpt><trkpt lat="53.42637770132896" lon="14.54291346792962"><ele>22.0</ele><time>2026-04-06T16:06:58.998Z</time></trkpt><trkpt lat="53.4264144473938" lon="14.542653733855468"><ele>22.0</ele><time>2026-04-06T16:06:59.998Z</time></trkpt><trkpt lat="53.42644782406036" lon="14.54239811847408"><ele>22.0</ele><time>2026-04-06T16:07:00.998Z</time></trkpt><trkpt lat="53.42648220818327" lon="14.542166830795281"><ele>22.0</ele><time>2026-04-06T16:07:01.998Z</time></trkpt><trkpt lat="53.42651683700586" lon="14.541965146050694"><ele>22.0</ele><time>2026-04-06T16:07:02.998Z</time></trkpt><trkpt lat="53.426546405955804" lon="14.54175629575176"><ele>22.0</ele><time>2026-04-06T16:07:03.998Z</time></trkpt><trkpt lat="53.42656591812316" lon="14.541558322122974"><ele>22.0</ele><time>2026-04-06T16:07:04.998Z</time></trkpt><trkpt lat="53.42659096417785" lon="14.541367541903094"><ele>22.0</ele><time>2026-04-06T16:07:05.998Z</time></trkpt><trkpt lat="53.42661839374337" lon="14.541181509005337"><ele>22.0</ele><time>2026-04-06T16:07:06.998Z</time></trkpt><trkpt lat="53.42666191179694" lon="14.541022460999933"><ele>22.5</ele><time>2026-04-06T16:07:07.998Z</time></trkpt><trkpt lat="53.426683553683354" lon="14.540859339795476"><ele>23.0</ele><time>2026-04-06T16:07:08.998Z</time></trkpt><trkpt lat="53.426702216294245" lon="14.54066820423904"><ele>23.5</ele><time>2026-04-06T16:07:09.998Z</time></trkpt><trkpt lat="53.42674200940642" lon="14.540449556168687"><ele>24.0</ele><time>2026-04-06T16:07:10.998Z</time></trkpt><trkpt lat="53.426780079234" lon="14.540216547500778"><ele>24.0</ele><time>2026-04-06T16:07:11.998Z</time></trkpt><trkpt lat="53.42681258067304" lon="14.539978602771763"><ele>24.0</ele><time>2026-04-06T16:07:12.998Z</time></trkpt><trkpt lat="53.42683920006699" lon="14.539748851768804"><ele>24.0</ele><time>2026-04-06T16:07:13.998Z</time></trkpt><trkpt lat="53.42686496864916" lon="14.539513820941181"><ele>24.0</ele><time>2026-04-06T16:07:14.998Z</time></trkpt><trkpt lat="53.42691057759523" lon="14.539318214057861"><ele>24.0</ele><time>2026-04-06T16:07:15.998Z</time></trkpt><trkpt lat="53.42693756603114" lon="14.539140861487924"><ele>24.0</ele><time>2026-04-06T16:07:16.998Z</time></trkpt><trkpt lat="53.42696083719531" lon="14.538971625189253"><ele>24.0</ele><time>2026-04-06T16:07:17.998Z</time></trkpt><trkpt lat="53.42698722070922" lon="14.538815564104484"><ele>24.0</ele><time>2026-04-06T16:07:18.998Z</time></trkpt><trkpt lat="53.42700683272439" lon="14.53867303864218"><ele>24.0</ele><time>2026-04-06T16:07:19.998Z</time></trkpt><trkpt lat="53.42704511060674" lon="14.538539717623568"><ele>23.666666666666668</ele><time>2026-04-06T16:07:20.998Z</time></trkpt><trkpt lat="53.42707021894548" lon="14.53840173327107"><ele>23.333333333333332</ele><time>2026-04-06T16:07:21.998Z</time></trkpt><trkpt lat="53.42709147425753" lon="14.538298991845194"><ele>23.0</ele><time>2026-04-06T16:07:22.998Z</time></trkpt><trkpt lat="53.42713239739239" lon="14.538132844227922"><ele>22.666666666666664</ele><time>2026-04-06T16:07:24.998Z</time></trkpt><trkpt lat="53.42716072489913" lon="14.538030124352536"><ele>22.333333333333332</ele><time>2026-04-06T16:07:26.998Z</time></trkpt><trkpt lat="53.42720675880516" lon="14.537867643621727"><ele>22.0</ele><time>2026-04-06T16:07:29.998Z</time></trkpt><trkpt lat="53.42725283998006" lon="14.5376062031896"><ele>22.0</ele><time>2026-04-06T16:07:31.998Z</time></trkpt><trkpt lat="53.42728801082805" lon="14.53746021213477"><ele>22.0</ele><time>2026-04-06T16:07:32.998Z</time></trkpt><trkpt lat="53.42731532329472" lon="14.537314460222516"><ele>22.0</ele><time>2026-04-06T16:07:33.998Z</time></trkpt><trkpt lat="53.42733829585421" lon="14.53720068526442"><ele>22.0</ele><time>2026-04-06T16:07:34.998Z</time></trkpt><trkpt lat="53.42736152367819" lon="14.536978826731247"><ele>22.0</ele><time>2026-04-06T16:07:36.998Z</time></trkpt><trkpt lat="53.42736738901108" lon="14.536860879663019"><ele>21.8</ele><time>2026-04-06T16:07:37.998Z</time></trkpt><trkpt lat="53.42739038183801" lon="14.536739183482515"><ele>21.6</ele><time>2026-04-06T16:07:38.998Z</time></trkpt><trkpt lat="53.42740250253577" lon="14.536594321482408"><ele>21.400000000000002</ele><time>2026-04-06T16:07:39.998Z</time></trkpt><trkpt lat="53.42742328489171" lon="14.53643251461609"><ele>21.200000000000003</ele><time>2026-04-06T16:07:40.998Z</time></trkpt><trkpt lat="53.42745371859273" lon="14.536217903982307"><ele>21.0</ele><time>2026-04-06T16:07:41.998Z</time></trkpt><trkpt lat="53.42748463801299" lon="14.53599103407468"><ele>21.0</ele><time>2026-04-06T16:07:42.998Z</time></trkpt><trkpt lat="53.427513503810715" lon="14.53580858641581"><ele>21.0</ele><time>2026-04-06T16:07:43.998Z</time></trkpt><trkpt lat="53.427540195157995" lon="14.53562194350368"><ele>21.0</ele><time>2026-04-06T16:07:44.998Z</time></trkpt><trkpt lat="53.42756274429083" lon="14.535419513810895"><ele>21.0</ele><time>2026-04-06T16:07:45.998Z</time></trkpt><trkpt lat="53.42759273693688" lon="14.535226520485827"><ele>21.0</ele><time>2026-04-06T16:07:46.998Z</time></trkpt><trkpt lat="53.42762854634519" lon="14.53503061375302"><ele>21.0</ele><time>2026-04-06T16:07:47.998Z</time></trkpt><trkpt lat="53.42766265636534" lon="14.534840425469616"><ele>21.0</ele><time>2026-04-06T16:07:48.998Z</time></trkpt><trkpt lat="53.42769288671454" lon="14.534632456331524"><ele>21.0</ele><time>2026-04-06T16:07:49.998Z</time></trkpt><trkpt lat="53.42772297224309" lon="14.534438198392044"><ele>21.0</ele><time>2026-04-06T16:07:50.998Z</time></trkpt><trkpt lat="53.4277485423581" lon="14.534230693035692"><ele>21.0</ele><time>2026-04-06T16:07:51.998Z</time></trkpt><trkpt lat="53.427786752357314" lon="14.5340133343869"><ele>21.0</ele><time>2026-04-06T16:07:52.998Z</time></trkpt><trkpt lat="53.42782308684804" lon="14.533772976992342"><ele>21.0</ele><time>2026-04-06T16:07:53.998Z</time></trkpt><trkpt lat="53.42785657948634" lon="14.533521754146143"><ele>21.0</ele><time>2026-04-06T16:07:54.998Z</time></trkpt><trkpt lat="53.4278935928192" lon="14.53326470119493"><ele>21.0</ele><time>2026-04-06T16:07:55.998Z</time></trkpt><trkpt lat="53.42793443559987" lon="14.533012761712145"><ele>21.0</ele><time>2026-04-06T16:07:56.998Z</time></trkpt><trkpt lat="53.42797081335371" lon="14.532755076247344"><ele>20.333333333333332</ele><time>2026-04-06T16:07:57.998Z</time></trkpt><trkpt lat="53.428014328446814" lon="14.532503361653934"><ele>19.666666666666664</ele><time>2026-04-06T16:07:58.998Z</time></trkpt><trkpt lat="53.42804719404753" lon="14.532233886042459"><ele>19.0</ele><time>2026-04-06T16:07:59.998Z</time></trkpt><trkpt lat="53.42807816200503" lon="14.531957269701637"><ele>18.666666666666664</ele><time>2026-04-06T16:08:00.998Z</time></trkpt><trkpt lat="53.42809519943954" lon="14.531681820120365"><ele>18.333333333333332</ele><time>2026-04-06T16:08:01.998Z</time></trkpt><trkpt lat="53.428099695028344" lon="14.531411486360765"><ele>18.0</ele><time>2026-04-06T16:08:02.998Z</time></trkpt><trkpt lat="53.42810357615342" lon="14.53111410140008"><ele>18.0</ele><time>2026-04-06T16:08:03.996Z</time></trkpt><trkpt lat="53.42811023341866" lon="14.530803748250966"><ele>18.0</ele><time>2026-04-06T16:08:04.996Z</time></trkpt><trkpt lat="53.428122835293145" lon="14.530492411365275"><ele>18.0</ele><time>2026-04-06T16:08:05.996Z</time></trkpt><trkpt lat="53.42814374142054" lon="14.530159046485277"><ele>18.0</ele><time>2026-04-06T16:08:06.996Z</time></trkpt><trkpt lat="53.428167687040364" lon="14.529812281472685"><ele>18.0</ele><time>2026-04-06T16:08:07.996Z</time></trkpt><trkpt lat="53.428190098117" lon="14.529473193569867"><ele>18.0</ele><time>2026-04-06T16:08:08.996Z</time></trkpt><trkpt lat="53.42823527277477" lon="14.529140007303594"><ele>18.666666666666668</ele><time>2026-04-06T16:08:09.996Z</time></trkpt><trkpt lat="53.42826663095065" lon="14.528786669590051"><ele>19.333333333333336</ele><time>2026-04-06T16:08:10.996Z</time></trkpt><trkpt lat="53.42829859747969" lon="14.528430873528322"><ele>20.0</ele><time>2026-04-06T16:08:11.996Z</time></trkpt><trkpt lat="53.42833144829961" lon="14.528071091629316"><ele>19.666666666666668</ele><time>2026-04-06T16:08:12.996Z</time></trkpt><trkpt lat="53.428359921570326" lon="14.527726230891147"><ele>19.333333333333332</ele><time>2026-04-06T16:08:13.996Z</time></trkpt><trkpt lat="53.42838959026487" lon="14.527384509685195"><ele>19.0</ele><time>2026-04-06T16:08:14.996Z</time></trkpt><trkpt lat="53.42842018971958" lon="14.527033671257133"><ele>19.0</ele><time>2026-04-06T16:08:15.996Z</time></trkpt><trkpt lat="53.42844924965214" lon="14.52670320959842"><ele>19.0</ele><time>2026-04-06T16:08:16.997Z</time></trkpt><trkpt lat="53.428476801329126" lon="14.526391687807157"><ele>19.0</ele><time>2026-04-06T16:08:17.997Z</time></trkpt><trkpt lat="53.42850374012012" lon="14.526087096373406"><ele>19.333333333333332</ele><time>2026-04-06T16:08:18.997Z</time></trkpt><trkpt lat="53.42853077338188" lon="14.525781436749396"><ele>19.666666666666668</ele><time>2026-04-06T16:08:19.997Z</time></trkpt><trkpt lat="53.42855041189962" lon="14.525478095446331"><ele>20.0</ele><time>2026-04-06T16:08:20.997Z</time></trkpt><trkpt lat="53.42857565705487" lon="14.525182679406148"><ele>20.333333333333336</ele><time>2026-04-06T16:08:21.997Z</time></trkpt><trkpt lat="53.428602405193836" lon="14.524876461407345"><ele>20.666666666666668</ele><time>2026-04-06T16:08:22.997Z</time></trkpt><trkpt lat="53.428628041088174" lon="14.524567435544931"><ele>21.0</ele><time>2026-04-06T16:08:23.997Z</time></trkpt><trkpt lat="53.4286535514034" lon="14.524243519553416"><ele>21.0</ele><time>2026-04-06T16:08:24.997Z</time></trkpt><trkpt lat="53.428678256935285" lon="14.52392807291346"><ele>21.0</ele><time>2026-04-06T16:08:25.997Z</time></trkpt><trkpt lat="53.42870630886824" lon="14.523608908842395"><ele>21.0</ele><time>2026-04-06T16:08:26.997Z</time></trkpt><trkpt lat="53.42873094461513" lon="14.523287578202696"><ele>20.666666666666668</ele><time>2026-04-06T16:08:27.997Z</time></trkpt><trkpt lat="53.428761055253865" lon="14.52296786087035"><ele>20.333333333333336</ele><time>2026-04-06T16:08:28.997Z</time></trkpt><trkpt lat="53.42878340872857" lon="14.522645171144465"><ele>20.0</ele><time>2026-04-06T16:08:29.997Z</time></trkpt><trkpt lat="53.4288075471083" lon="14.522326325112028"><ele>23.0</ele><time>2026-04-06T16:08:30.997Z</time></trkpt><trkpt lat="53.42882690300894" lon="14.5220038931524"><ele>26.0</ele><time>2026-04-06T16:08:31.997Z</time></trkpt><trkpt lat="53.428841447234134" lon="14.521681101909564"><ele>29.0</ele><time>2026-04-06T16:08:32.997Z</time></trkpt><trkpt lat="53.428837112367695" lon="14.521355562163633"><ele>30.666666666666664</ele><time>2026-04-06T16:08:33.997Z</time></trkpt><trkpt lat="53.428862841288364" lon="14.521059952028903"><ele>32.333333333333336</ele><time>2026-04-06T16:08:34.997Z</time></trkpt><trkpt lat="53.428855851254326" lon="14.520685892197806"><ele>34.0</ele><time>2026-04-06T16:08:35.997Z</time></trkpt><trkpt lat="53.428835739238494" lon="14.5203634805293"><ele>34.0</ele><time>2026-04-06T16:08:36.997Z</time></trkpt><trkpt lat="53.4288151262746" lon="14.520069441397954"><ele>34.0</ele><time>2026-04-06T16:08:37.997Z</time></trkpt><trkpt lat="53.42879449980736" lon="14.519796355431252"><ele>34.0</ele><time>2026-04-06T16:08:38.997Z</time></trkpt><trkpt lat="53.42878375361742" lon="14.5195486734298"><ele>34.0</ele><time>2026-04-06T16:08:39.997Z</time></trkpt><trkpt lat="53.42877188977927" lon="14.51932640280042"><ele>34.0</ele><time>2026-04-06T16:08:40.997Z</time></trkpt><trkpt lat="53.428755682432055" lon="14.519122201035525"><ele>34.0</ele><time>2026-04-06T16:08:41.997Z</time></trkpt><trkpt lat="53.42874272082444" lon="14.518930064741081"><ele>34.0</ele><time>2026-04-06T16:08:42.997Z</time></trkpt><trkpt lat="53.42874623044467" lon="14.51875529148527"><ele>34.16666666666667</ele><time>2026-04-06T16:08:43.997Z</time></trkpt><trkpt lat="53.428737927675186" lon="14.518611780924216"><ele>34.333333333333336</ele><time>2026-04-06T16:08:44.997Z</time></trkpt><trkpt lat="53.42873139970277" lon="14.518477641582475"><ele>34.5</ele><time>2026-04-06T16:08:45.997Z</time></trkpt><trkpt lat="53.428723435775176" lon="14.518356405010667"><ele>34.666666666666664</ele><time>2026-04-06T16:08:46.997Z</time></trkpt><trkpt lat="53.42871706313144" lon="14.518247104999526"><ele>34.83333333333333</ele><time>2026-04-06T16:08:47.997Z</time></trkpt><trkpt lat="53.428710226284544" lon="14.518090690860488"><ele>35.0</ele><time>2026-04-06T16:08:49.997Z</time></trkpt><trkpt lat="53.42870195239506" lon="14.517958667740823"><ele>34.6</ele><time>2026-04-06T16:08:51.997Z</time></trkpt><trkpt lat="53.42869191730295" lon="14.51784354553728"><ele>34.2</ele><time>2026-04-06T16:08:54.997Z</time></trkpt><trkpt lat="53.42867759607045" lon="14.517659906742336"><ele>33.8</ele><time>2026-04-06T16:09:05.997Z</time></trkpt><trkpt lat="53.42866972582374" lon="14.517549816506792"><ele>33.4</ele><time>2026-04-06T16:09:06.997Z</time></trkpt><trkpt lat="53.42865510143215" lon="14.517330234275983"><ele>33.0</ele><time>2026-04-06T16:09:08.997Z</time></trkpt><trkpt lat="53.428661533300584" lon="14.51720858441314"><ele>33.0</ele><time>2026-04-06T16:09:09.997Z</time></trkpt><trkpt lat="53.42864188258199" lon="14.517099464078518"><ele>33.0</ele><time>2026-04-06T16:09:11.997Z</time></trkpt><trkpt lat="53.42846670037482" lon="14.517117867561373"><ele>33.0</ele><time>2026-04-06T16:09:12.997Z</time></trkpt><trkpt lat="53.428429014430776" lon="14.517380842420884"><ele>33.0</ele><time>2026-04-06T16:09:14.997Z</time></trkpt><trkpt lat="53.42843760790797" lon="14.517545697506147"><ele>33.0</ele><time>2026-04-06T16:09:15.997Z</time></trkpt><trkpt lat="53.42844944602623" lon="14.51778729691439"><ele>33.0</ele><time>2026-04-06T16:09:16.997Z</time></trkpt><trkpt lat="53.42847120234817" lon="14.51804148452014"><ele>33.0</ele><time>2026-04-06T16:09:17.997Z</time></trkpt><trkpt lat="53.42849274184306" lon="14.518320903782062"><ele>33.333333333333336</ele><time>2026-04-06T16:09:18.997Z</time></trkpt><trkpt lat="53.42850885963582" lon="14.518608387541468"><ele>33.66666666666667</ele><time>2026-04-06T16:09:19.997Z</time></trkpt><trkpt lat="53.4285264244609" lon="14.518946804704735"><ele>34.0</ele><time>2026-04-06T16:09:20.997Z</time></trkpt><trkpt lat="53.42854467940609" lon="14.519300863352942"><ele>33.333333333333336</ele><time>2026-04-06T16:09:21.997Z</time></trkpt><trkpt lat="53.42856501989986" lon="14.51965892476805"><ele>32.666666666666664</ele><time>2026-04-06T16:09:22.997Z</time></trkpt><trkpt lat="53.42858588103847" lon="14.52003277368502"><ele>32.0</ele><time>2026-04-06T16:09:23.997Z</time></trkpt><trkpt lat="53.42860315585773" lon="14.520378315502574"><ele>31.0</ele><time>2026-04-06T16:09:24.997Z</time></trkpt><trkpt lat="53.42862106404494" lon="14.520686899380834"><ele>30.0</ele><time>2026-04-06T16:09:25.997Z</time></trkpt><trkpt lat="53.428632021461844" lon="14.520945988179266"><ele>29.0</ele><time>2026-04-06T16:09:26.997Z</time></trkpt><trkpt lat="53.428636752346236" lon="14.521168204469268"><ele>28.0</ele><time>2026-04-06T16:09:27.997Z</time></trkpt><trkpt lat="53.42864204000004" lon="14.52138053312973"><ele>27.0</ele><time>2026-04-06T16:09:28.997Z</time></trkpt><trkpt lat="53.42863635795798" lon="14.521583487199512"><ele>26.0</ele><time>2026-04-06T16:09:29.997Z</time></trkpt><trkpt lat="53.428628677130874" lon="14.521781002122843"><ele>25.0</ele><time>2026-04-06T16:09:30.997Z</time></trkpt><trkpt lat="53.42861788239501" lon="14.52193062056211"><ele>24.4</ele><time>2026-04-06T16:09:31.997Z</time></trkpt><trkpt lat="53.42860306947922" lon="14.522084166152776"><ele>23.8</ele><time>2026-04-06T16:09:33.997Z</time></trkpt><trkpt lat="53.42846937608102" lon="14.522158959213687"><ele>23.200000000000003</ele><time>2026-04-06T16:09:35.997Z</time></trkpt><trkpt lat="53.428383049432085" lon="14.522141601352814"><ele>22.6</ele><time>2026-04-06T16:09:36.997Z</time></trkpt><trkpt lat="53.42826385312173" lon="14.52214146603576"><ele>22.0</ele><time>2026-04-06T16:09:37.997Z</time></trkpt><trkpt lat="53.42816328729543" lon="14.52211478962524"><ele>22.333333333333332</ele><time>2026-04-06T16:09:38.997Z</time></trkpt><trkpt lat="53.42808245451054" lon="14.522050520130177"><ele>22.666666666666664</ele><time>2026-04-06T16:09:39.997Z</time></trkpt><trkpt lat="53.428017744611914" lon="14.521965770773983"><ele>23.0</ele><time>2026-04-06T16:09:41.997Z</time></trkpt><trkpt lat="53.42797967277102" lon="14.521863684651565"><ele>23.333333333333332</ele><time>2026-04-06T16:09:43.997Z</time></trkpt><trkpt lat="53.427936323278416" lon="14.521682838148326"><ele>23.666666666666668</ele><time>2026-04-06T16:09:45.998Z</time></trkpt><trkpt lat="53.427919576997226" lon="14.521550242672228"><ele>24.0</ele><time>2026-04-06T16:09:47.998Z</time></trkpt><trkpt lat="53.42777821372867" lon="14.521458954912475"><ele>24.0</ele><time>2026-04-06T16:09:50.998Z</time></trkpt><trkpt lat="53.42771199161399" lon="14.521535817063109"><ele>24.0</ele><time>2026-04-06T16:09:51.998Z</time></trkpt><trkpt lat="53.42763722202302" lon="14.521546368987583"><ele>24.0</ele><time>2026-04-06T16:09:52.998Z</time></trkpt><trkpt lat="53.42757331658768" lon="14.52154541637479"><ele>24.0</ele><time>2026-04-06T16:09:53.998Z</time></trkpt><trkpt lat="53.427508072413964" lon="14.521535391734185"><ele>24.0</ele><time>2026-04-06T16:09:54.998Z</time></trkpt><trkpt lat="53.427435885123856" lon="14.521476553374653"><ele>24.0</ele><time>2026-04-06T16:09:55.998Z</time></trkpt><trkpt lat="53.4273130849859" lon="14.521474005890983"><ele>24.0</ele><time>2026-04-06T16:09:57.998Z</time></trkpt><trkpt lat="53.4272024515473" lon="14.521318480444307"><ele>24.0</ele><time>2026-04-06T16:09:59.998Z</time></trkpt><trkpt lat="53.42710896390592" lon="14.52132735248458"><ele>23.0</ele><time>2026-04-06T16:10:02.998Z</time></trkpt><trkpt lat="53.42710896390592" lon="14.52132735248458"><ele>23.0</ele><time>2026-04-06T16:10:02.998Z</time></trkpt><trkpt lat="53.42710896390592" lon="14.52132735248458"><ele>23.0</ele><time>2026-04-06T16:10:02.998Z</time></trkpt></trkseg></trk></gpx>